<?xml version='1.0' encoding='UTF-8'?><gpx version="1.1" creator="JPX - https://github.com/jenetics/jpx" xmlns="http://www.topografix.com/GPX/1/1"><trk><trkseg><trkpt lat="44.771746955265286" lon="10.262645272752543"><ele>90.0</ele><time>2026-05-03T07:09:20Z</time></trkpt><trkpt lat="44.7716701851171" lon="10.262734571414867"><ele>90.0</ele><time>2026-05-03T07:09:21Z</time></trkpt><trkpt lat="44.771579645384556" lon="10.262818603043385"><ele>90.0</ele><time>2026-05-03T07:09:22Z</time></trkpt><trkpt lat="44.771437898252394" lon="10.26294892189787"><ele>90.0</ele><time>2026-05-03T07:09:23Z</time></trkpt><trkpt lat="44.77130515383867" lon="10.26306999542013"><ele>90.0</ele><time>2026-05-03T07:09:24Z</time></trkpt><trkpt lat="44.771188545936894" lon="10.2631667702419"><ele>90.0</ele><time>2026-05-03T07:09:25Z</time></trkpt><trkpt lat="44.771085693008395" lon="10.263230352258915"><ele>90.0</ele><time>2026-05-03T07:09:26Z</time></trkpt><trkpt lat="44.770982853141135" lon="10.263293803047373"><ele>90.0</ele><time>2026-05-03T07:09:27Z</time></trkpt><trkpt lat="44.770830104336525" lon="10.26313563769328"><ele>90.0</ele><time>2026-05-03T07:09:28Z</time></trkpt><trkpt lat="44.77069080239187" lon="10.263045102994704"><ele>90.0</ele><time>2026-05-03T07:09:29Z</time></trkpt><trkpt lat="44.77057490204613" lon="10.26295976379397"><ele>90.0</ele><time>2026-05-03T07:09:30Z</time></trkpt><trkpt lat="44.7704682332305" lon="10.262916603062806"><ele>90.0</ele><time>2026-05-03T07:09:31Z</time></trkpt><trkpt lat="44.770392399451055" lon="10.262822433281082"><ele>90.0</ele><time>2026-05-03T07:09:32Z</time></trkpt><trkpt lat="44.77032042012336" lon="10.26266390878457"><ele>90.0</ele><time>2026-05-03T07:09:33Z</time></trkpt><trkpt lat="44.770223450636095" lon="10.262488346441318"><ele>90.0</ele><time>2026-05-03T07:09:34Z</time></trkpt><trkpt lat="44.77014534777656" lon="10.262295094686563"><ele>90.0</ele><time>2026-05-03T07:09:35Z</time></trkpt><trkpt lat="44.7700586793162" lon="10.262123555384605"><ele>90.33333333333333</ele><time>2026-05-03T07:09:36Z</time></trkpt><trkpt lat="44.76998364465131" lon="10.261950693495095"><ele>90.66666666666666</ele><time>2026-05-03T07:09:37Z</time></trkpt><trkpt lat="44.769905394842525" lon="10.261765398944904"><ele>91.0</ele><time>2026-05-03T07:09:38Z</time></trkpt><trkpt lat="44.76981827048929" lon="10.261586589294906"><ele>91.33333333333333</ele><time>2026-05-03T07:09:39Z</time></trkpt><trkpt lat="44.76973196771177" lon="10.261401023478925"><ele>91.66666666666667</ele><time>2026-05-03T07:09:40Z</time></trkpt><trkpt lat="44.76964232376718" lon="10.261220976061647"><ele>92.0</ele><time>2026-05-03T07:09:41Z</time></trkpt><trkpt lat="44.769547749484474" lon="10.261025095901383"><ele>92.0</ele><time>2026-05-03T07:09:42Z</time></trkpt><trkpt lat="44.76944742272681" lon="10.26082082544466"><ele>92.0</ele><time>2026-05-03T07:09:43Z</time></trkpt><trkpt lat="44.769344252260055" lon="10.260612650780422"><ele>92.0</ele><time>2026-05-03T07:09:44Z</time></trkpt><trkpt lat="44.76924907360059" lon="10.26040843219689"><ele>92.33333333333334</ele><time>2026-05-03T07:09:45Z</time></trkpt><trkpt lat="44.76915031334987" lon="10.260200275896837"><ele>92.66666666666667</ele><time>2026-05-03T07:09:46Z</time></trkpt><trkpt lat="44.769050251684945" lon="10.25999341683163"><ele>93.0</ele><time>2026-05-03T07:09:47Z</time></trkpt><trkpt lat="44.768950193045306" lon="10.259783172231778"><ele>93.0</ele><time>2026-05-03T07:09:48Z</time></trkpt><trkpt lat="44.768853616564506" lon="10.25957669415545"><ele>93.0</ele><time>2026-05-03T07:09:49Z</time></trkpt><trkpt lat="44.768747592442026" lon="10.259356871785124"><ele>93.0</ele><time>2026-05-03T07:09:50Z</time></trkpt><trkpt lat="44.76864813374187" lon="10.259140986329792"><ele>93.0</ele><time>2026-05-03T07:09:51Z</time></trkpt><trkpt lat="44.76854356908862" lon="10.258923944546007"><ele>93.0</ele><time>2026-05-03T07:09:52Z</time></trkpt><trkpt lat="44.76843346945152" lon="10.258679362444951"><ele>93.0</ele><time>2026-05-03T07:09:53Z</time></trkpt><trkpt lat="44.768319848699086" lon="10.258442537191375"><ele>93.0</ele><time>2026-05-03T07:09:54Z</time></trkpt><trkpt lat="44.76821025408754" lon="10.25820590854437"><ele>93.0</ele><time>2026-05-03T07:09:55Z</time></trkpt><trkpt lat="44.76810017423932" lon="10.257976333709609"><ele>93.0</ele><time>2026-05-03T07:09:56Z</time></trkpt><trkpt lat="44.76799407053532" lon="10.257739629339483"><ele>93.0</ele><time>2026-05-03T07:09:57Z</time></trkpt><trkpt lat="44.7678888795312" lon="10.25750565851351"><ele>93.0</ele><time>2026-05-03T07:09:58Z</time></trkpt><trkpt lat="44.76778490510271" lon="10.257284760230943"><ele>93.0</ele><time>2026-05-03T07:09:59Z</time></trkpt><trkpt lat="44.76769407858848" lon="10.257085969531207"><ele>93.66666666666667</ele><time>2026-05-03T07:10:00Z</time></trkpt><trkpt lat="44.76760276718581" lon="10.256884637188005"><ele>94.33333333333334</ele><time>2026-05-03T07:10:01Z</time></trkpt><trkpt lat="44.76750429533952" lon="10.256666805470893"><ele>95.0</ele><time>2026-05-03T07:10:02Z</time></trkpt><trkpt lat="44.76739900912974" lon="10.256447262536778"><ele>95.0</ele><time>2026-05-03T07:10:03Z</time></trkpt><trkpt lat="44.767296698276354" lon="10.256228385482911"><ele>95.0</ele><time>2026-05-03T07:10:04Z</time></trkpt><trkpt lat="44.76718857158405" lon="10.255996301507734"><ele>95.0</ele><time>2026-05-03T07:10:05Z</time></trkpt><trkpt lat="44.76708823122382" lon="10.255778293256089"><ele>95.0</ele><time>2026-05-03T07:10:06Z</time></trkpt><trkpt lat="44.76699289292238" lon="10.255563824122982"><ele>95.0</ele><time>2026-05-03T07:10:07Z</time></trkpt><trkpt lat="44.76689008178338" lon="10.255343389267061"><ele>95.0</ele><time>2026-05-03T07:10:08Z</time></trkpt><trkpt lat="44.76679605640395" lon="10.255135239375726"><ele>95.0</ele><time>2026-05-03T07:10:09Z</time></trkpt><trkpt lat="44.766689193133104" lon="10.254919435046745"><ele>95.0</ele><time>2026-05-03T07:10:10Z</time></trkpt><trkpt lat="44.76659052656193" lon="10.254703502597648"><ele>95.0</ele><time>2026-05-03T07:10:11Z</time></trkpt><trkpt lat="44.766494129686016" lon="10.25448786218843"><ele>95.33333333333334</ele><time>2026-05-03T07:10:12Z</time></trkpt><trkpt lat="44.76639923717824" lon="10.25427187981654"><ele>95.66666666666667</ele><time>2026-05-03T07:10:13Z</time></trkpt><trkpt lat="44.766306890072386" lon="10.25406454275113"><ele>96.0</ele><time>2026-05-03T07:10:14Z</time></trkpt><trkpt lat="44.766214677289945" lon="10.253851374239604"><ele>96.66666666666666</ele><time>2026-05-03T07:10:15Z</time></trkpt><trkpt lat="44.76612515717556" lon="10.253651853359033"><ele>97.33333333333333</ele><time>2026-05-03T07:10:16Z</time></trkpt><trkpt lat="44.76602610075374" lon="10.253444924219954"><ele>98.0</ele><time>2026-05-03T07:10:17Z</time></trkpt><trkpt lat="44.76592861898192" lon="10.253234322244268"><ele>98.0</ele><time>2026-05-03T07:10:18Z</time></trkpt><trkpt lat="44.765827419165134" lon="10.253019649140525"><ele>98.0</ele><time>2026-05-03T07:10:19Z</time></trkpt><trkpt lat="44.765728497044094" lon="10.252803158466357"><ele>98.0</ele><time>2026-05-03T07:10:20Z</time></trkpt><trkpt lat="44.76562595499275" lon="10.252582805521772"><ele>98.0</ele><time>2026-05-03T07:10:21Z</time></trkpt><trkpt lat="44.7655223859857" lon="10.252361166002068"><ele>98.0</ele><time>2026-05-03T07:10:22Z</time></trkpt><trkpt lat="44.765423152362054" lon="10.252145513312694"><ele>98.0</ele><time>2026-05-03T07:10:23Z</time></trkpt><trkpt lat="44.76532706298616" lon="10.251926717454992"><ele>98.0</ele><time>2026-05-03T07:10:24Z</time></trkpt><trkpt lat="44.76522488359347" lon="10.251703918468673"><ele>98.0</ele><time>2026-05-03T07:10:25Z</time></trkpt><trkpt lat="44.76512731675194" lon="10.251483793627285"><ele>98.0</ele><time>2026-05-03T07:10:26Z</time></trkpt><trkpt lat="44.765028515375676" lon="10.251262657088766"><ele>98.0</ele><time>2026-05-03T07:10:27Z</time></trkpt><trkpt lat="44.76493925970004" lon="10.251058218627914"><ele>98.0</ele><time>2026-05-03T07:10:28Z</time></trkpt><trkpt lat="44.764853529934825" lon="10.250863495672952"><ele>98.0</ele><time>2026-05-03T07:10:29Z</time></trkpt><trkpt lat="44.764761039521694" lon="10.250662791512383"><ele>98.0</ele><time>2026-05-03T07:10:30Z</time></trkpt><trkpt lat="44.764666211549546" lon="10.250461432483096"><ele>98.0</ele><time>2026-05-03T07:10:31Z</time></trkpt><trkpt lat="44.76457570841331" lon="10.250260817618592"><ele>98.0</ele><time>2026-05-03T07:10:32.001Z</time></trkpt><trkpt lat="44.76448535820808" lon="10.250059380705421"><ele>98.0</ele><time>2026-05-03T07:10:33.001Z</time></trkpt><trkpt lat="44.76439693420458" lon="10.249857083022198"><ele>98.0</ele><time>2026-05-03T07:10:34.001Z</time></trkpt><trkpt lat="44.764303443889254" lon="10.249657106246339"><ele>98.0</ele><time>2026-05-03T07:10:35.001Z</time></trkpt><trkpt lat="44.76421321015475" lon="10.249463438779081"><ele>99.0</ele><time>2026-05-03T07:10:36.001Z</time></trkpt><trkpt lat="44.76412021057798" lon="10.249271249237845"><ele>100.0</ele><time>2026-05-03T07:10:37.001Z</time></trkpt><trkpt lat="44.76402671341056" lon="10.249079150871816"><ele>101.0</ele><time>2026-05-03T07:10:38.001Z</time></trkpt><trkpt lat="44.7639394278799" lon="10.248887455370719"><ele>101.0</ele><time>2026-05-03T07:10:39.001Z</time></trkpt><trkpt lat="44.76384397493267" lon="10.248695072351234"><ele>101.0</ele><time>2026-05-03T07:10:40.001Z</time></trkpt><trkpt lat="44.76375386046103" lon="10.248498031428756"><ele>101.0</ele><time>2026-05-03T07:10:41.001Z</time></trkpt><trkpt lat="44.76366125727811" lon="10.24829660420384"><ele>101.33333333333333</ele><time>2026-05-03T07:10:42.001Z</time></trkpt><trkpt lat="44.763561718026054" lon="10.24808965306439"><ele>101.66666666666666</ele><time>2026-05-03T07:10:43.001Z</time></trkpt><trkpt lat="44.7634438133456" lon="10.247850025463563"><ele>102.0</ele><time>2026-05-03T07:10:44.001Z</time></trkpt><trkpt lat="44.76331856823989" lon="10.247596350287473"><ele>102.33333333333334</ele><time>2026-05-03T07:10:45.001Z</time></trkpt><trkpt lat="44.76320065364293" lon="10.247345260046426"><ele>102.66666666666667</ele><time>2026-05-03T07:10:46.001Z</time></trkpt><trkpt lat="44.763085166978094" lon="10.247093147156432"><ele>103.0</ele><time>2026-05-03T07:10:47.001Z</time></trkpt><trkpt lat="44.762964238819976" lon="10.246845357134982"><ele>103.0</ele><time>2026-05-03T07:10:48.001Z</time></trkpt><trkpt lat="44.7628468592866" lon="10.24660068711012"><ele>103.0</ele><time>2026-05-03T07:10:49.001Z</time></trkpt><trkpt lat="44.76273424701188" lon="10.246352835393326"><ele>103.0</ele><time>2026-05-03T07:10:50.001Z</time></trkpt><trkpt lat="44.76261918095849" lon="10.246105589741305"><ele>103.33333333333334</ele><time>2026-05-03T07:10:51.001Z</time></trkpt><trkpt lat="44.76251150363577" lon="10.245864268762134"><ele>103.66666666666666</ele><time>2026-05-03T07:10:52.001Z</time></trkpt><trkpt lat="44.76241314424479" lon="10.245681848140103"><ele>104.0</ele><time>2026-05-03T07:10:53Z</time></trkpt><trkpt lat="44.762343754619835" lon="10.245485473569858"><ele>103.0</ele><time>2026-05-03T07:10:54Z</time></trkpt><trkpt lat="44.76215236108082" lon="10.245083466427516"><ele>102.0</ele><time>2026-05-03T07:10:55Z</time></trkpt><trkpt lat="44.76203530462045" lon="10.244827611134083"><ele>102.0</ele><time>2026-05-03T07:10:56Z</time></trkpt><trkpt lat="44.76191798918311" lon="10.244579045570028"><ele>102.0</ele><time>2026-05-03T07:10:57Z</time></trkpt><trkpt lat="44.76180030469492" lon="10.244331281243163"><ele>102.0</ele><time>2026-05-03T07:10:58Z</time></trkpt><trkpt lat="44.761691185927" lon="10.244101748373236"><ele>102.33333333333334</ele><time>2026-05-03T07:10:59Z</time></trkpt><trkpt lat="44.76158587439408" lon="10.243881022711232"><ele>102.66666666666667</ele><time>2026-05-03T07:11:00Z</time></trkpt><trkpt lat="44.761481662946224" lon="10.243662053168977"><ele>103.0</ele><time>2026-05-03T07:11:01Z</time></trkpt><trkpt lat="44.761378815132964" lon="10.243449067655494"><ele>103.0</ele><time>2026-05-03T07:11:02Z</time></trkpt><trkpt lat="44.76127741893549" lon="10.243236786520596"><ele>103.0</ele><time>2026-05-03T07:11:03Z</time></trkpt><trkpt lat="44.76117318332271" lon="10.243016614879089"><ele>103.0</ele><time>2026-05-03T07:11:04Z</time></trkpt><trkpt lat="44.76106685200107" lon="10.242795135606816"><ele>105.0</ele><time>2026-05-03T07:11:05Z</time></trkpt><trkpt lat="44.76096168198565" lon="10.242573331337471"><ele>107.0</ele><time>2026-05-03T07:11:06Z</time></trkpt><trkpt lat="44.760856095837504" lon="10.24235283019572"><ele>109.0</ele><time>2026-05-03T07:11:07Z</time></trkpt><trkpt lat="44.76075265430236" lon="10.242131687112009"><ele>109.0</ele><time>2026-05-03T07:11:08Z</time></trkpt><trkpt lat="44.76064816432604" lon="10.241907427767083"><ele>109.0</ele><time>2026-05-03T07:11:09Z</time></trkpt><trkpt lat="44.76053855799253" lon="10.241683084825286"><ele>109.0</ele><time>2026-05-03T07:11:10Z</time></trkpt><trkpt lat="44.76044567669294" lon="10.241444850708836"><ele>109.33333333333334</ele><time>2026-05-03T07:11:11Z</time></trkpt><trkpt lat="44.760339548997145" lon="10.241217822588087"><ele>109.66666666666666</ele><time>2026-05-03T07:11:12Z</time></trkpt><trkpt lat="44.7602204169593" lon="10.241003498472718"><ele>110.0</ele><time>2026-05-03T07:11:13Z</time></trkpt><trkpt lat="44.76012605505082" lon="10.240759070947723"><ele>110.66666666666666</ele><time>2026-05-03T07:11:14Z</time></trkpt><trkpt lat="44.760003479855804" lon="10.240537645824629"><ele>111.33333333333334</ele><time>2026-05-03T07:11:15Z</time></trkpt><trkpt lat="44.759894633358776" lon="10.240300335480612"><ele>112.0</ele><time>2026-05-03T07:11:16Z</time></trkpt><trkpt lat="44.759796566232374" lon="10.240049717368638"><ele>112.0</ele><time>2026-05-03T07:11:17Z</time></trkpt><trkpt lat="44.7596736157183" lon="10.239824170660889"><ele>112.0</ele><time>2026-05-03T07:11:18Z</time></trkpt><trkpt lat="44.759563393895185" lon="10.239585084682364"><ele>112.0</ele><time>2026-05-03T07:11:19Z</time></trkpt><trkpt lat="44.75945281554973" lon="10.23934643573038"><ele>110.66666666666667</ele><time>2026-05-03T07:11:20Z</time></trkpt><trkpt lat="44.75934286571655" lon="10.23910314494035"><ele>109.33333333333334</ele><time>2026-05-03T07:11:21Z</time></trkpt><trkpt lat="44.759232966522326" lon="10.238871675247601"><ele>108.0</ele><time>2026-05-03T07:11:22Z</time></trkpt><trkpt lat="44.75914223515769" lon="10.238632333419645"><ele>108.0</ele><time>2026-05-03T07:11:23Z</time></trkpt><trkpt lat="44.7590401716097" lon="10.238411550671277"><ele>108.0</ele><time>2026-05-03T07:11:24Z</time></trkpt><trkpt lat="44.758928306457655" lon="10.238208731514352"><ele>108.0</ele><time>2026-05-03T07:11:25Z</time></trkpt><trkpt lat="44.75884413047216" lon="10.237985830844806"><ele>108.0</ele><time>2026-05-03T07:11:26Z</time></trkpt><trkpt lat="44.7587508791591" lon="10.237781730312335"><ele>108.0</ele><time>2026-05-03T07:11:27Z</time></trkpt><trkpt lat="44.758671891183376" lon="10.237611078785338"><ele>108.0</ele><time>2026-05-03T07:11:28Z</time></trkpt><trkpt lat="44.75860473259455" lon="10.237465983271457"><ele>108.0</ele><time>2026-05-03T07:11:29Z</time></trkpt><trkpt lat="44.75855109497016" lon="10.23734770188626"><ele>108.0</ele><time>2026-05-03T07:11:30Z</time></trkpt><trkpt lat="44.75850408816531" lon="10.237244490714318"><ele>108.00000000000001</ele><time>2026-05-03T07:11:31Z</time></trkpt><trkpt lat="44.758466029328865" lon="10.237160926353681"><ele>108.00000000000001</ele><time>2026-05-03T07:11:32Z</time></trkpt><trkpt lat="44.75841017548363" lon="10.237038286989877"><ele>108.0</ele><time>2026-05-03T07:11:34Z</time></trkpt><trkpt lat="44.758266961190856" lon="10.23702909852452"><ele>108.0</ele><time>2026-05-03T07:11:36Z</time></trkpt><trkpt lat="44.75820402735398" lon="10.236950419371437"><ele>108.0</ele><time>2026-05-03T07:11:38Z</time></trkpt><trkpt lat="44.75818235138627" lon="10.23684617591329"><ele>108.0</ele><time>2026-05-03T07:11:40Z</time></trkpt><trkpt lat="44.75824536102695" lon="10.236726444116712"><ele>108.0</ele><time>2026-05-03T07:11:43Z</time></trkpt><trkpt lat="44.75804992728916" lon="10.236771298207316"><ele>108.0</ele><time>2026-05-03T07:11:44Z</time></trkpt><trkpt lat="44.758129788560524" lon="10.236947792661004"><ele>108.0</ele><time>2026-05-03T07:11:45Z</time></trkpt><trkpt lat="44.75817701352589" lon="10.237022642264614"><ele>108.00000000000001</ele><time>2026-05-03T07:11:49Z</time></trkpt><trkpt lat="44.7582092068503" lon="10.237099085696055"><ele>108.00000000000001</ele><time>2026-05-03T07:12:43Z</time></trkpt><trkpt lat="44.75827755171994" lon="10.237100681483492"><ele>108.0</ele><time>2026-05-03T07:15:57.999Z</time></trkpt><trkpt lat="44.75831985711018" lon="10.237186084034485"><ele>108.0</ele><time>2026-05-03T07:16:00.999Z</time></trkpt><trkpt lat="44.758368242306375" lon="10.23694709718409"><ele>108.0</ele><time>2026-05-03T07:16:07.999Z</time></trkpt><trkpt lat="44.75829781165159" lon="10.23680293725671"><ele>108.0</ele><time>2026-05-03T07:16:08.999Z</time></trkpt><trkpt lat="44.758200128361196" lon="10.236613151174693"><ele>108.0</ele><time>2026-05-03T07:16:09.999Z</time></trkpt><trkpt lat="44.75810522962201" lon="10.236413848556296"><ele>108.0</ele><time>2026-05-03T07:16:10.999Z</time></trkpt><trkpt lat="44.758004251188844" lon="10.236172772207786"><ele>108.0</ele><time>2026-05-03T07:16:11.999Z</time></trkpt><trkpt lat="44.75789222016993" lon="10.23593580937256"><ele>108.0</ele><time>2026-05-03T07:16:12.999Z</time></trkpt><trkpt lat="44.75779310210145" lon="10.235722649401204"><ele>109.0</ele><time>2026-05-03T07:16:13.999Z</time></trkpt><trkpt lat="44.75769986289307" lon="10.23551428295523"><ele>110.0</ele><time>2026-05-03T07:16:14.999Z</time></trkpt><trkpt lat="44.75760473807473" lon="10.235307190219038"><ele>111.0</ele><time>2026-05-03T07:16:15.999Z</time></trkpt><trkpt lat="44.75751130721778" lon="10.235097800005528"><ele>111.0</ele><time>2026-05-03T07:16:16.999Z</time></trkpt><trkpt lat="44.75741422573013" lon="10.234883632011167"><ele>111.0</ele><time>2026-05-03T07:16:17.999Z</time></trkpt><trkpt lat="44.75731384316814" lon="10.234670601917491"><ele>111.0</ele><time>2026-05-03T07:16:18.999Z</time></trkpt><trkpt lat="44.757218190823224" lon="10.234461544816531"><ele>111.0</ele><time>2026-05-03T07:16:19.999Z</time></trkpt><trkpt lat="44.75712758610851" lon="10.234261107741126"><ele>111.0</ele><time>2026-05-03T07:16:20.999Z</time></trkpt><trkpt lat="44.75702852374141" lon="10.234051986664202"><ele>111.0</ele><time>2026-05-03T07:16:21.999Z</time></trkpt><trkpt lat="44.75692351971039" lon="10.233838888989842"><ele>111.0</ele><time>2026-05-03T07:16:22.999Z</time></trkpt><trkpt lat="44.75682162772723" lon="10.233627328063461"><ele>111.0</ele><time>2026-05-03T07:16:23.999Z</time></trkpt><trkpt lat="44.756720868707816" lon="10.233408009773106"><ele>111.0</ele><time>2026-05-03T07:16:24.999Z</time></trkpt><trkpt lat="44.75662033349209" lon="10.233194754669423"><ele>110.0</ele><time>2026-05-03T07:16:25.999Z</time></trkpt><trkpt lat="44.75652041752563" lon="10.232963310577984"><ele>109.0</ele><time>2026-05-03T07:16:26.999Z</time></trkpt><trkpt lat="44.75643397880921" lon="10.232747223472225"><ele>108.0</ele><time>2026-05-03T07:16:27.999Z</time></trkpt><trkpt lat="44.75635068641798" lon="10.232550749475193"><ele>108.0</ele><time>2026-05-03T07:16:28.999Z</time></trkpt><trkpt lat="44.756287861163855" lon="10.232361447226904"><ele>108.0</ele><time>2026-05-03T07:16:29.999Z</time></trkpt><trkpt lat="44.75623450325684" lon="10.23217767248796"><ele>108.0</ele><time>2026-05-03T07:16:30.999Z</time></trkpt><trkpt lat="44.756196585189606" lon="10.231995460930712"><ele>108.0</ele><time>2026-05-03T07:16:31.999Z</time></trkpt><trkpt lat="44.756167083027286" lon="10.231830634452717"><ele>107.80000000000001</ele><time>2026-05-03T07:16:32.999Z</time></trkpt><trkpt lat="44.75614193845093" lon="10.231676652592956"><ele>107.60000000000001</ele><time>2026-05-03T07:16:33.999Z</time></trkpt><trkpt lat="44.75612797383814" lon="10.231526138114205"><ele>107.39999999999999</ele><time>2026-05-03T07:16:34.999Z</time></trkpt><trkpt lat="44.756140241209124" lon="10.2313854233039"><ele>107.19999999999999</ele><time>2026-05-03T07:16:35.999Z</time></trkpt><trkpt lat="44.75616398051815" lon="10.231238186326692"><ele>107.0</ele><time>2026-05-03T07:16:36.999Z</time></trkpt><trkpt lat="44.75615522378296" lon="10.231076067574437"><ele>107.75</ele><time>2026-05-03T07:16:37.999Z</time></trkpt><trkpt lat="44.756108622803545" lon="10.23092902177153"><ele>108.5</ele><time>2026-05-03T07:16:38.999Z</time></trkpt><trkpt lat="44.75602686100885" lon="10.230802535461189"><ele>109.25</ele><time>2026-05-03T07:16:39.999Z</time></trkpt><trkpt lat="44.75590989867268" lon="10.23072450573702"><ele>110.0</ele><time>2026-05-03T07:16:40.999Z</time></trkpt><trkpt lat="44.75577264799161" lon="10.230697351955342"><ele>110.66666666666666</ele><time>2026-05-03T07:16:41.999Z</time></trkpt><trkpt lat="44.75562855621142" lon="10.230672665826882"><ele>111.33333333333334</ele><time>2026-05-03T07:16:42.999Z</time></trkpt><trkpt lat="44.755484955212935" lon="10.23059216914834"><ele>112.0</ele><time>2026-05-03T07:16:43.999Z</time></trkpt><trkpt lat="44.75537659681617" lon="10.230412714367722"><ele>112.0</ele><time>2026-05-03T07:16:44.999Z</time></trkpt><trkpt lat="44.75524664322836" lon="10.230180749042383"><ele>112.0</ele><time>2026-05-03T07:16:45.999Z</time></trkpt><trkpt lat="44.75511928680675" lon="10.229937435051458"><ele>112.0</ele><time>2026-05-03T07:16:46.999Z</time></trkpt><trkpt lat="44.75500570272147" lon="10.229676571614581"><ele>112.0</ele><time>2026-05-03T07:16:47.999Z</time></trkpt><trkpt lat="44.754888583620385" lon="10.229420246782208"><ele>112.0</ele><time>2026-05-03T07:16:48.999Z</time></trkpt><trkpt lat="44.75477500742579" lon="10.229160184522703"><ele>112.0</ele><time>2026-05-03T07:16:50Z</time></trkpt><trkpt lat="44.75466614242576" lon="10.228934884262667"><ele>112.0</ele><time>2026-05-03T07:16:51Z</time></trkpt><trkpt lat="44.75456143732227" lon="10.228712324028807"><ele>112.0</ele><time>2026-05-03T07:16:52Z</time></trkpt><trkpt lat="44.75445976387786" lon="10.228498356302955"><ele>112.0</ele><time>2026-05-03T07:16:53Z</time></trkpt><trkpt lat="44.75436600407632" lon="10.228298938840961"><ele>112.66666666666667</ele><time>2026-05-03T07:16:54Z</time></trkpt><trkpt lat="44.754277725788945" lon="10.228111189201751"><ele>113.33333333333334</ele><time>2026-05-03T07:16:55Z</time></trkpt><trkpt lat="44.754195041144435" lon="10.227936624373788"><ele>114.0</ele><time>2026-05-03T07:16:56Z</time></trkpt><trkpt lat="44.754135286644825" lon="10.22775255153056"><ele>114.0</ele><time>2026-05-03T07:16:57Z</time></trkpt><trkpt lat="44.75407735013019" lon="10.227595444645551"><ele>114.0</ele><time>2026-05-03T07:16:58Z</time></trkpt><trkpt lat="44.75407472409516" lon="10.227441330243566"><ele>114.0</ele><time>2026-05-03T07:16:59Z</time></trkpt><trkpt lat="44.754097067811585" lon="10.227311490306901"><ele>114.0</ele><time>2026-05-03T07:17:00Z</time></trkpt><trkpt lat="44.754116642338985" lon="10.227194196930514"><ele>114.0</ele><time>2026-05-03T07:17:01Z</time></trkpt><trkpt lat="44.75410314493639" lon="10.227086452958552"><ele>114.2</ele><time>2026-05-03T07:17:02Z</time></trkpt><trkpt lat="44.75403519983798" lon="10.226985447912968"><ele>114.4</ele><time>2026-05-03T07:17:03Z</time></trkpt><trkpt lat="44.75393174979031" lon="10.226937276008151"><ele>114.6</ele><time>2026-05-03T07:17:04Z</time></trkpt><trkpt lat="44.75382484039494" lon="10.226946092372685"><ele>114.8</ele><time>2026-05-03T07:17:05Z</time></trkpt><trkpt lat="44.75376008288967" lon="10.226892321697798"><ele>115.0</ele><time>2026-05-03T07:17:06Z</time></trkpt><trkpt lat="44.75365019184139" lon="10.226775375611586"><ele>115.0</ele><time>2026-05-03T07:17:08Z</time></trkpt><trkpt lat="44.75360312874592" lon="10.226675630774274"><ele>115.0</ele><time>2026-05-03T07:17:09Z</time></trkpt><trkpt lat="44.753556807441115" lon="10.226576347129477"><ele>115.0</ele><time>2026-05-03T07:17:10Z</time></trkpt><trkpt lat="44.75350469388124" lon="10.22646501975995"><ele>115.0</ele><time>2026-05-03T07:17:11Z</time></trkpt><trkpt lat="44.75343832655541" lon="10.22631864752325"><ele>115.0</ele><time>2026-05-03T07:17:12Z</time></trkpt><trkpt lat="44.75337359133102" lon="10.226123425150444"><ele>115.33333333333334</ele><time>2026-05-03T07:17:13Z</time></trkpt><trkpt lat="44.75328064885779" lon="10.225922775857919"><ele>115.66666666666666</ele><time>2026-05-03T07:17:14Z</time></trkpt><trkpt lat="44.75317517608734" lon="10.225736352950292"><ele>116.0</ele><time>2026-05-03T07:17:15Z</time></trkpt><trkpt lat="44.7530871907345" lon="10.225532021075033"><ele>116.0</ele><time>2026-05-03T07:17:16Z</time></trkpt><trkpt lat="44.75299414720127" lon="10.225335333856682"><ele>116.0</ele><time>2026-05-03T07:17:17Z</time></trkpt><trkpt lat="44.75291833655632" lon="10.225172107264333"><ele>116.0</ele><time>2026-05-03T07:17:18Z</time></trkpt><trkpt lat="44.75284038123958" lon="10.225006884650865"><ele>116.0</ele><time>2026-05-03T07:17:19Z</time></trkpt><trkpt lat="44.75276620405739" lon="10.22486628514875"><ele>116.0</ele><time>2026-05-03T07:17:20Z</time></trkpt><trkpt lat="44.752701177441274" lon="10.22478093236202"><ele>116.0</ele><time>2026-05-03T07:17:21Z</time></trkpt><trkpt lat="44.752649748747416" lon="10.224714930537909"><ele>116.0</ele><time>2026-05-03T07:17:22Z</time></trkpt><trkpt lat="44.75259191219031" lon="10.224555841605534"><ele>116.0</ele><time>2026-05-03T07:17:24Z</time></trkpt><trkpt lat="44.752574780869956" lon="10.224435372019162"><ele>116.0</ele><time>2026-05-03T07:17:25Z</time></trkpt><trkpt lat="44.75254527455454" lon="10.22431983402046"><ele>116.0</ele><time>2026-05-03T07:17:26Z</time></trkpt><trkpt lat="44.75244583611529" lon="10.224279613458064"><ele>116.0</ele><time>2026-05-03T07:17:27Z</time></trkpt><trkpt lat="44.75230982292177" lon="10.22434030215121"><ele>116.0</ele><time>2026-05-03T07:17:28Z</time></trkpt><trkpt lat="44.75216897402252" lon="10.224364990348151"><ele>116.0</ele><time>2026-05-03T07:17:29Z</time></trkpt><trkpt lat="44.75201812508021" lon="10.224341185631042"><ele>116.33333333333333</ele><time>2026-05-03T07:17:30Z</time></trkpt><trkpt lat="44.7518577331757" lon="10.224314969052273"><ele>116.66666666666666</ele><time>2026-05-03T07:17:31Z</time></trkpt><trkpt lat="44.75168744614443" lon="10.224290999324102"><ele>117.0</ele><time>2026-05-03T07:17:32Z</time></trkpt><trkpt lat="44.75151036979196" lon="10.224267509845133"><ele>117.0</ele><time>2026-05-03T07:17:33Z</time></trkpt><trkpt lat="44.75132718909815" lon="10.224239982609303"><ele>117.0</ele><time>2026-05-03T07:17:34Z</time></trkpt><trkpt lat="44.751138867943595" lon="10.224224854366492"><ele>117.0</ele><time>2026-05-03T07:17:35Z</time></trkpt><trkpt lat="44.75095243844637" lon="10.224203103879004"><ele>117.0</ele><time>2026-05-03T07:17:36Z</time></trkpt><trkpt lat="44.75076430156529" lon="10.224180386433662"><ele>117.0</ele><time>2026-05-03T07:17:37Z</time></trkpt><trkpt lat="44.750590078706885" lon="10.224153937169213"><ele>117.0</ele><time>2026-05-03T07:17:38Z</time></trkpt><trkpt lat="44.75042833338471" lon="10.224129848826468"><ele>117.0</ele><time>2026-05-03T07:17:39Z</time></trkpt><trkpt lat="44.75027635790757" lon="10.224110649702572"><ele>117.0</ele><time>2026-05-03T07:17:40Z</time></trkpt><trkpt lat="44.75014629388417" lon="10.224098429763629"><ele>117.0</ele><time>2026-05-03T07:17:41Z</time></trkpt><trkpt lat="44.74999011042222" lon="10.224078891762387"><ele>117.0</ele><time>2026-05-03T07:17:42Z</time></trkpt><trkpt lat="44.749824513071545" lon="10.224054991138209"><ele>117.0</ele><time>2026-05-03T07:17:43Z</time></trkpt><trkpt lat="44.74966460869651" lon="10.224035426386022"><ele>117.0</ele><time>2026-05-03T07:17:44Z</time></trkpt><trkpt lat="44.74952183736153" lon="10.22402365263357"><ele>117.0</ele><time>2026-05-03T07:17:45Z</time></trkpt><trkpt lat="44.74938228872629" lon="10.224006138589424"><ele>117.0</ele><time>2026-05-03T07:17:46Z</time></trkpt><trkpt lat="44.749235271828624" lon="10.223982755780133"><ele>117.25</ele><time>2026-05-03T07:17:47Z</time></trkpt><trkpt lat="44.74909183253513" lon="10.223958773041412"><ele>117.5</ele><time>2026-05-03T07:17:48Z</time></trkpt><trkpt lat="44.748965977757905" lon="10.22394486813948"><ele>117.75</ele><time>2026-05-03T07:17:49Z</time></trkpt><trkpt lat="44.74885684427111" lon="10.22393424065648"><ele>118.0</ele><time>2026-05-03T07:17:50Z</time></trkpt><trkpt lat="44.748745701694105" lon="10.223915472572768"><ele>118.0</ele><time>2026-05-03T07:17:51Z</time></trkpt><trkpt lat="44.748655075505326" lon="10.223900367699077"><ele>118.0</ele><time>2026-05-03T07:17:52Z</time></trkpt><trkpt lat="44.7485558776002" lon="10.223888040525441"><ele>118.0</ele><time>2026-05-03T07:17:53Z</time></trkpt><trkpt lat="44.74843161221729" lon="10.223874607498798"><ele>118.0</ele><time>2026-05-03T07:17:54Z</time></trkpt><trkpt lat="44.74829701139071" lon="10.223862049140035"><ele>118.33333333333334</ele><time>2026-05-03T07:17:55Z</time></trkpt><trkpt lat="44.7481446262219" lon="10.223841067524003"><ele>118.66666666666666</ele><time>2026-05-03T07:17:56Z</time></trkpt><trkpt lat="44.747985161915764" lon="10.223823231720514"><ele>119.0</ele><time>2026-05-03T07:17:57Z</time></trkpt><trkpt lat="44.747848795690686" lon="10.223807572196838"><ele>119.66666666666666</ele><time>2026-05-03T07:17:58Z</time></trkpt><trkpt lat="44.7476830110727" lon="10.223767358075792"><ele>120.33333333333334</ele><time>2026-05-03T07:17:59Z</time></trkpt><trkpt lat="44.7475359141647" lon="10.223750228362368"><ele>121.0</ele><time>2026-05-03T07:17:59.999Z</time></trkpt><trkpt lat="44.747389170310406" lon="10.22373313971837"><ele>121.0</ele><time>2026-05-03T07:18:00.999Z</time></trkpt><trkpt lat="44.74722184005966" lon="10.22373197989219"><ele>121.0</ele><time>2026-05-03T07:18:01.999Z</time></trkpt><trkpt lat="44.747047571389245" lon="10.223705125978759"><ele>121.0</ele><time>2026-05-03T07:18:02.999Z</time></trkpt><trkpt lat="44.74686656048957" lon="10.223687025893595"><ele>121.0</ele><time>2026-05-03T07:18:03.999Z</time></trkpt><trkpt lat="44.746678814317676" lon="10.223664701762944"><ele>121.0</ele><time>2026-05-03T07:18:04.999Z</time></trkpt><trkpt lat="44.74649030717914" lon="10.22363783819274"><ele>121.0</ele><time>2026-05-03T07:18:05.999Z</time></trkpt><trkpt lat="44.746287325217736" lon="10.22362469974099"><ele>121.0</ele><time>2026-05-03T07:18:06.999Z</time></trkpt><trkpt lat="44.746078978233726" lon="10.223641558442276"><ele>121.0</ele><time>2026-05-03T07:18:07.999Z</time></trkpt><trkpt lat="44.74586885418335" lon="10.223685378773473"><ele>121.0</ele><time>2026-05-03T07:18:08.999Z</time></trkpt><trkpt lat="44.74566277486489" lon="10.223758757211124"><ele>121.33333333333334</ele><time>2026-05-03T07:18:09.999Z</time></trkpt><trkpt lat="44.74546631692254" lon="10.223864495526032"><ele>121.66666666666666</ele><time>2026-05-03T07:18:10.999Z</time></trkpt><trkpt lat="44.7452875563359" lon="10.223994180383052"><ele>122.0</ele><time>2026-05-03T07:18:11.999Z</time></trkpt><trkpt lat="44.745136869359605" lon="10.22411967565963"><ele>122.25</ele><time>2026-05-03T07:18:12.999Z</time></trkpt><trkpt lat="44.74501522687859" lon="10.224229463135504"><ele>122.5</ele><time>2026-05-03T07:18:13.999Z</time></trkpt><trkpt lat="44.744886245592404" lon="10.224328851298228"><ele>122.75</ele><time>2026-05-03T07:18:14.999Z</time></trkpt><trkpt lat="44.7447688092901" lon="10.22442053445693"><ele>123.0</ele><time>2026-05-03T07:18:15.999Z</time></trkpt><trkpt lat="44.7446507805605" lon="10.22450494690656"><ele>123.0</ele><time>2026-05-03T07:18:16.999Z</time></trkpt><trkpt lat="44.74454232480985" lon="10.22458033191305"><ele>123.00000000000001</ele><time>2026-05-03T07:18:17.999Z</time></trkpt><trkpt lat="44.74444809118889" lon="10.224659291136343"><ele>123.00000000000001</ele><time>2026-05-03T07:18:18.999Z</time></trkpt><trkpt lat="44.74437933527952" lon="10.22471967090666"><ele>123.0</ele><time>2026-05-03T07:18:19.999Z</time></trkpt><trkpt lat="44.74431977071158" lon="10.224769813756899"><ele>123.0</ele><time>2026-05-03T07:18:20.999Z</time></trkpt><trkpt lat="44.74418844321966" lon="10.22472682983141"><ele>123.2</ele><time>2026-05-03T07:18:22.999Z</time></trkpt><trkpt lat="44.74411048169689" lon="10.224776770528281"><ele>123.4</ele><time>2026-05-03T07:18:23.999Z</time></trkpt><trkpt lat="44.74403908541421" lon="10.224845133833151"><ele>123.60000000000001</ele><time>2026-05-03T07:18:24.999Z</time></trkpt><trkpt lat="44.74395125956617" lon="10.224889132229801"><ele>123.80000000000001</ele><time>2026-05-03T07:18:25.999Z</time></trkpt><trkpt lat="44.743837134517634" lon="10.224854966581567"><ele>124.0</ele><time>2026-05-03T07:18:26.999Z</time></trkpt><trkpt lat="44.74368924108986" lon="10.224861824042808"><ele>124.0</ele><time>2026-05-03T07:18:27.999Z</time></trkpt><trkpt lat="44.74351820243932" lon="10.224870128273187"><ele>124.0</ele><time>2026-05-03T07:18:28.999Z</time></trkpt><trkpt lat="44.743332277663065" lon="10.224880796412151"><ele>124.0</ele><time>2026-05-03T07:18:29.999Z</time></trkpt><trkpt lat="44.743142664106884" lon="10.224910420385008"><ele>124.0</ele><time>2026-05-03T07:18:30.999Z</time></trkpt><trkpt lat="44.74293563037186" lon="10.22490852770584"><ele>124.0</ele><time>2026-05-03T07:18:31.999Z</time></trkpt><trkpt lat="44.74273038983208" lon="10.224925037203462"><ele>124.0</ele><time>2026-05-03T07:18:32.999Z</time></trkpt><trkpt lat="44.74252663347219" lon="10.22494440678417"><ele>124.66666666666667</ele><time>2026-05-03T07:18:33.999Z</time></trkpt><trkpt lat="44.7423237117399" lon="10.224957600499941"><ele>125.33333333333334</ele><time>2026-05-03T07:18:34.999Z</time></trkpt><trkpt lat="44.74209901099949" lon="10.224970037185638"><ele>126.0</ele><time>2026-05-03T07:18:35.999Z</time></trkpt><trkpt lat="44.74187270297044" lon="10.224980540336077"><ele>126.5</ele><time>2026-05-03T07:18:36.999Z</time></trkpt><trkpt lat="44.74163133796699" lon="10.224995176960794"><ele>127.0</ele><time>2026-05-03T07:18:37.999Z</time></trkpt><trkpt lat="44.74137290994454" lon="10.225009351875686"><ele>127.0</ele><time>2026-05-03T07:18:38.999Z</time></trkpt><trkpt lat="44.741103638358595" lon="10.225024051196598"><ele>127.0</ele><time>2026-05-03T07:18:39.999Z</time></trkpt><trkpt lat="44.740836508048226" lon="10.225039590958364"><ele>127.5</ele><time>2026-05-03T07:18:40.999Z</time></trkpt><trkpt lat="44.740568455836396" lon="10.225061652234892"><ele>128.0</ele><time>2026-05-03T07:18:41.999Z</time></trkpt><trkpt lat="44.74029549923753" lon="10.225078467307235"><ele>128.0</ele><time>2026-05-03T07:18:42.999Z</time></trkpt><trkpt lat="44.74002167528812" lon="10.22509333768794"><ele>128.0</ele><time>2026-05-03T07:18:43.999Z</time></trkpt><trkpt lat="44.73975156605654" lon="10.225110674006908"><ele>128.0</ele><time>2026-05-03T07:18:44.999Z</time></trkpt><trkpt lat="44.739477792353924" lon="10.225127354778165"><ele>128.0</ele><time>2026-05-03T07:18:45.999Z</time></trkpt><trkpt lat="44.73921363291782" lon="10.22514048723225"><ele>127.5</ele><time>2026-05-03T07:18:46.999Z</time></trkpt><trkpt lat="44.73894556549281" lon="10.225157877451247"><ele>127.0</ele><time>2026-05-03T07:18:47.999Z</time></trkpt><trkpt lat="44.7386772264262" lon="10.225176707298175"><ele>127.5</ele><time>2026-05-03T07:18:48.999Z</time></trkpt><trkpt lat="44.738415995912725" lon="10.225169768416697"><ele>128.0</ele><time>2026-05-03T07:18:49.999Z</time></trkpt><trkpt lat="44.73815629383358" lon="10.225206694612584"><ele>128.0</ele><time>2026-05-03T07:18:50.999Z</time></trkpt><trkpt lat="44.737896161799185" lon="10.225218816128555"><ele>128.0</ele><time>2026-05-03T07:18:51.999Z</time></trkpt><trkpt lat="44.73764393015172" lon="10.225234017968749"><ele>129.5</ele><time>2026-05-03T07:18:52.999Z</time></trkpt><trkpt lat="44.7373948368655" lon="10.225230395375265"><ele>131.0</ele><time>2026-05-03T07:18:53.999Z</time></trkpt><trkpt lat="44.737172706772455" lon="10.225265400388762"><ele>131.0</ele><time>2026-05-03T07:18:54.999Z</time></trkpt><trkpt lat="44.73696399950193" lon="10.225278146037137"><ele>131.0</ele><time>2026-05-03T07:18:56Z</time></trkpt><trkpt lat="44.736773014674064" lon="10.225287723938216"><ele>131.0</ele><time>2026-05-03T07:18:57Z</time></trkpt><trkpt lat="44.7366029987131" lon="10.22529662418899"><ele>131.33333333333331</ele><time>2026-05-03T07:18:58Z</time></trkpt><trkpt lat="44.73644252521668" lon="10.225307025542424"><ele>131.66666666666666</ele><time>2026-05-03T07:18:59Z</time></trkpt><trkpt lat="44.7362759928337" lon="10.225315970168399"><ele>132.0</ele><time>2026-05-03T07:19:00Z</time></trkpt><trkpt lat="44.73609536329739" lon="10.225331100282018"><ele>132.33333333333334</ele><time>2026-05-03T07:19:01Z</time></trkpt><trkpt lat="44.73590230481854" lon="10.225344935266119"><ele>132.66666666666669</ele><time>2026-05-03T07:19:02Z</time></trkpt><trkpt lat="44.73569878689618" lon="10.225336220134794"><ele>133.0</ele><time>2026-05-03T07:19:03Z</time></trkpt><trkpt lat="44.73547791576721" lon="10.225350123167617"><ele>133.0</ele><time>2026-05-03T07:19:04Z</time></trkpt><trkpt lat="44.735243386394515" lon="10.225364885938967"><ele>133.0</ele><time>2026-05-03T07:19:05Z</time></trkpt><trkpt lat="44.734999481735294" lon="10.225380812117411"><ele>133.5</ele><time>2026-05-03T07:19:06Z</time></trkpt><trkpt lat="44.73475395071532" lon="10.22539740763112"><ele>134.0</ele><time>2026-05-03T07:19:07Z</time></trkpt><trkpt lat="44.73449801532136" lon="10.225437569796188"><ele>134.0</ele><time>2026-05-03T07:19:08Z</time></trkpt><trkpt lat="44.734238249016045" lon="10.225452068958965"><ele>134.0</ele><time>2026-05-03T07:19:09Z</time></trkpt><trkpt lat="44.73397998717694" lon="10.225473022719193"><ele>134.0</ele><time>2026-05-03T07:19:10Z</time></trkpt><trkpt lat="44.73372024237566" lon="10.225491359518161"><ele>134.0</ele><time>2026-05-03T07:19:11Z</time></trkpt><trkpt lat="44.7334683229472" lon="10.225510739785348"><ele>135.5</ele><time>2026-05-03T07:19:12Z</time></trkpt><trkpt lat="44.73320753006958" lon="10.225533662917025"><ele>137.0</ele><time>2026-05-03T07:19:13Z</time></trkpt><trkpt lat="44.732949053694625" lon="10.225556604581953"><ele>138.0</ele><time>2026-05-03T07:19:14Z</time></trkpt><trkpt lat="44.73269663580823" lon="10.225584058506211"><ele>139.0</ele><time>2026-05-03T07:19:15Z</time></trkpt><trkpt lat="44.73244878157512" lon="10.22558520664581"><ele>139.0</ele><time>2026-05-03T07:19:16Z</time></trkpt><trkpt lat="44.73219999233302" lon="10.225631293346158"><ele>139.0</ele><time>2026-05-03T07:19:17Z</time></trkpt><trkpt lat="44.73194335558659" lon="10.225666067297192"><ele>142.0</ele><time>2026-05-03T07:19:18Z</time></trkpt><trkpt lat="44.73169282141279" lon="10.225720290943439"><ele>145.0</ele><time>2026-05-03T07:19:19Z</time></trkpt><trkpt lat="44.73144584854561" lon="10.225818952629407"><ele>145.0</ele><time>2026-05-03T07:19:20Z</time></trkpt><trkpt lat="44.73119620010875" lon="10.225961996793165"><ele>145.0</ele><time>2026-05-03T07:19:21Z</time></trkpt><trkpt lat="44.730948748862886" lon="10.226108425218683"><ele>144.5</ele><time>2026-05-03T07:19:22Z</time></trkpt><trkpt lat="44.730699052466406" lon="10.226217252116808"><ele>144.0</ele><time>2026-05-03T07:19:23Z</time></trkpt><trkpt lat="44.73043916527667" lon="10.226302810361101"><ele>142.0</ele><time>2026-05-03T07:19:24Z</time></trkpt><trkpt lat="44.73017233661984" lon="10.226360335059148"><ele>140.0</ele><time>2026-05-03T07:19:25Z</time></trkpt><trkpt lat="44.72989867394768" lon="10.226429568969392"><ele>140.0</ele><time>2026-05-03T07:19:26Z</time></trkpt><trkpt lat="44.72962658525833" lon="10.226476391999853"><ele>140.0</ele><time>2026-05-03T07:19:27Z</time></trkpt><trkpt lat="44.72935161824049" lon="10.226524174725336"><ele>142.0</ele><time>2026-05-03T07:19:28Z</time></trkpt><trkpt lat="44.72908130010766" lon="10.226554200889087"><ele>144.0</ele><time>2026-05-03T07:19:29Z</time></trkpt><trkpt lat="44.72881922479568" lon="10.226629709515336"><ele>147.0</ele><time>2026-05-03T07:19:30Z</time></trkpt><trkpt lat="44.72855302050427" lon="10.226663061090973"><ele>150.0</ele><time>2026-05-03T07:19:31Z</time></trkpt><trkpt lat="44.72828181030027" lon="10.226723179803491"><ele>150.0</ele><time>2026-05-03T07:19:32Z</time></trkpt><trkpt lat="44.72801124725555" lon="10.226788274469039"><ele>150.0</ele><time>2026-05-03T07:19:33Z</time></trkpt><trkpt lat="44.72774161357543" lon="10.226853738319504"><ele>149.5</ele><time>2026-05-03T07:19:34Z</time></trkpt><trkpt lat="44.72747501222112" lon="10.226918481799618"><ele>149.0</ele><time>2026-05-03T07:19:35Z</time></trkpt><trkpt lat="44.727207213072695" lon="10.226983516179647"><ele>149.0</ele><time>2026-05-03T07:19:36Z</time></trkpt><trkpt lat="44.72693918468034" lon="10.227049411993557"><ele>149.0</ele><time>2026-05-03T07:19:37Z</time></trkpt><trkpt lat="44.726681572352064" lon="10.227112207545085"><ele>148.5</ele><time>2026-05-03T07:19:38Z</time></trkpt><trkpt lat="44.726415047022044" lon="10.227177159091466"><ele>148.0</ele><time>2026-05-03T07:19:39Z</time></trkpt><trkpt lat="44.72615163168362" lon="10.227240956582847"><ele>148.0</ele><time>2026-05-03T07:19:40Z</time></trkpt><trkpt lat="44.725893572443745" lon="10.227303228273982"><ele>148.0</ele><time>2026-05-03T07:19:41Z</time></trkpt><trkpt lat="44.72563333114144" lon="10.227366301572427"><ele>150.0</ele><time>2026-05-03T07:19:42Z</time></trkpt><trkpt lat="44.72538163198949" lon="10.227427233187168"><ele>152.0</ele><time>2026-05-03T07:19:43Z</time></trkpt><trkpt lat="44.725132285105595" lon="10.22748759533104"><ele>152.0</ele><time>2026-05-03T07:19:44Z</time></trkpt><trkpt lat="44.72488156919849" lon="10.227548288913754"><ele>152.0</ele><time>2026-05-03T07:19:45Z</time></trkpt><trkpt lat="44.72464240350246" lon="10.227606186416264"><ele>152.0</ele><time>2026-05-03T07:19:46Z</time></trkpt><trkpt lat="44.72440281043313" lon="10.227664189272371"><ele>152.0</ele><time>2026-05-03T07:19:47Z</time></trkpt><trkpt lat="44.724177627052754" lon="10.22771983379694"><ele>153.0</ele><time>2026-05-03T07:19:48Z</time></trkpt><trkpt lat="44.723952444805036" lon="10.227776534410852"><ele>154.0</ele><time>2026-05-03T07:19:49Z</time></trkpt><trkpt lat="44.72373013047066" lon="10.227832512869123"><ele>154.0</ele><time>2026-05-03T07:19:50Z</time></trkpt><trkpt lat="44.72350320443501" lon="10.227889087662657"><ele>154.0</ele><time>2026-05-03T07:19:51Z</time></trkpt><trkpt lat="44.72327749175214" lon="10.227943415036941"><ele>154.0</ele><time>2026-05-03T07:19:52Z</time></trkpt><trkpt lat="44.723060134129184" lon="10.228001069155555"><ele>154.0</ele><time>2026-05-03T07:19:53Z</time></trkpt><trkpt lat="44.722869758454706" lon="10.228059339061812"><ele>154.0</ele><time>2026-05-03T07:19:54Z</time></trkpt><trkpt lat="44.72270993232602" lon="10.22810512804158"><ele>153.75</ele><time>2026-05-03T07:19:55Z</time></trkpt><trkpt lat="44.72259788735617" lon="10.228127940226777"><ele>153.5</ele><time>2026-05-03T07:19:56Z</time></trkpt><trkpt lat="44.72250218718397" lon="10.228141097651191"><ele>153.25</ele><time>2026-05-03T07:19:57Z</time></trkpt><trkpt lat="44.72237831934006" lon="10.228078828222685"><ele>153.0</ele><time>2026-05-03T07:19:58Z</time></trkpt><trkpt lat="44.72222519627788" lon="10.228078739371899"><ele>153.0</ele><time>2026-05-03T07:19:59Z</time></trkpt><trkpt lat="44.7220469974284" lon="10.228028129750156"><ele>153.0</ele><time>2026-05-03T07:20:00Z</time></trkpt><trkpt lat="44.72183832142056" lon="10.228019624360762"><ele>153.0</ele><time>2026-05-03T07:20:01Z</time></trkpt><trkpt lat="44.72161656627196" lon="10.228011494214433"><ele>154.66666666666666</ele><time>2026-05-03T07:20:02Z</time></trkpt><trkpt lat="44.721402705920845" lon="10.227986006950319"><ele>156.33333333333331</ele><time>2026-05-03T07:20:02.999Z</time></trkpt><trkpt lat="44.72120665172064" lon="10.227980101262327"><ele>158.0</ele><time>2026-05-03T07:20:03.999Z</time></trkpt><trkpt lat="44.721028392457455" lon="10.227975032223165"><ele>159.0</ele><time>2026-05-03T07:20:04.999Z</time></trkpt><trkpt lat="44.72083974656204" lon="10.227969667820558"><ele>160.0</ele><time>2026-05-03T07:20:05.999Z</time></trkpt><trkpt lat="44.72063987448603" lon="10.227963984188396"><ele>161.0</ele><time>2026-05-03T07:20:06.999Z</time></trkpt><trkpt lat="44.720434560802794" lon="10.227958145814462"><ele>162.0</ele><time>2026-05-03T07:20:07.999Z</time></trkpt><trkpt lat="44.72023082231612" lon="10.22795235223738"><ele>163.0</ele><time>2026-05-03T07:20:08.999Z</time></trkpt><trkpt lat="44.72003028123491" lon="10.227946649583224"><ele>164.0</ele><time>2026-05-03T07:20:09.999Z</time></trkpt><trkpt lat="44.7198346343485" lon="10.227940066808001"><ele>164.0</ele><time>2026-05-03T07:20:10.999Z</time></trkpt><trkpt lat="44.71964161961555" lon="10.227932401134337"><ele>164.0</ele><time>2026-05-03T07:20:11.999Z</time></trkpt><trkpt lat="44.71945323883566" lon="10.227919415308238"><ele>164.0</ele><time>2026-05-03T07:20:12.999Z</time></trkpt><trkpt lat="44.719270834129006" lon="10.22789221225347"><ele>165.33333333333331</ele><time>2026-05-03T07:20:13.999Z</time></trkpt><trkpt lat="44.719091564106165" lon="10.22785044575515"><ele>166.66666666666666</ele><time>2026-05-03T07:20:14.999Z</time></trkpt><trkpt lat="44.71890527964479" lon="10.227807170977025"><ele>168.0</ele><time>2026-05-03T07:20:15.999Z</time></trkpt><trkpt lat="44.71871744655646" lon="10.227763703212592"><ele>168.33333333333334</ele><time>2026-05-03T07:20:16.999Z</time></trkpt><trkpt lat="44.71852301488171" lon="10.22771447075455"><ele>168.66666666666669</ele><time>2026-05-03T07:20:17.999Z</time></trkpt><trkpt lat="44.7183319448908" lon="10.227662999013548"><ele>169.0</ele><time>2026-05-03T07:20:18.999Z</time></trkpt><trkpt lat="44.71815752605292" lon="10.22760960845145"><ele>169.0</ele><time>2026-05-03T07:20:19.999Z</time></trkpt><trkpt lat="44.71798819388173" lon="10.227528659483395"><ele>169.0</ele><time>2026-05-03T07:20:20.999Z</time></trkpt><trkpt lat="44.7178245521541" lon="10.227402201563502"><ele>169.0</ele><time>2026-05-03T07:20:21.999Z</time></trkpt><trkpt lat="44.71767657539753" lon="10.227228556595197"><ele>168.33333333333334</ele><time>2026-05-03T07:20:22.999Z</time></trkpt><trkpt lat="44.71752159953326" lon="10.227035173727835"><ele>167.66666666666666</ele><time>2026-05-03T07:20:23.999Z</time></trkpt><trkpt lat="44.71735790172193" lon="10.226862153406245"><ele>167.0</ele><time>2026-05-03T07:20:24.999Z</time></trkpt><trkpt lat="44.71721413542917" lon="10.226679750685946"><ele>167.0</ele><time>2026-05-03T07:20:25.999Z</time></trkpt><trkpt lat="44.71708841308345" lon="10.226497721727501"><ele>167.0</ele><time>2026-05-03T07:20:26.999Z</time></trkpt><trkpt lat="44.71697424339922" lon="10.22635672105018"><ele>167.0</ele><time>2026-05-03T07:20:27.999Z</time></trkpt><trkpt lat="44.716888669948545" lon="10.226247339481638"><ele>167.0</ele><time>2026-05-03T07:20:28.999Z</time></trkpt><trkpt lat="44.716847946519856" lon="10.226170739397519"><ele>167.0</ele><time>2026-05-03T07:20:29.999Z</time></trkpt><trkpt lat="44.716850838926234" lon="10.226063620350914"><ele>167.0</ele><time>2026-05-03T07:20:30.999Z</time></trkpt><trkpt lat="44.716848567606995" lon="10.225949402055628"><ele>167.0</ele><time>2026-05-03T07:20:31.999Z</time></trkpt><trkpt lat="44.71680489654733" lon="10.225828701273427"><ele>167.0</ele><time>2026-05-03T07:20:32.999Z</time></trkpt><trkpt lat="44.71672931849659" lon="10.225724105848334"><ele>167.0</ele><time>2026-05-03T07:20:33.999Z</time></trkpt><trkpt lat="44.71660715000235" lon="10.225685472305708"><ele>167.0</ele><time>2026-05-03T07:20:34.999Z</time></trkpt><trkpt lat="44.71647494861439" lon="10.225768941676483"><ele>167.0</ele><time>2026-05-03T07:20:35.999Z</time></trkpt><trkpt lat="44.716339613307184" lon="10.225792727569132"><ele>167.0</ele><time>2026-05-03T07:20:36.999Z</time></trkpt><trkpt lat="44.716199026078826" lon="10.225683653360498"><ele>167.0</ele><time>2026-05-03T07:20:37.999Z</time></trkpt><trkpt lat="44.71602011939871" lon="10.225650514188445"><ele>167.0</ele><time>2026-05-03T07:20:38.999Z</time></trkpt><trkpt lat="44.715848567552946" lon="10.225594733565694"><ele>167.0</ele><time>2026-05-03T07:20:39.999Z</time></trkpt><trkpt lat="44.71569691686951" lon="10.225550542188337"><ele>167.0</ele><time>2026-05-03T07:20:40.999Z</time></trkpt><trkpt lat="44.71554853460132" lon="10.22551035491577"><ele>167.0</ele><time>2026-05-03T07:20:41.999Z</time></trkpt><trkpt lat="44.71540195761566" lon="10.225465275762458"><ele>167.0</ele><time>2026-05-03T07:20:42.999Z</time></trkpt><trkpt lat="44.71525330805595" lon="10.225422940062519"><ele>167.0</ele><time>2026-05-03T07:20:43.999Z</time></trkpt><trkpt lat="44.71509942829646" lon="10.225369647474242"><ele>167.75</ele><time>2026-05-03T07:20:44.999Z</time></trkpt><trkpt lat="44.714963943820216" lon="10.225309598493087"><ele>168.5</ele><time>2026-05-03T07:20:45.999Z</time></trkpt><trkpt lat="44.71481922847059" lon="10.22529725412339"><ele>169.25</ele><time>2026-05-03T07:20:46.999Z</time></trkpt><trkpt lat="44.71469333736088" lon="10.225263093788056"><ele>170.0</ele><time>2026-05-03T07:20:47.999Z</time></trkpt><trkpt lat="44.714589162532626" lon="10.225230480498903"><ele>170.0</ele><time>2026-05-03T07:20:48.999Z</time></trkpt><trkpt lat="44.71448437207035" lon="10.225193840031716"><ele>170.0</ele><time>2026-05-03T07:20:49.999Z</time></trkpt><trkpt lat="44.71440430382139" lon="10.22516562329462"><ele>170.0</ele><time>2026-05-03T07:20:50.999Z</time></trkpt><trkpt lat="44.71434392018674" lon="10.225134345434187"><ele>170.0</ele><time>2026-05-03T07:20:52.999Z</time></trkpt><trkpt lat="44.71427054060492" lon="10.22510262368587"><ele>170.0</ele><time>2026-05-03T07:20:54.999Z</time></trkpt><trkpt lat="44.714185926412036" lon="10.225095434509004"><ele>170.0</ele><time>2026-05-03T07:20:55.999Z</time></trkpt><trkpt lat="44.7140838543605" lon="10.225071061232255"><ele>171.0</ele><time>2026-05-03T07:20:56.999Z</time></trkpt><trkpt lat="44.713948252935836" lon="10.22505078917815"><ele>172.0</ele><time>2026-05-03T07:20:57.999Z</time></trkpt><trkpt lat="44.71381421234902" lon="10.225030750512538"><ele>173.0</ele><time>2026-05-03T07:20:58.999Z</time></trkpt><trkpt lat="44.71367577166927" lon="10.225010054455376"><ele>174.0</ele><time>2026-05-03T07:20:59.999Z</time></trkpt><trkpt lat="44.71354427234691" lon="10.224990628019514"><ele>174.25</ele><time>2026-05-03T07:21:00.999Z</time></trkpt><trkpt lat="44.713410825353805" lon="10.224971941636941"><ele>174.5</ele><time>2026-05-03T07:21:02Z</time></trkpt><trkpt lat="44.71327908875018" lon="10.224976132351395"><ele>174.75</ele><time>2026-05-03T07:21:03Z</time></trkpt><trkpt lat="44.71315129260339" lon="10.224959659262023"><ele>175.0</ele><time>2026-05-03T07:21:04Z</time></trkpt><trkpt lat="44.71303604330475" lon="10.224923603307726"><ele>175.0</ele><time>2026-05-03T07:21:05Z</time></trkpt><trkpt lat="44.71292141602045" lon="10.224908819005528"><ele>175.0</ele><time>2026-05-03T07:21:06Z</time></trkpt><trkpt lat="44.7128024858115" lon="10.224893479870142"><ele>175.0</ele><time>2026-05-03T07:21:07Z</time></trkpt><trkpt lat="44.71266191055007" lon="10.224875548447839"><ele>175.0</ele><time>2026-05-03T07:21:08Z</time></trkpt><trkpt lat="44.71249092724844" lon="10.22487053352626"><ele>174.66666666666669</ele><time>2026-05-03T07:21:09Z</time></trkpt><trkpt lat="44.7122965034065" lon="10.224844164407841"><ele>174.33333333333334</ele><time>2026-05-03T07:21:10Z</time></trkpt><trkpt lat="44.71209382537619" lon="10.224815787848213"><ele>174.0</ele><time>2026-05-03T07:21:11Z</time></trkpt><trkpt lat="44.711881046660274" lon="10.224785507902906"><ele>175.0</ele><time>2026-05-03T07:21:12Z</time></trkpt><trkpt lat="44.71166392517558" lon="10.224760521957993"><ele>176.0</ele><time>2026-05-03T07:21:13Z</time></trkpt><trkpt lat="44.71145668776461" lon="10.224732510043417"><ele>177.0</ele><time>2026-05-03T07:21:14Z</time></trkpt><trkpt lat="44.711245959284625" lon="10.224683344052037"><ele>177.33333333333334</ele><time>2026-05-03T07:21:15Z</time></trkpt><trkpt lat="44.71104784842973" lon="10.224677829950961"><ele>177.66666666666669</ele><time>2026-05-03T07:21:16Z</time></trkpt><trkpt lat="44.71082730113692" lon="10.224648265444518"><ele>178.0</ele><time>2026-05-03T07:21:17Z</time></trkpt><trkpt lat="44.710618355702366" lon="10.224598635214807"><ele>178.0</ele><time>2026-05-03T07:21:18Z</time></trkpt><trkpt lat="44.71040673505422" lon="10.224570205412366"><ele>178.0</ele><time>2026-05-03T07:21:19Z</time></trkpt><trkpt lat="44.71022166051114" lon="10.224544545426905"><ele>178.0</ele><time>2026-05-03T07:21:20Z</time></trkpt><trkpt lat="44.710043431284184" lon="10.224519518623989"><ele>178.0</ele><time>2026-05-03T07:21:21Z</time></trkpt><trkpt lat="44.7098729596982" lon="10.224495363453135"><ele>178.0</ele><time>2026-05-03T07:21:22Z</time></trkpt><trkpt lat="44.70972037635363" lon="10.224473456857492"><ele>178.0</ele><time>2026-05-03T07:21:23Z</time></trkpt><trkpt lat="44.70955980238665" lon="10.224451188115422"><ele>178.0</ele><time>2026-05-03T07:21:24Z</time></trkpt><trkpt lat="44.70941049909136" lon="10.224430482411327"><ele>178.0</ele><time>2026-05-03T07:21:25Z</time></trkpt><trkpt lat="44.70926995286816" lon="10.224410991151041"><ele>178.0</ele><time>2026-05-03T07:21:26Z</time></trkpt><trkpt lat="44.70911670852726" lon="10.22438973892213"><ele>178.0</ele><time>2026-05-03T07:21:27Z</time></trkpt><trkpt lat="44.70895736623077" lon="10.224367641001818"><ele>178.25</ele><time>2026-05-03T07:21:28Z</time></trkpt><trkpt lat="44.70880468173338" lon="10.224346466391564"><ele>178.5</ele><time>2026-05-03T07:21:29Z</time></trkpt><trkpt lat="44.70865868134134" lon="10.224326218749319"><ele>178.75</ele><time>2026-05-03T07:21:30Z</time></trkpt><trkpt lat="44.70852461826575" lon="10.224307626615873"><ele>179.0</ele><time>2026-05-03T07:21:31Z</time></trkpt><trkpt lat="44.70831318368855" lon="10.224278304414783"><ele>179.33333333333331</ele><time>2026-05-03T07:21:32Z</time></trkpt><trkpt lat="44.70814309735988" lon="10.224275949848732"><ele>179.66666666666666</ele><time>2026-05-03T07:21:33Z</time></trkpt><trkpt lat="44.7079752561066" lon="10.22425321483593"><ele>180.0</ele><time>2026-05-03T07:21:34Z</time></trkpt><trkpt lat="44.70780955040751" lon="10.224210035130675"><ele>181.33333333333334</ele><time>2026-05-03T07:21:35Z</time></trkpt><trkpt lat="44.70764236788637" lon="10.224204920319048"><ele>182.66666666666669</ele><time>2026-05-03T07:21:36Z</time></trkpt><trkpt lat="44.707469293528234" lon="10.224184883359651"><ele>184.0</ele><time>2026-05-03T07:21:37Z</time></trkpt><trkpt lat="44.707298224958485" lon="10.224162443712016"><ele>184.0</ele><time>2026-05-03T07:21:38Z</time></trkpt><trkpt lat="44.7071276236369" lon="10.22411806484938"><ele>184.0</ele><time>2026-05-03T07:21:39Z</time></trkpt><trkpt lat="44.70695662723608" lon="10.224095578047677"><ele>184.0</ele><time>2026-05-03T07:21:40Z</time></trkpt><trkpt lat="44.70678949827828" lon="10.224073599842388"><ele>186.0</ele><time>2026-05-03T07:21:41Z</time></trkpt><trkpt lat="44.70661026346497" lon="10.22405002962759"><ele>188.0</ele><time>2026-05-03T07:21:42Z</time></trkpt><trkpt lat="44.70642757839314" lon="10.224025560709538"><ele>190.0</ele><time>2026-05-03T07:21:43Z</time></trkpt><trkpt lat="44.70625406817161" lon="10.224000338977923"><ele>190.0</ele><time>2026-05-03T07:21:44Z</time></trkpt><trkpt lat="44.70608407330464" lon="10.223987987108615"><ele>190.0</ele><time>2026-05-03T07:21:45Z</time></trkpt><trkpt lat="44.70591171387634" lon="10.223964422398236"><ele>190.0</ele><time>2026-05-03T07:21:46Z</time></trkpt><trkpt lat="44.70573243662783" lon="10.223946444982957"><ele>190.66666666666669</ele><time>2026-05-03T07:21:47Z</time></trkpt><trkpt lat="44.70555055332073" lon="10.223928128239967"><ele>191.33333333333334</ele><time>2026-05-03T07:21:48Z</time></trkpt><trkpt lat="44.70537380410982" lon="10.223901574050766"><ele>192.0</ele><time>2026-05-03T07:21:49Z</time></trkpt><trkpt lat="44.705190914243616" lon="10.223893890569018"><ele>193.33333333333331</ele><time>2026-05-03T07:21:50Z</time></trkpt><trkpt lat="44.70500253839673" lon="10.22388938142295"><ele>194.66666666666666</ele><time>2026-05-03T07:21:51Z</time></trkpt><trkpt lat="44.70482427289372" lon="10.223893941836938"><ele>196.0</ele><time>2026-05-03T07:21:52Z</time></trkpt><trkpt lat="44.70464882772469" lon="10.223893713805277"><ele>196.0</ele><time>2026-05-03T07:21:53Z</time></trkpt><trkpt lat="44.704477238344765" lon="10.223882985124748"><ele>196.0</ele><time>2026-05-03T07:21:54Z</time></trkpt><trkpt lat="44.7043040815003" lon="10.2238496420597"><ele>196.0</ele><time>2026-05-03T07:21:55Z</time></trkpt><trkpt lat="44.70413608546593" lon="10.22376867944111"><ele>197.0</ele><time>2026-05-03T07:21:56Z</time></trkpt><trkpt lat="44.703965611964435" lon="10.223653034888752"><ele>198.0</ele><time>2026-05-03T07:21:57Z</time></trkpt><trkpt lat="44.70378963248102" lon="10.223522976290697"><ele>199.0</ele><time>2026-05-03T07:21:58Z</time></trkpt><trkpt lat="44.70360647194377" lon="10.223393426248736"><ele>197.66666666666666</ele><time>2026-05-03T07:21:59Z</time></trkpt><trkpt lat="44.703418169129684" lon="10.223260239038735"><ele>196.33333333333331</ele><time>2026-05-03T07:22:00Z</time></trkpt><trkpt lat="44.703229460554404" lon="10.223126764745379"><ele>195.0</ele><time>2026-05-03T07:22:01Z</time></trkpt><trkpt lat="44.703054614530565" lon="10.223003095958871"><ele>195.0</ele><time>2026-05-03T07:22:02Z</time></trkpt><trkpt lat="44.70287636307502" lon="10.22287701782889"><ele>195.0</ele><time>2026-05-03T07:22:03Z</time></trkpt><trkpt lat="44.70269506827572" lon="10.222750490645394"><ele>195.0</ele><time>2026-05-03T07:22:04Z</time></trkpt><trkpt lat="44.70249975662604" lon="10.22262947307489"><ele>193.66666666666666</ele><time>2026-05-03T07:22:05Z</time></trkpt><trkpt lat="44.70229732049284" lon="10.222550635318777"><ele>192.33333333333331</ele><time>2026-05-03T07:22:06Z</time></trkpt><trkpt lat="44.70208563164169" lon="10.222473092420211"><ele>191.0</ele><time>2026-05-03T07:22:07Z</time></trkpt><trkpt lat="44.70187069739538" lon="10.222414217232865"><ele>191.66666666666666</ele><time>2026-05-03T07:22:07.999Z</time></trkpt><trkpt lat="44.70167864466148" lon="10.222329471187827"><ele>192.33333333333331</ele><time>2026-05-03T07:22:08.999Z</time></trkpt><trkpt lat="44.701487819068475" lon="10.222269921181526"><ele>193.0</ele><time>2026-05-03T07:22:09.999Z</time></trkpt><trkpt lat="44.701301914075444" lon="10.222210866914093"><ele>193.0</ele><time>2026-05-03T07:22:10.999Z</time></trkpt><trkpt lat="44.70112065165306" lon="10.222155070132683"><ele>193.0</ele><time>2026-05-03T07:22:11.999Z</time></trkpt><trkpt lat="44.700953945496074" lon="10.222119654695229"><ele>193.0</ele><time>2026-05-03T07:22:12.999Z</time></trkpt><trkpt lat="44.700808092323996" lon="10.222111856958119"><ele>192.33333333333331</ele><time>2026-05-03T07:22:13.999Z</time></trkpt><trkpt lat="44.700657434083276" lon="10.222134224450683"><ele>191.66666666666666</ele><time>2026-05-03T07:22:14.999Z</time></trkpt><trkpt lat="44.7004879874114" lon="10.222222958324156"><ele>191.0</ele><time>2026-05-03T07:22:15.999Z</time></trkpt><trkpt lat="44.70030684562525" lon="10.22225864321748"><ele>191.0</ele><time>2026-05-03T07:22:16.999Z</time></trkpt><trkpt lat="44.700140466289625" lon="10.222297562226487"><ele>191.0</ele><time>2026-05-03T07:22:17.999Z</time></trkpt><trkpt lat="44.69997874312693" lon="10.22231768381731"><ele>191.0</ele><time>2026-05-03T07:22:18.999Z</time></trkpt><trkpt lat="44.69981031035308" lon="10.22231185916527"><ele>191.0</ele><time>2026-05-03T07:22:19.999Z</time></trkpt><trkpt lat="44.69964818440583" lon="10.222272032224014"><ele>191.0</ele><time>2026-05-03T07:22:20.999Z</time></trkpt><trkpt lat="44.69947675571118" lon="10.22220779526276"><ele>191.0</ele><time>2026-05-03T07:22:21.999Z</time></trkpt><trkpt lat="44.69931589703337" lon="10.222145252900207"><ele>191.25</ele><time>2026-05-03T07:22:22.999Z</time></trkpt><trkpt lat="44.6991647331943" lon="10.222086374758549"><ele>191.5</ele><time>2026-05-03T07:22:23.999Z</time></trkpt><trkpt lat="44.69903337240599" lon="10.222032702974833"><ele>191.75</ele><time>2026-05-03T07:22:24.999Z</time></trkpt><trkpt lat="44.69890688964796" lon="10.221981024245729"><ele>192.0</ele><time>2026-05-03T07:22:25.999Z</time></trkpt><trkpt lat="44.6987869734119" lon="10.22193202854082"><ele>192.0</ele><time>2026-05-03T07:22:26.999Z</time></trkpt><trkpt lat="44.69866833908969" lon="10.221895835768956"><ele>192.0</ele><time>2026-05-03T07:22:27.999Z</time></trkpt><trkpt lat="44.698559733074475" lon="10.2218733327336"><ele>192.0</ele><time>2026-05-03T07:22:28.999Z</time></trkpt><trkpt lat="44.69846200765885" lon="10.221898006440563"><ele>192.0</ele><time>2026-05-03T07:22:29.999Z</time></trkpt><trkpt lat="44.698384930888636" lon="10.222058633870985"><ele>190.33333333333334</ele><time>2026-05-03T07:22:30.999Z</time></trkpt><trkpt lat="44.69832990649897" lon="10.222282796428964"><ele>188.66666666666669</ele><time>2026-05-03T07:22:31.999Z</time></trkpt><trkpt lat="44.69826772252207" lon="10.22250704050002"><ele>187.0</ele><time>2026-05-03T07:22:32.999Z</time></trkpt><trkpt lat="44.6982078899165" lon="10.222677738399035"><ele>186.39999999999998</ele><time>2026-05-03T07:22:33.999Z</time></trkpt><trkpt lat="44.698170494313075" lon="10.222779297758304"><ele>185.79999999999998</ele><time>2026-05-03T07:22:34.999Z</time></trkpt><trkpt lat="44.69811903913333" lon="10.222894861560325"><ele>185.2</ele><time>2026-05-03T07:22:36.999Z</time></trkpt><trkpt lat="44.69806771852912" lon="10.222957569496838"><ele>184.6</ele><time>2026-05-03T07:22:39.999Z</time></trkpt><trkpt lat="44.69799959066499" lon="10.2230189768658"><ele>184.0</ele><time>2026-05-03T07:22:41.999Z</time></trkpt><trkpt lat="44.69789981657327" lon="10.222880782760049"><ele>184.0</ele><time>2026-05-03T07:22:42.999Z</time></trkpt><trkpt lat="44.69781972954547" lon="10.222820459559305"><ele>184.0</ele><time>2026-05-03T07:22:43.999Z</time></trkpt><trkpt lat="44.697720347441695" lon="10.222745602743403"><ele>184.0</ele><time>2026-05-03T07:22:44.999Z</time></trkpt><trkpt lat="44.697607598754225" lon="10.222660678095114"><ele>184.0</ele><time>2026-05-03T07:22:45.999Z</time></trkpt><trkpt lat="44.69748340893834" lon="10.222567135797625"><ele>185.0</ele><time>2026-05-03T07:22:46.999Z</time></trkpt><trkpt lat="44.69735587217845" lon="10.222471482107773"><ele>186.0</ele><time>2026-05-03T07:22:47.999Z</time></trkpt><trkpt lat="44.69721393793812" lon="10.222365176589632"><ele>187.0</ele><time>2026-05-03T07:22:48.999Z</time></trkpt><trkpt lat="44.69704709702903" lon="10.22224021622716"><ele>187.66666666666669</ele><time>2026-05-03T07:22:49.999Z</time></trkpt><trkpt lat="44.69686008208265" lon="10.22210014611586"><ele>188.33333333333334</ele><time>2026-05-03T07:22:50.999Z</time></trkpt><trkpt lat="44.69667417292755" lon="10.221961068815776"><ele>189.0</ele><time>2026-05-03T07:22:51.999Z</time></trkpt><trkpt lat="44.696455516747186" lon="10.221798118054414"><ele>189.0</ele><time>2026-05-03T07:22:52.999Z</time></trkpt><trkpt lat="44.69624371366326" lon="10.221640274107306"><ele>189.0</ele><time>2026-05-03T07:22:53.999Z</time></trkpt><trkpt lat="44.696014760348476" lon="10.22146964968515"><ele>189.5</ele><time>2026-05-03T07:22:54.999Z</time></trkpt><trkpt lat="44.69576904192012" lon="10.221287746417358"><ele>190.0</ele><time>2026-05-03T07:22:55.999Z</time></trkpt><trkpt lat="44.695530637840086" lon="10.221111577661395"><ele>190.0</ele><time>2026-05-03T07:22:56.999Z</time></trkpt><trkpt lat="44.69527157207953" lon="10.22091948888541"><ele>190.0</ele><time>2026-05-03T07:22:57.999Z</time></trkpt><trkpt lat="44.69501046184596" lon="10.220725961251588"><ele>190.0</ele><time>2026-05-03T07:22:58.999Z</time></trkpt><trkpt lat="44.69475038663562" lon="10.220532060724803"><ele>190.0</ele><time>2026-05-03T07:22:59.999Z</time></trkpt><trkpt lat="44.69448149337822" lon="10.220358415556888"><ele>192.0</ele><time>2026-05-03T07:23:00.999Z</time></trkpt><trkpt lat="44.69422466697972" lon="10.220165894403058"><ele>194.0</ele><time>2026-05-03T07:23:01.999Z</time></trkpt><trkpt lat="44.69397037046529" lon="10.21997753848566"><ele>193.5</ele><time>2026-05-03T07:23:02.999Z</time></trkpt><trkpt lat="44.693718200823874" lon="10.219785016174466"><ele>193.0</ele><time>2026-05-03T07:23:03.999Z</time></trkpt><trkpt lat="44.69346763576127" lon="10.219596003048734"><ele>194.0</ele><time>2026-05-03T07:23:04.999Z</time></trkpt><trkpt lat="44.69321786296196" lon="10.21940946800739"><ele>195.0</ele><time>2026-05-03T07:23:05.999Z</time></trkpt><trkpt lat="44.6929701796939" lon="10.21922194569007"><ele>195.5</ele><time>2026-05-03T07:23:06.999Z</time></trkpt><trkpt lat="44.692720636385836" lon="10.219040851576588"><ele>196.0</ele><time>2026-05-03T07:23:08Z</time></trkpt><trkpt lat="44.69247291002674" lon="10.21886352656841"><ele>196.0</ele><time>2026-05-03T07:23:09Z</time></trkpt><trkpt lat="44.69222737279657" lon="10.218684322623822"><ele>196.0</ele><time>2026-05-03T07:23:10Z</time></trkpt><trkpt lat="44.69198475124143" lon="10.218502215939292"><ele>196.0</ele><time>2026-05-03T07:23:11Z</time></trkpt><trkpt lat="44.69174764498814" lon="10.218324570002245"><ele>196.0</ele><time>2026-05-03T07:23:12Z</time></trkpt><trkpt lat="44.69150589549618" lon="10.218149080284077"><ele>196.0</ele><time>2026-05-03T07:23:13Z</time></trkpt><trkpt lat="44.691270250890625" lon="10.21797643836683"><ele>196.0</ele><time>2026-05-03T07:23:14Z</time></trkpt><trkpt lat="44.69103536505355" lon="10.217803153372047"><ele>197.0</ele><time>2026-05-03T07:23:15Z</time></trkpt><trkpt lat="44.69079996404984" lon="10.217632325375567"><ele>198.0</ele><time>2026-05-03T07:23:16Z</time></trkpt><trkpt lat="44.690578559884486" lon="10.21744269565074"><ele>198.0</ele><time>2026-05-03T07:23:17Z</time></trkpt><trkpt lat="44.690351920680726" lon="10.217275168555725"><ele>198.0</ele><time>2026-05-03T07:23:18Z</time></trkpt><trkpt lat="44.69012129935261" lon="10.217104904282122"><ele>200.0</ele><time>2026-05-03T07:23:19Z</time></trkpt><trkpt lat="44.68989832833036" lon="10.216939916878212"><ele>202.0</ele><time>2026-05-03T07:23:20Z</time></trkpt><trkpt lat="44.689667630489595" lon="10.216768411936778"><ele>202.0</ele><time>2026-05-03T07:23:21Z</time></trkpt><trkpt lat="44.68944097771063" lon="10.216599544686414"><ele>202.0</ele><time>2026-05-03T07:23:22Z</time></trkpt><trkpt lat="44.689210749872565" lon="10.216427526395739"><ele>202.5</ele><time>2026-05-03T07:23:23Z</time></trkpt><trkpt lat="44.688985873904734" lon="10.216258689804524"><ele>203.0</ele><time>2026-05-03T07:23:24Z</time></trkpt><trkpt lat="44.68876743320751" lon="10.216097255673528"><ele>202.0</ele><time>2026-05-03T07:23:25Z</time></trkpt><trkpt lat="44.688547375239864" lon="10.215925953130785"><ele>201.0</ele><time>2026-05-03T07:23:26Z</time></trkpt><trkpt lat="44.688325100755506" lon="10.215737476827474"><ele>200.5</ele><time>2026-05-03T07:23:27Z</time></trkpt><trkpt lat="44.68811340878913" lon="10.215521342318112"><ele>200.0</ele><time>2026-05-03T07:23:28Z</time></trkpt><trkpt lat="44.68789368142037" lon="10.215292516496666"><ele>202.0</ele><time>2026-05-03T07:23:29Z</time></trkpt><trkpt lat="44.68765855635405" lon="10.215079096548216"><ele>204.0</ele><time>2026-05-03T07:23:30Z</time></trkpt><trkpt lat="44.68744254997673" lon="10.214850429579586"><ele>203.5</ele><time>2026-05-03T07:23:31Z</time></trkpt><trkpt lat="44.687225241870934" lon="10.214625733737623"><ele>203.0</ele><time>2026-05-03T07:23:32Z</time></trkpt><trkpt lat="44.687020195611495" lon="10.214387941304583"><ele>204.0</ele><time>2026-05-03T07:23:33Z</time></trkpt><trkpt lat="44.686792576084905" lon="10.214181328662153"><ele>205.0</ele><time>2026-05-03T07:23:34Z</time></trkpt><trkpt lat="44.686593923421334" lon="10.213946410398355"><ele>205.0</ele><time>2026-05-03T07:23:35Z</time></trkpt><trkpt lat="44.686383656840334" lon="10.213727928113736"><ele>205.0</ele><time>2026-05-03T07:23:36Z</time></trkpt><trkpt lat="44.68618306216512" lon="10.21351949584702"><ele>206.5</ele><time>2026-05-03T07:23:37Z</time></trkpt><trkpt lat="44.68598003282861" lon="10.213310864819494"><ele>208.0</ele><time>2026-05-03T07:23:38Z</time></trkpt><trkpt lat="44.68577208923113" lon="10.213098281063345"><ele>208.0</ele><time>2026-05-03T07:23:39Z</time></trkpt><trkpt lat="44.68555222316716" lon="10.212873504043024"><ele>208.0</ele><time>2026-05-03T07:23:40Z</time></trkpt><trkpt lat="44.685328248393446" lon="10.212644539915356"><ele>209.5</ele><time>2026-05-03T07:23:41Z</time></trkpt><trkpt lat="44.68510679763404" lon="10.212420379217113"><ele>211.0</ele><time>2026-05-03T07:23:42Z</time></trkpt><trkpt lat="44.68487615600157" lon="10.212217494750467"><ele>211.0</ele><time>2026-05-03T07:23:43Z</time></trkpt><trkpt lat="44.68466062892348" lon="10.211989206765296"><ele>211.0</ele><time>2026-05-03T07:23:44Z</time></trkpt><trkpt lat="44.68444048383221" lon="10.211765523888776"><ele>211.0</ele><time>2026-05-03T07:23:45Z</time></trkpt><trkpt lat="44.68422846351671" lon="10.211544734505168"><ele>211.0</ele><time>2026-05-03T07:23:46Z</time></trkpt><trkpt lat="44.68401120998896" lon="10.21131705874364"><ele>211.0</ele><time>2026-05-03T07:23:47Z</time></trkpt><trkpt lat="44.683794928428284" lon="10.211095115796759"><ele>211.0</ele><time>2026-05-03T07:23:48Z</time></trkpt><trkpt lat="44.683580494001944" lon="10.210872411117414"><ele>211.0</ele><time>2026-05-03T07:23:49Z</time></trkpt><trkpt lat="44.68336568621643" lon="10.210651283924001"><ele>211.0</ele><time>2026-05-03T07:23:50Z</time></trkpt><trkpt lat="44.68315219576502" lon="10.210431375110318"><ele>211.0</ele><time>2026-05-03T07:23:51Z</time></trkpt><trkpt lat="44.68293752053875" lon="10.210210133006171"><ele>211.0</ele><time>2026-05-03T07:23:52Z</time></trkpt><trkpt lat="44.68272382330675" lon="10.20999349452999"><ele>213.5</ele><time>2026-05-03T07:23:53Z</time></trkpt><trkpt lat="44.68250919265094" lon="10.209774329458163"><ele>216.0</ele><time>2026-05-03T07:23:54Z</time></trkpt><trkpt lat="44.682290640613026" lon="10.209550501254325"><ele>216.0</ele><time>2026-05-03T07:23:55Z</time></trkpt><trkpt lat="44.682077130283" lon="10.209331778804936"><ele>216.0</ele><time>2026-05-03T07:23:56Z</time></trkpt><trkpt lat="44.68185587296984" lon="10.209107124705342"><ele>215.0</ele><time>2026-05-03T07:23:57Z</time></trkpt><trkpt lat="44.68163160058409" lon="10.208877349233669"><ele>214.0</ele><time>2026-05-03T07:23:58Z</time></trkpt><trkpt lat="44.68141346203454" lon="10.208650832026592"><ele>214.0</ele><time>2026-05-03T07:23:59Z</time></trkpt><trkpt lat="44.681190974686544" lon="10.208418948115218"><ele>214.0</ele><time>2026-05-03T07:24:00Z</time></trkpt><trkpt lat="44.680974836297054" lon="10.208196204466498"><ele>215.5</ele><time>2026-05-03T07:24:01Z</time></trkpt><trkpt lat="44.68075286107419" lon="10.207967557598081"><ele>217.0</ele><time>2026-05-03T07:24:02Z</time></trkpt><trkpt lat="44.68053085916913" lon="10.20774046732274"><ele>217.0</ele><time>2026-05-03T07:24:03Z</time></trkpt><trkpt lat="44.68030834962775" lon="10.207512325329233"><ele>217.0</ele><time>2026-05-03T07:24:04Z</time></trkpt><trkpt lat="44.68008487387861" lon="10.207280982007104"><ele>218.0</ele><time>2026-05-03T07:24:05Z</time></trkpt><trkpt lat="44.679862331529016" lon="10.207049664884446"><ele>219.0</ele><time>2026-05-03T07:24:06Z</time></trkpt><trkpt lat="44.679637802564834" lon="10.206819861438662"><ele>218.0</ele><time>2026-05-03T07:24:07Z</time></trkpt><trkpt lat="44.679404715697224" lon="10.206580216934475"><ele>217.0</ele><time>2026-05-03T07:24:08Z</time></trkpt><trkpt lat="44.679171725129294" lon="10.206345722332864"><ele>219.0</ele><time>2026-05-03T07:24:08.999Z</time></trkpt><trkpt lat="44.678937730223836" lon="10.206110186823086"><ele>221.0</ele><time>2026-05-03T07:24:09.999Z</time></trkpt><trkpt lat="44.67870347830753" lon="10.205870634541274"><ele>223.5</ele><time>2026-05-03T07:24:10.999Z</time></trkpt><trkpt lat="44.67847458534526" lon="10.20563357368576"><ele>226.0</ele><time>2026-05-03T07:24:11.999Z</time></trkpt><trkpt lat="44.67825576647464" lon="10.205405890069116"><ele>226.0</ele><time>2026-05-03T07:24:12.999Z</time></trkpt><trkpt lat="44.678043840349154" lon="10.20518849227973"><ele>226.0</ele><time>2026-05-03T07:24:13.999Z</time></trkpt><trkpt lat="44.677847830611526" lon="10.204992899842162"><ele>226.0</ele><time>2026-05-03T07:24:14.999Z</time></trkpt><trkpt lat="44.677646704402335" lon="10.204800710685317"><ele>226.0</ele><time>2026-05-03T07:24:15.999Z</time></trkpt><trkpt lat="44.677442100668735" lon="10.204588672010113"><ele>226.0</ele><time>2026-05-03T07:24:16.999Z</time></trkpt><trkpt lat="44.67724053494959" lon="10.204373419612113"><ele>226.0</ele><time>2026-05-03T07:24:17.999Z</time></trkpt><trkpt lat="44.677036487592815" lon="10.20415709016191"><ele>227.5</ele><time>2026-05-03T07:24:18.999Z</time></trkpt><trkpt lat="44.676833516200624" lon="10.20394643910205"><ele>229.0</ele><time>2026-05-03T07:24:19.999Z</time></trkpt><trkpt lat="44.67662589119935" lon="10.203734251141078"><ele>229.0</ele><time>2026-05-03T07:24:20.999Z</time></trkpt><trkpt lat="44.67642542645977" lon="10.203529429113585"><ele>229.0</ele><time>2026-05-03T07:24:21.999Z</time></trkpt><trkpt lat="44.676227277518194" lon="10.203330443181363"><ele>227.5</ele><time>2026-05-03T07:24:22.999Z</time></trkpt><trkpt lat="44.676030910801444" lon="10.20313729390557"><ele>226.0</ele><time>2026-05-03T07:24:23.999Z</time></trkpt><trkpt lat="44.67582167297978" lon="10.202944907507314"><ele>226.0</ele><time>2026-05-03T07:24:24.999Z</time></trkpt><trkpt lat="44.67561401006991" lon="10.202783872996713"><ele>226.0</ele><time>2026-05-03T07:24:25.999Z</time></trkpt><trkpt lat="44.675404829044986" lon="10.202638397263664"><ele>226.0</ele><time>2026-05-03T07:24:26.999Z</time></trkpt><trkpt lat="44.67520464076122" lon="10.20248611566068"><ele>226.0</ele><time>2026-05-03T07:24:27.999Z</time></trkpt><trkpt lat="44.67501740539073" lon="10.202328987463341"><ele>226.0</ele><time>2026-05-03T07:24:28.999Z</time></trkpt><trkpt lat="44.67484805372065" lon="10.202190688808805"><ele>226.0</ele><time>2026-05-03T07:24:29.999Z</time></trkpt><trkpt lat="44.674685996824124" lon="10.202058326797026"><ele>226.0</ele><time>2026-05-03T07:24:30.999Z</time></trkpt><trkpt lat="44.67453378329838" lon="10.201941235613203"><ele>226.0</ele><time>2026-05-03T07:24:31.999Z</time></trkpt><trkpt lat="44.67437182271002" lon="10.20182540013301"><ele>226.66666666666666</ele><time>2026-05-03T07:24:32.999Z</time></trkpt><trkpt lat="44.67420313913521" lon="10.20170451786076"><ele>227.33333333333331</ele><time>2026-05-03T07:24:33.999Z</time></trkpt><trkpt lat="44.674010334732934" lon="10.201563174413526"><ele>228.0</ele><time>2026-05-03T07:24:34.999Z</time></trkpt><trkpt lat="44.67380721318553" lon="10.20141299628472"><ele>228.33333333333331</ele><time>2026-05-03T07:24:35.999Z</time></trkpt><trkpt lat="44.673621149857354" lon="10.201264872081332"><ele>228.66666666666666</ele><time>2026-05-03T07:24:36.999Z</time></trkpt><trkpt lat="44.67345929101137" lon="10.201122348523159"><ele>229.0</ele><time>2026-05-03T07:24:37.999Z</time></trkpt><trkpt lat="44.67331679611457" lon="10.200973705718548"><ele>229.66666666666666</ele><time>2026-05-03T07:24:38.999Z</time></trkpt><trkpt lat="44.6731899901534" lon="10.20079798272306"><ele>230.33333333333331</ele><time>2026-05-03T07:24:39.999Z</time></trkpt><trkpt lat="44.673090339199724" lon="10.20060988821623"><ele>231.0</ele><time>2026-05-03T07:24:40.999Z</time></trkpt><trkpt lat="44.673006922660875" lon="10.200421212477131"><ele>231.0</ele><time>2026-05-03T07:24:41.999Z</time></trkpt><trkpt lat="44.67291353023691" lon="10.200233881804897"><ele>231.0</ele><time>2026-05-03T07:24:42.999Z</time></trkpt><trkpt lat="44.67279979702687" lon="10.200048092728533"><ele>231.0</ele><time>2026-05-03T07:24:43.999Z</time></trkpt><trkpt lat="44.67267072881895" lon="10.199833847668444"><ele>230.66666666666669</ele><time>2026-05-03T07:24:44.999Z</time></trkpt><trkpt lat="44.67254449963861" lon="10.19960706281193"><ele>230.33333333333334</ele><time>2026-05-03T07:24:45.999Z</time></trkpt><trkpt lat="44.67244311302077" lon="10.199338022444401"><ele>230.0</ele><time>2026-05-03T07:24:46.999Z</time></trkpt><trkpt lat="44.67230356428647" lon="10.199101818214087"><ele>231.0</ele><time>2026-05-03T07:24:47.999Z</time></trkpt><trkpt lat="44.6721702518639" lon="10.198844142088898"><ele>232.0</ele><time>2026-05-03T07:24:48.999Z</time></trkpt><trkpt lat="44.672028681193105" lon="10.19858999389063"><ele>233.0</ele><time>2026-05-03T07:24:49.999Z</time></trkpt><trkpt lat="44.671879090765394" lon="10.19832082526015"><ele>234.0</ele><time>2026-05-03T07:24:50.999Z</time></trkpt><trkpt lat="44.67172365019231" lon="10.19803940469126"><ele>235.5</ele><time>2026-05-03T07:24:51.999Z</time></trkpt><trkpt lat="44.67157116740518" lon="10.197759976632527"><ele>237.0</ele><time>2026-05-03T07:24:52.999Z</time></trkpt><trkpt lat="44.67141914445199" lon="10.197479030399698"><ele>238.0</ele><time>2026-05-03T07:24:53.999Z</time></trkpt><trkpt lat="44.6712705384964" lon="10.197202371698921"><ele>239.0</ele><time>2026-05-03T07:24:54.999Z</time></trkpt><trkpt lat="44.671120407605486" lon="10.196971441511167"><ele>238.66666666666669</ele><time>2026-05-03T07:24:55.999Z</time></trkpt><trkpt lat="44.67096613039325" lon="10.196760357780331"><ele>238.33333333333331</ele><time>2026-05-03T07:24:56.999Z</time></trkpt><trkpt lat="44.67078788449084" lon="10.196571418964108"><ele>238.0</ele><time>2026-05-03T07:24:57.999Z</time></trkpt><trkpt lat="44.670594300049956" lon="10.196367174200835"><ele>239.0</ele><time>2026-05-03T07:24:58.999Z</time></trkpt><trkpt lat="44.67038737222111" lon="10.196148851254998"><ele>240.0</ele><time>2026-05-03T07:24:59.999Z</time></trkpt><trkpt lat="44.67017852018288" lon="10.195930057731314"><ele>240.5</ele><time>2026-05-03T07:25:00.999Z</time></trkpt><trkpt lat="44.66997033067493" lon="10.195712253751816"><ele>241.0</ele><time>2026-05-03T07:25:01.999Z</time></trkpt><trkpt lat="44.669759195943335" lon="10.195491033775186"><ele>241.5</ele><time>2026-05-03T07:25:02.999Z</time></trkpt><trkpt lat="44.669551300084294" lon="10.195273362638689"><ele>242.0</ele><time>2026-05-03T07:25:03.999Z</time></trkpt><trkpt lat="44.669339848881165" lon="10.195053482262194"><ele>242.5</ele><time>2026-05-03T07:25:04.999Z</time></trkpt><trkpt lat="44.66912605468018" lon="10.194831165488406"><ele>243.0</ele><time>2026-05-03T07:25:05.999Z</time></trkpt><trkpt lat="44.668911435700075" lon="10.194607991054792"><ele>243.0</ele><time>2026-05-03T07:25:06.999Z</time></trkpt><trkpt lat="44.668698467971396" lon="10.194386533698758"><ele>243.0</ele><time>2026-05-03T07:25:07.999Z</time></trkpt><trkpt lat="44.66848829450629" lon="10.194168046660854"><ele>243.0</ele><time>2026-05-03T07:25:08.999Z</time></trkpt><trkpt lat="44.66828749638152" lon="10.193959473089105"><ele>243.0</ele><time>2026-05-03T07:25:09.999Z</time></trkpt><trkpt lat="44.66809642692344" lon="10.193761031341504"><ele>243.0</ele><time>2026-05-03T07:25:10.999Z</time></trkpt><trkpt lat="44.667907254856324" lon="10.1935643538588"><ele>243.0</ele><time>2026-05-03T07:25:11.999Z</time></trkpt><trkpt lat="44.667725110763875" lon="10.193374751905028"><ele>243.33333333333331</ele><time>2026-05-03T07:25:12.999Z</time></trkpt><trkpt lat="44.667553120806176" lon="10.193195719841272"><ele>243.66666666666666</ele><time>2026-05-03T07:25:14Z</time></trkpt><trkpt lat="44.66738263834618" lon="10.193017333429648"><ele>244.0</ele><time>2026-05-03T07:25:15Z</time></trkpt><trkpt lat="44.6672183622489" lon="10.192841546107795"><ele>245.0</ele><time>2026-05-03T07:25:16Z</time></trkpt><trkpt lat="44.66708626455213" lon="10.1926935644186"><ele>246.0</ele><time>2026-05-03T07:25:17Z</time></trkpt><trkpt lat="44.66696658624781" lon="10.192556152691319"><ele>247.0</ele><time>2026-05-03T07:25:18Z</time></trkpt><trkpt lat="44.66684661134754" lon="10.19244677526221"><ele>247.5</ele><time>2026-05-03T07:25:19Z</time></trkpt><trkpt lat="44.66674347242366" lon="10.192324676599114"><ele>248.0</ele><time>2026-05-03T07:25:20Z</time></trkpt><trkpt lat="44.666634048506104" lon="10.19220575759659"><ele>248.5</ele><time>2026-05-03T07:25:21Z</time></trkpt><trkpt lat="44.66652347562035" lon="10.192077410223387"><ele>249.0</ele><time>2026-05-03T07:25:22Z</time></trkpt><trkpt lat="44.666405249475375" lon="10.19194094008939"><ele>249.0</ele><time>2026-05-03T07:25:23Z</time></trkpt><trkpt lat="44.66628040727826" lon="10.191804365347094"><ele>249.0</ele><time>2026-05-03T07:25:24Z</time></trkpt><trkpt lat="44.666161291389955" lon="10.191667346186966"><ele>249.0</ele><time>2026-05-03T07:25:25Z</time></trkpt><trkpt lat="44.66606098501961" lon="10.19154450508471"><ele>249.0</ele><time>2026-05-03T07:25:26Z</time></trkpt><trkpt lat="44.665983801821014" lon="10.191462464968234"><ele>248.79999999999998</ele><time>2026-05-03T07:25:27Z</time></trkpt><trkpt lat="44.665925346152804" lon="10.191387026419294"><ele>248.59999999999997</ele><time>2026-05-03T07:25:28Z</time></trkpt><trkpt lat="44.66587629764244" lon="10.19133033127"><ele>248.4</ele><time>2026-05-03T07:25:29Z</time></trkpt><trkpt lat="44.66581725765311" lon="10.191243906550712"><ele>248.2</ele><time>2026-05-03T07:25:31Z</time></trkpt><trkpt lat="44.66586535736841" lon="10.19114639049147"><ele>248.0</ele><time>2026-05-03T07:25:33Z</time></trkpt><trkpt lat="44.66599150325711" lon="10.191035286810564"><ele>248.0</ele><time>2026-05-03T07:25:35Z</time></trkpt><trkpt lat="44.66607700461379" lon="10.190939648390804"><ele>248.0</ele><time>2026-05-03T07:25:36Z</time></trkpt><trkpt lat="44.66617154173893" lon="10.190842778211262"><ele>248.0</ele><time>2026-05-03T07:25:37Z</time></trkpt><trkpt lat="44.66626751835923" lon="10.190744960264295"><ele>248.0</ele><time>2026-05-03T07:25:38Z</time></trkpt><trkpt lat="44.66636557750845" lon="10.190650903055543"><ele>250.60000000000002</ele><time>2026-05-03T07:25:39Z</time></trkpt><trkpt lat="44.66646322931909" lon="10.190558183900118"><ele>253.20000000000002</ele><time>2026-05-03T07:25:40Z</time></trkpt><trkpt lat="44.666544637068185" lon="10.190471119291518"><ele>255.8</ele><time>2026-05-03T07:25:41Z</time></trkpt><trkpt lat="44.66662374122189" lon="10.190392067377763"><ele>258.40000000000003</ele><time>2026-05-03T07:25:42Z</time></trkpt><trkpt lat="44.66669956259047" lon="10.190316788329268"><ele>261.0</ele><time>2026-05-03T07:25:43Z</time></trkpt><trkpt lat="44.66675560688223" lon="10.190261101737107"><ele>261.0</ele><time>2026-05-03T07:25:44Z</time></trkpt><trkpt lat="44.66681127640202" lon="10.190212111870736"><ele>261.0</ele><time>2026-05-03T07:25:45Z</time></trkpt><trkpt lat="44.66688522164227" lon="10.19010817384163"><ele>261.0</ele><time>2026-05-03T07:25:47Z</time></trkpt><trkpt lat="44.666844983574855" lon="10.190017912298854"><ele>261.0</ele><time>2026-05-03T07:25:49Z</time></trkpt><trkpt lat="44.66677376986131" lon="10.190018113466618"><ele>261.0</ele><time>2026-05-03T07:25:50Z</time></trkpt><trkpt lat="44.666720906732046" lon="10.190078075256674"><ele>261.0</ele><time>2026-05-03T07:25:51Z</time></trkpt><trkpt lat="44.66664048556681" lon="10.189993315025186"><ele>261.0</ele><time>2026-05-03T07:25:53Z</time></trkpt><trkpt lat="44.666567478407366" lon="10.189931374786621"><ele>261.0</ele><time>2026-05-03T07:25:54Z</time></trkpt><trkpt lat="44.66647606789656" lon="10.189866026911451"><ele>261.0</ele><time>2026-05-03T07:25:55Z</time></trkpt><trkpt lat="44.66640355693209" lon="10.18980930307503"><ele>261.0</ele><time>2026-05-03T07:25:56Z</time></trkpt><trkpt lat="44.666357735171914" lon="10.189746722493386"><ele>261.0</ele><time>2026-05-03T07:25:58Z</time></trkpt><trkpt lat="44.66643188686257" lon="10.18961795045905"><ele>262.8</ele><time>2026-05-03T07:26:00Z</time></trkpt><trkpt lat="44.666484685346454" lon="10.18948671889214"><ele>264.6</ele><time>2026-05-03T07:26:01Z</time></trkpt><trkpt lat="44.666515491082244" lon="10.189342073778592"><ele>266.4</ele><time>2026-05-03T07:26:02Z</time></trkpt><trkpt lat="44.66651515940383" lon="10.189197856387425"><ele>268.2</ele><time>2026-05-03T07:26:03Z</time></trkpt><trkpt lat="44.66647895127375" lon="10.189077575733558"><ele>270.0</ele><time>2026-05-03T07:26:04Z</time></trkpt><trkpt lat="44.666425615143176" lon="10.188961834786245"><ele>272.25</ele><time>2026-05-03T07:26:05Z</time></trkpt><trkpt lat="44.66642346825047" lon="10.188852176528332"><ele>274.5</ele><time>2026-05-03T07:26:06Z</time></trkpt><trkpt lat="44.666493901347245" lon="10.188710597960206"><ele>276.75</ele><time>2026-05-03T07:26:07Z</time></trkpt><trkpt lat="44.6665365269039" lon="10.188530109433465"><ele>279.0</ele><time>2026-05-03T07:26:08Z</time></trkpt><trkpt lat="44.66656539136637" lon="10.188353565671264"><ele>281.0</ele><time>2026-05-03T07:26:09Z</time></trkpt><trkpt lat="44.66659944426618" lon="10.188156944426131"><ele>283.0</ele><time>2026-05-03T07:26:10Z</time></trkpt><trkpt lat="44.666629672832165" lon="10.187973855884685"><ele>285.0</ele><time>2026-05-03T07:26:11Z</time></trkpt><trkpt lat="44.66671216439618" lon="10.187845239763869"><ele>287.0</ele><time>2026-05-03T07:26:12Z</time></trkpt><trkpt lat="44.66677555413703" lon="10.187718728987006"><ele>287.0</ele><time>2026-05-03T07:26:13Z</time></trkpt><trkpt lat="44.666903815519916" lon="10.187664342437822"><ele>287.0</ele><time>2026-05-03T07:26:14Z</time></trkpt><trkpt lat="44.66698216885211" lon="10.187574404342946"><ele>287.0</ele><time>2026-05-03T07:26:15Z</time></trkpt><trkpt lat="44.66703240360313" lon="10.187496241622362"><ele>287.0</ele><time>2026-05-03T07:26:16Z</time></trkpt><trkpt lat="44.66699799610853" lon="10.18735385986202"><ele>287.0</ele><time>2026-05-03T07:26:17Z</time></trkpt><trkpt lat="44.66692835061367" lon="10.187218525675204"><ele>291.25</ele><time>2026-05-03T07:26:18Z</time></trkpt><trkpt lat="44.66683390297574" lon="10.18707706677377"><ele>295.5</ele><time>2026-05-03T07:26:19Z</time></trkpt><trkpt lat="44.666746789320335" lon="10.18689106293289"><ele>299.75</ele><time>2026-05-03T07:26:20Z</time></trkpt><trkpt lat="44.66665733408854" lon="10.186718845881172"><ele>304.0</ele><time>2026-05-03T07:26:21Z</time></trkpt><trkpt lat="44.66656626850839" lon="10.18652851414424"><ele>310.0</ele><time>2026-05-03T07:26:22Z</time></trkpt><trkpt lat="44.66647131621244" lon="10.186339851623648"><ele>316.0</ele><time>2026-05-03T07:26:22.999Z</time></trkpt><trkpt lat="44.6663720929808" lon="10.186175028450641"><ele>322.0</ele><time>2026-05-03T07:26:23.999Z</time></trkpt><trkpt lat="44.66625530995363" lon="10.186050177993137"><ele>322.0</ele><time>2026-05-03T07:26:24.999Z</time></trkpt><trkpt lat="44.66613943372301" lon="10.185955728543117"><ele>322.0</ele><time>2026-05-03T07:26:25.999Z</time></trkpt><trkpt lat="44.66606723174588" lon="10.185836451159938"><ele>322.0</ele><time>2026-05-03T07:26:26.999Z</time></trkpt><trkpt lat="44.66601657476713" lon="10.185703120524401"><ele>322.0</ele><time>2026-05-03T07:26:27.999Z</time></trkpt><trkpt lat="44.66597327709968" lon="10.185524534459235"><ele>323.0</ele><time>2026-05-03T07:26:28.999Z</time></trkpt><trkpt lat="44.665949019543945" lon="10.1853422916711"><ele>324.0</ele><time>2026-05-03T07:26:29.999Z</time></trkpt><trkpt lat="44.6659564355407" lon="10.185167910373885"><ele>325.0</ele><time>2026-05-03T07:26:30.999Z</time></trkpt><trkpt lat="44.66595323578411" lon="10.184977546053473"><ele>326.0</ele><time>2026-05-03T07:26:31.999Z</time></trkpt><trkpt lat="44.66593392707925" lon="10.184815141718861"><ele>326.0</ele><time>2026-05-03T07:26:32.999Z</time></trkpt><trkpt lat="44.66585009292436" lon="10.18463998427876"><ele>326.0</ele><time>2026-05-03T07:26:33.999Z</time></trkpt><trkpt lat="44.66571239314822" lon="10.184493247861534"><ele>326.0</ele><time>2026-05-03T07:26:34.999Z</time></trkpt><trkpt lat="44.6655899456418" lon="10.184359218887007"><ele>326.0</ele><time>2026-05-03T07:26:35.999Z</time></trkpt><trkpt lat="44.66552779744488" lon="10.184235848906916"><ele>326.0</ele><time>2026-05-03T07:26:36.999Z</time></trkpt><trkpt lat="44.665475423441166" lon="10.184162887324893"><ele>326.0</ele><time>2026-05-03T07:26:37.999Z</time></trkpt><trkpt lat="44.66549196748507" lon="10.184073215818342"><ele>326.0</ele><time>2026-05-03T07:26:38.999Z</time></trkpt><trkpt lat="44.66555348804557" lon="10.183983077507516"><ele>326.0</ele><time>2026-05-03T07:26:39.999Z</time></trkpt><trkpt lat="44.66565516550364" lon="10.183961563104322"><ele>326.0</ele><time>2026-05-03T07:26:40.999Z</time></trkpt><trkpt lat="44.66575367296218" lon="10.184065508083494"><ele>326.0</ele><time>2026-05-03T07:26:41.999Z</time></trkpt><trkpt lat="44.6658860568392" lon="10.184187887265407"><ele>326.0</ele><time>2026-05-03T07:26:42.999Z</time></trkpt><trkpt lat="44.66602762322365" lon="10.184340776561823"><ele>326.0</ele><time>2026-05-03T07:26:43.999Z</time></trkpt><trkpt lat="44.66616248694098" lon="10.184464431338"><ele>330.20000000000005</ele><time>2026-05-03T07:26:44.999Z</time></trkpt><trkpt lat="44.666266511260694" lon="10.184543486239665"><ele>334.40000000000003</ele><time>2026-05-03T07:26:45.999Z</time></trkpt><trkpt lat="44.66634538006896" lon="10.184547426148194"><ele>338.6</ele><time>2026-05-03T07:26:46.999Z</time></trkpt><trkpt lat="44.66640871605936" lon="10.18446606604633"><ele>342.8</ele><time>2026-05-03T07:26:47.999Z</time></trkpt><trkpt lat="44.66643215523205" lon="10.184323285104602"><ele>347.0</ele><time>2026-05-03T07:26:48.999Z</time></trkpt><trkpt lat="44.666372822838916" lon="10.18417371796874"><ele>347.0</ele><time>2026-05-03T07:26:49.999Z</time></trkpt><trkpt lat="44.66625528782896" lon="10.184034331187874"><ele>347.0</ele><time>2026-05-03T07:26:50.999Z</time></trkpt><trkpt lat="44.66613313314526" lon="10.183844670477715"><ele>347.0</ele><time>2026-05-03T07:26:51.999Z</time></trkpt><trkpt lat="44.66600947345615" lon="10.183666491678467"><ele>346.75</ele><time>2026-05-03T07:26:52.999Z</time></trkpt><trkpt lat="44.66588599942212" lon="10.183489682605986"><ele>346.5</ele><time>2026-05-03T07:26:53.999Z</time></trkpt><trkpt lat="44.66579547062822" lon="10.18335140087648"><ele>346.25</ele><time>2026-05-03T07:26:54.999Z</time></trkpt><trkpt lat="44.66574549031991" lon="10.183223886462981"><ele>346.0</ele><time>2026-05-03T07:26:55.999Z</time></trkpt><trkpt lat="44.66574536979861" lon="10.183096173878596"><ele>346.0</ele><time>2026-05-03T07:26:56.999Z</time></trkpt><trkpt lat="44.665795719929115" lon="10.182934946344357"><ele>346.0</ele><time>2026-05-03T07:26:57.999Z</time></trkpt><trkpt lat="44.66584164660351" lon="10.182722167983885"><ele>346.0</ele><time>2026-05-03T07:26:58.999Z</time></trkpt><trkpt lat="44.66589393323394" lon="10.182526116571424"><ele>346.0</ele><time>2026-05-03T07:26:59.999Z</time></trkpt><trkpt lat="44.66594350141383" lon="10.182395657781568"><ele>346.0</ele><time>2026-05-03T07:27:00.999Z</time></trkpt><trkpt lat="44.66600408891915" lon="10.182334897113288"><ele>346.0</ele><time>2026-05-03T07:27:01.999Z</time></trkpt><trkpt lat="44.66609054839308" lon="10.182368468103805"><ele>346.0</ele><time>2026-05-03T07:27:02.999Z</time></trkpt><trkpt lat="44.666143336175814" lon="10.182518867339457"><ele>346.0</ele><time>2026-05-03T07:27:03.999Z</time></trkpt><trkpt lat="44.666256329056786" lon="10.18266865518813"><ele>346.0</ele><time>2026-05-03T07:27:04.999Z</time></trkpt><trkpt lat="44.666383820866635" lon="10.182849763660194"><ele>350.66666666666663</ele><time>2026-05-03T07:27:05.999Z</time></trkpt><trkpt lat="44.666553763621465" lon="10.18301488247595"><ele>355.3333333333333</ele><time>2026-05-03T07:27:06.999Z</time></trkpt><trkpt lat="44.66673499356527" lon="10.183171645495543"><ele>360.0</ele><time>2026-05-03T07:27:07.999Z</time></trkpt><trkpt lat="44.66688564364049" lon="10.183355132878651"><ele>366.4</ele><time>2026-05-03T07:27:08.999Z</time></trkpt><trkpt lat="44.666998704561976" lon="10.183513737376629"><ele>372.8</ele><time>2026-05-03T07:27:09.999Z</time></trkpt><trkpt lat="44.6670794855108" lon="10.183596221856435"><ele>379.20000000000005</ele><time>2026-05-03T07:27:10.999Z</time></trkpt><trkpt lat="44.66714311509973" lon="10.183625395086715"><ele>385.6</ele><time>2026-05-03T07:27:11.999Z</time></trkpt><trkpt lat="44.66721107032734" lon="10.1835713849856"><ele>392.0</ele><time>2026-05-03T07:27:12.999Z</time></trkpt><trkpt lat="44.66725456467628" lon="10.183444894923968"><ele>392.0</ele><time>2026-05-03T07:27:13.999Z</time></trkpt><trkpt lat="44.66723969346345" lon="10.183258767328905"><ele>392.0</ele><time>2026-05-03T07:27:14.999Z</time></trkpt><trkpt lat="44.667196714335596" lon="10.18304484242702"><ele>392.0</ele><time>2026-05-03T07:27:15.999Z</time></trkpt><trkpt lat="44.667163373569984" lon="10.18281351912066"><ele>394.5</ele><time>2026-05-03T07:27:16.999Z</time></trkpt><trkpt lat="44.66709959045459" lon="10.182604160539091"><ele>397.0</ele><time>2026-05-03T07:27:17.999Z</time></trkpt><trkpt lat="44.66706155158245" lon="10.182458651425213"><ele>399.5</ele><time>2026-05-03T07:27:18.999Z</time></trkpt><trkpt lat="44.66707074688498" lon="10.182324387396498"><ele>402.0</ele><time>2026-05-03T07:27:20Z</time></trkpt><trkpt lat="44.66711183162698" lon="10.18214262727213"><ele>406.0</ele><time>2026-05-03T07:27:21Z</time></trkpt><trkpt lat="44.66711265886777" lon="10.18192814888775"><ele>410.0</ele><time>2026-05-03T07:27:22Z</time></trkpt><trkpt lat="44.667081564486054" lon="10.18170787474266"><ele>414.0</ele><time>2026-05-03T07:27:23Z</time></trkpt><trkpt lat="44.667026338786954" lon="10.181473831843094"><ele>416.0</ele><time>2026-05-03T07:27:24Z</time></trkpt><trkpt lat="44.666976637715344" lon="10.181245818653089"><ele>418.0</ele><time>2026-05-03T07:27:25Z</time></trkpt><trkpt lat="44.666968998419485" lon="10.181013456686545"><ele>420.0</ele><time>2026-05-03T07:27:26Z</time></trkpt><trkpt lat="44.666906684626056" lon="10.180798373437657"><ele>418.66666666666663</ele><time>2026-05-03T07:27:27Z</time></trkpt><trkpt lat="44.6668219239601" lon="10.180594542850857"><ele>417.3333333333333</ele><time>2026-05-03T07:27:28Z</time></trkpt><trkpt lat="44.66672257594967" lon="10.180421210191577"><ele>416.0</ele><time>2026-05-03T07:27:29Z</time></trkpt><trkpt lat="44.666619154055496" lon="10.180280589494547"><ele>416.0</ele><time>2026-05-03T07:27:30Z</time></trkpt><trkpt lat="44.66650655322026" lon="10.180146473210137"><ele>416.0</ele><time>2026-05-03T07:27:31Z</time></trkpt><trkpt lat="44.66642262465693" lon="10.179999288139419"><ele>416.0</ele><time>2026-05-03T07:27:32Z</time></trkpt><trkpt lat="44.6663363352803" lon="10.17988195856526"><ele>416.0</ele><time>2026-05-03T07:27:33Z</time></trkpt><trkpt lat="44.66627422999815" lon="10.179796318137148"><ele>418.4</ele><time>2026-05-03T07:27:34Z</time></trkpt><trkpt lat="44.66623086742449" lon="10.179709024031395"><ele>420.8</ele><time>2026-05-03T07:27:35Z</time></trkpt><trkpt lat="44.66620131160957" lon="10.179593224506648"><ele>423.19999999999993</ele><time>2026-05-03T07:27:36Z</time></trkpt><trkpt lat="44.66617704034326" lon="10.179451057530667"><ele>425.59999999999997</ele><time>2026-05-03T07:27:37Z</time></trkpt><trkpt lat="44.6661870028909" lon="10.17926321643742"><ele>428.0</ele><time>2026-05-03T07:27:38Z</time></trkpt><trkpt lat="44.66624437322005" lon="10.179076833730292"><ele>428.25</ele><time>2026-05-03T07:27:39Z</time></trkpt><trkpt lat="44.666280926580576" lon="10.178901361362568"><ele>428.5</ele><time>2026-05-03T07:27:40Z</time></trkpt><trkpt lat="44.66630304547471" lon="10.178714813299496"><ele>428.75</ele><time>2026-05-03T07:27:41Z</time></trkpt><trkpt lat="44.66629448974137" lon="10.178527274707475"><ele>429.0</ele><time>2026-05-03T07:27:42Z</time></trkpt><trkpt lat="44.666209599743254" lon="10.178339572691392"><ele>425.66666666666663</ele><time>2026-05-03T07:27:43Z</time></trkpt><trkpt lat="44.66610358204329" lon="10.178160460661964"><ele>422.3333333333333</ele><time>2026-05-03T07:27:44Z</time></trkpt><trkpt lat="44.666001797631125" lon="10.177981406915707"><ele>419.0</ele><time>2026-05-03T07:27:45Z</time></trkpt><trkpt lat="44.66592502404878" lon="10.177794584591659"><ele>419.0</ele><time>2026-05-03T07:27:46Z</time></trkpt><trkpt lat="44.66583601821995" lon="10.177648162063877"><ele>419.0</ele><time>2026-05-03T07:27:47Z</time></trkpt><trkpt lat="44.66577397974574" lon="10.177483798150993"><ele>419.0</ele><time>2026-05-03T07:27:48Z</time></trkpt><trkpt lat="44.66575254272176" lon="10.177301442606097"><ele>419.0</ele><time>2026-05-03T07:27:49Z</time></trkpt><trkpt lat="44.66573689668081" lon="10.177128877632992"><ele>420.75</ele><time>2026-05-03T07:27:50Z</time></trkpt><trkpt lat="44.66580264850817" lon="10.176966192476039"><ele>422.5</ele><time>2026-05-03T07:27:51Z</time></trkpt><trkpt lat="44.66584990170848" lon="10.176781603022324"><ele>424.25</ele><time>2026-05-03T07:27:52Z</time></trkpt><trkpt lat="44.665905715926144" lon="10.176593343788916"><ele>426.0</ele><time>2026-05-03T07:27:53Z</time></trkpt><trkpt lat="44.665957532463494" lon="10.176390576406554"><ele>427.75</ele><time>2026-05-03T07:27:54Z</time></trkpt><trkpt lat="44.666010579703595" lon="10.176190691763384"><ele>429.5</ele><time>2026-05-03T07:27:55Z</time></trkpt><trkpt lat="44.66606048021909" lon="10.1759926332363"><ele>431.25</ele><time>2026-05-03T07:27:56Z</time></trkpt><trkpt lat="44.66610183670545" lon="10.175805174541253"><ele>433.0</ele><time>2026-05-03T07:27:57Z</time></trkpt><trkpt lat="44.66610786584334" lon="10.175616623348859"><ele>435.5</ele><time>2026-05-03T07:27:58Z</time></trkpt><trkpt lat="44.66607319524721" lon="10.175427956022334"><ele>438.0</ele><time>2026-05-03T07:27:59Z</time></trkpt><trkpt lat="44.66603810699241" lon="10.175224858638858"><ele>440.5</ele><time>2026-05-03T07:28:00Z</time></trkpt><trkpt lat="44.6660650118421" lon="10.17501862078528"><ele>443.0</ele><time>2026-05-03T07:28:01Z</time></trkpt><trkpt lat="44.66608286910467" lon="10.174793215082783"><ele>443.5</ele><time>2026-05-03T07:28:02Z</time></trkpt><trkpt lat="44.666108718420915" lon="10.174594742174564"><ele>444.0</ele><time>2026-05-03T07:28:03Z</time></trkpt><trkpt lat="44.66610922258684" lon="10.174404193452236"><ele>444.5</ele><time>2026-05-03T07:28:04Z</time></trkpt><trkpt lat="44.66607040569621" lon="10.174209179140787"><ele>445.0</ele><time>2026-05-03T07:28:05Z</time></trkpt><trkpt lat="44.66600451062339" lon="10.173998615250413"><ele>445.0</ele><time>2026-05-03T07:28:06Z</time></trkpt><trkpt lat="44.66594622928207" lon="10.173789921975875"><ele>445.0</ele><time>2026-05-03T07:28:07Z</time></trkpt><trkpt lat="44.665889404989535" lon="10.17357637881099"><ele>445.0</ele><time>2026-05-03T07:28:08Z</time></trkpt><trkpt lat="44.665848353750135" lon="10.1733496147863"><ele>442.5</ele><time>2026-05-03T07:28:09Z</time></trkpt><trkpt lat="44.665795141996895" lon="10.17313324200837"><ele>440.0</ele><time>2026-05-03T07:28:10Z</time></trkpt><trkpt lat="44.66573248490189" lon="10.172953113911278"><ele>437.5</ele><time>2026-05-03T07:28:11Z</time></trkpt><trkpt lat="44.66568679858703" lon="10.172783347778234"><ele>435.0</ele><time>2026-05-03T07:28:12Z</time></trkpt><trkpt lat="44.66562315035821" lon="10.172664043235141"><ele>435.0</ele><time>2026-05-03T07:28:13Z</time></trkpt><trkpt lat="44.66552291836569" lon="10.172607828558174"><ele>435.0</ele><time>2026-05-03T07:28:14Z</time></trkpt><trkpt lat="44.66538348631374" lon="10.17258663785071"><ele>435.0</ele><time>2026-05-03T07:28:15Z</time></trkpt><trkpt lat="44.665220458063025" lon="10.172554467501094"><ele>435.0</ele><time>2026-05-03T07:28:16Z</time></trkpt><trkpt lat="44.66511350711905" lon="10.172490097025044"><ele>434.2</ele><time>2026-05-03T07:28:17Z</time></trkpt><trkpt lat="44.66507533686552" lon="10.172413175704753"><ele>433.4</ele><time>2026-05-03T07:28:18Z</time></trkpt><trkpt lat="44.66506559658722" lon="10.172325523977127"><ele>432.6</ele><time>2026-05-03T07:28:19Z</time></trkpt><trkpt lat="44.66511446841613" lon="10.172199579040122"><ele>431.8</ele><time>2026-05-03T07:28:20Z</time></trkpt><trkpt lat="44.665225704489636" lon="10.172072386150303"><ele>431.0</ele><time>2026-05-03T07:28:21Z</time></trkpt><trkpt lat="44.665342898873675" lon="10.171919526376291"><ele>431.0</ele><time>2026-05-03T07:28:22Z</time></trkpt><trkpt lat="44.66543464575546" lon="10.171818079433997"><ele>431.0</ele><time>2026-05-03T07:28:23Z</time></trkpt><trkpt lat="44.66545985071518" lon="10.171700615239134"><ele>431.0</ele><time>2026-05-03T07:28:24Z</time></trkpt><trkpt lat="44.66543243328575" lon="10.171525277649621"><ele>431.0</ele><time>2026-05-03T07:28:25Z</time></trkpt><trkpt lat="44.66537207473394" lon="10.171342279628208"><ele>430.25</ele><time>2026-05-03T07:28:26Z</time></trkpt><trkpt lat="44.66528065444906" lon="10.171168232230192"><ele>429.5</ele><time>2026-05-03T07:28:27Z</time></trkpt><trkpt lat="44.66521094859279" lon="10.171047073560441"><ele>428.75</ele><time>2026-05-03T07:28:28Z</time></trkpt><trkpt lat="44.66510550629562" lon="10.170848276008824"><ele>428.0</ele><time>2026-05-03T07:28:29Z</time></trkpt><trkpt lat="44.66495022921413" lon="10.17059895555992"><ele>428.0</ele><time>2026-05-03T07:28:29.999Z</time></trkpt><trkpt lat="44.66483807872393" lon="10.170455480273779"><ele>428.0</ele><time>2026-05-03T07:28:30.999Z</time></trkpt><trkpt lat="44.66474296457031" lon="10.170321060820706"><ele>428.0</ele><time>2026-05-03T07:28:31.999Z</time></trkpt><trkpt lat="44.66462820263172" lon="10.17023681890443"><ele>428.0</ele><time>2026-05-03T07:28:32.999Z</time></trkpt><trkpt lat="44.66449178566342" lon="10.170175223567226"><ele>426.66666666666663</ele><time>2026-05-03T07:28:33.999Z</time></trkpt><trkpt lat="44.66436428710664" lon="10.170051170367234"><ele>425.33333333333337</ele><time>2026-05-03T07:28:34.999Z</time></trkpt><trkpt lat="44.66423592052249" lon="10.169875514453572"><ele>424.0</ele><time>2026-05-03T07:28:35.999Z</time></trkpt><trkpt lat="44.66411004960726" lon="10.169711209304028"><ele>424.0</ele><time>2026-05-03T07:28:36.999Z</time></trkpt><trkpt lat="44.66397650850726" lon="10.169599747118912"><ele>424.0</ele><time>2026-05-03T07:28:37.999Z</time></trkpt><trkpt lat="44.663829431009496" lon="10.169523726131603"><ele>424.0</ele><time>2026-05-03T07:28:38.999Z</time></trkpt><trkpt lat="44.66366255856706" lon="10.16946829245318"><ele>427.6</ele><time>2026-05-03T07:28:39.999Z</time></trkpt><trkpt lat="44.66352829130725" lon="10.169431469985433"><ele>431.2</ele><time>2026-05-03T07:28:40.999Z</time></trkpt><trkpt lat="44.663437989808294" lon="10.169387832160727"><ele>434.80000000000007</ele><time>2026-05-03T07:28:41.999Z</time></trkpt><trkpt lat="44.663372592350754" lon="10.169311959121455"><ele>438.40000000000003</ele><time>2026-05-03T07:28:42.999Z</time></trkpt><trkpt lat="44.663337213372756" lon="10.169205450206256"><ele>442.0</ele><time>2026-05-03T07:28:43.999Z</time></trkpt><trkpt lat="44.66334925144198" lon="10.169081725381204"><ele>443.25</ele><time>2026-05-03T07:28:44.999Z</time></trkpt><trkpt lat="44.66338448267837" lon="10.168949124172833"><ele>444.5</ele><time>2026-05-03T07:28:45.999Z</time></trkpt><trkpt lat="44.663444987284905" lon="10.168786278922445"><ele>445.75</ele><time>2026-05-03T07:28:46.999Z</time></trkpt><trkpt lat="44.66355489625563" lon="10.168622404249568"><ele>447.0</ele><time>2026-05-03T07:28:47.999Z</time></trkpt><trkpt lat="44.663648447440146" lon="10.168470339569092"><ele>441.0</ele><time>2026-05-03T07:28:48.999Z</time></trkpt><trkpt lat="44.66369247775093" lon="10.168318296630119"><ele>435.0</ele><time>2026-05-03T07:28:49.999Z</time></trkpt><trkpt lat="44.663700701632116" lon="10.168118550115627"><ele>429.0</ele><time>2026-05-03T07:28:50.999Z</time></trkpt><trkpt lat="44.66368941978116" lon="10.1678761014766"><ele>423.0</ele><time>2026-05-03T07:28:51.999Z</time></trkpt><trkpt lat="44.66369211673074" lon="10.167611504162554"><ele>425.33333333333337</ele><time>2026-05-03T07:28:52.999Z</time></trkpt><trkpt lat="44.663713598056276" lon="10.16735899883658"><ele>427.6666666666667</ele><time>2026-05-03T07:28:53.999Z</time></trkpt><trkpt lat="44.66374971707627" lon="10.167145061298523"><ele>430.0</ele><time>2026-05-03T07:28:54.999Z</time></trkpt><trkpt lat="44.66380116298294" lon="10.16691392746536"><ele>430.0</ele><time>2026-05-03T07:28:55.999Z</time></trkpt><trkpt lat="44.66386268470267" lon="10.166710541883418"><ele>430.0</ele><time>2026-05-03T07:28:56.999Z</time></trkpt><trkpt lat="44.663934945082175" lon="10.166528129472907"><ele>430.0</ele><time>2026-05-03T07:28:57.999Z</time></trkpt><trkpt lat="44.66401905396313" lon="10.166367752283774"><ele>430.0</ele><time>2026-05-03T07:28:58.999Z</time></trkpt><trkpt lat="44.66411157318526" lon="10.166245658775516"><ele>430.8</ele><time>2026-05-03T07:28:59.999Z</time></trkpt><trkpt lat="44.66423680351327" lon="10.166192351981918"><ele>431.6</ele><time>2026-05-03T07:29:00.999Z</time></trkpt><trkpt lat="44.66433576397392" lon="10.166113780449558"><ele>432.4</ele><time>2026-05-03T07:29:01.999Z</time></trkpt><trkpt lat="44.66440755222177" lon="10.166035564513015"><ele>433.2</ele><time>2026-05-03T07:29:02.999Z</time></trkpt><trkpt lat="44.66445550467996" lon="10.165910435438017"><ele>434.0</ele><time>2026-05-03T07:29:03.999Z</time></trkpt><trkpt lat="44.66448680979576" lon="10.165761246509886"><ele>435.0</ele><time>2026-05-03T07:29:04.999Z</time></trkpt><trkpt lat="44.66452315004369" lon="10.165625420454731"><ele>436.0</ele><time>2026-05-03T07:29:05.999Z</time></trkpt><trkpt lat="44.66456765100643" lon="10.165498548261857"><ele>437.0</ele><time>2026-05-03T07:29:06.999Z</time></trkpt><trkpt lat="44.66461153925305" lon="10.165374637863335"><ele>438.0</ele><time>2026-05-03T07:29:07.999Z</time></trkpt><trkpt lat="44.66466672101442" lon="10.165246459570888"><ele>439.0</ele><time>2026-05-03T07:29:08.999Z</time></trkpt><trkpt lat="44.66474472530541" lon="10.165116630020474"><ele>439.0</ele><time>2026-05-03T07:29:09.999Z</time></trkpt><trkpt lat="44.66483407831141" lon="10.164998170778333"><ele>439.0</ele><time>2026-05-03T07:29:10.999Z</time></trkpt><trkpt lat="44.66491141347558" lon="10.164885186119804"><ele>439.0</ele><time>2026-05-03T07:29:11.999Z</time></trkpt><trkpt lat="44.66500169427185" lon="10.16476470455304"><ele>439.0</ele><time>2026-05-03T07:29:12.999Z</time></trkpt><trkpt lat="44.66511984172277" lon="10.164656660112385"><ele>436.6666666666667</ele><time>2026-05-03T07:29:13.999Z</time></trkpt><trkpt lat="44.6652492971488" lon="10.16451740247199"><ele>434.33333333333337</ele><time>2026-05-03T07:29:14.999Z</time></trkpt><trkpt lat="44.665394929749894" lon="10.16433609932636"><ele>432.0</ele><time>2026-05-03T07:29:15.999Z</time></trkpt><trkpt lat="44.66556044217025" lon="10.164162478337678"><ele>431.0</ele><time>2026-05-03T07:29:16.999Z</time></trkpt><trkpt lat="44.66573468099899" lon="10.163998494052954"><ele>430.0</ele><time>2026-05-03T07:29:17.999Z</time></trkpt><trkpt lat="44.665890400510776" lon="10.163828118498703"><ele>429.0</ele><time>2026-05-03T07:29:18.999Z</time></trkpt><trkpt lat="44.666021798621436" lon="10.163682082500166"><ele>429.66666666666663</ele><time>2026-05-03T07:29:19.999Z</time></trkpt><trkpt lat="44.666137913104265" lon="10.163530214944185"><ele>430.3333333333333</ele><time>2026-05-03T07:29:20.999Z</time></trkpt><trkpt lat="44.66624618082145" lon="10.163344505327611"><ele>431.0</ele><time>2026-05-03T07:29:21.999Z</time></trkpt><trkpt lat="44.66633310507322" lon="10.163110430766015"><ele>431.0</ele><time>2026-05-03T07:29:22.999Z</time></trkpt><trkpt lat="44.66642998335886" lon="10.162905976117877"><ele>431.0</ele><time>2026-05-03T07:29:23.999Z</time></trkpt><trkpt lat="44.66651347299113" lon="10.162719182984896"><ele>431.0</ele><time>2026-05-03T07:29:24.999Z</time></trkpt><trkpt lat="44.666588753493" lon="10.162507157873629"><ele>428.5</ele><time>2026-05-03T07:29:26Z</time></trkpt><trkpt lat="44.66664428540277" lon="10.16230558082681"><ele>426.0</ele><time>2026-05-03T07:29:27Z</time></trkpt><trkpt lat="44.66667300770195" lon="10.162100958767939"><ele>423.5</ele><time>2026-05-03T07:29:28Z</time></trkpt><trkpt lat="44.666633630600124" lon="10.161912215867314"><ele>421.0</ele><time>2026-05-03T07:29:29Z</time></trkpt><trkpt lat="44.666567521204925" lon="10.161726920986295"><ele>417.33333333333337</ele><time>2026-05-03T07:29:30Z</time></trkpt><trkpt lat="44.666488657251605" lon="10.16149836288759"><ele>413.66666666666663</ele><time>2026-05-03T07:29:31Z</time></trkpt><trkpt lat="44.66638264393019" lon="10.161270382222758"><ele>410.0</ele><time>2026-05-03T07:29:32Z</time></trkpt><trkpt lat="44.66629240341699" lon="10.161044460751794"><ele>410.0</ele><time>2026-05-03T07:29:33Z</time></trkpt><trkpt lat="44.666208289369116" lon="10.160841389404393"><ele>410.0</ele><time>2026-05-03T07:29:34Z</time></trkpt><trkpt lat="44.66611855074106" lon="10.160659153366236"><ele>410.0</ele><time>2026-05-03T07:29:35Z</time></trkpt><trkpt lat="44.6660323882149" lon="10.160494897930908"><ele>408.2</ele><time>2026-05-03T07:29:36Z</time></trkpt><trkpt lat="44.66600268509114" lon="10.160391916829294"><ele>406.4</ele><time>2026-05-03T07:29:37Z</time></trkpt><trkpt lat="44.666033642756" lon="10.160258846407466"><ele>404.6</ele><time>2026-05-03T07:29:39Z</time></trkpt><trkpt lat="44.666106881248986" lon="10.16022456844493"><ele>402.8</ele><time>2026-05-03T07:29:40Z</time></trkpt><trkpt lat="44.666216854460146" lon="10.160279609962819"><ele>401.0</ele><time>2026-05-03T07:29:41Z</time></trkpt><trkpt lat="44.66628185383876" lon="10.160430978017187"><ele>399.99999999999994</ele><time>2026-05-03T07:29:42Z</time></trkpt><trkpt lat="44.66636428222722" lon="10.160537657676038"><ele>399.0</ele><time>2026-05-03T07:29:43Z</time></trkpt><trkpt lat="44.666430290957734" lon="10.160566344602262"><ele>398.0</ele><time>2026-05-03T07:29:44Z</time></trkpt><trkpt lat="44.66648359135451" lon="10.160489772932094"><ele>397.0</ele><time>2026-05-03T07:29:45Z</time></trkpt><trkpt lat="44.66648507182055" lon="10.160366950226136"><ele>395.99999999999994</ele><time>2026-05-03T07:29:46Z</time></trkpt><trkpt lat="44.66642267074405" lon="10.160259105097433"><ele>395.0</ele><time>2026-05-03T07:29:47Z</time></trkpt><trkpt lat="44.66630832223699" lon="10.16013333428195"><ele>395.0</ele><time>2026-05-03T07:29:48Z</time></trkpt><trkpt lat="44.66618972341398" lon="10.159968970399806"><ele>395.0</ele><time>2026-05-03T07:29:49Z</time></trkpt><trkpt lat="44.666091537924316" lon="10.159810799824376"><ele>395.0</ele><time>2026-05-03T07:29:50Z</time></trkpt><trkpt lat="44.666024239426825" lon="10.159673197776439"><ele>395.0</ele><time>2026-05-03T07:29:51Z</time></trkpt><trkpt lat="44.66598603542317" lon="10.159556629316205"><ele>395.16666666666663</ele><time>2026-05-03T07:29:52Z</time></trkpt><trkpt lat="44.66595657243442" lon="10.159464981578646"><ele>395.3333333333333</ele><time>2026-05-03T07:29:53Z</time></trkpt><trkpt lat="44.665977278484895" lon="10.159376001172898"><ele>395.5</ele><time>2026-05-03T07:29:54Z</time></trkpt><trkpt lat="44.66597093670168" lon="10.159262373378025"><ele>395.66666666666663</ele><time>2026-05-03T07:29:55Z</time></trkpt><trkpt lat="44.66598053694178" lon="10.159146489600678"><ele>395.8333333333333</ele><time>2026-05-03T07:29:56Z</time></trkpt><trkpt lat="44.666031294622876" lon="10.159027902032397"><ele>396.0</ele><time>2026-05-03T07:29:58Z</time></trkpt><trkpt lat="44.666104048678505" lon="10.158988733502383"><ele>394.25</ele><time>2026-05-03T07:29:59Z</time></trkpt><trkpt lat="44.66620368790481" lon="10.158887811376113"><ele>392.5</ele><time>2026-05-03T07:30:00Z</time></trkpt><trkpt lat="44.66632063350135" lon="10.15875423283234"><ele>390.75</ele><time>2026-05-03T07:30:01Z</time></trkpt><trkpt lat="44.66644079323249" lon="10.158631665693473"><ele>389.0</ele><time>2026-05-03T07:30:02Z</time></trkpt><trkpt lat="44.666546303097704" lon="10.158518816061589"><ele>389.0</ele><time>2026-05-03T07:30:03Z</time></trkpt><trkpt lat="44.66663222735" lon="10.158394408404215"><ele>389.0</ele><time>2026-05-03T07:30:04Z</time></trkpt><trkpt lat="44.66671390699878" lon="10.158245919173659"><ele>389.0</ele><time>2026-05-03T07:30:05Z</time></trkpt><trkpt lat="44.66677062999063" lon="10.158068807320202"><ele>389.0</ele><time>2026-05-03T07:30:06Z</time></trkpt><trkpt lat="44.666779952626065" lon="10.157881868387854"><ele>388.0</ele><time>2026-05-03T07:30:07Z</time></trkpt><trkpt lat="44.6667583715532" lon="10.157716915759675"><ele>387.0</ele><time>2026-05-03T07:30:08Z</time></trkpt><trkpt lat="44.666711649856424" lon="10.157535622988364"><ele>386.0</ele><time>2026-05-03T07:30:09Z</time></trkpt><trkpt lat="44.66661940214656" lon="10.157350690723403"><ele>385.0</ele><time>2026-05-03T07:30:10Z</time></trkpt><trkpt lat="44.66649821125616" lon="10.157192842212266"><ele>380.33333333333337</ele><time>2026-05-03T07:30:11Z</time></trkpt><trkpt lat="44.666357445751515" lon="10.157038689321807"><ele>375.6666666666667</ele><time>2026-05-03T07:30:12Z</time></trkpt><trkpt lat="44.66624247752524" lon="10.15686219952018"><ele>371.0</ele><time>2026-05-03T07:30:13Z</time></trkpt><trkpt lat="44.66613967377513" lon="10.15672661451049"><ele>371.6</ele><time>2026-05-03T07:30:14Z</time></trkpt><trkpt lat="44.66605950934531" lon="10.156614258418225"><ele>372.20000000000005</ele><time>2026-05-03T07:30:15Z</time></trkpt><trkpt lat="44.66599939734308" lon="10.156496664179206"><ele>372.79999999999995</ele><time>2026-05-03T07:30:16Z</time></trkpt><trkpt lat="44.6659805270992" lon="10.156357936924127"><ele>373.4</ele><time>2026-05-03T07:30:17Z</time></trkpt><trkpt lat="44.665996712905574" lon="10.156183838347285"><ele>374.0</ele><time>2026-05-03T07:30:18Z</time></trkpt><trkpt lat="44.66601863012298" lon="10.155954196782394"><ele>374.0</ele><time>2026-05-03T07:30:19Z</time></trkpt><trkpt lat="44.666024364363246" lon="10.155715480369462"><ele>374.0</ele><time>2026-05-03T07:30:20Z</time></trkpt><trkpt lat="44.66605690566469" lon="10.15549097149723"><ele>374.0</ele><time>2026-05-03T07:30:21Z</time></trkpt><trkpt lat="44.666042596446694" lon="10.155267430977158"><ele>375.25</ele><time>2026-05-03T07:30:22Z</time></trkpt><trkpt lat="44.66600081911147" lon="10.155061256257602"><ele>376.5</ele><time>2026-05-03T07:30:23Z</time></trkpt><trkpt lat="44.665942314122326" lon="10.154886370990042"><ele>377.75</ele><time>2026-05-03T07:30:24Z</time></trkpt><trkpt lat="44.665955558761475" lon="10.154709519143294"><ele>379.0</ele><time>2026-05-03T07:30:25Z</time></trkpt><trkpt lat="44.66597691348734" lon="10.15450242716929"><ele>379.0</ele><time>2026-05-03T07:30:26Z</time></trkpt><trkpt lat="44.66602544711278" lon="10.154258332196077"><ele>379.0</ele><time>2026-05-03T07:30:27Z</time></trkpt><trkpt lat="44.66605599540005" lon="10.15399365210266"><ele>379.0</ele><time>2026-05-03T07:30:28Z</time></trkpt><trkpt lat="44.666080892769635" lon="10.153759930090539"><ele>383.66666666666663</ele><time>2026-05-03T07:30:29Z</time></trkpt><trkpt lat="44.66612456485283" lon="10.153549088501263"><ele>388.3333333333333</ele><time>2026-05-03T07:30:30Z</time></trkpt><trkpt lat="44.666180581690696" lon="10.153345431111171"><ele>393.0</ele><time>2026-05-03T07:30:31Z</time></trkpt><trkpt lat="44.66627585693942" lon="10.153137219556921"><ele>393.66666666666663</ele><time>2026-05-03T07:30:32Z</time></trkpt><trkpt lat="44.66636296789807" lon="10.152911653875313"><ele>394.3333333333333</ele><time>2026-05-03T07:30:33Z</time></trkpt><trkpt lat="44.666445230782166" lon="10.152663650960786"><ele>395.0</ele><time>2026-05-03T07:30:34Z</time></trkpt><trkpt lat="44.666516207757006" lon="10.152377716254371"><ele>396.25</ele><time>2026-05-03T07:30:35Z</time></trkpt><trkpt lat="44.66658703739107" lon="10.152135616214194"><ele>397.5</ele><time>2026-05-03T07:30:36Z</time></trkpt><trkpt lat="44.66664901107207" lon="10.151944664417217"><ele>398.75</ele><time>2026-05-03T07:30:36.999Z</time></trkpt><trkpt lat="44.66669332615387" lon="10.151813736943607"><ele>400.0</ele><time>2026-05-03T07:30:37.999Z</time></trkpt><trkpt lat="44.6667154001034" lon="10.151715077554455"><ele>400.0</ele><time>2026-05-03T07:30:38.999Z</time></trkpt><trkpt lat="44.66673194199807" lon="10.151622525749202"><ele>400.0</ele><time>2026-05-03T07:30:39.999Z</time></trkpt><trkpt lat="44.666704390026595" lon="10.151493606451524"><ele>400.0</ele><time>2026-05-03T07:30:40.999Z</time></trkpt><trkpt lat="44.66659568270762" lon="10.151393124745022"><ele>400.0</ele><time>2026-05-03T07:30:41.999Z</time></trkpt><trkpt lat="44.666474292700144" lon="10.151239912093803"><ele>401.6666666666667</ele><time>2026-05-03T07:30:42.999Z</time></trkpt><trkpt lat="44.66634288027703" lon="10.151087343483185"><ele>403.33333333333337</ele><time>2026-05-03T07:30:43.999Z</time></trkpt><trkpt lat="44.66622050686069" lon="10.150929146423575"><ele>405.0</ele><time>2026-05-03T07:30:44.999Z</time></trkpt><trkpt lat="44.6661233699994" lon="10.150758358174844"><ele>399.25</ele><time>2026-05-03T07:30:45.999Z</time></trkpt><trkpt lat="44.666041536012365" lon="10.150587572319708"><ele>393.5</ele><time>2026-05-03T07:30:46.999Z</time></trkpt><trkpt lat="44.66597985491621" lon="10.150416049682228"><ele>387.75</ele><time>2026-05-03T07:30:47.999Z</time></trkpt><trkpt lat="44.66596472561414" lon="10.150278749484253"><ele>382.0</ele><time>2026-05-03T07:30:48.999Z</time></trkpt><trkpt lat="44.66597808788297" lon="10.150161463997717"><ele>382.0</ele><time>2026-05-03T07:30:49.999Z</time></trkpt><trkpt lat="44.666043859084425" lon="10.150031899562526"><ele>382.0</ele><time>2026-05-03T07:30:50.999Z</time></trkpt><trkpt lat="44.66616993652799" lon="10.14992544905027"><ele>382.0</ele><time>2026-05-03T07:30:51.999Z</time></trkpt><trkpt lat="44.6662894450734" lon="10.149792264407925"><ele>382.0</ele><time>2026-05-03T07:30:52.999Z</time></trkpt><trkpt lat="44.66638997811119" lon="10.14967390628939"><ele>384.75</ele><time>2026-05-03T07:30:53.999Z</time></trkpt><trkpt lat="44.66644424145588" lon="10.149532202435429"><ele>387.5</ele><time>2026-05-03T07:30:54.999Z</time></trkpt><trkpt lat="44.66644417391562" lon="10.149369862570776"><ele>390.25</ele><time>2026-05-03T07:30:55.999Z</time></trkpt><trkpt lat="44.666389411256986" lon="10.149192616752766"><ele>393.0</ele><time>2026-05-03T07:30:56.999Z</time></trkpt><trkpt lat="44.666280407933726" lon="10.149018916899472"><ele>393.0</ele><time>2026-05-03T07:30:57.999Z</time></trkpt><trkpt lat="44.666212422109595" lon="10.148800613011055"><ele>393.0</ele><time>2026-05-03T07:30:58.999Z</time></trkpt><trkpt lat="44.6661525476397" lon="10.148558242283237"><ele>393.0</ele><time>2026-05-03T07:30:59.999Z</time></trkpt><trkpt lat="44.666075033235586" lon="10.148350594288447"><ele>386.3333333333333</ele><time>2026-05-03T07:31:00.999Z</time></trkpt><trkpt lat="44.66599601484806" lon="10.148204772655992"><ele>379.66666666666663</ele><time>2026-05-03T07:31:01.999Z</time></trkpt><trkpt lat="44.66590977790834" lon="10.147996530933893"><ele>373.0</ele><time>2026-05-03T07:31:02.999Z</time></trkpt><trkpt lat="44.66585718451699" lon="10.147792749008854"><ele>373.0</ele><time>2026-05-03T07:31:03.999Z</time></trkpt><trkpt lat="44.66586732939146" lon="10.147649077667785"><ele>373.0</ele><time>2026-05-03T07:31:04.999Z</time></trkpt><trkpt lat="44.66592501165527" lon="10.147524752929257"><ele>373.0</ele><time>2026-05-03T07:31:05.999Z</time></trkpt><trkpt lat="44.66597350209204" lon="10.147434590559671"><ele>373.0</ele><time>2026-05-03T07:31:06.999Z</time></trkpt><trkpt lat="44.66595354265528" lon="10.147340047096298"><ele>373.0</ele><time>2026-05-03T07:31:32Z</time></trkpt><trkpt lat="44.66586089007778" lon="10.147280379210946"><ele>373.0</ele><time>2026-05-03T07:31:35Z</time></trkpt><trkpt lat="44.66575715498854" lon="10.147310828846269"><ele>373.0</ele><time>2026-05-03T07:31:36Z</time></trkpt><trkpt lat="44.66563158060052" lon="10.147362658328047"><ele>373.0</ele><time>2026-05-03T07:31:37Z</time></trkpt><trkpt lat="44.6655189739973" lon="10.147421219100455"><ele>373.0</ele><time>2026-05-03T07:31:38Z</time></trkpt><trkpt lat="44.665421583188106" lon="10.147472030878014"><ele>373.0</ele><time>2026-05-03T07:31:39Z</time></trkpt><trkpt lat="44.66532292082648" lon="10.147490570336357"><ele>373.0</ele><time>2026-05-03T07:31:40Z</time></trkpt><trkpt lat="44.66523685896759" lon="10.147489073826419"><ele>373.0</ele><time>2026-05-03T07:31:41Z</time></trkpt><trkpt lat="44.66514948038795" lon="10.147440531040592"><ele>373.0</ele><time>2026-05-03T07:31:42Z</time></trkpt><trkpt lat="44.66513396192803" lon="10.147247958795356"><ele>373.0</ele><time>2026-05-03T07:31:43Z</time></trkpt><trkpt lat="44.66506106752575" lon="10.14705514089338"><ele>365.0</ele><time>2026-05-03T07:31:44Z</time></trkpt><trkpt lat="44.665004586681" lon="10.14684240093757"><ele>357.0</ele><time>2026-05-03T07:31:45Z</time></trkpt><trkpt lat="44.66490210164527" lon="10.146562083658566"><ele>349.0</ele><time>2026-05-03T07:31:46Z</time></trkpt><trkpt lat="44.66488792706133" lon="10.146461189088095"><ele>347.0</ele><time>2026-05-03T07:31:47Z</time></trkpt><trkpt lat="44.66482444447072" lon="10.146260132930774"><ele>345.0</ele><time>2026-05-03T07:31:48Z</time></trkpt><trkpt lat="44.66475589763323" lon="10.146043038360597"><ele>343.0</ele><time>2026-05-03T07:31:49Z</time></trkpt><trkpt lat="44.664685450315325" lon="10.145816108020895"><ele>340.0</ele><time>2026-05-03T07:31:50Z</time></trkpt><trkpt lat="44.66461636795894" lon="10.145592207456318"><ele>337.0</ele><time>2026-05-03T07:31:51Z</time></trkpt><trkpt lat="44.66454554849834" lon="10.14536346992286"><ele>334.0</ele><time>2026-05-03T07:31:52Z</time></trkpt><trkpt lat="44.66447849850277" lon="10.145148168960615"><ele>334.0</ele><time>2026-05-03T07:31:53Z</time></trkpt><trkpt lat="44.66441431588127" lon="10.144946273782324"><ele>334.0</ele><time>2026-05-03T07:31:54Z</time></trkpt><trkpt lat="44.66435316239436" lon="10.144765622621032"><ele>334.0</ele><time>2026-05-03T07:31:55Z</time></trkpt><trkpt lat="44.66430090120273" lon="10.144596475901922"><ele>334.0</ele><time>2026-05-03T07:31:56Z</time></trkpt><trkpt lat="44.66426661469736" lon="10.14440932922029"><ele>334.0</ele><time>2026-05-03T07:31:57Z</time></trkpt><trkpt lat="44.664258585035796" lon="10.144195278360165"><ele>334.0</ele><time>2026-05-03T07:31:58Z</time></trkpt><trkpt lat="44.66426923970283" lon="10.143995944835988"><ele>334.0</ele><time>2026-05-03T07:31:59Z</time></trkpt><trkpt lat="44.66430158447138" lon="10.143830128615164"><ele>334.0</ele><time>2026-05-03T07:32:00Z</time></trkpt><trkpt lat="44.664356259490674" lon="10.143700373358142"><ele>331.5</ele><time>2026-05-03T07:32:01Z</time></trkpt><trkpt lat="44.664448996777715" lon="10.143598498876203"><ele>329.0</ele><time>2026-05-03T07:32:02Z</time></trkpt><trkpt lat="44.664562436024546" lon="10.143478319020257"><ele>326.5</ele><time>2026-05-03T07:32:03Z</time></trkpt><trkpt lat="44.66467992752323" lon="10.143336860054962"><ele>324.0</ele><time>2026-05-03T07:32:04Z</time></trkpt><trkpt lat="44.66479652065273" lon="10.143195998262938"><ele>324.0</ele><time>2026-05-03T07:32:05Z</time></trkpt><trkpt lat="44.664889035089054" lon="10.143038275676282"><ele>324.0</ele><time>2026-05-03T07:32:06Z</time></trkpt><trkpt lat="44.66496049965088" lon="10.142858893180959"><ele>324.0</ele><time>2026-05-03T07:32:07Z</time></trkpt><trkpt lat="44.66501155939703" lon="10.142680236412666"><ele>324.0</ele><time>2026-05-03T07:32:08Z</time></trkpt><trkpt lat="44.665047296742415" lon="10.14252433909322"><ele>324.0</ele><time>2026-05-03T07:32:09Z</time></trkpt><trkpt lat="44.66503164406531" lon="10.142418815047392"><ele>324.0</ele><time>2026-05-03T07:32:10Z</time></trkpt><trkpt lat="44.66501320662664" lon="10.142313168891443"><ele>324.0</ele><time>2026-05-03T07:32:11Z</time></trkpt><trkpt lat="44.664914824795964" lon="10.142183766809337"><ele>324.0</ele><time>2026-05-03T07:32:12Z</time></trkpt><trkpt lat="44.664794991499065" lon="10.1420484566434"><ele>324.0</ele><time>2026-05-03T07:32:13Z</time></trkpt><trkpt lat="44.664676704914775" lon="10.14191245968623"><ele>325.6666666666667</ele><time>2026-05-03T07:32:14Z</time></trkpt><trkpt lat="44.66457788978508" lon="10.141772336260942"><ele>327.33333333333337</ele><time>2026-05-03T07:32:15Z</time></trkpt><trkpt lat="44.66450628340631" lon="10.141593673720935"><ele>329.0</ele><time>2026-05-03T07:32:16Z</time></trkpt><trkpt lat="44.66443070161047" lon="10.141352865430267"><ele>327.6666666666667</ele><time>2026-05-03T07:32:17Z</time></trkpt><trkpt lat="44.66436253748448" lon="10.141128304718814"><ele>326.3333333333333</ele><time>2026-05-03T07:32:18Z</time></trkpt><trkpt lat="44.664305177568444" lon="10.140905846715588"><ele>325.0</ele><time>2026-05-03T07:32:19Z</time></trkpt><trkpt lat="44.66425751959603" lon="10.140687974763646"><ele>325.0</ele><time>2026-05-03T07:32:20Z</time></trkpt><trkpt lat="44.66420233449866" lon="10.140478516480366"><ele>325.0</ele><time>2026-05-03T07:32:21Z</time></trkpt><trkpt lat="44.66412209637609" lon="10.140287953743059"><ele>325.0</ele><time>2026-05-03T07:32:22Z</time></trkpt><trkpt lat="44.66402005883421" lon="10.140129573636187"><ele>325.0</ele><time>2026-05-03T07:32:23Z</time></trkpt><trkpt lat="44.66389584342878" lon="10.140002202883519"><ele>325.0</ele><time>2026-05-03T07:32:24Z</time></trkpt><trkpt lat="44.66377316803382" lon="10.13989195705915"><ele>325.0</ele><time>2026-05-03T07:32:25Z</time></trkpt><trkpt lat="44.66368893926949" lon="10.139802338998084"><ele>325.0</ele><time>2026-05-03T07:32:26Z</time></trkpt><trkpt lat="44.66362892108162" lon="10.139717933321714"><ele>325.4</ele><time>2026-05-03T07:32:27Z</time></trkpt><trkpt lat="44.66359021444573" lon="10.139615757986517"><ele>325.8</ele><time>2026-05-03T07:32:28Z</time></trkpt><trkpt lat="44.66359283767348" lon="10.139487452365099"><ele>326.20000000000005</ele><time>2026-05-03T07:32:29Z</time></trkpt><trkpt lat="44.66369337785501" lon="10.139364765087159"><ele>326.6</ele><time>2026-05-03T07:32:30Z</time></trkpt><trkpt lat="44.66374965839978" lon="10.139184898321334"><ele>327.0</ele><time>2026-05-03T07:32:31Z</time></trkpt><trkpt lat="44.66376060922292" lon="10.138986687864481"><ele>324.6666666666667</ele><time>2026-05-03T07:32:32Z</time></trkpt><trkpt lat="44.663719433078676" lon="10.138750166101584"><ele>322.33333333333337</ele><time>2026-05-03T07:32:33Z</time></trkpt><trkpt lat="44.66367740859293" lon="10.138511902579369"><ele>320.0</ele><time>2026-05-03T07:32:34Z</time></trkpt><trkpt lat="44.66368971880367" lon="10.138338803094245"><ele>320.0</ele><time>2026-05-03T07:32:35Z</time></trkpt><trkpt lat="44.66372773749134" lon="10.138224470982573"><ele>320.0</ele><time>2026-05-03T07:32:36Z</time></trkpt><trkpt lat="44.663829368813886" lon="10.138089974478877"><ele>320.0</ele><time>2026-05-03T07:32:37Z</time></trkpt><trkpt lat="44.66394866820246" lon="10.137900163180582"><ele>320.0</ele><time>2026-05-03T07:32:38Z</time></trkpt><trkpt lat="44.66406145187601" lon="10.137715895285002"><ele>317.25</ele><time>2026-05-03T07:32:39Z</time></trkpt><trkpt lat="44.6641427951788" lon="10.137543863303057"><ele>314.5</ele><time>2026-05-03T07:32:40Z</time></trkpt><trkpt lat="44.664187270004405" lon="10.13735191170023"><ele>311.75</ele><time>2026-05-03T07:32:40.999Z</time></trkpt><trkpt lat="44.66419234815161" lon="10.137144631435117"><ele>309.0</ele><time>2026-05-03T07:32:41.999Z</time></trkpt><trkpt lat="44.66416023052162" lon="10.136916443602084"><ele>307.6666666666667</ele><time>2026-05-03T07:32:42.999Z</time></trkpt><trkpt lat="44.66407888738259" lon="10.13670319174819"><ele>306.33333333333337</ele><time>2026-05-03T07:32:43.999Z</time></trkpt><trkpt lat="44.664016006979516" lon="10.13648064452465"><ele>305.0</ele><time>2026-05-03T07:32:44.999Z</time></trkpt><trkpt lat="44.663955827594805" lon="10.136284355747156"><ele>304.5</ele><time>2026-05-03T07:32:45.999Z</time></trkpt><trkpt lat="44.66391012794289" lon="10.136107076048225"><ele>304.0</ele><time>2026-05-03T07:32:46.999Z</time></trkpt><trkpt lat="44.663904087625234" lon="10.13593010914557"><ele>303.5</ele><time>2026-05-03T07:32:47.999Z</time></trkpt><trkpt lat="44.6639374975125" lon="10.135728192929305"><ele>303.0</ele><time>2026-05-03T07:32:48.999Z</time></trkpt><trkpt lat="44.66398120574942" lon="10.135516677139766"><ele>303.0</ele><time>2026-05-03T07:32:49.999Z</time></trkpt><trkpt lat="44.664015165228165" lon="10.13532987136883"><ele>303.0</ele><time>2026-05-03T07:32:50.999Z</time></trkpt><trkpt lat="44.663983751889994" lon="10.13514965119482"><ele>303.0</ele><time>2026-05-03T07:32:51.999Z</time></trkpt><trkpt lat="44.66388689699906" lon="10.134986206512714"><ele>303.0</ele><time>2026-05-03T07:32:52.999Z</time></trkpt><trkpt lat="44.663747576983106" lon="10.134860400891084"><ele>304.0</ele><time>2026-05-03T07:32:53.999Z</time></trkpt><trkpt lat="44.66362575332651" lon="10.13471044552353"><ele>305.0</ele><time>2026-05-03T07:32:54.999Z</time></trkpt><trkpt lat="44.6635367628173" lon="10.13456041834782"><ele>306.0</ele><time>2026-05-03T07:32:55.999Z</time></trkpt><trkpt lat="44.663493194821186" lon="10.134397369586413"><ele>307.0</ele><time>2026-05-03T07:32:56.999Z</time></trkpt><trkpt lat="44.66344841667273" lon="10.13429229833534"><ele>302.25</ele><time>2026-05-03T07:32:57.999Z</time></trkpt><trkpt lat="44.66333768566194" lon="10.134269464247433"><ele>297.5</ele><time>2026-05-03T07:32:59.999Z</time></trkpt><trkpt lat="44.663294405855346" lon="10.134401857140247"><ele>292.75</ele><time>2026-05-03T07:33:00.999Z</time></trkpt><trkpt lat="44.66327905403604" lon="10.13456044255079"><ele>288.0</ele><time>2026-05-03T07:33:01.999Z</time></trkpt><trkpt lat="44.66337212609295" lon="10.134718863369953"><ele>288.0</ele><time>2026-05-03T07:33:02.999Z</time></trkpt><trkpt lat="44.66346561605117" lon="10.134836791891159"><ele>288.0</ele><time>2026-05-03T07:33:03.999Z</time></trkpt><trkpt lat="44.66353478458008" lon="10.134965295079036"><ele>288.0</ele><time>2026-05-03T07:33:04.999Z</time></trkpt><trkpt lat="44.663607073143254" lon="10.135084565553226"><ele>288.0</ele><time>2026-05-03T07:33:05.999Z</time></trkpt><trkpt lat="44.66363109285786" lon="10.135236879238704"><ele>286.75</ele><time>2026-05-03T07:33:06.999Z</time></trkpt><trkpt lat="44.66362063298141" lon="10.135374635514635"><ele>285.5</ele><time>2026-05-03T07:33:07.999Z</time></trkpt><trkpt lat="44.66357922352785" lon="10.135497258590332"><ele>284.25</ele><time>2026-05-03T07:33:08.999Z</time></trkpt><trkpt lat="44.66347955858655" lon="10.135580707359304"><ele>283.0</ele><time>2026-05-03T07:33:09.999Z</time></trkpt><trkpt lat="44.66337806160674" lon="10.135713260326291"><ele>282.5</ele><time>2026-05-03T07:33:10.999Z</time></trkpt><trkpt lat="44.66327468392851" lon="10.135826365539257"><ele>282.0</ele><time>2026-05-03T07:33:11.999Z</time></trkpt><trkpt lat="44.66319150064481" lon="10.135995624106387"><ele>281.5</ele><time>2026-05-03T07:33:12.999Z</time></trkpt><trkpt lat="44.663149412110386" lon="10.136176691467966"><ele>281.0</ele><time>2026-05-03T07:33:13.999Z</time></trkpt><trkpt lat="44.6631568327603" lon="10.136350583787376"><ele>281.0</ele><time>2026-05-03T07:33:14.999Z</time></trkpt><trkpt lat="44.66323269609033" lon="10.13652164234803"><ele>281.0</ele><time>2026-05-03T07:33:15.999Z</time></trkpt><trkpt lat="44.66331513082323" lon="10.136654411606637"><ele>281.0</ele><time>2026-05-03T07:33:16.999Z</time></trkpt><trkpt lat="44.66330587284811" lon="10.136845695787585"><ele>281.0</ele><time>2026-05-03T07:33:18.999Z</time></trkpt><trkpt lat="44.663249731162196" lon="10.137019108239741"><ele>281.5</ele><time>2026-05-03T07:33:19.999Z</time></trkpt><trkpt lat="44.6631413689443" lon="10.137111327587997"><ele>282.0</ele><time>2026-05-03T07:33:20.999Z</time></trkpt><trkpt lat="44.66301013781188" lon="10.1372165468964"><ele>282.5</ele><time>2026-05-03T07:33:21.999Z</time></trkpt><trkpt lat="44.66289311629894" lon="10.137380818917102"><ele>283.0</ele><time>2026-05-03T07:33:22.999Z</time></trkpt><trkpt lat="44.662797724046975" lon="10.137526840968597"><ele>277.66666666666663</ele><time>2026-05-03T07:33:23.999Z</time></trkpt><trkpt lat="44.662661295437424" lon="10.13761012691153"><ele>272.3333333333333</ele><time>2026-05-03T07:33:24.999Z</time></trkpt><trkpt lat="44.66250362163005" lon="10.137653481468053"><ele>267.0</ele><time>2026-05-03T07:33:25.999Z</time></trkpt><trkpt lat="44.66236825405066" lon="10.137724832329763"><ele>267.0</ele><time>2026-05-03T07:33:26.999Z</time></trkpt><trkpt lat="44.662260867838455" lon="10.137878592173408"><ele>267.0</ele><time>2026-05-03T07:33:27.999Z</time></trkpt><trkpt lat="44.66214413008988" lon="10.138056163187871"><ele>267.0</ele><time>2026-05-03T07:33:28.999Z</time></trkpt><trkpt lat="44.66202829863814" lon="10.138191884793034"><ele>264.0</ele><time>2026-05-03T07:33:29.999Z</time></trkpt><trkpt lat="44.66193508145161" lon="10.138321077743509"><ele>261.0</ele><time>2026-05-03T07:33:30.999Z</time></trkpt><trkpt lat="44.6618978758505" lon="10.138489674236514"><ele>258.0</ele><time>2026-05-03T07:33:31.999Z</time></trkpt><trkpt lat="44.66189295416199" lon="10.138704160388906"><ele>255.0</ele><time>2026-05-03T07:33:32.999Z</time></trkpt><trkpt lat="44.661866514867576" lon="10.138888486021878"><ele>255.0</ele><time>2026-05-03T07:33:33.999Z</time></trkpt><trkpt lat="44.66180804575075" lon="10.139010496597434"><ele>255.0</ele><time>2026-05-03T07:33:34.999Z</time></trkpt><trkpt lat="44.66173990510382" lon="10.139022759433825"><ele>255.0</ele><time>2026-05-03T07:33:35.999Z</time></trkpt><trkpt lat="44.6616750481165" lon="10.13896020834157"><ele>255.0</ele><time>2026-05-03T07:33:36.999Z</time></trkpt><trkpt lat="44.6616539370009" lon="10.138825697535191"><ele>255.0</ele><time>2026-05-03T07:33:38Z</time></trkpt><trkpt lat="44.66170333154854" lon="10.138662761316171"><ele>255.0</ele><time>2026-05-03T07:33:39Z</time></trkpt><trkpt lat="44.661770295354565" lon="10.138453261090667"><ele>255.0</ele><time>2026-05-03T07:33:40Z</time></trkpt><trkpt lat="44.66177658970073" lon="10.138227740227347"><ele>255.0</ele><time>2026-05-03T07:33:41Z</time></trkpt><trkpt lat="44.661774708596326" lon="10.138016148775032"><ele>256.0</ele><time>2026-05-03T07:33:42Z</time></trkpt><trkpt lat="44.66183592784065" lon="10.137816192092208"><ele>257.0</ele><time>2026-05-03T07:33:43Z</time></trkpt><trkpt lat="44.66190890263001" lon="10.137578510683486"><ele>258.0</ele><time>2026-05-03T07:33:44Z</time></trkpt><trkpt lat="44.6619975193748" lon="10.137347611455889"><ele>258.0</ele><time>2026-05-03T07:33:45Z</time></trkpt><trkpt lat="44.66204467113171" lon="10.137105034350006"><ele>258.0</ele><time>2026-05-03T07:33:46Z</time></trkpt><trkpt lat="44.66205759799431" lon="10.136865687193412"><ele>258.0</ele><time>2026-05-03T07:33:47Z</time></trkpt><trkpt lat="44.6620434376166" lon="10.136649256879064"><ele>257.3333333333333</ele><time>2026-05-03T07:33:48Z</time></trkpt><trkpt lat="44.66198607024104" lon="10.136442003258084"><ele>256.66666666666663</ele><time>2026-05-03T07:33:49Z</time></trkpt><trkpt lat="44.6618773893538" lon="10.136268937332591"><ele>256.0</ele><time>2026-05-03T07:33:50Z</time></trkpt><trkpt lat="44.661735334087126" lon="10.136161117795961"><ele>252.25</ele><time>2026-05-03T07:33:51Z</time></trkpt><trkpt lat="44.66165214606085" lon="10.136093265077532"><ele>248.5</ele><time>2026-05-03T07:33:52Z</time></trkpt><trkpt lat="44.66163539300382" lon="10.135965692606856"><ele>244.75</ele><time>2026-05-03T07:33:53Z</time></trkpt><trkpt lat="44.661671148754486" lon="10.135826610202418"><ele>241.0</ele><time>2026-05-03T07:33:54Z</time></trkpt><trkpt lat="44.66174775835047" lon="10.135605643806262"><ele>239.33333333333331</ele><time>2026-05-03T07:33:55Z</time></trkpt><trkpt lat="44.661766295625696" lon="10.13541729430365"><ele>237.66666666666669</ele><time>2026-05-03T07:33:56Z</time></trkpt><trkpt lat="44.66180520893578" lon="10.135191203850233"><ele>236.0</ele><time>2026-05-03T07:33:57Z</time></trkpt><trkpt lat="44.661799161176646" lon="10.134981718554684"><ele>234.66666666666669</ele><time>2026-05-03T07:33:58Z</time></trkpt><trkpt lat="44.66178371079389" lon="10.1347183313854"><ele>233.33333333333331</ele><time>2026-05-03T07:33:59Z</time></trkpt><trkpt lat="44.66180631825866" lon="10.134465035847464"><ele>232.0</ele><time>2026-05-03T07:34:00Z</time></trkpt><trkpt lat="44.66181370930472" lon="10.134196402191252"><ele>231.0</ele><time>2026-05-03T07:34:01Z</time></trkpt><trkpt lat="44.661824651810754" lon="10.133932933274822"><ele>230.0</ele><time>2026-05-03T07:34:02Z</time></trkpt><trkpt lat="44.661794524778905" lon="10.133661435848506"><ele>229.0</ele><time>2026-05-03T07:34:03Z</time></trkpt><trkpt lat="44.66175435707488" lon="10.133383100808462"><ele>228.66666666666666</ele><time>2026-05-03T07:34:04Z</time></trkpt><trkpt lat="44.66171297739067" lon="10.133113080350777"><ele>228.33333333333331</ele><time>2026-05-03T07:34:05Z</time></trkpt><trkpt lat="44.661679264329685" lon="10.132873693853394"><ele>228.0</ele><time>2026-05-03T07:34:06Z</time></trkpt><trkpt lat="44.661682580836086" lon="10.132668728706177"><ele>228.0</ele><time>2026-05-03T07:34:07Z</time></trkpt><trkpt lat="44.66169902665258" lon="10.132457656881137"><ele>228.0</ele><time>2026-05-03T07:34:08Z</time></trkpt><trkpt lat="44.66173709577728" lon="10.132210731825575"><ele>228.0</ele><time>2026-05-03T07:34:09Z</time></trkpt><trkpt lat="44.66178368628318" lon="10.131954540423918"><ele>226.0</ele><time>2026-05-03T07:34:10Z</time></trkpt><trkpt lat="44.66182028782288" lon="10.131690814753258"><ele>224.0</ele><time>2026-05-03T07:34:11Z</time></trkpt><trkpt lat="44.661896637679014" lon="10.131457593422459"><ele>222.0</ele><time>2026-05-03T07:34:12Z</time></trkpt><trkpt lat="44.661963086132886" lon="10.131239112371208"><ele>222.0</ele><time>2026-05-03T07:34:13Z</time></trkpt><trkpt lat="44.662002503357556" lon="10.13103171231392"><ele>222.0</ele><time>2026-05-03T07:34:14Z</time></trkpt><trkpt lat="44.66202803713689" lon="10.130835889843874"><ele>222.0</ele><time>2026-05-03T07:34:15Z</time></trkpt><trkpt lat="44.66201150360821" lon="10.130638580258715"><ele>222.0</ele><time>2026-05-03T07:34:16Z</time></trkpt><trkpt lat="44.66194363839052" lon="10.130433373760962"><ele>221.66666666666669</ele><time>2026-05-03T07:34:17Z</time></trkpt><trkpt lat="44.661845015434295" lon="10.130216831850433"><ele>221.33333333333334</ele><time>2026-05-03T07:34:18Z</time></trkpt><trkpt lat="44.661758841000946" lon="10.130019974632024"><ele>221.0</ele><time>2026-05-03T07:34:19Z</time></trkpt><trkpt lat="44.66168582517935" lon="10.129846376592223"><ele>222.33333333333334</ele><time>2026-05-03T07:34:20Z</time></trkpt><trkpt lat="44.661633950048454" lon="10.129656590995353"><ele>223.66666666666669</ele><time>2026-05-03T07:34:21Z</time></trkpt><trkpt lat="44.66166651096011" lon="10.129452488814664"><ele>225.0</ele><time>2026-05-03T07:34:22Z</time></trkpt><trkpt lat="44.661697249383465" lon="10.129216443872044"><ele>226.33333333333331</ele><time>2026-05-03T07:34:23Z</time></trkpt><trkpt lat="44.66175817235305" lon="10.129005379069056"><ele>227.66666666666666</ele><time>2026-05-03T07:34:24Z</time></trkpt><trkpt lat="44.66186858074125" lon="10.128855533755605"><ele>229.0</ele><time>2026-05-03T07:34:25Z</time></trkpt><trkpt lat="44.661986166082734" lon="10.128706035828653"><ele>226.75</ele><time>2026-05-03T07:34:26Z</time></trkpt><trkpt lat="44.66208433444412" lon="10.128546483964216"><ele>224.5</ele><time>2026-05-03T07:34:27Z</time></trkpt><trkpt lat="44.66218748212883" lon="10.12839540689048"><ele>222.25</ele><time>2026-05-03T07:34:28Z</time></trkpt><trkpt lat="44.66224761969527" lon="10.128213832967608"><ele>220.0</ele><time>2026-05-03T07:34:29Z</time></trkpt><trkpt lat="44.66227788510514" lon="10.128009781037933"><ele>220.0</ele><time>2026-05-03T07:34:30Z</time></trkpt><trkpt lat="44.662306484801015" lon="10.127811400235274"><ele>220.0</ele><time>2026-05-03T07:34:31Z</time></trkpt><trkpt lat="44.66231488711848" lon="10.12759344671476"><ele>220.0</ele><time>2026-05-03T07:34:32Z</time></trkpt><trkpt lat="44.662286706418016" lon="10.127373219625836"><ele>219.0</ele><time>2026-05-03T07:34:33Z</time></trkpt><trkpt lat="44.66226450114461" lon="10.127183131115721"><ele>218.0</ele><time>2026-05-03T07:34:34Z</time></trkpt><trkpt lat="44.6623195058179" lon="10.127025096338686"><ele>217.0</ele><time>2026-05-03T07:34:35Z</time></trkpt><trkpt lat="44.66241435902924" lon="10.126912730945424"><ele>216.0</ele><time>2026-05-03T07:34:36Z</time></trkpt><trkpt lat="44.662542999941245" lon="10.126734461252205"><ele>215.66666666666669</ele><time>2026-05-03T07:34:37Z</time></trkpt><trkpt lat="44.662675256002586" lon="10.126524645207402"><ele>215.33333333333334</ele><time>2026-05-03T07:34:38Z</time></trkpt><trkpt lat="44.662818725941634" lon="10.126327001372093"><ele>215.0</ele><time>2026-05-03T07:34:39Z</time></trkpt><trkpt lat="44.66295536062495" lon="10.12613275144212"><ele>215.0</ele><time>2026-05-03T07:34:40Z</time></trkpt><trkpt lat="44.663089108279436" lon="10.125950472322003"><ele>215.0</ele><time>2026-05-03T07:34:41Z</time></trkpt><trkpt lat="44.663218495377386" lon="10.12577057272727"><ele>215.0</ele><time>2026-05-03T07:34:42Z</time></trkpt><trkpt lat="44.66333620418752" lon="10.125602421467583"><ele>213.0</ele><time>2026-05-03T07:34:43Z</time></trkpt><trkpt lat="44.663426125385065" lon="10.125439794743041"><ele>211.0</ele><time>2026-05-03T07:34:44Z</time></trkpt><trkpt lat="44.66347744721792" lon="10.125258514450971"><ele>209.0</ele><time>2026-05-03T07:34:44.999Z</time></trkpt><trkpt lat="44.66348064958027" lon="10.125073929679022"><ele>207.0</ele><time>2026-05-03T07:34:45.999Z</time></trkpt><trkpt lat="44.66346088783069" lon="10.124937566478748"><ele>206.75</ele><time>2026-05-03T07:34:46.999Z</time></trkpt><trkpt lat="44.663438745648925" lon="10.12483264451757"><ele>206.5</ele><time>2026-05-03T07:34:47.999Z</time></trkpt><trkpt lat="44.66349902705646" lon="10.12461855387299"><ele>206.25</ele><time>2026-05-03T07:34:49.999Z</time></trkpt><trkpt lat="44.66355399163206" lon="10.12447622755174"><ele>206.0</ele><time>2026-05-03T07:34:50.999Z</time></trkpt><trkpt lat="44.66366076137121" lon="10.124316556345605"><ele>206.0</ele><time>2026-05-03T07:34:51.999Z</time></trkpt><trkpt lat="44.66375444347266" lon="10.124113287619167"><ele>206.0</ele><time>2026-05-03T07:34:52.999Z</time></trkpt><trkpt lat="44.6639070757397" lon="10.123921681466589"><ele>206.0</ele><time>2026-05-03T07:34:53.999Z</time></trkpt><trkpt lat="44.664057525777615" lon="10.123738914671147"><ele>203.0</ele><time>2026-05-03T07:34:54.999Z</time></trkpt><trkpt lat="44.66423195878951" lon="10.123517973303036"><ele>200.0</ele><time>2026-05-03T07:34:55.999Z</time></trkpt><trkpt lat="44.664428351764016" lon="10.12331841302179"><ele>199.5</ele><time>2026-05-03T07:34:56.999Z</time></trkpt><trkpt lat="44.66462559604633" lon="10.123091777030591"><ele>199.0</ele><time>2026-05-03T07:34:57.999Z</time></trkpt><trkpt lat="44.6648463996525" lon="10.122869302838453"><ele>199.0</ele><time>2026-05-03T07:34:58.999Z</time></trkpt><trkpt lat="44.66506957890565" lon="10.122626402880307"><ele>199.0</ele><time>2026-05-03T07:34:59.999Z</time></trkpt><trkpt lat="44.66528725183609" lon="10.122396794227141"><ele>199.5</ele><time>2026-05-03T07:35:00.999Z</time></trkpt><trkpt lat="44.66551451905944" lon="10.122173323369141"><ele>200.0</ele><time>2026-05-03T07:35:01.999Z</time></trkpt><trkpt lat="44.665728050428996" lon="10.121939003308636"><ele>200.0</ele><time>2026-05-03T07:35:02.999Z</time></trkpt><trkpt lat="44.66592078608596" lon="10.121720589291948"><ele>200.0</ele><time>2026-05-03T07:35:03.999Z</time></trkpt><trkpt lat="44.66610447337721" lon="10.12151998661906"><ele>199.5</ele><time>2026-05-03T07:35:04.999Z</time></trkpt><trkpt lat="44.66628979820268" lon="10.121331486467835"><ele>199.0</ele><time>2026-05-03T07:35:05.999Z</time></trkpt><trkpt lat="44.66648089529694" lon="10.121161227963844"><ele>199.0</ele><time>2026-05-03T07:35:06.999Z</time></trkpt><trkpt lat="44.66667756878544" lon="10.121011882262817"><ele>199.0</ele><time>2026-05-03T07:35:07.999Z</time></trkpt><trkpt lat="44.66684907820334" lon="10.12086958279616"><ele>199.0</ele><time>2026-05-03T07:35:08.999Z</time></trkpt><trkpt lat="44.66707953615797" lon="10.12075082096848"><ele>197.5</ele><time>2026-05-03T07:35:09.999Z</time></trkpt><trkpt lat="44.66730030265289" lon="10.120598862528437"><ele>196.0</ele><time>2026-05-03T07:35:10.999Z</time></trkpt><trkpt lat="44.667532491190926" lon="10.120473314533339"><ele>196.0</ele><time>2026-05-03T07:35:11.999Z</time></trkpt><trkpt lat="44.667765571945765" lon="10.120343692895382"><ele>196.0</ele><time>2026-05-03T07:35:12.999Z</time></trkpt><trkpt lat="44.667985597390576" lon="10.120204494725952"><ele>192.0</ele><time>2026-05-03T07:35:13.999Z</time></trkpt><trkpt lat="44.668197637468275" lon="10.120077044315835"><ele>188.0</ele><time>2026-05-03T07:35:14.999Z</time></trkpt><trkpt lat="44.668411640504274" lon="10.119963585479473"><ele>188.0</ele><time>2026-05-03T07:35:15.999Z</time></trkpt><trkpt lat="44.668646300948204" lon="10.119902373676851"><ele>188.0</ele><time>2026-05-03T07:35:16.999Z</time></trkpt><trkpt lat="44.66887354753282" lon="10.119851700341224"><ele>188.5</ele><time>2026-05-03T07:35:17.999Z</time></trkpt><trkpt lat="44.6691078527851" lon="10.119792663331822"><ele>189.0</ele><time>2026-05-03T07:35:18.999Z</time></trkpt><trkpt lat="44.669334452349375" lon="10.11968782148428"><ele>191.33333333333331</ele><time>2026-05-03T07:35:19.999Z</time></trkpt><trkpt lat="44.669546567985535" lon="10.119569039663627"><ele>193.66666666666666</ele><time>2026-05-03T07:35:20.999Z</time></trkpt><trkpt lat="44.669739034905916" lon="10.119454515843676"><ele>196.0</ele><time>2026-05-03T07:35:21.999Z</time></trkpt><trkpt lat="44.669913602698" lon="10.11935375909168"><ele>196.0</ele><time>2026-05-03T07:35:22.999Z</time></trkpt><trkpt lat="44.6700990435853" lon="10.11925302431599"><ele>196.0</ele><time>2026-05-03T07:35:23.999Z</time></trkpt><trkpt lat="44.67028781456652" lon="10.119144995085716"><ele>196.0</ele><time>2026-05-03T07:35:24.999Z</time></trkpt><trkpt lat="44.67049573480223" lon="10.119012329477595"><ele>196.0</ele><time>2026-05-03T07:35:25.999Z</time></trkpt><trkpt lat="44.67072906937231" lon="10.118905446418454"><ele>196.0</ele><time>2026-05-03T07:35:26.999Z</time></trkpt><trkpt lat="44.67098238952622" lon="10.118762470456776"><ele>196.5</ele><time>2026-05-03T07:35:27.999Z</time></trkpt><trkpt lat="44.67124636921942" lon="10.118595163091868"><ele>197.0</ele><time>2026-05-03T07:35:28.999Z</time></trkpt><trkpt lat="44.67150180232806" lon="10.11847482421382"><ele>197.0</ele><time>2026-05-03T07:35:29.999Z</time></trkpt><trkpt lat="44.67172430755171" lon="10.118360129292919"><ele>197.0</ele><time>2026-05-03T07:35:30.999Z</time></trkpt><trkpt lat="44.67191583806426" lon="10.11824397935172"><ele>197.0</ele><time>2026-05-03T07:35:31.999Z</time></trkpt><trkpt lat="44.672096379001594" lon="10.118107183261401"><ele>197.0</ele><time>2026-05-03T07:35:32.999Z</time></trkpt><trkpt lat="44.67225758847591" lon="10.117894946218831"><ele>197.0</ele><time>2026-05-03T07:35:33.999Z</time></trkpt><trkpt lat="44.672381624659735" lon="10.117628991520126"><ele>197.0</ele><time>2026-05-03T07:35:34.999Z</time></trkpt><trkpt lat="44.67247569436056" lon="10.11730147561648"><ele>195.5</ele><time>2026-05-03T07:35:35.999Z</time></trkpt><trkpt lat="44.67258762677944" lon="10.1169936058783"><ele>194.0</ele><time>2026-05-03T07:35:36.999Z</time></trkpt><trkpt lat="44.67268002466576" lon="10.116683407674415"><ele>194.33333333333334</ele><time>2026-05-03T07:35:37.999Z</time></trkpt><trkpt lat="44.67278621530456" lon="10.116419385557778"><ele>194.66666666666669</ele><time>2026-05-03T07:35:38.999Z</time></trkpt><trkpt lat="44.67288215475922" lon="10.116179689402966"><ele>195.0</ele><time>2026-05-03T07:35:39.999Z</time></trkpt><trkpt lat="44.67296226750106" lon="10.115950661302275"><ele>194.33333333333331</ele><time>2026-05-03T07:35:40.999Z</time></trkpt><trkpt lat="44.67300497826297" lon="10.11571909953772"><ele>193.66666666666666</ele><time>2026-05-03T07:35:41.999Z</time></trkpt><trkpt lat="44.672976283368925" lon="10.115458384062503"><ele>193.0</ele><time>2026-05-03T07:35:42.999Z</time></trkpt><trkpt lat="44.67289577782845" lon="10.115120635216927"><ele>192.0</ele><time>2026-05-03T07:35:44Z</time></trkpt><trkpt lat="44.67279617522149" lon="10.114859106927215"><ele>191.0</ele><time>2026-05-03T07:35:45Z</time></trkpt><trkpt lat="44.67274287398574" lon="10.11461023168553"><ele>190.0</ele><time>2026-05-03T07:35:46Z</time></trkpt><trkpt lat="44.67275980284949" lon="10.114358511579537"><ele>190.0</ele><time>2026-05-03T07:35:47Z</time></trkpt><trkpt lat="44.672827843004214" lon="10.11409626648031"><ele>190.0</ele><time>2026-05-03T07:35:48Z</time></trkpt><trkpt lat="44.672904568628525" lon="10.113847082374257"><ele>190.0</ele><time>2026-05-03T07:35:49Z</time></trkpt><trkpt lat="44.672941424523664" lon="10.113620528364423"><ele>189.33333333333334</ele><time>2026-05-03T07:35:50Z</time></trkpt><trkpt lat="44.67294252364959" lon="10.113355219013021"><ele>188.66666666666666</ele><time>2026-05-03T07:35:51Z</time></trkpt><trkpt lat="44.6728536092943" lon="10.113065485333063"><ele>188.0</ele><time>2026-05-03T07:35:52Z</time></trkpt><trkpt lat="44.672742756395756" lon="10.112765137054044"><ele>188.0</ele><time>2026-05-03T07:35:53Z</time></trkpt><trkpt lat="44.67269090265251" lon="10.112492974242972"><ele>188.0</ele><time>2026-05-03T07:35:54Z</time></trkpt><trkpt lat="44.672705922042084" lon="10.112206371892759"><ele>188.0</ele><time>2026-05-03T07:35:55Z</time></trkpt><trkpt lat="44.67277836402322" lon="10.111892720355149"><ele>188.5</ele><time>2026-05-03T07:35:56Z</time></trkpt><trkpt lat="44.67290810658529" lon="10.111593880923602"><ele>189.0</ele><time>2026-05-03T07:35:57Z</time></trkpt><trkpt lat="44.673055913707984" lon="10.111350725900671"><ele>189.0</ele><time>2026-05-03T07:35:58Z</time></trkpt><trkpt lat="44.67315604071195" lon="10.11113414615523"><ele>189.0</ele><time>2026-05-03T07:35:59Z</time></trkpt><trkpt lat="44.67323945681633" lon="10.110898381853504"><ele>189.0</ele><time>2026-05-03T07:36:00Z</time></trkpt><trkpt lat="44.67324452283688" lon="10.110663558220583"><ele>189.5</ele><time>2026-05-03T07:36:01Z</time></trkpt><trkpt lat="44.67318048955883" lon="10.110367343016241"><ele>190.0</ele><time>2026-05-03T07:36:02Z</time></trkpt><trkpt lat="44.67309244045022" lon="10.11003199054058"><ele>191.33333333333334</ele><time>2026-05-03T07:36:03Z</time></trkpt><trkpt lat="44.673025794048996" lon="10.109730570195515"><ele>192.66666666666669</ele><time>2026-05-03T07:36:04Z</time></trkpt><trkpt lat="44.672948674342635" lon="10.109471777458072"><ele>194.0</ele><time>2026-05-03T07:36:05Z</time></trkpt><trkpt lat="44.672817457408684" lon="10.109256532318929"><ele>190.33333333333334</ele><time>2026-05-03T07:36:06Z</time></trkpt><trkpt lat="44.67267432149285" lon="10.109060295794283"><ele>186.66666666666669</ele><time>2026-05-03T07:36:07Z</time></trkpt><trkpt lat="44.6725816584871" lon="10.10883566880535"><ele>183.0</ele><time>2026-05-03T07:36:08Z</time></trkpt><trkpt lat="44.67254914815183" lon="10.108561119944365"><ele>183.0</ele><time>2026-05-03T07:36:09Z</time></trkpt><trkpt lat="44.67251925035791" lon="10.10825698404587"><ele>183.0</ele><time>2026-05-03T07:36:10Z</time></trkpt><trkpt lat="44.67248277630989" lon="10.107963355559486"><ele>183.0</ele><time>2026-05-03T07:36:11Z</time></trkpt><trkpt lat="44.67243667419397" lon="10.107681936173261"><ele>186.0</ele><time>2026-05-03T07:36:12Z</time></trkpt><trkpt lat="44.67239144332432" lon="10.107410393776394"><ele>189.0</ele><time>2026-05-03T07:36:13Z</time></trkpt><trkpt lat="44.67233946108286" lon="10.107130616141761"><ele>192.0</ele><time>2026-05-03T07:36:14Z</time></trkpt><trkpt lat="44.67228010184968" lon="10.106839642971229"><ele>192.66666666666669</ele><time>2026-05-03T07:36:15Z</time></trkpt><trkpt lat="44.67222783843737" lon="10.106554137811111"><ele>193.33333333333334</ele><time>2026-05-03T07:36:16Z</time></trkpt><trkpt lat="44.672206105055245" lon="10.106271495629425"><ele>194.0</ele><time>2026-05-03T07:36:17Z</time></trkpt><trkpt lat="44.67219267105626" lon="10.10599516012039"><ele>194.0</ele><time>2026-05-03T07:36:18Z</time></trkpt><trkpt lat="44.67213443557193" lon="10.105737137315971"><ele>194.0</ele><time>2026-05-03T07:36:19Z</time></trkpt><trkpt lat="44.67203377972518" lon="10.105465818311364"><ele>194.0</ele><time>2026-05-03T07:36:20Z</time></trkpt><trkpt lat="44.67193376162474" lon="10.105181220653142"><ele>189.0</ele><time>2026-05-03T07:36:21Z</time></trkpt><trkpt lat="44.67185025173338" lon="10.104913051551225"><ele>184.0</ele><time>2026-05-03T07:36:22Z</time></trkpt><trkpt lat="44.67175174395228" lon="10.10467901090261"><ele>179.0</ele><time>2026-05-03T07:36:23Z</time></trkpt><trkpt lat="44.67161701102863" lon="10.104481021247576"><ele>179.0</ele><time>2026-05-03T07:36:24Z</time></trkpt><trkpt lat="44.67147175139845" lon="10.104317827826966"><ele>179.0</ele><time>2026-05-03T07:36:25Z</time></trkpt><trkpt lat="44.671379854162616" lon="10.104157187877243"><ele>179.0</ele><time>2026-05-03T07:36:26Z</time></trkpt><trkpt lat="44.671325956023765" lon="10.104012901890698"><ele>179.0</ele><time>2026-05-03T07:36:27Z</time></trkpt><trkpt lat="44.67133174720983" lon="10.103840226051288"><ele>176.66666666666666</ele><time>2026-05-03T07:36:28Z</time></trkpt><trkpt lat="44.67138584782527" lon="10.103652617441833"><ele>174.33333333333334</ele><time>2026-05-03T07:36:29Z</time></trkpt><trkpt lat="44.67154403187036" lon="10.103550885510254"><ele>172.0</ele><time>2026-05-03T07:36:30Z</time></trkpt><trkpt lat="44.67172819786487" lon="10.103421355522503"><ele>172.0</ele><time>2026-05-03T07:36:31Z</time></trkpt><trkpt lat="44.67193125063312" lon="10.103280529900536"><ele>172.0</ele><time>2026-05-03T07:36:32Z</time></trkpt><trkpt lat="44.67212447095768" lon="10.10312611339482"><ele>172.0</ele><time>2026-05-03T07:36:33Z</time></trkpt><trkpt lat="44.672322416431534" lon="10.102943921687595"><ele>170.33333333333334</ele><time>2026-05-03T07:36:34Z</time></trkpt><trkpt lat="44.67250340223085" lon="10.102778645220129"><ele>168.66666666666666</ele><time>2026-05-03T07:36:35Z</time></trkpt><trkpt lat="44.67266758576006" lon="10.102619016954087"><ele>167.0</ele><time>2026-05-03T07:36:36Z</time></trkpt><trkpt lat="44.67280363706441" lon="10.102456193636463"><ele>168.5</ele><time>2026-05-03T07:36:37Z</time></trkpt><trkpt lat="44.67291344537972" lon="10.102211859235076"><ele>170.0</ele><time>2026-05-03T07:36:38Z</time></trkpt><trkpt lat="44.673000953676244" lon="10.10188522757072"><ele>167.5</ele><time>2026-05-03T07:36:39Z</time></trkpt><trkpt lat="44.673072319984755" lon="10.101554512817364"><ele>165.0</ele><time>2026-05-03T07:36:40Z</time></trkpt><trkpt lat="44.673171953823484" lon="10.101296605644535"><ele>165.0</ele><time>2026-05-03T07:36:41Z</time></trkpt><trkpt lat="44.67328104759596" lon="10.10110917409665"><ele>165.0</ele><time>2026-05-03T07:36:42Z</time></trkpt><trkpt lat="44.67344980438859" lon="10.100982893733613"><ele>165.0</ele><time>2026-05-03T07:36:43Z</time></trkpt><trkpt lat="44.67365647713908" lon="10.100826187122006"><ele>163.0</ele><time>2026-05-03T07:36:44Z</time></trkpt><trkpt lat="44.67386964334074" lon="10.100685250469494"><ele>161.0</ele><time>2026-05-03T07:36:45Z</time></trkpt><trkpt lat="44.674057737211115" lon="10.100562123803206"><ele>159.0</ele><time>2026-05-03T07:36:46Z</time></trkpt><trkpt lat="44.67425810361105" lon="10.100529191105686"><ele>159.33333333333334</ele><time>2026-05-03T07:36:47Z</time></trkpt><trkpt lat="44.67447850519095" lon="10.100548000408631"><ele>159.66666666666669</ele><time>2026-05-03T07:36:48Z</time></trkpt><trkpt lat="44.674682965626445" lon="10.10058311436538"><ele>160.0</ele><time>2026-05-03T07:36:49Z</time></trkpt><trkpt lat="44.6748742111844" lon="10.100547536458958"><ele>160.0</ele><time>2026-05-03T07:36:50Z</time></trkpt><trkpt lat="44.675057184247486" lon="10.100436724790667"><ele>160.0</ele><time>2026-05-03T07:36:51Z</time></trkpt><trkpt lat="44.675196529301765" lon="10.100240092105292"><ele>160.0</ele><time>2026-05-03T07:36:52Z</time></trkpt><trkpt lat="44.67531785479971" lon="10.099984025614278"><ele>159.66666666666669</ele><time>2026-05-03T07:36:53Z</time></trkpt><trkpt lat="44.67545785366718" lon="10.099730262135697"><ele>159.33333333333334</ele><time>2026-05-03T07:36:54Z</time></trkpt><trkpt lat="44.675606084428196" lon="10.099516246174849"><ele>159.0</ele><time>2026-05-03T07:36:55Z</time></trkpt><trkpt lat="44.67576980347303" lon="10.099347099437905"><ele>159.0</ele><time>2026-05-03T07:36:55.999Z</time></trkpt><trkpt lat="44.67598102939763" lon="10.099259592896928"><ele>159.0</ele><time>2026-05-03T07:36:56.999Z</time></trkpt><trkpt lat="44.6762174917076" lon="10.099140229893402"><ele>157.5</ele><time>2026-05-03T07:36:57.999Z</time></trkpt><trkpt lat="44.6764607983693" lon="10.099057424391063"><ele>156.0</ele><time>2026-05-03T07:36:58.999Z</time></trkpt><trkpt lat="44.67667111750011" lon="10.098957305739651"><ele>156.0</ele><time>2026-05-03T07:36:59.999Z</time></trkpt><trkpt lat="44.676882349945124" lon="10.098864216202106"><ele>156.0</ele><time>2026-05-03T07:37:00.999Z</time></trkpt><trkpt lat="44.67709713294279" lon="10.098789979836196"><ele>156.0</ele><time>2026-05-03T07:37:01.999Z</time></trkpt><trkpt lat="44.67731038792994" lon="10.098714506691817"><ele>156.33333333333334</ele><time>2026-05-03T07:37:02.999Z</time></trkpt><trkpt lat="44.677531325769316" lon="10.098634684263613"><ele>156.66666666666669</ele><time>2026-05-03T07:37:03.999Z</time></trkpt><trkpt lat="44.67773944086271" lon="10.09855550418761"><ele>157.0</ele><time>2026-05-03T07:37:04.999Z</time></trkpt><trkpt lat="44.67793011554523" lon="10.098459048238764"><ele>158.0</ele><time>2026-05-03T07:37:05.999Z</time></trkpt><trkpt lat="44.67809538617446" lon="10.09831224374406"><ele>159.0</ele><time>2026-05-03T07:37:06.999Z</time></trkpt><trkpt lat="44.67826137340183" lon="10.09813771484813"><ele>160.0</ele><time>2026-05-03T07:37:07.999Z</time></trkpt><trkpt lat="44.678429579249325" lon="10.097994270031885"><ele>159.5</ele><time>2026-05-03T07:37:08.999Z</time></trkpt><trkpt lat="44.67863268328146" lon="10.097959950037263"><ele>159.0</ele><time>2026-05-03T07:37:09.999Z</time></trkpt><trkpt lat="44.67887983801429" lon="10.097928285798409"><ele>159.0</ele><time>2026-05-03T07:37:10.999Z</time></trkpt><trkpt lat="44.679121119868014" lon="10.097895885877236"><ele>159.0</ele><time>2026-05-03T07:37:11.999Z</time></trkpt><trkpt lat="44.679363535773" lon="10.09779762468127"><ele>160.0</ele><time>2026-05-03T07:37:12.999Z</time></trkpt><trkpt lat="44.679612247757305" lon="10.097661327671307"><ele>161.0</ele><time>2026-05-03T07:37:13.999Z</time></trkpt><trkpt lat="44.67984777826212" lon="10.097533347215803"><ele>161.0</ele><time>2026-05-03T07:37:14.999Z</time></trkpt><trkpt lat="44.6800618253854" lon="10.097430250931135"><ele>161.0</ele><time>2026-05-03T07:37:15.999Z</time></trkpt><trkpt lat="44.68025225296574" lon="10.097310737581981"><ele>161.0</ele><time>2026-05-03T07:37:16.999Z</time></trkpt><trkpt lat="44.68041911665754" lon="10.097147173276491"><ele>160.0</ele><time>2026-05-03T07:37:17.999Z</time></trkpt><trkpt lat="44.68054666991078" lon="10.096912971698757"><ele>159.0</ele><time>2026-05-03T07:37:18.999Z</time></trkpt><trkpt lat="44.68066220104602" lon="10.096645000577087"><ele>158.0</ele><time>2026-05-03T07:37:19.999Z</time></trkpt><trkpt lat="44.680750250268595" lon="10.096408924471257"><ele>155.33333333333331</ele><time>2026-05-03T07:37:20.999Z</time></trkpt><trkpt lat="44.68085462042854" lon="10.096228015026014"><ele>152.66666666666666</ele><time>2026-05-03T07:37:21.999Z</time></trkpt><trkpt lat="44.68094883469969" lon="10.096066061655494"><ele>150.0</ele><time>2026-05-03T07:37:22.999Z</time></trkpt><trkpt lat="44.68106030956995" lon="10.095956505036407"><ele>150.0</ele><time>2026-05-03T07:37:23.999Z</time></trkpt><trkpt lat="44.68121592289066" lon="10.095930149146058"><ele>150.0</ele><time>2026-05-03T07:37:24.999Z</time></trkpt><trkpt lat="44.681374763631524" lon="10.095925273461367"><ele>150.0</ele><time>2026-05-03T07:37:25.999Z</time></trkpt><trkpt lat="44.681488368018144" lon="10.095923925406574"><ele>150.0</ele><time>2026-05-03T07:37:26.999Z</time></trkpt><trkpt lat="44.6815627012323" lon="10.09589988022988"><ele>150.0</ele><time>2026-05-03T07:37:27.999Z</time></trkpt><trkpt lat="44.681631550930746" lon="10.095857016175069"><ele>150.0</ele><time>2026-05-03T07:37:29.999Z</time></trkpt><trkpt lat="44.6816754909648" lon="10.095775683834344"><ele>150.0</ele><time>2026-05-03T07:38:01Z</time></trkpt><trkpt lat="44.68160660257136" lon="10.095671292307793"><ele>150.0</ele><time>2026-05-03T07:38:03Z</time></trkpt><trkpt lat="44.68152517168491" lon="10.09564454767815"><ele>150.0</ele><time>2026-05-03T07:38:04Z</time></trkpt><trkpt lat="44.68145095155504" lon="10.09561771954587"><ele>150.0</ele><time>2026-05-03T07:38:05Z</time></trkpt><trkpt lat="44.681347974442005" lon="10.095568144365542"><ele>149.2</ele><time>2026-05-03T07:38:06Z</time></trkpt><trkpt lat="44.68124579410026" lon="10.095524651220954"><ele>148.4</ele><time>2026-05-03T07:38:07Z</time></trkpt><trkpt lat="44.681150963631865" lon="10.0954907047366"><ele>147.6</ele><time>2026-05-03T07:38:08Z</time></trkpt><trkpt lat="44.68104095229253" lon="10.095438953456776"><ele>146.8</ele><time>2026-05-03T07:38:09Z</time></trkpt><trkpt lat="44.680931978137956" lon="10.095378488838715"><ele>146.0</ele><time>2026-05-03T07:38:10Z</time></trkpt><trkpt lat="44.680802750012965" lon="10.095305966544888"><ele>145.66666666666666</ele><time>2026-05-03T07:38:11Z</time></trkpt><trkpt lat="44.68066760295933" lon="10.095231124359668"><ele>145.33333333333334</ele><time>2026-05-03T07:38:12Z</time></trkpt><trkpt lat="44.68052625471657" lon="10.09515292331607"><ele>145.0</ele><time>2026-05-03T07:38:13Z</time></trkpt><trkpt lat="44.680382617604714" lon="10.095077629731326"><ele>145.5</ele><time>2026-05-03T07:38:14Z</time></trkpt><trkpt lat="44.68023745036075" lon="10.09500080446055"><ele>146.0</ele><time>2026-05-03T07:38:15Z</time></trkpt><trkpt lat="44.68010142096994" lon="10.094929983641489"><ele>146.5</ele><time>2026-05-03T07:38:16Z</time></trkpt><trkpt lat="44.67997011372702" lon="10.094862674087956"><ele>147.0</ele><time>2026-05-03T07:38:17Z</time></trkpt><trkpt lat="44.67984792572881" lon="10.094790759166806"><ele>147.25</ele><time>2026-05-03T07:38:18Z</time></trkpt><trkpt lat="44.67973613860881" lon="10.09470657039087"><ele>147.5</ele><time>2026-05-03T07:38:19Z</time></trkpt><trkpt lat="44.679623280493736" lon="10.094629374328584"><ele>147.75</ele><time>2026-05-03T07:38:20Z</time></trkpt><trkpt lat="44.679517631066666" lon="10.094541519479968"><ele>148.0</ele><time>2026-05-03T07:38:21Z</time></trkpt><trkpt lat="44.67941475057759" lon="10.09445921999702"><ele>148.0</ele><time>2026-05-03T07:38:22Z</time></trkpt><trkpt lat="44.67933248526478" lon="10.094373320929998"><ele>148.0</ele><time>2026-05-03T07:38:23Z</time></trkpt><trkpt lat="44.679279135310644" lon="10.09426651581289"><ele>148.0</ele><time>2026-05-03T07:38:24Z</time></trkpt><trkpt lat="44.67923398013369" lon="10.094164368842376"><ele>148.0</ele><time>2026-05-03T07:38:25Z</time></trkpt><trkpt lat="44.6791639239708" lon="10.094119905088558"><ele>148.0</ele><time>2026-05-03T07:38:26Z</time></trkpt><trkpt lat="44.67907806537222" lon="10.094157358335584"><ele>148.0</ele><time>2026-05-03T07:38:27Z</time></trkpt><trkpt lat="44.67900311170074" lon="10.09427657912284"><ele>148.0</ele><time>2026-05-03T07:38:28Z</time></trkpt><trkpt lat="44.67893004936615" lon="10.09443479721254"><ele>148.0</ele><time>2026-05-03T07:38:29Z</time></trkpt><trkpt lat="44.67881822788597" lon="10.09455478779964"><ele>148.0</ele><time>2026-05-03T07:38:30Z</time></trkpt><trkpt lat="44.67865616128855" lon="10.094631396203196"><ele>148.0</ele><time>2026-05-03T07:38:31Z</time></trkpt><trkpt lat="44.67850182649573" lon="10.094717044065787"><ele>148.0</ele><time>2026-05-03T07:38:32Z</time></trkpt><trkpt lat="44.67834139868998" lon="10.09481446468682"><ele>148.0</ele><time>2026-05-03T07:38:33Z</time></trkpt><trkpt lat="44.678187113802615" lon="10.094873329933709"><ele>148.0</ele><time>2026-05-03T07:38:34Z</time></trkpt><trkpt lat="44.67803094620402" lon="10.094977258582546"><ele>148.66666666666669</ele><time>2026-05-03T07:38:35Z</time></trkpt><trkpt lat="44.67787445015792" lon="10.095058617099973"><ele>149.33333333333334</ele><time>2026-05-03T07:38:36Z</time></trkpt><trkpt lat="44.67771918081554" lon="10.095135400447944"><ele>150.0</ele><time>2026-05-03T07:38:37Z</time></trkpt><trkpt lat="44.67757753867809" lon="10.095211573911781"><ele>151.0</ele><time>2026-05-03T07:38:38Z</time></trkpt><trkpt lat="44.67743179213764" lon="10.095290647734643"><ele>152.0</ele><time>2026-05-03T07:38:39Z</time></trkpt><trkpt lat="44.677274488630495" lon="10.095369441230067"><ele>153.0</ele><time>2026-05-03T07:38:40Z</time></trkpt><trkpt lat="44.67711937224414" lon="10.095446422809163"><ele>153.0</ele><time>2026-05-03T07:38:41Z</time></trkpt><trkpt lat="44.67697703645599" lon="10.095516823363768"><ele>153.0</ele><time>2026-05-03T07:38:42Z</time></trkpt><trkpt lat="44.67685416196806" lon="10.09555188722057"><ele>153.0</ele><time>2026-05-03T07:38:43Z</time></trkpt><trkpt lat="44.67672016574375" lon="10.09559384624406"><ele>153.0</ele><time>2026-05-03T07:38:44Z</time></trkpt><trkpt lat="44.67653983336244" lon="10.09573365313104"><ele>153.33333333333334</ele><time>2026-05-03T07:38:45Z</time></trkpt><trkpt lat="44.67639106414088" lon="10.095831471350683"><ele>153.66666666666669</ele><time>2026-05-03T07:38:46Z</time></trkpt><trkpt lat="44.67624591405506" lon="10.095904762634952"><ele>154.0</ele><time>2026-05-03T07:38:47Z</time></trkpt><trkpt lat="44.67610189528215" lon="10.095972445635065"><ele>155.0</ele><time>2026-05-03T07:38:48Z</time></trkpt><trkpt lat="44.67595572832117" lon="10.096043192844352"><ele>156.0</ele><time>2026-05-03T07:38:49Z</time></trkpt><trkpt lat="44.675809219549265" lon="10.096120319071572"><ele>157.0</ele><time>2026-05-03T07:38:50Z</time></trkpt><trkpt lat="44.67566174328336" lon="10.096190100859365"><ele>157.0</ele><time>2026-05-03T07:38:51Z</time></trkpt><trkpt lat="44.67551200258726" lon="10.09626233585839"><ele>157.0</ele><time>2026-05-03T07:38:52Z</time></trkpt><trkpt lat="44.675356097863315" lon="10.09634681248168"><ele>157.0</ele><time>2026-05-03T07:38:53Z</time></trkpt><trkpt lat="44.675198299085835" lon="10.096425923434023"><ele>156.66666666666669</ele><time>2026-05-03T07:38:54Z</time></trkpt><trkpt lat="44.67504160223122" lon="10.096501433395593"><ele>156.33333333333334</ele><time>2026-05-03T07:38:55Z</time></trkpt><trkpt lat="44.67489452877643" lon="10.096581639262622"><ele>156.0</ele><time>2026-05-03T07:38:56Z</time></trkpt><trkpt lat="44.67474753470251" lon="10.096660608941049"><ele>156.0</ele><time>2026-05-03T07:38:57Z</time></trkpt><trkpt lat="44.67459922774642" lon="10.096742188611735"><ele>156.0</ele><time>2026-05-03T07:38:58Z</time></trkpt><trkpt lat="44.67444123089845" lon="10.096814976343868"><ele>156.0</ele><time>2026-05-03T07:38:59Z</time></trkpt><trkpt lat="44.67428464847343" lon="10.096899447953739"><ele>157.33333333333334</ele><time>2026-05-03T07:38:59.999Z</time></trkpt><trkpt lat="44.67413775529026" lon="10.096976709544554"><ele>158.66666666666669</ele><time>2026-05-03T07:39:00.999Z</time></trkpt><trkpt lat="44.673985595332" lon="10.097063437818134"><ele>160.0</ele><time>2026-05-03T07:39:01.999Z</time></trkpt><trkpt lat="44.67379648133068" lon="10.09715441234705"><ele>160.0</ele><time>2026-05-03T07:39:02.999Z</time></trkpt><trkpt lat="44.673612139536715" lon="10.097249965082247"><ele>160.0</ele><time>2026-05-03T07:39:03.999Z</time></trkpt><trkpt lat="44.67340116376986" lon="10.097359130812166"><ele>160.0</ele><time>2026-05-03T07:39:04.999Z</time></trkpt><trkpt lat="44.673227171687365" lon="10.097464146458785"><ele>160.0</ele><time>2026-05-03T07:39:06.999Z</time></trkpt><trkpt lat="44.6730755142567" lon="10.097539837628785"><ele>160.0</ele><time>2026-05-03T07:39:07.999Z</time></trkpt><trkpt lat="44.67293029334661" lon="10.097604659682444"><ele>160.0</ele><time>2026-05-03T07:39:08.999Z</time></trkpt><trkpt lat="44.6727779300712" lon="10.097694134015368"><ele>161.75</ele><time>2026-05-03T07:39:09.999Z</time></trkpt><trkpt lat="44.67263123692794" lon="10.097769174637973"><ele>163.5</ele><time>2026-05-03T07:39:10.999Z</time></trkpt><trkpt lat="44.672483466762614" lon="10.097808993979648"><ele>165.25</ele><time>2026-05-03T07:39:11.999Z</time></trkpt><trkpt lat="44.672355523041006" lon="10.097827194254169"><ele>167.0</ele><time>2026-05-03T07:39:12.999Z</time></trkpt><trkpt lat="44.67226557233052" lon="10.097758735133112"><ele>167.0</ele><time>2026-05-03T07:39:13.999Z</time></trkpt><trkpt lat="44.67221438495435" lon="10.097629984775374"><ele>167.0</ele><time>2026-05-03T07:39:14.999Z</time></trkpt><trkpt lat="44.67218897467173" lon="10.097469467284169"><ele>167.0</ele><time>2026-05-03T07:39:15.999Z</time></trkpt><trkpt lat="44.67218420852793" lon="10.097267930460285"><ele>167.0</ele><time>2026-05-03T07:39:16.999Z</time></trkpt><trkpt lat="44.672163246274934" lon="10.097032333950347"><ele>168.0</ele><time>2026-05-03T07:39:17.999Z</time></trkpt><trkpt lat="44.67211670038773" lon="10.096802815258773"><ele>169.0</ele><time>2026-05-03T07:39:18.999Z</time></trkpt><trkpt lat="44.67205860993961" lon="10.096568551387326"><ele>170.0</ele><time>2026-05-03T07:39:19.999Z</time></trkpt><trkpt lat="44.67194365306556" lon="10.096359860718326"><ele>172.66666666666666</ele><time>2026-05-03T07:39:20.999Z</time></trkpt><trkpt lat="44.67177136440037" lon="10.09619919657531"><ele>175.33333333333334</ele><time>2026-05-03T07:39:21.999Z</time></trkpt><trkpt lat="44.67158329269342" lon="10.096052424754186"><ele>178.0</ele><time>2026-05-03T07:39:22.999Z</time></trkpt><trkpt lat="44.67143204135944" lon="10.095908058285582"><ele>178.0</ele><time>2026-05-03T07:39:23.999Z</time></trkpt><trkpt lat="44.671297042819155" lon="10.095810771292548"><ele>178.0</ele><time>2026-05-03T07:39:24.999Z</time></trkpt><trkpt lat="44.67116241815027" lon="10.095790332372086"><ele>178.0</ele><time>2026-05-03T07:39:25.999Z</time></trkpt><trkpt lat="44.67102294771562" lon="10.095877736606733"><ele>178.0</ele><time>2026-05-03T07:39:26.999Z</time></trkpt><trkpt lat="44.670910280978966" lon="10.096068920523555"><ele>180.5</ele><time>2026-05-03T07:39:27.999Z</time></trkpt><trkpt lat="44.67081864730394" lon="10.096348777477171"><ele>183.0</ele><time>2026-05-03T07:39:28.999Z</time></trkpt><trkpt lat="44.67070603126143" lon="10.096633545902623"><ele>183.33333333333334</ele><time>2026-05-03T07:39:29.999Z</time></trkpt><trkpt lat="44.67059655499711" lon="10.096894777996903"><ele>183.66666666666669</ele><time>2026-05-03T07:39:30.999Z</time></trkpt><trkpt lat="44.67047561458672" lon="10.097149540379023"><ele>184.0</ele><time>2026-05-03T07:39:31.999Z</time></trkpt><trkpt lat="44.670347135717385" lon="10.097409538015903"><ele>187.33333333333334</ele><time>2026-05-03T07:39:32.999Z</time></trkpt><trkpt lat="44.6701954734972" lon="10.097639956176387"><ele>190.66666666666669</ele><time>2026-05-03T07:39:33.999Z</time></trkpt><trkpt lat="44.67002705629577" lon="10.097830130465491"><ele>194.0</ele><time>2026-05-03T07:39:34.999Z</time></trkpt><trkpt lat="44.669893363511235" lon="10.098012612388477"><ele>194.0</ele><time>2026-05-03T07:39:35.999Z</time></trkpt><trkpt lat="44.66980268535194" lon="10.098230817227803"><ele>194.0</ele><time>2026-05-03T07:39:36.999Z</time></trkpt><trkpt lat="44.669723665385064" lon="10.098450753548814"><ele>194.0</ele><time>2026-05-03T07:39:37.999Z</time></trkpt><trkpt lat="44.66961995384072" lon="10.098596469996995"><ele>193.0</ele><time>2026-05-03T07:39:38.999Z</time></trkpt><trkpt lat="44.66951590146533" lon="10.098703197665266"><ele>192.0</ele><time>2026-05-03T07:39:39.999Z</time></trkpt><trkpt lat="44.669407150763085" lon="10.098742047060473"><ele>191.0</ele><time>2026-05-03T07:39:40.999Z</time></trkpt><trkpt lat="44.66931278268934" lon="10.098664748688861"><ele>190.0</ele><time>2026-05-03T07:39:41.999Z</time></trkpt><trkpt lat="44.66923308296248" lon="10.098541679615526"><ele>192.25</ele><time>2026-05-03T07:39:42.999Z</time></trkpt><trkpt lat="44.66919145127334" lon="10.09837977915161"><ele>194.5</ele><time>2026-05-03T07:39:43.999Z</time></trkpt><trkpt lat="44.66921394661008" lon="10.098204463881945"><ele>196.75</ele><time>2026-05-03T07:39:44.999Z</time></trkpt><trkpt lat="44.66926261548981" lon="10.09795378178206"><ele>199.0</ele><time>2026-05-03T07:39:45.999Z</time></trkpt><trkpt lat="44.66931795267503" lon="10.097642997700241"><ele>198.33333333333331</ele><time>2026-05-03T07:39:46.999Z</time></trkpt><trkpt lat="44.669373353517656" lon="10.097331855988505"><ele>197.66666666666669</ele><time>2026-05-03T07:39:47.999Z</time></trkpt><trkpt lat="44.66941052149136" lon="10.097051076198339"><ele>197.0</ele><time>2026-05-03T07:39:48.999Z</time></trkpt><trkpt lat="44.66945510048512" lon="10.096795315903396"><ele>197.0</ele><time>2026-05-03T07:39:49.999Z</time></trkpt><trkpt lat="44.66949374790996" lon="10.096572536449107"><ele>197.0</ele><time>2026-05-03T07:39:50.999Z</time></trkpt><trkpt lat="44.66950113983707" lon="10.096342448664199"><ele>197.0</ele><time>2026-05-03T07:39:51.999Z</time></trkpt><trkpt lat="44.66938973142119" lon="10.09610911411108"><ele>201.33333333333334</ele><time>2026-05-03T07:39:52.999Z</time></trkpt><trkpt lat="44.66923025307052" lon="10.095895206654564"><ele>205.66666666666669</ele><time>2026-05-03T07:39:53.999Z</time></trkpt><trkpt lat="44.66906543807431" lon="10.095678717180819"><ele>210.0</ele><time>2026-05-03T07:39:54.999Z</time></trkpt><trkpt lat="44.66889861260747" lon="10.095485929510657"><ele>210.0</ele><time>2026-05-03T07:39:56Z</time></trkpt><trkpt lat="44.66870754959009" lon="10.095336296348073"><ele>210.0</ele><time>2026-05-03T07:39:57Z</time></trkpt><trkpt lat="44.668503851401574" lon="10.095251648550626"><ele>210.0</ele><time>2026-05-03T07:39:58Z</time></trkpt><trkpt lat="44.66829231624735" lon="10.095182058103523"><ele>213.0</ele><time>2026-05-03T07:39:59Z</time></trkpt><trkpt lat="44.668078724272384" lon="10.095090023466867"><ele>216.0</ele><time>2026-05-03T07:40:00Z</time></trkpt><trkpt lat="44.66788047540104" lon="10.094985824929951"><ele>219.0</ele><time>2026-05-03T07:40:01Z</time></trkpt><trkpt lat="44.667695343189315" lon="10.094833869561418"><ele>221.0</ele><time>2026-05-03T07:40:02Z</time></trkpt><trkpt lat="44.66751506188735" lon="10.09467801698174"><ele>223.0</ele><time>2026-05-03T07:40:03Z</time></trkpt><trkpt lat="44.66732021209614" lon="10.094535626534686"><ele>225.0</ele><time>2026-05-03T07:40:04Z</time></trkpt><trkpt lat="44.667137164472194" lon="10.094379262175297"><ele>225.0</ele><time>2026-05-03T07:40:05Z</time></trkpt><trkpt lat="44.666962033921436" lon="10.094227536555199"><ele>225.0</ele><time>2026-05-03T07:40:06Z</time></trkpt><trkpt lat="44.66678467576611" lon="10.094077182381938"><ele>225.0</ele><time>2026-05-03T07:40:07Z</time></trkpt><trkpt lat="44.666618176979675" lon="10.093910612026285"><ele>228.0</ele><time>2026-05-03T07:40:08Z</time></trkpt><trkpt lat="44.66643778388529" lon="10.09377650893158"><ele>231.0</ele><time>2026-05-03T07:40:09Z</time></trkpt><trkpt lat="44.66627654240389" lon="10.093618487146252"><ele>234.0</ele><time>2026-05-03T07:40:10Z</time></trkpt><trkpt lat="44.66615857622992" lon="10.093416371279712"><ele>235.75</ele><time>2026-05-03T07:40:11Z</time></trkpt><trkpt lat="44.666044281783535" lon="10.093267312158035"><ele>237.5</ele><time>2026-05-03T07:40:12Z</time></trkpt><trkpt lat="44.66593990911471" lon="10.093127339396142"><ele>239.25</ele><time>2026-05-03T07:40:13Z</time></trkpt><trkpt lat="44.66582182921931" lon="10.093029078667799"><ele>241.0</ele><time>2026-05-03T07:40:14Z</time></trkpt><trkpt lat="44.66566883997041" lon="10.093025200074843"><ele>241.0</ele><time>2026-05-03T07:40:15Z</time></trkpt><trkpt lat="44.66549469323125" lon="10.093088400048115"><ele>241.0</ele><time>2026-05-03T07:40:16Z</time></trkpt><trkpt lat="44.66529551037362" lon="10.093174829203921"><ele>241.0</ele><time>2026-05-03T07:40:17Z</time></trkpt><trkpt lat="44.66507933484718" lon="10.093178538754302"><ele>244.66666666666666</ele><time>2026-05-03T07:40:18Z</time></trkpt><trkpt lat="44.66487195878821" lon="10.093172741438803"><ele>248.33333333333331</ele><time>2026-05-03T07:40:19Z</time></trkpt><trkpt lat="44.664676837089125" lon="10.093140612638763"><ele>252.0</ele><time>2026-05-03T07:40:20Z</time></trkpt><trkpt lat="44.6644942724105" lon="10.093111278725209"><ele>254.66666666666669</ele><time>2026-05-03T07:40:21Z</time></trkpt><trkpt lat="44.664305742666784" lon="10.093080986366559"><ele>257.33333333333337</ele><time>2026-05-03T07:40:22Z</time></trkpt><trkpt lat="44.66412884696439" lon="10.093073111162239"><ele>260.0</ele><time>2026-05-03T07:40:23Z</time></trkpt><trkpt lat="44.663957265797855" lon="10.09304999180748"><ele>260.0</ele><time>2026-05-03T07:40:24Z</time></trkpt><trkpt lat="44.663782966680955" lon="10.093022600290892"><ele>260.0</ele><time>2026-05-03T07:40:25Z</time></trkpt><trkpt lat="44.6636129422517" lon="10.092995013709677"><ele>260.0</ele><time>2026-05-03T07:40:26Z</time></trkpt><trkpt lat="44.66344167110434" lon="10.092931940403481"><ele>262.33333333333337</ele><time>2026-05-03T07:40:27Z</time></trkpt><trkpt lat="44.66327544723167" lon="10.092867071307184"><ele>264.6666666666667</ele><time>2026-05-03T07:40:28Z</time></trkpt><trkpt lat="44.663118323690504" lon="10.092752882254315"><ele>267.0</ele><time>2026-05-03T07:40:29Z</time></trkpt><trkpt lat="44.66299302488185" lon="10.092523171021618"><ele>267.6666666666667</ele><time>2026-05-03T07:40:30Z</time></trkpt><trkpt lat="44.66291203120286" lon="10.092251822142408"><ele>268.33333333333337</ele><time>2026-05-03T07:40:31Z</time></trkpt><trkpt lat="44.66283524466393" lon="10.091978251551643"><ele>269.0</ele><time>2026-05-03T07:40:32Z</time></trkpt><trkpt lat="44.66276068924886" lon="10.091704924950436"><ele>273.6666666666667</ele><time>2026-05-03T07:40:33Z</time></trkpt><trkpt lat="44.662674136511754" lon="10.091457502729105"><ele>278.3333333333333</ele><time>2026-05-03T07:40:34Z</time></trkpt><trkpt lat="44.66260274467854" lon="10.09124399355585"><ele>283.0</ele><time>2026-05-03T07:40:35Z</time></trkpt><trkpt lat="44.66256733722863" lon="10.091047290446829"><ele>283.0</ele><time>2026-05-03T07:40:36Z</time></trkpt><trkpt lat="44.662622495043216" lon="10.090862470279768"><ele>283.0</ele><time>2026-05-03T07:40:37Z</time></trkpt><trkpt lat="44.66272798156611" lon="10.090685786748551"><ele>283.0</ele><time>2026-05-03T07:40:38Z</time></trkpt><trkpt lat="44.662858061249665" lon="10.090452680810875"><ele>284.3333333333333</ele><time>2026-05-03T07:40:39Z</time></trkpt><trkpt lat="44.66299606476036" lon="10.090241259739814"><ele>285.6666666666667</ele><time>2026-05-03T07:40:40Z</time></trkpt><trkpt lat="44.66310819390766" lon="10.090037289939763"><ele>287.0</ele><time>2026-05-03T07:40:41Z</time></trkpt><trkpt lat="44.66318075849003" lon="10.0898797566031"><ele>290.0</ele><time>2026-05-03T07:40:42Z</time></trkpt><trkpt lat="44.663214370793064" lon="10.089751223535846"><ele>293.0</ele><time>2026-05-03T07:40:43Z</time></trkpt><trkpt lat="44.663196573027065" lon="10.089596991471597"><ele>296.0</ele><time>2026-05-03T07:40:44Z</time></trkpt><trkpt lat="44.66311183983401" lon="10.089455043185788"><ele>299.0</ele><time>2026-05-03T07:40:45Z</time></trkpt><trkpt lat="44.66296375194506" lon="10.089347714279207"><ele>299.0</ele><time>2026-05-03T07:40:46Z</time></trkpt><trkpt lat="44.66278900527623" lon="10.08933249606713"><ele>299.0</ele><time>2026-05-03T07:40:47Z</time></trkpt><trkpt lat="44.66259941984193" lon="10.089351745002212"><ele>299.0</ele><time>2026-05-03T07:40:48Z</time></trkpt><trkpt lat="44.66241431386414" lon="10.089327930040929"><ele>300.33333333333337</ele><time>2026-05-03T07:40:49Z</time></trkpt><trkpt lat="44.6622248359447" lon="10.089308578131986"><ele>301.6666666666667</ele><time>2026-05-03T07:40:50Z</time></trkpt><trkpt lat="44.662036410039796" lon="10.089356322784623"><ele>303.0</ele><time>2026-05-03T07:40:51Z</time></trkpt><trkpt lat="44.661854342115994" lon="10.089496948717088"><ele>306.5</ele><time>2026-05-03T07:40:52Z</time></trkpt><trkpt lat="44.66165210444573" lon="10.089693612202511"><ele>310.0</ele><time>2026-05-03T07:40:53Z</time></trkpt><trkpt lat="44.66146990877498" lon="10.0898586230552"><ele>308.0</ele><time>2026-05-03T07:40:54Z</time></trkpt><trkpt lat="44.66130007536909" lon="10.089989693632786"><ele>306.0</ele><time>2026-05-03T07:40:55Z</time></trkpt><trkpt lat="44.66116386440462" lon="10.09012779025744"><ele>304.0</ele><time>2026-05-03T07:40:56Z</time></trkpt><trkpt lat="44.66107185711107" lon="10.090316013766394"><ele>309.3333333333333</ele><time>2026-05-03T07:40:57Z</time></trkpt><trkpt lat="44.66104224572379" lon="10.090598116272716"><ele>314.6666666666667</ele><time>2026-05-03T07:40:58Z</time></trkpt><trkpt lat="44.66104255100031" lon="10.090906702090532"><ele>320.0</ele><time>2026-05-03T07:40:59Z</time></trkpt><trkpt lat="44.66103555591788" lon="10.091244097830687"><ele>321.33333333333337</ele><time>2026-05-03T07:41:00Z</time></trkpt><trkpt lat="44.661021641301645" lon="10.09156863725773"><ele>322.6666666666667</ele><time>2026-05-03T07:41:01Z</time></trkpt><trkpt lat="44.6610269729032" lon="10.091831532062347"><ele>324.0</ele><time>2026-05-03T07:41:02Z</time></trkpt><trkpt lat="44.661040700340486" lon="10.09204219699536"><ele>324.0</ele><time>2026-05-03T07:41:03Z</time></trkpt><trkpt lat="44.66103116347319" lon="10.092175561662994"><ele>324.0</ele><time>2026-05-03T07:41:04Z</time></trkpt><trkpt lat="44.660963825107096" lon="10.092262607334877"><ele>324.0</ele><time>2026-05-03T07:41:05Z</time></trkpt><trkpt lat="44.66087798022298" lon="10.092272203782493"><ele>324.0</ele><time>2026-05-03T07:41:06Z</time></trkpt><trkpt lat="44.660805048679244" lon="10.092145399238746"><ele>324.0</ele><time>2026-05-03T07:41:06.999Z</time></trkpt><trkpt lat="44.66078585919504" lon="10.091995229706377"><ele>324.0</ele><time>2026-05-03T07:41:07.999Z</time></trkpt><trkpt lat="44.66078042484888" lon="10.09178942562984"><ele>324.0</ele><time>2026-05-03T07:41:08.999Z</time></trkpt><trkpt lat="44.66074187129541" lon="10.091530139895664"><ele>324.0</ele><time>2026-05-03T07:41:09.999Z</time></trkpt><trkpt lat="44.660681042620816" lon="10.091271642907525"><ele>324.0</ele><time>2026-05-03T07:41:10.999Z</time></trkpt><trkpt lat="44.66064923674137" lon="10.09106382335817"><ele>324.0</ele><time>2026-05-03T07:41:11.999Z</time></trkpt><trkpt lat="44.66062014299448" lon="10.090863350253727"><ele>324.0</ele><time>2026-05-03T07:41:12.999Z</time></trkpt><trkpt lat="44.6604063167245" lon="10.090400788816366"><ele>332.0</ele><time>2026-05-03T07:41:13.999Z</time></trkpt><trkpt lat="44.66025542060893" lon="10.090106255285294"><ele>340.0</ele><time>2026-05-03T07:41:14.999Z</time></trkpt><trkpt lat="44.66011108872502" lon="10.089818711901088"><ele>340.0</ele><time>2026-05-03T07:41:15.999Z</time></trkpt><trkpt lat="44.65997997023146" lon="10.089502198026354"><ele>340.0</ele><time>2026-05-03T07:41:16.999Z</time></trkpt><trkpt lat="44.6598435982915" lon="10.089183835941634"><ele>343.0</ele><time>2026-05-03T07:41:17.999Z</time></trkpt><trkpt lat="44.65973985615722" lon="10.088871191313666"><ele>346.0</ele><time>2026-05-03T07:41:18.999Z</time></trkpt><trkpt lat="44.65965348569926" lon="10.088595027761244"><ele>346.0</ele><time>2026-05-03T07:41:19.999Z</time></trkpt><trkpt lat="44.65958618022182" lon="10.088363859298271"><ele>346.0</ele><time>2026-05-03T07:41:20.999Z</time></trkpt><trkpt lat="44.65958494696593" lon="10.088162671461307"><ele>346.0</ele><time>2026-05-03T07:41:21.999Z</time></trkpt><trkpt lat="44.659624024178235" lon="10.08797371761849"><ele>347.66666666666663</ele><time>2026-05-03T07:41:22.999Z</time></trkpt><trkpt lat="44.65970170334273" lon="10.08777336050869"><ele>349.3333333333333</ele><time>2026-05-03T07:41:23.999Z</time></trkpt><trkpt lat="44.65980099645759" lon="10.087524940655504"><ele>351.0</ele><time>2026-05-03T07:41:24.999Z</time></trkpt><trkpt lat="44.65990137343883" lon="10.087288556725733"><ele>351.20000000000005</ele><time>2026-05-03T07:41:25.999Z</time></trkpt><trkpt lat="44.65998253333598" lon="10.08708899836508"><ele>351.40000000000003</ele><time>2026-05-03T07:41:26.999Z</time></trkpt><trkpt lat="44.660056658291666" lon="10.086956972871995"><ele>351.6</ele><time>2026-05-03T07:41:27.999Z</time></trkpt><trkpt lat="44.660074783628986" lon="10.08685220606518"><ele>351.8</ele><time>2026-05-03T07:41:28.999Z</time></trkpt><trkpt lat="44.66001798013046" lon="10.086762040147237"><ele>352.0</ele><time>2026-05-03T07:41:29.999Z</time></trkpt><trkpt lat="44.65991069445156" lon="10.086724267694615"><ele>352.0</ele><time>2026-05-03T07:41:30.999Z</time></trkpt><trkpt lat="44.65980440389178" lon="10.086789149958264"><ele>352.0</ele><time>2026-05-03T07:41:31.999Z</time></trkpt><trkpt lat="44.659697716805624" lon="10.086950260227637"><ele>352.0</ele><time>2026-05-03T07:41:32.999Z</time></trkpt><trkpt lat="44.6595587926845" lon="10.087132326937478"><ele>358.0</ele><time>2026-05-03T07:41:33.999Z</time></trkpt><trkpt lat="44.659380182397875" lon="10.08731038942055"><ele>364.0</ele><time>2026-05-03T07:41:34.999Z</time></trkpt><trkpt lat="44.65915804440079" lon="10.087549039037782"><ele>367.0</ele><time>2026-05-03T07:41:35.999Z</time></trkpt><trkpt lat="44.65897201817207" lon="10.087744581282085"><ele>370.0</ele><time>2026-05-03T07:41:36.999Z</time></trkpt><trkpt lat="44.65879879793524" lon="10.087957937922116"><ele>370.0</ele><time>2026-05-03T07:41:37.999Z</time></trkpt><trkpt lat="44.65866455496499" lon="10.088217568879012"><ele>370.0</ele><time>2026-05-03T07:41:38.999Z</time></trkpt><trkpt lat="44.658552053868874" lon="10.088536265385706"><ele>378.0</ele><time>2026-05-03T07:41:39.999Z</time></trkpt><trkpt lat="44.6584905942804" lon="10.088887403872583"><ele>386.0</ele><time>2026-05-03T07:41:40.999Z</time></trkpt><trkpt lat="44.65848714502003" lon="10.089195227637356"><ele>386.0</ele><time>2026-05-03T07:41:41.999Z</time></trkpt><trkpt lat="44.658540827136854" lon="10.089495611503056"><ele>386.0</ele><time>2026-05-03T07:41:42.999Z</time></trkpt><trkpt lat="44.658625757674386" lon="10.089702115278195"><ele>386.0</ele><time>2026-05-03T07:41:43.999Z</time></trkpt><trkpt lat="44.65866662911015" lon="10.089808557985368"><ele>386.0</ele><time>2026-05-03T07:41:44.999Z</time></trkpt><trkpt lat="44.658638355661274" lon="10.089891430033042"><ele>386.0</ele><time>2026-05-03T07:41:45.999Z</time></trkpt><trkpt lat="44.658537083845864" lon="10.089923850014479"><ele>386.0</ele><time>2026-05-03T07:41:46.999Z</time></trkpt><trkpt lat="44.658436256268274" lon="10.089872946808638"><ele>386.0</ele><time>2026-05-03T07:41:47.999Z</time></trkpt><trkpt lat="44.65839078596226" lon="10.089705129059436"><ele>386.0</ele><time>2026-05-03T07:41:48.999Z</time></trkpt><trkpt lat="44.65836154338921" lon="10.089474094436062"><ele>386.0</ele><time>2026-05-03T07:41:49.999Z</time></trkpt><trkpt lat="44.65829406795609" lon="10.08919945963212"><ele>386.0</ele><time>2026-05-03T07:41:50.999Z</time></trkpt><trkpt lat="44.65821121621851" lon="10.08887970776128"><ele>386.0</ele><time>2026-05-03T07:41:51.999Z</time></trkpt><trkpt lat="44.65812777915405" lon="10.088540299204583"><ele>386.3333333333333</ele><time>2026-05-03T07:41:52.999Z</time></trkpt><trkpt lat="44.65811222442179" lon="10.088429279866164"><ele>386.66666666666663</ele><time>2026-05-03T07:41:53.999Z</time></trkpt><trkpt lat="44.65810495819508" lon="10.08815112777285"><ele>387.0</ele><time>2026-05-03T07:41:54.999Z</time></trkpt><trkpt lat="44.65811310015968" lon="10.08786207411296"><ele>386.25</ele><time>2026-05-03T07:41:55.999Z</time></trkpt><trkpt lat="44.65812709621154" lon="10.087619202525003"><ele>385.5</ele><time>2026-05-03T07:41:56.999Z</time></trkpt><trkpt lat="44.65815761139296" lon="10.087415464745728"><ele>384.75</ele><time>2026-05-03T07:41:57.999Z</time></trkpt><trkpt lat="44.658136094457554" lon="10.087259947637543"><ele>384.0</ele><time>2026-05-03T07:41:58.999Z</time></trkpt><trkpt lat="44.65809276512621" lon="10.087168139819308"><ele>384.0</ele><time>2026-05-03T07:41:59.999Z</time></trkpt><trkpt lat="44.65799768733434" lon="10.087163663753751"><ele>384.0</ele><time>2026-05-03T07:42:00.999Z</time></trkpt><trkpt lat="44.65791273746703" lon="10.087270025006205"><ele>384.0</ele><time>2026-05-03T07:42:02Z</time></trkpt><trkpt lat="44.65788582860657" lon="10.087469729899059"><ele>384.0</ele><time>2026-05-03T07:42:03Z</time></trkpt><trkpt lat="44.65784766145944" lon="10.087700258257973"><ele>393.0</ele><time>2026-05-03T07:42:04Z</time></trkpt><trkpt lat="44.65775492995307" lon="10.087967569980757"><ele>402.0</ele><time>2026-05-03T07:42:05Z</time></trkpt><trkpt lat="44.657684750334816" lon="10.088252044248742"><ele>411.0</ele><time>2026-05-03T07:42:06Z</time></trkpt><trkpt lat="44.65766857677132" lon="10.088488738386342"><ele>411.0</ele><time>2026-05-03T07:42:07Z</time></trkpt><trkpt lat="44.65765048865883" lon="10.088620927705291"><ele>411.0</ele><time>2026-05-03T07:42:08Z</time></trkpt><trkpt lat="44.657556319968194" lon="10.088628928758158"><ele>411.0</ele><time>2026-05-03T07:42:09Z</time></trkpt><trkpt lat="44.65748906214221" lon="10.088560475813752"><ele>411.0</ele><time>2026-05-03T07:42:10Z</time></trkpt><trkpt lat="44.65748729775345" lon="10.088441066319673"><ele>411.0</ele><time>2026-05-03T07:42:11Z</time></trkpt><trkpt lat="44.65748604680744" lon="10.088279126265528"><ele>411.33333333333337</ele><time>2026-05-03T07:42:12Z</time></trkpt><trkpt lat="44.65756661795377" lon="10.088075400841142"><ele>411.6666666666667</ele><time>2026-05-03T07:42:13Z</time></trkpt><trkpt lat="44.657615312214254" lon="10.08780719986076"><ele>412.0</ele><time>2026-05-03T07:42:14Z</time></trkpt><trkpt lat="44.65764363588132" lon="10.087609990836093"><ele>412.0</ele><time>2026-05-03T07:42:15Z</time></trkpt><trkpt lat="44.657606119282185" lon="10.087428488187907"><ele>412.0</ele><time>2026-05-03T07:42:16Z</time></trkpt><trkpt lat="44.657488599776" lon="10.087301387618703"><ele>412.0</ele><time>2026-05-03T07:42:17Z</time></trkpt><trkpt lat="44.65732017427865" lon="10.08725380670078"><ele>409.0</ele><time>2026-05-03T07:42:18Z</time></trkpt><trkpt lat="44.657117922257854" lon="10.087258289399745"><ele>406.0</ele><time>2026-05-03T07:42:19Z</time></trkpt><trkpt lat="44.65695361748874" lon="10.087221004189034"><ele>403.0</ele><time>2026-05-03T07:42:20Z</time></trkpt><trkpt lat="44.65687005217275" lon="10.0870423683836"><ele>408.33333333333337</ele><time>2026-05-03T07:42:21Z</time></trkpt><trkpt lat="44.65684499196276" lon="10.086823310853143"><ele>413.66666666666663</ele><time>2026-05-03T07:42:22Z</time></trkpt><trkpt lat="44.656781211710786" lon="10.08651992494486"><ele>419.0</ele><time>2026-05-03T07:42:23Z</time></trkpt><trkpt lat="44.65671810029311" lon="10.086231469045838"><ele>419.0</ele><time>2026-05-03T07:42:24Z</time></trkpt><trkpt lat="44.65663833487539" lon="10.086012422918314"><ele>419.0</ele><time>2026-05-03T07:42:25Z</time></trkpt><trkpt lat="44.65654712647708" lon="10.085874693537045"><ele>419.0</ele><time>2026-05-03T07:42:26Z</time></trkpt><trkpt lat="44.656386412270564" lon="10.085832044044475"><ele>419.0</ele><time>2026-05-03T07:42:27Z</time></trkpt><trkpt lat="44.65617693646498" lon="10.0858466768293"><ele>419.0</ele><time>2026-05-03T07:42:28Z</time></trkpt><trkpt lat="44.655970256195225" lon="10.085832700517976"><ele>419.0</ele><time>2026-05-03T07:42:29Z</time></trkpt><trkpt lat="44.655817332086514" lon="10.085784755865433"><ele>423.0</ele><time>2026-05-03T07:42:30Z</time></trkpt><trkpt lat="44.65573428285982" lon="10.085660455384165"><ele>427.0</ele><time>2026-05-03T07:42:31Z</time></trkpt><trkpt lat="44.65573817297849" lon="10.085501245193935"><ele>431.0</ele><time>2026-05-03T07:42:32Z</time></trkpt><trkpt lat="44.65574861467849" lon="10.085285513007639"><ele>435.0</ele><time>2026-05-03T07:42:33Z</time></trkpt><trkpt lat="44.65574282442245" lon="10.084967625446595"><ele>433.5</ele><time>2026-05-03T07:42:34Z</time></trkpt><trkpt lat="44.6557352205888" lon="10.084622011773833"><ele>432.0</ele><time>2026-05-03T07:42:35Z</time></trkpt><trkpt lat="44.65572434963641" lon="10.084325603073367"><ele>432.0</ele><time>2026-05-03T07:42:36Z</time></trkpt><trkpt lat="44.65567650926969" lon="10.08413098248499"><ele>432.0</ele><time>2026-05-03T07:42:37Z</time></trkpt><trkpt lat="44.65559945935697" lon="10.083974425403268"><ele>432.0</ele><time>2026-05-03T07:42:38Z</time></trkpt><trkpt lat="44.65545954258099" lon="10.083900849444445"><ele>432.0</ele><time>2026-05-03T07:42:39Z</time></trkpt><trkpt lat="44.655285448325856" lon="10.0839240665954"><ele>431.66666666666663</ele><time>2026-05-03T07:42:40Z</time></trkpt><trkpt lat="44.65507435272164" lon="10.083996426975833"><ele>431.3333333333333</ele><time>2026-05-03T07:42:41Z</time></trkpt><trkpt lat="44.65486682676401" lon="10.08400336576768"><ele>431.0</ele><time>2026-05-03T07:42:42Z</time></trkpt><trkpt lat="44.65471166564809" lon="10.083837561944154"><ele>431.0</ele><time>2026-05-03T07:42:43Z</time></trkpt><trkpt lat="44.654578214334386" lon="10.083638362762704"><ele>431.0</ele><time>2026-05-03T07:42:44Z</time></trkpt><trkpt lat="44.65440225139266" lon="10.083484596327633"><ele>431.0</ele><time>2026-05-03T07:42:45Z</time></trkpt><trkpt lat="44.65422063819309" lon="10.08334635964736"><ele>432.5</ele><time>2026-05-03T07:42:46Z</time></trkpt><trkpt lat="44.65397475592736" lon="10.083282123717938"><ele>434.0</ele><time>2026-05-03T07:42:47Z</time></trkpt><trkpt lat="44.65375831117705" lon="10.083162040069661"><ele>440.0</ele><time>2026-05-03T07:42:48Z</time></trkpt><trkpt lat="44.653548766907136" lon="10.082996731274571"><ele>446.0</ele><time>2026-05-03T07:42:49Z</time></trkpt><trkpt lat="44.653359298637525" lon="10.08287078695073"><ele>446.0</ele><time>2026-05-03T07:42:50Z</time></trkpt><trkpt lat="44.65318539271696" lon="10.082776251741416"><ele>446.0</ele><time>2026-05-03T07:42:51Z</time></trkpt><trkpt lat="44.65299925273549" lon="10.082708638700783"><ele>446.0</ele><time>2026-05-03T07:42:52Z</time></trkpt><trkpt lat="44.6527652365412" lon="10.082836176042823"><ele>449.66666666666663</ele><time>2026-05-03T07:42:53Z</time></trkpt><trkpt lat="44.65258160791849" lon="10.082791827359186"><ele>453.33333333333337</ele><time>2026-05-03T07:42:54Z</time></trkpt><trkpt lat="44.65242875229428" lon="10.082712446033904"><ele>457.0</ele><time>2026-05-03T07:42:55Z</time></trkpt><trkpt lat="44.652338401099755" lon="10.082608442093449"><ele>457.0</ele><time>2026-05-03T07:42:56Z</time></trkpt><trkpt lat="44.65230925520303" lon="10.08245511952047"><ele>457.0</ele><time>2026-05-03T07:42:57Z</time></trkpt><trkpt lat="44.65222947514512" lon="10.0822143633114"><ele>457.0</ele><time>2026-05-03T07:42:58Z</time></trkpt><trkpt lat="44.652099074011254" lon="10.081982469706416"><ele>458.6666666666667</ele><time>2026-05-03T07:42:59Z</time></trkpt><trkpt lat="44.65192728428821" lon="10.081799737857501"><ele>460.33333333333337</ele><time>2026-05-03T07:43:00Z</time></trkpt><trkpt lat="44.65172298973325" lon="10.081654861641463"><ele>462.0</ele><time>2026-05-03T07:43:01Z</time></trkpt><trkpt lat="44.6514637324904" lon="10.081578145489491"><ele>460.5</ele><time>2026-05-03T07:43:02Z</time></trkpt><trkpt lat="44.65117987284445" lon="10.081554506043515"><ele>459.0</ele><time>2026-05-03T07:43:03Z</time></trkpt><trkpt lat="44.65091074056479" lon="10.081552094014006"><ele>459.0</ele><time>2026-05-03T07:43:04Z</time></trkpt><trkpt lat="44.65068426972923" lon="10.08153262663294"><ele>459.0</ele><time>2026-05-03T07:43:05Z</time></trkpt><trkpt lat="44.65049755359164" lon="10.081448563969444"><ele>459.0</ele><time>2026-05-03T07:43:06Z</time></trkpt><trkpt lat="44.65034060410331" lon="10.081313718191657"><ele>466.0</ele><time>2026-05-03T07:43:07Z</time></trkpt><trkpt lat="44.65015269943552" lon="10.081137183512833"><ele>473.0</ele><time>2026-05-03T07:43:07.999Z</time></trkpt><trkpt lat="44.64994258627763" lon="10.08101461626482"><ele>473.0</ele><time>2026-05-03T07:43:08.999Z</time></trkpt><trkpt lat="44.64973476773624" lon="10.080923140941392"><ele>473.0</ele><time>2026-05-03T07:43:09.999Z</time></trkpt><trkpt lat="44.64949430996699" lon="10.080896349442739"><ele>471.66666666666663</ele><time>2026-05-03T07:43:10.999Z</time></trkpt><trkpt lat="44.64929214892452" lon="10.080797091241543"><ele>470.33333333333337</ele><time>2026-05-03T07:43:11.999Z</time></trkpt><trkpt lat="44.649113121758965" lon="10.080736444017342"><ele>469.0</ele><time>2026-05-03T07:43:12.999Z</time></trkpt><trkpt lat="44.64897364200589" lon="10.08071337368276"><ele>473.6666666666667</ele><time>2026-05-03T07:43:13.999Z</time></trkpt><trkpt lat="44.64882963995168" lon="10.080791840632141"><ele>478.33333333333337</ele><time>2026-05-03T07:43:14.999Z</time></trkpt><trkpt lat="44.648684359894126" lon="10.080979292947182"><ele>483.0</ele><time>2026-05-03T07:43:15.999Z</time></trkpt><trkpt lat="44.64855221991843" lon="10.08120801055843"><ele>483.0</ele><time>2026-05-03T07:43:16.999Z</time></trkpt><trkpt lat="44.648410172440485" lon="10.081426975365813"><ele>483.0</ele><time>2026-05-03T07:43:17.999Z</time></trkpt><trkpt lat="44.64826880221079" lon="10.081606148328184"><ele>483.0</ele><time>2026-05-03T07:43:18.999Z</time></trkpt><trkpt lat="44.64813856563699" lon="10.081774246918565"><ele>486.66666666666663</ele><time>2026-05-03T07:43:19.999Z</time></trkpt><trkpt lat="44.64800955936934" lon="10.081949026509461"><ele>490.3333333333333</ele><time>2026-05-03T07:43:20.999Z</time></trkpt><trkpt lat="44.64790375493383" lon="10.0821019974907"><ele>494.0</ele><time>2026-05-03T07:43:21.999Z</time></trkpt><trkpt lat="44.64778791194177" lon="10.082180629169839"><ele>496.75</ele><time>2026-05-03T07:43:22.999Z</time></trkpt><trkpt lat="44.647693527150764" lon="10.082226424225155"><ele>499.5</ele><time>2026-05-03T07:43:23.999Z</time></trkpt><trkpt lat="44.647628848227235" lon="10.082105090831634"><ele>502.25</ele><time>2026-05-03T07:43:24.999Z</time></trkpt><trkpt lat="44.64754254483495" lon="10.081996668240565"><ele>505.0</ele><time>2026-05-03T07:43:25.999Z</time></trkpt><trkpt lat="44.647428292312355" lon="10.081813643655039"><ele>495.5</ele><time>2026-05-03T07:43:26.999Z</time></trkpt><trkpt lat="44.64732597667888" lon="10.081554185689006"><ele>486.0</ele><time>2026-05-03T07:43:27.999Z</time></trkpt><trkpt lat="44.647190780367495" lon="10.081273481592067"><ele>486.0</ele><time>2026-05-03T07:43:28.999Z</time></trkpt><trkpt lat="44.64703615234896" lon="10.081011803419953"><ele>486.0</ele><time>2026-05-03T07:43:29.999Z</time></trkpt><trkpt lat="44.64689749235669" lon="10.080786893037164"><ele>488.66666666666663</ele><time>2026-05-03T07:43:30.999Z</time></trkpt><trkpt lat="44.646758063943714" lon="10.080624700927885"><ele>491.3333333333333</ele><time>2026-05-03T07:43:31.999Z</time></trkpt><trkpt lat="44.64660265024066" lon="10.080465466447277"><ele>494.0</ele><time>2026-05-03T07:43:32.999Z</time></trkpt><trkpt lat="44.6463962570267" lon="10.080331025702048"><ele>494.0</ele><time>2026-05-03T07:43:33.999Z</time></trkpt><trkpt lat="44.64616727371234" lon="10.080195007081405"><ele>494.0</ele><time>2026-05-03T07:43:34.999Z</time></trkpt><trkpt lat="44.64593894137687" lon="10.08003821271255"><ele>496.5</ele><time>2026-05-03T07:43:35.999Z</time></trkpt><trkpt lat="44.64571689599288" lon="10.07988365462839"><ele>499.0</ele><time>2026-05-03T07:43:36.999Z</time></trkpt><trkpt lat="44.64549335367342" lon="10.0797506131177"><ele>509.0</ele><time>2026-05-03T07:43:37.999Z</time></trkpt><trkpt lat="44.64525683709507" lon="10.079639643106376"><ele>519.0</ele><time>2026-05-03T07:43:38.999Z</time></trkpt><trkpt lat="44.64502466923279" lon="10.0795416688584"><ele>519.0</ele><time>2026-05-03T07:43:39.999Z</time></trkpt><trkpt lat="44.64480420278055" lon="10.079444934914731"><ele>519.0</ele><time>2026-05-03T07:43:40.999Z</time></trkpt><trkpt lat="44.64460438617102" lon="10.079358055067093"><ele>519.0</ele><time>2026-05-03T07:43:41.999Z</time></trkpt><trkpt lat="44.64444743249431" lon="10.079223552828482"><ele>526.6666666666666</ele><time>2026-05-03T07:43:42.999Z</time></trkpt><trkpt lat="44.64433650962813" lon="10.07904912382769"><ele>534.3333333333333</ele><time>2026-05-03T07:43:43.999Z</time></trkpt><trkpt lat="44.64428800557769" lon="10.078853034377133"><ele>542.0</ele><time>2026-05-03T07:43:44.999Z</time></trkpt><trkpt lat="44.64427407075814" lon="10.078613909192121"><ele>542.0</ele><time>2026-05-03T07:43:45.999Z</time></trkpt><trkpt lat="44.64427716093268" lon="10.078313227861772"><ele>542.0</ele><time>2026-05-03T07:43:46.999Z</time></trkpt><trkpt lat="44.64427733416153" lon="10.07801456616344"><ele>542.0</ele><time>2026-05-03T07:43:47.999Z</time></trkpt><trkpt lat="44.6442622785482" lon="10.077762203212515"><ele>541.0</ele><time>2026-05-03T07:43:48.999Z</time></trkpt><trkpt lat="44.64419405665256" lon="10.077554876925253"><ele>540.0</ele><time>2026-05-03T07:43:49.999Z</time></trkpt><trkpt lat="44.644076206073954" lon="10.077410155832323"><ele>539.0</ele><time>2026-05-03T07:43:50.999Z</time></trkpt><trkpt lat="44.64390829454923" lon="10.07733070100032"><ele>538.3333333333333</ele><time>2026-05-03T07:43:51.999Z</time></trkpt><trkpt lat="44.64367304671112" lon="10.0773148040344"><ele>537.6666666666666</ele><time>2026-05-03T07:43:52.999Z</time></trkpt><trkpt lat="44.64351949275265" lon="10.077250847843464"><ele>537.0</ele><time>2026-05-03T07:43:53.999Z</time></trkpt><trkpt lat="44.64339153758766" lon="10.077232487131916"><ele>537.0</ele><time>2026-05-03T07:43:54.999Z</time></trkpt><trkpt lat="44.64326919868753" lon="10.07730716103514"><ele>537.0</ele><time>2026-05-03T07:43:55.999Z</time></trkpt><trkpt lat="44.643167305338466" lon="10.077503509980504"><ele>537.0</ele><time>2026-05-03T07:43:56.999Z</time></trkpt><trkpt lat="44.64307809829688" lon="10.077749744280547"><ele>540.3333333333334</ele><time>2026-05-03T07:43:57.999Z</time></trkpt><trkpt lat="44.64296796699829" lon="10.077986708131137"><ele>543.6666666666667</ele><time>2026-05-03T07:43:58.999Z</time></trkpt><trkpt lat="44.64280311998374" lon="10.078164447893606"><ele>547.0</ele><time>2026-05-03T07:43:59.999Z</time></trkpt><trkpt lat="44.64262712872392" lon="10.078284209502868"><ele>547.0</ele><time>2026-05-03T07:44:00.999Z</time></trkpt><trkpt lat="44.64244170771276" lon="10.078347712605963"><ele>547.0</ele><time>2026-05-03T07:44:01.999Z</time></trkpt><trkpt lat="44.64225857342414" lon="10.078317637586926"><ele>547.0</ele><time>2026-05-03T07:44:02.999Z</time></trkpt><trkpt lat="44.64206557035973" lon="10.078258140063584"><ele>550.0</ele><time>2026-05-03T07:44:03.999Z</time></trkpt><trkpt lat="44.64184329358595" lon="10.078157206331168"><ele>553.0</ele><time>2026-05-03T07:44:04.999Z</time></trkpt><trkpt lat="44.64165824413118" lon="10.078089057645448"><ele>556.0</ele><time>2026-05-03T07:44:05.999Z</time></trkpt><trkpt lat="44.64152935153844" lon="10.078050737187404"><ele>556.0</ele><time>2026-05-03T07:44:06.999Z</time></trkpt><trkpt lat="44.641401037051494" lon="10.078088988425078"><ele>556.0</ele><time>2026-05-03T07:44:08Z</time></trkpt><trkpt lat="44.64124601788144" lon="10.078256055571295"><ele>556.0</ele><time>2026-05-03T07:44:09Z</time></trkpt><trkpt lat="44.64106527800109" lon="10.078457085366884"><ele>562.0</ele><time>2026-05-03T07:44:10Z</time></trkpt><trkpt lat="44.640874462040756" lon="10.078639142610067"><ele>568.0</ele><time>2026-05-03T07:44:11Z</time></trkpt><trkpt lat="44.640681701389965" lon="10.078815428081565"><ele>568.0</ele><time>2026-05-03T07:44:12Z</time></trkpt><trkpt lat="44.640511812326" lon="10.078968354465724"><ele>568.0</ele><time>2026-05-03T07:44:13Z</time></trkpt><trkpt lat="44.64035836894677" lon="10.079114896797849"><ele>568.0</ele><time>2026-05-03T07:44:14Z</time></trkpt><trkpt lat="44.640198986835195" lon="10.079174541377148"><ele>571.3333333333334</ele><time>2026-05-03T07:44:15Z</time></trkpt><trkpt lat="44.64000820061567" lon="10.079196467515454"><ele>574.6666666666666</ele><time>2026-05-03T07:44:16Z</time></trkpt><trkpt lat="44.63977597788045" lon="10.07919045229141"><ele>578.0</ele><time>2026-05-03T07:44:17Z</time></trkpt><trkpt lat="44.63953601319398" lon="10.079177881320273"><ele>579.0</ele><time>2026-05-03T07:44:18Z</time></trkpt><trkpt lat="44.63935807624032" lon="10.079168965221838"><ele>580.0</ele><time>2026-05-03T07:44:19Z</time></trkpt><trkpt lat="44.63920840730527" lon="10.07916217073422"><ele>581.0</ele><time>2026-05-03T07:44:20Z</time></trkpt><trkpt lat="44.63879816539871" lon="10.079190724034166"><ele>580.5</ele><time>2026-05-03T07:44:21Z</time></trkpt><trkpt lat="44.63854727048373" lon="10.079226481572451"><ele>580.0</ele><time>2026-05-03T07:44:22Z</time></trkpt><trkpt lat="44.63830361048372" lon="10.07928642423624"><ele>580.0</ele><time>2026-05-03T07:44:23Z</time></trkpt><trkpt lat="44.638078050359766" lon="10.079348636856334"><ele>580.0</ele><time>2026-05-03T07:44:24Z</time></trkpt><trkpt lat="44.63786574288692" lon="10.079375367085676"><ele>580.0</ele><time>2026-05-03T07:44:25Z</time></trkpt><trkpt lat="44.63765731619083" lon="10.079421802787017"><ele>580.6666666666667</ele><time>2026-05-03T07:44:26Z</time></trkpt><trkpt lat="44.63746118173309" lon="10.079465499884456"><ele>581.3333333333334</ele><time>2026-05-03T07:44:27Z</time></trkpt><trkpt lat="44.637283707310274" lon="10.079505255291343"><ele>582.0</ele><time>2026-05-03T07:44:28Z</time></trkpt><trkpt lat="44.63711900054328" lon="10.079542289210973"><ele>581.3333333333334</ele><time>2026-05-03T07:44:29Z</time></trkpt><trkpt lat="44.63696151474189" lon="10.079562543785627"><ele>580.6666666666667</ele><time>2026-05-03T07:44:30Z</time></trkpt><trkpt lat="44.63680197080247" lon="10.079530444417447"><ele>580.0</ele><time>2026-05-03T07:44:31Z</time></trkpt><trkpt lat="44.63662704016909" lon="10.079487570168313"><ele>580.0</ele><time>2026-05-03T07:44:32Z</time></trkpt><trkpt lat="44.636447773505104" lon="10.079445073508563"><ele>580.0</ele><time>2026-05-03T07:44:33Z</time></trkpt><trkpt lat="44.63625983388398" lon="10.079401562377322"><ele>580.0</ele><time>2026-05-03T07:44:34Z</time></trkpt><trkpt lat="44.636076149473446" lon="10.079357286010111"><ele>582.0</ele><time>2026-05-03T07:44:35Z</time></trkpt><trkpt lat="44.63591148892551" lon="10.079303319795473"><ele>584.0</ele><time>2026-05-03T07:44:36Z</time></trkpt><trkpt lat="44.63575248915842" lon="10.079229970223588"><ele>586.0</ele><time>2026-05-03T07:44:37Z</time></trkpt><trkpt lat="44.63559552195324" lon="10.079124021795552"><ele>585.0</ele><time>2026-05-03T07:44:38Z</time></trkpt><trkpt lat="44.63544508300669" lon="10.078999024792864"><ele>584.0</ele><time>2026-05-03T07:44:39Z</time></trkpt><trkpt lat="44.635290133322115" lon="10.078871207389605"><ele>583.0</ele><time>2026-05-03T07:44:40Z</time></trkpt><trkpt lat="44.63512926673645" lon="10.078786385544904"><ele>583.0</ele><time>2026-05-03T07:44:41Z</time></trkpt><trkpt lat="44.634978864411686" lon="10.078710276691401"><ele>583.0</ele><time>2026-05-03T07:44:42Z</time></trkpt><trkpt lat="44.63483360490599" lon="10.078688455635886"><ele>583.0</ele><time>2026-05-03T07:44:43Z</time></trkpt><trkpt lat="44.63471395063589" lon="10.078690925733017"><ele>583.0</ele><time>2026-05-03T07:44:44Z</time></trkpt><trkpt lat="44.6345288976638" lon="10.078717910922691"><ele>584.0</ele><time>2026-05-03T07:44:45Z</time></trkpt><trkpt lat="44.6343591334549" lon="10.078747423135939"><ele>585.0</ele><time>2026-05-03T07:44:46Z</time></trkpt><trkpt lat="44.63418813234035" lon="10.078769154311985"><ele>586.0</ele><time>2026-05-03T07:44:47Z</time></trkpt><trkpt lat="44.6340428543013" lon="10.078788659841758"><ele>586.0</ele><time>2026-05-03T07:44:48Z</time></trkpt><trkpt lat="44.63386810795166" lon="10.078813102212196"><ele>586.0</ele><time>2026-05-03T07:44:49Z</time></trkpt><trkpt lat="44.63370356134329" lon="10.078855536637173"><ele>586.0</ele><time>2026-05-03T07:44:50Z</time></trkpt><trkpt lat="44.63357006764223" lon="10.078854144202854"><ele>586.6666666666667</ele><time>2026-05-03T07:44:51Z</time></trkpt><trkpt lat="44.63340584507087" lon="10.078876701184596"><ele>587.3333333333334</ele><time>2026-05-03T07:44:52Z</time></trkpt><trkpt lat="44.633218879832484" lon="10.07890238200411"><ele>588.0</ele><time>2026-05-03T07:44:53Z</time></trkpt><trkpt lat="44.633017060321215" lon="10.078930103155846"><ele>590.0</ele><time>2026-05-03T07:44:54Z</time></trkpt><trkpt lat="44.63279842844939" lon="10.078960133588478"><ele>592.0</ele><time>2026-05-03T07:44:55Z</time></trkpt><trkpt lat="44.63257940621129" lon="10.0789907666715"><ele>594.0</ele><time>2026-05-03T07:44:56Z</time></trkpt><trkpt lat="44.63234835914827" lon="10.079024435552752"><ele>594.0</ele><time>2026-05-03T07:44:57Z</time></trkpt><trkpt lat="44.63212297881084" lon="10.079057278667399"><ele>594.0</ele><time>2026-05-03T07:44:58Z</time></trkpt><trkpt lat="44.63189730126352" lon="10.07909016513032"><ele>594.3333333333334</ele><time>2026-05-03T07:44:59Z</time></trkpt><trkpt lat="44.63170956290248" lon="10.079134233474893"><ele>594.6666666666667</ele><time>2026-05-03T07:45:00Z</time></trkpt><trkpt lat="44.631553207345064" lon="10.079079827665918"><ele>595.0</ele><time>2026-05-03T07:45:01Z</time></trkpt><trkpt lat="44.63141130305402" lon="10.078948923505783"><ele>597.0</ele><time>2026-05-03T07:45:02Z</time></trkpt><trkpt lat="44.63127294371857" lon="10.078734038896783"><ele>599.0</ele><time>2026-05-03T07:45:03Z</time></trkpt><trkpt lat="44.63114079138527" lon="10.078498207783607"><ele>601.0</ele><time>2026-05-03T07:45:04Z</time></trkpt><trkpt lat="44.631011382934204" lon="10.078327096056121"><ele>602.0</ele><time>2026-05-03T07:45:05Z</time></trkpt><trkpt lat="44.63088865749735" lon="10.078212086444033"><ele>603.0</ele><time>2026-05-03T07:45:06Z</time></trkpt><trkpt lat="44.63076199862315" lon="10.078168135746417"><ele>604.0</ele><time>2026-05-03T07:45:07Z</time></trkpt><trkpt lat="44.63061750865661" lon="10.078200018592494"><ele>605.0</ele><time>2026-05-03T07:45:08Z</time></trkpt><trkpt lat="44.63046875097858" lon="10.078292894096746"><ele>605.0</ele><time>2026-05-03T07:45:09Z</time></trkpt><trkpt lat="44.6303559872653" lon="10.078403718439708"><ele>605.0</ele><time>2026-05-03T07:45:10Z</time></trkpt><trkpt lat="44.63025833780261" lon="10.078516991408016"><ele>605.0</ele><time>2026-05-03T07:45:11Z</time></trkpt><trkpt lat="44.63016297453399" lon="10.078650417214225"><ele>605.0</ele><time>2026-05-03T07:45:12Z</time></trkpt><trkpt lat="44.630084957317806" lon="10.078818761463236"><ele>604.75</ele><time>2026-05-03T07:45:13Z</time></trkpt><trkpt lat="44.62998884666699" lon="10.078964272845045"><ele>604.5</ele><time>2026-05-03T07:45:14Z</time></trkpt><trkpt lat="44.62987787483522" lon="10.079048700463451"><ele>604.25</ele><time>2026-05-03T07:45:15Z</time></trkpt><trkpt lat="44.62974437360096" lon="10.07910398549752"><ele>604.0</ele><time>2026-05-03T07:45:15.999Z</time></trkpt><trkpt lat="44.629580368704296" lon="10.079104642476691"><ele>614.5</ele><time>2026-05-03T07:45:16.999Z</time></trkpt><trkpt lat="44.62936456826612" lon="10.079090580809472"><ele>625.0</ele><time>2026-05-03T07:45:17.999Z</time></trkpt><trkpt lat="44.629128025695444" lon="10.079074001281187"><ele>625.0</ele><time>2026-05-03T07:45:18.999Z</time></trkpt><trkpt lat="44.628949878979995" lon="10.079088592936353"><ele>625.0</ele><time>2026-05-03T07:45:19.999Z</time></trkpt><trkpt lat="44.62879875512365" lon="10.079159761374529"><ele>625.0</ele><time>2026-05-03T07:45:20.999Z</time></trkpt><trkpt lat="44.62870654376026" lon="10.079343199017067"><ele>623.0</ele><time>2026-05-03T07:45:21.999Z</time></trkpt><trkpt lat="44.62865185691742" lon="10.079571009139107"><ele>621.0</ele><time>2026-05-03T07:45:22.999Z</time></trkpt><trkpt lat="44.6286598821669" lon="10.079821396228416"><ele>619.0</ele><time>2026-05-03T07:45:23.999Z</time></trkpt><trkpt lat="44.62863616117335" lon="10.080013616404138"><ele>619.0</ele><time>2026-05-03T07:45:24.999Z</time></trkpt><trkpt lat="44.62852513555003" lon="10.08009727806067"><ele>619.0</ele><time>2026-05-03T07:45:25.999Z</time></trkpt><trkpt lat="44.62839082720739" lon="10.080109533965498"><ele>619.0</ele><time>2026-05-03T07:45:26.999Z</time></trkpt><trkpt lat="44.62825843175223" lon="10.079994484743809"><ele>619.0</ele><time>2026-05-03T07:45:27.999Z</time></trkpt><trkpt lat="44.628178381617964" lon="10.07979368925683"><ele>622.0</ele><time>2026-05-03T07:45:28.999Z</time></trkpt><trkpt lat="44.62804425186387" lon="10.079631876572885"><ele>625.0</ele><time>2026-05-03T07:45:29.999Z</time></trkpt><trkpt lat="44.627874810237024" lon="10.079556373441454"><ele>628.0</ele><time>2026-05-03T07:45:30.999Z</time></trkpt><trkpt lat="44.6276709152916" lon="10.079556264726008"><ele>629.6666666666667</ele><time>2026-05-03T07:45:31.999Z</time></trkpt><trkpt lat="44.62749556377103" lon="10.079535327492492"><ele>631.3333333333334</ele><time>2026-05-03T07:45:32.999Z</time></trkpt><trkpt lat="44.62725167178071" lon="10.079487707418316"><ele>633.0</ele><time>2026-05-03T07:45:33.999Z</time></trkpt><trkpt lat="44.62711576198421" lon="10.079334502582535"><ele>634.0</ele><time>2026-05-03T07:45:34.999Z</time></trkpt><trkpt lat="44.626957435765746" lon="10.079172777432332"><ele>635.0</ele><time>2026-05-03T07:45:35.999Z</time></trkpt><trkpt lat="44.62679069274581" lon="10.079005226055367"><ele>636.0</ele><time>2026-05-03T07:45:36.999Z</time></trkpt><trkpt lat="44.626618367975375" lon="10.07883377005957"><ele>636.0</ele><time>2026-05-03T07:45:37.999Z</time></trkpt><trkpt lat="44.62644678881584" lon="10.078665851413696"><ele>636.0</ele><time>2026-05-03T07:45:38.999Z</time></trkpt><trkpt lat="44.62626891344803" lon="10.078522578536413"><ele>636.0</ele><time>2026-05-03T07:45:39.999Z</time></trkpt><trkpt lat="44.62609251404577" lon="10.078392116628825"><ele>635.0</ele><time>2026-05-03T07:45:40.999Z</time></trkpt><trkpt lat="44.62591201309573" lon="10.078314787305887"><ele>634.0</ele><time>2026-05-03T07:45:41.999Z</time></trkpt><trkpt lat="44.62572104212678" lon="10.078320004702666"><ele>633.0</ele><time>2026-05-03T07:45:42.999Z</time></trkpt><trkpt lat="44.62552476433834" lon="10.078411526252408"><ele>633.0</ele><time>2026-05-03T07:45:43.999Z</time></trkpt><trkpt lat="44.62534045958674" lon="10.078565799783076"><ele>633.0</ele><time>2026-05-03T07:45:44.999Z</time></trkpt><trkpt lat="44.625162409679646" lon="10.07872739910194"><ele>633.0</ele><time>2026-05-03T07:45:45.999Z</time></trkpt><trkpt lat="44.62498104578357" lon="10.078862628083316"><ele>634.3333333333334</ele><time>2026-05-03T07:45:46.999Z</time></trkpt><trkpt lat="44.62480693574813" lon="10.078985591628097"><ele>635.6666666666667</ele><time>2026-05-03T07:45:47.999Z</time></trkpt><trkpt lat="44.624657052229956" lon="10.079071070187155"><ele>637.0</ele><time>2026-05-03T07:45:48.999Z</time></trkpt><trkpt lat="44.624516847945465" lon="10.07911421271596"><ele>640.6666666666667</ele><time>2026-05-03T07:45:49.999Z</time></trkpt><trkpt lat="44.62441479082156" lon="10.078998916356547"><ele>644.3333333333334</ele><time>2026-05-03T07:45:50.999Z</time></trkpt><trkpt lat="44.624268454884806" lon="10.078875255511514"><ele>648.0</ele><time>2026-05-03T07:45:51.999Z</time></trkpt><trkpt lat="44.62413085426946" lon="10.078740093258423"><ele>648.0</ele><time>2026-05-03T07:45:52.999Z</time></trkpt><trkpt lat="44.624065637824756" lon="10.078581116473558"><ele>648.0</ele><time>2026-05-03T07:45:53.999Z</time></trkpt><trkpt lat="44.624080665366414" lon="10.07838019838182"><ele>648.0</ele><time>2026-05-03T07:45:54.999Z</time></trkpt><trkpt lat="44.62405887587858" lon="10.078092863768699"><ele>648.6666666666666</ele><time>2026-05-03T07:45:55.999Z</time></trkpt><trkpt lat="44.623989095510716" lon="10.077871617421847"><ele>649.3333333333333</ele><time>2026-05-03T07:45:56.999Z</time></trkpt><trkpt lat="44.62385032231003" lon="10.077699622328925"><ele>650.0</ele><time>2026-05-03T07:45:57.999Z</time></trkpt><trkpt lat="44.62368444942376" lon="10.077550102715167"><ele>649.6666666666666</ele><time>2026-05-03T07:45:58.999Z</time></trkpt><trkpt lat="44.62361021376666" lon="10.077363193718009"><ele>649.3333333333334</ele><time>2026-05-03T07:45:59.999Z</time></trkpt><trkpt lat="44.62363715732258" lon="10.077170655788352"><ele>649.0</ele><time>2026-05-03T07:46:00.999Z</time></trkpt><trkpt lat="44.62365630954708" lon="10.076901820550425"><ele>649.0</ele><time>2026-05-03T07:46:01.999Z</time></trkpt><trkpt lat="44.62363691701134" lon="10.076635680934457"><ele>649.0</ele><time>2026-05-03T07:46:02.999Z</time></trkpt><trkpt lat="44.62357852409721" lon="10.07643645490163"><ele>649.0</ele><time>2026-05-03T07:46:03.999Z</time></trkpt><trkpt lat="44.62346348224808" lon="10.076265287248537"><ele>650.3333333333334</ele><time>2026-05-03T07:46:04.999Z</time></trkpt><trkpt lat="44.623282096819054" lon="10.076115425268348"><ele>651.6666666666666</ele><time>2026-05-03T07:46:05.999Z</time></trkpt><trkpt lat="44.62308047783379" lon="10.076001343370352"><ele>653.0</ele><time>2026-05-03T07:46:06.999Z</time></trkpt><trkpt lat="44.6228678371754" lon="10.075931921345399"><ele>654.3333333333333</ele><time>2026-05-03T07:46:07.999Z</time></trkpt><trkpt lat="44.62265479860797" lon="10.075934416167378"><ele>655.6666666666666</ele><time>2026-05-03T07:46:08.999Z</time></trkpt><trkpt lat="44.62246374644532" lon="10.076022323679421"><ele>657.0</ele><time>2026-05-03T07:46:09.999Z</time></trkpt><trkpt lat="44.622328986716504" lon="10.076197667460622"><ele>657.0</ele><time>2026-05-03T07:46:10.999Z</time></trkpt><trkpt lat="44.62222913331148" lon="10.076398456023803"><ele>657.0</ele><time>2026-05-03T07:46:11.999Z</time></trkpt><trkpt lat="44.62214258830321" lon="10.076538441567784"><ele>657.0</ele><time>2026-05-03T07:46:12.999Z</time></trkpt><trkpt lat="44.6220248904348" lon="10.076504245604923"><ele>657.0</ele><time>2026-05-03T07:46:14Z</time></trkpt><trkpt lat="44.621961707488595" lon="10.076354252623899"><ele>657.0</ele><time>2026-05-03T07:46:15Z</time></trkpt><trkpt lat="44.621841540589536" lon="10.076185121314259"><ele>657.0</ele><time>2026-05-03T07:46:16Z</time></trkpt><trkpt lat="44.62168506736992" lon="10.075966024774702"><ele>657.0</ele><time>2026-05-03T07:46:17Z</time></trkpt><trkpt lat="44.62152914764398" lon="10.07574884112077"><ele>657.0</ele><time>2026-05-03T07:46:18Z</time></trkpt><trkpt lat="44.621394075577705" lon="10.075564877566302"><ele>657.0</ele><time>2026-05-03T07:46:19Z</time></trkpt><trkpt lat="44.62127866360953" lon="10.075402578844422"><ele>657.0</ele><time>2026-05-03T07:46:20Z</time></trkpt><trkpt lat="44.62116714969878" lon="10.07524927153716"><ele>658.5</ele><time>2026-05-03T07:46:21Z</time></trkpt><trkpt lat="44.621063785446964" lon="10.075103008947558"><ele>660.0</ele><time>2026-05-03T07:46:22Z</time></trkpt><trkpt lat="44.620982836767716" lon="10.074954413434947"><ele>661.5</ele><time>2026-05-03T07:46:23Z</time></trkpt><trkpt lat="44.62091468248846" lon="10.07479069504199"><ele>663.0</ele><time>2026-05-03T07:46:24Z</time></trkpt><trkpt lat="44.620857065913356" lon="10.074644970209224"><ele>663.0</ele><time>2026-05-03T07:46:25Z</time></trkpt><trkpt lat="44.6207988929034" lon="10.07451520949221"><ele>663.0</ele><time>2026-05-03T07:46:26Z</time></trkpt><trkpt lat="44.62073325363846" lon="10.074382029942079"><ele>663.0</ele><time>2026-05-03T07:46:27Z</time></trkpt><trkpt lat="44.6206104368455" lon="10.074295359691318"><ele>663.0</ele><time>2026-05-03T07:46:28Z</time></trkpt><trkpt lat="44.6204414727086" lon="10.074209847167818"><ele>667.6666666666666</ele><time>2026-05-03T07:46:29Z</time></trkpt><trkpt lat="44.62022904756519" lon="10.074083245129062"><ele>672.3333333333333</ele><time>2026-05-03T07:46:30Z</time></trkpt><trkpt lat="44.62004652042737" lon="10.073964837310548"><ele>677.0</ele><time>2026-05-03T07:46:31Z</time></trkpt><trkpt lat="44.61990760369717" lon="10.073791138753935"><ele>677.0</ele><time>2026-05-03T07:46:32Z</time></trkpt><trkpt lat="44.619835047578526" lon="10.073586911089144"><ele>677.0</ele><time>2026-05-03T07:46:33Z</time></trkpt><trkpt lat="44.61981005344369" lon="10.073342266359015"><ele>677.0</ele><time>2026-05-03T07:46:34Z</time></trkpt><trkpt lat="44.61982578990575" lon="10.073073726204496"><ele>676.75</ele><time>2026-05-03T07:46:35Z</time></trkpt><trkpt lat="44.619844889325435" lon="10.072792448959342"><ele>676.5</ele><time>2026-05-03T07:46:36Z</time></trkpt><trkpt lat="44.61987019694483" lon="10.072581796562853"><ele>676.25</ele><time>2026-05-03T07:46:37Z</time></trkpt><trkpt lat="44.619840563559144" lon="10.072467065893267"><ele>676.0</ele><time>2026-05-03T07:46:38Z</time></trkpt><trkpt lat="44.619783735748285" lon="10.07236103247125"><ele>678.3333333333334</ele><time>2026-05-03T07:46:39Z</time></trkpt><trkpt lat="44.619643585109486" lon="10.072311082807463"><ele>680.6666666666666</ele><time>2026-05-03T07:46:40Z</time></trkpt><trkpt lat="44.61946918726619" lon="10.072316988685758"><ele>683.0</ele><time>2026-05-03T07:46:41Z</time></trkpt><trkpt lat="44.619267174930165" lon="10.07231892678234"><ele>683.0</ele><time>2026-05-03T07:46:42Z</time></trkpt><trkpt lat="44.619067328760295" lon="10.07230028798199"><ele>683.0</ele><time>2026-05-03T07:46:43Z</time></trkpt><trkpt lat="44.618847912132615" lon="10.072269567963014"><ele>683.0</ele><time>2026-05-03T07:46:44Z</time></trkpt><trkpt lat="44.61864046127114" lon="10.072249352774504"><ele>688.6666666666666</ele><time>2026-05-03T07:46:45Z</time></trkpt><trkpt lat="44.61845453402436" lon="10.072199170300584"><ele>694.3333333333334</ele><time>2026-05-03T07:46:46Z</time></trkpt><trkpt lat="44.6182926980064" lon="10.07211954939268"><ele>700.0</ele><time>2026-05-03T07:46:47Z</time></trkpt><trkpt lat="44.61815421228225" lon="10.072000378280876"><ele>700.0</ele><time>2026-05-03T07:46:48Z</time></trkpt><trkpt lat="44.618087563415294" lon="10.071818847772553"><ele>700.0</ele><time>2026-05-03T07:46:49Z</time></trkpt><trkpt lat="44.618112049021676" lon="10.071633428371843"><ele>700.0</ele><time>2026-05-03T07:46:50Z</time></trkpt><trkpt lat="44.61817659905352" lon="10.071420258365023"><ele>700.0</ele><time>2026-05-03T07:46:51Z</time></trkpt><trkpt lat="44.618238107858325" lon="10.07114565962976"><ele>701.3333333333334</ele><time>2026-05-03T07:46:52Z</time></trkpt><trkpt lat="44.61825700069158" lon="10.070873701628836"><ele>702.6666666666666</ele><time>2026-05-03T07:46:53Z</time></trkpt><trkpt lat="44.61820958928865" lon="10.070579042748491"><ele>704.0</ele><time>2026-05-03T07:46:54Z</time></trkpt><trkpt lat="44.61820147645924" lon="10.070286852339795"><ele>705.3333333333333</ele><time>2026-05-03T07:46:55Z</time></trkpt><trkpt lat="44.61823872694295" lon="10.07001491770009"><ele>706.6666666666666</ele><time>2026-05-03T07:46:56Z</time></trkpt><trkpt lat="44.61828323034296" lon="10.069710384097835"><ele>708.0</ele><time>2026-05-03T07:46:57Z</time></trkpt><trkpt lat="44.6183357422126" lon="10.069455756600744"><ele>709.3333333333334</ele><time>2026-05-03T07:46:58Z</time></trkpt><trkpt lat="44.61835725930924" lon="10.06923125801392"><ele>710.6666666666667</ele><time>2026-05-03T07:46:59Z</time></trkpt><trkpt lat="44.618320269402" lon="10.069021821264592"><ele>712.0</ele><time>2026-05-03T07:47:00Z</time></trkpt><trkpt lat="44.61821663412778" lon="10.068819728546515"><ele>712.0</ele><time>2026-05-03T07:47:01Z</time></trkpt><trkpt lat="44.618068833728984" lon="10.068620166832769"><ele>712.0</ele><time>2026-05-03T07:47:02Z</time></trkpt><trkpt lat="44.61794850298199" lon="10.068395442196994"><ele>712.0</ele><time>2026-05-03T07:47:03Z</time></trkpt><trkpt lat="44.61782821898397" lon="10.068178333655908"><ele>717.3333333333334</ele><time>2026-05-03T07:47:04Z</time></trkpt><trkpt lat="44.61772616865465" lon="10.067955840729548"><ele>722.6666666666666</ele><time>2026-05-03T07:47:05Z</time></trkpt><trkpt lat="44.61767389902204" lon="10.067712845688664"><ele>728.0</ele><time>2026-05-03T07:47:06Z</time></trkpt><trkpt lat="44.61762806143691" lon="10.067465260341994"><ele>726.0</ele><time>2026-05-03T07:47:07Z</time></trkpt><trkpt lat="44.61754725145596" lon="10.067272365477502"><ele>724.0</ele><time>2026-05-03T07:47:08Z</time></trkpt><trkpt lat="44.6174337478433" lon="10.067108890511985"><ele>722.0</ele><time>2026-05-03T07:47:09Z</time></trkpt><trkpt lat="44.61725473379795" lon="10.06699685776454"><ele>722.0</ele><time>2026-05-03T07:47:10Z</time></trkpt><trkpt lat="44.617088434722724" lon="10.066805462045831"><ele>722.0</ele><time>2026-05-03T07:47:11Z</time></trkpt><trkpt lat="44.61695921123167" lon="10.066585674400873"><ele>722.0</ele><time>2026-05-03T07:47:12Z</time></trkpt><trkpt lat="44.6168191698438" lon="10.066378043575254"><ele>724.0</ele><time>2026-05-03T07:47:13Z</time></trkpt><trkpt lat="44.6166426203999" lon="10.066281778429936"><ele>726.0</ele><time>2026-05-03T07:47:14Z</time></trkpt><trkpt lat="44.61642852385699" lon="10.066238954350279"><ele>728.0</ele><time>2026-05-03T07:47:15Z</time></trkpt><trkpt lat="44.616189503851" lon="10.066154675060988"><ele>734.0</ele><time>2026-05-03T07:47:16Z</time></trkpt><trkpt lat="44.61593489910032" lon="10.066074205225997"><ele>740.0</ele><time>2026-05-03T07:47:17Z</time></trkpt><trkpt lat="44.615639144041175" lon="10.065983444557855"><ele>740.0</ele><time>2026-05-03T07:47:18Z</time></trkpt><trkpt lat="44.615321491837626" lon="10.065914436035749"><ele>740.0</ele><time>2026-05-03T07:47:19Z</time></trkpt><trkpt lat="44.6153935999861" lon="10.065933325026917"><ele>740.0</ele><time>2026-05-03T07:47:20Z</time></trkpt><trkpt lat="44.61527209403471" lon="10.065971754911091"><ele>739.6666666666666</ele><time>2026-05-03T07:47:21Z</time></trkpt><trkpt lat="44.61516931048256" lon="10.066121280135546"><ele>739.3333333333334</ele><time>2026-05-03T07:47:21.999Z</time></trkpt><trkpt lat="44.615044870047925" lon="10.066372603464282"><ele>739.0</ele><time>2026-05-03T07:47:22.999Z</time></trkpt><trkpt lat="44.61489435277551" lon="10.066627666907058"><ele>742.3333333333334</ele><time>2026-05-03T07:47:23.999Z</time></trkpt><trkpt lat="44.61473762192281" lon="10.066859782861979"><ele>745.6666666666666</ele><time>2026-05-03T07:47:24.999Z</time></trkpt><trkpt lat="44.614599056831075" lon="10.067046947897335"><ele>749.0</ele><time>2026-05-03T07:47:25.999Z</time></trkpt><trkpt lat="44.61450028499326" lon="10.067214135050845"><ele>748.0</ele><time>2026-05-03T07:47:26.999Z</time></trkpt><trkpt lat="44.61444703765132" lon="10.06738857211793"><ele>747.0</ele><time>2026-05-03T07:47:27.999Z</time></trkpt><trkpt lat="44.614476358931846" lon="10.067604434362488"><ele>746.0</ele><time>2026-05-03T07:47:28.999Z</time></trkpt><trkpt lat="44.61453031815874" lon="10.067871455493751"><ele>750.3333333333333</ele><time>2026-05-03T07:47:29.999Z</time></trkpt><trkpt lat="44.6145628290434" lon="10.06811184790878"><ele>754.6666666666666</ele><time>2026-05-03T07:47:30.999Z</time></trkpt><trkpt lat="44.61447645766745" lon="10.068300334150372"><ele>759.0</ele><time>2026-05-03T07:47:31.999Z</time></trkpt><trkpt lat="44.614330957569756" lon="10.068458639087691"><ele>759.0</ele><time>2026-05-03T07:47:32.999Z</time></trkpt><trkpt lat="44.61415781405531" lon="10.068669209597374"><ele>759.0</ele><time>2026-05-03T07:47:33.999Z</time></trkpt><trkpt lat="44.61397017260812" lon="10.068891613811104"><ele>765.5</ele><time>2026-05-03T07:47:34.999Z</time></trkpt><trkpt lat="44.61376794737248" lon="10.06913013143662"><ele>772.0</ele><time>2026-05-03T07:47:35.999Z</time></trkpt><trkpt lat="44.61355721636918" lon="10.069377731366437"><ele>772.0</ele><time>2026-05-03T07:47:36.999Z</time></trkpt><trkpt lat="44.6133566074636" lon="10.069606657785187"><ele>772.0</ele><time>2026-05-03T07:47:37.999Z</time></trkpt><trkpt lat="44.61316261142205" lon="10.069806475480581"><ele>777.0</ele><time>2026-05-03T07:47:38.999Z</time></trkpt><trkpt lat="44.61295075195583" lon="10.069989278364515"><ele>782.0</ele><time>2026-05-03T07:47:39.999Z</time></trkpt><trkpt lat="44.61274239666198" lon="10.070097119914445"><ele>782.3333333333334</ele><time>2026-05-03T07:47:40.999Z</time></trkpt><trkpt lat="44.61253692450584" lon="10.070135774525575"><ele>782.6666666666667</ele><time>2026-05-03T07:47:41.999Z</time></trkpt><trkpt lat="44.61230966607631" lon="10.070117832931809"><ele>783.0</ele><time>2026-05-03T07:47:42.999Z</time></trkpt><trkpt lat="44.61204592792269" lon="10.070052168533866"><ele>780.5</ele><time>2026-05-03T07:47:43.999Z</time></trkpt><trkpt lat="44.61179839005401" lon="10.069988349709813"><ele>778.0</ele><time>2026-05-03T07:47:44.999Z</time></trkpt><trkpt lat="44.6115870478084" lon="10.069931428627083"><ele>778.0</ele><time>2026-05-03T07:47:45.999Z</time></trkpt><trkpt lat="44.61140617955222" lon="10.069892561409928"><ele>778.0</ele><time>2026-05-03T07:47:46.999Z</time></trkpt><trkpt lat="44.61126674085803" lon="10.069903781025486"><ele>778.0</ele><time>2026-05-03T07:47:47.999Z</time></trkpt><trkpt lat="44.611160820676695" lon="10.069949139506186"><ele>778.0</ele><time>2026-05-03T07:47:48.999Z</time></trkpt><trkpt lat="44.61106881033668" lon="10.070099044610808"><ele>779.0</ele><time>2026-05-03T07:47:49.999Z</time></trkpt><trkpt lat="44.6110227209735" lon="10.070361615071969"><ele>780.0</ele><time>2026-05-03T07:47:50.999Z</time></trkpt><trkpt lat="44.61097345277849" lon="10.070689889437375"><ele>781.0</ele><time>2026-05-03T07:47:51.999Z</time></trkpt><trkpt lat="44.61093360386714" lon="10.071041064022069"><ele>782.6666666666666</ele><time>2026-05-03T07:47:52.999Z</time></trkpt><trkpt lat="44.61087770108186" lon="10.071362524831118"><ele>784.3333333333333</ele><time>2026-05-03T07:47:53.999Z</time></trkpt><trkpt lat="44.61078065407885" lon="10.071577467894963"><ele>786.0</ele><time>2026-05-03T07:47:54.999Z</time></trkpt><trkpt lat="44.61065457968099" lon="10.071679122883747"><ele>786.3333333333333</ele><time>2026-05-03T07:47:55.999Z</time></trkpt><trkpt lat="44.61050746870612" lon="10.07174649458686"><ele>786.6666666666666</ele><time>2026-05-03T07:47:56.999Z</time></trkpt><trkpt lat="44.61031243373582" lon="10.071792627216814"><ele>787.0</ele><time>2026-05-03T07:47:57.999Z</time></trkpt><trkpt lat="44.610111867728115" lon="10.07175103065817"><ele>787.0</ele><time>2026-05-03T07:47:58.999Z</time></trkpt><trkpt lat="44.609876663682876" lon="10.071674924761414"><ele>787.0</ele><time>2026-05-03T07:47:59.999Z</time></trkpt><trkpt lat="44.60962645368798" lon="10.071599056818716"><ele>780.0</ele><time>2026-05-03T07:48:00.999Z</time></trkpt><trkpt lat="44.609387897262195" lon="10.071524853705286"><ele>773.0</ele><time>2026-05-03T07:48:01.999Z</time></trkpt><trkpt lat="44.60915841888321" lon="10.071453144676836"><ele>773.0</ele><time>2026-05-03T07:48:02.999Z</time></trkpt><trkpt lat="44.608950210771084" lon="10.07138740318188"><ele>773.0</ele><time>2026-05-03T07:48:03.999Z</time></trkpt><trkpt lat="44.60875136791699" lon="10.071347819329972"><ele>773.0</ele><time>2026-05-03T07:48:04.999Z</time></trkpt><trkpt lat="44.60856323263221" lon="10.071287121541175"><ele>773.0</ele><time>2026-05-03T07:48:05.999Z</time></trkpt><trkpt lat="44.608378207133754" lon="10.071230971339906"><ele>773.0</ele><time>2026-05-03T07:48:06.999Z</time></trkpt><trkpt lat="44.60819485259071" lon="10.071210940645033"><ele>773.0</ele><time>2026-05-03T07:48:07.999Z</time></trkpt><trkpt lat="44.60802592988123" lon="10.071256989678846"><ele>773.0</ele><time>2026-05-03T07:48:08.999Z</time></trkpt><trkpt lat="44.60786499523809" lon="10.071374452774526"><ele>773.0</ele><time>2026-05-03T07:48:09.999Z</time></trkpt><trkpt lat="44.607729782677" lon="10.071569886368785"><ele>773.0</ele><time>2026-05-03T07:48:10.999Z</time></trkpt><trkpt lat="44.607617376578375" lon="10.071797918878753"><ele>774.5</ele><time>2026-05-03T07:48:11.999Z</time></trkpt><trkpt lat="44.607490773443416" lon="10.071908241711505"><ele>776.0</ele><time>2026-05-03T07:48:12.999Z</time></trkpt><trkpt lat="44.60736313207487" lon="10.071899222774073"><ele>777.5</ele><time>2026-05-03T07:48:13.999Z</time></trkpt><trkpt lat="44.607218351265395" lon="10.071899863637913"><ele>779.0</ele><time>2026-05-03T07:48:14.999Z</time></trkpt><trkpt lat="44.6070509552244" lon="10.071902084568627"><ele>775.3333333333334</ele><time>2026-05-03T07:48:15.999Z</time></trkpt><trkpt lat="44.60687996514457" lon="10.071904098129922"><ele>771.6666666666667</ele><time>2026-05-03T07:48:16.999Z</time></trkpt><trkpt lat="44.60670352001275" lon="10.071905731322355"><ele>768.0</ele><time>2026-05-03T07:48:17.999Z</time></trkpt><trkpt lat="44.606517959361234" lon="10.071895207692283"><ele>768.0</ele><time>2026-05-03T07:48:18.999Z</time></trkpt><trkpt lat="44.60635147644288" lon="10.071822219460314"><ele>768.0</ele><time>2026-05-03T07:48:20Z</time></trkpt><trkpt lat="44.60618601071892" lon="10.071749834661851"><ele>768.0</ele><time>2026-05-03T07:48:21Z</time></trkpt><trkpt lat="44.606023521323905" lon="10.07174891310271"><ele>768.3333333333333</ele><time>2026-05-03T07:48:22Z</time></trkpt><trkpt lat="44.60583971456483" lon="10.071824823847379"><ele>768.6666666666666</ele><time>2026-05-03T07:48:23Z</time></trkpt><trkpt lat="44.6056292931173" lon="10.071975808929555"><ele>769.0</ele><time>2026-05-03T07:48:24Z</time></trkpt><trkpt lat="44.605392276479165" lon="10.072102590551426"><ele>767.5</ele><time>2026-05-03T07:48:25Z</time></trkpt><trkpt lat="44.60514413919325" lon="10.072176619239928"><ele>766.0</ele><time>2026-05-03T07:48:26Z</time></trkpt><trkpt lat="44.60490828972871" lon="10.072258022271152"><ele>766.0</ele><time>2026-05-03T07:48:27Z</time></trkpt><trkpt lat="44.60470523510858" lon="10.07233781198849"><ele>766.0</ele><time>2026-05-03T07:48:28Z</time></trkpt><trkpt lat="44.60452117992118" lon="10.07237708575184"><ele>766.0</ele><time>2026-05-03T07:48:29Z</time></trkpt><trkpt lat="44.604359507491154" lon="10.072376311050814"><ele>767.3333333333334</ele><time>2026-05-03T07:48:30Z</time></trkpt><trkpt lat="44.604205250365226" lon="10.072331562645598"><ele>768.6666666666667</ele><time>2026-05-03T07:48:31Z</time></trkpt><trkpt lat="44.60402867819265" lon="10.07225618924902"><ele>770.0</ele><time>2026-05-03T07:48:32Z</time></trkpt><trkpt lat="44.60383683662754" lon="10.072195433905806"><ele>771.6666666666667</ele><time>2026-05-03T07:48:33Z</time></trkpt><trkpt lat="44.60364886594536" lon="10.072174407014542"><ele>773.3333333333333</ele><time>2026-05-03T07:48:34Z</time></trkpt><trkpt lat="44.60347258352569" lon="10.07218843104419"><ele>775.0</ele><time>2026-05-03T07:48:35Z</time></trkpt><trkpt lat="44.6033219530762" lon="10.07221878278643"><ele>775.0</ele><time>2026-05-03T07:48:36Z</time></trkpt><trkpt lat="44.60319917231507" lon="10.072156220782203"><ele>775.0</ele><time>2026-05-03T07:48:37Z</time></trkpt><trkpt lat="44.60311165212672" lon="10.072060740082852"><ele>775.0</ele><time>2026-05-03T07:48:38Z</time></trkpt><trkpt lat="44.60305671943622" lon="10.071904291542674"><ele>775.0</ele><time>2026-05-03T07:48:39Z</time></trkpt><trkpt lat="44.6029822231869" lon="10.071672267519247"><ele>771.0</ele><time>2026-05-03T07:48:40Z</time></trkpt><trkpt lat="44.60289415500205" lon="10.071411429707856"><ele>767.0</ele><time>2026-05-03T07:48:41Z</time></trkpt><trkpt lat="44.602805505325605" lon="10.071162371719852"><ele>763.0</ele><time>2026-05-03T07:48:42Z</time></trkpt><trkpt lat="44.60272641825142" lon="10.070952526703174"><ele>766.25</ele><time>2026-05-03T07:48:43Z</time></trkpt><trkpt lat="44.60264031591006" lon="10.070779134576636"><ele>769.5</ele><time>2026-05-03T07:48:44Z</time></trkpt><trkpt lat="44.60254088956495" lon="10.070671108223285"><ele>772.75</ele><time>2026-05-03T07:48:45Z</time></trkpt><trkpt lat="44.60241827728475" lon="10.070617642844859"><ele>776.0</ele><time>2026-05-03T07:48:46Z</time></trkpt><trkpt lat="44.60225971231093" lon="10.070683615637602"><ele>779.6666666666667</ele><time>2026-05-03T07:48:47Z</time></trkpt><trkpt lat="44.6021049870122" lon="10.070848577182213"><ele>783.3333333333333</ele><time>2026-05-03T07:48:48Z</time></trkpt><trkpt lat="44.60194763523036" lon="10.071031567522873"><ele>787.0</ele><time>2026-05-03T07:48:49Z</time></trkpt><trkpt lat="44.60178013432716" lon="10.071185732953383"><ele>787.3333333333333</ele><time>2026-05-03T07:48:50Z</time></trkpt><trkpt lat="44.60161728210066" lon="10.071332455601745"><ele>787.6666666666667</ele><time>2026-05-03T07:48:51Z</time></trkpt><trkpt lat="44.60146755784603" lon="10.071468910223416"><ele>788.0</ele><time>2026-05-03T07:48:52Z</time></trkpt><trkpt lat="44.601332186693575" lon="10.071593483445575"><ele>788.5</ele><time>2026-05-03T07:48:53Z</time></trkpt><trkpt lat="44.60120581521464" lon="10.071710067163371"><ele>789.0</ele><time>2026-05-03T07:48:54Z</time></trkpt><trkpt lat="44.60109032910192" lon="10.071813389344085"><ele>789.5</ele><time>2026-05-03T07:48:55Z</time></trkpt><trkpt lat="44.60096725087963" lon="10.071889829821576"><ele>790.0</ele><time>2026-05-03T07:48:56Z</time></trkpt><trkpt lat="44.60084909028651" lon="10.071930051461203"><ele>791.0</ele><time>2026-05-03T07:48:57Z</time></trkpt><trkpt lat="44.60073676044668" lon="10.071981920679482"><ele>792.0</ele><time>2026-05-03T07:48:58Z</time></trkpt><trkpt lat="44.600650577891805" lon="10.071815644733727"><ele>793.0</ele><time>2026-05-03T07:48:59Z</time></trkpt><trkpt lat="44.60062030544367" lon="10.071671568521232"><ele>794.0</ele><time>2026-05-03T07:49:00Z</time></trkpt><trkpt lat="44.60058921960504" lon="10.071496381074782"><ele>794.0</ele><time>2026-05-03T07:49:01Z</time></trkpt><trkpt lat="44.60053896459171" lon="10.071295056535341"><ele>794.0</ele><time>2026-05-03T07:49:02Z</time></trkpt><trkpt lat="44.60048064465198" lon="10.071090554758323"><ele>794.0</ele><time>2026-05-03T07:49:03Z</time></trkpt><trkpt lat="44.600406318007785" lon="10.070891864238389"><ele>796.3333333333334</ele><time>2026-05-03T07:49:04Z</time></trkpt><trkpt lat="44.600264542029976" lon="10.070740265845227"><ele>798.6666666666667</ele><time>2026-05-03T07:49:05Z</time></trkpt><trkpt lat="44.60011813726012" lon="10.07061115644221"><ele>801.0</ele><time>2026-05-03T07:49:06Z</time></trkpt><trkpt lat="44.599951632751974" lon="10.070508113859756"><ele>801.0</ele><time>2026-05-03T07:49:07Z</time></trkpt><trkpt lat="44.599791673844884" lon="10.070385109037726"><ele>801.0</ele><time>2026-05-03T07:49:08Z</time></trkpt><trkpt lat="44.599641064279766" lon="10.070258150740285"><ele>801.0</ele><time>2026-05-03T07:49:09Z</time></trkpt><trkpt lat="44.59950266079629" lon="10.070184903173747"><ele>805.0</ele><time>2026-05-03T07:49:10Z</time></trkpt><trkpt lat="44.59935334035" lon="10.070173450465736"><ele>809.0</ele><time>2026-05-03T07:49:11Z</time></trkpt><trkpt lat="44.59916261145679" lon="10.070268388598931"><ele>813.0</ele><time>2026-05-03T07:49:12Z</time></trkpt><trkpt lat="44.598972574758925" lon="10.07035289643822"><ele>813.0</ele><time>2026-05-03T07:49:13Z</time></trkpt><trkpt lat="44.598802007775554" lon="10.070333344714532"><ele>813.0</ele><time>2026-05-03T07:49:14Z</time></trkpt><trkpt lat="44.598637616182444" lon="10.070215112034106"><ele>813.0</ele><time>2026-05-03T07:49:15Z</time></trkpt><trkpt lat="44.59843254030884" lon="10.07008020558117"><ele>817.6666666666667</ele><time>2026-05-03T07:49:16Z</time></trkpt><trkpt lat="44.59821657373863" lon="10.070002412083776"><ele>822.3333333333334</ele><time>2026-05-03T07:49:17Z</time></trkpt><trkpt lat="44.5979992993831" lon="10.06999094421975"><ele>827.0</ele><time>2026-05-03T07:49:18Z</time></trkpt><trkpt lat="44.59777083749731" lon="10.069988987699553"><ele>834.0</ele><time>2026-05-03T07:49:19Z</time></trkpt><trkpt lat="44.59743133731928" lon="10.069993300696868"><ele>841.0</ele><time>2026-05-03T07:49:20Z</time></trkpt><trkpt lat="44.59720663791915" lon="10.069993300701519"><ele>841.0</ele><time>2026-05-03T07:49:21Z</time></trkpt><trkpt lat="44.597028185600784" lon="10.06999181297637"><ele>841.0</ele><time>2026-05-03T07:49:22Z</time></trkpt><trkpt lat="44.59679737702632" lon="10.069947657670166"><ele>841.0</ele><time>2026-05-03T07:49:23Z</time></trkpt><trkpt lat="44.5966316204025" lon="10.0698587804424"><ele>847.3333333333333</ele><time>2026-05-03T07:49:24Z</time></trkpt><trkpt lat="44.59651862134934" lon="10.069715619150303"><ele>853.6666666666667</ele><time>2026-05-03T07:49:25Z</time></trkpt><trkpt lat="44.596451891790174" lon="10.069541529945823"><ele>860.0</ele><time>2026-05-03T07:49:26Z</time></trkpt><trkpt lat="44.59641649694812" lon="10.06932113039714"><ele>862.6666666666667</ele><time>2026-05-03T07:49:27Z</time></trkpt><trkpt lat="44.59637529194017" lon="10.069025209750126"><ele>865.3333333333333</ele><time>2026-05-03T07:49:28Z</time></trkpt><trkpt lat="44.596309832292704" lon="10.068713775953428"><ele>868.0</ele><time>2026-05-03T07:49:29Z</time></trkpt><trkpt lat="44.59620688691839" lon="10.06840890068786"><ele>858.5</ele><time>2026-05-03T07:49:29.999Z</time></trkpt><trkpt lat="44.59606214422456" lon="10.068123911737874"><ele>849.0</ele><time>2026-05-03T07:49:30.999Z</time></trkpt><trkpt lat="44.59594269303111" lon="10.067831481886339"><ele>849.0</ele><time>2026-05-03T07:49:31.999Z</time></trkpt><trkpt lat="44.59586016362012" lon="10.067528259041932"><ele>849.0</ele><time>2026-05-03T07:49:32.999Z</time></trkpt><trkpt lat="44.59580229843638" lon="10.06719838368639"><ele>855.0</ele><time>2026-05-03T07:49:33.999Z</time></trkpt><trkpt lat="44.59575481889839" lon="10.066862841667037"><ele>861.0</ele><time>2026-05-03T07:49:34.999Z</time></trkpt><trkpt lat="44.59572407654836" lon="10.066524825502634"><ele>864.5</ele><time>2026-05-03T07:49:35.999Z</time></trkpt><trkpt lat="44.59571937531607" lon="10.06618475482422"><ele>868.0</ele><time>2026-05-03T07:49:36.999Z</time></trkpt><trkpt lat="44.595733580714814" lon="10.065838201780737"><ele>873.0</ele><time>2026-05-03T07:49:37.999Z</time></trkpt><trkpt lat="44.59575264909899" lon="10.065487697026425"><ele>878.0</ele><time>2026-05-03T07:49:38.999Z</time></trkpt><trkpt lat="44.595726242830516" lon="10.065142392809603"><ele>880.5</ele><time>2026-05-03T07:49:39.999Z</time></trkpt><trkpt lat="44.59568560579907" lon="10.064809761374578"><ele>883.0</ele><time>2026-05-03T07:49:40.999Z</time></trkpt><trkpt lat="44.59567460601569" lon="10.064482216181483"><ele>883.0</ele><time>2026-05-03T07:49:41.999Z</time></trkpt><trkpt lat="44.59568366516498" lon="10.064143010030595"><ele>883.0</ele><time>2026-05-03T07:49:42.999Z</time></trkpt><trkpt lat="44.5957102042402" lon="10.063813230734524"><ele>884.0</ele><time>2026-05-03T07:49:43.999Z</time></trkpt><trkpt lat="44.5957798800441" lon="10.063540035464671"><ele>885.0</ele><time>2026-05-03T07:49:44.999Z</time></trkpt><trkpt lat="44.59581666296951" lon="10.063277202155842"><ele>886.0</ele><time>2026-05-03T07:49:45.999Z</time></trkpt><trkpt lat="44.595830420409314" lon="10.063029990689076"><ele>889.6666666666666</ele><time>2026-05-03T07:49:46.999Z</time></trkpt><trkpt lat="44.595786256414634" lon="10.062738802663645"><ele>893.3333333333333</ele><time>2026-05-03T07:49:47.999Z</time></trkpt><trkpt lat="44.59565660169937" lon="10.062463141756474"><ele>897.0</ele><time>2026-05-03T07:49:48.999Z</time></trkpt><trkpt lat="44.59547161452015" lon="10.062217193551673"><ele>894.0</ele><time>2026-05-03T07:49:49.999Z</time></trkpt><trkpt lat="44.59526262116876" lon="10.062006179444356"><ele>891.0</ele><time>2026-05-03T07:49:50.999Z</time></trkpt><trkpt lat="44.595087855621756" lon="10.061780742081224"><ele>891.0</ele><time>2026-05-03T07:49:51.999Z</time></trkpt><trkpt lat="44.59494413600096" lon="10.061577500903143"><ele>891.0</ele><time>2026-05-03T07:49:52.999Z</time></trkpt><trkpt lat="44.59480071484136" lon="10.061350199780339"><ele>891.0</ele><time>2026-05-03T07:49:53.999Z</time></trkpt><trkpt lat="44.59470017719791" lon="10.06106436056688"><ele>888.0</ele><time>2026-05-03T07:49:54.999Z</time></trkpt><trkpt lat="44.594623612515456" lon="10.0607705394271"><ele>885.0</ele><time>2026-05-03T07:49:55.999Z</time></trkpt><trkpt lat="44.59456386917689" lon="10.060457855322277"><ele>885.0</ele><time>2026-05-03T07:49:56.999Z</time></trkpt><trkpt lat="44.59450696873033" lon="10.060135212228962"><ele>885.0</ele><time>2026-05-03T07:49:57.999Z</time></trkpt><trkpt lat="44.594448698573785" lon="10.059802360900045"><ele>881.0</ele><time>2026-05-03T07:49:58.999Z</time></trkpt><trkpt lat="44.59437458643982" lon="10.059470363756379"><ele>877.0</ele><time>2026-05-03T07:49:59.999Z</time></trkpt><trkpt lat="44.59432257712514" lon="10.059163144391736"><ele>877.3333333333333</ele><time>2026-05-03T07:50:00.999Z</time></trkpt><trkpt lat="44.594261367122556" lon="10.058878372571584"><ele>877.6666666666667</ele><time>2026-05-03T07:50:01.999Z</time></trkpt><trkpt lat="44.59415382099584" lon="10.058635439512488"><ele>878.0</ele><time>2026-05-03T07:50:02.999Z</time></trkpt><trkpt lat="44.593977070685426" lon="10.05844125603701"><ele>878.0</ele><time>2026-05-03T07:50:03.999Z</time></trkpt><trkpt lat="44.5937617685281" lon="10.058308841725598"><ele>878.0</ele><time>2026-05-03T07:50:04.999Z</time></trkpt><trkpt lat="44.593581269586196" lon="10.05813905870037"><ele>879.5</ele><time>2026-05-03T07:50:05.999Z</time></trkpt><trkpt lat="44.593454914958656" lon="10.057889491943044"><ele>881.0</ele><time>2026-05-03T07:50:06.999Z</time></trkpt><trkpt lat="44.59333043333276" lon="10.057589151478025"><ele>885.5</ele><time>2026-05-03T07:50:07.999Z</time></trkpt><trkpt lat="44.59323880626666" lon="10.057278158534329"><ele>890.0</ele><time>2026-05-03T07:50:08.999Z</time></trkpt><trkpt lat="44.59317015904694" lon="10.056955633461342"><ele>890.0</ele><time>2026-05-03T07:50:09.999Z</time></trkpt><trkpt lat="44.59310758307868" lon="10.056635909255311"><ele>890.0</ele><time>2026-05-03T07:50:10.999Z</time></trkpt><trkpt lat="44.5930445615706" lon="10.056343773056815"><ele>891.3333333333334</ele><time>2026-05-03T07:50:11.999Z</time></trkpt><trkpt lat="44.592951540340906" lon="10.056079352496507"><ele>892.6666666666667</ele><time>2026-05-03T07:50:12.999Z</time></trkpt><trkpt lat="44.59284578134332" lon="10.055832805735736"><ele>894.0</ele><time>2026-05-03T07:50:13.999Z</time></trkpt><trkpt lat="44.592676405608685" lon="10.055625177025625"><ele>899.0</ele><time>2026-05-03T07:50:14.999Z</time></trkpt><trkpt lat="44.5925012949089" lon="10.055427154507175"><ele>904.0</ele><time>2026-05-03T07:50:15.999Z</time></trkpt><trkpt lat="44.59235650083625" lon="10.055258935805213"><ele>909.0</ele><time>2026-05-03T07:50:16.999Z</time></trkpt><trkpt lat="44.59223123819601" lon="10.055149167046705"><ele>909.0</ele><time>2026-05-03T07:50:17.999Z</time></trkpt><trkpt lat="44.59207509825013" lon="10.055122076125038"><ele>909.0</ele><time>2026-05-03T07:50:18.999Z</time></trkpt><trkpt lat="44.59189135083655" lon="10.055193721890642"><ele>909.0</ele><time>2026-05-03T07:50:19.999Z</time></trkpt><trkpt lat="44.591689387512865" lon="10.05529492755893"><ele>910.3333333333333</ele><time>2026-05-03T07:50:20.999Z</time></trkpt><trkpt lat="44.591488010363484" lon="10.05536948891085"><ele>911.6666666666666</ele><time>2026-05-03T07:50:21.999Z</time></trkpt><trkpt lat="44.591321239156095" lon="10.055366308139815"><ele>913.0</ele><time>2026-05-03T07:50:22.999Z</time></trkpt><trkpt lat="44.591202922761894" lon="10.05524011325538"><ele>914.3333333333333</ele><time>2026-05-03T07:50:23.999Z</time></trkpt><trkpt lat="44.591104780175925" lon="10.055058818450494"><ele>915.6666666666667</ele><time>2026-05-03T07:50:24.999Z</time></trkpt><trkpt lat="44.59103765977478" lon="10.054812398051657"><ele>917.0</ele><time>2026-05-03T07:50:26Z</time></trkpt><trkpt lat="44.590952075762814" lon="10.054538664742209"><ele>917.0</ele><time>2026-05-03T07:50:27Z</time></trkpt><trkpt lat="44.590825619600345" lon="10.05435573440276"><ele>917.0</ele><time>2026-05-03T07:50:28Z</time></trkpt><trkpt lat="44.59067361388509" lon="10.054232367908336"><ele>917.0</ele><time>2026-05-03T07:50:29Z</time></trkpt><trkpt lat="44.59047085310111" lon="10.054212710044297"><ele>919.0</ele><time>2026-05-03T07:50:30Z</time></trkpt><trkpt lat="44.59028247206913" lon="10.054164713381034"><ele>921.0</ele><time>2026-05-03T07:50:31Z</time></trkpt><trkpt lat="44.5901391947015" lon="10.053971066940838"><ele>923.0</ele><time>2026-05-03T07:50:32Z</time></trkpt><trkpt lat="44.589950535201815" lon="10.053758205285055"><ele>923.0</ele><time>2026-05-03T07:50:33Z</time></trkpt><trkpt lat="44.589746135070975" lon="10.053597290714746"><ele>923.0</ele><time>2026-05-03T07:50:34Z</time></trkpt><trkpt lat="44.58960348158521" lon="10.053410952757009"><ele>923.0</ele><time>2026-05-03T07:50:35Z</time></trkpt><trkpt lat="44.58946382123981" lon="10.053274174487257"><ele>914.3333333333334</ele><time>2026-05-03T07:50:36Z</time></trkpt><trkpt lat="44.589402213995776" lon="10.053026843196335"><ele>905.6666666666667</ele><time>2026-05-03T07:50:37Z</time></trkpt><trkpt lat="44.589419627331004" lon="10.052722720379153"><ele>897.0</ele><time>2026-05-03T07:50:38Z</time></trkpt><trkpt lat="44.58946567321632" lon="10.052388468352882"><ele>896.0</ele><time>2026-05-03T07:50:39Z</time></trkpt><trkpt lat="44.58949130732146" lon="10.05205545124955"><ele>895.0</ele><time>2026-05-03T07:50:40Z</time></trkpt><trkpt lat="44.589514651468896" lon="10.051722621506086"><ele>915.0</ele><time>2026-05-03T07:50:41Z</time></trkpt><trkpt lat="44.58953106636144" lon="10.051396634567453"><ele>935.0</ele><time>2026-05-03T07:50:42Z</time></trkpt><trkpt lat="44.58952936161709" lon="10.05108048544722"><ele>928.0</ele><time>2026-05-03T07:50:43Z</time></trkpt><trkpt lat="44.58949455575797" lon="10.050773911735051"><ele>921.0</ele><time>2026-05-03T07:50:44Z</time></trkpt><trkpt lat="44.5894348529445" lon="10.050479250361168"><ele>914.0</ele><time>2026-05-03T07:50:45Z</time></trkpt><trkpt lat="44.5893427238716" lon="10.050200897243274"><ele>918.6666666666667</ele><time>2026-05-03T07:50:46Z</time></trkpt><trkpt lat="44.58921198709223" lon="10.049943876026482"><ele>923.3333333333333</ele><time>2026-05-03T07:50:47Z</time></trkpt><trkpt lat="44.5890581762731" lon="10.04972420316695"><ele>928.0</ele><time>2026-05-03T07:50:48Z</time></trkpt><trkpt lat="44.58888809803143" lon="10.0495288324907"><ele>928.0</ele><time>2026-05-03T07:50:49Z</time></trkpt><trkpt lat="44.588711430580084" lon="10.049348723974509"><ele>928.0</ele><time>2026-05-03T07:50:50Z</time></trkpt><trkpt lat="44.588536094083075" lon="10.04918756453285"><ele>928.0</ele><time>2026-05-03T07:50:51Z</time></trkpt><trkpt lat="44.58835368723914" lon="10.0490625603561"><ele>923.0</ele><time>2026-05-03T07:50:52Z</time></trkpt><trkpt lat="44.588148155381106" lon="10.048993636197256"><ele>918.0</ele><time>2026-05-03T07:50:53Z</time></trkpt><trkpt lat="44.58793937080412" lon="10.048983825462312"><ele>913.0</ele><time>2026-05-03T07:50:54Z</time></trkpt><trkpt lat="44.58774510259423" lon="10.049000346460568"><ele>907.25</ele><time>2026-05-03T07:50:55Z</time></trkpt><trkpt lat="44.587586940291686" lon="10.048993060395695"><ele>901.5</ele><time>2026-05-03T07:50:56Z</time></trkpt><trkpt lat="44.58748364531497" lon="10.048921778354533"><ele>895.75</ele><time>2026-05-03T07:50:57Z</time></trkpt><trkpt lat="44.587409271038176" lon="10.048816157834489"><ele>890.0</ele><time>2026-05-03T07:50:58Z</time></trkpt><trkpt lat="44.587477721433096" lon="10.048610907895789"><ele>890.0</ele><time>2026-05-03T07:50:59Z</time></trkpt><trkpt lat="44.587649638341276" lon="10.048331915011824"><ele>890.0</ele><time>2026-05-03T07:51:00Z</time></trkpt><trkpt lat="44.5877498429676" lon="10.048129029702812"><ele>890.0</ele><time>2026-05-03T07:51:01Z</time></trkpt><trkpt lat="44.58780336890439" lon="10.047925073646013"><ele>892.0</ele><time>2026-05-03T07:51:02Z</time></trkpt><trkpt lat="44.58783730494831" lon="10.04771541709787"><ele>894.0</ele><time>2026-05-03T07:51:03Z</time></trkpt><trkpt lat="44.587850051259124" lon="10.04754814227798"><ele>896.0</ele><time>2026-05-03T07:51:04Z</time></trkpt><trkpt lat="44.5876196410339" lon="10.047416451676806"><ele>901.0</ele><time>2026-05-03T07:51:05Z</time></trkpt><trkpt lat="44.58746211849483" lon="10.047343743953506"><ele>906.0</ele><time>2026-05-03T07:51:06Z</time></trkpt><trkpt lat="44.58729012564615" lon="10.047384026219168"><ele>911.0</ele><time>2026-05-03T07:51:07Z</time></trkpt><trkpt lat="44.58710339871279" lon="10.047349662200991"><ele>904.6666666666667</ele><time>2026-05-03T07:51:08Z</time></trkpt><trkpt lat="44.58689743493601" lon="10.047325253258666"><ele>898.3333333333333</ele><time>2026-05-03T07:51:09Z</time></trkpt><trkpt lat="44.586698380336195" lon="10.047296769311899"><ele>892.0</ele><time>2026-05-03T07:51:10Z</time></trkpt><trkpt lat="44.5865027725529" lon="10.04727739241374"><ele>892.0</ele><time>2026-05-03T07:51:11Z</time></trkpt><trkpt lat="44.58632678036124" lon="10.047267827751671"><ele>892.0</ele><time>2026-05-03T07:51:12Z</time></trkpt><trkpt lat="44.58621353990484" lon="10.047220809852485"><ele>892.0</ele><time>2026-05-03T07:51:13Z</time></trkpt><trkpt lat="44.58617841992376" lon="10.047071792758551"><ele>892.0</ele><time>2026-05-03T07:51:14Z</time></trkpt><trkpt lat="44.5861749761381" lon="10.046854058361479"><ele>890.0</ele><time>2026-05-03T07:51:15Z</time></trkpt><trkpt lat="44.58623775095236" lon="10.046602123889079"><ele>888.0</ele><time>2026-05-03T07:51:16Z</time></trkpt><trkpt lat="44.58628603277487" lon="10.046367585025619"><ele>886.0</ele><time>2026-05-03T07:51:17Z</time></trkpt><trkpt lat="44.58636599082875" lon="10.046091482042806"><ele>886.0</ele><time>2026-05-03T07:51:18Z</time></trkpt><trkpt lat="44.58643188859094" lon="10.045824711668756"><ele>886.0</ele><time>2026-05-03T07:51:19Z</time></trkpt><trkpt lat="44.58651146606501" lon="10.04563839737973"><ele>886.0</ele><time>2026-05-03T07:51:20Z</time></trkpt><trkpt lat="44.58664389751127" lon="10.045418554202634"><ele>880.6666666666666</ele><time>2026-05-03T07:51:21Z</time></trkpt><trkpt lat="44.58674546584038" lon="10.045200619183586"><ele>875.3333333333333</ele><time>2026-05-03T07:51:22Z</time></trkpt><trkpt lat="44.58681964363866" lon="10.04493830358566"><ele>870.0</ele><time>2026-05-03T07:51:23Z</time></trkpt><trkpt lat="44.586872236379826" lon="10.044622117732958"><ele>863.0</ele><time>2026-05-03T07:51:24Z</time></trkpt><trkpt lat="44.58691368670077" lon="10.04430591768692"><ele>856.0</ele><time>2026-05-03T07:51:25Z</time></trkpt><trkpt lat="44.58696229623061" lon="10.043970358052828"><ele>853.5</ele><time>2026-05-03T07:51:26Z</time></trkpt><trkpt lat="44.58697515544618" lon="10.043630336134"><ele>851.0</ele><time>2026-05-03T07:51:27Z</time></trkpt><trkpt lat="44.586957559651324" lon="10.043302871668272"><ele>870.0</ele><time>2026-05-03T07:51:28Z</time></trkpt><trkpt lat="44.58701500642567" lon="10.043015603295151"><ele>889.0</ele><time>2026-05-03T07:51:29Z</time></trkpt><trkpt lat="44.58705093350792" lon="10.04275576156896"><ele>908.0</ele><time>2026-05-03T07:51:30Z</time></trkpt><trkpt lat="44.587032492002514" lon="10.042508262354769"><ele>885.0</ele><time>2026-05-03T07:51:30.999Z</time></trkpt><trkpt lat="44.58691965455658" lon="10.042238797733706"><ele>862.0</ele><time>2026-05-03T07:51:31.999Z</time></trkpt><trkpt lat="44.586777473994005" lon="10.04197498467893"><ele>862.0</ele><time>2026-05-03T07:51:32.999Z</time></trkpt><trkpt lat="44.58667938980808" lon="10.041726663834586"><ele>862.0</ele><time>2026-05-03T07:51:33.999Z</time></trkpt><trkpt lat="44.58661968464239" lon="10.041474915173765"><ele>862.0</ele><time>2026-05-03T07:51:34.999Z</time></trkpt><trkpt lat="44.586639233784695" lon="10.041228930641482"><ele>860.6666666666666</ele><time>2026-05-03T07:51:35.999Z</time></trkpt><trkpt lat="44.58667542556446" lon="10.04095753012446"><ele>859.3333333333333</ele><time>2026-05-03T07:51:36.999Z</time></trkpt><trkpt lat="44.58668825164909" lon="10.0406662327179"><ele>858.0</ele><time>2026-05-03T07:51:37.999Z</time></trkpt><trkpt lat="44.58672598450219" lon="10.040413997019424"><ele>853.0</ele><time>2026-05-03T07:51:38.999Z</time></trkpt><trkpt lat="44.58675652160029" lon="10.040176750384383"><ele>848.0</ele><time>2026-05-03T07:51:39.999Z</time></trkpt><trkpt lat="44.586830653927336" lon="10.03995565254547"><ele>843.0</ele><time>2026-05-03T07:51:40.999Z</time></trkpt><trkpt lat="44.58697389094659" lon="10.03974658736787"><ele>846.6666666666667</ele><time>2026-05-03T07:51:41.999Z</time></trkpt><trkpt lat="44.58714193661672" lon="10.039558778589617"><ele>850.3333333333334</ele><time>2026-05-03T07:51:42.999Z</time></trkpt><trkpt lat="44.58728665065165" lon="10.039374310772772"><ele>854.0</ele><time>2026-05-03T07:51:43.999Z</time></trkpt><trkpt lat="44.5874143274173" lon="10.039190464056704"><ele>848.6666666666667</ele><time>2026-05-03T07:51:44.999Z</time></trkpt><trkpt lat="44.587505584777816" lon="10.03898461841743"><ele>843.3333333333333</ele><time>2026-05-03T07:51:45.999Z</time></trkpt><trkpt lat="44.58754931157581" lon="10.038755554814122"><ele>838.0</ele><time>2026-05-03T07:51:46.999Z</time></trkpt><trkpt lat="44.58757859186163" lon="10.038527558743116"><ele>838.0</ele><time>2026-05-03T07:51:47.999Z</time></trkpt><trkpt lat="44.58760940243915" lon="10.038312165479324"><ele>838.0</ele><time>2026-05-03T07:51:48.999Z</time></trkpt><trkpt lat="44.58763996091305" lon="10.038098750048379"><ele>838.0</ele><time>2026-05-03T07:51:49.999Z</time></trkpt><trkpt lat="44.58766849939701" lon="10.037885478164434"><ele>835.75</ele><time>2026-05-03T07:51:50.999Z</time></trkpt><trkpt lat="44.58769649224336" lon="10.037680426722288"><ele>833.5</ele><time>2026-05-03T07:51:51.999Z</time></trkpt><trkpt lat="44.58772483494642" lon="10.037483656906373"><ele>831.25</ele><time>2026-05-03T07:51:52.999Z</time></trkpt><trkpt lat="44.58775585713566" lon="10.03729080580636"><ele>829.0</ele><time>2026-05-03T07:51:53.999Z</time></trkpt><trkpt lat="44.587784385124856" lon="10.037105120797685"><ele>828.25</ele><time>2026-05-03T07:51:54.999Z</time></trkpt><trkpt lat="44.587806721752074" lon="10.036918503016796"><ele>827.5</ele><time>2026-05-03T07:51:55.999Z</time></trkpt><trkpt lat="44.587814950675636" lon="10.036736935560226"><ele>826.75</ele><time>2026-05-03T07:51:56.999Z</time></trkpt><trkpt lat="44.587785516142745" lon="10.036561588097165"><ele>826.0</ele><time>2026-05-03T07:51:57.999Z</time></trkpt><trkpt lat="44.587733299581174" lon="10.03638910024464"><ele>825.25</ele><time>2026-05-03T07:51:58.999Z</time></trkpt><trkpt lat="44.58766667914694" lon="10.036231977702784"><ele>824.5</ele><time>2026-05-03T07:51:59.999Z</time></trkpt><trkpt lat="44.58759518488421" lon="10.036097262292287"><ele>823.75</ele><time>2026-05-03T07:52:00.999Z</time></trkpt><trkpt lat="44.5875622261688" lon="10.035946666032258"><ele>823.0</ele><time>2026-05-03T07:52:01.999Z</time></trkpt><trkpt lat="44.587543426860144" lon="10.035794138718598"><ele>822.0</ele><time>2026-05-03T07:52:02.999Z</time></trkpt><trkpt lat="44.58756476889294" lon="10.035646737704694"><ele>821.0</ele><time>2026-05-03T07:52:03.999Z</time></trkpt><trkpt lat="44.587590684248845" lon="10.03549837634694"><ele>820.0</ele><time>2026-05-03T07:52:04.999Z</time></trkpt><trkpt lat="44.5876049055411" lon="10.035347556614905"><ele>819.0</ele><time>2026-05-03T07:52:05.999Z</time></trkpt><trkpt lat="44.587616510276824" lon="10.035201215406826"><ele>818.0</ele><time>2026-05-03T07:52:06.999Z</time></trkpt><trkpt lat="44.587599705223624" lon="10.035060620764561"><ele>816.5</ele><time>2026-05-03T07:52:07.999Z</time></trkpt><trkpt lat="44.58754931102455" lon="10.034932673972474"><ele>815.0</ele><time>2026-05-03T07:52:08.999Z</time></trkpt><trkpt lat="44.58746735958914" lon="10.034837672395536"><ele>813.5</ele><time>2026-05-03T07:52:09.999Z</time></trkpt><trkpt lat="44.58735871705668" lon="10.034776983069007"><ele>812.0</ele><time>2026-05-03T07:52:10.999Z</time></trkpt><trkpt lat="44.587237858483924" lon="10.034747641388758"><ele>812.0</ele><time>2026-05-03T07:52:11.999Z</time></trkpt><trkpt lat="44.58711603126019" lon="10.034726055933602"><ele>812.0</ele><time>2026-05-03T07:52:12.999Z</time></trkpt><trkpt lat="44.58699913633127" lon="10.034695945587234"><ele>812.0</ele><time>2026-05-03T07:52:13.999Z</time></trkpt><trkpt lat="44.58688574192129" lon="10.034658402273859"><ele>812.0</ele><time>2026-05-03T07:52:14.999Z</time></trkpt><trkpt lat="44.58676760363641" lon="10.034624060377954"><ele>810.0</ele><time>2026-05-03T07:52:15.999Z</time></trkpt><trkpt lat="44.58665497867085" lon="10.034586580094992"><ele>808.0</ele><time>2026-05-03T07:52:16.999Z</time></trkpt><trkpt lat="44.58654084170561" lon="10.0345507741818"><ele>806.0</ele><time>2026-05-03T07:52:17.999Z</time></trkpt><trkpt lat="44.58642490649549" lon="10.03451558646516"><ele>804.0</ele><time>2026-05-03T07:52:18.999Z</time></trkpt><trkpt lat="44.58630251555629" lon="10.034467615046756"><ele>804.0</ele><time>2026-05-03T07:52:19.999Z</time></trkpt><trkpt lat="44.58618590576717" lon="10.034428460878964"><ele>804.0</ele><time>2026-05-03T07:52:20.999Z</time></trkpt><trkpt lat="44.58607457820595" lon="10.034392441927228"><ele>804.0</ele><time>2026-05-03T07:52:21.999Z</time></trkpt><trkpt lat="44.58595436129927" lon="10.034351272700183"><ele>804.0</ele><time>2026-05-03T07:52:22.999Z</time></trkpt><trkpt lat="44.585842186605994" lon="10.03431513064297"><ele>803.25</ele><time>2026-05-03T07:52:23.999Z</time></trkpt><trkpt lat="44.58572977474394" lon="10.03427776981751"><ele>802.5</ele><time>2026-05-03T07:52:24.999Z</time></trkpt><trkpt lat="44.58561333515976" lon="10.034240148887742"><ele>801.75</ele><time>2026-05-03T07:52:25.999Z</time></trkpt><trkpt lat="44.58549817093241" lon="10.034201918996779"><ele>801.0</ele><time>2026-05-03T07:52:26.999Z</time></trkpt><trkpt lat="44.585391428334376" lon="10.034138897730509"><ele>800.1999999999999</ele><time>2026-05-03T07:52:27.999Z</time></trkpt><trkpt lat="44.58529805531434" lon="10.034061118193785"><ele>799.4</ele><time>2026-05-03T07:52:28.999Z</time></trkpt><trkpt lat="44.58520951177086" lon="10.033972519136851"><ele>798.6</ele><time>2026-05-03T07:52:29.999Z</time></trkpt><trkpt lat="44.58512597636426" lon="10.033874566257046"><ele>797.8</ele><time>2026-05-03T07:52:30.999Z</time></trkpt><trkpt lat="44.585036044137404" lon="10.033776379140585"><ele>797.0</ele><time>2026-05-03T07:52:32Z</time></trkpt><trkpt lat="44.584949740660015" lon="10.033655743272202"><ele>797.0</ele><time>2026-05-03T07:52:33Z</time></trkpt><trkpt lat="44.58486984835181" lon="10.033540961108915"><ele>797.0</ele><time>2026-05-03T07:52:34Z</time></trkpt><trkpt lat="44.584787951263905" lon="10.033420999050204"><ele>797.0</ele><time>2026-05-03T07:52:35Z</time></trkpt><trkpt lat="44.5847040364474" lon="10.03330119724032"><ele>797.0</ele><time>2026-05-03T07:52:36Z</time></trkpt><trkpt lat="44.58461882171334" lon="10.033183475613495"><ele>795.25</ele><time>2026-05-03T07:52:37Z</time></trkpt><trkpt lat="44.58452911194618" lon="10.033065641882391"><ele>793.5</ele><time>2026-05-03T07:52:38Z</time></trkpt><trkpt lat="44.58442771378618" lon="10.032942124244121"><ele>791.75</ele><time>2026-05-03T07:52:39Z</time></trkpt><trkpt lat="44.58432753180492" lon="10.032827022111933"><ele>790.0</ele><time>2026-05-03T07:52:40Z</time></trkpt><trkpt lat="44.58422082398997" lon="10.032710026957446"><ele>790.0</ele><time>2026-05-03T07:52:41Z</time></trkpt><trkpt lat="44.58411402596133" lon="10.032598588715722"><ele>790.0</ele><time>2026-05-03T07:52:42Z</time></trkpt><trkpt lat="44.58399710136905" lon="10.03249172155127"><ele>790.0</ele><time>2026-05-03T07:52:43Z</time></trkpt><trkpt lat="44.58388185570352" lon="10.032388567802244"><ele>790.0</ele><time>2026-05-03T07:52:44Z</time></trkpt><trkpt lat="44.58375435829232" lon="10.032300095915287"><ele>785.0</ele><time>2026-05-03T07:52:45Z</time></trkpt><trkpt lat="44.583605879146425" lon="10.03223085699788"><ele>780.0</ele><time>2026-05-03T07:52:46Z</time></trkpt><trkpt lat="44.58341709286749" lon="10.032183130614406"><ele>775.0</ele><time>2026-05-03T07:52:47Z</time></trkpt><trkpt lat="44.58322197663063" lon="10.032116146283364"><ele>775.0</ele><time>2026-05-03T07:52:48Z</time></trkpt><trkpt lat="44.58301152925059" lon="10.032018074219149"><ele>775.0</ele><time>2026-05-03T07:52:49Z</time></trkpt><trkpt lat="44.58280319604689" lon="10.031881255765695"><ele>774.0</ele><time>2026-05-03T07:52:50Z</time></trkpt><trkpt lat="44.582620641738956" lon="10.031697948390145"><ele>773.0</ele><time>2026-05-03T07:52:51Z</time></trkpt><trkpt lat="44.58241687984113" lon="10.031460686928375"><ele>769.0</ele><time>2026-05-03T07:52:52Z</time></trkpt><trkpt lat="44.58222473739697" lon="10.031257022516781"><ele>765.0</ele><time>2026-05-03T07:52:53Z</time></trkpt><trkpt lat="44.582037675860185" lon="10.0310254743031"><ele>767.0</ele><time>2026-05-03T07:52:54Z</time></trkpt><trkpt lat="44.58184808620832" lon="10.030804116382914"><ele>769.0</ele><time>2026-05-03T07:52:55Z</time></trkpt><trkpt lat="44.58168167386575" lon="10.030621022638895"><ele>769.0</ele><time>2026-05-03T07:52:56Z</time></trkpt><trkpt lat="44.58150600717189" lon="10.030479952556691"><ele>769.0</ele><time>2026-05-03T07:52:57Z</time></trkpt><trkpt lat="44.58129122297383" lon="10.030422864726159"><ele>769.0</ele><time>2026-05-03T07:52:58Z</time></trkpt><trkpt lat="44.58102651786643" lon="10.0303849130879"><ele>771.0</ele><time>2026-05-03T07:52:59Z</time></trkpt><trkpt lat="44.580790041569536" lon="10.03031518484661"><ele>773.0</ele><time>2026-05-03T07:53:00Z</time></trkpt><trkpt lat="44.58055373319834" lon="10.030236101390328"><ele>771.5</ele><time>2026-05-03T07:53:01Z</time></trkpt><trkpt lat="44.58032956668804" lon="10.030150567759339"><ele>770.0</ele><time>2026-05-03T07:53:02Z</time></trkpt><trkpt lat="44.580108007632184" lon="10.030110464468265"><ele>770.0</ele><time>2026-05-03T07:53:03Z</time></trkpt><trkpt lat="44.57988079115718" lon="10.030125126689853"><ele>770.0</ele><time>2026-05-03T07:53:04Z</time></trkpt><trkpt lat="44.57965363428957" lon="10.030192384776015"><ele>770.0</ele><time>2026-05-03T07:53:05Z</time></trkpt><trkpt lat="44.57943550337508" lon="10.030286858807571"><ele>770.0</ele><time>2026-05-03T07:53:06Z</time></trkpt><trkpt lat="44.57924607440615" lon="10.030406943327142"><ele>770.0</ele><time>2026-05-03T07:53:07Z</time></trkpt><trkpt lat="44.579079329557025" lon="10.030554923990326"><ele>770.0</ele><time>2026-05-03T07:53:08Z</time></trkpt><trkpt lat="44.57891491607572" lon="10.030614658266263"><ele>770.0</ele><time>2026-05-03T07:53:09Z</time></trkpt><trkpt lat="44.57875308856915" lon="10.030594966578539"><ele>770.0</ele><time>2026-05-03T07:53:10Z</time></trkpt><trkpt lat="44.57858468596613" lon="10.03050824964436"><ele>768.0</ele><time>2026-05-03T07:53:11Z</time></trkpt><trkpt lat="44.57841847706618" lon="10.030354410798239"><ele>766.0</ele><time>2026-05-03T07:53:12Z</time></trkpt><trkpt lat="44.578256342818754" lon="10.030157990885748"><ele>764.0</ele><time>2026-05-03T07:53:13Z</time></trkpt><trkpt lat="44.578124136002344" lon="10.029919162961496"><ele>764.0</ele><time>2026-05-03T07:53:14Z</time></trkpt><trkpt lat="44.57805727258925" lon="10.02965522973221"><ele>764.0</ele><time>2026-05-03T07:53:15Z</time></trkpt><trkpt lat="44.57804067230836" lon="10.029355963055815"><ele>764.0</ele><time>2026-05-03T07:53:16Z</time></trkpt><trkpt lat="44.57798411047348" lon="10.029037638032017"><ele>762.3333333333333</ele><time>2026-05-03T07:53:17Z</time></trkpt><trkpt lat="44.577891928265025" lon="10.028795121616861"><ele>760.6666666666666</ele><time>2026-05-03T07:53:18Z</time></trkpt><trkpt lat="44.57773279408196" lon="10.028579450154373"><ele>759.0</ele><time>2026-05-03T07:53:19Z</time></trkpt><trkpt lat="44.57753487928283" lon="10.028408890056175"><ele>751.5</ele><time>2026-05-03T07:53:20Z</time></trkpt><trkpt lat="44.57733554080543" lon="10.028287115360344"><ele>744.0</ele><time>2026-05-03T07:53:21Z</time></trkpt><trkpt lat="44.577291895650724" lon="10.027935254090988"><ele>744.0</ele><time>2026-05-03T07:53:22Z</time></trkpt><trkpt lat="44.57723658057421" lon="10.027579825934028"><ele>744.0</ele><time>2026-05-03T07:53:23Z</time></trkpt><trkpt lat="44.57713868002648" lon="10.027236011882126"><ele>742.0</ele><time>2026-05-03T07:53:24Z</time></trkpt><trkpt lat="44.57698747607657" lon="10.026904282873568"><ele>740.0</ele><time>2026-05-03T07:53:25Z</time></trkpt><trkpt lat="44.576929485320115" lon="10.026571148188513"><ele>740.0</ele><time>2026-05-03T07:53:26Z</time></trkpt><trkpt lat="44.57682890894957" lon="10.02631080825337"><ele>740.0</ele><time>2026-05-03T07:53:27Z</time></trkpt><trkpt lat="44.57673540931753" lon="10.026069721223925"><ele>740.0</ele><time>2026-05-03T07:53:28Z</time></trkpt><trkpt lat="44.57655919412557" lon="10.02586843878883"><ele>737.0</ele><time>2026-05-03T07:53:29Z</time></trkpt><trkpt lat="44.57633658532388" lon="10.025686299720462"><ele>734.0</ele><time>2026-05-03T07:53:30Z</time></trkpt><trkpt lat="44.57611910792242" lon="10.02548357037421"><ele>734.0</ele><time>2026-05-03T07:53:31Z</time></trkpt><trkpt lat="44.57591648657658" lon="10.025259447434024"><ele>734.0</ele><time>2026-05-03T07:53:32Z</time></trkpt><trkpt lat="44.57570770493895" lon="10.02503998385821"><ele>732.5</ele><time>2026-05-03T07:53:33Z</time></trkpt><trkpt lat="44.57550795112814" lon="10.024849995102242"><ele>731.0</ele><time>2026-05-03T07:53:34Z</time></trkpt><trkpt lat="44.57529244204514" lon="10.024674865669208"><ele>731.0</ele><time>2026-05-03T07:53:35Z</time></trkpt><trkpt lat="44.575038014030966" lon="10.024570684618299"><ele>731.0</ele><time>2026-05-03T07:53:36Z</time></trkpt><trkpt lat="44.574762289950314" lon="10.024501703573074"><ele>734.0</ele><time>2026-05-03T07:53:37Z</time></trkpt><trkpt lat="44.574498209855356" lon="10.02440667683702"><ele>737.0</ele><time>2026-05-03T07:53:37.999Z</time></trkpt><trkpt lat="44.574245160662535" lon="10.02430813285871"><ele>737.0</ele><time>2026-05-03T07:53:38.999Z</time></trkpt><trkpt lat="44.57400323396977" lon="10.024228435494607"><ele>737.0</ele><time>2026-05-03T07:53:39.999Z</time></trkpt><trkpt lat="44.573772111415764" lon="10.02415604602413"><ele>737.0</ele><time>2026-05-03T07:53:40.999Z</time></trkpt><trkpt lat="44.57356711730692" lon="10.024076557087007"><ele>737.0</ele><time>2026-05-03T07:53:41.999Z</time></trkpt><trkpt lat="44.573377621632886" lon="10.023981147228865"><ele>737.0</ele><time>2026-05-03T07:53:42.999Z</time></trkpt><trkpt lat="44.57325039900246" lon="10.023740124300739"><ele>737.0</ele><time>2026-05-03T07:53:43.999Z</time></trkpt><trkpt lat="44.57314131257143" lon="10.023487106944328"><ele>737.0</ele><time>2026-05-03T07:53:44.999Z</time></trkpt><trkpt lat="44.57300977775147" lon="10.02318717505074"><ele>735.0</ele><time>2026-05-03T07:53:45.999Z</time></trkpt><trkpt lat="44.57287537928468" lon="10.022890999709587"><ele>733.0</ele><time>2026-05-03T07:53:46.999Z</time></trkpt><trkpt lat="44.57272675524058" lon="10.02265692125795"><ele>736.6666666666667</ele><time>2026-05-03T07:53:47.999Z</time></trkpt><trkpt lat="44.57260745339858" lon="10.022409975863182"><ele>740.3333333333334</ele><time>2026-05-03T07:53:48.999Z</time></trkpt><trkpt lat="44.57246347817824" lon="10.022222425332805"><ele>744.0</ele><time>2026-05-03T07:53:49.999Z</time></trkpt><trkpt lat="44.57227730816015" lon="10.022077125203264"><ele>744.0</ele><time>2026-05-03T07:53:50.999Z</time></trkpt><trkpt lat="44.57207305705525" lon="10.021956053071083"><ele>744.0</ele><time>2026-05-03T07:53:51.999Z</time></trkpt><trkpt lat="44.571855543153475" lon="10.02185704667302"><ele>742.5</ele><time>2026-05-03T07:53:52.999Z</time></trkpt><trkpt lat="44.57162335596464" lon="10.021768381990517"><ele>741.0</ele><time>2026-05-03T07:53:53.999Z</time></trkpt><trkpt lat="44.57140999181256" lon="10.021680753039275"><ele>738.0</ele><time>2026-05-03T07:53:54.999Z</time></trkpt><trkpt lat="44.57122436654182" lon="10.021567348417685"><ele>735.0</ele><time>2026-05-03T07:53:55.999Z</time></trkpt><trkpt lat="44.57105094077805" lon="10.021418295649251"><ele>732.0</ele><time>2026-05-03T07:53:56.999Z</time></trkpt><trkpt lat="44.570883763912526" lon="10.02120239886724"><ele>730.5</ele><time>2026-05-03T07:53:57.999Z</time></trkpt><trkpt lat="44.57071729910265" lon="10.02096890620386"><ele>729.0</ele><time>2026-05-03T07:53:58.999Z</time></trkpt><trkpt lat="44.5705591607114" lon="10.020748183086917"><ele>725.6666666666666</ele><time>2026-05-03T07:53:59.999Z</time></trkpt><trkpt lat="44.57040860111648" lon="10.020549851650808"><ele>722.3333333333333</ele><time>2026-05-03T07:54:00.999Z</time></trkpt><trkpt lat="44.570268964604175" lon="10.020421749375714"><ele>719.0</ele><time>2026-05-03T07:54:01.999Z</time></trkpt><trkpt lat="44.57011562961758" lon="10.020344662435312"><ele>718.6666666666666</ele><time>2026-05-03T07:54:02.999Z</time></trkpt><trkpt lat="44.56991095160546" lon="10.020379865313608"><ele>718.3333333333334</ele><time>2026-05-03T07:54:03.999Z</time></trkpt><trkpt lat="44.569682099626114" lon="10.020440558023685"><ele>718.0</ele><time>2026-05-03T07:54:04.999Z</time></trkpt><trkpt lat="44.56945230426894" lon="10.02046257469616"><ele>715.6666666666667</ele><time>2026-05-03T07:54:05.999Z</time></trkpt><trkpt lat="44.56924792172514" lon="10.020395899012554"><ele>713.3333333333334</ele><time>2026-05-03T07:54:06.999Z</time></trkpt><trkpt lat="44.56907626251364" lon="10.020240990640293"><ele>711.0</ele><time>2026-05-03T07:54:07.999Z</time></trkpt><trkpt lat="44.56886864126724" lon="10.020052618098502"><ele>708.5</ele><time>2026-05-03T07:54:08.999Z</time></trkpt><trkpt lat="44.5686155662515" lon="10.019850917176065"><ele>706.0</ele><time>2026-05-03T07:54:09.999Z</time></trkpt><trkpt lat="44.5684003415037" lon="10.019659859122521"><ele>706.0</ele><time>2026-05-03T07:54:10.999Z</time></trkpt><trkpt lat="44.56820323501854" lon="10.019460525299914"><ele>706.0</ele><time>2026-05-03T07:54:11.999Z</time></trkpt><trkpt lat="44.56799989809078" lon="10.01928233918355"><ele>709.5</ele><time>2026-05-03T07:54:12.999Z</time></trkpt><trkpt lat="44.56780208688628" lon="10.019110315687367"><ele>713.0</ele><time>2026-05-03T07:54:13.999Z</time></trkpt><trkpt lat="44.5676054029309" lon="10.018939399038814"><ele>713.0</ele><time>2026-05-03T07:54:14.999Z</time></trkpt><trkpt lat="44.567412030765496" lon="10.01877272986144"><ele>713.0</ele><time>2026-05-03T07:54:15.999Z</time></trkpt><trkpt lat="44.567216514383134" lon="10.018601981702941"><ele>711.0</ele><time>2026-05-03T07:54:16.999Z</time></trkpt><trkpt lat="44.5670207764572" lon="10.018431283921434"><ele>709.0</ele><time>2026-05-03T07:54:17.999Z</time></trkpt><trkpt lat="44.566826633195475" lon="10.018260434494673"><ele>709.0</ele><time>2026-05-03T07:54:18.999Z</time></trkpt><trkpt lat="44.56663970278765" lon="10.01809198897775"><ele>709.0</ele><time>2026-05-03T07:54:19.999Z</time></trkpt><trkpt lat="44.56645357012784" lon="10.017928553073538"><ele>709.0</ele><time>2026-05-03T07:54:20.999Z</time></trkpt><trkpt lat="44.56625101188755" lon="10.017813986546779"><ele>709.3333333333334</ele><time>2026-05-03T07:54:21.999Z</time></trkpt><trkpt lat="44.56604553977285" lon="10.017715505312262"><ele>709.6666666666666</ele><time>2026-05-03T07:54:22.999Z</time></trkpt><trkpt lat="44.565824813630904" lon="10.01765943135792"><ele>710.0</ele><time>2026-05-03T07:54:23.999Z</time></trkpt><trkpt lat="44.56560039861154" lon="10.017630646891618"><ele>710.0</ele><time>2026-05-03T07:54:24.999Z</time></trkpt><trkpt lat="44.56538596756792" lon="10.017573517356928"><ele>710.0</ele><time>2026-05-03T07:54:25.999Z</time></trkpt><trkpt lat="44.565185040961936" lon="10.017497586559005"><ele>710.0</ele><time>2026-05-03T07:54:26.999Z</time></trkpt><trkpt lat="44.56501300403134" lon="10.017364798265286"><ele>710.6666666666666</ele><time>2026-05-03T07:54:27.999Z</time></trkpt><trkpt lat="44.564848760778986" lon="10.017214151561795"><ele>711.3333333333334</ele><time>2026-05-03T07:54:28.999Z</time></trkpt><trkpt lat="44.56467992364032" lon="10.017101601572543"><ele>712.0</ele><time>2026-05-03T07:54:29.999Z</time></trkpt><trkpt lat="44.56451748113182" lon="10.017045886431344"><ele>712.0</ele><time>2026-05-03T07:54:30.999Z</time></trkpt><trkpt lat="44.564345019932944" lon="10.017044035469326"><ele>712.0</ele><time>2026-05-03T07:54:31.999Z</time></trkpt><trkpt lat="44.564191848904166" lon="10.017055566844114"><ele>712.0</ele><time>2026-05-03T07:54:32.999Z</time></trkpt><trkpt lat="44.56405892014985" lon="10.016998744095341"><ele>712.0</ele><time>2026-05-03T07:54:33.999Z</time></trkpt><trkpt lat="44.56393328376151" lon="10.016901371064208"><ele>712.0</ele><time>2026-05-03T07:54:34.999Z</time></trkpt><trkpt lat="44.5637959050464" lon="10.016779946037062"><ele>712.0</ele><time>2026-05-03T07:54:35.999Z</time></trkpt><trkpt lat="44.563658648040956" lon="10.016657102971896"><ele>713.3333333333334</ele><time>2026-05-03T07:54:36.999Z</time></trkpt><trkpt lat="44.56352457154285" lon="10.016529347410732"><ele>714.6666666666666</ele><time>2026-05-03T07:54:38Z</time></trkpt><trkpt lat="44.563400225049186" lon="10.016391406196178"><ele>716.0</ele><time>2026-05-03T07:54:39Z</time></trkpt><trkpt lat="44.563299249724714" lon="10.016229063007883"><ele>716.0</ele><time>2026-05-03T07:54:40Z</time></trkpt><trkpt lat="44.5632301936408" lon="10.016048866338082"><ele>716.0</ele><time>2026-05-03T07:54:41Z</time></trkpt><trkpt lat="44.56317491413767" lon="10.015843484807275"><ele>716.0</ele><time>2026-05-03T07:54:42Z</time></trkpt><trkpt lat="44.56310862769172" lon="10.015636955950125"><ele>715.5</ele><time>2026-05-03T07:54:43Z</time></trkpt><trkpt lat="44.563058496233516" lon="10.015426231425602"><ele>715.0</ele><time>2026-05-03T07:54:44Z</time></trkpt><trkpt lat="44.563014068881365" lon="10.015233225142444"><ele>714.5</ele><time>2026-05-03T07:54:45Z</time></trkpt><trkpt lat="44.562970701543314" lon="10.015067764902689"><ele>714.0</ele><time>2026-05-03T07:54:46Z</time></trkpt><trkpt lat="44.56292160584958" lon="10.01492486373758"><ele>715.2</ele><time>2026-05-03T07:54:47Z</time></trkpt><trkpt lat="44.56285519638045" lon="10.014817250713927"><ele>716.4000000000001</ele><time>2026-05-03T07:54:48Z</time></trkpt><trkpt lat="44.56275581342286" lon="10.014765213329007"><ele>717.6</ele><time>2026-05-03T07:54:49Z</time></trkpt><trkpt lat="44.562639343931735" lon="10.014795979733476"><ele>718.8</ele><time>2026-05-03T07:54:50Z</time></trkpt><trkpt lat="44.56253380461969" lon="10.014864572613943"><ele>720.0</ele><time>2026-05-03T07:54:51Z</time></trkpt><trkpt lat="44.56240569417153" lon="10.01488797580063"><ele>720.0</ele><time>2026-05-03T07:54:52Z</time></trkpt><trkpt lat="44.56228694705502" lon="10.014930373262718"><ele>720.0</ele><time>2026-05-03T07:54:53Z</time></trkpt><trkpt lat="44.562158175589275" lon="10.014987372955543"><ele>720.0</ele><time>2026-05-03T07:54:54Z</time></trkpt><trkpt lat="44.562024081663445" lon="10.014962475501044"><ele>720.0</ele><time>2026-05-03T07:54:55Z</time></trkpt><trkpt lat="44.56189407500819" lon="10.014892603986583"><ele>722.0</ele><time>2026-05-03T07:54:56Z</time></trkpt><trkpt lat="44.56176836070687" lon="10.014798225421437"><ele>724.0</ele><time>2026-05-03T07:54:57Z</time></trkpt><trkpt lat="44.5616267988117" lon="10.014721446693716"><ele>726.0</ele><time>2026-05-03T07:54:58Z</time></trkpt><trkpt lat="44.56149030496162" lon="10.014621219825617"><ele>728.0</ele><time>2026-05-03T07:54:59Z</time></trkpt><trkpt lat="44.56135793042905" lon="10.014498760940263"><ele>728.0</ele><time>2026-05-03T07:55:00Z</time></trkpt><trkpt lat="44.561209845560484" lon="10.014411684368394"><ele>728.0</ele><time>2026-05-03T07:55:01Z</time></trkpt><trkpt lat="44.56107650356987" lon="10.014314210047177"><ele>728.0</ele><time>2026-05-03T07:55:02Z</time></trkpt><trkpt lat="44.56093789166673" lon="10.014246894449949"><ele>731.6666666666666</ele><time>2026-05-03T07:55:03Z</time></trkpt><trkpt lat="44.56079223409609" lon="10.014214507768516"><ele>735.3333333333334</ele><time>2026-05-03T07:55:04Z</time></trkpt><trkpt lat="44.56064211359017" lon="10.014207271577877"><ele>739.0</ele><time>2026-05-03T07:55:05Z</time></trkpt><trkpt lat="44.5604928204455" lon="10.014168053439645"><ele>741.75</ele><time>2026-05-03T07:55:06Z</time></trkpt><trkpt lat="44.56034532024824" lon="10.014139545903673"><ele>744.5</ele><time>2026-05-03T07:55:07Z</time></trkpt><trkpt lat="44.560204227605865" lon="10.014077437882968"><ele>747.25</ele><time>2026-05-03T07:55:08Z</time></trkpt><trkpt lat="44.560090752181935" lon="10.013967033786672"><ele>750.0</ele><time>2026-05-03T07:55:09Z</time></trkpt><trkpt lat="44.55996944529991" lon="10.013844515989906"><ele>750.0</ele><time>2026-05-03T07:55:10Z</time></trkpt><trkpt lat="44.559955707303324" lon="10.013629106137927"><ele>750.0</ele><time>2026-05-03T07:55:11Z</time></trkpt><trkpt lat="44.55990563733112" lon="10.013454937270206"><ele>750.0</ele><time>2026-05-03T07:55:12Z</time></trkpt><trkpt lat="44.55984446356936" lon="10.013293551854877"><ele>750.0</ele><time>2026-05-03T07:55:13Z</time></trkpt><trkpt lat="44.55981083397785" lon="10.013098674695451"><ele>750.0</ele><time>2026-05-03T07:55:14Z</time></trkpt><trkpt lat="44.55976230906671" lon="10.012907581787566"><ele>750.0</ele><time>2026-05-03T07:55:15Z</time></trkpt><trkpt lat="44.5597105725124" lon="10.012702619230108"><ele>750.0</ele><time>2026-05-03T07:55:16Z</time></trkpt><trkpt lat="44.559659528540664" lon="10.012496768813863"><ele>751.0</ele><time>2026-05-03T07:55:17Z</time></trkpt><trkpt lat="44.559614049042594" lon="10.012281979992046"><ele>752.0</ele><time>2026-05-03T07:55:18Z</time></trkpt><trkpt lat="44.5595909826742" lon="10.012043527093997"><ele>753.0</ele><time>2026-05-03T07:55:19Z</time></trkpt><trkpt lat="44.55959858644772" lon="10.011806502483678"><ele>751.3333333333334</ele><time>2026-05-03T07:55:20Z</time></trkpt><trkpt lat="44.5595819584866" lon="10.011578333545245"><ele>749.6666666666667</ele><time>2026-05-03T07:55:21Z</time></trkpt><trkpt lat="44.55956444461091" lon="10.011369591429315"><ele>748.0</ele><time>2026-05-03T07:55:22Z</time></trkpt><trkpt lat="44.55950328258239" lon="10.011150079281967"><ele>751.0</ele><time>2026-05-03T07:55:23Z</time></trkpt><trkpt lat="44.559454915214744" lon="10.010980472466633"><ele>754.0</ele><time>2026-05-03T07:55:24Z</time></trkpt><trkpt lat="44.55940280782013" lon="10.010837123850004"><ele>757.0</ele><time>2026-05-03T07:55:25Z</time></trkpt><trkpt lat="44.55936071834958" lon="10.010743297836372"><ele>760.0</ele><time>2026-05-03T07:55:26Z</time></trkpt><trkpt lat="44.559376487658" lon="10.010630877551693"><ele>763.0</ele><time>2026-05-03T07:55:27Z</time></trkpt><trkpt lat="44.55929326750333" lon="10.01054748102956"><ele>763.0</ele><time>2026-05-03T07:55:31Z</time></trkpt><trkpt lat="44.559222804238885" lon="10.010439125937234"><ele>763.0</ele><time>2026-05-03T07:55:33Z</time></trkpt><trkpt lat="44.55924596619658" lon="10.010353316836529"><ele>763.0</ele><time>2026-05-03T07:55:34Z</time></trkpt><trkpt lat="44.559270658164934" lon="10.010196997508727"><ele>763.0</ele><time>2026-05-03T07:55:36Z</time></trkpt><trkpt lat="44.559287075135785" lon="10.01010104917422"><ele>763.0</ele><time>2026-05-03T07:55:37Z</time></trkpt><trkpt lat="44.55930619537114" lon="10.010007116227166"><ele>763.0</ele><time>2026-05-03T07:55:38Z</time></trkpt><trkpt lat="44.55937398147706" lon="10.009894833006754"><ele>762.0</ele><time>2026-05-03T07:55:40Z</time></trkpt><trkpt lat="44.559488334406986" lon="10.009836841336563"><ele>761.0</ele><time>2026-05-03T07:55:42Z</time></trkpt><trkpt lat="44.55956104957213" lon="10.009844310896774"><ele>760.0</ele><time>2026-05-03T07:55:43Z</time></trkpt><trkpt lat="44.55963683226989" lon="10.009850408877762"><ele>759.0</ele><time>2026-05-03T07:55:44Z</time></trkpt><trkpt lat="44.55971731632842" lon="10.009847970126069"><ele>758.0</ele><time>2026-05-03T07:55:45Z</time></trkpt><trkpt lat="44.55979283812361" lon="10.009839232592068"><ele>757.0</ele><time>2026-05-03T07:55:46Z</time></trkpt><trkpt lat="44.55986969364599" lon="10.009827429628544"><ele>752.2</ele><time>2026-05-03T07:55:46.999Z</time></trkpt><trkpt lat="44.55989759214864" lon="10.009663548730597"><ele>747.4000000000001</ele><time>2026-05-03T07:55:47.999Z</time></trkpt><trkpt lat="44.55995840511898" lon="10.009628598654553"><ele>742.5999999999999</ele><time>2026-05-03T07:55:48.999Z</time></trkpt><trkpt lat="44.560058910936334" lon="10.009564600500585"><ele>737.8</ele><time>2026-05-03T07:55:50.999Z</time></trkpt><trkpt lat="44.56016063900288" lon="10.009508579668482"><ele>733.0</ele><time>2026-05-03T07:55:52.999Z</time></trkpt><trkpt lat="44.56027111149632" lon="10.00949368396586"><ele>733.0</ele><time>2026-05-03T07:55:54.999Z</time></trkpt><trkpt lat="44.560306614566656" lon="10.009682073059285"><ele>733.0</ele><time>2026-05-03T07:55:56.999Z</time></trkpt><trkpt lat="44.56033781867235" lon="10.00983992574499"><ele>733.0</ele><time>2026-05-03T07:55:58.999Z</time></trkpt><trkpt lat="44.560392437235286" lon="10.009989525801961"><ele>733.0</ele><time>2026-05-03T07:56:00.999Z</time></trkpt><trkpt lat="44.56050894850688" lon="10.010048788408564"><ele>729.8</ele><time>2026-05-03T07:56:02.999Z</time></trkpt><trkpt lat="44.560608122930184" lon="10.010101984146484"><ele>726.5999999999999</ele><time>2026-05-03T07:56:04.999Z</time></trkpt><trkpt lat="44.560693161707334" lon="10.01010583589526"><ele>723.4000000000001</ele><time>2026-05-03T07:56:06.999Z</time></trkpt><trkpt lat="44.56080736724944" lon="10.010103929027489"><ele>720.2</ele><time>2026-05-03T07:56:08.999Z</time></trkpt><trkpt lat="44.56089510256332" lon="10.010057172064867"><ele>717.0</ele><time>2026-05-03T07:56:10.999Z</time></trkpt><trkpt lat="44.56095452746623" lon="10.01000347048229"><ele>715.6</ele><time>2026-05-03T07:56:13.999Z</time></trkpt><trkpt lat="44.56095939102431" lon="10.009869105580051"><ele>714.2</ele><time>2026-05-03T07:56:20.999Z</time></trkpt><trkpt lat="44.56096206875914" lon="10.009682990293806"><ele>712.8</ele><time>2026-05-03T07:56:22.999Z</time></trkpt><trkpt lat="44.56094339647068" lon="10.009534659588846"><ele>711.4</ele><time>2026-05-03T07:56:24.999Z</time></trkpt><trkpt lat="44.56092693772281" lon="10.0094340373962"><ele>710.0</ele><time>2026-05-03T07:56:26.999Z</time></trkpt><trkpt lat="44.5609193463389" lon="10.009287625224443"><ele>710.0</ele><time>2026-05-03T07:56:28.999Z</time></trkpt><trkpt lat="44.56093050465364" lon="10.009167319701012"><ele>710.0</ele><time>2026-05-03T07:56:30.999Z</time></trkpt><trkpt lat="44.560907109692074" lon="10.009026740649333"><ele>710.0</ele><time>2026-05-03T07:56:32.999Z</time></trkpt><trkpt lat="44.5608411674859" lon="10.008920033888295"><ele>710.0</ele><time>2026-05-03T07:56:34.999Z</time></trkpt><trkpt lat="44.56078464040894" lon="10.008874845808155"><ele>710.0</ele><time>2026-05-03T07:56:39.999Z</time></trkpt><trkpt lat="44.56085403187662" lon="10.009004927122188"><ele>705.5</ele><time>2026-05-03T07:59:44Z</time></trkpt><trkpt lat="44.56092191658215" lon="10.009097514727237"><ele>701.0</ele><time>2026-05-03T07:59:45Z</time></trkpt><trkpt lat="44.56031328180978" lon="10.009561982171416"><ele>704.0</ele><time>2026-05-03T07:59:46Z</time></trkpt><trkpt lat="44.56042198374496" lon="10.009723840380062"><ele>707.0</ele><time>2026-05-03T07:59:48Z</time></trkpt><trkpt lat="44.56046798593637" lon="10.009956131210439"><ele>710.0</ele><time>2026-05-03T07:59:49Z</time></trkpt><trkpt lat="44.560636546222796" lon="10.010185908067593"><ele>712.3333333333333</ele><time>2026-05-03T07:59:50Z</time></trkpt><trkpt lat="44.56092779024845" lon="10.010001256274638"><ele>714.6666666666666</ele><time>2026-05-03T07:59:52Z</time></trkpt><trkpt lat="44.56088105574045" lon="10.010064694279995"><ele>717.0</ele><time>2026-05-03T07:59:53Z</time></trkpt><trkpt lat="44.56080877072573" lon="10.01011873622251"><ele>717.0</ele><time>2026-05-03T07:59:54Z</time></trkpt><trkpt lat="44.56072611920241" lon="10.010130333853816"><ele>717.0</ele><time>2026-05-03T07:59:55Z</time></trkpt><trkpt lat="44.56063180098294" lon="10.01010321015496"><ele>717.0</ele><time>2026-05-03T07:59:56Z</time></trkpt><trkpt lat="44.560542006598645" lon="10.010062344157243"><ele>717.0</ele><time>2026-05-03T07:59:56.999Z</time></trkpt><trkpt lat="44.56045292401226" lon="10.010027516421216"><ele>717.0</ele><time>2026-05-03T07:59:57.999Z</time></trkpt><trkpt lat="44.56037587009136" lon="10.00996769443168"><ele>720.2</ele><time>2026-05-03T07:59:58.999Z</time></trkpt><trkpt lat="44.56032844090448" lon="10.009874285680375"><ele>723.4000000000001</ele><time>2026-05-03T07:59:59.999Z</time></trkpt><trkpt lat="44.56030979819483" lon="10.00975011950329"><ele>726.5999999999999</ele><time>2026-05-03T08:00:00.999Z</time></trkpt><trkpt lat="44.56028921443265" lon="10.009644627794458"><ele>729.8</ele><time>2026-05-03T08:00:01.999Z</time></trkpt><trkpt lat="44.56024003639744" lon="10.009515176849176"><ele>733.0</ele><time>2026-05-03T08:00:03.999Z</time></trkpt><trkpt lat="44.560114583533036" lon="10.009551918339563"><ele>733.0</ele><time>2026-05-03T08:00:05.999Z</time></trkpt><trkpt lat="44.56004230365747" lon="10.009600340439937"><ele>733.0</ele><time>2026-05-03T08:00:06.999Z</time></trkpt><trkpt lat="44.55997884291763" lon="10.009645883176246"><ele>733.0</ele><time>2026-05-03T08:00:07.999Z</time></trkpt><trkpt lat="44.559906589334005" lon="10.009703709258893"><ele>733.0</ele><time>2026-05-03T08:00:08.999Z</time></trkpt><trkpt lat="44.55984014154797" lon="10.009770974350731"><ele>733.0</ele><time>2026-05-03T08:00:09.999Z</time></trkpt><trkpt lat="44.55978485801211" lon="10.009827661297107"><ele>733.0</ele><time>2026-05-03T08:00:10.999Z</time></trkpt><trkpt lat="44.559664033664056" lon="10.009865423478095"><ele>733.0</ele><time>2026-05-03T08:00:12.999Z</time></trkpt><trkpt lat="44.55958996544546" lon="10.00985713446067"><ele>733.0</ele><time>2026-05-03T08:00:13.999Z</time></trkpt><trkpt lat="44.55952464266001" lon="10.009855185992057"><ele>733.0</ele><time>2026-05-03T08:00:14.999Z</time></trkpt><trkpt lat="44.55940204391779" lon="10.009869228497292"><ele>733.0</ele><time>2026-05-03T08:00:16.999Z</time></trkpt><trkpt lat="44.5593387507604" lon="10.009905813915314"><ele>733.0</ele><time>2026-05-03T08:00:17.999Z</time></trkpt><trkpt lat="44.559281080598176" lon="10.00997591086649"><ele>733.0</ele><time>2026-05-03T08:00:18.999Z</time></trkpt><trkpt lat="44.55924654760541" lon="10.010072175349697"><ele>738.0</ele><time>2026-05-03T08:00:19.999Z</time></trkpt><trkpt lat="44.559235006439884" lon="10.010181928551308"><ele>743.0</ele><time>2026-05-03T08:00:20.999Z</time></trkpt><trkpt lat="44.55922653511388" lon="10.01028882203169"><ele>748.0</ele><time>2026-05-03T08:00:21.999Z</time></trkpt><trkpt lat="44.55921915068229" lon="10.010379835512355"><ele>753.0</ele><time>2026-05-03T08:00:22.999Z</time></trkpt><trkpt lat="44.55927568728959" lon="10.010547066065168"><ele>758.0</ele><time>2026-05-03T08:00:24.999Z</time></trkpt><trkpt lat="44.55932714273754" lon="10.010609196254354"><ele>763.0</ele><time>2026-05-03T08:00:25.999Z</time></trkpt><trkpt lat="44.559362420619145" lon="10.010698304105015"><ele>763.0</ele><time>2026-05-03T08:00:27.999Z</time></trkpt><trkpt lat="44.55925437272024" lon="10.010649845766224"><ele>763.0</ele><time>2026-05-03T08:00:38.999Z</time></trkpt><trkpt lat="44.55914639137374" lon="10.0105960377773"><ele>763.0</ele><time>2026-05-03T08:00:39.999Z</time></trkpt><trkpt lat="44.559032740757814" lon="10.010504643173906"><ele>763.0</ele><time>2026-05-03T08:00:40.999Z</time></trkpt><trkpt lat="44.55887569427692" lon="10.01038997247856"><ele>769.0</ele><time>2026-05-03T08:00:41.999Z</time></trkpt><trkpt lat="44.55869786158554" lon="10.010229295078547"><ele>775.0</ele><time>2026-05-03T08:00:42.999Z</time></trkpt><trkpt lat="44.558499573922006" lon="10.010050873999653"><ele>781.0</ele><time>2026-05-03T08:00:43.999Z</time></trkpt><trkpt lat="44.55829415409168" lon="10.009813364795935"><ele>781.0</ele><time>2026-05-03T08:00:44.999Z</time></trkpt><trkpt lat="44.55818573173056" lon="10.009543104993929"><ele>781.0</ele><time>2026-05-03T08:00:46.999Z</time></trkpt><trkpt lat="44.55812503591891" lon="10.00929399513919"><ele>781.0</ele><time>2026-05-03T08:00:47.999Z</time></trkpt><trkpt lat="44.55804751031371" lon="10.00901017246999"><ele>778.6666666666666</ele><time>2026-05-03T08:00:48.999Z</time></trkpt><trkpt lat="44.557945214403034" lon="10.008791208813062"><ele>776.3333333333333</ele><time>2026-05-03T08:00:49.999Z</time></trkpt><trkpt lat="44.55782511904426" lon="10.00860769319778"><ele>774.0</ele><time>2026-05-03T08:00:50.999Z</time></trkpt><trkpt lat="44.55766685139726" lon="10.00843105181009"><ele>777.3333333333333</ele><time>2026-05-03T08:00:51.999Z</time></trkpt><trkpt lat="44.55758495894866" lon="10.008185119825594"><ele>780.6666666666666</ele><time>2026-05-03T08:00:52.999Z</time></trkpt><trkpt lat="44.55754924418054" lon="10.00795357146089"><ele>784.0</ele><time>2026-05-03T08:00:53.999Z</time></trkpt><trkpt lat="44.55750209476465" lon="10.007747305417388"><ele>784.0</ele><time>2026-05-03T08:00:54.999Z</time></trkpt><trkpt lat="44.55743867772234" lon="10.007617728312747"><ele>784.0</ele><time>2026-05-03T08:00:56Z</time></trkpt><trkpt lat="44.557329260219134" lon="10.007522596648487"><ele>784.0</ele><time>2026-05-03T08:00:57Z</time></trkpt><trkpt lat="44.55717246460147" lon="10.007506051923734"><ele>784.0</ele><time>2026-05-03T08:00:58Z</time></trkpt><trkpt lat="44.55698721712526" lon="10.007564747808761"><ele>787.5</ele><time>2026-05-03T08:00:59Z</time></trkpt><trkpt lat="44.55682161107001" lon="10.007643120669771"><ele>791.0</ele><time>2026-05-03T08:01:00Z</time></trkpt><trkpt lat="44.5566852881533" lon="10.007692497463724"><ele>794.5</ele><time>2026-05-03T08:01:01Z</time></trkpt><trkpt lat="44.5565748981606" lon="10.007679501223132"><ele>798.0</ele><time>2026-05-03T08:01:02Z</time></trkpt><trkpt lat="44.55651087362523" lon="10.007529957394143"><ele>795.75</ele><time>2026-05-03T08:01:03Z</time></trkpt><trkpt lat="44.55650494007293" lon="10.00736052738975"><ele>793.5</ele><time>2026-05-03T08:01:04Z</time></trkpt><trkpt lat="44.55647836395664" lon="10.007158595379524"><ele>791.25</ele><time>2026-05-03T08:01:05Z</time></trkpt><trkpt lat="44.5563970511883" lon="10.006991177700957"><ele>789.0</ele><time>2026-05-03T08:01:06Z</time></trkpt><trkpt lat="44.556266904924925" lon="10.00681433087853"><ele>793.6666666666667</ele><time>2026-05-03T08:01:07Z</time></trkpt><trkpt lat="44.556088850692596" lon="10.006644693426955"><ele>798.3333333333334</ele><time>2026-05-03T08:01:08Z</time></trkpt><trkpt lat="44.55591705045728" lon="10.006471699937467"><ele>803.0</ele><time>2026-05-03T08:01:09Z</time></trkpt><trkpt lat="44.55576085393839" lon="10.00629119493764"><ele>803.0</ele><time>2026-05-03T08:01:10Z</time></trkpt><trkpt lat="44.555641422338695" lon="10.006105939259754"><ele>803.0</ele><time>2026-05-03T08:01:11Z</time></trkpt><trkpt lat="44.55557082660977" lon="10.005879256934195"><ele>803.0</ele><time>2026-05-03T08:01:12Z</time></trkpt><trkpt lat="44.555500931345954" lon="10.005620517095554"><ele>803.0</ele><time>2026-05-03T08:01:13Z</time></trkpt><trkpt lat="44.555462321923294" lon="10.005395447232132"><ele>803.0</ele><time>2026-05-03T08:01:14Z</time></trkpt><trkpt lat="44.555485144297066" lon="10.005173589377659"><ele>803.0</ele><time>2026-05-03T08:01:15Z</time></trkpt><trkpt lat="44.55555091429629" lon="10.004960268833699"><ele>803.6666666666667</ele><time>2026-05-03T08:01:16Z</time></trkpt><trkpt lat="44.55562293616913" lon="10.004720174449423"><ele>804.3333333333333</ele><time>2026-05-03T08:01:17Z</time></trkpt><trkpt lat="44.55565938102937" lon="10.004483481594862"><ele>805.0</ele><time>2026-05-03T08:01:18Z</time></trkpt><trkpt lat="44.555631103217436" lon="10.004234740101493"><ele>804.75</ele><time>2026-05-03T08:01:19Z</time></trkpt><trkpt lat="44.55556087702785" lon="10.004050417311676"><ele>804.5</ele><time>2026-05-03T08:01:20Z</time></trkpt><trkpt lat="44.55545249478506" lon="10.003932873596186"><ele>804.25</ele><time>2026-05-03T08:01:21Z</time></trkpt><trkpt lat="44.555311405179815" lon="10.003899984387752"><ele>804.0</ele><time>2026-05-03T08:01:22Z</time></trkpt><trkpt lat="44.555144314534864" lon="10.003887470884248"><ele>806.75</ele><time>2026-05-03T08:01:23Z</time></trkpt><trkpt lat="44.554968247065375" lon="10.003849650688226"><ele>809.5</ele><time>2026-05-03T08:01:24Z</time></trkpt><trkpt lat="44.55483665937613" lon="10.003777225371694"><ele>812.25</ele><time>2026-05-03T08:01:25Z</time></trkpt><trkpt lat="44.554740847697154" lon="10.003686080363869"><ele>815.0</ele><time>2026-05-03T08:01:26Z</time></trkpt><trkpt lat="44.55465099020676" lon="10.003594953853217"><ele>815.0</ele><time>2026-05-03T08:01:27Z</time></trkpt><trkpt lat="44.55456956128308" lon="10.003517358595154"><ele>815.0</ele><time>2026-05-03T08:01:28Z</time></trkpt><trkpt lat="44.554497904214635" lon="10.003449075128307"><ele>815.0</ele><time>2026-05-03T08:01:29Z</time></trkpt><trkpt lat="44.554428767902856" lon="10.003383193665663"><ele>815.0</ele><time>2026-05-03T08:01:30Z</time></trkpt><trkpt lat="44.55434555395526" lon="10.003312094978245"><ele>815.0</ele><time>2026-05-03T08:01:31Z</time></trkpt><trkpt lat="44.55425828916776" lon="10.003238734522066"><ele>817.5</ele><time>2026-05-03T08:01:32Z</time></trkpt><trkpt lat="44.55417927666731" lon="10.003144563539049"><ele>820.0</ele><time>2026-05-03T08:01:33Z</time></trkpt><trkpt lat="44.55410908645604" lon="10.003011281097715"><ele>822.5</ele><time>2026-05-03T08:01:34Z</time></trkpt><trkpt lat="44.554048249461644" lon="10.002820688745851"><ele>825.0</ele><time>2026-05-03T08:01:35Z</time></trkpt><trkpt lat="44.55397958512165" lon="10.002557189904929"><ele>823.3333333333333</ele><time>2026-05-03T08:01:36Z</time></trkpt><trkpt lat="44.55391702913562" lon="10.00232780700402"><ele>821.6666666666666</ele><time>2026-05-03T08:01:37Z</time></trkpt><trkpt lat="44.55384417841557" lon="10.002011120924596"><ele>820.0</ele><time>2026-05-03T08:01:38Z</time></trkpt><trkpt lat="44.55379994505318" lon="10.001783965418685"><ele>821.25</ele><time>2026-05-03T08:01:39Z</time></trkpt><trkpt lat="44.55374298263783" lon="10.001588705586391"><ele>822.5</ele><time>2026-05-03T08:01:40Z</time></trkpt><trkpt lat="44.553652140255316" lon="10.001430347259646"><ele>823.75</ele><time>2026-05-03T08:01:41Z</time></trkpt><trkpt lat="44.55353103526719" lon="10.001316543906492"><ele>825.0</ele><time>2026-05-03T08:01:42Z</time></trkpt><trkpt lat="44.553381007944864" lon="10.00127935224707"><ele>825.0</ele><time>2026-05-03T08:01:43Z</time></trkpt><trkpt lat="44.55325260775457" lon="10.001297975194289"><ele>825.0</ele><time>2026-05-03T08:01:44Z</time></trkpt><trkpt lat="44.553125631373" lon="10.001358754240137"><ele>825.0</ele><time>2026-05-03T08:01:45Z</time></trkpt><trkpt lat="44.553001241708834" lon="10.001498437784782"><ele>825.0</ele><time>2026-05-03T08:01:46Z</time></trkpt><trkpt lat="44.55290014737578" lon="10.001675775695487"><ele>830.3333333333333</ele><time>2026-05-03T08:01:47Z</time></trkpt><trkpt lat="44.55280307998129" lon="10.001841698355712"><ele>835.6666666666666</ele><time>2026-05-03T08:01:48Z</time></trkpt><trkpt lat="44.552697798092375" lon="10.001998106702366"><ele>841.0</ele><time>2026-05-03T08:01:49Z</time></trkpt><trkpt lat="44.55256837559359" lon="10.002094414039847"><ele>841.0</ele><time>2026-05-03T08:01:50Z</time></trkpt><trkpt lat="44.55243890204794" lon="10.00216013595748"><ele>841.0</ele><time>2026-05-03T08:01:51Z</time></trkpt><trkpt lat="44.55230370020922" lon="10.002155665121707"><ele>841.0</ele><time>2026-05-03T08:01:52Z</time></trkpt><trkpt lat="44.55218020852366" lon="10.002173963961074"><ele>841.0</ele><time>2026-05-03T08:01:53Z</time></trkpt><trkpt lat="44.552040438722926" lon="10.002186168173537"><ele>841.5</ele><time>2026-05-03T08:01:54Z</time></trkpt><trkpt lat="44.55189751708039" lon="10.002191139087216"><ele>842.0</ele><time>2026-05-03T08:01:55Z</time></trkpt><trkpt lat="44.55175322003233" lon="10.002147299586177"><ele>842.5</ele><time>2026-05-03T08:01:56Z</time></trkpt><trkpt lat="44.55160302668937" lon="10.002090629402158"><ele>843.0</ele><time>2026-05-03T08:01:57Z</time></trkpt><trkpt lat="44.55145243191777" lon="10.002040058916714"><ele>843.0</ele><time>2026-05-03T08:01:58Z</time></trkpt><trkpt lat="44.55131159758235" lon="10.001983714996753"><ele>843.0</ele><time>2026-05-03T08:01:59Z</time></trkpt><trkpt lat="44.55118043262798" lon="10.001998770442356"><ele>843.0</ele><time>2026-05-03T08:02:00Z</time></trkpt><trkpt lat="44.55104642521847" lon="10.002090162691418"><ele>843.0</ele><time>2026-05-03T08:02:01Z</time></trkpt><trkpt lat="44.55093889633037" lon="10.002285816897162"><ele>846.6666666666667</ele><time>2026-05-03T08:02:02Z</time></trkpt><trkpt lat="44.550826033102716" lon="10.002531723990797"><ele>850.3333333333334</ele><time>2026-05-03T08:02:03Z</time></trkpt><trkpt lat="44.55068814735844" lon="10.002749560474141"><ele>854.0</ele><time>2026-05-03T08:02:04Z</time></trkpt><trkpt lat="44.55055900924059" lon="10.002997305252835"><ele>854.0</ele><time>2026-05-03T08:02:05Z</time></trkpt><trkpt lat="44.550427884018276" lon="10.003217668436564"><ele>854.0</ele><time>2026-05-03T08:02:06Z</time></trkpt><trkpt lat="44.55031658731224" lon="10.003411069346946"><ele>854.0</ele><time>2026-05-03T08:02:06.999Z</time></trkpt><trkpt lat="44.550186911646676" lon="10.003508041808063"><ele>856.6666666666667</ele><time>2026-05-03T08:02:07.999Z</time></trkpt><trkpt lat="44.550032248762484" lon="10.003598886545985"><ele>859.3333333333333</ele><time>2026-05-03T08:02:08.999Z</time></trkpt><trkpt lat="44.5498521232325" lon="10.003630020378587"><ele>862.0</ele><time>2026-05-03T08:02:09.999Z</time></trkpt><trkpt lat="44.54966479030849" lon="10.003567186997802"><ele>862.3333333333333</ele><time>2026-05-03T08:02:10.999Z</time></trkpt><trkpt lat="44.54948192762286" lon="10.00354330993866"><ele>862.6666666666667</ele><time>2026-05-03T08:02:11.999Z</time></trkpt><trkpt lat="44.54930997645874" lon="10.003553322189772"><ele>863.0</ele><time>2026-05-03T08:02:12.999Z</time></trkpt><trkpt lat="44.54912203363932" lon="10.003665958588956"><ele>863.0</ele><time>2026-05-03T08:02:13.999Z</time></trkpt><trkpt lat="44.54892407372446" lon="10.003824420688545"><ele>863.0</ele><time>2026-05-03T08:02:14.999Z</time></trkpt><trkpt lat="44.54873080048216" lon="10.003946625313674"><ele>863.0</ele><time>2026-05-03T08:02:15.999Z</time></trkpt><trkpt lat="44.54856674926775" lon="10.00404205283602"><ele>864.6666666666667</ele><time>2026-05-03T08:02:16.999Z</time></trkpt><trkpt lat="44.54841864443192" lon="10.004057920413237"><ele>866.3333333333333</ele><time>2026-05-03T08:02:17.999Z</time></trkpt><trkpt lat="44.5482742457251" lon="10.003977523325867"><ele>868.0</ele><time>2026-05-03T08:02:18.999Z</time></trkpt><trkpt lat="44.54808676209111" lon="10.003889082070144"><ele>868.0</ele><time>2026-05-03T08:02:19.999Z</time></trkpt><trkpt lat="44.547922295066044" lon="10.003785669008586"><ele>868.0</ele><time>2026-05-03T08:02:20.999Z</time></trkpt><trkpt lat="44.54775282741506" lon="10.003777120028582"><ele>868.0</ele><time>2026-05-03T08:02:21.999Z</time></trkpt><trkpt lat="44.54757365336354" lon="10.003848070548068"><ele>869.6666666666666</ele><time>2026-05-03T08:02:22.999Z</time></trkpt><trkpt lat="44.54737843838456" lon="10.003932261315448"><ele>871.3333333333333</ele><time>2026-05-03T08:02:23.999Z</time></trkpt><trkpt lat="44.547181227201015" lon="10.003891871096995"><ele>873.0</ele><time>2026-05-03T08:02:24.999Z</time></trkpt><trkpt lat="44.54695811732719" lon="10.003860310257387"><ele>874.3333333333333</ele><time>2026-05-03T08:02:25.999Z</time></trkpt><trkpt lat="44.54675353615966" lon="10.003797430343253"><ele>875.6666666666666</ele><time>2026-05-03T08:02:26.999Z</time></trkpt><trkpt lat="44.54657477744601" lon="10.00375795805001"><ele>877.0</ele><time>2026-05-03T08:02:27.999Z</time></trkpt><trkpt lat="44.54638505457574" lon="10.00375691779351"><ele>879.6666666666666</ele><time>2026-05-03T08:02:28.999Z</time></trkpt><trkpt lat="44.54618468038078" lon="10.003813891525567"><ele>882.3333333333333</ele><time>2026-05-03T08:02:29.999Z</time></trkpt><trkpt lat="44.54599060205848" lon="10.003900235374969"><ele>885.0</ele><time>2026-05-03T08:02:30.999Z</time></trkpt><trkpt lat="44.545816459823236" lon="10.004052831219271"><ele>888.6666666666667</ele><time>2026-05-03T08:02:31.999Z</time></trkpt><trkpt lat="44.545653992897456" lon="10.004235755571743"><ele>892.3333333333334</ele><time>2026-05-03T08:02:32.999Z</time></trkpt><trkpt lat="44.5455036194282" lon="10.004420837421108"><ele>896.0</ele><time>2026-05-03T08:02:33.999Z</time></trkpt><trkpt lat="44.54534838479254" lon="10.00452224657529"><ele>896.6666666666667</ele><time>2026-05-03T08:02:34.999Z</time></trkpt><trkpt lat="44.54517737250074" lon="10.004489171040971"><ele>897.3333333333333</ele><time>2026-05-03T08:02:35.999Z</time></trkpt><trkpt lat="44.54500811017138" lon="10.004410001017943"><ele>898.0</ele><time>2026-05-03T08:02:36.999Z</time></trkpt><trkpt lat="44.544824726217314" lon="10.004330760006017"><ele>898.0</ele><time>2026-05-03T08:02:37.999Z</time></trkpt><trkpt lat="44.54463784515198" lon="10.004269686299063"><ele>898.0</ele><time>2026-05-03T08:02:38.999Z</time></trkpt><trkpt lat="44.54446395550519" lon="10.004194539030319"><ele>898.0</ele><time>2026-05-03T08:02:39.999Z</time></trkpt><trkpt lat="44.54428655036195" lon="10.004133438246631"><ele>897.0</ele><time>2026-05-03T08:02:40.999Z</time></trkpt><trkpt lat="44.544106060263466" lon="10.004088871665465"><ele>896.0</ele><time>2026-05-03T08:02:41.999Z</time></trkpt><trkpt lat="44.54390914273118" lon="10.004105153086938"><ele>895.0</ele><time>2026-05-03T08:02:42.999Z</time></trkpt><trkpt lat="44.543696526824554" lon="10.004156529456132"><ele>898.0</ele><time>2026-05-03T08:02:43.999Z</time></trkpt><trkpt lat="44.54348330993647" lon="10.00419446800819"><ele>901.0</ele><time>2026-05-03T08:02:44.999Z</time></trkpt><trkpt lat="44.54326422783131" lon="10.00415752371998"><ele>904.0</ele><time>2026-05-03T08:02:45.999Z</time></trkpt><trkpt lat="44.54306491496334" lon="10.00412162636094"><ele>904.0</ele><time>2026-05-03T08:02:46.999Z</time></trkpt><trkpt lat="44.542882554106605" lon="10.004042131540059"><ele>904.0</ele><time>2026-05-03T08:02:47.999Z</time></trkpt><trkpt lat="44.54272343581297" lon="10.00390242054152"><ele>904.0</ele><time>2026-05-03T08:02:48.999Z</time></trkpt><trkpt lat="44.54258096052603" lon="10.003711313906935"><ele>908.0</ele><time>2026-05-03T08:02:49.999Z</time></trkpt><trkpt lat="44.54246829788504" lon="10.003472658595351"><ele>912.0</ele><time>2026-05-03T08:02:50.999Z</time></trkpt><trkpt lat="44.5423959097276" lon="10.003207401004525"><ele>916.0</ele><time>2026-05-03T08:02:51.999Z</time></trkpt><trkpt lat="44.54234575053427" lon="10.002941767923785"><ele>916.0</ele><time>2026-05-03T08:02:52.999Z</time></trkpt><trkpt lat="44.54227806809109" lon="10.002749550447444"><ele>916.0</ele><time>2026-05-03T08:02:53.999Z</time></trkpt><trkpt lat="44.54218511038061" lon="10.002645811071913"><ele>916.0</ele><time>2026-05-03T08:02:54.999Z</time></trkpt><trkpt lat="44.54202035726239" lon="10.002581449866376"><ele>916.0</ele><time>2026-05-03T08:02:55.999Z</time></trkpt><trkpt lat="44.54182048403751" lon="10.002564410445691"><ele>918.0</ele><time>2026-05-03T08:02:56.999Z</time></trkpt><trkpt lat="44.54159014412943" lon="10.002525625354671"><ele>920.0</ele><time>2026-05-03T08:02:57.999Z</time></trkpt><trkpt lat="44.54136754814874" lon="10.002459081323765"><ele>924.5</ele><time>2026-05-03T08:02:58.999Z</time></trkpt><trkpt lat="44.54120601780446" lon="10.00240513901005"><ele>929.0</ele><time>2026-05-03T08:02:59.999Z</time></trkpt><trkpt lat="44.54111280225504" lon="10.002345569286298"><ele>933.5</ele><time>2026-05-03T08:03:00.999Z</time></trkpt><trkpt lat="44.54097864529249" lon="10.002425503569384"><ele>938.0</ele><time>2026-05-03T08:03:02Z</time></trkpt><trkpt lat="44.54091261282886" lon="10.002545367255289"><ele>938.3333333333334</ele><time>2026-05-03T08:03:03Z</time></trkpt><trkpt lat="44.540928041608545" lon="10.002735762640208"><ele>938.6666666666667</ele><time>2026-05-03T08:03:04Z</time></trkpt><trkpt lat="44.54102180078668" lon="10.002888219734082"><ele>939.0</ele><time>2026-05-03T08:03:05Z</time></trkpt><trkpt lat="44.54119505265112" lon="10.003005683760641"><ele>937.0</ele><time>2026-05-03T08:03:06Z</time></trkpt><trkpt lat="44.54140566465153" lon="10.003184471432322"><ele>935.0</ele><time>2026-05-03T08:03:07Z</time></trkpt><trkpt lat="44.54156740523674" lon="10.003347584549442"><ele>933.0</ele><time>2026-05-03T08:03:08Z</time></trkpt><trkpt lat="44.54175074841908" lon="10.00355213973148"><ele>933.0</ele><time>2026-05-03T08:03:09Z</time></trkpt><trkpt lat="44.54190739287901" lon="10.00372053401713"><ele>933.0</ele><time>2026-05-03T08:03:10Z</time></trkpt><trkpt lat="44.54203431291636" lon="10.003886397828834"><ele>933.0</ele><time>2026-05-03T08:03:11Z</time></trkpt><trkpt lat="44.542093941590686" lon="10.004127491296076"><ele>934.25</ele><time>2026-05-03T08:03:12Z</time></trkpt><trkpt lat="44.542068604691245" lon="10.004267942329571"><ele>935.5</ele><time>2026-05-03T08:03:13Z</time></trkpt><trkpt lat="44.54198831757658" lon="10.00444028061755"><ele>936.75</ele><time>2026-05-03T08:03:14Z</time></trkpt><trkpt lat="44.54186277393028" lon="10.004556752918482"><ele>938.0</ele><time>2026-05-03T08:03:15Z</time></trkpt><trkpt lat="44.54169114535098" lon="10.00456509815617"><ele>938.0</ele><time>2026-05-03T08:03:16Z</time></trkpt><trkpt lat="44.541536534088394" lon="10.004484505216848"><ele>938.0</ele><time>2026-05-03T08:03:17Z</time></trkpt><trkpt lat="44.54134640488554" lon="10.0044543910263"><ele>938.0</ele><time>2026-05-03T08:03:18Z</time></trkpt><trkpt lat="44.54114066278064" lon="10.004453931532264"><ele>944.5</ele><time>2026-05-03T08:03:19Z</time></trkpt><trkpt lat="44.54091946746711" lon="10.004556028002595"><ele>951.0</ele><time>2026-05-03T08:03:20Z</time></trkpt><trkpt lat="44.54071531787794" lon="10.004711651335901"><ele>951.0</ele><time>2026-05-03T08:03:21Z</time></trkpt><trkpt lat="44.54052983141065" lon="10.004796616619359"><ele>951.0</ele><time>2026-05-03T08:03:22Z</time></trkpt><trkpt lat="44.54034821014745" lon="10.004786513862095"><ele>951.0</ele><time>2026-05-03T08:03:23Z</time></trkpt><trkpt lat="44.540150082285244" lon="10.004706335676952"><ele>957.5</ele><time>2026-05-03T08:03:24Z</time></trkpt><trkpt lat="44.53991757067346" lon="10.004597418164739"><ele>964.0</ele><time>2026-05-03T08:03:25Z</time></trkpt><trkpt lat="44.53966847028695" lon="10.004519468061225"><ele>965.5</ele><time>2026-05-03T08:03:26Z</time></trkpt><trkpt lat="44.539361946401115" lon="10.004419453353213"><ele>967.0</ele><time>2026-05-03T08:03:27Z</time></trkpt><trkpt lat="44.5391586609405" lon="10.004427765634736"><ele>967.0</ele><time>2026-05-03T08:03:28Z</time></trkpt><trkpt lat="44.53893752249786" lon="10.004358927909255"><ele>967.0</ele><time>2026-05-03T08:03:29Z</time></trkpt><trkpt lat="44.538766741408885" lon="10.004284828807222"><ele>967.0</ele><time>2026-05-03T08:03:30Z</time></trkpt><trkpt lat="44.53863746462623" lon="10.004152462512836"><ele>965.0</ele><time>2026-05-03T08:03:31Z</time></trkpt><trkpt lat="44.53851888533883" lon="10.003952439544815"><ele>963.0</ele><time>2026-05-03T08:03:32Z</time></trkpt><trkpt lat="44.53842091506464" lon="10.003682825206408"><ele>961.0</ele><time>2026-05-03T08:03:33Z</time></trkpt><trkpt lat="44.538360923170536" lon="10.003421379568701"><ele>959.3333333333333</ele><time>2026-05-03T08:03:34Z</time></trkpt><trkpt lat="44.53834273430483" lon="10.00315777083817"><ele>957.6666666666667</ele><time>2026-05-03T08:03:35Z</time></trkpt><trkpt lat="44.53838260256557" lon="10.002863474412543"><ele>956.0</ele><time>2026-05-03T08:03:36Z</time></trkpt><trkpt lat="44.538457077852534" lon="10.002531935533145"><ele>956.0</ele><time>2026-05-03T08:03:37Z</time></trkpt><trkpt lat="44.538514460041924" lon="10.002224562460405"><ele>956.0</ele><time>2026-05-03T08:03:38Z</time></trkpt><trkpt lat="44.53858762838206" lon="10.001990189616665"><ele>956.0</ele><time>2026-05-03T08:03:39Z</time></trkpt><trkpt lat="44.53860847808466" lon="10.001646881678145"><ele>956.0</ele><time>2026-05-03T08:03:40Z</time></trkpt><trkpt lat="44.53854267486817" lon="10.001364187107221"><ele>956.0</ele><time>2026-05-03T08:03:41Z</time></trkpt><trkpt lat="44.53842059537535" lon="10.00107910074667"><ele>956.0</ele><time>2026-05-03T08:03:42Z</time></trkpt><trkpt lat="44.53831984453081" lon="10.000727261704668"><ele>954.5</ele><time>2026-05-03T08:03:43Z</time></trkpt><trkpt lat="44.53821257668113" lon="10.00039859125605"><ele>953.0</ele><time>2026-05-03T08:03:44Z</time></trkpt><trkpt lat="44.53810811963457" lon="10.000076660923897"><ele>953.0</ele><time>2026-05-03T08:03:45Z</time></trkpt><trkpt lat="44.53800794553032" lon="9.999767930580816"><ele>953.0</ele><time>2026-05-03T08:03:46Z</time></trkpt><trkpt lat="44.537897198506776" lon="9.999446163124533"><ele>951.0</ele><time>2026-05-03T08:03:47Z</time></trkpt><trkpt lat="44.53781954694301" lon="9.999055009683694"><ele>949.0</ele><time>2026-05-03T08:03:48Z</time></trkpt><trkpt lat="44.53770230034266" lon="9.99868295779457"><ele>949.0</ele><time>2026-05-03T08:03:49Z</time></trkpt><trkpt lat="44.53762993968803" lon="9.998698845116177"><ele>949.0</ele><time>2026-05-03T08:03:50Z</time></trkpt><trkpt lat="44.53748928668776" lon="9.998486762164543"><ele>949.0</ele><time>2026-05-03T08:03:51Z</time></trkpt><trkpt lat="44.5372801327372" lon="9.998348113238965"><ele>948.5</ele><time>2026-05-03T08:03:52Z</time></trkpt><trkpt lat="44.53705502448005" lon="9.998198187832518"><ele>948.0</ele><time>2026-05-03T08:03:53Z</time></trkpt><trkpt lat="44.53686599916575" lon="9.998044676266755"><ele>948.0</ele><time>2026-05-03T08:03:54Z</time></trkpt><trkpt lat="44.53668223665496" lon="9.997946077217158"><ele>948.0</ele><time>2026-05-03T08:03:55Z</time></trkpt><trkpt lat="44.536480315322585" lon="9.99792450001594"><ele>948.0</ele><time>2026-05-03T08:03:56Z</time></trkpt><trkpt lat="44.536260734975535" lon="9.997983503036096"><ele>949.0</ele><time>2026-05-03T08:03:57Z</time></trkpt><trkpt lat="44.5360840856785" lon="9.998141276079263"><ele>950.0</ele><time>2026-05-03T08:03:58Z</time></trkpt><trkpt lat="44.53590286011405" lon="9.998349621748813"><ele>951.0</ele><time>2026-05-03T08:03:59Z</time></trkpt><trkpt lat="44.535753732170924" lon="9.998636762728696"><ele>949.25</ele><time>2026-05-03T08:04:00Z</time></trkpt><trkpt lat="44.53563583926516" lon="9.998833724291794"><ele>947.5</ele><time>2026-05-03T08:04:01Z</time></trkpt><trkpt lat="44.53551288317081" lon="9.998904639164465"><ele>945.75</ele><time>2026-05-03T08:04:02Z</time></trkpt><trkpt lat="44.53538721944702" lon="9.998859494462508"><ele>944.0</ele><time>2026-05-03T08:04:03Z</time></trkpt><trkpt lat="44.53527294197137" lon="9.99874335362209"><ele>945.0</ele><time>2026-05-03T08:04:04Z</time></trkpt><trkpt lat="44.53512449472428" lon="9.998571309852027"><ele>946.0</ele><time>2026-05-03T08:04:05Z</time></trkpt><trkpt lat="44.534934312792466" lon="9.998359785370091"><ele>947.0</ele><time>2026-05-03T08:04:06Z</time></trkpt><trkpt lat="44.53472472176405" lon="9.998216271151733"><ele>943.5</ele><time>2026-05-03T08:04:07Z</time></trkpt><trkpt lat="44.53450982461204" lon="9.998090635708605"><ele>940.0</ele><time>2026-05-03T08:04:08Z</time></trkpt><trkpt lat="44.53424875645426" lon="9.998056251311915"><ele>940.0</ele><time>2026-05-03T08:04:09Z</time></trkpt><trkpt lat="44.5339712673524" lon="9.998065669284061"><ele>940.0</ele><time>2026-05-03T08:04:10Z</time></trkpt><trkpt lat="44.53367163639133" lon="9.998065626941079"><ele>940.0</ele><time>2026-05-03T08:04:11Z</time></trkpt><trkpt lat="44.53339871742121" lon="9.998049739992936"><ele>940.0</ele><time>2026-05-03T08:04:12Z</time></trkpt><trkpt lat="44.53315176240295" lon="9.998033927950637"><ele>940.0</ele><time>2026-05-03T08:04:12.999Z</time></trkpt><trkpt lat="44.53292084910246" lon="9.998019545792527"><ele>940.0</ele><time>2026-05-03T08:04:13.999Z</time></trkpt><trkpt lat="44.532706740971555" lon="9.998023996971824"><ele>940.0</ele><time>2026-05-03T08:04:14.999Z</time></trkpt><trkpt lat="44.53250761541445" lon="9.998082459201985"><ele>940.3333333333333</ele><time>2026-05-03T08:04:15.999Z</time></trkpt><trkpt lat="44.532346488534486" lon="9.998236508969798"><ele>940.6666666666667</ele><time>2026-05-03T08:04:16.999Z</time></trkpt><trkpt lat="44.532202105093866" lon="9.998328583522522"><ele>941.0</ele><time>2026-05-03T08:04:17.999Z</time></trkpt><trkpt lat="44.53207208439484" lon="9.99827482294436"><ele>938.3333333333334</ele><time>2026-05-03T08:04:18.999Z</time></trkpt><trkpt lat="44.53194181192963" lon="9.998145440164475"><ele>935.6666666666667</ele><time>2026-05-03T08:04:19.999Z</time></trkpt><trkpt lat="44.53178196857642" lon="9.997987130844347"><ele>933.0</ele><time>2026-05-03T08:04:20.999Z</time></trkpt><trkpt lat="44.53167831704742" lon="9.997807985343906"><ele>933.0</ele><time>2026-05-03T08:04:21.999Z</time></trkpt><trkpt lat="44.531621872732075" lon="9.997583866989485"><ele>933.0</ele><time>2026-05-03T08:04:22.999Z</time></trkpt><trkpt lat="44.531583935984465" lon="9.99729383096813"><ele>933.0</ele><time>2026-05-03T08:04:23.999Z</time></trkpt><trkpt lat="44.531535865119885" lon="9.997029118804356"><ele>935.6666666666667</ele><time>2026-05-03T08:04:24.999Z</time></trkpt><trkpt lat="44.531438835476294" lon="9.9968504208185"><ele>938.3333333333334</ele><time>2026-05-03T08:04:25.999Z</time></trkpt><trkpt lat="44.53133027562501" lon="9.996731950072006"><ele>941.0</ele><time>2026-05-03T08:04:26.999Z</time></trkpt><trkpt lat="44.53116812034895" lon="9.996710104825262"><ele>941.6666666666667</ele><time>2026-05-03T08:04:27.999Z</time></trkpt><trkpt lat="44.53098121701767" lon="9.996773939721619"><ele>942.3333333333333</ele><time>2026-05-03T08:04:28.999Z</time></trkpt><trkpt lat="44.53077883965963" lon="9.996827427250038"><ele>943.0</ele><time>2026-05-03T08:04:29.999Z</time></trkpt><trkpt lat="44.53061151526484" lon="9.996645746834371"><ele>937.0</ele><time>2026-05-03T08:04:30.999Z</time></trkpt><trkpt lat="44.530390455978214" lon="9.996461322832227"><ele>931.0</ele><time>2026-05-03T08:04:31.999Z</time></trkpt><trkpt lat="44.530161071531296" lon="9.996269119030112"><ele>931.0</ele><time>2026-05-03T08:04:32.999Z</time></trkpt><trkpt lat="44.529932304581514" lon="9.996077432652239"><ele>931.0</ele><time>2026-05-03T08:04:33.999Z</time></trkpt><trkpt lat="44.52971788333636" lon="9.995896453902397"><ele>933.0</ele><time>2026-05-03T08:04:34.999Z</time></trkpt><trkpt lat="44.529531904838294" lon="9.995747679846573"><ele>935.0</ele><time>2026-05-03T08:04:35.999Z</time></trkpt><trkpt lat="44.529374624537176" lon="9.995664844150667"><ele>937.0</ele><time>2026-05-03T08:04:36.999Z</time></trkpt><trkpt lat="44.52923158838304" lon="9.995619038133974"><ele>937.0</ele><time>2026-05-03T08:04:37.999Z</time></trkpt><trkpt lat="44.529071883613426" lon="9.995680380144455"><ele>937.0</ele><time>2026-05-03T08:04:38.999Z</time></trkpt><trkpt lat="44.52891189001878" lon="9.995851946527951"><ele>937.0</ele><time>2026-05-03T08:04:39.999Z</time></trkpt><trkpt lat="44.52877281116407" lon="9.995971321689998"><ele>933.6666666666666</ele><time>2026-05-03T08:04:40.999Z</time></trkpt><trkpt lat="44.52862983988386" lon="9.995913155991616"><ele>930.3333333333333</ele><time>2026-05-03T08:04:41.999Z</time></trkpt><trkpt lat="44.5285206627598" lon="9.995782287117011"><ele>927.0</ele><time>2026-05-03T08:04:42.999Z</time></trkpt><trkpt lat="44.52837095866314" lon="9.995580162413527"><ele>927.0</ele><time>2026-05-03T08:04:43.999Z</time></trkpt><trkpt lat="44.52817731216654" lon="9.99537786833131"><ele>927.0</ele><time>2026-05-03T08:04:44.999Z</time></trkpt><trkpt lat="44.52796496326379" lon="9.995235587418884"><ele>920.0</ele><time>2026-05-03T08:04:45.999Z</time></trkpt><trkpt lat="44.52774234365286" lon="9.995133166216329"><ele>913.0</ele><time>2026-05-03T08:04:46.999Z</time></trkpt><trkpt lat="44.52750473736988" lon="9.99509920760387"><ele>913.0</ele><time>2026-05-03T08:04:47.999Z</time></trkpt><trkpt lat="44.52730627212547" lon="9.99500577135398"><ele>913.0</ele><time>2026-05-03T08:04:48.999Z</time></trkpt><trkpt lat="44.52716026001856" lon="9.994853450974928"><ele>913.0</ele><time>2026-05-03T08:04:49.999Z</time></trkpt><trkpt lat="44.52705429513589" lon="9.994652330703993"><ele>914.6666666666666</ele><time>2026-05-03T08:04:50.999Z</time></trkpt><trkpt lat="44.52692253084931" lon="9.994420433722938"><ele>916.3333333333333</ele><time>2026-05-03T08:04:51.999Z</time></trkpt><trkpt lat="44.52677579884469" lon="9.994289152822736"><ele>918.0</ele><time>2026-05-03T08:04:52.999Z</time></trkpt><trkpt lat="44.52662731447598" lon="9.994186298429895"><ele>918.0</ele><time>2026-05-03T08:04:53.999Z</time></trkpt><trkpt lat="44.52643434382836" lon="9.994212645954201"><ele>918.0</ele><time>2026-05-03T08:04:54.999Z</time></trkpt><trkpt lat="44.526228226311005" lon="9.994349111588724"><ele>918.0</ele><time>2026-05-03T08:04:55.999Z</time></trkpt><trkpt lat="44.52603208957986" lon="9.99457003437965"><ele>918.6666666666667</ele><time>2026-05-03T08:04:56.999Z</time></trkpt><trkpt lat="44.52584794324831" lon="9.994745302361325"><ele>919.3333333333334</ele><time>2026-05-03T08:04:57.999Z</time></trkpt><trkpt lat="44.52563945276968" lon="9.994797196384472"><ele>920.0</ele><time>2026-05-03T08:04:58.999Z</time></trkpt><trkpt lat="44.5254053773849" lon="9.994816070481496"><ele>922.0</ele><time>2026-05-03T08:04:59.999Z</time></trkpt><trkpt lat="44.525152712844935" lon="9.99482559650435"><ele>924.0</ele><time>2026-05-03T08:05:00.999Z</time></trkpt><trkpt lat="44.52492256093215" lon="9.994862501461517"><ele>924.0</ele><time>2026-05-03T08:05:01.999Z</time></trkpt><trkpt lat="44.52473475362818" lon="9.994888721251945"><ele>924.0</ele><time>2026-05-03T08:05:02.999Z</time></trkpt><trkpt lat="44.52459283767209" lon="9.994977326615459"><ele>924.0</ele><time>2026-05-03T08:05:03.999Z</time></trkpt><trkpt lat="44.524482573562366" lon="9.995160415249892"><ele>921.6666666666667</ele><time>2026-05-03T08:05:04.999Z</time></trkpt><trkpt lat="44.52441274917404" lon="9.99541148931349"><ele>919.3333333333334</ele><time>2026-05-03T08:05:05.999Z</time></trkpt><trkpt lat="44.52432522345161" lon="9.995623114867875"><ele>917.0</ele><time>2026-05-03T08:05:06.999Z</time></trkpt><trkpt lat="44.5241599996018" lon="9.995703310127421"><ele>917.0</ele><time>2026-05-03T08:05:08Z</time></trkpt><trkpt lat="44.523978831484435" lon="9.995676817306364"><ele>917.0</ele><time>2026-05-03T08:05:09Z</time></trkpt><trkpt lat="44.52375364643123" lon="9.99568216836565"><ele>917.0</ele><time>2026-05-03T08:05:10Z</time></trkpt><trkpt lat="44.523517639822686" lon="9.995687774531328"><ele>918.0</ele><time>2026-05-03T08:05:11Z</time></trkpt><trkpt lat="44.523280042268425" lon="9.995693586695978"><ele>919.0</ele><time>2026-05-03T08:05:12Z</time></trkpt><trkpt lat="44.52303872725108" lon="9.995700300598962"><ele>916.5</ele><time>2026-05-03T08:05:13Z</time></trkpt><trkpt lat="44.522801961922646" lon="9.995706887923973"><ele>914.0</ele><time>2026-05-03T08:05:14Z</time></trkpt><trkpt lat="44.52258211081153" lon="9.995709505221464"><ele>914.0</ele><time>2026-05-03T08:05:15Z</time></trkpt><trkpt lat="44.52238395615391" lon="9.99568468749983"><ele>914.0</ele><time>2026-05-03T08:05:16Z</time></trkpt><trkpt lat="44.522226309060876" lon="9.995570139887578"><ele>914.0</ele><time>2026-05-03T08:05:17Z</time></trkpt><trkpt lat="44.5220773615134" lon="9.995374099616777"><ele>909.0</ele><time>2026-05-03T08:05:18Z</time></trkpt><trkpt lat="44.52192313820385" lon="9.995121502970136"><ele>904.0</ele><time>2026-05-03T08:05:19Z</time></trkpt><trkpt lat="44.5217376676914" lon="9.994916419055105"><ele>904.0</ele><time>2026-05-03T08:05:20Z</time></trkpt><trkpt lat="44.52152519449579" lon="9.994719647369813"><ele>904.0</ele><time>2026-05-03T08:05:21Z</time></trkpt><trkpt lat="44.521277080220294" lon="9.994486781522976"><ele>899.5</ele><time>2026-05-03T08:05:22Z</time></trkpt><trkpt lat="44.52101389124985" lon="9.994225832507206"><ele>895.0</ele><time>2026-05-03T08:05:23Z</time></trkpt><trkpt lat="44.52078673199105" lon="9.994067238419195"><ele>895.0</ele><time>2026-05-03T08:05:25Z</time></trkpt><trkpt lat="44.52058876501915" lon="9.993981370764939"><ele>895.0</ele><time>2026-05-03T08:05:26Z</time></trkpt><trkpt lat="44.520345402493334" lon="9.993985710032977"><ele>892.5</ele><time>2026-05-03T08:05:27Z</time></trkpt><trkpt lat="44.52007215437609" lon="9.994025459691922"><ele>890.0</ele><time>2026-05-03T08:05:28Z</time></trkpt><trkpt lat="44.5198016897057" lon="9.994035255813177"><ele>889.5</ele><time>2026-05-03T08:05:29Z</time></trkpt><trkpt lat="44.51955761845546" lon="9.993980780389657"><ele>889.0</ele><time>2026-05-03T08:05:30Z</time></trkpt><trkpt lat="44.51933500733828" lon="9.99391892122829"><ele>889.0</ele><time>2026-05-03T08:05:31Z</time></trkpt><trkpt lat="44.519122880499275" lon="9.993883634227288"><ele>889.0</ele><time>2026-05-03T08:05:32Z</time></trkpt><trkpt lat="44.51889743472811" lon="9.993854303252906"><ele>889.0</ele><time>2026-05-03T08:05:33Z</time></trkpt><trkpt lat="44.51868135404421" lon="9.993853609116806"><ele>888.3333333333333</ele><time>2026-05-03T08:05:34Z</time></trkpt><trkpt lat="44.518484784157465" lon="9.993888098758882"><ele>887.6666666666667</ele><time>2026-05-03T08:05:35Z</time></trkpt><trkpt lat="44.518301886269285" lon="9.99401315648961"><ele>887.0</ele><time>2026-05-03T08:05:36Z</time></trkpt><trkpt lat="44.51812787180845" lon="9.994237381598643"><ele>887.6666666666667</ele><time>2026-05-03T08:05:37Z</time></trkpt><trkpt lat="44.51798211339535" lon="9.994439658217432"><ele>888.3333333333333</ele><time>2026-05-03T08:05:38Z</time></trkpt><trkpt lat="44.51783368009452" lon="9.994625224981997"><ele>889.0</ele><time>2026-05-03T08:05:39Z</time></trkpt><trkpt lat="44.517689302361084" lon="9.994802051181614"><ele>889.0</ele><time>2026-05-03T08:05:40Z</time></trkpt><trkpt lat="44.51755638770583" lon="9.994970202096868"><ele>889.0</ele><time>2026-05-03T08:05:41Z</time></trkpt><trkpt lat="44.517428671939555" lon="9.99512135860586"><ele>889.0</ele><time>2026-05-03T08:05:42Z</time></trkpt><trkpt lat="44.51730083363367" lon="9.995300547823941"><ele>885.0</ele><time>2026-05-03T08:05:43Z</time></trkpt><trkpt lat="44.51719395362985" lon="9.995504029546508"><ele>881.0</ele><time>2026-05-03T08:05:44Z</time></trkpt><trkpt lat="44.51711453424013" lon="9.995704856721558"><ele>877.0</ele><time>2026-05-03T08:05:45Z</time></trkpt><trkpt lat="44.51706113711983" lon="9.995888729473968"><ele>876.75</ele><time>2026-05-03T08:05:46Z</time></trkpt><trkpt lat="44.517000347031534" lon="9.996046536854905"><ele>876.5</ele><time>2026-05-03T08:05:47Z</time></trkpt><trkpt lat="44.51688873613964" lon="9.996131857823809"><ele>876.25</ele><time>2026-05-03T08:05:48Z</time></trkpt><trkpt lat="44.516764871399346" lon="9.99610144772275"><ele>876.0</ele><time>2026-05-03T08:05:49Z</time></trkpt><trkpt lat="44.5165993963538" lon="9.996085808265258"><ele>876.0</ele><time>2026-05-03T08:05:50Z</time></trkpt><trkpt lat="44.5163676529135" lon="9.996068203932934"><ele>876.0</ele><time>2026-05-03T08:05:51Z</time></trkpt><trkpt lat="44.516099884367996" lon="9.996039969446368"><ele>874.0</ele><time>2026-05-03T08:05:52Z</time></trkpt><trkpt lat="44.51580921453363" lon="9.996012085217966"><ele>872.0</ele><time>2026-05-03T08:05:53Z</time></trkpt><trkpt lat="44.5155075627377" lon="9.995980656122576"><ele>869.0</ele><time>2026-05-03T08:05:54Z</time></trkpt><trkpt lat="44.5152287275972" lon="9.995968495438339"><ele>866.0</ele><time>2026-05-03T08:05:55Z</time></trkpt><trkpt lat="44.5149643946809" lon="9.995927767548816"><ele>866.0</ele><time>2026-05-03T08:05:56Z</time></trkpt><trkpt lat="44.514707539084384" lon="9.995896035879158"><ele>866.0</ele><time>2026-05-03T08:05:57Z</time></trkpt><trkpt lat="44.514459954273775" lon="9.995862324071052"><ele>865.3333333333334</ele><time>2026-05-03T08:05:58Z</time></trkpt><trkpt lat="44.51423541089895" lon="9.995824583529119"><ele>864.6666666666667</ele><time>2026-05-03T08:05:59Z</time></trkpt><trkpt lat="44.51402183777535" lon="9.995803527910974"><ele>864.0</ele><time>2026-05-03T08:06:00Z</time></trkpt><trkpt lat="44.513832167370836" lon="9.995837059426352"><ele>865.5</ele><time>2026-05-03T08:06:01Z</time></trkpt><trkpt lat="44.51361388292414" lon="9.995954739412419"><ele>867.0</ele><time>2026-05-03T08:06:02Z</time></trkpt><trkpt lat="44.51336223214806" lon="9.996092055170553"><ele>867.0</ele><time>2026-05-03T08:06:03Z</time></trkpt><trkpt lat="44.51314877427271" lon="9.996168837555752"><ele>867.0</ele><time>2026-05-03T08:06:04Z</time></trkpt><trkpt lat="44.512970589724326" lon="9.99622552673006"><ele>867.0</ele><time>2026-05-03T08:06:05Z</time></trkpt><trkpt lat="44.51282290785248" lon="9.996322844654093"><ele>868.6666666666667</ele><time>2026-05-03T08:06:06Z</time></trkpt><trkpt lat="44.51268808524602" lon="9.996485651452165"><ele>870.3333333333334</ele><time>2026-05-03T08:06:07Z</time></trkpt><trkpt lat="44.5125738667328" lon="9.996778138787834"><ele>872.0</ele><time>2026-05-03T08:06:08Z</time></trkpt><trkpt lat="44.51245771043643" lon="9.997116802204363"><ele>872.0</ele><time>2026-05-03T08:06:09Z</time></trkpt><trkpt lat="44.51235716317674" lon="9.997428073154465"><ele>872.0</ele><time>2026-05-03T08:06:10Z</time></trkpt><trkpt lat="44.51226493339301" lon="9.997683206124716"><ele>872.0</ele><time>2026-05-03T08:06:11Z</time></trkpt><trkpt lat="44.512154867517204" lon="9.99788379885271"><ele>868.3333333333334</ele><time>2026-05-03T08:06:12Z</time></trkpt><trkpt lat="44.51196147562919" lon="9.997986619839521"><ele>864.6666666666667</ele><time>2026-05-03T08:06:13Z</time></trkpt><trkpt lat="44.511771162155824" lon="9.998057242292077"><ele>861.0</ele><time>2026-05-03T08:06:14Z</time></trkpt><trkpt lat="44.5115880772706" lon="9.998055047723009"><ele>861.0</ele><time>2026-05-03T08:06:15Z</time></trkpt><trkpt lat="44.5113773228696" lon="9.998012353042958"><ele>861.0</ele><time>2026-05-03T08:06:16Z</time></trkpt><trkpt lat="44.511258631163884" lon="9.99788474186425"><ele>861.0</ele><time>2026-05-03T08:06:16.999Z</time></trkpt><trkpt lat="44.511110301588104" lon="9.997713289907164"><ele>860.3333333333333</ele><time>2026-05-03T08:06:17.999Z</time></trkpt><trkpt lat="44.510969734574395" lon="9.997502211131888"><ele>859.6666666666666</ele><time>2026-05-03T08:06:18.999Z</time></trkpt><trkpt lat="44.510893224064205" lon="9.997283285628294"><ele>859.0</ele><time>2026-05-03T08:06:19.999Z</time></trkpt><trkpt lat="44.51082607421114" lon="9.99694828513263"><ele>864.5</ele><time>2026-05-03T08:06:20.999Z</time></trkpt><trkpt lat="44.51069689344077" lon="9.99663178839742"><ele>870.0</ele><time>2026-05-03T08:06:21.999Z</time></trkpt><trkpt lat="44.510531824711016" lon="9.996377518308371"><ele>854.0</ele><time>2026-05-03T08:06:22.999Z</time></trkpt><trkpt lat="44.510380144692604" lon="9.996087067352992"><ele>838.0</ele><time>2026-05-03T08:06:23.999Z</time></trkpt><trkpt lat="44.51021077876861" lon="9.995905273034898"><ele>842.3333333333333</ele><time>2026-05-03T08:06:24.999Z</time></trkpt><trkpt lat="44.51003848877673" lon="9.995780492111063"><ele>846.6666666666667</ele><time>2026-05-03T08:06:25.999Z</time></trkpt><trkpt lat="44.50991098985067" lon="9.9956278001524"><ele>851.0</ele><time>2026-05-03T08:06:26.999Z</time></trkpt><trkpt lat="44.50986019217198" lon="9.99543929690074"><ele>851.0</ele><time>2026-05-03T08:06:27.999Z</time></trkpt><trkpt lat="44.509778004600534" lon="9.995161145426348"><ele>851.0</ele><time>2026-05-03T08:06:28.999Z</time></trkpt><trkpt lat="44.50968226389084" lon="9.994896398971674"><ele>851.0</ele><time>2026-05-03T08:06:29.999Z</time></trkpt><trkpt lat="44.509563526498816" lon="9.994729027323968"><ele>847.0</ele><time>2026-05-03T08:06:30.999Z</time></trkpt><trkpt lat="44.50940995830264" lon="9.994626387404711"><ele>843.0</ele><time>2026-05-03T08:06:31.999Z</time></trkpt><trkpt lat="44.50919473102982" lon="9.994615122052307"><ele>839.0</ele><time>2026-05-03T08:06:32.999Z</time></trkpt><trkpt lat="44.50899473082585" lon="9.994622742138612"><ele>839.0</ele><time>2026-05-03T08:06:33.999Z</time></trkpt><trkpt lat="44.50882327967486" lon="9.994585965786369"><ele>839.0</ele><time>2026-05-03T08:06:34.999Z</time></trkpt><trkpt lat="44.50870577516869" lon="9.994439499351307"><ele>839.0</ele><time>2026-05-03T08:06:35.999Z</time></trkpt><trkpt lat="44.508607640470444" lon="9.99427379758974"><ele>837.3333333333334</ele><time>2026-05-03T08:06:36.999Z</time></trkpt><trkpt lat="44.508511062306404" lon="9.99407514193367"><ele>835.6666666666667</ele><time>2026-05-03T08:06:37.999Z</time></trkpt><trkpt lat="44.508433290996045" lon="9.993865988176456"><ele>834.0</ele><time>2026-05-03T08:06:38.999Z</time></trkpt><trkpt lat="44.5083685621173" lon="9.993647945150851"><ele>834.0</ele><time>2026-05-03T08:06:39.999Z</time></trkpt><trkpt lat="44.50831499237358" lon="9.993466023317946"><ele>834.0</ele><time>2026-05-03T08:06:40.999Z</time></trkpt><trkpt lat="44.50825044552811" lon="9.993305968070954"><ele>834.0</ele><time>2026-05-03T08:06:41.999Z</time></trkpt><trkpt lat="44.50820440647721" lon="9.993139571240144"><ele>834.0</ele><time>2026-05-03T08:06:42.999Z</time></trkpt><trkpt lat="44.508168674643535" lon="9.992989355835201"><ele>836.25</ele><time>2026-05-03T08:06:43.999Z</time></trkpt><trkpt lat="44.50812305076449" lon="9.992836067436672"><ele>838.5</ele><time>2026-05-03T08:06:44.999Z</time></trkpt><trkpt lat="44.508033924067206" lon="9.992693359531515"><ele>840.75</ele><time>2026-05-03T08:06:45.999Z</time></trkpt><trkpt lat="44.5079276336499" lon="9.992566318740039"><ele>843.0</ele><time>2026-05-03T08:06:46.999Z</time></trkpt><trkpt lat="44.507816429457115" lon="9.992438536799677"><ele>843.0</ele><time>2026-05-03T08:06:47.999Z</time></trkpt><trkpt lat="44.507704373022214" lon="9.992324288262287"><ele>843.0</ele><time>2026-05-03T08:06:48.999Z</time></trkpt><trkpt lat="44.50759140640504" lon="9.992209142366521"><ele>843.0</ele><time>2026-05-03T08:06:49.999Z</time></trkpt><trkpt lat="44.50748160531935" lon="9.992096483126453"><ele>843.0</ele><time>2026-05-03T08:06:50.999Z</time></trkpt><trkpt lat="44.507370649967605" lon="9.991980657885668"><ele>843.0</ele><time>2026-05-03T08:06:51.999Z</time></trkpt><trkpt lat="44.507254493933885" lon="9.991856211655902"><ele>843.0</ele><time>2026-05-03T08:06:52.999Z</time></trkpt><trkpt lat="44.507135914826215" lon="9.991717266250054"><ele>843.0</ele><time>2026-05-03T08:06:53.999Z</time></trkpt><trkpt lat="44.50702675858611" lon="9.991579231567563"><ele>843.0</ele><time>2026-05-03T08:06:54.999Z</time></trkpt><trkpt lat="44.5069187038887" lon="9.991442429997491"><ele>843.0</ele><time>2026-05-03T08:06:55.999Z</time></trkpt><trkpt lat="44.50681110982217" lon="9.991307042112426"><ele>843.0</ele><time>2026-05-03T08:06:56.999Z</time></trkpt><trkpt lat="44.50670741790827" lon="9.99118001633287"><ele>843.0</ele><time>2026-05-03T08:06:57.999Z</time></trkpt><trkpt lat="44.5065919861181" lon="9.991065212195403"><ele>843.0</ele><time>2026-05-03T08:06:58.999Z</time></trkpt><trkpt lat="44.50649887416694" lon="9.990934541850555"><ele>842.5</ele><time>2026-05-03T08:06:59.999Z</time></trkpt><trkpt lat="44.506414692631964" lon="9.99078782395032"><ele>842.0</ele><time>2026-05-03T08:07:00.999Z</time></trkpt><trkpt lat="44.506342179108884" lon="9.990622553489919"><ele>841.5</ele><time>2026-05-03T08:07:01.999Z</time></trkpt><trkpt lat="44.50629220322346" lon="9.990441137310125"><ele>841.0</ele><time>2026-05-03T08:07:02.999Z</time></trkpt><trkpt lat="44.50622552690686" lon="9.990265823055596"><ele>842.25</ele><time>2026-05-03T08:07:03.999Z</time></trkpt><trkpt lat="44.50614273457764" lon="9.990097955850763"><ele>843.5</ele><time>2026-05-03T08:07:04.999Z</time></trkpt><trkpt lat="44.506035689144504" lon="9.989969666693387"><ele>844.75</ele><time>2026-05-03T08:07:05.999Z</time></trkpt><trkpt lat="44.50591897374651" lon="9.98984648167294"><ele>846.0</ele><time>2026-05-03T08:07:06.999Z</time></trkpt><trkpt lat="44.50580565607045" lon="9.98970075087298"><ele>846.0</ele><time>2026-05-03T08:07:07.999Z</time></trkpt><trkpt lat="44.50568473547272" lon="9.989569833879132"><ele>846.0</ele><time>2026-05-03T08:07:08.999Z</time></trkpt><trkpt lat="44.50556394386399" lon="9.989438891397873"><ele>846.0</ele><time>2026-05-03T08:07:09.999Z</time></trkpt><trkpt lat="44.505437990250414" lon="9.989302362537261"><ele>847.0</ele><time>2026-05-03T08:07:10.999Z</time></trkpt><trkpt lat="44.50531730892937" lon="9.989171488704747"><ele>848.0</ele><time>2026-05-03T08:07:11.999Z</time></trkpt><trkpt lat="44.5051817456364" lon="9.98906755839906"><ele>849.0</ele><time>2026-05-03T08:07:12.999Z</time></trkpt><trkpt lat="44.505048540813064" lon="9.98898364257876"><ele>849.0</ele><time>2026-05-03T08:07:14Z</time></trkpt><trkpt lat="44.50488524469392" lon="9.988952060985744"><ele>849.0</ele><time>2026-05-03T08:07:15Z</time></trkpt><trkpt lat="44.504719368898" lon="9.988962599789277"><ele>849.0</ele><time>2026-05-03T08:07:16Z</time></trkpt><trkpt lat="44.50455905881229" lon="9.988936720569905"><ele>850.3333333333333</ele><time>2026-05-03T08:07:17Z</time></trkpt><trkpt lat="44.5043969436735" lon="9.98892317366692"><ele>851.6666666666666</ele><time>2026-05-03T08:07:18Z</time></trkpt><trkpt lat="44.50424486876157" lon="9.98890012363701"><ele>853.0</ele><time>2026-05-03T08:07:19Z</time></trkpt><trkpt lat="44.50409298095113" lon="9.988838814359621"><ele>853.0</ele><time>2026-05-03T08:07:20Z</time></trkpt><trkpt lat="44.50395340932073" lon="9.988736298486032"><ele>853.0</ele><time>2026-05-03T08:07:21Z</time></trkpt><trkpt lat="44.50382275007516" lon="9.98862947562172"><ele>853.0</ele><time>2026-05-03T08:07:22Z</time></trkpt><trkpt lat="44.50369656516576" lon="9.988505483915795"><ele>853.25</ele><time>2026-05-03T08:07:23Z</time></trkpt><trkpt lat="44.50357796999652" lon="9.988372770763572"><ele>853.5</ele><time>2026-05-03T08:07:24Z</time></trkpt><trkpt lat="44.50348005095731" lon="9.988227880107347"><ele>853.75</ele><time>2026-05-03T08:07:25Z</time></trkpt><trkpt lat="44.503394407752786" lon="9.988060740386054"><ele>854.0</ele><time>2026-05-03T08:07:26Z</time></trkpt><trkpt lat="44.50331067906279" lon="9.987883526523229"><ele>854.0</ele><time>2026-05-03T08:07:27Z</time></trkpt><trkpt lat="44.503216897771956" lon="9.987723020694867"><ele>854.0</ele><time>2026-05-03T08:07:28Z</time></trkpt><trkpt lat="44.503136459869125" lon="9.987560172085093"><ele>854.0</ele><time>2026-05-03T08:07:29Z</time></trkpt><trkpt lat="44.50303428870774" lon="9.987416136211634"><ele>854.0</ele><time>2026-05-03T08:07:30Z</time></trkpt><trkpt lat="44.5028896044452" lon="9.98735818250175"><ele>853.6666666666667</ele><time>2026-05-03T08:07:31Z</time></trkpt><trkpt lat="44.50272878943109" lon="9.987398351951398"><ele>853.3333333333333</ele><time>2026-05-03T08:07:32Z</time></trkpt><trkpt lat="44.50256023917757" lon="9.987483626206027"><ele>853.0</ele><time>2026-05-03T08:07:33Z</time></trkpt><trkpt lat="44.50240674533685" lon="9.987501177939206"><ele>853.0</ele><time>2026-05-03T08:07:34Z</time></trkpt><trkpt lat="44.50226552720989" lon="9.987496436261575"><ele>853.0</ele><time>2026-05-03T08:07:35Z</time></trkpt><trkpt lat="44.50213663444534" lon="9.987430866661176"><ele>853.0</ele><time>2026-05-03T08:07:36Z</time></trkpt><trkpt lat="44.50206872560215" lon="9.987273718735247"><ele>853.0</ele><time>2026-05-03T08:07:37Z</time></trkpt><trkpt lat="44.502066219953775" lon="9.98710301814029"><ele>853.0</ele><time>2026-05-03T08:07:38Z</time></trkpt><trkpt lat="44.502127401673484" lon="9.986933024376613"><ele>853.0</ele><time>2026-05-03T08:07:39Z</time></trkpt><trkpt lat="44.50219044097378" lon="9.986703949182175"><ele>853.0</ele><time>2026-05-03T08:07:40Z</time></trkpt><trkpt lat="44.5022484288636" lon="9.98649808634655"><ele>851.0</ele><time>2026-05-03T08:07:41Z</time></trkpt><trkpt lat="44.50223431935967" lon="9.98628359669608"><ele>849.0</ele><time>2026-05-03T08:07:42Z</time></trkpt><trkpt lat="44.50214724994416" lon="9.986063323766697"><ele>847.0</ele><time>2026-05-03T08:07:43Z</time></trkpt><trkpt lat="44.50199749940957" lon="9.98583400067512"><ele>851.3333333333333</ele><time>2026-05-03T08:07:44Z</time></trkpt><trkpt lat="44.50185478270746" lon="9.985625940353973"><ele>855.6666666666667</ele><time>2026-05-03T08:07:45Z</time></trkpt><trkpt lat="44.501675418689565" lon="9.985480111638124"><ele>860.0</ele><time>2026-05-03T08:07:46Z</time></trkpt><trkpt lat="44.50156031745876" lon="9.985332120806412"><ele>860.0</ele><time>2026-05-03T08:07:47Z</time></trkpt><trkpt lat="44.501467025624876" lon="9.985172100415692"><ele>860.0</ele><time>2026-05-03T08:07:48Z</time></trkpt><trkpt lat="44.50143594314255" lon="9.984967742253408"><ele>860.0</ele><time>2026-05-03T08:07:49Z</time></trkpt><trkpt lat="44.501472791774354" lon="9.984780107904955"><ele>860.0</ele><time>2026-05-03T08:07:50Z</time></trkpt><trkpt lat="44.50156635844784" lon="9.984619090426428"><ele>859.3333333333334</ele><time>2026-05-03T08:07:51Z</time></trkpt><trkpt lat="44.50168395353" lon="9.98440883718141"><ele>858.6666666666667</ele><time>2026-05-03T08:07:52Z</time></trkpt><trkpt lat="44.50179638099105" lon="9.984154789937833"><ele>858.0</ele><time>2026-05-03T08:07:53Z</time></trkpt><trkpt lat="44.50185673369455" lon="9.9838734528934"><ele>860.3333333333333</ele><time>2026-05-03T08:07:54Z</time></trkpt><trkpt lat="44.501889791033925" lon="9.983643499421849"><ele>862.6666666666666</ele><time>2026-05-03T08:07:55Z</time></trkpt><trkpt lat="44.501890923066796" lon="9.983444884172172"><ele>865.0</ele><time>2026-05-03T08:07:56Z</time></trkpt><trkpt lat="44.50184948598742" lon="9.983153699709309"><ele>865.0</ele><time>2026-05-03T08:07:57Z</time></trkpt><trkpt lat="44.501775922589836" lon="9.982853200986245"><ele>865.0</ele><time>2026-05-03T08:07:58Z</time></trkpt><trkpt lat="44.50171785958908" lon="9.982625298023704"><ele>865.0</ele><time>2026-05-03T08:07:59Z</time></trkpt><trkpt lat="44.501627003864144" lon="9.982433302711648"><ele>862.3333333333333</ele><time>2026-05-03T08:08:00Z</time></trkpt><trkpt lat="44.50147184189929" lon="9.982306862726288"><ele>859.6666666666667</ele><time>2026-05-03T08:08:01Z</time></trkpt><trkpt lat="44.5012665445103" lon="9.982261001467139"><ele>857.0</ele><time>2026-05-03T08:08:02Z</time></trkpt><trkpt lat="44.50109522721552" lon="9.982141346771051"><ele>866.5</ele><time>2026-05-03T08:08:03Z</time></trkpt><trkpt lat="44.50093591326444" lon="9.98201636548131"><ele>876.0</ele><time>2026-05-03T08:08:04Z</time></trkpt><trkpt lat="44.500715841195216" lon="9.981778412859322"><ele>881.0</ele><time>2026-05-03T08:08:05Z</time></trkpt><trkpt lat="44.50054455131536" lon="9.98157860183937"><ele>886.0</ele><time>2026-05-03T08:08:06Z</time></trkpt><trkpt lat="44.50036220436922" lon="9.981288826008218"><ele>886.0</ele><time>2026-05-03T08:08:07Z</time></trkpt><trkpt lat="44.500228431376385" lon="9.98105569914299"><ele>886.0</ele><time>2026-05-03T08:08:08Z</time></trkpt><trkpt lat="44.500088790170395" lon="9.980845551322048"><ele>886.0</ele><time>2026-05-03T08:08:09Z</time></trkpt><trkpt lat="44.500030278579786" lon="9.980624861033101"><ele>880.3333333333333</ele><time>2026-05-03T08:08:10Z</time></trkpt><trkpt lat="44.50003068374327" lon="9.980392656980321"><ele>874.6666666666667</ele><time>2026-05-03T08:08:11Z</time></trkpt><trkpt lat="44.500061425615094" lon="9.980158848008543"><ele>869.0</ele><time>2026-05-03T08:08:12Z</time></trkpt><trkpt lat="44.5001004754547" lon="9.9799344148494"><ele>868.3333333333334</ele><time>2026-05-03T08:08:13Z</time></trkpt><trkpt lat="44.50010138957814" lon="9.979721596302836"><ele>867.6666666666667</ele><time>2026-05-03T08:08:14Z</time></trkpt><trkpt lat="44.50005788211478" lon="9.979497530643817"><ele>867.0</ele><time>2026-05-03T08:08:15Z</time></trkpt><trkpt lat="44.49996789111813" lon="9.97929164456811"><ele>866.0</ele><time>2026-05-03T08:08:16Z</time></trkpt><trkpt lat="44.49990333757126" lon="9.979076784639865"><ele>865.0</ele><time>2026-05-03T08:08:17Z</time></trkpt><trkpt lat="44.49984323178317" lon="9.978887168606029"><ele>864.0</ele><time>2026-05-03T08:08:18Z</time></trkpt><trkpt lat="44.499789262358064" lon="9.978699449190263"><ele>864.0</ele><time>2026-05-03T08:08:19Z</time></trkpt><trkpt lat="44.49977324345663" lon="9.978505904005655"><ele>864.0</ele><time>2026-05-03T08:08:20Z</time></trkpt><trkpt lat="44.49978324029109" lon="9.978311426565746"><ele>864.0</ele><time>2026-05-03T08:08:21Z</time></trkpt><trkpt lat="44.499786236957526" lon="9.978063493247916"><ele>863.6666666666667</ele><time>2026-05-03T08:08:21.999Z</time></trkpt><trkpt lat="44.49979871407314" lon="9.977789360131592"><ele>863.3333333333334</ele><time>2026-05-03T08:08:22.999Z</time></trkpt><trkpt lat="44.49980413433322" lon="9.977560027371428"><ele>863.0</ele><time>2026-05-03T08:08:23.999Z</time></trkpt><trkpt lat="44.499748572098696" lon="9.977203274220843"><ele>861.5</ele><time>2026-05-03T08:08:24.999Z</time></trkpt><trkpt lat="44.499653652266815" lon="9.976919515528508"><ele>860.0</ele><time>2026-05-03T08:08:25.999Z</time></trkpt><trkpt lat="44.49954395738495" lon="9.97663224344922"><ele>880.5</ele><time>2026-05-03T08:08:26.999Z</time></trkpt><trkpt lat="44.499447543853265" lon="9.976332649924741"><ele>901.0</ele><time>2026-05-03T08:08:27.999Z</time></trkpt><trkpt lat="44.499402036139834" lon="9.976021918311709"><ele>894.6666666666666</ele><time>2026-05-03T08:08:28.999Z</time></trkpt><trkpt lat="44.49937821353513" lon="9.975739369172205"><ele>888.3333333333333</ele><time>2026-05-03T08:08:29.999Z</time></trkpt><trkpt lat="44.49935335562652" lon="9.975502394280198"><ele>882.0</ele><time>2026-05-03T08:08:30.999Z</time></trkpt><trkpt lat="44.49931324837289" lon="9.975351439923127"><ele>882.0</ele><time>2026-05-03T08:08:31.999Z</time></trkpt><trkpt lat="44.49924947671798" lon="9.975252355752689"><ele>882.0</ele><time>2026-05-03T08:08:32.999Z</time></trkpt><trkpt lat="44.49911170992315" lon="9.97521007046262"><ele>882.0</ele><time>2026-05-03T08:08:33.999Z</time></trkpt><trkpt lat="44.498907791716185" lon="9.975238740468853"><ele>882.0</ele><time>2026-05-03T08:08:34.999Z</time></trkpt><trkpt lat="44.49867799554314" lon="9.975233845129168"><ele>876.5</ele><time>2026-05-03T08:08:35.999Z</time></trkpt><trkpt lat="44.498440571398724" lon="9.975121310645308"><ele>871.0</ele><time>2026-05-03T08:08:36.999Z</time></trkpt><trkpt lat="44.49818546263045" lon="9.975000660232613"><ele>871.0</ele><time>2026-05-03T08:08:37.999Z</time></trkpt><trkpt lat="44.497966048939546" lon="9.974887227162954"><ele>871.0</ele><time>2026-05-03T08:08:38.999Z</time></trkpt><trkpt lat="44.497813895641784" lon="9.974737864320378"><ele>871.0</ele><time>2026-05-03T08:08:39.999Z</time></trkpt><trkpt lat="44.49769189078085" lon="9.974545753183884"><ele>870.3333333333333</ele><time>2026-05-03T08:08:40.999Z</time></trkpt><trkpt lat="44.49755631467669" lon="9.97432726100224"><ele>869.6666666666667</ele><time>2026-05-03T08:08:41.999Z</time></trkpt><trkpt lat="44.49742957397741" lon="9.974159407695433"><ele>869.0</ele><time>2026-05-03T08:08:42.999Z</time></trkpt><trkpt lat="44.497324297402805" lon="9.974059860645827"><ele>869.0</ele><time>2026-05-03T08:08:43.999Z</time></trkpt><trkpt lat="44.49720293779877" lon="9.973989351676726"><ele>869.0</ele><time>2026-05-03T08:08:44.999Z</time></trkpt><trkpt lat="44.49701533133711" lon="9.973980105057345"><ele>869.0</ele><time>2026-05-03T08:08:45.999Z</time></trkpt><trkpt lat="44.496801109546944" lon="9.973950962103304"><ele>874.6666666666667</ele><time>2026-05-03T08:08:46.999Z</time></trkpt><trkpt lat="44.496617909119635" lon="9.973801982861271"><ele>880.3333333333333</ele><time>2026-05-03T08:08:47.999Z</time></trkpt><trkpt lat="44.49643686223221" lon="9.973712964307909"><ele>886.0</ele><time>2026-05-03T08:08:48.999Z</time></trkpt><trkpt lat="44.49626769083866" lon="9.973643104336789"><ele>890.6666666666666</ele><time>2026-05-03T08:08:49.999Z</time></trkpt><trkpt lat="44.4960773267891" lon="9.973613129712977"><ele>895.3333333333333</ele><time>2026-05-03T08:08:50.999Z</time></trkpt><trkpt lat="44.49590289760192" lon="9.973582161765304"><ele>900.0</ele><time>2026-05-03T08:08:51.999Z</time></trkpt><trkpt lat="44.4957294692279" lon="9.973536339118816"><ele>900.0</ele><time>2026-05-03T08:08:52.999Z</time></trkpt><trkpt lat="44.495551459590736" lon="9.973475864537676"><ele>900.0</ele><time>2026-05-03T08:08:53.999Z</time></trkpt><trkpt lat="44.4953858749211" lon="9.973372591830225"><ele>900.0</ele><time>2026-05-03T08:08:54.999Z</time></trkpt><trkpt lat="44.49521697047125" lon="9.97326210033547"><ele>895.0</ele><time>2026-05-03T08:08:55.999Z</time></trkpt><trkpt lat="44.49505238042056" lon="9.973153026181826"><ele>890.0</ele><time>2026-05-03T08:08:56.999Z</time></trkpt><trkpt lat="44.494893969682714" lon="9.9730480476302"><ele>885.0</ele><time>2026-05-03T08:08:57.999Z</time></trkpt><trkpt lat="44.49473341323991" lon="9.972941519353606"><ele>893.3333333333333</ele><time>2026-05-03T08:08:58.999Z</time></trkpt><trkpt lat="44.494575794216594" lon="9.972836869919773"><ele>901.6666666666666</ele><time>2026-05-03T08:08:59.999Z</time></trkpt><trkpt lat="44.49442700274103" lon="9.972738081304698"><ele>910.0</ele><time>2026-05-03T08:09:00.999Z</time></trkpt><trkpt lat="44.494285290874274" lon="9.9726647341617"><ele>910.0</ele><time>2026-05-03T08:09:01.999Z</time></trkpt><trkpt lat="44.49418012952356" lon="9.97256082522742"><ele>910.0</ele><time>2026-05-03T08:09:02.999Z</time></trkpt><trkpt lat="44.494100520769955" lon="9.972466234065909"><ele>910.0</ele><time>2026-05-03T08:09:03.999Z</time></trkpt><trkpt lat="44.494054528738765" lon="9.972344766587394"><ele>910.0</ele><time>2026-05-03T08:09:04.999Z</time></trkpt><trkpt lat="44.494017341548115" lon="9.972197019157697"><ele>910.0</ele><time>2026-05-03T08:09:05.999Z</time></trkpt><trkpt lat="44.493991651567015" lon="9.972038789512519"><ele>902.75</ele><time>2026-05-03T08:09:06.999Z</time></trkpt><trkpt lat="44.493990446092035" lon="9.971872691349914"><ele>895.5</ele><time>2026-05-03T08:09:07.999Z</time></trkpt><trkpt lat="44.49402724250851" lon="9.971729755542365"><ele>888.25</ele><time>2026-05-03T08:09:08.999Z</time></trkpt><trkpt lat="44.49409262580534" lon="9.971611027858618"><ele>881.0</ele><time>2026-05-03T08:09:09.999Z</time></trkpt><trkpt lat="44.49414358272534" lon="9.97144315476862"><ele>879.0</ele><time>2026-05-03T08:09:10.999Z</time></trkpt><trkpt lat="44.49419589646685" lon="9.971293375694032"><ele>877.0</ele><time>2026-05-03T08:09:11.999Z</time></trkpt><trkpt lat="44.49418612471458" lon="9.971145795115548"><ele>875.0</ele><time>2026-05-03T08:09:12.999Z</time></trkpt><trkpt lat="44.49411629717195" lon="9.971008853419617"><ele>873.0</ele><time>2026-05-03T08:09:13.999Z</time></trkpt><trkpt lat="44.49402578781462" lon="9.970893551594388"><ele>871.0</ele><time>2026-05-03T08:09:14.999Z</time></trkpt><trkpt lat="44.49390900280197" lon="9.970820551968014"><ele>869.0</ele><time>2026-05-03T08:09:15.999Z</time></trkpt><trkpt lat="44.49380250740386" lon="9.970750875408406"><ele>867.0</ele><time>2026-05-03T08:09:16.999Z</time></trkpt><trkpt lat="44.49370478542035" lon="9.970672960369695"><ele>865.0</ele><time>2026-05-03T08:09:17.999Z</time></trkpt><trkpt lat="44.493616868942944" lon="9.970593033506368"><ele>871.75</ele><time>2026-05-03T08:09:18.999Z</time></trkpt><trkpt lat="44.49352283309774" lon="9.970487441196319"><ele>878.5</ele><time>2026-05-03T08:09:20Z</time></trkpt><trkpt lat="44.493428814660795" lon="9.970370677226954"><ele>885.25</ele><time>2026-05-03T08:09:21Z</time></trkpt><trkpt lat="44.49337787946508" lon="9.970213418423734"><ele>892.0</ele><time>2026-05-03T08:09:22Z</time></trkpt><trkpt lat="44.493333297859714" lon="9.970066064449659"><ele>884.3333333333333</ele><time>2026-05-03T08:09:23Z</time></trkpt><trkpt lat="44.49327658981156" lon="9.969873773981433"><ele>876.6666666666667</ele><time>2026-05-03T08:09:24Z</time></trkpt><trkpt lat="44.49322238849161" lon="9.969689983088523"><ele>869.0</ele><time>2026-05-03T08:09:25Z</time></trkpt><trkpt lat="44.493158970636465" lon="9.969474939810805"><ele>867.0</ele><time>2026-05-03T08:09:26Z</time></trkpt><trkpt lat="44.49307303222863" lon="9.969183532055817"><ele>865.0</ele><time>2026-05-03T08:09:27Z</time></trkpt><trkpt lat="44.4929738789172" lon="9.968849795484724"><ele>867.5</ele><time>2026-05-03T08:09:28Z</time></trkpt><trkpt lat="44.492870429135394" lon="9.968501950784251"><ele>870.0</ele><time>2026-05-03T08:09:29Z</time></trkpt><trkpt lat="44.49276846465234" lon="9.96815068948354"><ele>870.0</ele><time>2026-05-03T08:09:30Z</time></trkpt><trkpt lat="44.49267357582105" lon="9.967855221344234"><ele>870.0</ele><time>2026-05-03T08:09:31Z</time></trkpt><trkpt lat="44.492639810790585" lon="9.967557956829834"><ele>870.0</ele><time>2026-05-03T08:09:32Z</time></trkpt><trkpt lat="44.49262849790361" lon="9.967265038227918"><ele>869.3333333333333</ele><time>2026-05-03T08:09:33Z</time></trkpt><trkpt lat="44.492609012702424" lon="9.966994502749532"><ele>868.6666666666666</ele><time>2026-05-03T08:09:34Z</time></trkpt><trkpt lat="44.49259262044385" lon="9.966798766637023"><ele>868.0</ele><time>2026-05-03T08:09:35Z</time></trkpt><trkpt lat="44.492578227091315" lon="9.966628080465927"><ele>867.0</ele><time>2026-05-03T08:09:36Z</time></trkpt><trkpt lat="44.49240386684635" lon="9.96648851131251"><ele>866.0</ele><time>2026-05-03T08:09:37Z</time></trkpt><trkpt lat="44.49219566915681" lon="9.966380101300874"><ele>865.0</ele><time>2026-05-03T08:09:38Z</time></trkpt><trkpt lat="44.491951750736824" lon="9.96629347453679"><ele>868.5</ele><time>2026-05-03T08:09:39Z</time></trkpt><trkpt lat="44.49171536233722" lon="9.96618892515549"><ele>872.0</ele><time>2026-05-03T08:09:40Z</time></trkpt><trkpt lat="44.491497460358566" lon="9.966082312121987"><ele>872.0</ele><time>2026-05-03T08:09:41Z</time></trkpt><trkpt lat="44.4913013415159" lon="9.965983696416291"><ele>872.0</ele><time>2026-05-03T08:09:42Z</time></trkpt><trkpt lat="44.49111072380888" lon="9.96589205561424"><ele>872.0</ele><time>2026-05-03T08:09:43Z</time></trkpt><trkpt lat="44.49090488371004" lon="9.965832559553435"><ele>871.0</ele><time>2026-05-03T08:09:44Z</time></trkpt><trkpt lat="44.49067054937327" lon="9.965813389112098"><ele>870.0</ele><time>2026-05-03T08:09:45Z</time></trkpt><trkpt lat="44.49046327818968" lon="9.96584289676527"><ele>869.0</ele><time>2026-05-03T08:09:46Z</time></trkpt><trkpt lat="44.4902905220732" lon="9.965904157714245"><ele>871.6666666666667</ele><time>2026-05-03T08:09:47Z</time></trkpt><trkpt lat="44.49014047992063" lon="9.965950390405226"><ele>874.3333333333333</ele><time>2026-05-03T08:09:48Z</time></trkpt><trkpt lat="44.48999177254707" lon="9.96608197144065"><ele>877.0</ele><time>2026-05-03T08:09:49Z</time></trkpt><trkpt lat="44.48983930782402" lon="9.966283357756161"><ele>877.0</ele><time>2026-05-03T08:09:50Z</time></trkpt><trkpt lat="44.48967430214909" lon="9.966478965078572"><ele>877.0</ele><time>2026-05-03T08:09:51Z</time></trkpt><trkpt lat="44.489534946717974" lon="9.966643655432671"><ele>877.0</ele><time>2026-05-03T08:09:52Z</time></trkpt><trkpt lat="44.48942097152362" lon="9.966751284110888"><ele>877.0</ele><time>2026-05-03T08:09:53Z</time></trkpt><trkpt lat="44.489323783869956" lon="9.966786679764775"><ele>877.0</ele><time>2026-05-03T08:09:54Z</time></trkpt><trkpt lat="44.489219653400276" lon="9.966736933342222"><ele>877.0</ele><time>2026-05-03T08:09:55Z</time></trkpt><trkpt lat="44.489128480540806" lon="9.96662804888644"><ele>877.0</ele><time>2026-05-03T08:09:56Z</time></trkpt><trkpt lat="44.48899976464999" lon="9.966440988168562"><ele>877.0</ele><time>2026-05-03T08:09:57Z</time></trkpt><trkpt lat="44.48888225149229" lon="9.966225324571377"><ele>877.0</ele><time>2026-05-03T08:09:58Z</time></trkpt><trkpt lat="44.48875375732487" lon="9.96607052923291"><ele>877.0</ele><time>2026-05-03T08:09:59Z</time></trkpt><trkpt lat="44.48859648696412" lon="9.965993629451479"><ele>877.0</ele><time>2026-05-03T08:10:00Z</time></trkpt><trkpt lat="44.48841852386769" lon="9.966015857344821"><ele>877.0</ele><time>2026-05-03T08:10:01Z</time></trkpt><trkpt lat="44.488248476299326" lon="9.966142248548362"><ele>877.0</ele><time>2026-05-03T08:10:02Z</time></trkpt><trkpt lat="44.48810357440777" lon="9.966223792150927"><ele>877.0</ele><time>2026-05-03T08:10:03Z</time></trkpt><trkpt lat="44.48798803468392" lon="9.966215536124334"><ele>877.0</ele><time>2026-05-03T08:10:04Z</time></trkpt><trkpt lat="44.487866005031215" lon="9.966158084960155"><ele>877.0</ele><time>2026-05-03T08:10:05Z</time></trkpt><trkpt lat="44.48778387561721" lon="9.966004621017907"><ele>877.0</ele><time>2026-05-03T08:10:06Z</time></trkpt><trkpt lat="44.48767117453326" lon="9.965809660244112"><ele>874.6666666666666</ele><time>2026-05-03T08:10:07Z</time></trkpt><trkpt lat="44.487581843036104" lon="9.965576670483511"><ele>872.3333333333333</ele><time>2026-05-03T08:10:08Z</time></trkpt><trkpt lat="44.48747107079647" lon="9.965364643106879"><ele>870.0</ele><time>2026-05-03T08:10:09Z</time></trkpt><trkpt lat="44.48736753781259" lon="9.965160633780476"><ele>868.6666666666667</ele><time>2026-05-03T08:10:10Z</time></trkpt><trkpt lat="44.48729063082066" lon="9.96497475297556"><ele>867.3333333333334</ele><time>2026-05-03T08:10:11Z</time></trkpt><trkpt lat="44.48719228567487" lon="9.964808140387222"><ele>866.0</ele><time>2026-05-03T08:10:12Z</time></trkpt><trkpt lat="44.48704531801221" lon="9.964665567252764"><ele>870.0</ele><time>2026-05-03T08:10:13Z</time></trkpt><trkpt lat="44.4868785258341" lon="9.964585175528233"><ele>874.0</ele><time>2026-05-03T08:10:14Z</time></trkpt><trkpt lat="44.48671960865747" lon="9.964588684896873"><ele>878.0</ele><time>2026-05-03T08:10:15Z</time></trkpt><trkpt lat="44.486550936357226" lon="9.96465701523572"><ele>878.0</ele><time>2026-05-03T08:10:16Z</time></trkpt><trkpt lat="44.48638634730437" lon="9.964764656350784"><ele>878.0</ele><time>2026-05-03T08:10:17Z</time></trkpt><trkpt lat="44.486223963074856" lon="9.96482186884405"><ele>878.0</ele><time>2026-05-03T08:10:18Z</time></trkpt><trkpt lat="44.4860835211997" lon="9.964883797924006"><ele>881.25</ele><time>2026-05-03T08:10:19Z</time></trkpt><trkpt lat="44.48595413027886" lon="9.964919840210424"><ele>884.5</ele><time>2026-05-03T08:10:20Z</time></trkpt><trkpt lat="44.485845056226964" lon="9.964897330871507"><ele>887.75</ele><time>2026-05-03T08:10:21Z</time></trkpt><trkpt lat="44.485746689057464" lon="9.964820285713666"><ele>891.0</ele><time>2026-05-03T08:10:22Z</time></trkpt><trkpt lat="44.485664285081484" lon="9.964668204393625"><ele>891.0</ele><time>2026-05-03T08:10:23Z</time></trkpt><trkpt lat="44.485616189035625" lon="9.964466379110398"><ele>891.0</ele><time>2026-05-03T08:10:24Z</time></trkpt><trkpt lat="44.48560331933992" lon="9.964226570847098"><ele>891.0</ele><time>2026-05-03T08:10:25Z</time></trkpt><trkpt lat="44.48564190514335" lon="9.963976282314439"><ele>891.0</ele><time>2026-05-03T08:10:26Z</time></trkpt><trkpt lat="44.48571902605037" lon="9.963739707432879"><ele>891.0</ele><time>2026-05-03T08:10:27Z</time></trkpt><trkpt lat="44.48582168732634" lon="9.963541466452734"><ele>891.0</ele><time>2026-05-03T08:10:28Z</time></trkpt><trkpt lat="44.48593906787059" lon="9.963348458756016"><ele>891.0</ele><time>2026-05-03T08:10:28.999Z</time></trkpt><trkpt lat="44.48602840622752" lon="9.963160595350962"><ele>891.0</ele><time>2026-05-03T08:10:29.999Z</time></trkpt><trkpt lat="44.48608947616261" lon="9.962959749137278"><ele>891.0</ele><time>2026-05-03T08:10:30.999Z</time></trkpt><trkpt lat="44.486107866225744" lon="9.962724851937963"><ele>891.6666666666667</ele><time>2026-05-03T08:10:31.999Z</time></trkpt><trkpt lat="44.486055232488354" lon="9.962460823560635"><ele>892.3333333333334</ele><time>2026-05-03T08:10:32.999Z</time></trkpt><trkpt lat="44.48599019774397" lon="9.962170782288961"><ele>893.0</ele><time>2026-05-03T08:10:33.999Z</time></trkpt><trkpt lat="44.4859353702121" lon="9.9618879147243"><ele>892.6666666666667</ele><time>2026-05-03T08:10:34.999Z</time></trkpt><trkpt lat="44.48588825325381" lon="9.961580303900693"><ele>892.3333333333333</ele><time>2026-05-03T08:10:35.999Z</time></trkpt><trkpt lat="44.48584000110139" lon="9.961274388003584"><ele>892.0</ele><time>2026-05-03T08:10:36.999Z</time></trkpt><trkpt lat="44.485792385090605" lon="9.960975356449763"><ele>892.3333333333333</ele><time>2026-05-03T08:10:37.999Z</time></trkpt><trkpt lat="44.485736394053184" lon="9.960684698709246"><ele>892.6666666666667</ele><time>2026-05-03T08:10:38.999Z</time></trkpt><trkpt lat="44.48569258985635" lon="9.960396206606408"><ele>893.0</ele><time>2026-05-03T08:10:39.999Z</time></trkpt><trkpt lat="44.48565669184688" lon="9.960068042854429"><ele>892.3333333333334</ele><time>2026-05-03T08:10:40.999Z</time></trkpt><trkpt lat="44.48564225380761" lon="9.959756989144752"><ele>891.6666666666667</ele><time>2026-05-03T08:10:41.999Z</time></trkpt><trkpt lat="44.485645933784355" lon="9.959470726067988"><ele>891.0</ele><time>2026-05-03T08:10:42.999Z</time></trkpt><trkpt lat="44.485633827174105" lon="9.959229698574926"><ele>891.5</ele><time>2026-05-03T08:10:43.999Z</time></trkpt><trkpt lat="44.4855971777134" lon="9.959054363292134"><ele>892.0</ele><time>2026-05-03T08:10:44.999Z</time></trkpt><trkpt lat="44.485518969943286" lon="9.958913407760765"><ele>892.5</ele><time>2026-05-03T08:10:45.999Z</time></trkpt><trkpt lat="44.48538015003058" lon="9.958825134951573"><ele>893.0</ele><time>2026-05-03T08:10:46.999Z</time></trkpt><trkpt lat="44.48521126578662" lon="9.958779975793831"><ele>899.3333333333334</ele><time>2026-05-03T08:10:47.999Z</time></trkpt><trkpt lat="44.48503490189554" lon="9.95877251828962"><ele>905.6666666666667</ele><time>2026-05-03T08:10:48.999Z</time></trkpt><trkpt lat="44.48486044125388" lon="9.958732873035052"><ele>912.0</ele><time>2026-05-03T08:10:49.999Z</time></trkpt><trkpt lat="44.48469782360016" lon="9.95869718583794"><ele>915.25</ele><time>2026-05-03T08:10:50.999Z</time></trkpt><trkpt lat="44.484561296369485" lon="9.958643052265774"><ele>918.5</ele><time>2026-05-03T08:10:51.999Z</time></trkpt><trkpt lat="44.48444823941652" lon="9.958577646262867"><ele>921.75</ele><time>2026-05-03T08:10:52.999Z</time></trkpt><trkpt lat="44.48438533233792" lon="9.958435087230342"><ele>925.0</ele><time>2026-05-03T08:10:53.999Z</time></trkpt><trkpt lat="44.4844048460243" lon="9.958229910017216"><ele>925.0</ele><time>2026-05-03T08:10:54.999Z</time></trkpt><trkpt lat="44.48442938163069" lon="9.957971340205788"><ele>925.0</ele><time>2026-05-03T08:10:55.999Z</time></trkpt><trkpt lat="44.4844604707874" lon="9.957681839034423"><ele>925.0</ele><time>2026-05-03T08:10:56.999Z</time></trkpt><trkpt lat="44.484468160438496" lon="9.957408763167786"><ele>924.5</ele><time>2026-05-03T08:10:57.999Z</time></trkpt><trkpt lat="44.4845067931887" lon="9.957040804161307"><ele>924.0</ele><time>2026-05-03T08:10:58.999Z</time></trkpt><trkpt lat="44.48453520197528" lon="9.956635808009679"><ele>925.5</ele><time>2026-05-03T08:10:59.999Z</time></trkpt><trkpt lat="44.48457874660138" lon="9.956288489635778"><ele>927.0</ele><time>2026-05-03T08:11:00.999Z</time></trkpt><trkpt lat="44.484628646787755" lon="9.955963014696476"><ele>920.5</ele><time>2026-05-03T08:11:01.999Z</time></trkpt><trkpt lat="44.484706993971294" lon="9.955635718182377"><ele>914.0</ele><time>2026-05-03T08:11:02.999Z</time></trkpt><trkpt lat="44.484800363779215" lon="9.955285028540017"><ele>921.0</ele><time>2026-05-03T08:11:03.999Z</time></trkpt><trkpt lat="44.48486746532462" lon="9.95497052006713"><ele>928.0</ele><time>2026-05-03T08:11:04.999Z</time></trkpt><trkpt lat="44.48493692047874" lon="9.954672414483046"><ele>928.0</ele><time>2026-05-03T08:11:05.999Z</time></trkpt><trkpt lat="44.48499282942761" lon="9.954383902764429"><ele>928.0</ele><time>2026-05-03T08:11:06.999Z</time></trkpt><trkpt lat="44.485046018732156" lon="9.954125023746013"><ele>928.0</ele><time>2026-05-03T08:11:07.999Z</time></trkpt><trkpt lat="44.48506187038311" lon="9.953848681228752"><ele>930.3333333333333</ele><time>2026-05-03T08:11:08.999Z</time></trkpt><trkpt lat="44.48503090581901" lon="9.953547443771376"><ele>932.6666666666667</ele><time>2026-05-03T08:11:09.999Z</time></trkpt><trkpt lat="44.484987174287966" lon="9.953254330944624"><ele>935.0</ele><time>2026-05-03T08:11:10.999Z</time></trkpt><trkpt lat="44.484907772485236" lon="9.952970530926445"><ele>935.3333333333334</ele><time>2026-05-03T08:11:11.999Z</time></trkpt><trkpt lat="44.484801297256034" lon="9.952694342027783"><ele>935.6666666666667</ele><time>2026-05-03T08:11:12.999Z</time></trkpt><trkpt lat="44.48469163727422" lon="9.95244201268891"><ele>936.0</ele><time>2026-05-03T08:11:13.999Z</time></trkpt><trkpt lat="44.484570651159764" lon="9.952205148462795"><ele>943.0</ele><time>2026-05-03T08:11:14.999Z</time></trkpt><trkpt lat="44.484441424838316" lon="9.95199531724408"><ele>950.0</ele><time>2026-05-03T08:11:15.999Z</time></trkpt><trkpt lat="44.48434709135736" lon="9.951757308359024"><ele>957.0</ele><time>2026-05-03T08:11:16.999Z</time></trkpt><trkpt lat="44.484270724473014" lon="9.951461646242334"><ele>957.0</ele><time>2026-05-03T08:11:17.999Z</time></trkpt><trkpt lat="44.48421057681649" lon="9.951208645032413"><ele>957.0</ele><time>2026-05-03T08:11:18.999Z</time></trkpt><trkpt lat="44.484180100716685" lon="9.951075409089789"><ele>957.0</ele><time>2026-05-03T08:11:19.999Z</time></trkpt><trkpt lat="44.48412509466192" lon="9.950890260821952"><ele>957.0</ele><time>2026-05-03T08:11:20.999Z</time></trkpt><trkpt lat="44.48408347340196" lon="9.950697830027917"><ele>954.6666666666667</ele><time>2026-05-03T08:11:21.999Z</time></trkpt><trkpt lat="44.484027844030265" lon="9.95050089555803"><ele>952.3333333333334</ele><time>2026-05-03T08:11:22.999Z</time></trkpt><trkpt lat="44.48393008555175" lon="9.950305208591567"><ele>950.0</ele><time>2026-05-03T08:11:23.999Z</time></trkpt><trkpt lat="44.48379697767603" lon="9.950142570487756"><ele>951.6666666666667</ele><time>2026-05-03T08:11:24.999Z</time></trkpt><trkpt lat="44.483645202998275" lon="9.950010821459154"><ele>953.3333333333333</ele><time>2026-05-03T08:11:26Z</time></trkpt><trkpt lat="44.48347457560303" lon="9.949951234858617"><ele>955.0</ele><time>2026-05-03T08:11:27Z</time></trkpt><trkpt lat="44.48327189919052" lon="9.949900904973893"><ele>955.0</ele><time>2026-05-03T08:11:28Z</time></trkpt><trkpt lat="44.48310332681286" lon="9.949950306689962"><ele>955.0</ele><time>2026-05-03T08:11:29Z</time></trkpt><trkpt lat="44.48295821862676" lon="9.949951538299342"><ele>955.0</ele><time>2026-05-03T08:11:30Z</time></trkpt><trkpt lat="44.48283837417666" lon="9.949935385744928"><ele>955.0</ele><time>2026-05-03T08:11:31Z</time></trkpt><trkpt lat="44.48272593235917" lon="9.949852013404742"><ele>960.6666666666666</ele><time>2026-05-03T08:11:32Z</time></trkpt><trkpt lat="44.48259391091231" lon="9.949724494555948"><ele>966.3333333333333</ele><time>2026-05-03T08:11:33Z</time></trkpt><trkpt lat="44.48245234409412" lon="9.94961284854528"><ele>972.0</ele><time>2026-05-03T08:11:34Z</time></trkpt><trkpt lat="44.48231443613477" lon="9.949484918399314"><ele>972.0</ele><time>2026-05-03T08:11:35Z</time></trkpt><trkpt lat="44.48219304077104" lon="9.949374763605439"><ele>972.0</ele><time>2026-05-03T08:11:36Z</time></trkpt><trkpt lat="44.48209285064064" lon="9.949277680102204"><ele>972.0</ele><time>2026-05-03T08:11:37Z</time></trkpt><trkpt lat="44.48199530340723" lon="9.949177206737815"><ele>972.0</ele><time>2026-05-03T08:11:38Z</time></trkpt><trkpt lat="44.48191954002675" lon="9.94904286048668"><ele>972.4000000000001</ele><time>2026-05-03T08:11:39Z</time></trkpt><trkpt lat="44.48184511760521" lon="9.94890634194137"><ele>972.8000000000001</ele><time>2026-05-03T08:11:40Z</time></trkpt><trkpt lat="44.481804755554286" lon="9.948734226648467"><ele>973.2</ele><time>2026-05-03T08:11:41Z</time></trkpt><trkpt lat="44.48178249087316" lon="9.948596844846051"><ele>973.6</ele><time>2026-05-03T08:11:42Z</time></trkpt><trkpt lat="44.4817402074743" lon="9.948485737544566"><ele>974.0</ele><time>2026-05-03T08:11:43Z</time></trkpt><trkpt lat="44.481666635218744" lon="9.948401452985982"><ele>974.0</ele><time>2026-05-03T08:11:44Z</time></trkpt><trkpt lat="44.48156830689716" lon="9.94839693236009"><ele>974.0</ele><time>2026-05-03T08:11:45Z</time></trkpt><trkpt lat="44.48143583559495" lon="9.948477636682181"><ele>974.0</ele><time>2026-05-03T08:11:46Z</time></trkpt><trkpt lat="44.4813035549327" lon="9.948659466621521"><ele>974.0</ele><time>2026-05-03T08:11:47Z</time></trkpt><trkpt lat="44.48116197163063" lon="9.948882235630823"><ele>972.6666666666667</ele><time>2026-05-03T08:11:48Z</time></trkpt><trkpt lat="44.48100271255969" lon="9.949103419002089"><ele>971.3333333333333</ele><time>2026-05-03T08:11:49Z</time></trkpt><trkpt lat="44.480845497794036" lon="9.949323352529682"><ele>970.0</ele><time>2026-05-03T08:11:50Z</time></trkpt><trkpt lat="44.48072257163362" lon="9.949528420446262"><ele>973.5</ele><time>2026-05-03T08:11:51Z</time></trkpt><trkpt lat="44.48061605723921" lon="9.94964075730599"><ele>977.0</ele><time>2026-05-03T08:11:52Z</time></trkpt><trkpt lat="44.480542557929496" lon="9.949719664716325"><ele>980.5</ele><time>2026-05-03T08:11:53Z</time></trkpt><trkpt lat="44.48037526791972" lon="9.94976501062611"><ele>984.0</ele><time>2026-05-03T08:11:54Z</time></trkpt><trkpt lat="44.48012186830411" lon="9.94981144952789"><ele>984.0</ele><time>2026-05-03T08:11:55Z</time></trkpt><trkpt lat="44.47986518700128" lon="9.949838813265737"><ele>984.0</ele><time>2026-05-03T08:11:56Z</time></trkpt><trkpt lat="44.47959164423785" lon="9.949875514802644"><ele>984.0</ele><time>2026-05-03T08:11:57Z</time></trkpt><trkpt lat="44.47929988277352" lon="9.949935022437376"><ele>984.0</ele><time>2026-05-03T08:11:58Z</time></trkpt><trkpt lat="44.47900993941862" lon="9.94997734328535"><ele>984.0</ele><time>2026-05-03T08:11:59Z</time></trkpt><trkpt lat="44.47873702317118" lon="9.95001773524534"><ele>984.0</ele><time>2026-05-03T08:12:00Z</time></trkpt><trkpt lat="44.47855050924128" lon="9.950035776218224"><ele>984.0</ele><time>2026-05-03T08:12:01Z</time></trkpt><trkpt lat="44.478376086376166" lon="9.950089358302396"><ele>984.0</ele><time>2026-05-03T08:12:02Z</time></trkpt><trkpt lat="44.47822114356268" lon="9.950082967241238"><ele>984.0</ele><time>2026-05-03T08:12:03Z</time></trkpt><trkpt lat="44.478096364650966" lon="9.950033767563626"><ele>984.0</ele><time>2026-05-03T08:12:04Z</time></trkpt><trkpt lat="44.47795672811334" lon="9.949940124516047"><ele>984.0</ele><time>2026-05-03T08:12:05Z</time></trkpt><trkpt lat="44.477826711184285" lon="9.949821244853412"><ele>984.0</ele><time>2026-05-03T08:12:06Z</time></trkpt><trkpt lat="44.47774127829134" lon="9.949672747273874"><ele>984.0</ele><time>2026-05-03T08:12:07Z</time></trkpt><trkpt lat="44.47769927633614" lon="9.949486113484722"><ele>987.6666666666667</ele><time>2026-05-03T08:12:08Z</time></trkpt><trkpt lat="44.477732467408515" lon="9.949266902433532"><ele>991.3333333333334</ele><time>2026-05-03T08:12:09Z</time></trkpt><trkpt lat="44.47774203774659" lon="9.94900390319755"><ele>995.0</ele><time>2026-05-03T08:12:10Z</time></trkpt><trkpt lat="44.47772299625448" lon="9.948719857115478"><ele>995.0</ele><time>2026-05-03T08:12:11Z</time></trkpt><trkpt lat="44.477664588421035" lon="9.94841598119666"><ele>995.0</ele><time>2026-05-03T08:12:12Z</time></trkpt><trkpt lat="44.47754685403335" lon="9.948285427824768"><ele>995.0</ele><time>2026-05-03T08:12:13Z</time></trkpt><trkpt lat="44.47741410810469" lon="9.948153517282222"><ele>992.3333333333334</ele><time>2026-05-03T08:12:14Z</time></trkpt><trkpt lat="44.47723361381869" lon="9.948113812806524"><ele>989.6666666666667</ele><time>2026-05-03T08:12:15Z</time></trkpt><trkpt lat="44.477062020086585" lon="9.948029058013898"><ele>987.0</ele><time>2026-05-03T08:12:16Z</time></trkpt><trkpt lat="44.476884972369746" lon="9.947870520063075"><ele>989.0</ele><time>2026-05-03T08:12:17Z</time></trkpt><trkpt lat="44.47673146196594" lon="9.94761382139035"><ele>991.0</ele><time>2026-05-03T08:12:18Z</time></trkpt><trkpt lat="44.476665724962054" lon="9.947441897638955"><ele>993.0</ele><time>2026-05-03T08:12:19Z</time></trkpt><trkpt lat="44.47655676451168" lon="9.947222388664667"><ele>993.0</ele><time>2026-05-03T08:12:20Z</time></trkpt><trkpt lat="44.47645805767774" lon="9.947031692166675"><ele>993.0</ele><time>2026-05-03T08:12:21Z</time></trkpt><trkpt lat="44.47629590282665" lon="9.946888958428676"><ele>993.0</ele><time>2026-05-03T08:12:22Z</time></trkpt><trkpt lat="44.47607401600039" lon="9.946791500594399"><ele>993.0</ele><time>2026-05-03T08:12:23Z</time></trkpt><trkpt lat="44.47585670305765" lon="9.946681157149929"><ele>993.0</ele><time>2026-05-03T08:12:24Z</time></trkpt><trkpt lat="44.475648650621196" lon="9.946566839727597"><ele>993.0</ele><time>2026-05-03T08:12:25Z</time></trkpt><trkpt lat="44.475440203213644" lon="9.946478326609132"><ele>993.0</ele><time>2026-05-03T08:12:26Z</time></trkpt><trkpt lat="44.47521653956198" lon="9.946456615100594"><ele>993.0</ele><time>2026-05-03T08:12:27Z</time></trkpt><trkpt lat="44.47499956155055" lon="9.946429281899555"><ele>996.6666666666667</ele><time>2026-05-03T08:12:28Z</time></trkpt><trkpt lat="44.47481847983374" lon="9.94636483151269"><ele>1000.3333333333334</ele><time>2026-05-03T08:12:29Z</time></trkpt><trkpt lat="44.4746948185084" lon="9.946313188830922"><ele>1004.0</ele><time>2026-05-03T08:12:30Z</time></trkpt><trkpt lat="44.47451712997553" lon="9.94622373485885"><ele>1005.25</ele><time>2026-05-03T08:12:31Z</time></trkpt><trkpt lat="44.47441659318085" lon="9.946132350832606"><ele>1006.5</ele><time>2026-05-03T08:12:32Z</time></trkpt><trkpt lat="44.47434082945637" lon="9.946011801990915"><ele>1007.75</ele><time>2026-05-03T08:12:33Z</time></trkpt><trkpt lat="44.47433288835079" lon="9.945830236013705"><ele>1009.0</ele><time>2026-05-03T08:12:34Z</time></trkpt><trkpt lat="44.47428899151766" lon="9.94557452948089"><ele>1009.0</ele><time>2026-05-03T08:12:34.999Z</time></trkpt><trkpt lat="44.47423987510822" lon="9.945283320742703"><ele>1009.0</ele><time>2026-05-03T08:12:35.999Z</time></trkpt><trkpt lat="44.474182112913724" lon="9.944955029918429"><ele>1007.5</ele><time>2026-05-03T08:12:36.999Z</time></trkpt><trkpt lat="44.474097031136054" lon="9.944613821739209"><ele>1006.0</ele><time>2026-05-03T08:12:37.999Z</time></trkpt><trkpt lat="44.473980066293514" lon="9.944255881146557"><ele>1003.0</ele><time>2026-05-03T08:12:38.999Z</time></trkpt><trkpt lat="44.4738497263312" lon="9.943949728855348"><ele>1000.0</ele><time>2026-05-03T08:12:39.999Z</time></trkpt><trkpt lat="44.47374144020507" lon="9.943684034413709"><ele>1006.0</ele><time>2026-05-03T08:12:40.999Z</time></trkpt><trkpt lat="44.47364376383852" lon="9.943449813910961"><ele>1012.0</ele><time>2026-05-03T08:12:41.999Z</time></trkpt><trkpt lat="44.47357073229504" lon="9.9432770174698"><ele>1018.0</ele><time>2026-05-03T08:12:42.999Z</time></trkpt><trkpt lat="44.473558535480926" lon="9.943088111165949"><ele>1018.6666666666666</ele><time>2026-05-03T08:12:43.999Z</time></trkpt><trkpt lat="44.473577556428836" lon="9.942877713175836"><ele>1019.3333333333333</ele><time>2026-05-03T08:12:44.999Z</time></trkpt><trkpt lat="44.473604427917046" lon="9.942633536499239"><ele>1020.0</ele><time>2026-05-03T08:12:45.999Z</time></trkpt><trkpt lat="44.47365130871342" lon="9.942436913852653"><ele>1026.3333333333333</ele><time>2026-05-03T08:12:46.999Z</time></trkpt><trkpt lat="44.47373531975369" lon="9.942299792732381"><ele>1032.6666666666665</ele><time>2026-05-03T08:12:47.999Z</time></trkpt><trkpt lat="44.47386246556478" lon="9.942163975537248"><ele>1039.0</ele><time>2026-05-03T08:12:48.999Z</time></trkpt><trkpt lat="44.47401535752078" lon="9.94199371316139"><ele>1032.0</ele><time>2026-05-03T08:12:49.999Z</time></trkpt><trkpt lat="44.474151965544515" lon="9.941840398687136"><ele>1025.0</ele><time>2026-05-03T08:12:50.999Z</time></trkpt><trkpt lat="44.47426141640614" lon="9.941691494269373"><ele>1018.0</ele><time>2026-05-03T08:12:51.999Z</time></trkpt><trkpt lat="44.474346153654075" lon="9.941587417628348"><ele>1011.0</ele><time>2026-05-03T08:12:52.999Z</time></trkpt><trkpt lat="44.47435003293421" lon="9.941478458340834"><ele>1011.0</ele><time>2026-05-03T08:12:53.999Z</time></trkpt><trkpt lat="44.47427679212189" lon="9.941352354137207"><ele>1011.0</ele><time>2026-05-03T08:12:54.999Z</time></trkpt><trkpt lat="44.474116434219994" lon="9.941264442495875"><ele>1011.0</ele><time>2026-05-03T08:12:55.999Z</time></trkpt><trkpt lat="44.47395301344543" lon="9.941131020476988"><ele>1011.0</ele><time>2026-05-03T08:12:56.999Z</time></trkpt><trkpt lat="44.47383710677112" lon="9.940966253235706"><ele>1011.0</ele><time>2026-05-03T08:12:57.999Z</time></trkpt><trkpt lat="44.47371086449782" lon="9.940719461157585"><ele>1011.0</ele><time>2026-05-03T08:12:58.999Z</time></trkpt><trkpt lat="44.47358981749829" lon="9.940498797826113"><ele>1017.3333333333333</ele><time>2026-05-03T08:12:59.999Z</time></trkpt><trkpt lat="44.47344738620488" lon="9.940289361711393"><ele>1023.6666666666666</ele><time>2026-05-03T08:13:00.999Z</time></trkpt><trkpt lat="44.473289668953" lon="9.940119214973459"><ele>1030.0</ele><time>2026-05-03T08:13:01.999Z</time></trkpt><trkpt lat="44.4732113955306" lon="9.940116155144509"><ele>1030.0</ele><time>2026-05-03T08:13:02.999Z</time></trkpt><trkpt lat="44.47298030702807" lon="9.940126840086185"><ele>1030.0</ele><time>2026-05-03T08:13:03.999Z</time></trkpt><trkpt lat="44.472782550545375" lon="9.940149268799068"><ele>1030.0</ele><time>2026-05-03T08:13:04.999Z</time></trkpt><trkpt lat="44.4726179898076" lon="9.940136251002412"><ele>1028.0</ele><time>2026-05-03T08:13:05.999Z</time></trkpt><trkpt lat="44.47248134320103" lon="9.94007290792824"><ele>1026.0</ele><time>2026-05-03T08:13:06.999Z</time></trkpt><trkpt lat="44.47236777407749" lon="9.940002847049401"><ele>1024.0</ele><time>2026-05-03T08:13:07.999Z</time></trkpt><trkpt lat="44.47229521754875" lon="9.939886309813152"><ele>1022.0</ele><time>2026-05-03T08:13:08.999Z</time></trkpt><trkpt lat="44.472271534542095" lon="9.939705958338807"><ele>1022.0</ele><time>2026-05-03T08:13:09.999Z</time></trkpt><trkpt lat="44.47222260661697" lon="9.939455757701193"><ele>1022.0</ele><time>2026-05-03T08:13:10.999Z</time></trkpt><trkpt lat="44.47218580096268" lon="9.939233979208943"><ele>1022.0</ele><time>2026-05-03T08:13:11.999Z</time></trkpt><trkpt lat="44.472183745777826" lon="9.939084788431792"><ele>1021.0</ele><time>2026-05-03T08:13:12.999Z</time></trkpt><trkpt lat="44.47223933399965" lon="9.93898295889305"><ele>1020.0</ele><time>2026-05-03T08:13:13.999Z</time></trkpt><trkpt lat="44.47233782608784" lon="9.938894555767613"><ele>1019.0</ele><time>2026-05-03T08:13:14.999Z</time></trkpt><trkpt lat="44.472470664738154" lon="9.93874322254588"><ele>1018.0</ele><time>2026-05-03T08:13:15.999Z</time></trkpt><trkpt lat="44.472561727050795" lon="9.938564910579935"><ele>1019.6666666666666</ele><time>2026-05-03T08:13:16.999Z</time></trkpt><trkpt lat="44.472611298861615" lon="9.93831970497597"><ele>1021.3333333333333</ele><time>2026-05-03T08:13:17.999Z</time></trkpt><trkpt lat="44.47262673290961" lon="9.937990830169694"><ele>1023.0</ele><time>2026-05-03T08:13:18.999Z</time></trkpt><trkpt lat="44.47265004593936" lon="9.937628731428628"><ele>1025.0</ele><time>2026-05-03T08:13:19.999Z</time></trkpt><trkpt lat="44.47269091084839" lon="9.937255526189999"><ele>1027.0</ele><time>2026-05-03T08:13:20.999Z</time></trkpt><trkpt lat="44.472768098168984" lon="9.936945144084088"><ele>1027.6666666666665</ele><time>2026-05-03T08:13:21.999Z</time></trkpt><trkpt lat="44.47282115367402" lon="9.936700027690152"><ele>1028.3333333333333</ele><time>2026-05-03T08:13:22.999Z</time></trkpt><trkpt lat="44.472884997360104" lon="9.936507693852555"><ele>1029.0</ele><time>2026-05-03T08:13:23.999Z</time></trkpt><trkpt lat="44.472900906413024" lon="9.936310700153335"><ele>1029.0</ele><time>2026-05-03T08:13:24.999Z</time></trkpt><trkpt lat="44.472851597602784" lon="9.936101089005168"><ele>1029.0</ele><time>2026-05-03T08:13:25.999Z</time></trkpt><trkpt lat="44.47273836125762" lon="9.935895879515922"><ele>1029.0</ele><time>2026-05-03T08:13:26.999Z</time></trkpt><trkpt lat="44.472567499968235" lon="9.935695739168077"><ele>1029.3333333333333</ele><time>2026-05-03T08:13:27.999Z</time></trkpt><trkpt lat="44.47238303720819" lon="9.935546010226632"><ele>1029.6666666666665</ele><time>2026-05-03T08:13:28.999Z</time></trkpt><trkpt lat="44.47221781312999" lon="9.935388834660893"><ele>1030.0</ele><time>2026-05-03T08:13:29.999Z</time></trkpt><trkpt lat="44.47209532221001" lon="9.935226772513818"><ele>1030.0</ele><time>2026-05-03T08:13:30.999Z</time></trkpt><trkpt lat="44.4719792180268" lon="9.935111858288508"><ele>1030.0</ele><time>2026-05-03T08:13:32Z</time></trkpt><trkpt lat="44.47183899821529" lon="9.935061068815457"><ele>1030.0</ele><time>2026-05-03T08:13:33Z</time></trkpt><trkpt lat="44.47168179900105" lon="9.935085155226455"><ele>1030.0</ele><time>2026-05-03T08:13:34Z</time></trkpt><trkpt lat="44.47156910461194" lon="9.935121897279581"><ele>1030.0</ele><time>2026-05-03T08:13:35Z</time></trkpt><trkpt lat="44.471489776624644" lon="9.935108319938223"><ele>1030.0</ele><time>2026-05-03T08:13:36Z</time></trkpt><trkpt lat="44.47142337599623" lon="9.935015816882842"><ele>1030.0</ele><time>2026-05-03T08:13:37Z</time></trkpt><trkpt lat="44.47143628261399" lon="9.934844870716102"><ele>1030.0</ele><time>2026-05-03T08:13:38Z</time></trkpt><trkpt lat="44.471468727676765" lon="9.93468779899635"><ele>1030.0</ele><time>2026-05-03T08:13:39Z</time></trkpt><trkpt lat="44.47150247469102" lon="9.934471758932641"><ele>1028.3333333333333</ele><time>2026-05-03T08:13:40Z</time></trkpt><trkpt lat="44.47156543354833" lon="9.934239061914266"><ele>1026.6666666666667</ele><time>2026-05-03T08:13:41Z</time></trkpt><trkpt lat="44.47166990937146" lon="9.933988110003249"><ele>1025.0</ele><time>2026-05-03T08:13:42Z</time></trkpt><trkpt lat="44.47179598358729" lon="9.933704309971072"><ele>1025.0</ele><time>2026-05-03T08:13:43Z</time></trkpt><trkpt lat="44.47191899480722" lon="9.933423942470164"><ele>1025.0</ele><time>2026-05-03T08:13:44Z</time></trkpt><trkpt lat="44.47203132028518" lon="9.933165259003703"><ele>1022.0</ele><time>2026-05-03T08:13:45Z</time></trkpt><trkpt lat="44.47211448239063" lon="9.93292427090347"><ele>1019.0</ele><time>2026-05-03T08:13:46Z</time></trkpt><trkpt lat="44.472202572586546" lon="9.932696390615371"><ele>1016.0</ele><time>2026-05-03T08:13:47Z</time></trkpt><trkpt lat="44.47227321401725" lon="9.932447356615763"><ele>1016.0</ele><time>2026-05-03T08:13:48Z</time></trkpt><trkpt lat="44.472328635816886" lon="9.932180660709626"><ele>1016.0</ele><time>2026-05-03T08:13:49Z</time></trkpt><trkpt lat="44.472381457960516" lon="9.9319195987846"><ele>1016.0</ele><time>2026-05-03T08:13:50Z</time></trkpt><trkpt lat="44.472437456742085" lon="9.931683596249936"><ele>1019.3333333333334</ele><time>2026-05-03T08:13:51Z</time></trkpt><trkpt lat="44.47248674112827" lon="9.93146153481204"><ele>1022.6666666666667</ele><time>2026-05-03T08:13:52Z</time></trkpt><trkpt lat="44.472518164183995" lon="9.931250598973229"><ele>1026.0</ele><time>2026-05-03T08:13:53Z</time></trkpt><trkpt lat="44.47252574657764" lon="9.93105197214735"><ele>1027.75</ele><time>2026-05-03T08:13:54Z</time></trkpt><trkpt lat="44.472511296678526" lon="9.930855844487736"><ele>1029.5</ele><time>2026-05-03T08:13:55Z</time></trkpt><trkpt lat="44.472479519199716" lon="9.930672630949237"><ele>1031.25</ele><time>2026-05-03T08:13:56Z</time></trkpt><trkpt lat="44.47243904858314" lon="9.930517888852926"><ele>1033.0</ele><time>2026-05-03T08:13:57Z</time></trkpt><trkpt lat="44.47239383865341" lon="9.93037486541745"><ele>1033.0</ele><time>2026-05-03T08:13:58Z</time></trkpt><trkpt lat="44.472334006981455" lon="9.930244520424672"><ele>1033.0</ele><time>2026-05-03T08:13:59Z</time></trkpt><trkpt lat="44.472278568452445" lon="9.930116373734492"><ele>1033.0</ele><time>2026-05-03T08:14:00Z</time></trkpt><trkpt lat="44.47222429229966" lon="9.929992535911744"><ele>1033.0</ele><time>2026-05-03T08:14:01Z</time></trkpt><trkpt lat="44.47217331189099" lon="9.929868930504814"><ele>1033.0</ele><time>2026-05-03T08:14:02Z</time></trkpt><trkpt lat="44.47212712762546" lon="9.929755589853436"><ele>1034.5</ele><time>2026-05-03T08:14:03Z</time></trkpt><trkpt lat="44.472084580933796" lon="9.929650543494144"><ele>1036.0</ele><time>2026-05-03T08:14:04Z</time></trkpt><trkpt lat="44.472042480323026" lon="9.929553643542311"><ele>1037.5</ele><time>2026-05-03T08:14:05Z</time></trkpt><trkpt lat="44.472002725908" lon="9.929462713945505"><ele>1039.0</ele><time>2026-05-03T08:14:06Z</time></trkpt><trkpt lat="44.471965567120684" lon="9.929381009767477"><ele>1040.5</ele><time>2026-05-03T08:14:07Z</time></trkpt><trkpt lat="44.471927143504466" lon="9.929274378564095"><ele>1042.0</ele><time>2026-05-03T08:14:09Z</time></trkpt><trkpt lat="44.47191151576322" lon="9.929183643657762"><ele>1042.0</ele><time>2026-05-03T08:14:17Z</time></trkpt><trkpt lat="44.47188109609478" lon="9.929105498524931"><ele>1042.0</ele><time>2026-05-03T08:16:03Z</time></trkpt><trkpt lat="44.47183209213578" lon="9.929034260627253"><ele>1042.0</ele><time>2026-05-03T08:16:09Z</time></trkpt><trkpt lat="44.47179291247874" lon="9.928953577985178"><ele>1042.0</ele><time>2026-05-03T08:16:16Z</time></trkpt><trkpt lat="44.47140068285584" lon="9.92912580260069"><ele>1042.0</ele><time>2026-05-03T08:16:34Z</time></trkpt><trkpt lat="44.47132038422345" lon="9.92917508819134"><ele>1042.0</ele><time>2026-05-03T08:16:36Z</time></trkpt><trkpt lat="44.471455578472565" lon="9.929255619878472"><ele>1042.0</ele><time>2026-05-03T08:16:47.502Z</time></trkpt><trkpt lat="44.47182293042394" lon="9.928978031869988"><ele>1010.0</ele><time>2026-05-03T08:17:12.203Z</time></trkpt><trkpt lat="44.4710884569627" lon="9.929200401538917"><ele>1026.0</ele><time>2026-05-03T08:17:58.999Z</time></trkpt><trkpt lat="44.47144138501899" lon="9.929158421433703"><ele>1042.0</ele><time>2026-05-03T08:18:03.999Z</time></trkpt><trkpt lat="44.4717892795725" lon="9.929069610642337"><ele>1042.0</ele><time>2026-05-03T08:18:08Z</time></trkpt><trkpt lat="44.47169529291665" lon="9.928788052207606"><ele>1042.0</ele><time>2026-05-03T08:18:10Z</time></trkpt><trkpt lat="44.47185261217623" lon="9.928923803204606"><ele>1042.0</ele><time>2026-05-03T08:18:13Z</time></trkpt><trkpt lat="44.47178612803253" lon="9.928871369126954"><ele>1042.0</ele><time>2026-05-03T08:18:34Z</time></trkpt><trkpt lat="44.47182504856009" lon="9.928949229573513"><ele>1042.0</ele><time>2026-05-03T08:18:51Z</time></trkpt><trkpt lat="44.471871647001436" lon="9.929072688939561"><ele>1042.0</ele><time>2026-05-03T08:19:08Z</time></trkpt><trkpt lat="44.47192417257245" lon="9.929122700240553"><ele>1042.0</ele><time>2026-05-03T08:28:12.999Z</time></trkpt><trkpt lat="44.47195102026582" lon="9.929038363046677"><ele>1042.0</ele><time>2026-05-03T08:28:18.999Z</time></trkpt><trkpt lat="44.47190895650084" lon="9.929117894489089"><ele>1042.0</ele><time>2026-05-03T08:28:27.999Z</time></trkpt><trkpt lat="44.471852244007344" lon="9.929055972600256"><ele>1042.0</ele><time>2026-05-03T08:50:08Z</time></trkpt><trkpt lat="44.47179371938571" lon="9.928990838404765"><ele>1042.0</ele><time>2026-05-03T08:50:11Z</time></trkpt><trkpt lat="44.47174524681193" lon="9.928885942092219"><ele>1042.0</ele><time>2026-05-03T08:50:13Z</time></trkpt><trkpt lat="44.471692438807075" lon="9.928769906833647"><ele>1042.0</ele><time>2026-05-03T08:50:15Z</time></trkpt><trkpt lat="44.47164675724678" lon="9.928654237877668"><ele>1042.0</ele><time>2026-05-03T08:50:17Z</time></trkpt><trkpt lat="44.47161433447341" lon="9.928543711370805"><ele>1042.0</ele><time>2026-05-03T08:50:19Z</time></trkpt><trkpt lat="44.471585649690816" lon="9.928456486642188"><ele>1042.0</ele><time>2026-05-03T08:50:21Z</time></trkpt><trkpt lat="44.47154228401341" lon="9.928345605736867"><ele>1041.2</ele><time>2026-05-03T08:50:23Z</time></trkpt><trkpt lat="44.471497994367546" lon="9.92825119415491"><ele>1040.4</ele><time>2026-05-03T08:50:24Z</time></trkpt><trkpt lat="44.47145145921899" lon="9.9281333322522"><ele>1039.6</ele><time>2026-05-03T08:50:25Z</time></trkpt><trkpt lat="44.471413338944025" lon="9.927999815825034"><ele>1038.8</ele><time>2026-05-03T08:50:26Z</time></trkpt><trkpt lat="44.47137712347017" lon="9.927844887721738"><ele>1038.0</ele><time>2026-05-03T08:50:27Z</time></trkpt><trkpt lat="44.47135806883359" lon="9.927665904308993"><ele>1039.5</ele><time>2026-05-03T08:50:28Z</time></trkpt><trkpt lat="44.471349588532206" lon="9.927491297853607"><ele>1041.0</ele><time>2026-05-03T08:50:29Z</time></trkpt><trkpt lat="44.47136057029005" lon="9.927289011813237"><ele>1042.5</ele><time>2026-05-03T08:50:30Z</time></trkpt><trkpt lat="44.47138920044805" lon="9.927091281096196"><ele>1044.0</ele><time>2026-05-03T08:50:31Z</time></trkpt><trkpt lat="44.47139954237415" lon="9.92690872721291"><ele>1044.0</ele><time>2026-05-03T08:50:32Z</time></trkpt><trkpt lat="44.47138497914705" lon="9.926728669127847"><ele>1044.0</ele><time>2026-05-03T08:50:33Z</time></trkpt><trkpt lat="44.471354570461735" lon="9.926532823014393"><ele>1044.0</ele><time>2026-05-03T08:50:34Z</time></trkpt><trkpt lat="44.47133480511439" lon="9.926334808180384"><ele>1044.0</ele><time>2026-05-03T08:50:35Z</time></trkpt><trkpt lat="44.47133541840888" lon="9.92613060725186"><ele>1045.25</ele><time>2026-05-03T08:50:36Z</time></trkpt><trkpt lat="44.471359016009224" lon="9.925942837494462"><ele>1046.5</ele><time>2026-05-03T08:50:37Z</time></trkpt><trkpt lat="44.47139668941421" lon="9.92576789274339"><ele>1047.75</ele><time>2026-05-03T08:50:38Z</time></trkpt><trkpt lat="44.47145183175066" lon="9.925595632992826"><ele>1049.0</ele><time>2026-05-03T08:50:39Z</time></trkpt><trkpt lat="44.47152812100718" lon="9.925411327362967"><ele>1049.0</ele><time>2026-05-03T08:50:40Z</time></trkpt><trkpt lat="44.47160109185695" lon="9.925205112013286"><ele>1049.0</ele><time>2026-05-03T08:50:41Z</time></trkpt><trkpt lat="44.47166884931144" lon="9.924999397893227"><ele>1049.0</ele><time>2026-05-03T08:50:42Z</time></trkpt><trkpt lat="44.471742211902146" lon="9.924791758383426"><ele>1045.0</ele><time>2026-05-03T08:50:43Z</time></trkpt><trkpt lat="44.471807488787675" lon="9.924585934911871"><ele>1041.0</ele><time>2026-05-03T08:50:44Z</time></trkpt><trkpt lat="44.4718504850687" lon="9.924375629957177"><ele>1037.0</ele><time>2026-05-03T08:50:44.999Z</time></trkpt><trkpt lat="44.47185458448439" lon="9.92416493300256"><ele>1034.3333333333335</ele><time>2026-05-03T08:50:45.999Z</time></trkpt><trkpt lat="44.47181619557323" lon="9.923940053267389"><ele>1031.6666666666667</ele><time>2026-05-03T08:50:46.999Z</time></trkpt><trkpt lat="44.47173279986909" lon="9.923717834070546"><ele>1029.0</ele><time>2026-05-03T08:50:47.999Z</time></trkpt><trkpt lat="44.471623967205645" lon="9.923510348866149"><ele>1030.6666666666667</ele><time>2026-05-03T08:50:48.999Z</time></trkpt><trkpt lat="44.471538858264836" lon="9.923300171746975"><ele>1032.3333333333335</ele><time>2026-05-03T08:50:49.999Z</time></trkpt><trkpt lat="44.471454085529" lon="9.923099030926942"><ele>1034.0</ele><time>2026-05-03T08:50:50.999Z</time></trkpt><trkpt lat="44.471382743851244" lon="9.922925929731147"><ele>1034.0</ele><time>2026-05-03T08:50:51.999Z</time></trkpt><trkpt lat="44.47130952796351" lon="9.922761914436045"><ele>1034.0</ele><time>2026-05-03T08:50:52.999Z</time></trkpt><trkpt lat="44.47128577084231" lon="9.922543436650002"><ele>1034.0</ele><time>2026-05-03T08:50:53.999Z</time></trkpt><trkpt lat="44.47127398880453" lon="9.922307780316041"><ele>1030.75</ele><time>2026-05-03T08:50:54.999Z</time></trkpt><trkpt lat="44.47129287674928" lon="9.922115021303219"><ele>1027.5</ele><time>2026-05-03T08:50:55.999Z</time></trkpt><trkpt lat="44.47128795588706" lon="9.921947576096839"><ele>1024.25</ele><time>2026-05-03T08:50:56.999Z</time></trkpt><trkpt lat="44.47124218532111" lon="9.921783435174687"><ele>1021.0</ele><time>2026-05-03T08:50:57.999Z</time></trkpt><trkpt lat="44.47114207674585" lon="9.921631903957339"><ele>1021.0</ele><time>2026-05-03T08:50:58.999Z</time></trkpt><trkpt lat="44.47103149642707" lon="9.92152054616854"><ele>1020.9999999999999</ele><time>2026-05-03T08:50:59.999Z</time></trkpt><trkpt lat="44.47097604568848" lon="9.92141914302126"><ele>1020.9999999999999</ele><time>2026-05-03T08:51:00.999Z</time></trkpt><trkpt lat="44.47092041395022" lon="9.921341615926213"><ele>1021.0</ele><time>2026-05-03T08:51:02.999Z</time></trkpt><trkpt lat="44.470856507141086" lon="9.921252556815599"><ele>1021.0</ele><time>2026-05-03T08:51:13.999Z</time></trkpt><trkpt lat="44.470796432505104" lon="9.921167320744766"><ele>1021.0</ele><time>2026-05-03T08:51:14.999Z</time></trkpt><trkpt lat="44.470729059113346" lon="9.921071322441144"><ele>1020.9999999999999</ele><time>2026-05-03T08:51:15.999Z</time></trkpt><trkpt lat="44.47066314722391" lon="9.92097755305011"><ele>1020.9999999999999</ele><time>2026-05-03T08:51:16.999Z</time></trkpt><trkpt lat="44.47057661241257" lon="9.920857425643096"><ele>1021.0</ele><time>2026-05-03T08:51:17.999Z</time></trkpt><trkpt lat="44.47048389924834" lon="9.92074196382208"><ele>1021.0</ele><time>2026-05-03T08:51:18.999Z</time></trkpt><trkpt lat="44.470386884466244" lon="9.920636323955016"><ele>1023.4</ele><time>2026-05-03T08:51:19.999Z</time></trkpt><trkpt lat="44.47028153628048" lon="9.920549638498924"><ele>1025.8</ele><time>2026-05-03T08:51:20.999Z</time></trkpt><trkpt lat="44.47017248278559" lon="9.920514038261969"><ele>1028.1999999999998</ele><time>2026-05-03T08:51:21.999Z</time></trkpt><trkpt lat="44.470079227261735" lon="9.920513861156996"><ele>1030.6</ele><time>2026-05-03T08:51:22.999Z</time></trkpt><trkpt lat="44.469996630122196" lon="9.92059000159087"><ele>1033.0</ele><time>2026-05-03T08:51:23.999Z</time></trkpt><trkpt lat="44.46991989854377" lon="9.920745993337624"><ele>1027.6666666666665</ele><time>2026-05-03T08:51:24.999Z</time></trkpt><trkpt lat="44.46984209450284" lon="9.920958082908383"><ele>1022.3333333333333</ele><time>2026-05-03T08:51:25.999Z</time></trkpt><trkpt lat="44.469777250858684" lon="9.921181678525135"><ele>1017.0</ele><time>2026-05-03T08:51:26.999Z</time></trkpt><trkpt lat="44.46971014538637" lon="9.921406217172933"><ele>1017.0</ele><time>2026-05-03T08:51:27.999Z</time></trkpt><trkpt lat="44.46963427657717" lon="9.921629652809685"><ele>1017.0</ele><time>2026-05-03T08:51:28.999Z</time></trkpt><trkpt lat="44.469556989217466" lon="9.921854320026648"><ele>1017.0</ele><time>2026-05-03T08:51:29.999Z</time></trkpt><trkpt lat="44.469490512394096" lon="9.922045317502056"><ele>1017.5</ele><time>2026-05-03T08:51:30.999Z</time></trkpt><trkpt lat="44.46943216336267" lon="9.922226412335045"><ele>1018.0</ele><time>2026-05-03T08:51:31.999Z</time></trkpt><trkpt lat="44.46939269044799" lon="9.922402288936327"><ele>1018.5</ele><time>2026-05-03T08:51:32.999Z</time></trkpt><trkpt lat="44.46932707169056" lon="9.922533827410454"><ele>1019.0</ele><time>2026-05-03T08:51:33.999Z</time></trkpt><trkpt lat="44.46922446399185" lon="9.922598378503837"><ele>1019.0</ele><time>2026-05-03T08:51:34.999Z</time></trkpt><trkpt lat="44.4690971928115" lon="9.922566747341872"><ele>1019.0</ele><time>2026-05-03T08:51:35.999Z</time></trkpt><trkpt lat="44.46898212112743" lon="9.922449771155856"><ele>1019.0</ele><time>2026-05-03T08:51:36.999Z</time></trkpt><trkpt lat="44.46888994351343" lon="9.922265577328583"><ele>1019.0</ele><time>2026-05-03T08:51:37.999Z</time></trkpt><trkpt lat="44.468774504465365" lon="9.922041445798413"><ele>1017.6666666666667</ele><time>2026-05-03T08:51:38.999Z</time></trkpt><trkpt lat="44.46865481145343" lon="9.921773794132163"><ele>1016.3333333333333</ele><time>2026-05-03T08:51:39.999Z</time></trkpt><trkpt lat="44.4685388480364" lon="9.921563263242431"><ele>1015.0</ele><time>2026-05-03T08:51:41Z</time></trkpt><trkpt lat="44.46841337591331" lon="9.92135224779815"><ele>1015.0</ele><time>2026-05-03T08:51:42Z</time></trkpt><trkpt lat="44.4682765582001" lon="9.921146636913132"><ele>1015.0</ele><time>2026-05-03T08:51:43Z</time></trkpt><trkpt lat="44.46812262178562" lon="9.92096193884043"><ele>1015.0</ele><time>2026-05-03T08:51:44Z</time></trkpt><trkpt lat="44.46796605703609" lon="9.920781833962568"><ele>1013.6666666666666</ele><time>2026-05-03T08:51:45Z</time></trkpt><trkpt lat="44.46782365997827" lon="9.920609521465622"><ele>1012.3333333333333</ele><time>2026-05-03T08:51:46Z</time></trkpt><trkpt lat="44.467684162705034" lon="9.920461890211117"><ele>1011.0</ele><time>2026-05-03T08:51:47Z</time></trkpt><trkpt lat="44.46752106341095" lon="9.920354029890065"><ele>1011.0</ele><time>2026-05-03T08:51:48Z</time></trkpt><trkpt lat="44.46732210622763" lon="9.92032642753407"><ele>1011.0</ele><time>2026-05-03T08:51:49Z</time></trkpt><trkpt lat="44.467121987315565" lon="9.920325353541777"><ele>1011.0</ele><time>2026-05-03T08:51:50Z</time></trkpt><trkpt lat="44.466913927181864" lon="9.92029951885536"><ele>1008.3333333333333</ele><time>2026-05-03T08:51:51Z</time></trkpt><trkpt lat="44.46670626824364" lon="9.920268015315369"><ele>1005.6666666666666</ele><time>2026-05-03T08:51:52Z</time></trkpt><trkpt lat="44.46650299276084" lon="9.920245873359221"><ele>1003.0</ele><time>2026-05-03T08:51:53Z</time></trkpt><trkpt lat="44.46631215139896" lon="9.920230082093132"><ele>1003.3333333333333</ele><time>2026-05-03T08:51:54Z</time></trkpt><trkpt lat="44.46611529582494" lon="9.920256365513389"><ele>1003.6666666666667</ele><time>2026-05-03T08:51:55Z</time></trkpt><trkpt lat="44.465917976580776" lon="9.920333599656919"><ele>1004.0</ele><time>2026-05-03T08:51:56Z</time></trkpt><trkpt lat="44.465721245063925" lon="9.920443605321973"><ele>1004.0</ele><time>2026-05-03T08:51:57Z</time></trkpt><trkpt lat="44.46552253811876" lon="9.92052490660915"><ele>1004.0</ele><time>2026-05-03T08:51:58Z</time></trkpt><trkpt lat="44.4653512881326" lon="9.920599789738763"><ele>1004.0</ele><time>2026-05-03T08:51:59Z</time></trkpt><trkpt lat="44.465193076128536" lon="9.920658605857133"><ele>1003.0</ele><time>2026-05-03T08:52:00Z</time></trkpt><trkpt lat="44.46506691806053" lon="9.920653738345232"><ele>1002.0</ele><time>2026-05-03T08:52:01Z</time></trkpt><trkpt lat="44.46492690612368" lon="9.92056266460923"><ele>1001.0</ele><time>2026-05-03T08:52:02Z</time></trkpt><trkpt lat="44.464762668559466" lon="9.920423532290242"><ele>1003.6666666666667</ele><time>2026-05-03T08:52:03Z</time></trkpt><trkpt lat="44.46458542664235" lon="9.920278190991542"><ele>1006.3333333333333</ele><time>2026-05-03T08:52:04Z</time></trkpt><trkpt lat="44.464406170614616" lon="9.920144170921157"><ele>1009.0</ele><time>2026-05-03T08:52:05Z</time></trkpt><trkpt lat="44.46423623433732" lon="9.920003199788216"><ele>1009.0</ele><time>2026-05-03T08:52:06Z</time></trkpt><trkpt lat="44.464047918531776" lon="9.919917743047634"><ele>1009.0</ele><time>2026-05-03T08:52:07Z</time></trkpt><trkpt lat="44.46387843181059" lon="9.919818763523434"><ele>1009.0</ele><time>2026-05-03T08:52:08Z</time></trkpt><trkpt lat="44.463728063086755" lon="9.919733887457593"><ele>1009.75</ele><time>2026-05-03T08:52:09Z</time></trkpt><trkpt lat="44.4636054558766" lon="9.91961466172966"><ele>1010.5</ele><time>2026-05-03T08:52:10Z</time></trkpt><trkpt lat="44.46351438742628" lon="9.919470132839288"><ele>1011.25</ele><time>2026-05-03T08:52:11Z</time></trkpt><trkpt lat="44.46343395385006" lon="9.919300682757454"><ele>1012.0</ele><time>2026-05-03T08:52:12Z</time></trkpt><trkpt lat="44.463332877390584" lon="9.919172679259004"><ele>1012.0</ele><time>2026-05-03T08:52:13Z</time></trkpt><trkpt lat="44.46321511436705" lon="9.91909008139001"><ele>1012.0</ele><time>2026-05-03T08:52:14Z</time></trkpt><trkpt lat="44.463069638906944" lon="9.919132063736578"><ele>1012.0</ele><time>2026-05-03T08:52:15Z</time></trkpt><trkpt lat="44.46293793069171" lon="9.91926289027117"><ele>1012.0</ele><time>2026-05-03T08:52:16Z</time></trkpt><trkpt lat="44.46283262851801" lon="9.919469070250443"><ele>1012.0</ele><time>2026-05-03T08:52:17Z</time></trkpt><trkpt lat="44.462700156312216" lon="9.91969430798207"><ele>1012.0</ele><time>2026-05-03T08:52:18Z</time></trkpt><trkpt lat="44.462574272775036" lon="9.919905866260162"><ele>1012.0</ele><time>2026-05-03T08:52:19Z</time></trkpt><trkpt lat="44.46248222660258" lon="9.920120466063437"><ele>1008.6666666666666</ele><time>2026-05-03T08:52:20Z</time></trkpt><trkpt lat="44.46241974198688" lon="9.92036613810197"><ele>1005.3333333333333</ele><time>2026-05-03T08:52:21Z</time></trkpt><trkpt lat="44.46239794631496" lon="9.920637744352545"><ele>1002.0</ele><time>2026-05-03T08:52:22Z</time></trkpt><trkpt lat="44.46238254365066" lon="9.920913427892277"><ele>998.0</ele><time>2026-05-03T08:52:23Z</time></trkpt><trkpt lat="44.46235861764659" lon="9.92115532022315"><ele>994.0</ele><time>2026-05-03T08:52:24Z</time></trkpt><trkpt lat="44.46230609350079" lon="9.921366654209576"><ele>990.0</ele><time>2026-05-03T08:52:25Z</time></trkpt><trkpt lat="44.46226049068652" lon="9.921537729231103"><ele>990.0</ele><time>2026-05-03T08:52:26Z</time></trkpt><trkpt lat="44.46217814885442" lon="9.921637062239888"><ele>990.0</ele><time>2026-05-03T08:52:27Z</time></trkpt><trkpt lat="44.462062878270594" lon="9.921694545767359"><ele>990.0</ele><time>2026-05-03T08:52:28Z</time></trkpt><trkpt lat="44.461933871543664" lon="9.921560718991731"><ele>990.0</ele><time>2026-05-03T08:52:29Z</time></trkpt><trkpt lat="44.46180187732137" lon="9.92143214736244"><ele>988.0</ele><time>2026-05-03T08:52:30Z</time></trkpt><trkpt lat="44.4616403588543" lon="9.921291763826973"><ele>986.0</ele><time>2026-05-03T08:52:31Z</time></trkpt><trkpt lat="44.46149300624293" lon="9.9211337914689"><ele>984.0</ele><time>2026-05-03T08:52:32Z</time></trkpt><trkpt lat="44.46135421606766" lon="9.920973681769535"><ele>987.0</ele><time>2026-05-03T08:52:33Z</time></trkpt><trkpt lat="44.46120605190857" lon="9.920825738804286"><ele>990.0</ele><time>2026-05-03T08:52:34Z</time></trkpt><trkpt lat="44.46106417968011" lon="9.920700123335834"><ele>993.0</ele><time>2026-05-03T08:52:35Z</time></trkpt><trkpt lat="44.46087775959151" lon="9.920643695743152"><ele>993.0</ele><time>2026-05-03T08:52:36Z</time></trkpt><trkpt lat="44.46066905791953" lon="9.9206269054839"><ele>993.0</ele><time>2026-05-03T08:52:37Z</time></trkpt><trkpt lat="44.46047586660911" lon="9.920590691072984"><ele>993.0</ele><time>2026-05-03T08:52:38Z</time></trkpt><trkpt lat="44.46030721666626" lon="9.92057686559049"><ele>995.0</ele><time>2026-05-03T08:52:39Z</time></trkpt><trkpt lat="44.460147032619965" lon="9.920654952293475"><ele>997.0</ele><time>2026-05-03T08:52:40Z</time></trkpt><trkpt lat="44.46001277627923" lon="9.920845652132563"><ele>999.0</ele><time>2026-05-03T08:52:41Z</time></trkpt><trkpt lat="44.45986249981518" lon="9.9209721405465"><ele>990.3333333333333</ele><time>2026-05-03T08:52:42Z</time></trkpt><trkpt lat="44.45967470466404" lon="9.921059566418055"><ele>981.6666666666666</ele><time>2026-05-03T08:52:43Z</time></trkpt><trkpt lat="44.45947444323307" lon="9.921126881021051"><ele>973.0</ele><time>2026-05-03T08:52:44Z</time></trkpt><trkpt lat="44.45933797561697" lon="9.921112284546469"><ele>973.0</ele><time>2026-05-03T08:52:45Z</time></trkpt><trkpt lat="44.45925365014084" lon="9.920962502897737"><ele>973.0</ele><time>2026-05-03T08:52:46Z</time></trkpt><trkpt lat="44.4591785020214" lon="9.920779299741838"><ele>973.0</ele><time>2026-05-03T08:52:47Z</time></trkpt><trkpt lat="44.459060980881" lon="9.920551369204885"><ele>976.6666666666666</ele><time>2026-05-03T08:52:47.999Z</time></trkpt><trkpt lat="44.45894949854686" lon="9.920308422253143"><ele>980.3333333333333</ele><time>2026-05-03T08:52:48.999Z</time></trkpt><trkpt lat="44.45881958283749" lon="9.920089056053097"><ele>984.0</ele><time>2026-05-03T08:52:49.999Z</time></trkpt><trkpt lat="44.45868733198909" lon="9.919881378727077"><ele>984.0</ele><time>2026-05-03T08:52:50.999Z</time></trkpt><trkpt lat="44.45857132293141" lon="9.919705669519898"><ele>984.0</ele><time>2026-05-03T08:52:51.999Z</time></trkpt><trkpt lat="44.458463221607445" lon="9.919601565834153"><ele>984.0</ele><time>2026-05-03T08:52:52.999Z</time></trkpt><trkpt lat="44.458324055806685" lon="9.919608225787318"><ele>984.0</ele><time>2026-05-03T08:52:53.999Z</time></trkpt><trkpt lat="44.45820818762802" lon="9.919712270286942"><ele>984.0</ele><time>2026-05-03T08:52:54.999Z</time></trkpt><trkpt lat="44.458050430158444" lon="9.919828627354097"><ele>984.0</ele><time>2026-05-03T08:52:55.999Z</time></trkpt><trkpt lat="44.45790542363827" lon="9.919862433317029"><ele>984.0</ele><time>2026-05-03T08:52:56.999Z</time></trkpt><trkpt lat="44.45777504572955" lon="9.919795420774788"><ele>980.6666666666667</ele><time>2026-05-03T08:52:57.999Z</time></trkpt><trkpt lat="44.45768348138158" lon="9.919607832819604"><ele>977.3333333333334</ele><time>2026-05-03T08:52:58.999Z</time></trkpt><trkpt lat="44.457575984003704" lon="9.919419692937"><ele>974.0</ele><time>2026-05-03T08:52:59.999Z</time></trkpt><trkpt lat="44.457424940080145" lon="9.91926887524004"><ele>977.6666666666667</ele><time>2026-05-03T08:53:00.999Z</time></trkpt><trkpt lat="44.45723554170133" lon="9.919161134014654"><ele>981.3333333333333</ele><time>2026-05-03T08:53:01.999Z</time></trkpt><trkpt lat="44.45701291368311" lon="9.919123180768484"><ele>985.0</ele><time>2026-05-03T08:53:02.999Z</time></trkpt><trkpt lat="44.456827429938535" lon="9.919042028290104"><ele>985.0</ele><time>2026-05-03T08:53:03.999Z</time></trkpt><trkpt lat="44.45664910239156" lon="9.918966848300428"><ele>985.0</ele><time>2026-05-03T08:53:04.999Z</time></trkpt><trkpt lat="44.45645228835837" lon="9.918961895226538"><ele>985.0</ele><time>2026-05-03T08:53:05.999Z</time></trkpt><trkpt lat="44.45623115923476" lon="9.918982933434117"><ele>984.3333333333333</ele><time>2026-05-03T08:53:06.999Z</time></trkpt><trkpt lat="44.45601605860904" lon="9.91904503691395"><ele>983.6666666666667</ele><time>2026-05-03T08:53:07.999Z</time></trkpt><trkpt lat="44.45582269329792" lon="9.919146721196363"><ele>983.0</ele><time>2026-05-03T08:53:08.999Z</time></trkpt><trkpt lat="44.455677504802615" lon="9.919208750558806"><ele>983.0</ele><time>2026-05-03T08:53:09.999Z</time></trkpt><trkpt lat="44.455580384477635" lon="9.919216219796764"><ele>983.0</ele><time>2026-05-03T08:53:10.999Z</time></trkpt><trkpt lat="44.45551085649993" lon="9.919134552401474"><ele>983.0</ele><time>2026-05-03T08:53:11.999Z</time></trkpt><trkpt lat="44.455412910842625" lon="9.918972849443923"><ele>983.0</ele><time>2026-05-03T08:53:12.999Z</time></trkpt><trkpt lat="44.455285820033616" lon="9.91877062649053"><ele>986.3333333333334</ele><time>2026-05-03T08:53:13.999Z</time></trkpt><trkpt lat="44.45516443810081" lon="9.918553494297615"><ele>989.6666666666667</ele><time>2026-05-03T08:53:14.999Z</time></trkpt><trkpt lat="44.4550045798753" lon="9.918328717109755"><ele>993.0</ele><time>2026-05-03T08:53:15.999Z</time></trkpt><trkpt lat="44.454784167261984" lon="9.918148249336427"><ele>982.0</ele><time>2026-05-03T08:53:16.999Z</time></trkpt><trkpt lat="44.45454876302098" lon="9.918016103811892"><ele>971.0</ele><time>2026-05-03T08:53:17.999Z</time></trkpt><trkpt lat="44.45433718412707" lon="9.917873414179812"><ele>971.0</ele><time>2026-05-03T08:53:18.999Z</time></trkpt><trkpt lat="44.454133178156354" lon="9.917791966254326"><ele>971.0</ele><time>2026-05-03T08:53:19.999Z</time></trkpt><trkpt lat="44.453931417662034" lon="9.917778252832603"><ele>971.0</ele><time>2026-05-03T08:53:20.999Z</time></trkpt><trkpt lat="44.45371848542472" lon="9.917782831326294"><ele>973.0</ele><time>2026-05-03T08:53:21.999Z</time></trkpt><trkpt lat="44.45350589231474" lon="9.917820752627025"><ele>975.0</ele><time>2026-05-03T08:53:22.999Z</time></trkpt><trkpt lat="44.45329913625229" lon="9.917912003601412"><ele>977.0</ele><time>2026-05-03T08:53:23.999Z</time></trkpt><trkpt lat="44.453124486362825" lon="9.918063934971848"><ele>977.0</ele><time>2026-05-03T08:53:24.999Z</time></trkpt><trkpt lat="44.45301187493833" lon="9.918279004901038"><ele>977.0</ele><time>2026-05-03T08:53:25.999Z</time></trkpt><trkpt lat="44.45287360025552" lon="9.91848576040094"><ele>977.0</ele><time>2026-05-03T08:53:26.999Z</time></trkpt><trkpt lat="44.4527351901403" lon="9.918620443440563"><ele>975.6666666666667</ele><time>2026-05-03T08:53:27.999Z</time></trkpt><trkpt lat="44.45257767273394" lon="9.9187368799491"><ele>974.3333333333333</ele><time>2026-05-03T08:53:28.999Z</time></trkpt><trkpt lat="44.45241819988943" lon="9.918828974982999"><ele>973.0</ele><time>2026-05-03T08:53:29.999Z</time></trkpt><trkpt lat="44.45224968711738" lon="9.918870938481795"><ele>972.6666666666666</ele><time>2026-05-03T08:53:30.999Z</time></trkpt><trkpt lat="44.4520518956881" lon="9.91887331601818"><ele>972.3333333333333</ele><time>2026-05-03T08:53:31.999Z</time></trkpt><trkpt lat="44.45186194539564" lon="9.91892405656273"><ele>972.0</ele><time>2026-05-03T08:53:32.999Z</time></trkpt><trkpt lat="44.45167781500313" lon="9.919005360045265"><ele>972.0</ele><time>2026-05-03T08:53:33.999Z</time></trkpt><trkpt lat="44.45149638075858" lon="9.919138017936252"><ele>972.0</ele><time>2026-05-03T08:53:34.999Z</time></trkpt><trkpt lat="44.45133651808355" lon="9.919298225482256"><ele>972.0</ele><time>2026-05-03T08:53:35.999Z</time></trkpt><trkpt lat="44.45119443925865" lon="9.919499379280763"><ele>971.25</ele><time>2026-05-03T08:53:36.999Z</time></trkpt><trkpt lat="44.451068881944295" lon="9.919666888964223"><ele>970.5</ele><time>2026-05-03T08:53:37.999Z</time></trkpt><trkpt lat="44.45097112227356" lon="9.919797994794507"><ele>969.75</ele><time>2026-05-03T08:53:38.999Z</time></trkpt><trkpt lat="44.450888588495744" lon="9.919877625450695"><ele>969.0</ele><time>2026-05-03T08:53:39.999Z</time></trkpt><trkpt lat="44.450769264982064" lon="9.919808987212708"><ele>969.0</ele><time>2026-05-03T08:53:41.999Z</time></trkpt><trkpt lat="44.45075367369658" lon="9.919632061858596"><ele>969.0</ele><time>2026-05-03T08:53:42.999Z</time></trkpt><trkpt lat="44.45082570860868" lon="9.919469399397492"><ele>969.0</ele><time>2026-05-03T08:53:43.999Z</time></trkpt><trkpt lat="44.45096986285531" lon="9.919338658747092"><ele>969.0</ele><time>2026-05-03T08:53:44.999Z</time></trkpt><trkpt lat="44.45114077562996" lon="9.919202692464545"><ele>970.5</ele><time>2026-05-03T08:53:45.999Z</time></trkpt><trkpt lat="44.451318313604645" lon="9.919034943766368"><ele>972.0</ele><time>2026-05-03T08:53:47Z</time></trkpt><trkpt lat="44.45152430797285" lon="9.91879922836286"><ele>972.0</ele><time>2026-05-03T08:53:48Z</time></trkpt><trkpt lat="44.45157222818083" lon="9.918680344385772"><ele>972.0</ele><time>2026-05-03T08:53:49Z</time></trkpt><trkpt lat="44.45171073841682" lon="9.918490164236639"><ele>972.0</ele><time>2026-05-03T08:53:50Z</time></trkpt><trkpt lat="44.45184182050596" lon="9.918302165910642"><ele>966.3333333333333</ele><time>2026-05-03T08:53:51Z</time></trkpt><trkpt lat="44.451943228551016" lon="9.918063922054692"><ele>960.6666666666666</ele><time>2026-05-03T08:53:52Z</time></trkpt><trkpt lat="44.4520185915224" lon="9.917788629870717"><ele>955.0</ele><time>2026-05-03T08:53:53Z</time></trkpt><trkpt lat="44.45205799181822" lon="9.917521248199098"><ele>952.0</ele><time>2026-05-03T08:53:54Z</time></trkpt><trkpt lat="44.452074633617094" lon="9.917273713689204"><ele>949.0</ele><time>2026-05-03T08:53:55Z</time></trkpt><trkpt lat="44.452150845879395" lon="9.917072997305956"><ele>946.0</ele><time>2026-05-03T08:53:56Z</time></trkpt><trkpt lat="44.4522744141017" lon="9.916866063065182"><ele>947.3333333333333</ele><time>2026-05-03T08:53:57Z</time></trkpt><trkpt lat="44.45241418747146" lon="9.916633547258192"><ele>948.6666666666667</ele><time>2026-05-03T08:53:58Z</time></trkpt><trkpt lat="44.45254265874051" lon="9.916384398125912"><ele>950.0</ele><time>2026-05-03T08:53:59Z</time></trkpt><trkpt lat="44.45267357874344" lon="9.91617200967083"><ele>950.0</ele><time>2026-05-03T08:54:00Z</time></trkpt><trkpt lat="44.45280015205279" lon="9.915981001995826"><ele>950.0</ele><time>2026-05-03T08:54:01Z</time></trkpt><trkpt lat="44.45290564527587" lon="9.915816321075958"><ele>950.0</ele><time>2026-05-03T08:54:02Z</time></trkpt><trkpt lat="44.452986911522004" lon="9.915672727373916"><ele>951.0000000000001</ele><time>2026-05-03T08:54:03Z</time></trkpt><trkpt lat="44.453055386132476" lon="9.915577855555759"><ele>952.0</ele><time>2026-05-03T08:54:04Z</time></trkpt><trkpt lat="44.45310272686737" lon="9.91551529040659"><ele>953.0</ele><time>2026-05-03T08:54:05Z</time></trkpt><trkpt lat="44.45314872141447" lon="9.915442856559716"><ele>954.0</ele><time>2026-05-03T08:54:07Z</time></trkpt><trkpt lat="44.45319703907349" lon="9.915305097816075"><ele>955.0000000000001</ele><time>2026-05-03T08:55:18.999Z</time></trkpt><trkpt lat="44.453262782561424" lon="9.915194567058599"><ele>956.0</ele><time>2026-05-03T08:55:19.999Z</time></trkpt><trkpt lat="44.45333614435763" lon="9.915079622943678"><ele>952.25</ele><time>2026-05-03T08:55:20.999Z</time></trkpt><trkpt lat="44.45342601884605" lon="9.914914337399379"><ele>948.5</ele><time>2026-05-03T08:55:21.999Z</time></trkpt><trkpt lat="44.45349605980368" lon="9.914752993333837"><ele>944.75</ele><time>2026-05-03T08:55:22.999Z</time></trkpt><trkpt lat="44.453533906600114" lon="9.914547068238077"><ele>941.0</ele><time>2026-05-03T08:55:23.999Z</time></trkpt><trkpt lat="44.453560572800676" lon="9.914304344951905"><ele>937.6666666666667</ele><time>2026-05-03T08:55:24.999Z</time></trkpt><trkpt lat="44.45356823175189" lon="9.914056534074671"><ele>934.3333333333333</ele><time>2026-05-03T08:55:25.999Z</time></trkpt><trkpt lat="44.45356254285193" lon="9.913786965999535"><ele>931.0</ele><time>2026-05-03T08:55:26.999Z</time></trkpt><trkpt lat="44.4535800730795" lon="9.913521394190308"><ele>929.0</ele><time>2026-05-03T08:55:27.999Z</time></trkpt><trkpt lat="44.453579678675396" lon="9.913265793560893"><ele>927.0</ele><time>2026-05-03T08:55:28.999Z</time></trkpt><trkpt lat="44.45359060312189" lon="9.913024772573355"><ele>925.0</ele><time>2026-05-03T08:55:29.999Z</time></trkpt><trkpt lat="44.45358201575739" lon="9.912786692660484"><ele>924.3333333333333</ele><time>2026-05-03T08:55:30.999Z</time></trkpt><trkpt lat="44.45352124512008" lon="9.912550579957282"><ele>923.6666666666667</ele><time>2026-05-03T08:55:31.999Z</time></trkpt><trkpt lat="44.45343239646602" lon="9.912313785718812"><ele>923.0</ele><time>2026-05-03T08:55:32.999Z</time></trkpt><trkpt lat="44.45334630967699" lon="9.912077609376537"><ele>923.0</ele><time>2026-05-03T08:55:33.999Z</time></trkpt><trkpt lat="44.45327306399308" lon="9.911838548083477"><ele>923.0</ele><time>2026-05-03T08:55:34.999Z</time></trkpt><trkpt lat="44.453195835627675" lon="9.91159056099903"><ele>923.0</ele><time>2026-05-03T08:55:35.999Z</time></trkpt><trkpt lat="44.453097042784215" lon="9.911343782598184"><ele>924.6666666666667</ele><time>2026-05-03T08:55:36.999Z</time></trkpt><trkpt lat="44.45298414460344" lon="9.911107173552056"><ele>926.3333333333333</ele><time>2026-05-03T08:55:37.999Z</time></trkpt><trkpt lat="44.45286404687844" lon="9.91088431708623"><ele>928.0</ele><time>2026-05-03T08:55:38.999Z</time></trkpt><trkpt lat="44.45275398550892" lon="9.910679657432766"><ele>920.6666666666666</ele><time>2026-05-03T08:55:39.999Z</time></trkpt><trkpt lat="44.452646189346005" lon="9.91049022551568"><ele>913.3333333333333</ele><time>2026-05-03T08:55:40.999Z</time></trkpt><trkpt lat="44.45253268778852" lon="9.910314829111597"><ele>906.0</ele><time>2026-05-03T08:55:41.999Z</time></trkpt><trkpt lat="44.452418491711526" lon="9.910159087732499"><ele>907.25</ele><time>2026-05-03T08:55:42.999Z</time></trkpt><trkpt lat="44.45232257792257" lon="9.91000486820779"><ele>908.5</ele><time>2026-05-03T08:55:43.999Z</time></trkpt><trkpt lat="44.45230077505277" lon="9.909828116961792"><ele>909.75</ele><time>2026-05-03T08:55:44.999Z</time></trkpt><trkpt lat="44.45232722926397" lon="9.909605673208905"><ele>911.0</ele><time>2026-05-03T08:55:45.999Z</time></trkpt><trkpt lat="44.45238072331855" lon="9.909426957237205"><ele>911.0</ele><time>2026-05-03T08:55:46.999Z</time></trkpt><trkpt lat="44.45246625321847" lon="9.909271342282384"><ele>911.0</ele><time>2026-05-03T08:55:47.999Z</time></trkpt><trkpt lat="44.452497913690195" lon="9.909083042593855"><ele>911.0</ele><time>2026-05-03T08:55:48.999Z</time></trkpt><trkpt lat="44.45244486688542" lon="9.908858345354512"><ele>911.0</ele><time>2026-05-03T08:55:49.999Z</time></trkpt><trkpt lat="44.452314842415014" lon="9.908626118049094"><ele>907.5</ele><time>2026-05-03T08:55:50.999Z</time></trkpt><trkpt lat="44.45214974660977" lon="9.908360929841605"><ele>904.0</ele><time>2026-05-03T08:55:51.999Z</time></trkpt><trkpt lat="44.45204117036218" lon="9.908035617362318"><ele>899.6666666666666</ele><time>2026-05-03T08:55:53Z</time></trkpt><trkpt lat="44.45193283634107" lon="9.908007005080313"><ele>895.3333333333333</ele><time>2026-05-03T08:55:54Z</time></trkpt><trkpt lat="44.451804656179206" lon="9.907843445884177"><ele>891.0</ele><time>2026-05-03T08:55:55Z</time></trkpt><trkpt lat="44.4516373215066" lon="9.90777277850814"><ele>891.0</ele><time>2026-05-03T08:55:56Z</time></trkpt><trkpt lat="44.45145172741696" lon="9.907821044586337"><ele>891.0</ele><time>2026-05-03T08:55:57Z</time></trkpt><trkpt lat="44.45126667556552" lon="9.907966889958995"><ele>891.0</ele><time>2026-05-03T08:55:58Z</time></trkpt><trkpt lat="44.45107049425767" lon="9.908136707983488"><ele>889.3333333333333</ele><time>2026-05-03T08:55:59Z</time></trkpt><trkpt lat="44.450863386188466" lon="9.908274204333498"><ele>887.6666666666666</ele><time>2026-05-03T08:56:00Z</time></trkpt><trkpt lat="44.45067255391178" lon="9.908398207914365"><ele>886.0</ele><time>2026-05-03T08:56:01Z</time></trkpt><trkpt lat="44.45050178609314" lon="9.908534975622965"><ele>879.6666666666666</ele><time>2026-05-03T08:56:02Z</time></trkpt><trkpt lat="44.450365501270596" lon="9.908705007246384"><ele>873.3333333333333</ele><time>2026-05-03T08:56:03Z</time></trkpt><trkpt lat="44.45026930117453" lon="9.908916526349826"><ele>867.0</ele><time>2026-05-03T08:56:04Z</time></trkpt><trkpt lat="44.45017009405019" lon="9.909049772326638"><ele>867.0</ele><time>2026-05-03T08:56:05Z</time></trkpt><trkpt lat="44.45004546650897" lon="9.909024374505702"><ele>867.0</ele><time>2026-05-03T08:56:06Z</time></trkpt><trkpt lat="44.44988237472454" lon="9.908993815467912"><ele>867.0</ele><time>2026-05-03T08:56:07Z</time></trkpt><trkpt lat="44.44966342002854" lon="9.908951347547724"><ele>863.0</ele><time>2026-05-03T08:56:08Z</time></trkpt><trkpt lat="44.44945602935281" lon="9.908915324953695"><ele>859.0</ele><time>2026-05-03T08:56:09Z</time></trkpt><trkpt lat="44.44928328038282" lon="9.908876429463641"><ele>855.0</ele><time>2026-05-03T08:56:10Z</time></trkpt><trkpt lat="44.44917635550307" lon="9.90880931779136"><ele>855.0</ele><time>2026-05-03T08:56:11Z</time></trkpt><trkpt lat="44.449154616468746" lon="9.908689488593646"><ele>855.0</ele><time>2026-05-03T08:56:12Z</time></trkpt><trkpt lat="44.449136969839344" lon="9.908523541029005"><ele>855.0</ele><time>2026-05-03T08:56:13Z</time></trkpt><trkpt lat="44.449155950188604" lon="9.908323620356526"><ele>855.0</ele><time>2026-05-03T08:56:14Z</time></trkpt><trkpt lat="44.44925254953924" lon="9.908189201438265"><ele>857.6666666666667</ele><time>2026-05-03T08:56:15Z</time></trkpt><trkpt lat="44.449404957483516" lon="9.908102843580497"><ele>860.3333333333334</ele><time>2026-05-03T08:56:16Z</time></trkpt><trkpt lat="44.44952386620251" lon="9.907925564323897"><ele>863.0</ele><time>2026-05-03T08:56:17Z</time></trkpt><trkpt lat="44.44961334450289" lon="9.907689199023777"><ele>861.6666666666667</ele><time>2026-05-03T08:56:18Z</time></trkpt><trkpt lat="44.44964731319659" lon="9.907429476013489"><ele>860.3333333333333</ele><time>2026-05-03T08:56:19Z</time></trkpt><trkpt lat="44.44962733913388" lon="9.90723307571689"><ele>859.0</ele><time>2026-05-03T08:56:20Z</time></trkpt><trkpt lat="44.44955751964894" lon="9.907089518470418"><ele>859.0</ele><time>2026-05-03T08:56:21Z</time></trkpt><trkpt lat="44.44944174249212" lon="9.907009392161102"><ele>859.0</ele><time>2026-05-03T08:56:22Z</time></trkpt><trkpt lat="44.44929089960409" lon="9.907046157986104"><ele>859.0</ele><time>2026-05-03T08:56:23Z</time></trkpt><trkpt lat="44.4491525459481" lon="9.907208116230505"><ele>859.0</ele><time>2026-05-03T08:56:24Z</time></trkpt><trkpt lat="44.449017628772665" lon="9.907395939845223"><ele>859.0</ele><time>2026-05-03T08:56:25Z</time></trkpt><trkpt lat="44.448900644944814" lon="9.90748999593721"><ele>859.0</ele><time>2026-05-03T08:56:26Z</time></trkpt><trkpt lat="44.44883613316208" lon="9.907530193747629"><ele>859.0</ele><time>2026-05-03T08:56:27Z</time></trkpt><trkpt lat="44.448806744335" lon="9.907403425005839"><ele>859.0</ele><time>2026-05-03T08:56:28Z</time></trkpt><trkpt lat="44.448814826219376" lon="9.907275998708148"><ele>859.0</ele><time>2026-05-03T08:56:29Z</time></trkpt><trkpt lat="44.44893956173319" lon="9.907150325642988"><ele>859.0</ele><time>2026-05-03T08:56:30Z</time></trkpt><trkpt lat="44.44906649308363" lon="9.906938540663914"><ele>859.0</ele><time>2026-05-03T08:56:31Z</time></trkpt><trkpt lat="44.44920719829446" lon="9.906801026528099"><ele>859.0</ele><time>2026-05-03T08:56:32Z</time></trkpt><trkpt lat="44.44934478204099" lon="9.906704753824718"><ele>859.0</ele><time>2026-05-03T08:56:33Z</time></trkpt><trkpt lat="44.44948348089114" lon="9.906614732746647"><ele>859.0</ele><time>2026-05-03T08:56:34Z</time></trkpt><trkpt lat="44.4496074047767" lon="9.906552338046971"><ele>859.0</ele><time>2026-05-03T08:56:35Z</time></trkpt><trkpt lat="44.44967330321546" lon="9.90648817556078"><ele>859.0</ele><time>2026-05-03T08:56:36Z</time></trkpt><trkpt lat="44.44966907080734" lon="9.906377056451248"><ele>859.0</ele><time>2026-05-03T08:56:37Z</time></trkpt><trkpt lat="44.4496299635659" lon="9.906274666695197"><ele>859.0</ele><time>2026-05-03T08:56:38Z</time></trkpt><trkpt lat="44.44947889025261" lon="9.906263833575252"><ele>859.0</ele><time>2026-05-03T08:56:39Z</time></trkpt><trkpt lat="44.44934036550152" lon="9.906354990387362"><ele>855.0</ele><time>2026-05-03T08:56:40Z</time></trkpt><trkpt lat="44.4491790094723" lon="9.906472302101564"><ele>851.0</ele><time>2026-05-03T08:56:41Z</time></trkpt><trkpt lat="44.44904365126728" lon="9.9065243966125"><ele>847.0</ele><time>2026-05-03T08:56:42Z</time></trkpt><trkpt lat="44.44886901138215" lon="9.9066640382545"><ele>844.6666666666666</ele><time>2026-05-03T08:56:43Z</time></trkpt><trkpt lat="44.44871342395154" lon="9.906773797800644"><ele>842.3333333333333</ele><time>2026-05-03T08:56:44Z</time></trkpt><trkpt lat="44.44856835420816" lon="9.906902339308965"><ele>840.0</ele><time>2026-05-03T08:56:45Z</time></trkpt><trkpt lat="44.44843910240919" lon="9.907072229303251"><ele>840.0</ele><time>2026-05-03T08:56:46Z</time></trkpt><trkpt lat="44.448320013167454" lon="9.907228460344793"><ele>840.0</ele><time>2026-05-03T08:56:47Z</time></trkpt><trkpt lat="44.44822081493322" lon="9.907385609967195"><ele>840.0</ele><time>2026-05-03T08:56:48Z</time></trkpt><trkpt lat="44.44815900960972" lon="9.907572294078992"><ele>840.0</ele><time>2026-05-03T08:56:49Z</time></trkpt><trkpt lat="44.448100045594984" lon="9.90775838757577"><ele>840.0</ele><time>2026-05-03T08:56:50Z</time></trkpt><trkpt lat="44.448031592563936" lon="9.907916932420664"><ele>840.0</ele><time>2026-05-03T08:56:51Z</time></trkpt><trkpt lat="44.44794578452713" lon="9.908054291504074"><ele>840.0</ele><time>2026-05-03T08:56:52Z</time></trkpt><trkpt lat="44.44781977289086" lon="9.90816477692772"><ele>836.6666666666667</ele><time>2026-05-03T08:56:53Z</time></trkpt><trkpt lat="44.44767619165171" lon="9.908289918392862"><ele>833.3333333333334</ele><time>2026-05-03T08:56:54Z</time></trkpt><trkpt lat="44.447546035277284" lon="9.908426588990253"><ele>830.0</ele><time>2026-05-03T08:56:55Z</time></trkpt><trkpt lat="44.44741676592317" lon="9.908513475887249"><ele>827.75</ele><time>2026-05-03T08:56:56Z</time></trkpt><trkpt lat="44.447294971003075" lon="9.90859980941442"><ele>825.5</ele><time>2026-05-03T08:56:57Z</time></trkpt><trkpt lat="44.44718006849766" lon="9.908672952911246"><ele>823.25</ele><time>2026-05-03T08:56:58Z</time></trkpt><trkpt lat="44.447060736099914" lon="9.908741623905255"><ele>821.0</ele><time>2026-05-03T08:56:59Z</time></trkpt><trkpt lat="44.44691951175302" lon="9.908783870662065"><ele>819.0</ele><time>2026-05-03T08:57:00Z</time></trkpt><trkpt lat="44.44684002081948" lon="9.908761927932117"><ele>817.0</ele><time>2026-05-03T08:57:01Z</time></trkpt><trkpt lat="44.446714630354464" lon="9.908703776017733"><ele>815.0</ele><time>2026-05-03T08:57:02Z</time></trkpt><trkpt lat="44.44655936886259" lon="9.908643723864843"><ele>813.0</ele><time>2026-05-03T08:57:03Z</time></trkpt><trkpt lat="44.44640823167538" lon="9.908592977719676"><ele>810.3333333333333</ele><time>2026-05-03T08:57:04Z</time></trkpt><trkpt lat="44.44626057320963" lon="9.908631052732696"><ele>807.6666666666666</ele><time>2026-05-03T08:57:04.999Z</time></trkpt><trkpt lat="44.446122774965716" lon="9.908758164595616"><ele>805.0</ele><time>2026-05-03T08:57:05.999Z</time></trkpt><trkpt lat="44.445993171441195" lon="9.908874386696516"><ele>805.0</ele><time>2026-05-03T08:57:06.999Z</time></trkpt><trkpt lat="44.445851146640116" lon="9.908829456042803"><ele>805.0</ele><time>2026-05-03T08:57:07.999Z</time></trkpt><trkpt lat="44.445687467999306" lon="9.908812728755468"><ele>805.0</ele><time>2026-05-03T08:57:08.999Z</time></trkpt><trkpt lat="44.4455567189425" lon="9.908784896103947"><ele>805.0</ele><time>2026-05-03T08:57:09.999Z</time></trkpt><trkpt lat="44.4454583046043" lon="9.908732754286985"><ele>802.0</ele><time>2026-05-03T08:57:10.999Z</time></trkpt><trkpt lat="44.4454082014466" lon="9.908560436828381"><ele>799.0</ele><time>2026-05-03T08:57:11.999Z</time></trkpt><trkpt lat="44.44541771298481" lon="9.90834500450299"><ele>796.0</ele><time>2026-05-03T08:57:12.999Z</time></trkpt><trkpt lat="44.44543916457247" lon="9.908125988053772"><ele>793.0</ele><time>2026-05-03T08:57:13.999Z</time></trkpt><trkpt lat="44.44545268766094" lon="9.907879737313216"><ele>793.0</ele><time>2026-05-03T08:57:14.999Z</time></trkpt><trkpt lat="44.44546114747841" lon="9.907637551336526"><ele>793.0</ele><time>2026-05-03T08:57:15.999Z</time></trkpt><trkpt lat="44.445462142387974" lon="9.907385371620421"><ele>793.0</ele><time>2026-05-03T08:57:16.999Z</time></trkpt><trkpt lat="44.44545641096237" lon="9.907139001236713"><ele>793.75</ele><time>2026-05-03T08:57:17.999Z</time></trkpt><trkpt lat="44.44545804057738" lon="9.906931624656506"><ele>794.5</ele><time>2026-05-03T08:57:18.999Z</time></trkpt><trkpt lat="44.445478593583005" lon="9.906772990663594"><ele>795.25</ele><time>2026-05-03T08:57:19.999Z</time></trkpt><trkpt lat="44.445559124998546" lon="9.906676304830674"><ele>796.0</ele><time>2026-05-03T08:57:20.999Z</time></trkpt><trkpt lat="44.44570507782397" lon="9.906627362916398"><ele>796.0</ele><time>2026-05-03T08:57:21.999Z</time></trkpt><trkpt lat="44.445890339091655" lon="9.90664040603321"><ele>796.0</ele><time>2026-05-03T08:57:22.999Z</time></trkpt><trkpt lat="44.44608494102483" lon="9.906681741251221"><ele>796.0</ele><time>2026-05-03T08:57:23.999Z</time></trkpt><trkpt lat="44.446269026144684" lon="9.906704964237003"><ele>796.25</ele><time>2026-05-03T08:57:24.999Z</time></trkpt><trkpt lat="44.44642826257183" lon="9.906698088315283"><ele>796.5</ele><time>2026-05-03T08:57:25.999Z</time></trkpt><trkpt lat="44.44656747891496" lon="9.90670502552618"><ele>796.75</ele><time>2026-05-03T08:57:26.999Z</time></trkpt><trkpt lat="44.44667234991664" lon="9.906698033659108"><ele>797.0</ele><time>2026-05-03T08:57:27.999Z</time></trkpt><trkpt lat="44.446739145838144" lon="9.90665217129116"><ele>797.0</ele><time>2026-05-03T08:57:28.999Z</time></trkpt><trkpt lat="44.44677717441678" lon="9.906520308651903"><ele>797.0</ele><time>2026-05-03T08:57:29.999Z</time></trkpt><trkpt lat="44.446736256785876" lon="9.906378134029298"><ele>797.0</ele><time>2026-05-03T08:57:30.999Z</time></trkpt><trkpt lat="44.44662200890964" lon="9.90630820518718"><ele>797.0</ele><time>2026-05-03T08:57:31.999Z</time></trkpt><trkpt lat="44.446462143483394" lon="9.906292789156279"><ele>796.6666666666667</ele><time>2026-05-03T08:57:32.999Z</time></trkpt><trkpt lat="44.44628102366788" lon="9.906243801076215"><ele>796.3333333333333</ele><time>2026-05-03T08:57:33.999Z</time></trkpt><trkpt lat="44.44609313666289" lon="9.906189690706976"><ele>796.0</ele><time>2026-05-03T08:57:34.999Z</time></trkpt><trkpt lat="44.445909359157554" lon="9.906128696906558"><ele>796.0</ele><time>2026-05-03T08:57:35.999Z</time></trkpt><trkpt lat="44.44573774462596" lon="9.906073281589942"><ele>796.0</ele><time>2026-05-03T08:57:36.999Z</time></trkpt><trkpt lat="44.445566045195775" lon="9.906042681927811"><ele>796.0</ele><time>2026-05-03T08:57:37.999Z</time></trkpt><trkpt lat="44.44539113156104" lon="9.905986782939152"><ele>792.0</ele><time>2026-05-03T08:57:38.999Z</time></trkpt><trkpt lat="44.44521488683846" lon="9.905921927920884"><ele>788.0</ele><time>2026-05-03T08:57:39.999Z</time></trkpt><trkpt lat="44.4450570683964" lon="9.905800227533057"><ele>784.0</ele><time>2026-05-03T08:57:40.999Z</time></trkpt><trkpt lat="44.44490419300484" lon="9.905693769742191"><ele>781.5</ele><time>2026-05-03T08:57:41.999Z</time></trkpt><trkpt lat="44.44477200480338" lon="9.905602016975589"><ele>779.0</ele><time>2026-05-03T08:57:42.999Z</time></trkpt><trkpt lat="44.44465347356071" lon="9.90561025366804"><ele>776.5</ele><time>2026-05-03T08:57:43.999Z</time></trkpt><trkpt lat="44.444532807158396" lon="9.905699424667212"><ele>774.0</ele><time>2026-05-03T08:57:44.999Z</time></trkpt><trkpt lat="44.4444341413937" lon="9.905878212204822"><ele>767.6666666666666</ele><time>2026-05-03T08:57:45.999Z</time></trkpt><trkpt lat="44.44436996644056" lon="9.906118895752886"><ele>761.3333333333333</ele><time>2026-05-03T08:57:46.999Z</time></trkpt><trkpt lat="44.444330620957466" lon="9.906351368058752"><ele>755.0</ele><time>2026-05-03T08:57:47.999Z</time></trkpt><trkpt lat="44.44434676026211" lon="9.906564873311602"><ele>755.3333333333333</ele><time>2026-05-03T08:57:48.999Z</time></trkpt><trkpt lat="44.44441789881671" lon="9.906782639500712"><ele>755.6666666666666</ele><time>2026-05-03T08:57:49.999Z</time></trkpt><trkpt lat="44.444496872240734" lon="9.906995512993976"><ele>756.0</ele><time>2026-05-03T08:57:50.999Z</time></trkpt><trkpt lat="44.444480952053944" lon="9.907204073359184"><ele>756.0</ele><time>2026-05-03T08:57:51.999Z</time></trkpt><trkpt lat="44.44441629797354" lon="9.907403270593472"><ele>756.0</ele><time>2026-05-03T08:57:52.999Z</time></trkpt><trkpt lat="44.44431896096546" lon="9.907597934106354"><ele>756.0</ele><time>2026-05-03T08:57:53.999Z</time></trkpt><trkpt lat="44.444183046860005" lon="9.907797318089328"><ele>759.0</ele><time>2026-05-03T08:57:54.999Z</time></trkpt><trkpt lat="44.44408006945709" lon="9.907981579614244"><ele>762.0</ele><time>2026-05-03T08:57:55.999Z</time></trkpt><trkpt lat="44.44397243059007" lon="9.908143029026222"><ele>765.0</ele><time>2026-05-03T08:57:56.999Z</time></trkpt><trkpt lat="44.44389913917125" lon="9.908339891071869"><ele>764.0</ele><time>2026-05-03T08:57:57.999Z</time></trkpt><trkpt lat="44.44386520763785" lon="9.908589087776102"><ele>763.0</ele><time>2026-05-03T08:57:59Z</time></trkpt><trkpt lat="44.44382372552113" lon="9.908825670826985"><ele>762.0</ele><time>2026-05-03T08:58:00Z</time></trkpt><trkpt lat="44.443768477472446" lon="9.909035081533876"><ele>759.5</ele><time>2026-05-03T08:58:01Z</time></trkpt><trkpt lat="44.44368865168148" lon="9.909203399693892"><ele>757.0</ele><time>2026-05-03T08:58:02Z</time></trkpt><trkpt lat="44.44360669850502" lon="9.909356417141243"><ele>754.5</ele><time>2026-05-03T08:58:03Z</time></trkpt><trkpt lat="44.443518155011766" lon="9.909499333832443"><ele>752.0</ele><time>2026-05-03T08:58:04Z</time></trkpt><trkpt lat="44.44340621278391" lon="9.909634599995226"><ele>752.0</ele><time>2026-05-03T08:58:05Z</time></trkpt><trkpt lat="44.443263376934325" lon="9.9097190210049"><ele>752.0</ele><time>2026-05-03T08:58:06Z</time></trkpt><trkpt lat="44.44308367022004" lon="9.909790886486723"><ele>752.0</ele><time>2026-05-03T08:58:07Z</time></trkpt><trkpt lat="44.44290058295915" lon="9.909854465617219"><ele>747.6666666666666</ele><time>2026-05-03T08:58:08Z</time></trkpt><trkpt lat="44.44271509080875" lon="9.909920895494706"><ele>743.3333333333334</ele><time>2026-05-03T08:58:09Z</time></trkpt><trkpt lat="44.44254047245659" lon="9.909891765085408"><ele>739.0</ele><time>2026-05-03T08:58:10Z</time></trkpt><trkpt lat="44.4423833520986" lon="9.909824340474753"><ele>739.0</ele><time>2026-05-03T08:58:11Z</time></trkpt><trkpt lat="44.44225654910458" lon="9.909700620019187"><ele>739.0</ele><time>2026-05-03T08:58:12Z</time></trkpt><trkpt lat="44.442140041044695" lon="9.909522441794762"><ele>739.0</ele><time>2026-05-03T08:58:13Z</time></trkpt><trkpt lat="44.44203219566096" lon="9.909387835213122"><ele>737.75</ele><time>2026-05-03T08:58:14Z</time></trkpt><trkpt lat="44.44192842495247" lon="9.90930312773829"><ele>736.5</ele><time>2026-05-03T08:58:15Z</time></trkpt><trkpt lat="44.44179669452193" lon="9.90932763698867"><ele>735.25</ele><time>2026-05-03T08:58:16Z</time></trkpt><trkpt lat="44.441657806523615" lon="9.909464869546685"><ele>734.0</ele><time>2026-05-03T08:58:17Z</time></trkpt><trkpt lat="44.44152816078874" lon="9.909655410519765"><ele>734.0</ele><time>2026-05-03T08:58:18Z</time></trkpt><trkpt lat="44.44137690680631" lon="9.90980337809504"><ele>734.0</ele><time>2026-05-03T08:58:19Z</time></trkpt><trkpt lat="44.441231873319815" lon="9.909964296082416"><ele>734.0</ele><time>2026-05-03T08:58:20Z</time></trkpt><trkpt lat="44.44109141438477" lon="9.910095790871656"><ele>732.3333333333333</ele><time>2026-05-03T08:58:21Z</time></trkpt><trkpt lat="44.44094071940127" lon="9.910176837544638"><ele>730.6666666666666</ele><time>2026-05-03T08:58:22Z</time></trkpt><trkpt lat="44.44076689084179" lon="9.91025243957534"><ele>729.0</ele><time>2026-05-03T08:58:23Z</time></trkpt><trkpt lat="44.44058756553261" lon="9.91031195444538"><ele>724.6666666666666</ele><time>2026-05-03T08:58:24Z</time></trkpt><trkpt lat="44.44045983425795" lon="9.910351629804738"><ele>720.3333333333333</ele><time>2026-05-03T08:58:25Z</time></trkpt><trkpt lat="44.44020633669562" lon="9.910397788277225"><ele>716.0</ele><time>2026-05-03T08:58:26Z</time></trkpt><trkpt lat="44.440005654057416" lon="9.910414243345096"><ele>716.0</ele><time>2026-05-03T08:58:27Z</time></trkpt><trkpt lat="44.439809791719625" lon="9.91043001450459"><ele>716.0</ele><time>2026-05-03T08:58:28Z</time></trkpt><trkpt lat="44.43962499069346" lon="9.910435073257648"><ele>716.0</ele><time>2026-05-03T08:58:29Z</time></trkpt><trkpt lat="44.439476975959025" lon="9.910394141599022"><ele>715.75</ele><time>2026-05-03T08:58:30Z</time></trkpt><trkpt lat="44.43939629522513" lon="9.910297145228528"><ele>715.5</ele><time>2026-05-03T08:58:31Z</time></trkpt><trkpt lat="44.439372014293205" lon="9.91017126285787"><ele>715.25</ele><time>2026-05-03T08:58:32Z</time></trkpt><trkpt lat="44.439295507386866" lon="9.909979064888214"><ele>715.0</ele><time>2026-05-03T08:58:33Z</time></trkpt><trkpt lat="44.43918193592063" lon="9.909838658313841"><ele>714.0</ele><time>2026-05-03T08:58:34Z</time></trkpt><trkpt lat="44.439035489531165" lon="9.909757265637495"><ele>713.0</ele><time>2026-05-03T08:58:35Z</time></trkpt><trkpt lat="44.438848966004" lon="9.90977634070409"><ele>712.0</ele><time>2026-05-03T08:58:36Z</time></trkpt><trkpt lat="44.43864629025409" lon="9.909820559818874"><ele>712.0</ele><time>2026-05-03T08:58:37Z</time></trkpt><trkpt lat="44.43843766503848" lon="9.90977676475816"><ele>712.0</ele><time>2026-05-03T08:58:38Z</time></trkpt><trkpt lat="44.438215249647655" lon="9.909743010778383"><ele>712.0</ele><time>2026-05-03T08:58:39Z</time></trkpt><trkpt lat="44.438001295606206" lon="9.909691008488476"><ele>710.6666666666667</ele><time>2026-05-03T08:58:40Z</time></trkpt><trkpt lat="44.43779985749674" lon="9.9096506046405"><ele>709.3333333333334</ele><time>2026-05-03T08:58:41Z</time></trkpt><trkpt lat="44.437615194779376" lon="9.909630335920362"><ele>708.0</ele><time>2026-05-03T08:58:42Z</time></trkpt><trkpt lat="44.43744217714577" lon="9.9096561255944"><ele>708.0</ele><time>2026-05-03T08:58:43Z</time></trkpt><trkpt lat="44.43729016265756" lon="9.909758869106266"><ele>708.0</ele><time>2026-05-03T08:58:44Z</time></trkpt><trkpt lat="44.437161256655976" lon="9.909968221349573"><ele>708.0</ele><time>2026-05-03T08:58:45Z</time></trkpt><trkpt lat="44.437012056958935" lon="9.91022429526494"><ele>709.0</ele><time>2026-05-03T08:58:46Z</time></trkpt><trkpt lat="44.43683100215705" lon="9.910355826061917"><ele>710.0</ele><time>2026-05-03T08:58:47Z</time></trkpt><trkpt lat="44.43664122139728" lon="9.910418458766566"><ele>711.0</ele><time>2026-05-03T08:58:48Z</time></trkpt><trkpt lat="44.436465682891495" lon="9.910374246687432"><ele>711.0</ele><time>2026-05-03T08:58:49Z</time></trkpt><trkpt lat="44.43628903981442" lon="9.910283794091646"><ele>711.0</ele><time>2026-05-03T08:58:50Z</time></trkpt><trkpt lat="44.43606645766683" lon="9.910151640221752"><ele>711.0</ele><time>2026-05-03T08:58:51Z</time></trkpt><trkpt lat="44.43583057069337" lon="9.910009901509863"><ele>705.5</ele><time>2026-05-03T08:58:52Z</time></trkpt><trkpt lat="44.435607570283786" lon="9.909877834512137"><ele>700.0</ele><time>2026-05-03T08:58:53Z</time></trkpt><trkpt lat="44.43540531563826" lon="9.909754672156968"><ele>700.0</ele><time>2026-05-03T08:58:54Z</time></trkpt><trkpt lat="44.43522626893671" lon="9.909618438837866"><ele>700.0</ele><time>2026-05-03T08:58:55Z</time></trkpt><trkpt lat="44.43510807068231" lon="9.909425156027668"><ele>700.0</ele><time>2026-05-03T08:58:56Z</time></trkpt><trkpt lat="44.435011719010554" lon="9.909198521872737"><ele>697.0</ele><time>2026-05-03T08:58:57Z</time></trkpt><trkpt lat="44.43489369263856" lon="9.909061049572689"><ele>694.0</ele><time>2026-05-03T08:58:58Z</time></trkpt><trkpt lat="44.43479144335251" lon="9.908958189661499"><ele>691.0</ele><time>2026-05-03T08:58:59Z</time></trkpt><trkpt lat="44.434609798725646" lon="9.908940036280956"><ele>691.0</ele><time>2026-05-03T08:59:00Z</time></trkpt><trkpt lat="44.434400163413656" lon="9.908943324741145"><ele>691.0</ele><time>2026-05-03T08:59:01Z</time></trkpt><trkpt lat="44.43430525321786" lon="9.90890924175121"><ele>691.0</ele><time>2026-05-03T08:59:02Z</time></trkpt><trkpt lat="44.4340886935596" lon="9.908721929350499"><ele>691.0</ele><time>2026-05-03T08:59:03Z</time></trkpt><trkpt lat="44.433965410103994" lon="9.908487243636264"><ele>691.0</ele><time>2026-05-03T08:59:04Z</time></trkpt><trkpt lat="44.43383597965571" lon="9.908236916417687"><ele>691.0</ele><time>2026-05-03T08:59:05Z</time></trkpt><trkpt lat="44.43371833618214" lon="9.908024673134898"><ele>689.5999999999999</ele><time>2026-05-03T08:59:06Z</time></trkpt><trkpt lat="44.43361290893135" lon="9.90787333552086"><ele>688.2</ele><time>2026-05-03T08:59:07Z</time></trkpt><trkpt lat="44.43353165922405" lon="9.9077895270729"><ele>686.8</ele><time>2026-05-03T08:59:08Z</time></trkpt><trkpt lat="44.43344528232218" lon="9.907780206316001"><ele>685.4000000000001</ele><time>2026-05-03T08:59:09Z</time></trkpt><trkpt lat="44.43335524803507" lon="9.907820313479736"><ele>684.0</ele><time>2026-05-03T08:59:09.999Z</time></trkpt><trkpt lat="44.43328809835213" lon="9.907937843120175"><ele>684.0</ele><time>2026-05-03T08:59:10.999Z</time></trkpt><trkpt lat="44.433241393900644" lon="9.9080927895379"><ele>684.0</ele><time>2026-05-03T08:59:11.999Z</time></trkpt><trkpt lat="44.43317760740532" lon="9.908210157758052"><ele>684.0</ele><time>2026-05-03T08:59:12.999Z</time></trkpt><trkpt lat="44.43308786972817" lon="9.908285707729942"><ele>684.0</ele><time>2026-05-03T08:59:13.999Z</time></trkpt><trkpt lat="44.433006660397055" lon="9.908365596858117"><ele>684.0</ele><time>2026-05-03T08:59:14.999Z</time></trkpt><trkpt lat="44.43289684085081" lon="9.908373421512989"><ele>683.4000000000001</ele><time>2026-05-03T08:59:15.999Z</time></trkpt><trkpt lat="44.43279517320989" lon="9.908354077671797"><ele>682.8</ele><time>2026-05-03T08:59:16.999Z</time></trkpt><trkpt lat="44.432706662593844" lon="9.90828019392271"><ele>682.2</ele><time>2026-05-03T08:59:17.999Z</time></trkpt><trkpt lat="44.43259664146508" lon="9.908212047314688"><ele>681.5999999999999</ele><time>2026-05-03T08:59:18.999Z</time></trkpt><trkpt lat="44.43249130834418" lon="9.90814874262273"><ele>681.0</ele><time>2026-05-03T08:59:19.999Z</time></trkpt><trkpt lat="44.43239141713621" lon="9.908090298996438"><ele>681.0</ele><time>2026-05-03T08:59:20.999Z</time></trkpt><trkpt lat="44.43226520994232" lon="9.90805353261438"><ele>681.0</ele><time>2026-05-03T08:59:21.999Z</time></trkpt><trkpt lat="44.432129735467655" lon="9.908012471070784"><ele>681.0</ele><time>2026-05-03T08:59:22.999Z</time></trkpt><trkpt lat="44.431966232295665" lon="9.908006979874656"><ele>681.0</ele><time>2026-05-03T08:59:23.999Z</time></trkpt><trkpt lat="44.43174948127138" lon="9.908004706571262"><ele>679.0</ele><time>2026-05-03T08:59:24.999Z</time></trkpt><trkpt lat="44.43152657936058" lon="9.908000016534933"><ele>677.0</ele><time>2026-05-03T08:59:25.999Z</time></trkpt><trkpt lat="44.43130636258434" lon="9.907993010589195"><ele>675.0</ele><time>2026-05-03T08:59:26.999Z</time></trkpt><trkpt lat="44.431102462298234" lon="9.90799060379082"><ele>675.0</ele><time>2026-05-03T08:59:27.999Z</time></trkpt><trkpt lat="44.43091683432629" lon="9.90803000467221"><ele>675.0</ele><time>2026-05-03T08:59:28.999Z</time></trkpt><trkpt lat="44.430751674145824" lon="9.908147923111631"><ele>675.0</ele><time>2026-05-03T08:59:29.999Z</time></trkpt><trkpt lat="44.43056241310498" lon="9.908350867604188"><ele>670.6666666666666</ele><time>2026-05-03T08:59:30.999Z</time></trkpt><trkpt lat="44.43036476153532" lon="9.908525642049929"><ele>666.3333333333333</ele><time>2026-05-03T08:59:31.999Z</time></trkpt><trkpt lat="44.430192995094075" lon="9.908652564278947"><ele>662.0</ele><time>2026-05-03T08:59:32.999Z</time></trkpt><trkpt lat="44.43004891765938" lon="9.908706164720499"><ele>662.0</ele><time>2026-05-03T08:59:33.999Z</time></trkpt><trkpt lat="44.429915134746196" lon="9.908686626629795"><ele>662.0</ele><time>2026-05-03T08:59:34.999Z</time></trkpt><trkpt lat="44.42976852208648" lon="9.908627363880866"><ele>662.0</ele><time>2026-05-03T08:59:35.999Z</time></trkpt><trkpt lat="44.42968495109644" lon="9.908498971032834"><ele>662.0</ele><time>2026-05-03T08:59:36.999Z</time></trkpt><trkpt lat="44.429551228335924" lon="9.908361560306492"><ele>660.6666666666666</ele><time>2026-05-03T08:59:37.999Z</time></trkpt><trkpt lat="44.42939920430224" lon="9.90828739031909"><ele>659.3333333333334</ele><time>2026-05-03T08:59:38.999Z</time></trkpt><trkpt lat="44.42923073202693" lon="9.90833023077084"><ele>658.0</ele><time>2026-05-03T08:59:39.999Z</time></trkpt><trkpt lat="44.42904518372874" lon="9.908426848815624"><ele>658.0</ele><time>2026-05-03T08:59:40.999Z</time></trkpt><trkpt lat="44.42883177572515" lon="9.908464333237962"><ele>658.0</ele><time>2026-05-03T08:59:41.999Z</time></trkpt><trkpt lat="44.428611808309256" lon="9.908444673497579"><ele>658.0</ele><time>2026-05-03T08:59:42.999Z</time></trkpt><trkpt lat="44.42842039797933" lon="9.90835642058176"><ele>657.3333333333334</ele><time>2026-05-03T08:59:43.999Z</time></trkpt><trkpt lat="44.42822549248983" lon="9.908235627421423"><ele>656.6666666666666</ele><time>2026-05-03T08:59:44.999Z</time></trkpt><trkpt lat="44.42802057466619" lon="9.908112304814113"><ele>656.0</ele><time>2026-05-03T08:59:45.999Z</time></trkpt><trkpt lat="44.42780900252799" lon="9.908051017384699"><ele>656.0</ele><time>2026-05-03T08:59:46.999Z</time></trkpt><trkpt lat="44.427579206455405" lon="9.90796336676234"><ele>656.0</ele><time>2026-05-03T08:59:47.999Z</time></trkpt><trkpt lat="44.42734642814223" lon="9.907858782475357"><ele>651.0</ele><time>2026-05-03T08:59:48.999Z</time></trkpt><trkpt lat="44.427109758944674" lon="9.907747254991905"><ele>646.0</ele><time>2026-05-03T08:59:49.999Z</time></trkpt><trkpt lat="44.42688364026977" lon="9.907647284044184"><ele>646.0</ele><time>2026-05-03T08:59:50.999Z</time></trkpt><trkpt lat="44.4266830477982" lon="9.907587444467085"><ele>646.0</ele><time>2026-05-03T08:59:51.999Z</time></trkpt><trkpt lat="44.426515578740045" lon="9.907580239871555"><ele>646.0</ele><time>2026-05-03T08:59:52.999Z</time></trkpt><trkpt lat="44.4263392982711" lon="9.90768605920476"><ele>646.5</ele><time>2026-05-03T08:59:53.999Z</time></trkpt><trkpt lat="44.42617545692399" lon="9.90780042005849"><ele>647.0</ele><time>2026-05-03T08:59:54.999Z</time></trkpt><trkpt lat="44.42605329103314" lon="9.90779553745191"><ele>647.5</ele><time>2026-05-03T08:59:55.999Z</time></trkpt><trkpt lat="44.425979305222675" lon="9.907649696319922"><ele>648.0</ele><time>2026-05-03T08:59:56.999Z</time></trkpt><trkpt lat="44.4259192946811" lon="9.90747756907764"><ele>648.0</ele><time>2026-05-03T08:59:57.999Z</time></trkpt><trkpt lat="44.425836005730524" lon="9.907217335433916"><ele>648.0</ele><time>2026-05-03T08:59:58.999Z</time></trkpt><trkpt lat="44.42572537484454" lon="9.906940492765353"><ele>648.0</ele><time>2026-05-03T08:59:59.999Z</time></trkpt><trkpt lat="44.42557274931185" lon="9.90671469517261"><ele>641.0</ele><time>2026-05-03T09:00:00.999Z</time></trkpt><trkpt lat="44.42541876181984" lon="9.906444636549054"><ele>634.0</ele><time>2026-05-03T09:00:01.999Z</time></trkpt><trkpt lat="44.42525236859849" lon="9.906239479598545"><ele>634.0</ele><time>2026-05-03T09:00:02.999Z</time></trkpt><trkpt lat="44.42508325527838" lon="9.90606179325198"><ele>634.0</ele><time>2026-05-03T09:00:03.999Z</time></trkpt><trkpt lat="44.42486752965438" lon="9.905940125192485"><ele>634.0</ele><time>2026-05-03T09:00:05Z</time></trkpt><trkpt lat="44.42468746642617" lon="9.905775243570618"><ele>631.6666666666667</ele><time>2026-05-03T09:00:06Z</time></trkpt><trkpt lat="44.42454376951109" lon="9.905580880395632"><ele>629.3333333333334</ele><time>2026-05-03T09:00:07Z</time></trkpt><trkpt lat="44.4244118666366" lon="9.90533013338767"><ele>627.0</ele><time>2026-05-03T09:00:08Z</time></trkpt><trkpt lat="44.42430708710384" lon="9.905089209728011"><ele>631.3333333333334</ele><time>2026-05-03T09:00:09Z</time></trkpt><trkpt lat="44.42424305141557" lon="9.90483617979623"><ele>635.6666666666667</ele><time>2026-05-03T09:00:10Z</time></trkpt><trkpt lat="44.424204897010895" lon="9.90457407778289"><ele>640.0</ele><time>2026-05-03T09:00:11Z</time></trkpt><trkpt lat="44.42414725907088" lon="9.904403731784447"><ele>640.0</ele><time>2026-05-03T09:00:12Z</time></trkpt><trkpt lat="44.42400941075283" lon="9.904282940655287"><ele>640.0</ele><time>2026-05-03T09:00:13Z</time></trkpt><trkpt lat="44.42382649626642" lon="9.904185418570394"><ele>640.0</ele><time>2026-05-03T09:00:14Z</time></trkpt><trkpt lat="44.42361994870489" lon="9.904091730430178"><ele>637.5</ele><time>2026-05-03T09:00:15Z</time></trkpt><trkpt lat="44.42340133521458" lon="9.90399963632361"><ele>635.0</ele><time>2026-05-03T09:00:16Z</time></trkpt><trkpt lat="44.42316121950296" lon="9.90395809240797"><ele>633.0</ele><time>2026-05-03T09:00:17Z</time></trkpt><trkpt lat="44.422939088523506" lon="9.903979924062929"><ele>631.0</ele><time>2026-05-03T09:00:18Z</time></trkpt><trkpt lat="44.422757403517124" lon="9.90403640298063"><ele>629.0</ele><time>2026-05-03T09:00:19Z</time></trkpt><trkpt lat="44.422595895225236" lon="9.904145296810128"><ele>629.6666666666666</ele><time>2026-05-03T09:00:20Z</time></trkpt><trkpt lat="44.42245446383364" lon="9.904341460135164"><ele>630.3333333333334</ele><time>2026-05-03T09:00:21Z</time></trkpt><trkpt lat="44.4223079544296" lon="9.904561284755541"><ele>631.0</ele><time>2026-05-03T09:00:22Z</time></trkpt><trkpt lat="44.42214166163453" lon="9.904683789949157"><ele>629.3333333333334</ele><time>2026-05-03T09:00:23Z</time></trkpt><trkpt lat="44.42195458146464" lon="9.904713364955091"><ele>627.6666666666666</ele><time>2026-05-03T09:00:24Z</time></trkpt><trkpt lat="44.421726701095" lon="9.904740835677021"><ele>626.0</ele><time>2026-05-03T09:00:25Z</time></trkpt><trkpt lat="44.42147874690742" lon="9.904778717787156"><ele>620.5</ele><time>2026-05-03T09:00:26Z</time></trkpt><trkpt lat="44.421245506173" lon="9.90485429969568"><ele>615.0</ele><time>2026-05-03T09:00:27Z</time></trkpt><trkpt lat="44.42101462682523" lon="9.904917472748842"><ele>615.0</ele><time>2026-05-03T09:00:28Z</time></trkpt><trkpt lat="44.42084146836242" lon="9.90491007162965"><ele>615.0</ele><time>2026-05-03T09:00:29Z</time></trkpt><trkpt lat="44.42068176405704" lon="9.904870706924417"><ele>615.0</ele><time>2026-05-03T09:00:30Z</time></trkpt><trkpt lat="44.420521974787874" lon="9.904758786907568"><ele>614.3333333333334</ele><time>2026-05-03T09:00:31Z</time></trkpt><trkpt lat="44.42035350353345" lon="9.904585936695852"><ele>613.6666666666667</ele><time>2026-05-03T09:00:32Z</time></trkpt><trkpt lat="44.42021538617115" lon="9.90435809409978"><ele>613.0</ele><time>2026-05-03T09:00:33Z</time></trkpt><trkpt lat="44.420088717329534" lon="9.904118615799254"><ele>613.0</ele><time>2026-05-03T09:00:34Z</time></trkpt><trkpt lat="44.419950842022374" lon="9.903938910423062"><ele>613.0</ele><time>2026-05-03T09:00:35Z</time></trkpt><trkpt lat="44.41978130569697" lon="9.9037909533024"><ele>613.0</ele><time>2026-05-03T09:00:36Z</time></trkpt><trkpt lat="44.419574187528454" lon="9.90366601764434"><ele>609.3333333333334</ele><time>2026-05-03T09:00:37Z</time></trkpt><trkpt lat="44.41938928609694" lon="9.903481465730064"><ele>605.6666666666666</ele><time>2026-05-03T09:00:38Z</time></trkpt><trkpt lat="44.41922178715905" lon="9.903300734086118"><ele>602.0</ele><time>2026-05-03T09:00:39Z</time></trkpt><trkpt lat="44.41904678030756" lon="9.903171765995188"><ele>602.0</ele><time>2026-05-03T09:00:40Z</time></trkpt><trkpt lat="44.418869410401605" lon="9.903114240089316"><ele>602.0</ele><time>2026-05-03T09:00:41Z</time></trkpt><trkpt lat="44.41867526904293" lon="9.903168259545636"><ele>602.0</ele><time>2026-05-03T09:00:42Z</time></trkpt><trkpt lat="44.41846971499606" lon="9.903299293230326"><ele>600.6666666666666</ele><time>2026-05-03T09:00:43Z</time></trkpt><trkpt lat="44.41826622831016" lon="9.903323291271386"><ele>599.3333333333334</ele><time>2026-05-03T09:00:44Z</time></trkpt><trkpt lat="44.41808500913003" lon="9.903271121363414"><ele>598.0</ele><time>2026-05-03T09:00:45Z</time></trkpt><trkpt lat="44.41788490936492" lon="9.90319255071571"><ele>596.6666666666667</ele><time>2026-05-03T09:00:46Z</time></trkpt><trkpt lat="44.41769166444559" lon="9.903111399519773"><ele>595.3333333333334</ele><time>2026-05-03T09:00:47Z</time></trkpt><trkpt lat="44.41753088230429" lon="9.903017004144639"><ele>594.0</ele><time>2026-05-03T09:00:48Z</time></trkpt><trkpt lat="44.41742236557674" lon="9.902854584955815"><ele>594.0</ele><time>2026-05-03T09:00:49Z</time></trkpt><trkpt lat="44.41732814437176" lon="9.902648045053741"><ele>594.0</ele><time>2026-05-03T09:00:50Z</time></trkpt><trkpt lat="44.41722796141692" lon="9.90249523042706"><ele>594.0</ele><time>2026-05-03T09:00:51Z</time></trkpt><trkpt lat="44.41711122511525" lon="9.902400727682112"><ele>597.3333333333334</ele><time>2026-05-03T09:00:52Z</time></trkpt><trkpt lat="44.416916573614785" lon="9.902355138129069"><ele>600.6666666666667</ele><time>2026-05-03T09:00:53Z</time></trkpt><trkpt lat="44.416688652900994" lon="9.902295926864374"><ele>604.0</ele><time>2026-05-03T09:00:54Z</time></trkpt><trkpt lat="44.416443422814524" lon="9.902262887471853"><ele>602.3333333333334</ele><time>2026-05-03T09:00:55Z</time></trkpt><trkpt lat="44.41620386968378" lon="9.902236660195562"><ele>600.6666666666666</ele><time>2026-05-03T09:00:56Z</time></trkpt><trkpt lat="44.41600460351735" lon="9.902178077229863"><ele>599.0</ele><time>2026-05-03T09:00:57Z</time></trkpt><trkpt lat="44.415824701135406" lon="9.902134409048625"><ele>599.0</ele><time>2026-05-03T09:00:58Z</time></trkpt><trkpt lat="44.41568090897162" lon="9.902072741587254"><ele>599.0</ele><time>2026-05-03T09:00:59Z</time></trkpt><trkpt lat="44.41559761479824" lon="9.901931186019612"><ele>599.0</ele><time>2026-05-03T09:01:00Z</time></trkpt><trkpt lat="44.415529271337526" lon="9.901732352641428"><ele>599.0</ele><time>2026-05-03T09:01:01Z</time></trkpt><trkpt lat="44.41545743958062" lon="9.901456927091928"><ele>603.0</ele><time>2026-05-03T09:01:02Z</time></trkpt><trkpt lat="44.41536168215188" lon="9.901161796554982"><ele>607.0</ele><time>2026-05-03T09:01:03Z</time></trkpt><trkpt lat="44.41521282065101" lon="9.900910719324102"><ele>607.0</ele><time>2026-05-03T09:01:04Z</time></trkpt><trkpt lat="44.41504931014696" lon="9.900665996444227"><ele>607.0</ele><time>2026-05-03T09:01:05Z</time></trkpt><trkpt lat="44.414922681253614" lon="9.900393936279986"><ele>620.5</ele><time>2026-05-03T09:01:06Z</time></trkpt><trkpt lat="44.41481112031549" lon="9.900081143933633"><ele>634.0</ele><time>2026-05-03T09:01:07Z</time></trkpt><trkpt lat="44.41465896093299" lon="9.899877184915383"><ele>621.3333333333334</ele><time>2026-05-03T09:01:08Z</time></trkpt><trkpt lat="44.414566225872775" lon="9.899663684526077"><ele>608.6666666666666</ele><time>2026-05-03T09:01:09Z</time></trkpt><trkpt lat="44.4145159295429" lon="9.899433315508306"><ele>596.0</ele><time>2026-05-03T09:01:10Z</time></trkpt><trkpt lat="44.41447382137267" lon="9.899109742266289"><ele>596.0</ele><time>2026-05-03T09:01:11Z</time></trkpt><trkpt lat="44.414431103889385" lon="9.898757065056047"><ele>596.0</ele><time>2026-05-03T09:01:12Z</time></trkpt><trkpt lat="44.41438812791337" lon="9.898401013670957"><ele>599.6666666666666</ele><time>2026-05-03T09:01:12.999Z</time></trkpt><trkpt lat="44.414346335400026" lon="9.898086605456538"><ele>603.3333333333334</ele><time>2026-05-03T09:01:13.999Z</time></trkpt><trkpt lat="44.41428039843079" lon="9.897821627668028"><ele>607.0</ele><time>2026-05-03T09:01:14.999Z</time></trkpt><trkpt lat="44.414199051865374" lon="9.897573780886319"><ele>602.3333333333334</ele><time>2026-05-03T09:01:15.999Z</time></trkpt><trkpt lat="44.414055386043245" lon="9.89736819076628"><ele>597.6666666666666</ele><time>2026-05-03T09:01:16.999Z</time></trkpt><trkpt lat="44.413867967865464" lon="9.897241608563347"><ele>593.0</ele><time>2026-05-03T09:01:17.999Z</time></trkpt><trkpt lat="44.41365503240364" lon="9.89716165279249"><ele>593.0</ele><time>2026-05-03T09:01:18.999Z</time></trkpt><trkpt lat="44.41348517613575" lon="9.897078444475108"><ele>593.0</ele><time>2026-05-03T09:01:19.999Z</time></trkpt><trkpt lat="44.4133929412665" lon="9.896943632344646"><ele>593.0</ele><time>2026-05-03T09:01:20.999Z</time></trkpt><trkpt lat="44.413346592349555" lon="9.89675745188248"><ele>599.3333333333333</ele><time>2026-05-03T09:01:21.999Z</time></trkpt><trkpt lat="44.41328760708498" lon="9.896488053574512"><ele>605.6666666666666</ele><time>2026-05-03T09:01:22.999Z</time></trkpt><trkpt lat="44.413235340170836" lon="9.896180921892206"><ele>612.0</ele><time>2026-05-03T09:01:23.999Z</time></trkpt><trkpt lat="44.41319964743481" lon="9.895880172572403"><ele>614.5</ele><time>2026-05-03T09:01:24.999Z</time></trkpt><trkpt lat="44.4131632497785" lon="9.89555454784919"><ele>617.0</ele><time>2026-05-03T09:01:25.999Z</time></trkpt><trkpt lat="44.41311474038626" lon="9.895248510180625"><ele>613.6666666666666</ele><time>2026-05-03T09:01:26.999Z</time></trkpt><trkpt lat="44.41308073773917" lon="9.894970338840851"><ele>610.3333333333334</ele><time>2026-05-03T09:01:27.999Z</time></trkpt><trkpt lat="44.41304181147823" lon="9.894714317522785"><ele>607.0</ele><time>2026-05-03T09:01:28.999Z</time></trkpt><trkpt lat="44.41299942298999" lon="9.894464856744179"><ele>609.0</ele><time>2026-05-03T09:01:29.999Z</time></trkpt><trkpt lat="44.4129203992257" lon="9.894242438937429"><ele>611.0</ele><time>2026-05-03T09:01:30.999Z</time></trkpt><trkpt lat="44.4127720567804" lon="9.894041067096188"><ele>613.0</ele><time>2026-05-03T09:01:31.999Z</time></trkpt><trkpt lat="44.412572760554035" lon="9.893863498793008"><ele>613.0</ele><time>2026-05-03T09:01:32.999Z</time></trkpt><trkpt lat="44.41239659633212" lon="9.893660444294484"><ele>613.0</ele><time>2026-05-03T09:01:33.999Z</time></trkpt><trkpt lat="44.41223529858322" lon="9.893399250918739"><ele>611.0</ele><time>2026-05-03T09:01:34.999Z</time></trkpt><trkpt lat="44.41211176213914" lon="9.893099443102678"><ele>609.0</ele><time>2026-05-03T09:01:35.999Z</time></trkpt><trkpt lat="44.41199362721075" lon="9.892832734367712"><ele>609.0</ele><time>2026-05-03T09:01:36.999Z</time></trkpt><trkpt lat="44.41186467929898" lon="9.892600401684675"><ele>609.0</ele><time>2026-05-03T09:01:37.999Z</time></trkpt><trkpt lat="44.41168620263114" lon="9.89237008053474"><ele>601.5</ele><time>2026-05-03T09:01:38.999Z</time></trkpt><trkpt lat="44.41150376657332" lon="9.892174871874444"><ele>594.0</ele><time>2026-05-03T09:01:39.999Z</time></trkpt><trkpt lat="44.4112983160729" lon="9.89203288754012"><ele>592.5</ele><time>2026-05-03T09:01:40.999Z</time></trkpt><trkpt lat="44.41104687185131" lon="9.89191389343721"><ele>591.0</ele><time>2026-05-03T09:01:41.999Z</time></trkpt><trkpt lat="44.41078879170107" lon="9.89179318845437"><ele>586.0</ele><time>2026-05-03T09:01:42.999Z</time></trkpt><trkpt lat="44.41052137062022" lon="9.891660436948435"><ele>581.0</ele><time>2026-05-03T09:01:43.999Z</time></trkpt><trkpt lat="44.41027596890375" lon="9.891527691554069"><ele>578.0</ele><time>2026-05-03T09:01:44.999Z</time></trkpt><trkpt lat="44.41004568759433" lon="9.891380401329233"><ele>575.0</ele><time>2026-05-03T09:01:45.999Z</time></trkpt><trkpt lat="44.409831714490046" lon="9.891258960781888"><ele>563.3333333333333</ele><time>2026-05-03T09:01:46.999Z</time></trkpt><trkpt lat="44.40963004136333" lon="9.89114600595899"><ele>551.6666666666666</ele><time>2026-05-03T09:01:47.999Z</time></trkpt><trkpt lat="44.40945515649986" lon="9.891045510303881"><ele>540.0</ele><time>2026-05-03T09:01:48.999Z</time></trkpt><trkpt lat="44.4093274003982" lon="9.890932739805963"><ele>547.3333333333334</ele><time>2026-05-03T09:01:49.999Z</time></trkpt><trkpt lat="44.40922066272059" lon="9.890758516311925"><ele>554.6666666666667</ele><time>2026-05-03T09:01:50.999Z</time></trkpt><trkpt lat="44.40908727869247" lon="9.890517046354153"><ele>562.0</ele><time>2026-05-03T09:01:51.999Z</time></trkpt><trkpt lat="44.40895870401984" lon="9.89029472443745"><ele>566.0</ele><time>2026-05-03T09:01:52.999Z</time></trkpt><trkpt lat="44.40890912174898" lon="9.890063688280849"><ele>570.0</ele><time>2026-05-03T09:01:53.999Z</time></trkpt><trkpt lat="44.40891198170075" lon="9.889845593442933"><ele>574.0</ele><time>2026-05-03T09:01:54.999Z</time></trkpt><trkpt lat="44.40892759575836" lon="9.889604236595304"><ele>574.0</ele><time>2026-05-03T09:01:55.999Z</time></trkpt><trkpt lat="44.4090248833022" lon="9.889438523052698"><ele>574.0</ele><time>2026-05-03T09:01:56.999Z</time></trkpt><trkpt lat="44.4091416918843" lon="9.889219537613391"><ele>574.0</ele><time>2026-05-03T09:01:57.999Z</time></trkpt><trkpt lat="44.4092762896367" lon="9.88898451071293"><ele>571.3333333333334</ele><time>2026-05-03T09:01:58.999Z</time></trkpt><trkpt lat="44.4094055911552" lon="9.888741757588376"><ele>568.6666666666666</ele><time>2026-05-03T09:01:59.999Z</time></trkpt><trkpt lat="44.40953534604292" lon="9.888527056545014"><ele>566.0</ele><time>2026-05-03T09:02:00.999Z</time></trkpt><trkpt lat="44.40951777552213" lon="9.888424322444223"><ele>564.0</ele><time>2026-05-03T09:02:01.999Z</time></trkpt><trkpt lat="44.40949693513378" lon="9.888295376611717"><ele>562.0</ele><time>2026-05-03T09:02:02.999Z</time></trkpt><trkpt lat="44.4093936188317" lon="9.88816101212061"><ele>560.0</ele><time>2026-05-03T09:02:03.999Z</time></trkpt><trkpt lat="44.40923437083778" lon="9.88798509703239"><ele>558.0</ele><time>2026-05-03T09:02:04.999Z</time></trkpt><trkpt lat="44.40906207066935" lon="9.887748375630782"><ele>563.5</ele><time>2026-05-03T09:02:05.999Z</time></trkpt><trkpt lat="44.40888028310229" lon="9.887540861771535"><ele>569.0</ele><time>2026-05-03T09:02:06.999Z</time></trkpt><trkpt lat="44.40864230402904" lon="9.887362692616508"><ele>554.5</ele><time>2026-05-03T09:02:07.999Z</time></trkpt><trkpt lat="44.4084348753101" lon="9.887201264563894"><ele>540.0</ele><time>2026-05-03T09:02:08.999Z</time></trkpt><trkpt lat="44.4082429910132" lon="9.886987631572007"><ele>536.5</ele><time>2026-05-03T09:02:09.999Z</time></trkpt><trkpt lat="44.408079190705045" lon="9.886726721247975"><ele>533.0</ele><time>2026-05-03T09:02:11Z</time></trkpt><trkpt lat="44.40789751911316" lon="9.886536887435872"><ele>533.0</ele><time>2026-05-03T09:02:12Z</time></trkpt><trkpt lat="44.40770644928276" lon="9.886362766922039"><ele>533.0</ele><time>2026-05-03T09:02:13Z</time></trkpt><trkpt lat="44.407504811137954" lon="9.88619337606017"><ele>533.0</ele><time>2026-05-03T09:02:14Z</time></trkpt><trkpt lat="44.407279374644055" lon="9.886073152801629"><ele>533.0</ele><time>2026-05-03T09:02:15Z</time></trkpt><trkpt lat="44.407044035402386" lon="9.885994303489042"><ele>535.3333333333333</ele><time>2026-05-03T09:02:16Z</time></trkpt><trkpt lat="44.40682681200309" lon="9.885922209111635"><ele>537.6666666666666</ele><time>2026-05-03T09:02:17Z</time></trkpt><trkpt lat="44.40663412409885" lon="9.885817956280617"><ele>540.0</ele><time>2026-05-03T09:02:18Z</time></trkpt><trkpt lat="44.40646680443324" lon="9.885690357532397"><ele>531.3333333333334</ele><time>2026-05-03T09:02:19Z</time></trkpt><trkpt lat="44.40629010961678" lon="9.885535903515944"><ele>522.6666666666667</ele><time>2026-05-03T09:02:20Z</time></trkpt><trkpt lat="44.40611219252259" lon="9.88537567264204"><ele>514.0</ele><time>2026-05-03T09:02:21Z</time></trkpt><trkpt lat="44.405955754115695" lon="9.885227520910039"><ele>520.3333333333334</ele><time>2026-05-03T09:02:22Z</time></trkpt><trkpt lat="44.40586516667437" lon="9.88504547642173"><ele>526.6666666666666</ele><time>2026-05-03T09:02:23Z</time></trkpt><trkpt lat="44.40575210077881" lon="9.884812748048232"><ele>533.0</ele><time>2026-05-03T09:02:24Z</time></trkpt><trkpt lat="44.405616287300155" lon="9.884583133476426"><ele>530.3333333333333</ele><time>2026-05-03T09:02:25Z</time></trkpt><trkpt lat="44.405465646445" lon="9.884365160810232"><ele>527.6666666666666</ele><time>2026-05-03T09:02:26Z</time></trkpt><trkpt lat="44.405284441998624" lon="9.884171461241722"><ele>525.0</ele><time>2026-05-03T09:02:27Z</time></trkpt><trkpt lat="44.40508536913525" lon="9.88398561588015"><ele>525.0</ele><time>2026-05-03T09:02:28Z</time></trkpt><trkpt lat="44.404884590518364" lon="9.883816712252978"><ele>525.0</ele><time>2026-05-03T09:02:29Z</time></trkpt><trkpt lat="44.404675843068375" lon="9.883672071206524"><ele>517.0</ele><time>2026-05-03T09:02:30Z</time></trkpt><trkpt lat="44.40444795453124" lon="9.883560282634496"><ele>509.0</ele><time>2026-05-03T09:02:31Z</time></trkpt><trkpt lat="44.40423335737977" lon="9.88346487296579"><ele>509.66666666666663</ele><time>2026-05-03T09:02:32Z</time></trkpt><trkpt lat="44.40406231828961" lon="9.883362592128364"><ele>510.33333333333337</ele><time>2026-05-03T09:02:33Z</time></trkpt><trkpt lat="44.40391434591933" lon="9.883278183653362"><ele>511.0</ele><time>2026-05-03T09:02:34Z</time></trkpt><trkpt lat="44.403792185752614" lon="9.883216225239124"><ele>509.8</ele><time>2026-05-03T09:02:35Z</time></trkpt><trkpt lat="44.40370081137985" lon="9.883181023647793"><ele>508.6</ele><time>2026-05-03T09:02:36Z</time></trkpt><trkpt lat="44.40363944580571" lon="9.883218195628032"><ele>507.4</ele><time>2026-05-03T09:02:37Z</time></trkpt><trkpt lat="44.40360265336742" lon="9.883339712341426"><ele>506.2</ele><time>2026-05-03T09:02:38Z</time></trkpt><trkpt lat="44.403633216020246" lon="9.883499975703513"><ele>505.0</ele><time>2026-05-03T09:02:39Z</time></trkpt><trkpt lat="44.40375135645333" lon="9.883621572491407"><ele>506.33333333333337</ele><time>2026-05-03T09:02:40Z</time></trkpt><trkpt lat="44.403940201187524" lon="9.88372835459834"><ele>507.66666666666663</ele><time>2026-05-03T09:02:41Z</time></trkpt><trkpt lat="44.40413400537436" lon="9.8838841380276"><ele>509.0</ele><time>2026-05-03T09:02:42Z</time></trkpt><trkpt lat="44.40430826428175" lon="9.884086378528076"><ele>510.0</ele><time>2026-05-03T09:02:43Z</time></trkpt><trkpt lat="44.40446484395087" lon="9.884330893065034"><ele>511.0</ele><time>2026-05-03T09:02:44Z</time></trkpt><trkpt lat="44.40460970713904" lon="9.884533916879796"><ele>512.0</ele><time>2026-05-03T09:02:45Z</time></trkpt><trkpt lat="44.4047369155302" lon="9.88470959418162"><ele>512.0</ele><time>2026-05-03T09:02:46Z</time></trkpt><trkpt lat="44.404835673244534" lon="9.884824108661984"><ele>512.0</ele><time>2026-05-03T09:02:47Z</time></trkpt><trkpt lat="44.40490624037311" lon="9.884894370195859"><ele>512.0</ele><time>2026-05-03T09:02:48Z</time></trkpt><trkpt lat="44.40487293366318" lon="9.885100006342455"><ele>512.0</ele><time>2026-05-03T09:02:50Z</time></trkpt><trkpt lat="44.40476331649922" lon="9.885163034577058"><ele>506.3333333333333</ele><time>2026-05-03T09:02:51Z</time></trkpt><trkpt lat="44.40464547858352" lon="9.885052707129422"><ele>500.66666666666663</ele><time>2026-05-03T09:02:52Z</time></trkpt><trkpt lat="44.40451684778703" lon="9.884887234263202"><ele>495.0</ele><time>2026-05-03T09:02:53Z</time></trkpt><trkpt lat="44.40432575497362" lon="9.88472761467052"><ele>495.0</ele><time>2026-05-03T09:02:54Z</time></trkpt><trkpt lat="44.40412671990271" lon="9.884574677337731"><ele>495.0</ele><time>2026-05-03T09:02:55Z</time></trkpt><trkpt lat="44.40395436245053" lon="9.884434266848528"><ele>495.0</ele><time>2026-05-03T09:02:56Z</time></trkpt><trkpt lat="44.403822974830426" lon="9.884244828846894"><ele>495.0</ele><time>2026-05-03T09:02:57Z</time></trkpt><trkpt lat="44.40367012502806" lon="9.884109524629139"><ele>495.0</ele><time>2026-05-03T09:02:58Z</time></trkpt><trkpt lat="44.4035052520992" lon="9.884010772236014"><ele>495.0</ele><time>2026-05-03T09:02:59Z</time></trkpt><trkpt lat="44.40329889176817" lon="9.883971966099239"><ele>495.0</ele><time>2026-05-03T09:03:00Z</time></trkpt><trkpt lat="44.40309624492466" lon="9.88388128144229"><ele>495.0</ele><time>2026-05-03T09:03:01Z</time></trkpt><trkpt lat="44.40289036469106" lon="9.8837733314385"><ele>495.0</ele><time>2026-05-03T09:03:02Z</time></trkpt><trkpt lat="44.40267263449029" lon="9.883751385339405"><ele>490.66666666666663</ele><time>2026-05-03T09:03:03Z</time></trkpt><trkpt lat="44.402448058513635" lon="9.883793299127827"><ele>486.3333333333333</ele><time>2026-05-03T09:03:04Z</time></trkpt><trkpt lat="44.402243161258106" lon="9.883767078399234"><ele>482.0</ele><time>2026-05-03T09:03:05Z</time></trkpt><trkpt lat="44.402079366167506" lon="9.883672060307594"><ele>481.3333333333333</ele><time>2026-05-03T09:03:06Z</time></trkpt><trkpt lat="44.401933524384816" lon="9.883519190813624"><ele>480.66666666666663</ele><time>2026-05-03T09:03:07Z</time></trkpt><trkpt lat="44.401802391541054" lon="9.883299031636655"><ele>480.0</ele><time>2026-05-03T09:03:08Z</time></trkpt><trkpt lat="44.40167694650969" lon="9.883057916318828"><ele>480.0</ele><time>2026-05-03T09:03:09Z</time></trkpt><trkpt lat="44.40159581645917" lon="9.882869509861587"><ele>480.0</ele><time>2026-05-03T09:03:10Z</time></trkpt><trkpt lat="44.40155900139701" lon="9.88273007892004"><ele>480.0</ele><time>2026-05-03T09:03:11Z</time></trkpt><trkpt lat="44.40150488907641" lon="9.882657386036886"><ele>480.0</ele><time>2026-05-03T09:03:12Z</time></trkpt><trkpt lat="44.40142701624696" lon="9.882640480795931"><ele>480.0</ele><time>2026-05-03T09:03:13Z</time></trkpt><trkpt lat="44.40132963365177" lon="9.882682099144018"><ele>480.0</ele><time>2026-05-03T09:03:14Z</time></trkpt><trkpt lat="44.40129243373317" lon="9.882858728103312"><ele>480.0</ele><time>2026-05-03T09:03:15Z</time></trkpt><trkpt lat="44.401332078591984" lon="9.8830330929217"><ele>480.0</ele><time>2026-05-03T09:03:16Z</time></trkpt><trkpt lat="44.40145315451746" lon="9.883201819718225"><ele>480.0</ele><time>2026-05-03T09:03:17Z</time></trkpt><trkpt lat="44.40157922111546" lon="9.883420830015309"><ele>476.0</ele><time>2026-05-03T09:03:17.999Z</time></trkpt><trkpt lat="44.40167843311614" lon="9.883676896409995"><ele>472.0</ele><time>2026-05-03T09:03:18.999Z</time></trkpt><trkpt lat="44.40176949724089" lon="9.883942183405132"><ele>468.0</ele><time>2026-05-03T09:03:19.999Z</time></trkpt><trkpt lat="44.40185838447887" lon="9.884159383167756"><ele>466.33333333333337</ele><time>2026-05-03T09:03:20.999Z</time></trkpt><trkpt lat="44.40195208460376" lon="9.88431315431047"><ele>464.6666666666667</ele><time>2026-05-03T09:03:21.999Z</time></trkpt><trkpt lat="44.402122731969534" lon="9.884475008925838"><ele>463.0</ele><time>2026-05-03T09:03:22.999Z</time></trkpt><trkpt lat="44.40229491476571" lon="9.884519712352473"><ele>463.0</ele><time>2026-05-03T09:03:23.999Z</time></trkpt><trkpt lat="44.40249749203311" lon="9.884631761133464"><ele>463.0</ele><time>2026-05-03T09:03:24.999Z</time></trkpt><trkpt lat="44.40275678279704" lon="9.884797870367455"><ele>463.0</ele><time>2026-05-03T09:03:25.999Z</time></trkpt><trkpt lat="44.40296826250085" lon="9.884947429724681"><ele>463.0</ele><time>2026-05-03T09:03:26.999Z</time></trkpt><trkpt lat="44.40313931673182" lon="9.88509114800263"><ele>463.0</ele><time>2026-05-03T09:03:27.999Z</time></trkpt><trkpt lat="44.4032801975267" lon="9.885258844254123"><ele>462.0</ele><time>2026-05-03T09:03:28.999Z</time></trkpt><trkpt lat="44.403398669532585" lon="9.885558404318436"><ele>461.0</ele><time>2026-05-03T09:03:29.999Z</time></trkpt><trkpt lat="44.403578859285794" lon="9.885925221850842"><ele>460.3333333333333</ele><time>2026-05-03T09:03:30.999Z</time></trkpt><trkpt lat="44.40364815043041" lon="9.886053414957294"><ele>459.66666666666663</ele><time>2026-05-03T09:03:32.999Z</time></trkpt><trkpt lat="44.40381312403187" lon="9.886200428365395"><ele>459.0</ele><time>2026-05-03T09:03:33.999Z</time></trkpt><trkpt lat="44.404017010859185" lon="9.886329127337586"><ele>459.0</ele><time>2026-05-03T09:03:34.999Z</time></trkpt><trkpt lat="44.40418670473818" lon="9.886443450172827"><ele>459.0</ele><time>2026-05-03T09:03:35.999Z</time></trkpt><trkpt lat="44.40429565906943" lon="9.886497682325055"><ele>459.0</ele><time>2026-05-03T09:03:36.999Z</time></trkpt><trkpt lat="44.404329764463064" lon="9.886651097140494"><ele>459.0</ele><time>2026-05-03T09:03:38.999Z</time></trkpt><trkpt lat="44.40422112587853" lon="9.886708623963413"><ele>459.0</ele><time>2026-05-03T09:03:39.999Z</time></trkpt><trkpt lat="44.4041125007531" lon="9.886657864503956"><ele>459.0</ele><time>2026-05-03T09:03:40.999Z</time></trkpt><trkpt lat="44.40398344445819" lon="9.886494783570916"><ele>459.0</ele><time>2026-05-03T09:03:41.999Z</time></trkpt><trkpt lat="44.403788354387984" lon="9.886337155493568"><ele>459.66666666666663</ele><time>2026-05-03T09:03:42.999Z</time></trkpt><trkpt lat="44.40358983578904" lon="9.886181842728037"><ele>460.3333333333333</ele><time>2026-05-03T09:03:43.999Z</time></trkpt><trkpt lat="44.403408802036004" lon="9.886042528898615"><ele>461.0</ele><time>2026-05-03T09:03:44.999Z</time></trkpt><trkpt lat="44.40325542715328" lon="9.885904413755926"><ele>461.0</ele><time>2026-05-03T09:03:45.999Z</time></trkpt><trkpt lat="44.40313039906412" lon="9.885741592678656"><ele>461.0</ele><time>2026-05-03T09:03:46.999Z</time></trkpt><trkpt lat="44.402987742602626" lon="9.885541799745099"><ele>461.0</ele><time>2026-05-03T09:03:47.999Z</time></trkpt><trkpt lat="44.40282001213181" lon="9.885384301797208"><ele>455.3333333333333</ele><time>2026-05-03T09:03:48.999Z</time></trkpt><trkpt lat="44.402633790068315" lon="9.885250163969742"><ele>449.66666666666663</ele><time>2026-05-03T09:03:49.999Z</time></trkpt><trkpt lat="44.402402675559905" lon="9.885194845856057"><ele>444.0</ele><time>2026-05-03T09:03:50.999Z</time></trkpt><trkpt lat="44.40213996652869" lon="9.885178189643163"><ele>434.0</ele><time>2026-05-03T09:03:51.999Z</time></trkpt><trkpt lat="44.401893650015026" lon="9.88514222239866"><ele>424.0</ele><time>2026-05-03T09:03:52.999Z</time></trkpt><trkpt lat="44.40167281919167" lon="9.885101527637692"><ele>423.6666666666667</ele><time>2026-05-03T09:03:53.999Z</time></trkpt><trkpt lat="44.401470000898755" lon="9.885013299128449"><ele>423.33333333333337</ele><time>2026-05-03T09:03:54.999Z</time></trkpt><trkpt lat="44.401270415062896" lon="9.88491915428533"><ele>423.0</ele><time>2026-05-03T09:03:55.999Z</time></trkpt><trkpt lat="44.40108499532247" lon="9.884834143191984"><ele>423.0</ele><time>2026-05-03T09:03:56.999Z</time></trkpt><trkpt lat="44.40092800218402" lon="9.884756750670494"><ele>423.0</ele><time>2026-05-03T09:03:57.999Z</time></trkpt><trkpt lat="44.40081846684883" lon="9.884663235497966"><ele>423.0</ele><time>2026-05-03T09:03:58.999Z</time></trkpt><trkpt lat="44.40071905009766" lon="9.884548784353276"><ele>423.0</ele><time>2026-05-03T09:03:59.999Z</time></trkpt><trkpt lat="44.400562013338295" lon="9.884376347814763"><ele>423.5</ele><time>2026-05-03T09:04:00.999Z</time></trkpt><trkpt lat="44.40032480143812" lon="9.884245420644847"><ele>424.0</ele><time>2026-05-03T09:04:01.999Z</time></trkpt><trkpt lat="44.400122458044805" lon="9.884169612661694"><ele>424.0</ele><time>2026-05-03T09:04:02.999Z</time></trkpt><trkpt lat="44.39997901603697" lon="9.883992846432209"><ele>424.0</ele><time>2026-05-03T09:04:03.999Z</time></trkpt><trkpt lat="44.39979057335697" lon="9.883792187349059"><ele>424.0</ele><time>2026-05-03T09:04:04.999Z</time></trkpt><trkpt lat="44.399636797601524" lon="9.883627211374918"><ele>421.6</ele><time>2026-05-03T09:04:05.999Z</time></trkpt><trkpt lat="44.39953488848195" lon="9.883516318367395"><ele>419.2</ele><time>2026-05-03T09:04:06.999Z</time></trkpt><trkpt lat="44.39943699826036" lon="9.883396822708606"><ele>416.8</ele><time>2026-05-03T09:04:07.999Z</time></trkpt><trkpt lat="44.399387358558464" lon="9.883305999016146"><ele>414.40000000000003</ele><time>2026-05-03T09:04:08.999Z</time></trkpt><trkpt lat="44.399366400213644" lon="9.883212176909304"><ele>412.0</ele><time>2026-05-03T09:04:09.999Z</time></trkpt><trkpt lat="44.39937121610482" lon="9.883075947460796"><ele>412.0</ele><time>2026-05-03T09:04:10.999Z</time></trkpt><trkpt lat="44.39938657139511" lon="9.882931518350848"><ele>412.0</ele><time>2026-05-03T09:04:11.999Z</time></trkpt><trkpt lat="44.399368355300844" lon="9.882799932372931"><ele>412.0</ele><time>2026-05-03T09:04:12.999Z</time></trkpt><trkpt lat="44.3993070859563" lon="9.88267887586761"><ele>412.0</ele><time>2026-05-03T09:04:13.999Z</time></trkpt><trkpt lat="44.399195478854885" lon="9.882548571156198"><ele>415.0</ele><time>2026-05-03T09:04:14.999Z</time></trkpt><trkpt lat="44.39899620247887" lon="9.882455245159148"><ele>418.0</ele><time>2026-05-03T09:04:15.999Z</time></trkpt><trkpt lat="44.39881594971163" lon="9.8823497262402"><ele>421.0</ele><time>2026-05-03T09:04:17Z</time></trkpt><trkpt lat="44.39870886109243" lon="9.882228073445706"><ele>414.5</ele><time>2026-05-03T09:04:18Z</time></trkpt><trkpt lat="44.398656513051726" lon="9.882047882229596"><ele>408.0</ele><time>2026-05-03T09:04:19Z</time></trkpt><trkpt lat="44.39857541851077" lon="9.88182026740655"><ele>401.5</ele><time>2026-05-03T09:04:20Z</time></trkpt><trkpt lat="44.39851076052149" lon="9.881681259220032"><ele>395.0</ele><time>2026-05-03T09:04:21Z</time></trkpt><trkpt lat="44.39847075780697" lon="9.88161080021789"><ele>395.0</ele><time>2026-05-03T09:04:22Z</time></trkpt><trkpt lat="44.398323687829766" lon="9.881679610473137"><ele>395.0</ele><time>2026-05-03T09:04:24Z</time></trkpt><trkpt lat="44.398326256881624" lon="9.881879914910183"><ele>395.0</ele><time>2026-05-03T09:04:25Z</time></trkpt><trkpt lat="44.39840100981383" lon="9.882107844176565"><ele>393.66666666666663</ele><time>2026-05-03T09:04:26Z</time></trkpt><trkpt lat="44.39850283715598" lon="9.882352730248952"><ele>392.33333333333337</ele><time>2026-05-03T09:04:27Z</time></trkpt><trkpt lat="44.39861708652221" lon="9.882569414969987"><ele>391.0</ele><time>2026-05-03T09:04:28Z</time></trkpt><trkpt lat="44.39866409005929" lon="9.882761089000079"><ele>387.33333333333337</ele><time>2026-05-03T09:04:29Z</time></trkpt><trkpt lat="44.39867385546198" lon="9.883004077108229"><ele>383.6666666666667</ele><time>2026-05-03T09:04:30Z</time></trkpt><trkpt lat="44.39873659494933" lon="9.883307273574008"><ele>380.0</ele><time>2026-05-03T09:04:31Z</time></trkpt><trkpt lat="44.39874586639286" lon="9.883568180272457"><ele>379.33333333333337</ele><time>2026-05-03T09:04:32Z</time></trkpt><trkpt lat="44.39876832500543" lon="9.88380775630246"><ele>378.6666666666667</ele><time>2026-05-03T09:04:33Z</time></trkpt><trkpt lat="44.3988533249075" lon="9.88406328416085"><ele>378.0</ele><time>2026-05-03T09:04:34Z</time></trkpt><trkpt lat="44.399008551931914" lon="9.8842992696316"><ele>378.0</ele><time>2026-05-03T09:04:35Z</time></trkpt><trkpt lat="44.39919021537778" lon="9.884525515195884"><ele>378.0</ele><time>2026-05-03T09:04:36Z</time></trkpt><trkpt lat="44.399333328471215" lon="9.884775947662023"><ele>378.0</ele><time>2026-05-03T09:04:37Z</time></trkpt><trkpt lat="44.39945550992753" lon="9.885050341370745"><ele>378.0</ele><time>2026-05-03T09:04:38Z</time></trkpt><trkpt lat="44.39955989645503" lon="9.885294947959045"><ele>378.0</ele><time>2026-05-03T09:04:39Z</time></trkpt><trkpt lat="44.399667356594264" lon="9.885463376443797"><ele>376.3333333333333</ele><time>2026-05-03T09:04:40Z</time></trkpt><trkpt lat="44.39982435875241" lon="9.88553808689297"><ele>374.66666666666663</ele><time>2026-05-03T09:04:41Z</time></trkpt><trkpt lat="44.40002855766105" lon="9.885626606691599"><ele>373.0</ele><time>2026-05-03T09:04:42Z</time></trkpt><trkpt lat="44.40020727846132" lon="9.885727835995102"><ele>373.0</ele><time>2026-05-03T09:04:43Z</time></trkpt><trkpt lat="44.40034395199142" lon="9.885880449479318"><ele>373.0</ele><time>2026-05-03T09:04:44Z</time></trkpt><trkpt lat="44.40043565162799" lon="9.886087771084823"><ele>373.0</ele><time>2026-05-03T09:04:45Z</time></trkpt><trkpt lat="44.400538850611724" lon="9.886310110424004"><ele>375.3333333333333</ele><time>2026-05-03T09:04:46Z</time></trkpt><trkpt lat="44.40060770297206" lon="9.886531966023437"><ele>377.6666666666667</ele><time>2026-05-03T09:04:47Z</time></trkpt><trkpt lat="44.40063038463179" lon="9.886779727913614"><ele>380.0</ele><time>2026-05-03T09:04:48Z</time></trkpt><trkpt lat="44.40064667332252" lon="9.887044613458178"><ele>375.33333333333337</ele><time>2026-05-03T09:04:49Z</time></trkpt><trkpt lat="44.4006808058072" lon="9.887274503001311"><ele>370.6666666666667</ele><time>2026-05-03T09:04:50Z</time></trkpt><trkpt lat="44.400713880911646" lon="9.887465234081104"><ele>366.0</ele><time>2026-05-03T09:04:51Z</time></trkpt><trkpt lat="44.400814708362525" lon="9.887636114403527"><ele>359.6666666666667</ele><time>2026-05-03T09:04:52Z</time></trkpt><trkpt lat="44.400988243587925" lon="9.887792039123362"><ele>353.33333333333337</ele><time>2026-05-03T09:04:53Z</time></trkpt><trkpt lat="44.40112884335295" lon="9.887929813824824"><ele>347.0</ele><time>2026-05-03T09:04:54Z</time></trkpt><trkpt lat="44.40125296628994" lon="9.888056693960607"><ele>345.40000000000003</ele><time>2026-05-03T09:04:55Z</time></trkpt><trkpt lat="44.401342688013216" lon="9.888156875647102"><ele>343.8</ele><time>2026-05-03T09:04:56Z</time></trkpt><trkpt lat="44.40140348882535" lon="9.88826143614494"><ele>342.2</ele><time>2026-05-03T09:04:57Z</time></trkpt><trkpt lat="44.40140618481957" lon="9.888389837013806"><ele>340.6</ele><time>2026-05-03T09:04:58Z</time></trkpt><trkpt lat="44.40149253074878" lon="9.888417886582003"><ele>339.0</ele><time>2026-05-03T09:04:59Z</time></trkpt><trkpt lat="44.401546945505295" lon="9.88846843008624"><ele>339.0</ele><time>2026-05-03T09:05:00Z</time></trkpt><trkpt lat="44.40161458418398" lon="9.888546125269018"><ele>339.0</ele><time>2026-05-03T09:05:02Z</time></trkpt><trkpt lat="44.40167812793346" lon="9.888582109305272"><ele>339.0</ele><time>2026-05-03T09:05:06Z</time></trkpt><trkpt lat="44.40163110317395" lon="9.888465996930098"><ele>339.0</ele><time>2026-05-03T09:09:16Z</time></trkpt><trkpt lat="44.40155235131495" lon="9.88838198699754"><ele>339.0</ele><time>2026-05-03T09:09:19Z</time></trkpt><trkpt lat="44.40148935719653" lon="9.888327220253586"><ele>339.0</ele><time>2026-05-03T09:09:21Z</time></trkpt><trkpt lat="44.40141398630275" lon="9.888233827597556"><ele>341.6666666666667</ele><time>2026-05-03T09:09:25Z</time></trkpt><trkpt lat="44.40126454034758" lon="9.888137121640916"><ele>344.33333333333337</ele><time>2026-05-03T09:09:27Z</time></trkpt><trkpt lat="44.40122844048876" lon="9.887945354332262"><ele>347.0</ele><time>2026-05-03T09:09:28Z</time></trkpt><trkpt lat="44.401048178373806" lon="9.88784638319834"><ele>347.0</ele><time>2026-05-03T09:09:29Z</time></trkpt><trkpt lat="44.40088603032374" lon="9.88767498462479"><ele>347.0</ele><time>2026-05-03T09:09:30Z</time></trkpt><trkpt lat="44.40071980918265" lon="9.887502478506113"><ele>347.0</ele><time>2026-05-03T09:09:31Z</time></trkpt><trkpt lat="44.400603010490485" lon="9.887289068160479"><ele>340.0</ele><time>2026-05-03T09:09:32Z</time></trkpt><trkpt lat="44.40032373029977" lon="9.887112211041478"><ele>333.0</ele><time>2026-05-03T09:09:33Z</time></trkpt><trkpt lat="44.40066950416892" lon="9.886863823726504"><ele>348.6666666666667</ele><time>2026-05-03T09:09:35Z</time></trkpt><trkpt lat="44.40064981398375" lon="9.886601707751884"><ele>364.33333333333337</ele><time>2026-05-03T09:09:36Z</time></trkpt><trkpt lat="44.40058474475096" lon="9.886386844687593"><ele>380.0</ele><time>2026-05-03T09:09:37Z</time></trkpt><trkpt lat="44.40052397146564" lon="9.886168310493327"><ele>377.6666666666667</ele><time>2026-05-03T09:09:38Z</time></trkpt><trkpt lat="44.400415147682544" lon="9.885946241605483"><ele>375.3333333333333</ele><time>2026-05-03T09:09:39Z</time></trkpt><trkpt lat="44.40030629482925" lon="9.885755140619196"><ele>373.0</ele><time>2026-05-03T09:09:40Z</time></trkpt><trkpt lat="44.40018082672898" lon="9.885588060402148"><ele>373.0</ele><time>2026-05-03T09:09:40.999Z</time></trkpt><trkpt lat="44.400022711802706" lon="9.88545914916074"><ele>373.0</ele><time>2026-05-03T09:09:41.999Z</time></trkpt><trkpt lat="44.39984703974673" lon="9.885381353041238"><ele>373.0</ele><time>2026-05-03T09:09:42.999Z</time></trkpt><trkpt lat="44.399698663694146" lon="9.885345244967938"><ele>374.66666666666663</ele><time>2026-05-03T09:09:43.999Z</time></trkpt><trkpt lat="44.399593571008424" lon="9.885246450858967"><ele>376.3333333333333</ele><time>2026-05-03T09:09:44.999Z</time></trkpt><trkpt lat="44.399520107862976" lon="9.885079804557956"><ele>378.0</ele><time>2026-05-03T09:09:45.999Z</time></trkpt><trkpt lat="44.399417850350204" lon="9.884857201685541"><ele>378.0</ele><time>2026-05-03T09:09:46.999Z</time></trkpt><trkpt lat="44.39930272965166" lon="9.884609484113499"><ele>378.0</ele><time>2026-05-03T09:09:47.999Z</time></trkpt><trkpt lat="44.39918635098822" lon="9.884370585653837"><ele>378.0</ele><time>2026-05-03T09:09:48.999Z</time></trkpt><trkpt lat="44.399042961605744" lon="9.884183973361523"><ele>374.3333333333333</ele><time>2026-05-03T09:09:49.999Z</time></trkpt><trkpt lat="44.398930232465524" lon="9.883998008265712"><ele>370.66666666666663</ele><time>2026-05-03T09:09:50.999Z</time></trkpt><trkpt lat="44.398840514950415" lon="9.8838102812162"><ele>367.0</ele><time>2026-05-03T09:09:51.999Z</time></trkpt><trkpt lat="44.398784514239345" lon="9.883594042589257"><ele>371.3333333333333</ele><time>2026-05-03T09:09:52.999Z</time></trkpt><trkpt lat="44.398771172676234" lon="9.88334931845367"><ele>375.6666666666667</ele><time>2026-05-03T09:09:53.999Z</time></trkpt><trkpt lat="44.39877312864816" lon="9.883075661670008"><ele>380.0</ele><time>2026-05-03T09:09:54.999Z</time></trkpt><trkpt lat="44.39875762023865" lon="9.882790029942635"><ele>383.6666666666667</ele><time>2026-05-03T09:09:55.999Z</time></trkpt><trkpt lat="44.398686823980746" lon="9.882536149588596"><ele>387.33333333333337</ele><time>2026-05-03T09:09:56.999Z</time></trkpt><trkpt lat="44.39856099002716" lon="9.882295184014291"><ele>391.0</ele><time>2026-05-03T09:09:57.999Z</time></trkpt><trkpt lat="44.39844448430884" lon="9.882076407551077"><ele>391.0</ele><time>2026-05-03T09:09:58.999Z</time></trkpt><trkpt lat="44.39838891561411" lon="9.881860244521683"><ele>391.0</ele><time>2026-05-03T09:09:59.999Z</time></trkpt><trkpt lat="44.39836494720013" lon="9.881708188886257"><ele>391.0</ele><time>2026-05-03T09:10:00.999Z</time></trkpt><trkpt lat="44.39842401185754" lon="9.881601575162433"><ele>391.0</ele><time>2026-05-03T09:10:02.999Z</time></trkpt><trkpt lat="44.39850544067015" lon="9.88164743251354"><ele>391.0</ele><time>2026-05-03T09:10:03.999Z</time></trkpt><trkpt lat="44.39856943111756" lon="9.881865560973765"><ele>391.0</ele><time>2026-05-03T09:10:04.999Z</time></trkpt><trkpt lat="44.398605672022754" lon="9.882053291048308"><ele>391.0</ele><time>2026-05-03T09:10:05.999Z</time></trkpt><trkpt lat="44.39867399215342" lon="9.882245048169104"><ele>391.0</ele><time>2026-05-03T09:10:06.999Z</time></trkpt><trkpt lat="44.39877708478256" lon="9.882421324446105"><ele>391.0</ele><time>2026-05-03T09:10:07.999Z</time></trkpt><trkpt lat="44.39893097555257" lon="9.882546910321377"><ele>391.0</ele><time>2026-05-03T09:10:08.999Z</time></trkpt><trkpt lat="44.399126927204954" lon="9.882622320775138"><ele>396.25</ele><time>2026-05-03T09:10:09.999Z</time></trkpt><trkpt lat="44.3992879337935" lon="9.882697423033058"><ele>401.5</ele><time>2026-05-03T09:10:10.999Z</time></trkpt><trkpt lat="44.39935761811052" lon="9.882875226823561"><ele>406.75</ele><time>2026-05-03T09:10:11.999Z</time></trkpt><trkpt lat="44.39934882571933" lon="9.883053312015955"><ele>412.0</ele><time>2026-05-03T09:10:12.999Z</time></trkpt><trkpt lat="44.399363974441265" lon="9.883267123264954"><ele>416.0</ele><time>2026-05-03T09:10:13.999Z</time></trkpt><trkpt lat="44.39938109707001" lon="9.883473580832947"><ele>420.0</ele><time>2026-05-03T09:10:14.999Z</time></trkpt><trkpt lat="44.399506646247666" lon="9.883625584414975"><ele>424.0</ele><time>2026-05-03T09:10:15.999Z</time></trkpt><trkpt lat="44.39968845898092" lon="9.883766352621976"><ele>424.0</ele><time>2026-05-03T09:10:16.999Z</time></trkpt><trkpt lat="44.39986715046066" lon="9.883951654068095"><ele>424.0</ele><time>2026-05-03T09:10:17.999Z</time></trkpt><trkpt lat="44.40002306727961" lon="9.884120174098017"><ele>424.0</ele><time>2026-05-03T09:10:18.999Z</time></trkpt><trkpt lat="44.4001713062247" lon="9.884260104044593"><ele>423.6666666666667</ele><time>2026-05-03T09:10:19.999Z</time></trkpt><trkpt lat="44.40031553227886" lon="9.884342113722179"><ele>423.33333333333337</ele><time>2026-05-03T09:10:20.999Z</time></trkpt><trkpt lat="44.40047091348625" lon="9.884390199954355"><ele>423.0</ele><time>2026-05-03T09:10:21.999Z</time></trkpt><trkpt lat="44.400637907480956" lon="9.884497037376814"><ele>423.0</ele><time>2026-05-03T09:10:22.999Z</time></trkpt><trkpt lat="44.40077783706917" lon="9.884674197996608"><ele>423.0</ele><time>2026-05-03T09:10:23.999Z</time></trkpt><trkpt lat="44.40094020795676" lon="9.884852124571534"><ele>423.0</ele><time>2026-05-03T09:10:24.999Z</time></trkpt><trkpt lat="44.40114117989097" lon="9.884960363974155"><ele>423.5</ele><time>2026-05-03T09:10:25.999Z</time></trkpt><trkpt lat="44.40136486745348" lon="9.88503188801179"><ele>424.0</ele><time>2026-05-03T09:10:26.999Z</time></trkpt><trkpt lat="44.401584546302075" lon="9.885114223993975"><ele>424.0</ele><time>2026-05-03T09:10:27.999Z</time></trkpt><trkpt lat="44.40180036593314" lon="9.885191538585499"><ele>424.0</ele><time>2026-05-03T09:10:28.999Z</time></trkpt><trkpt lat="44.40203092611556" lon="9.885225645304194"><ele>434.0</ele><time>2026-05-03T09:10:29.999Z</time></trkpt><trkpt lat="44.40226581717982" lon="9.885259357317967"><ele>444.0</ele><time>2026-05-03T09:10:30.999Z</time></trkpt><trkpt lat="44.402491788573016" lon="9.885288729855583"><ele>444.0</ele><time>2026-05-03T09:10:31.999Z</time></trkpt><trkpt lat="44.40268862344392" lon="9.8853361264035"><ele>444.0</ele><time>2026-05-03T09:10:32.999Z</time></trkpt><trkpt lat="44.402867715507895" lon="9.885442506119716"><ele>444.0</ele><time>2026-05-03T09:10:33.999Z</time></trkpt><trkpt lat="44.4030079061906" lon="9.885628194371051"><ele>444.0</ele><time>2026-05-03T09:10:35Z</time></trkpt><trkpt lat="44.40317040769169" lon="9.885864301429095"><ele>444.0</ele><time>2026-05-03T09:10:36Z</time></trkpt><trkpt lat="44.40333748767226" lon="9.886069113813882"><ele>444.0</ele><time>2026-05-03T09:10:37Z</time></trkpt><trkpt lat="44.403525130070506" lon="9.886233761514353"><ele>444.0</ele><time>2026-05-03T09:10:38Z</time></trkpt><trkpt lat="44.40372946404769" lon="9.886368071710011"><ele>444.0</ele><time>2026-05-03T09:10:39Z</time></trkpt><trkpt lat="44.4039186389726" lon="9.886512456727997"><ele>447.0</ele><time>2026-05-03T09:10:40Z</time></trkpt><trkpt lat="44.40407537348609" lon="9.88662635218903"><ele>450.0</ele><time>2026-05-03T09:10:41Z</time></trkpt><trkpt lat="44.404175051048774" lon="9.886705248218076"><ele>453.0</ele><time>2026-05-03T09:10:42Z</time></trkpt><trkpt lat="44.40424003960173" lon="9.886723992002644"><ele>456.0</ele><time>2026-05-03T09:10:43Z</time></trkpt><trkpt lat="44.40429604104115" lon="9.886671583543723"><ele>459.0</ele><time>2026-05-03T09:10:44Z</time></trkpt><trkpt lat="44.404334864702825" lon="9.886547778675004"><ele>459.0</ele><time>2026-05-03T09:10:45Z</time></trkpt><trkpt lat="44.404312350561895" lon="9.886423211658997"><ele>459.0</ele><time>2026-05-03T09:10:46Z</time></trkpt><trkpt lat="44.40416885820903" lon="9.886348000234262"><ele>459.0</ele><time>2026-05-03T09:10:47Z</time></trkpt><trkpt lat="44.404010387586226" lon="9.886238042409937"><ele>459.0</ele><time>2026-05-03T09:10:48Z</time></trkpt><trkpt lat="44.40382469147433" lon="9.88608494574322"><ele>459.66666666666663</ele><time>2026-05-03T09:10:49Z</time></trkpt><trkpt lat="44.403646936562495" lon="9.885938749695077"><ele>460.3333333333333</ele><time>2026-05-03T09:10:50Z</time></trkpt><trkpt lat="44.40353451678156" lon="9.88579427525628"><ele>461.0</ele><time>2026-05-03T09:10:51Z</time></trkpt><trkpt lat="44.40345509021506" lon="9.885617144739678"><ele>461.0</ele><time>2026-05-03T09:10:52Z</time></trkpt><trkpt lat="44.403373690050294" lon="9.885389606181496"><ele>461.0</ele><time>2026-05-03T09:10:53Z</time></trkpt><trkpt lat="44.40326836601841" lon="9.885180343979632"><ele>461.0</ele><time>2026-05-03T09:10:54Z</time></trkpt><trkpt lat="44.40312481193024" lon="9.885026262563699"><ele>462.0</ele><time>2026-05-03T09:10:55Z</time></trkpt><trkpt lat="44.402912622732025" lon="9.884880302848968"><ele>463.0</ele><time>2026-05-03T09:10:56Z</time></trkpt><trkpt lat="44.402714791352686" lon="9.88472418623574"><ele>463.0</ele><time>2026-05-03T09:10:57Z</time></trkpt><trkpt lat="44.40248613849789" lon="9.884619854524491"><ele>463.0</ele><time>2026-05-03T09:10:58Z</time></trkpt><trkpt lat="44.402277951530905" lon="9.88447985910654"><ele>464.6666666666667</ele><time>2026-05-03T09:10:59Z</time></trkpt><trkpt lat="44.40209852578757" lon="9.884354252273976"><ele>466.33333333333337</ele><time>2026-05-03T09:11:00Z</time></trkpt><trkpt lat="44.401942727325995" lon="9.884205437218341"><ele>468.0</ele><time>2026-05-03T09:11:01Z</time></trkpt><trkpt lat="44.40184360515525" lon="9.884020664000236"><ele>468.0</ele><time>2026-05-03T09:11:02Z</time></trkpt><trkpt lat="44.401743838289626" lon="9.883779324063097"><ele>468.0</ele><time>2026-05-03T09:11:03Z</time></trkpt><trkpt lat="44.40162662570738" lon="9.883500812195672"><ele>468.0</ele><time>2026-05-03T09:11:04Z</time></trkpt><trkpt lat="44.40153666166044" lon="9.883248589321157"><ele>471.0</ele><time>2026-05-03T09:11:05Z</time></trkpt><trkpt lat="44.40143607711763" lon="9.883055407745323"><ele>474.0</ele><time>2026-05-03T09:11:06Z</time></trkpt><trkpt lat="44.401361850750725" lon="9.882939706840052"><ele>477.0</ele><time>2026-05-03T09:11:07Z</time></trkpt><trkpt lat="44.40131811356416" lon="9.882865124596007"><ele>480.0</ele><time>2026-05-03T09:11:08Z</time></trkpt><trkpt lat="44.401389535987164" lon="9.88269177228305"><ele>480.0</ele><time>2026-05-03T09:11:10Z</time></trkpt><trkpt lat="44.40149919712608" lon="9.88270758503634"><ele>480.0</ele><time>2026-05-03T09:11:11Z</time></trkpt><trkpt lat="44.401585193076485" lon="9.882836813708984"><ele>480.0</ele><time>2026-05-03T09:11:12Z</time></trkpt><trkpt lat="44.4016482720046" lon="9.88305024106551"><ele>480.0</ele><time>2026-05-03T09:11:13Z</time></trkpt><trkpt lat="44.401737851011035" lon="9.88329888504159"><ele>474.0</ele><time>2026-05-03T09:11:14Z</time></trkpt><trkpt lat="44.4018721269605" lon="9.883550321200552"><ele>468.0</ele><time>2026-05-03T09:11:15Z</time></trkpt><trkpt lat="44.40203786694538" lon="9.883816777517213"><ele>472.66666666666663</ele><time>2026-05-03T09:11:16Z</time></trkpt><trkpt lat="44.40224421289598" lon="9.88391240488642"><ele>477.3333333333333</ele><time>2026-05-03T09:11:17Z</time></trkpt><trkpt lat="44.402420191983275" lon="9.883928608550061"><ele>482.0</ele><time>2026-05-03T09:11:18Z</time></trkpt><trkpt lat="44.40256339789855" lon="9.883910956971015"><ele>482.0</ele><time>2026-05-03T09:11:19Z</time></trkpt><trkpt lat="44.402790781368424" lon="9.883843858740436"><ele>482.0</ele><time>2026-05-03T09:11:20Z</time></trkpt><trkpt lat="44.40301158246966" lon="9.883874067242747"><ele>488.5</ele><time>2026-05-03T09:11:21Z</time></trkpt><trkpt lat="44.4032404163815" lon="9.884001573151446"><ele>495.0</ele><time>2026-05-03T09:11:22Z</time></trkpt><trkpt lat="44.40348218305685" lon="9.884090291389466"><ele>495.0</ele><time>2026-05-03T09:11:23Z</time></trkpt><trkpt lat="44.403695028067204" lon="9.884144428133366"><ele>495.0</ele><time>2026-05-03T09:11:24Z</time></trkpt><trkpt lat="44.40383146321974" lon="9.884314510453422"><ele>495.0</ele><time>2026-05-03T09:11:25Z</time></trkpt><trkpt lat="44.40400639960823" lon="9.884521861903137"><ele>495.0</ele><time>2026-05-03T09:11:26Z</time></trkpt><trkpt lat="44.40420694175466" lon="9.884709547878165"><ele>495.0</ele><time>2026-05-03T09:11:27Z</time></trkpt><trkpt lat="44.40442336726931" lon="9.884885912714369"><ele>495.0</ele><time>2026-05-03T09:11:28Z</time></trkpt><trkpt lat="44.404609618510264" lon="9.88503068895275"><ele>495.0</ele><time>2026-05-03T09:11:29Z</time></trkpt><trkpt lat="44.404724696467376" lon="9.885152715345871"><ele>495.0</ele><time>2026-05-03T09:11:30Z</time></trkpt><trkpt lat="44.404805408388725" lon="9.885228473468935"><ele>495.25</ele><time>2026-05-03T09:11:31Z</time></trkpt><trkpt lat="44.40488291674179" lon="9.885229977755316"><ele>495.5</ele><time>2026-05-03T09:11:32Z</time></trkpt><trkpt lat="44.40495456591099" lon="9.88512656899056"><ele>495.75</ele><time>2026-05-03T09:11:33Z</time></trkpt><trkpt lat="44.40497434502039" lon="9.884940727352966"><ele>496.0</ele><time>2026-05-03T09:11:34Z</time></trkpt><trkpt lat="44.40490414644994" lon="9.884758743231357"><ele>495.6666666666667</ele><time>2026-05-03T09:11:35Z</time></trkpt><trkpt lat="44.40474433150247" lon="9.88459672135804"><ele>495.33333333333337</ele><time>2026-05-03T09:11:36Z</time></trkpt><trkpt lat="44.404567506392866" lon="9.884391526069397"><ele>495.0</ele><time>2026-05-03T09:11:37Z</time></trkpt><trkpt lat="44.40440526656338" lon="9.884135971772205"><ele>502.0</ele><time>2026-05-03T09:11:38Z</time></trkpt><trkpt lat="44.40423368800328" lon="9.883893008570071"><ele>509.0</ele><time>2026-05-03T09:11:39Z</time></trkpt><trkpt lat="44.40405317904086" lon="9.88369120324098"><ele>509.0</ele><time>2026-05-03T09:11:40Z</time></trkpt><trkpt lat="44.40387960177357" lon="9.883563808399453"><ele>509.0</ele><time>2026-05-03T09:11:41Z</time></trkpt><trkpt lat="44.40373029709888" lon="9.883470069812116"><ele>509.0</ele><time>2026-05-03T09:11:42Z</time></trkpt><trkpt lat="44.4036495942384" lon="9.883405969078312"><ele>509.0</ele><time>2026-05-03T09:11:43Z</time></trkpt><trkpt lat="44.40372219167293" lon="9.883237812631195"><ele>509.0</ele><time>2026-05-03T09:11:45Z</time></trkpt><trkpt lat="44.40381663057482" lon="9.883250614438296"><ele>509.0</ele><time>2026-05-03T09:11:46Z</time></trkpt><trkpt lat="44.40400399701662" lon="9.883382492515539"><ele>509.0</ele><time>2026-05-03T09:11:47Z</time></trkpt><trkpt lat="44.404172514312776" lon="9.883496082446362"><ele>509.0</ele><time>2026-05-03T09:11:48Z</time></trkpt><trkpt lat="44.40439160325626" lon="9.883605094781782"><ele>509.0</ele><time>2026-05-03T09:11:49Z</time></trkpt><trkpt lat="44.40461632975788" lon="9.883713228331024"><ele>517.0</ele><time>2026-05-03T09:11:50Z</time></trkpt><trkpt lat="44.40484248572406" lon="9.883826165511971"><ele>525.0</ele><time>2026-05-03T09:11:51Z</time></trkpt><trkpt lat="44.40507704372865" lon="9.88403270778794"><ele>525.0</ele><time>2026-05-03T09:11:52Z</time></trkpt><trkpt lat="44.405308420205884" lon="9.884235269513583"><ele>525.0</ele><time>2026-05-03T09:11:53Z</time></trkpt><trkpt lat="44.405513684245825" lon="9.88446414206208"><ele>529.0</ele><time>2026-05-03T09:11:54Z</time></trkpt><trkpt lat="44.40566116327665" lon="9.884730330888642"><ele>533.0</ele><time>2026-05-03T09:11:55Z</time></trkpt><trkpt lat="44.40581299753755" lon="9.884991720467644"><ele>526.6666666666666</ele><time>2026-05-03T09:11:56Z</time></trkpt><trkpt lat="44.40591651323234" lon="9.8852331024667"><ele>520.3333333333334</ele><time>2026-05-03T09:11:57Z</time></trkpt><trkpt lat="44.406043276271475" lon="9.885422359501714"><ele>514.0</ele><time>2026-05-03T09:11:58Z</time></trkpt><trkpt lat="44.40624380137726" lon="9.885583724440377"><ele>527.0</ele><time>2026-05-03T09:11:59Z</time></trkpt><trkpt lat="44.406464451376735" lon="9.88575052726708"><ele>540.0</ele><time>2026-05-03T09:11:59.999Z</time></trkpt><trkpt lat="44.406673561033145" lon="9.885910254576498"><ele>526.0</ele><time>2026-05-03T09:12:00.999Z</time></trkpt><trkpt lat="44.406906207849325" lon="9.886018528613048"><ele>512.0</ele><time>2026-05-03T09:12:01.999Z</time></trkpt><trkpt lat="44.40715008379907" lon="9.886097092696915"><ele>522.5</ele><time>2026-05-03T09:12:02.999Z</time></trkpt><trkpt lat="44.40737862618459" lon="9.886186124612493"><ele>533.0</ele><time>2026-05-03T09:12:03.999Z</time></trkpt><trkpt lat="44.40759271628528" lon="9.88629065331659"><ele>533.0</ele><time>2026-05-03T09:12:04.999Z</time></trkpt><trkpt lat="44.40777690540046" lon="9.886474736633787"><ele>533.0</ele><time>2026-05-03T09:12:05.999Z</time></trkpt><trkpt lat="44.407977423542306" lon="9.886663165345386"><ele>536.5</ele><time>2026-05-03T09:12:06.999Z</time></trkpt><trkpt lat="44.4081613413335" lon="9.886915713387753"><ele>540.0</ele><time>2026-05-03T09:12:07.999Z</time></trkpt><trkpt lat="44.40835398049417" lon="9.887177523024045"><ele>540.0</ele><time>2026-05-03T09:12:08.999Z</time></trkpt><trkpt lat="44.408558921875915" lon="9.887398847588353"><ele>540.0</ele><time>2026-05-03T09:12:09.999Z</time></trkpt><trkpt lat="44.408792177510556" lon="9.88757004270688"><ele>546.0</ele><time>2026-05-03T09:12:10.999Z</time></trkpt><trkpt lat="44.4089939858915" lon="9.887721148938182"><ele>552.0</ele><time>2026-05-03T09:12:11.999Z</time></trkpt><trkpt lat="44.409139453512076" lon="9.887931563914465"><ele>558.0</ele><time>2026-05-03T09:12:12.999Z</time></trkpt><trkpt lat="44.40928930595143" lon="9.888136404800752"><ele>558.0</ele><time>2026-05-03T09:12:13.999Z</time></trkpt><trkpt lat="44.40940708470396" lon="9.888324719539973"><ele>558.0</ele><time>2026-05-03T09:12:14.999Z</time></trkpt><trkpt lat="44.40947747990341" lon="9.888448686685598"><ele>558.0</ele><time>2026-05-03T09:12:15.999Z</time></trkpt><trkpt lat="44.40948029064511" lon="9.888569458644408"><ele>558.0</ele><time>2026-05-03T09:12:16.999Z</time></trkpt><trkpt lat="44.40939004700512" lon="9.888690137590842"><ele>560.6666666666666</ele><time>2026-05-03T09:12:17.999Z</time></trkpt><trkpt lat="44.409281861156565" lon="9.888872609754756"><ele>563.3333333333333</ele><time>2026-05-03T09:12:18.999Z</time></trkpt><trkpt lat="44.409149977370404" lon="9.889093645694922"><ele>566.0</ele><time>2026-05-03T09:12:19.999Z</time></trkpt><trkpt lat="44.409024225697806" lon="9.889332454887645"><ele>568.6666666666666</ele><time>2026-05-03T09:12:20.999Z</time></trkpt><trkpt lat="44.40892012435676" lon="9.889549877999828"><ele>571.3333333333334</ele><time>2026-05-03T09:12:21.999Z</time></trkpt><trkpt lat="44.40885818381581" lon="9.889764084603934"><ele>574.0</ele><time>2026-05-03T09:12:22.999Z</time></trkpt><trkpt lat="44.40884732089852" lon="9.89003305406077"><ele>570.0</ele><time>2026-05-03T09:12:23.999Z</time></trkpt><trkpt lat="44.408899094884625" lon="9.890307863254197"><ele>566.0</ele><time>2026-05-03T09:12:24.999Z</time></trkpt><trkpt lat="44.40900844665485" lon="9.890561513194644"><ele>562.0</ele><time>2026-05-03T09:12:25.999Z</time></trkpt><trkpt lat="44.40917960586602" lon="9.890816528774792"><ele>566.3333333333334</ele><time>2026-05-03T09:12:26.999Z</time></trkpt><trkpt lat="44.40933739872648" lon="9.891030942959917"><ele>570.6666666666666</ele><time>2026-05-03T09:12:27.999Z</time></trkpt><trkpt lat="44.40949473491049" lon="9.891182556776748"><ele>575.0</ele><time>2026-05-03T09:12:28.999Z</time></trkpt><trkpt lat="44.40971191072918" lon="9.89128731866817"><ele>575.0</ele><time>2026-05-03T09:12:29.999Z</time></trkpt><trkpt lat="44.40995478290269" lon="9.89137732860453"><ele>575.0</ele><time>2026-05-03T09:12:30.999Z</time></trkpt><trkpt lat="44.410139261777886" lon="9.89148906816332"><ele>575.0</ele><time>2026-05-03T09:12:31.999Z</time></trkpt><trkpt lat="44.41030503717806" lon="9.891599999685434"><ele>575.0</ele><time>2026-05-03T09:12:32.999Z</time></trkpt><trkpt lat="44.410694196037326" lon="9.891824593533215"><ele>583.0</ele><time>2026-05-03T09:12:33.999Z</time></trkpt><trkpt lat="44.41095182996655" lon="9.89196986795962"><ele>591.0</ele><time>2026-05-03T09:12:34.999Z</time></trkpt><trkpt lat="44.41118288290188" lon="9.892103944556847"><ele>592.0</ele><time>2026-05-03T09:12:35.999Z</time></trkpt><trkpt lat="44.41138837894072" lon="9.892221048193402"><ele>593.0</ele><time>2026-05-03T09:12:36.999Z</time></trkpt><trkpt lat="44.41156789211029" lon="9.892330696115817"><ele>594.0</ele><time>2026-05-03T09:12:37.999Z</time></trkpt><trkpt lat="44.41169901687385" lon="9.89249979885185"><ele>597.75</ele><time>2026-05-03T09:12:38.999Z</time></trkpt><trkpt lat="44.41181622193495" lon="9.892653642641834"><ele>601.5</ele><time>2026-05-03T09:12:39.999Z</time></trkpt><trkpt lat="44.41191819106617" lon="9.892796497877512"><ele>605.25</ele><time>2026-05-03T09:12:41Z</time></trkpt><trkpt lat="44.41199951983981" lon="9.892935466235613"><ele>609.0</ele><time>2026-05-03T09:12:42Z</time></trkpt><trkpt lat="44.41207628571993" lon="9.89310762222138"><ele>609.0</ele><time>2026-05-03T09:12:43Z</time></trkpt><trkpt lat="44.41214458800048" lon="9.893277578301682"><ele>609.0</ele><time>2026-05-03T09:12:44Z</time></trkpt><trkpt lat="44.41222349566484" lon="9.89344844684324"><ele>609.0</ele><time>2026-05-03T09:12:45Z</time></trkpt><trkpt lat="44.412338967204484" lon="9.893615083182942"><ele>611.0</ele><time>2026-05-03T09:12:46Z</time></trkpt><trkpt lat="44.41247711311345" lon="9.893864688954965"><ele>613.0</ele><time>2026-05-03T09:12:47Z</time></trkpt><trkpt lat="44.412653718060945" lon="9.894087171506314"><ele>611.0</ele><time>2026-05-03T09:12:48Z</time></trkpt><trkpt lat="44.41282126847004" lon="9.894301247653834"><ele>609.0</ele><time>2026-05-03T09:12:49Z</time></trkpt><trkpt lat="44.41296308929837" lon="9.894462841335361"><ele>607.0</ele><time>2026-05-03T09:12:50Z</time></trkpt><trkpt lat="44.41301383942442" lon="9.894699312333264"><ele>607.0</ele><time>2026-05-03T09:12:51Z</time></trkpt><trkpt lat="44.413056102529055" lon="9.894982545539829"><ele>607.0</ele><time>2026-05-03T09:12:52Z</time></trkpt><trkpt lat="44.41310076936208" lon="9.89532176252178"><ele>609.5</ele><time>2026-05-03T09:12:53Z</time></trkpt><trkpt lat="44.41314101911574" lon="9.895653828616993"><ele>612.0</ele><time>2026-05-03T09:12:54Z</time></trkpt><trkpt lat="44.41317665997059" lon="9.895980358116057"><ele>612.0</ele><time>2026-05-03T09:12:55Z</time></trkpt><trkpt lat="44.4132027264851" lon="9.896300404350447"><ele>612.0</ele><time>2026-05-03T09:12:56Z</time></trkpt><trkpt lat="44.41324870423456" lon="9.896585461957297"><ele>612.0</ele><time>2026-05-03T09:12:57Z</time></trkpt><trkpt lat="44.413308919974966" lon="9.896834405024775"><ele>605.6666666666666</ele><time>2026-05-03T09:12:58Z</time></trkpt><trkpt lat="44.41338056125389" lon="9.897050077856647"><ele>599.3333333333333</ele><time>2026-05-03T09:12:59Z</time></trkpt><trkpt lat="44.41349832957053" lon="9.897213494884678"><ele>593.0</ele><time>2026-05-03T09:13:00Z</time></trkpt><trkpt lat="44.41369342378251" lon="9.897314205619992"><ele>597.6666666666666</ele><time>2026-05-03T09:13:01Z</time></trkpt><trkpt lat="44.41391737563419" lon="9.897407334164997"><ele>602.3333333333334</ele><time>2026-05-03T09:13:02Z</time></trkpt><trkpt lat="44.41409941905871" lon="9.897529134842815"><ele>607.0</ele><time>2026-05-03T09:13:03Z</time></trkpt><trkpt lat="44.414210680723556" lon="9.897727625814321"><ele>607.0</ele><time>2026-05-03T09:13:04Z</time></trkpt><trkpt lat="44.41429848502142" lon="9.897987616505121"><ele>607.0</ele><time>2026-05-03T09:13:05Z</time></trkpt><trkpt lat="44.41434164326404" lon="9.89830070639118"><ele>607.0</ele><time>2026-05-03T09:13:06Z</time></trkpt><trkpt lat="44.41439121332227" lon="9.898645917890883"><ele>601.5</ele><time>2026-05-03T09:13:07Z</time></trkpt><trkpt lat="44.41439109459604" lon="9.89892563253403"><ele>596.0</ele><time>2026-05-03T09:13:08Z</time></trkpt><trkpt lat="44.41448137188151" lon="9.899335462700842"><ele>593.0</ele><time>2026-05-03T09:13:09Z</time></trkpt><trkpt lat="44.41451607990542" lon="9.899638490170576"><ele>590.0</ele><time>2026-05-03T09:13:10Z</time></trkpt><trkpt lat="44.41458042142906" lon="9.899907269987962"><ele>587.0</ele><time>2026-05-03T09:13:11Z</time></trkpt><trkpt lat="44.414715197045865" lon="9.900128595683205"><ele>597.0</ele><time>2026-05-03T09:13:12Z</time></trkpt><trkpt lat="44.41487876476525" lon="9.900356868952436"><ele>607.0</ele><time>2026-05-03T09:13:13Z</time></trkpt><trkpt lat="44.415000743350305" lon="9.900643012104746"><ele>596.5</ele><time>2026-05-03T09:13:14Z</time></trkpt><trkpt lat="44.41515461771376" lon="9.90093769590096"><ele>586.0</ele><time>2026-05-03T09:13:15Z</time></trkpt><trkpt lat="44.415325585991035" lon="9.901172507848687"><ele>586.0</ele><time>2026-05-03T09:13:16Z</time></trkpt><trkpt lat="44.415415613722494" lon="9.901435674667153"><ele>586.0</ele><time>2026-05-03T09:13:17Z</time></trkpt><trkpt lat="44.41549430929184" lon="9.901729627400705"><ele>586.0</ele><time>2026-05-03T09:13:18Z</time></trkpt><trkpt lat="44.41558021824773" lon="9.90197500038249"><ele>590.3333333333334</ele><time>2026-05-03T09:13:19Z</time></trkpt><trkpt lat="44.41567105999989" lon="9.902162154399953"><ele>594.6666666666666</ele><time>2026-05-03T09:13:20Z</time></trkpt><trkpt lat="44.415804558419055" lon="9.902290115743197"><ele>599.0</ele><time>2026-05-03T09:13:21Z</time></trkpt><trkpt lat="44.415995490855884" lon="9.90231705783249"><ele>599.0</ele><time>2026-05-03T09:13:22Z</time></trkpt><trkpt lat="44.41622601036826" lon="9.90235225918357"><ele>599.0</ele><time>2026-05-03T09:13:23Z</time></trkpt><trkpt lat="44.416425732990206" lon="9.902350610453922"><ele>599.0</ele><time>2026-05-03T09:13:24Z</time></trkpt><trkpt lat="44.41660873852554" lon="9.902343674113764"><ele>600.6666666666666</ele><time>2026-05-03T09:13:25Z</time></trkpt><trkpt lat="44.41680963703242" lon="9.902382021198454"><ele>602.3333333333334</ele><time>2026-05-03T09:13:26Z</time></trkpt><trkpt lat="44.41695028071006" lon="9.902408867032337"><ele>604.0</ele><time>2026-05-03T09:13:27Z</time></trkpt><trkpt lat="44.41706947880195" lon="9.902441531325108"><ele>601.5</ele><time>2026-05-03T09:13:28Z</time></trkpt><trkpt lat="44.417180183861376" lon="9.90249587757745"><ele>599.0</ele><time>2026-05-03T09:13:29Z</time></trkpt><trkpt lat="44.417271324234186" lon="9.90257939235922"><ele>596.5</ele><time>2026-05-03T09:13:30Z</time></trkpt><trkpt lat="44.41733044884584" lon="9.902734651482062"><ele>594.0</ele><time>2026-05-03T09:13:31Z</time></trkpt><trkpt lat="44.417419835285436" lon="9.902921091665217"><ele>594.0</ele><time>2026-05-03T09:13:32Z</time></trkpt><trkpt lat="44.41753482183227" lon="9.903090378311633"><ele>594.0</ele><time>2026-05-03T09:13:33Z</time></trkpt><trkpt lat="44.417681385251846" lon="9.90321207535627"><ele>594.0</ele><time>2026-05-03T09:13:34Z</time></trkpt><trkpt lat="44.41786955996408" lon="9.903291205834478"><ele>595.3333333333334</ele><time>2026-05-03T09:13:35Z</time></trkpt><trkpt lat="44.41806331668821" lon="9.903349774526257"><ele>596.6666666666667</ele><time>2026-05-03T09:13:36Z</time></trkpt><trkpt lat="44.418232899774765" lon="9.903390043391168"><ele>598.0</ele><time>2026-05-03T09:13:37Z</time></trkpt><trkpt lat="44.418382746019724" lon="9.903399959486526"><ele>598.0</ele><time>2026-05-03T09:13:38Z</time></trkpt><trkpt lat="44.41855160241158" lon="9.903402845940276"><ele>598.0</ele><time>2026-05-03T09:13:39Z</time></trkpt><trkpt lat="44.418735441835516" lon="9.903267272129472"><ele>598.0</ele><time>2026-05-03T09:13:40Z</time></trkpt><trkpt lat="44.41890462911484" lon="9.90320053389169"><ele>599.3333333333334</ele><time>2026-05-03T09:13:41Z</time></trkpt><trkpt lat="44.41905587669933" lon="9.903211550744405"><ele>600.6666666666666</ele><time>2026-05-03T09:13:42Z</time></trkpt><trkpt lat="44.41917953980201" lon="9.903310752105321"><ele>602.0</ele><time>2026-05-03T09:13:43Z</time></trkpt><trkpt lat="44.41931857332271" lon="9.90346426126679"><ele>602.0</ele><time>2026-05-03T09:13:44Z</time></trkpt><trkpt lat="44.41950033220366" lon="9.903653206746974"><ele>602.0</ele><time>2026-05-03T09:13:45Z</time></trkpt><trkpt lat="44.41970881969717" lon="9.903796390411369"><ele>605.0</ele><time>2026-05-03T09:13:46Z</time></trkpt><trkpt lat="44.41989532921161" lon="9.903940460935624"><ele>608.0</ele><time>2026-05-03T09:13:47Z</time></trkpt><trkpt lat="44.42003269336833" lon="9.904092442129153"><ele>611.0</ele><time>2026-05-03T09:13:48Z</time></trkpt><trkpt lat="44.42013991668252" lon="9.904288540186615"><ele>611.0</ele><time>2026-05-03T09:13:49Z</time></trkpt><trkpt lat="44.42026509035121" lon="9.904516022845865"><ele>611.0</ele><time>2026-05-03T09:13:50Z</time></trkpt><trkpt lat="44.42039842473308" lon="9.904720941990778"><ele>611.0</ele><time>2026-05-03T09:13:51Z</time></trkpt><trkpt lat="44.420560381745034" lon="9.90488599326572"><ele>612.3333333333333</ele><time>2026-05-03T09:13:52Z</time></trkpt><trkpt lat="44.420738970115146" lon="9.905005176652434"><ele>613.6666666666666</ele><time>2026-05-03T09:13:53Z</time></trkpt><trkpt lat="44.42093703987087" lon="9.905046179157207"><ele>615.0</ele><time>2026-05-03T09:13:54Z</time></trkpt><trkpt lat="44.421174672737585" lon="9.905001118790382"><ele>620.5</ele><time>2026-05-03T09:13:55Z</time></trkpt><trkpt lat="44.4214323479975" lon="9.904884524886956"><ele>626.0</ele><time>2026-05-03T09:13:56Z</time></trkpt><trkpt lat="44.42164383450208" lon="9.904805620424355"><ele>626.0</ele><time>2026-05-03T09:13:57Z</time></trkpt><trkpt lat="44.42182913908673" lon="9.904775636782722"><ele>626.0</ele><time>2026-05-03T09:13:58Z</time></trkpt><trkpt lat="44.42199146922513" lon="9.904762763948822"><ele>626.0</ele><time>2026-05-03T09:13:59Z</time></trkpt><trkpt lat="44.42213547667912" lon="9.904750012425877"><ele>627.6666666666666</ele><time>2026-05-03T09:14:00Z</time></trkpt><trkpt lat="44.42227209853676" lon="9.904707353983754"><ele>629.3333333333334</ele><time>2026-05-03T09:14:01Z</time></trkpt><trkpt lat="44.42241525620658" lon="9.904612193449127"><ele>631.0</ele><time>2026-05-03T09:14:02Z</time></trkpt><trkpt lat="44.42252863858902" lon="9.904449789358141"><ele>631.0</ele><time>2026-05-03T09:14:02.999Z</time></trkpt><trkpt lat="44.42263532795411" lon="9.904295929285526"><ele>631.0</ele><time>2026-05-03T09:14:03.999Z</time></trkpt><trkpt lat="44.422752816630805" lon="9.904159005378519"><ele>631.0</ele><time>2026-05-03T09:14:04.999Z</time></trkpt><trkpt lat="44.422892139688685" lon="9.904067722928582"><ele>632.3333333333334</ele><time>2026-05-03T09:14:05.999Z</time></trkpt><trkpt lat="44.423049896024295" lon="9.90406674210462"><ele>633.6666666666666</ele><time>2026-05-03T09:14:06.999Z</time></trkpt><trkpt lat="44.42321599425914" lon="9.904056149043887"><ele>635.0</ele><time>2026-05-03T09:14:07.999Z</time></trkpt><trkpt lat="44.42339749487406" lon="9.90408180789289"><ele>635.0</ele><time>2026-05-03T09:14:08.999Z</time></trkpt><trkpt lat="44.42358296412557" lon="9.904141507341294"><ele>635.0</ele><time>2026-05-03T09:14:09.999Z</time></trkpt><trkpt lat="44.42376769476575" lon="9.904235602984864"><ele>635.0</ele><time>2026-05-03T09:14:10.999Z</time></trkpt><trkpt lat="44.4239461496971" lon="9.904335210695969"><ele>636.25</ele><time>2026-05-03T09:14:11.999Z</time></trkpt><trkpt lat="44.42409005610219" lon="9.904437207507623"><ele>637.5</ele><time>2026-05-03T09:14:12.999Z</time></trkpt><trkpt lat="44.42418614703474" lon="9.904570645259103"><ele>638.75</ele><time>2026-05-03T09:14:13.999Z</time></trkpt><trkpt lat="44.42421873886647" lon="9.904741488502857"><ele>640.0</ele><time>2026-05-03T09:14:14.999Z</time></trkpt><trkpt lat="44.4242321585559" lon="9.904944311170063"><ele>636.75</ele><time>2026-05-03T09:14:15.999Z</time></trkpt><trkpt lat="44.42427597022132" lon="9.905106684641071"><ele>633.5</ele><time>2026-05-03T09:14:16.999Z</time></trkpt><trkpt lat="44.42432863296115" lon="9.90525496728049"><ele>630.25</ele><time>2026-05-03T09:14:17.999Z</time></trkpt><trkpt lat="44.42439689383974" lon="9.90541637989721"><ele>627.0</ele><time>2026-05-03T09:14:18.999Z</time></trkpt><trkpt lat="44.424493035678005" lon="9.905587974694068"><ele>627.0</ele><time>2026-05-03T09:14:19.999Z</time></trkpt><trkpt lat="44.424599958880854" lon="9.905753520758259"><ele>627.0</ele><time>2026-05-03T09:14:20.999Z</time></trkpt><trkpt lat="44.424720182739534" lon="9.905895917882745"><ele>627.0</ele><time>2026-05-03T09:14:21.999Z</time></trkpt><trkpt lat="44.42491109734202" lon="9.90603353787655"><ele>630.5</ele><time>2026-05-03T09:14:22.999Z</time></trkpt><trkpt lat="44.42513984778006" lon="9.906194988106773"><ele>634.0</ele><time>2026-05-03T09:14:23.999Z</time></trkpt><trkpt lat="44.42535689577404" lon="9.90639413940835"><ele>641.0</ele><time>2026-05-03T09:14:24.999Z</time></trkpt><trkpt lat="44.425504478451195" lon="9.906653654750839"><ele>648.0</ele><time>2026-05-03T09:14:25.999Z</time></trkpt><trkpt lat="44.42567045273076" lon="9.906924614968617"><ele>648.0</ele><time>2026-05-03T09:14:26.999Z</time></trkpt><trkpt lat="44.42579041871245" lon="9.907192127553468"><ele>648.0</ele><time>2026-05-03T09:14:27.999Z</time></trkpt><trkpt lat="44.42588008096321" lon="9.907462129270655"><ele>648.0</ele><time>2026-05-03T09:14:28.999Z</time></trkpt><trkpt lat="44.42598289546323" lon="9.90767342150943"><ele>647.5</ele><time>2026-05-03T09:14:29.999Z</time></trkpt><trkpt lat="44.426061176422266" lon="9.907842527835891"><ele>647.0</ele><time>2026-05-03T09:14:30.999Z</time></trkpt><trkpt lat="44.42615754958941" lon="9.9079340878202"><ele>646.5</ele><time>2026-05-03T09:14:31.999Z</time></trkpt><trkpt lat="44.42629565095768" lon="9.907925375184595"><ele>646.0</ele><time>2026-05-03T09:14:32.999Z</time></trkpt><trkpt lat="44.42647216244877" lon="9.907820005225714"><ele>646.0</ele><time>2026-05-03T09:14:33.999Z</time></trkpt><trkpt lat="44.426668667271635" lon="9.907681659535939"><ele>646.0</ele><time>2026-05-03T09:14:34.999Z</time></trkpt><trkpt lat="44.426843919419255" lon="9.907677219161828"><ele>646.0</ele><time>2026-05-03T09:14:35.999Z</time></trkpt><trkpt lat="44.42715143432612" lon="9.907815812842031"><ele>649.3333333333334</ele><time>2026-05-03T09:14:36.999Z</time></trkpt><trkpt lat="44.42730745081572" lon="9.907869380084458"><ele>652.6666666666666</ele><time>2026-05-03T09:14:37.999Z</time></trkpt><trkpt lat="44.42755845413266" lon="9.907990754726713"><ele>656.0</ele><time>2026-05-03T09:14:38.999Z</time></trkpt><trkpt lat="44.42782320441221" lon="9.908109370460878"><ele>662.0</ele><time>2026-05-03T09:14:39.999Z</time></trkpt><trkpt lat="44.42808091447068" lon="9.908176801443132"><ele>668.0</ele><time>2026-05-03T09:14:40.999Z</time></trkpt><trkpt lat="44.428282210983426" lon="9.908326377767152"><ele>664.6666666666666</ele><time>2026-05-03T09:14:41.999Z</time></trkpt><trkpt lat="44.42847210209862" lon="9.908431406795101"><ele>661.3333333333334</ele><time>2026-05-03T09:14:42.999Z</time></trkpt><trkpt lat="44.42865301962526" lon="9.908533507289757"><ele>658.0</ele><time>2026-05-03T09:14:43.999Z</time></trkpt><trkpt lat="44.428867854136016" lon="9.908576884280272"><ele>658.0</ele><time>2026-05-03T09:14:44.999Z</time></trkpt><trkpt lat="44.42910665052822" lon="9.908539544264755"><ele>658.0</ele><time>2026-05-03T09:14:45.999Z</time></trkpt><trkpt lat="44.42934705002085" lon="9.908433995715114"><ele>659.3333333333334</ele><time>2026-05-03T09:14:47Z</time></trkpt><trkpt lat="44.429523443912196" lon="9.908372329498226"><ele>660.6666666666666</ele><time>2026-05-03T09:14:48Z</time></trkpt><trkpt lat="44.42964427969897" lon="9.908451181748546"><ele>662.0</ele><time>2026-05-03T09:14:49Z</time></trkpt><trkpt lat="44.429737184978386" lon="9.908661370625506"><ele>662.0</ele><time>2026-05-03T09:14:50Z</time></trkpt><trkpt lat="44.42984001560754" lon="9.908734591024553"><ele>662.0</ele><time>2026-05-03T09:14:51Z</time></trkpt><trkpt lat="44.42995909894599" lon="9.908780605196876"><ele>662.0</ele><time>2026-05-03T09:14:52Z</time></trkpt><trkpt lat="44.4301279360014" lon="9.908777013508256"><ele>662.0</ele><time>2026-05-03T09:14:53Z</time></trkpt><trkpt lat="44.43030550345994" lon="9.908728160037095"><ele>661.0</ele><time>2026-05-03T09:14:54Z</time></trkpt><trkpt lat="44.43048219801272" lon="9.908566074022097"><ele>660.0</ele><time>2026-05-03T09:14:55Z</time></trkpt><trkpt lat="44.43066439092089" lon="9.908367356464993"><ele>659.0</ele><time>2026-05-03T09:14:56Z</time></trkpt><trkpt lat="44.43085851998973" lon="9.908184671495066"><ele>663.0</ele><time>2026-05-03T09:14:57Z</time></trkpt><trkpt lat="44.43105034438778" lon="9.908042686785015"><ele>667.0</ele><time>2026-05-03T09:14:58Z</time></trkpt><trkpt lat="44.43124572242619" lon="9.908041330405585"><ele>671.0</ele><time>2026-05-03T09:14:59Z</time></trkpt><trkpt lat="44.43148047473612" lon="9.90800102378946"><ele>671.0</ele><time>2026-05-03T09:15:00Z</time></trkpt><trkpt lat="44.43173181314336" lon="9.908022879530687"><ele>671.0</ele><time>2026-05-03T09:15:01Z</time></trkpt><trkpt lat="44.43198157729114" lon="9.908034206429837"><ele>674.3333333333333</ele><time>2026-05-03T09:15:02Z</time></trkpt><trkpt lat="44.43219651793216" lon="9.908049556666278"><ele>677.6666666666666</ele><time>2026-05-03T09:15:03Z</time></trkpt><trkpt lat="44.43237670933016" lon="9.908132136115027"><ele>681.0</ele><time>2026-05-03T09:15:04Z</time></trkpt><trkpt lat="44.43257917041545" lon="9.908252060134133"><ele>681.0</ele><time>2026-05-03T09:15:05Z</time></trkpt><trkpt lat="44.432770037321276" lon="9.908367141474509"><ele>681.0</ele><time>2026-05-03T09:15:06Z</time></trkpt><trkpt lat="44.43293047853416" lon="9.90844065764975"><ele>681.0</ele><time>2026-05-03T09:15:07Z</time></trkpt><trkpt lat="44.43306201461078" lon="9.908457908034025"><ele>682.0</ele><time>2026-05-03T09:15:08Z</time></trkpt><trkpt lat="44.433203654386155" lon="9.908361116291454"><ele>683.0</ele><time>2026-05-03T09:15:09Z</time></trkpt><trkpt lat="44.43333084941535" lon="9.90815832720693"><ele>684.0</ele><time>2026-05-03T09:15:10Z</time></trkpt><trkpt lat="44.433428690933354" lon="9.907929310397858"><ele>684.0</ele><time>2026-05-03T09:15:11Z</time></trkpt><trkpt lat="44.43350460603892" lon="9.907829327719432"><ele>684.0</ele><time>2026-05-03T09:15:12Z</time></trkpt><trkpt lat="44.433618875770904" lon="9.907870326539662"><ele>684.0</ele><time>2026-05-03T09:15:13Z</time></trkpt><trkpt lat="44.43369606430021" lon="9.908039749173481"><ele>684.0</ele><time>2026-05-03T09:15:14Z</time></trkpt><trkpt lat="44.43380564599611" lon="9.908257690756969"><ele>687.5</ele><time>2026-05-03T09:15:15Z</time></trkpt><trkpt lat="44.433943459485704" lon="9.908523897326429"><ele>691.0</ele><time>2026-05-03T09:15:16Z</time></trkpt><trkpt lat="44.4340810177884" lon="9.90876513750604"><ele>691.0</ele><time>2026-05-03T09:15:17Z</time></trkpt><trkpt lat="44.43420352123385" lon="9.908949356629286"><ele>691.0</ele><time>2026-05-03T09:15:18Z</time></trkpt><trkpt lat="44.434357446858606" lon="9.90906196610412"><ele>691.0</ele><time>2026-05-03T09:15:19Z</time></trkpt><trkpt lat="44.43456108805533" lon="9.909099359734622"><ele>690.6666666666667</ele><time>2026-05-03T09:15:20Z</time></trkpt><trkpt lat="44.43476250245435" lon="9.909094557650649"><ele>690.3333333333334</ele><time>2026-05-03T09:15:21Z</time></trkpt><trkpt lat="44.434923517153095" lon="9.909129299815358"><ele>690.0</ele><time>2026-05-03T09:15:22Z</time></trkpt><trkpt lat="44.43503913164168" lon="9.909267151216378"><ele>693.3333333333334</ele><time>2026-05-03T09:15:23Z</time></trkpt><trkpt lat="44.435108878504025" lon="9.909497059777392"><ele>696.6666666666667</ele><time>2026-05-03T09:15:24Z</time></trkpt><trkpt lat="44.43524040932425" lon="9.909684707160645"><ele>700.0</ele><time>2026-05-03T09:15:25Z</time></trkpt><trkpt lat="44.43540221051601" lon="9.909863707077012"><ele>699.5</ele><time>2026-05-03T09:15:26Z</time></trkpt><trkpt lat="44.435614955213374" lon="9.909991313527023"><ele>699.0</ele><time>2026-05-03T09:15:27Z</time></trkpt><trkpt lat="44.43584975833176" lon="9.910107795785015"><ele>705.0</ele><time>2026-05-03T09:15:28Z</time></trkpt><trkpt lat="44.43606967570081" lon="9.910230570284996"><ele>711.0</ele><time>2026-05-03T09:15:29Z</time></trkpt><trkpt lat="44.436296472238425" lon="9.910360110659967"><ele>711.0</ele><time>2026-05-03T09:15:30Z</time></trkpt><trkpt lat="44.4364882689949" lon="9.910466988668128"><ele>711.0</ele><time>2026-05-03T09:15:31Z</time></trkpt><trkpt lat="44.43666376936058" lon="9.910533619965957"><ele>711.0</ele><time>2026-05-03T09:15:32Z</time></trkpt><trkpt lat="44.43685188954472" lon="9.910506222131456"><ele>711.0</ele><time>2026-05-03T09:15:33Z</time></trkpt><trkpt lat="44.43705727705677" lon="9.910361215400169"><ele>711.0</ele><time>2026-05-03T09:15:34Z</time></trkpt><trkpt lat="44.437254881875035" lon="9.910150626152996"><ele>710.0</ele><time>2026-05-03T09:15:35Z</time></trkpt><trkpt lat="44.43738208991052" lon="9.909859016767282"><ele>709.0</ele><time>2026-05-03T09:15:36Z</time></trkpt><trkpt lat="44.43754689038734" lon="9.909688577807039"><ele>708.0</ele><time>2026-05-03T09:15:37Z</time></trkpt><trkpt lat="44.437761772655605" lon="9.909616983728283"><ele>710.0</ele><time>2026-05-03T09:15:38Z</time></trkpt><trkpt lat="44.43800308556205" lon="9.90965301277014"><ele>712.0</ele><time>2026-05-03T09:15:39Z</time></trkpt><trkpt lat="44.438249190722075" lon="9.90978943651172"><ele>712.0</ele><time>2026-05-03T09:15:40Z</time></trkpt><trkpt lat="44.43850907564858" lon="9.909836203742044"><ele>712.0</ele><time>2026-05-03T09:15:41Z</time></trkpt><trkpt lat="44.438754911044555" lon="9.909871924200715"><ele>711.6666666666667</ele><time>2026-05-03T09:15:42Z</time></trkpt><trkpt lat="44.438963830697936" lon="9.909846086883155"><ele>711.3333333333334</ele><time>2026-05-03T09:15:43Z</time></trkpt><trkpt lat="44.43911851305209" lon="9.909883803563588"><ele>711.0</ele><time>2026-05-03T09:15:44Z</time></trkpt><trkpt lat="44.43924238719121" lon="9.90996046824399"><ele>711.0</ele><time>2026-05-03T09:15:45Z</time></trkpt><trkpt lat="44.43934082332611" lon="9.910066155158347"><ele>711.0</ele><time>2026-05-03T09:15:46Z</time></trkpt><trkpt lat="44.439353646403326" lon="9.910293288192083"><ele>711.0</ele><time>2026-05-03T09:15:47Z</time></trkpt><trkpt lat="44.43944407673314" lon="9.910423077651142"><ele>711.0</ele><time>2026-05-03T09:15:48Z</time></trkpt><trkpt lat="44.43956340880687" lon="9.910538351669846"><ele>712.6666666666666</ele><time>2026-05-03T09:15:49Z</time></trkpt><trkpt lat="44.43973969978671" lon="9.910566453980993"><ele>714.3333333333333</ele><time>2026-05-03T09:15:50Z</time></trkpt><trkpt lat="44.43996569767697" lon="9.910517396393702"><ele>716.0</ele><time>2026-05-03T09:15:51Z</time></trkpt><trkpt lat="44.44020403315274" lon="9.91049055894889"><ele>716.0</ele><time>2026-05-03T09:15:52Z</time></trkpt><trkpt lat="44.44043567664004" lon="9.910450650684384"><ele>716.0</ele><time>2026-05-03T09:15:53Z</time></trkpt><trkpt lat="44.44068479701097" lon="9.910373269717844"><ele>722.5</ele><time>2026-05-03T09:15:54Z</time></trkpt><trkpt lat="44.44092511964736" lon="9.91028202890697"><ele>729.0</ele><time>2026-05-03T09:15:55Z</time></trkpt><trkpt lat="44.44112789220181" lon="9.91018122930963"><ele>731.5</ele><time>2026-05-03T09:15:56Z</time></trkpt><trkpt lat="44.44131986405225" lon="9.910029298422343"><ele>734.0</ele><time>2026-05-03T09:15:57Z</time></trkpt><trkpt lat="44.4415112795042" lon="9.90979809163352"><ele>734.0</ele><time>2026-05-03T09:15:58Z</time></trkpt><trkpt lat="44.44167324732498" lon="9.909568061516136"><ele>734.0</ele><time>2026-05-03T09:15:59Z</time></trkpt><trkpt lat="44.44180309552649" lon="9.90940357823047"><ele>734.0</ele><time>2026-05-03T09:15:59.999Z</time></trkpt><trkpt lat="44.441913409539495" lon="9.909334179514387"><ele>734.0</ele><time>2026-05-03T09:16:00.999Z</time></trkpt><trkpt lat="44.44201276413599" lon="9.909375046095738"><ele>734.0</ele><time>2026-05-03T09:16:01.999Z</time></trkpt><trkpt lat="44.44208449800309" lon="9.909498741749553"><ele>734.0</ele><time>2026-05-03T09:16:02.999Z</time></trkpt><trkpt lat="44.442188959051286" lon="9.909675950158475"><ele>734.0</ele><time>2026-05-03T09:16:03.999Z</time></trkpt><trkpt lat="44.442342996224355" lon="9.909829861880825"><ele>736.5</ele><time>2026-05-03T09:16:04.999Z</time></trkpt><trkpt lat="44.44250125686746" lon="9.909974404006736"><ele>739.0</ele><time>2026-05-03T09:16:05.999Z</time></trkpt><trkpt lat="44.44277179544793" lon="9.91003485735914"><ele>739.0</ele><time>2026-05-03T09:16:06.999Z</time></trkpt><trkpt lat="44.44292411888986" lon="9.909968309582135"><ele>739.0</ele><time>2026-05-03T09:16:07.999Z</time></trkpt><trkpt lat="44.443144281317366" lon="9.90988083511611"><ele>739.0</ele><time>2026-05-03T09:16:08.999Z</time></trkpt><trkpt lat="44.44332641401862" lon="9.909793866711329"><ele>743.3333333333334</ele><time>2026-05-03T09:16:09.999Z</time></trkpt><trkpt lat="44.44348256054467" lon="9.909706264029655"><ele>747.6666666666666</ele><time>2026-05-03T09:16:10.999Z</time></trkpt><trkpt lat="44.4436157616972" lon="9.909563540767303"><ele>752.0</ele><time>2026-05-03T09:16:11.999Z</time></trkpt><trkpt lat="44.443720915380524" lon="9.909355088438371"><ele>755.3333333333333</ele><time>2026-05-03T09:16:12.999Z</time></trkpt><trkpt lat="44.443821371081555" lon="9.909132180252469"><ele>758.6666666666666</ele><time>2026-05-03T09:16:13.999Z</time></trkpt><trkpt lat="44.44390185745869" lon="9.908898997094376"><ele>762.0</ele><time>2026-05-03T09:16:14.999Z</time></trkpt><trkpt lat="44.44395119077424" lon="9.908630414212489"><ele>763.0</ele><time>2026-05-03T09:16:15.999Z</time></trkpt><trkpt lat="44.44397471347849" lon="9.908332558967825"><ele>764.0</ele><time>2026-05-03T09:16:16.999Z</time></trkpt><trkpt lat="44.444016270453325" lon="9.908093027194806"><ele>765.0</ele><time>2026-05-03T09:16:17.999Z</time></trkpt><trkpt lat="44.44413549586267" lon="9.907936703829044"><ele>765.0</ele><time>2026-05-03T09:16:18.999Z</time></trkpt><trkpt lat="44.44426648664546" lon="9.90772795780518"><ele>765.0</ele><time>2026-05-03T09:16:19.999Z</time></trkpt><trkpt lat="44.44440351005414" lon="9.907524296307713"><ele>765.0</ele><time>2026-05-03T09:16:20.999Z</time></trkpt><trkpt lat="44.44451262325662" lon="9.907318583716782"><ele>762.0</ele><time>2026-05-03T09:16:21.999Z</time></trkpt><trkpt lat="44.444569209632256" lon="9.907106814766077"><ele>759.0</ele><time>2026-05-03T09:16:22.999Z</time></trkpt><trkpt lat="44.44456970784254" lon="9.906913649081325"><ele>756.0</ele><time>2026-05-03T09:16:23.999Z</time></trkpt><trkpt lat="44.44451156141299" lon="9.906707774697644"><ele>755.6666666666666</ele><time>2026-05-03T09:16:24.999Z</time></trkpt><trkpt lat="44.444413326400934" lon="9.906475526073953"><ele>755.3333333333333</ele><time>2026-05-03T09:16:25.999Z</time></trkpt><trkpt lat="44.444366911670336" lon="9.906249165996726"><ele>755.0</ele><time>2026-05-03T09:16:26.999Z</time></trkpt><trkpt lat="44.4444350145671" lon="9.906032619129451"><ele>755.0</ele><time>2026-05-03T09:16:27.999Z</time></trkpt><trkpt lat="44.44450961036082" lon="9.905827035026958"><ele>755.0</ele><time>2026-05-03T09:16:28.999Z</time></trkpt><trkpt lat="44.44462045867437" lon="9.905679130360197"><ele>755.0</ele><time>2026-05-03T09:16:29.999Z</time></trkpt><trkpt lat="44.44474418597273" lon="9.905636643365167"><ele>755.0</ele><time>2026-05-03T09:16:30.999Z</time></trkpt><trkpt lat="44.44485893395021" lon="9.905682058601585"><ele>761.3333333333333</ele><time>2026-05-03T09:16:31.999Z</time></trkpt><trkpt lat="44.444980028521016" lon="9.905792122760783"><ele>767.6666666666666</ele><time>2026-05-03T09:16:32.999Z</time></trkpt><trkpt lat="44.44514867955711" lon="9.9059173511909"><ele>774.0</ele><time>2026-05-03T09:16:33.999Z</time></trkpt><trkpt lat="44.44533945066889" lon="9.905990909069724"><ele>781.3333333333333</ele><time>2026-05-03T09:16:34.999Z</time></trkpt><trkpt lat="44.445557537479104" lon="9.906071571781206"><ele>788.6666666666666</ele><time>2026-05-03T09:16:35.999Z</time></trkpt><trkpt lat="44.445774444439614" lon="9.906142647336608"><ele>796.0</ele><time>2026-05-03T09:16:36.999Z</time></trkpt><trkpt lat="44.44599752876114" lon="9.906216251890784"><ele>796.0</ele><time>2026-05-03T09:16:37.999Z</time></trkpt><trkpt lat="44.44620065401082" lon="9.906274797872877"><ele>796.0</ele><time>2026-05-03T09:16:38.999Z</time></trkpt><trkpt lat="44.446391597467084" lon="9.906318133689009"><ele>796.0</ele><time>2026-05-03T09:16:39.999Z</time></trkpt><trkpt lat="44.446553774997525" lon="9.906350180213192"><ele>796.1999999999999</ele><time>2026-05-03T09:16:40.999Z</time></trkpt><trkpt lat="44.44667484280279" lon="9.906382949269496"><ele>796.4</ele><time>2026-05-03T09:16:41.999Z</time></trkpt><trkpt lat="44.44675236912353" lon="9.906427943928211"><ele>796.6</ele><time>2026-05-03T09:16:42.999Z</time></trkpt><trkpt lat="44.44675551058925" lon="9.906554036526433"><ele>796.8</ele><time>2026-05-03T09:16:43.999Z</time></trkpt><trkpt lat="44.446685833694524" lon="9.906638302394756"><ele>797.0</ele><time>2026-05-03T09:16:44.999Z</time></trkpt><trkpt lat="44.44655614638924" lon="9.906650979127225"><ele>797.0</ele><time>2026-05-03T09:16:45.999Z</time></trkpt><trkpt lat="44.4464189692862" lon="9.906631217865428"><ele>797.0</ele><time>2026-05-03T09:16:46.999Z</time></trkpt><trkpt lat="44.44624323796638" lon="9.906622478496029"><ele>797.0</ele><time>2026-05-03T09:16:47.999Z</time></trkpt><trkpt lat="44.44602696280098" lon="9.906604012567914"><ele>796.5</ele><time>2026-05-03T09:16:48.999Z</time></trkpt><trkpt lat="44.44577690583304" lon="9.90658826624859"><ele>796.0</ele><time>2026-05-03T09:16:49.999Z</time></trkpt><trkpt lat="44.44554697529059" lon="9.90658340325797"><ele>793.0</ele><time>2026-05-03T09:16:50.999Z</time></trkpt><trkpt lat="44.44540017508776" lon="9.906656525179516"><ele>790.0</ele><time>2026-05-03T09:16:51.999Z</time></trkpt><trkpt lat="44.44524251085274" lon="9.906800565031327"><ele>787.0</ele><time>2026-05-03T09:16:53Z</time></trkpt><trkpt lat="44.445362063123866" lon="9.906873152701895"><ele>787.0</ele><time>2026-05-03T09:16:54Z</time></trkpt><trkpt lat="44.445360131130684" lon="9.907098344864972"><ele>787.0</ele><time>2026-05-03T09:16:55Z</time></trkpt><trkpt lat="44.44539545517125" lon="9.90737308678387"><ele>787.0</ele><time>2026-05-03T09:16:56Z</time></trkpt><trkpt lat="44.44540127345301" lon="9.90764654386366"><ele>789.0</ele><time>2026-05-03T09:16:57Z</time></trkpt><trkpt lat="44.44540050429389" lon="9.907912792498628"><ele>791.0</ele><time>2026-05-03T09:16:58Z</time></trkpt><trkpt lat="44.44539854790257" lon="9.908171140771923"><ele>793.0</ele><time>2026-05-03T09:16:59Z</time></trkpt><trkpt lat="44.445397282385656" lon="9.90839895182992"><ele>792.75</ele><time>2026-05-03T09:17:00Z</time></trkpt><trkpt lat="44.44539708891094" lon="9.908592420060028"><ele>792.5</ele><time>2026-05-03T09:17:01Z</time></trkpt><trkpt lat="44.44541857268105" lon="9.908755479144153"><ele>792.25</ele><time>2026-05-03T09:17:02Z</time></trkpt><trkpt lat="44.44548389990713" lon="9.908888885610216"><ele>792.0</ele><time>2026-05-03T09:17:03Z</time></trkpt><trkpt lat="44.445605620097695" lon="9.908960203307236"><ele>796.3333333333333</ele><time>2026-05-03T09:17:04Z</time></trkpt><trkpt lat="44.44577369517395" lon="9.908943958865416"><ele>800.6666666666666</ele><time>2026-05-03T09:17:05Z</time></trkpt><trkpt lat="44.445945289674235" lon="9.908938629017266"><ele>805.0</ele><time>2026-05-03T09:17:06Z</time></trkpt><trkpt lat="44.44609786798696" lon="9.908927245762545"><ele>805.0</ele><time>2026-05-03T09:17:07Z</time></trkpt><trkpt lat="44.446241177617175" lon="9.90881443738021"><ele>805.0</ele><time>2026-05-03T09:17:08Z</time></trkpt><trkpt lat="44.44636432753811" lon="9.908669154265546"><ele>805.0</ele><time>2026-05-03T09:17:09Z</time></trkpt><trkpt lat="44.44649858333513" lon="9.908626600128247"><ele>807.6666666666666</ele><time>2026-05-03T09:17:10Z</time></trkpt><trkpt lat="44.44664889915207" lon="9.908719479828923"><ele>810.3333333333333</ele><time>2026-05-03T09:17:11Z</time></trkpt><trkpt lat="44.446806646015766" lon="9.908783087081652"><ele>813.0</ele><time>2026-05-03T09:17:12Z</time></trkpt><trkpt lat="44.44695003862816" lon="9.908850138767464"><ele>813.0</ele><time>2026-05-03T09:17:13Z</time></trkpt><trkpt lat="44.447091039198064" lon="9.908842662269219"><ele>813.0</ele><time>2026-05-03T09:17:14Z</time></trkpt><trkpt lat="44.447231392151515" lon="9.908754837378714"><ele>813.0</ele><time>2026-05-03T09:17:15Z</time></trkpt><trkpt lat="44.44736744113855" lon="9.908599051042858"><ele>815.6666666666667</ele><time>2026-05-03T09:17:16Z</time></trkpt><trkpt lat="44.44750056649187" lon="9.908507285801448"><ele>818.3333333333334</ele><time>2026-05-03T09:17:17Z</time></trkpt><trkpt lat="44.44762320974607" lon="9.908386074135436"><ele>821.0</ele><time>2026-05-03T09:17:18Z</time></trkpt><trkpt lat="44.44774937024935" lon="9.908262737624696"><ele>823.25</ele><time>2026-05-03T09:17:19Z</time></trkpt><trkpt lat="44.44788274989788" lon="9.908154054053062"><ele>825.5</ele><time>2026-05-03T09:17:20Z</time></trkpt><trkpt lat="44.448006458995415" lon="9.908052288364303"><ele>827.75</ele><time>2026-05-03T09:17:21Z</time></trkpt><trkpt lat="44.448109631347464" lon="9.907906473982914"><ele>830.0</ele><time>2026-05-03T09:17:22Z</time></trkpt><trkpt lat="44.44817507036864" lon="9.907703621500898"><ele>832.5</ele><time>2026-05-03T09:17:23Z</time></trkpt><trkpt lat="44.448225559741566" lon="9.907487791253539"><ele>835.0</ele><time>2026-05-03T09:17:24Z</time></trkpt><trkpt lat="44.44827962554338" lon="9.907302848761697"><ele>837.5</ele><time>2026-05-03T09:17:25Z</time></trkpt><trkpt lat="44.448386922817164" lon="9.907185337116294"><ele>840.0</ele><time>2026-05-03T09:17:26Z</time></trkpt><trkpt lat="44.448495636226376" lon="9.907035382087825"><ele>840.0</ele><time>2026-05-03T09:17:27Z</time></trkpt><trkpt lat="44.44862151129307" lon="9.906892655912182"><ele>840.0</ele><time>2026-05-03T09:17:28Z</time></trkpt><trkpt lat="44.44874866629991" lon="9.906765850558484"><ele>840.0</ele><time>2026-05-03T09:17:29Z</time></trkpt><trkpt lat="44.448902304824685" lon="9.906652377723061"><ele>841.75</ele><time>2026-05-03T09:17:30Z</time></trkpt><trkpt lat="44.44908038898451" lon="9.906555072128972"><ele>843.5</ele><time>2026-05-03T09:17:31Z</time></trkpt><trkpt lat="44.449179938081095" lon="9.906511680975953"><ele>845.25</ele><time>2026-05-03T09:17:32Z</time></trkpt><trkpt lat="44.44924810530408" lon="9.906495580948247"><ele>847.0</ele><time>2026-05-03T09:17:33Z</time></trkpt><trkpt lat="44.44936737023746" lon="9.906454750797653"><ele>847.0</ele><time>2026-05-03T09:17:34Z</time></trkpt><trkpt lat="44.44960235252918" lon="9.906285060269587"><ele>847.0</ele><time>2026-05-03T09:17:35Z</time></trkpt><trkpt lat="44.449631271740515" lon="9.906453944685351"><ele>847.0</ele><time>2026-05-03T09:17:37Z</time></trkpt><trkpt lat="44.44958151448095" lon="9.906563158610567"><ele>847.0</ele><time>2026-05-03T09:17:38Z</time></trkpt><trkpt lat="44.44944464856865" lon="9.906597892363099"><ele>847.0</ele><time>2026-05-03T09:17:39Z</time></trkpt><trkpt lat="44.449306807362554" lon="9.906696463591063"><ele>847.0</ele><time>2026-05-03T09:17:40Z</time></trkpt><trkpt lat="44.44915817260069" lon="9.906787241863531"><ele>851.0</ele><time>2026-05-03T09:17:41Z</time></trkpt><trkpt lat="44.449018562381525" lon="9.906948790072905"><ele>855.0</ele><time>2026-05-03T09:17:42Z</time></trkpt><trkpt lat="44.44889302370945" lon="9.907142285339248"><ele>859.0</ele><time>2026-05-03T09:17:43Z</time></trkpt><trkpt lat="44.44879867387341" lon="9.907287314722288"><ele>859.0</ele><time>2026-05-03T09:17:44Z</time></trkpt><trkpt lat="44.44874765298205" lon="9.90739155125045"><ele>859.0000000000001</ele><time>2026-05-03T09:17:45Z</time></trkpt><trkpt lat="44.44875624880887" lon="9.907482608602248"><ele>859.0000000000001</ele><time>2026-05-03T09:17:46Z</time></trkpt><trkpt lat="44.44882005536384" lon="9.907566676704196"><ele>859.0</ele><time>2026-05-03T09:17:47Z</time></trkpt><trkpt lat="44.44893087138381" lon="9.907593346711316"><ele>859.0</ele><time>2026-05-03T09:17:48Z</time></trkpt><trkpt lat="44.44904207189704" lon="9.907495108331835"><ele>859.0</ele><time>2026-05-03T09:17:49Z</time></trkpt><trkpt lat="44.449172498902236" lon="9.907326082206326"><ele>859.0</ele><time>2026-05-03T09:17:50Z</time></trkpt><trkpt lat="44.449316456966265" lon="9.907167778552395"><ele>859.0</ele><time>2026-05-03T09:17:51Z</time></trkpt><trkpt lat="44.4494406255559" lon="9.907106520219436"><ele>859.0</ele><time>2026-05-03T09:17:52Z</time></trkpt><trkpt lat="44.44955287690504" lon="9.907162172342446"><ele>859.0</ele><time>2026-05-03T09:17:53Z</time></trkpt><trkpt lat="44.449596881273784" lon="9.907322398115928"><ele>859.0</ele><time>2026-05-03T09:17:54Z</time></trkpt><trkpt lat="44.44958295867624" lon="9.907515983452434"><ele>859.0</ele><time>2026-05-03T09:17:55Z</time></trkpt><trkpt lat="44.44955095447746" lon="9.907734602693404"><ele>860.3333333333333</ele><time>2026-05-03T09:17:56Z</time></trkpt><trkpt lat="44.44947882349243" lon="9.907941077773383"><ele>861.6666666666667</ele><time>2026-05-03T09:17:57Z</time></trkpt><trkpt lat="44.449371492153894" lon="9.908089857361475"><ele>863.0</ele><time>2026-05-03T09:17:58Z</time></trkpt><trkpt lat="44.44922955982489" lon="9.908183219819032"><ele>863.0</ele><time>2026-05-03T09:17:59Z</time></trkpt><trkpt lat="44.44914525491944" lon="9.908306621043115"><ele>863.0</ele><time>2026-05-03T09:18:00Z</time></trkpt><trkpt lat="44.44908371998799" lon="9.908452290512761"><ele>863.0</ele><time>2026-05-03T09:18:01Z</time></trkpt><trkpt lat="44.44908091329972" lon="9.908673976236525"><ele>863.0</ele><time>2026-05-03T09:18:02Z</time></trkpt><trkpt lat="44.449142790443815" lon="9.908886837353752"><ele>860.3333333333334</ele><time>2026-05-03T09:18:03Z</time></trkpt><trkpt lat="44.44924122987528" lon="9.90901294210901"><ele>857.6666666666667</ele><time>2026-05-03T09:18:04Z</time></trkpt><trkpt lat="44.44938114035653" lon="9.909050188760641"><ele>855.0</ele><time>2026-05-03T09:18:04.999Z</time></trkpt><trkpt lat="44.44957237361653" lon="9.909030997019485"><ele>859.0</ele><time>2026-05-03T09:18:05.999Z</time></trkpt><trkpt lat="44.4497763108329" lon="9.909066700299372"><ele>863.0</ele><time>2026-05-03T09:18:06.999Z</time></trkpt><trkpt lat="44.44999052048673" lon="9.90911714060152"><ele>867.0</ele><time>2026-05-03T09:18:07.999Z</time></trkpt><trkpt lat="44.4501703158848" lon="9.909129303259093"><ele>867.0</ele><time>2026-05-03T09:18:08.999Z</time></trkpt><trkpt lat="44.45029431244781" lon="9.909083676835554"><ele>867.0</ele><time>2026-05-03T09:18:09.999Z</time></trkpt><trkpt lat="44.45040995438393" lon="9.908942944676701"><ele>867.0</ele><time>2026-05-03T09:18:10.999Z</time></trkpt><trkpt lat="44.45052391333104" lon="9.908704852894537"><ele>869.0</ele><time>2026-05-03T09:18:11.999Z</time></trkpt><trkpt lat="44.45064629728305" lon="9.908494668862454"><ele>871.0</ele><time>2026-05-03T09:18:12.999Z</time></trkpt><trkpt lat="44.45082128287014" lon="9.908351817787363"><ele>873.0</ele><time>2026-05-03T09:18:13.999Z</time></trkpt><trkpt lat="44.45104645491227" lon="9.908232894224803"><ele>877.3333333333333</ele><time>2026-05-03T09:18:14.999Z</time></trkpt><trkpt lat="44.4512495574219" lon="9.90809094322379"><ele>881.6666666666666</ele><time>2026-05-03T09:18:15.999Z</time></trkpt><trkpt lat="44.45145054657876" lon="9.907960340622303"><ele>886.0</ele><time>2026-05-03T09:18:16.999Z</time></trkpt><trkpt lat="44.45160800632787" lon="9.907887488609973"><ele>887.6666666666666</ele><time>2026-05-03T09:18:17.999Z</time></trkpt><trkpt lat="44.451762796541665" lon="9.90789056274251"><ele>889.3333333333333</ele><time>2026-05-03T09:18:18.999Z</time></trkpt><trkpt lat="44.45188956030681" lon="9.908022448739636"><ele>891.0</ele><time>2026-05-03T09:18:19.999Z</time></trkpt><trkpt lat="44.452005084943195" lon="9.908216841377747"><ele>896.3333333333333</ele><time>2026-05-03T09:18:20.999Z</time></trkpt><trkpt lat="44.452146526445446" lon="9.908441839856408"><ele>901.6666666666666</ele><time>2026-05-03T09:18:21.999Z</time></trkpt><trkpt lat="44.45228275260339" lon="9.908687635484979"><ele>907.0</ele><time>2026-05-03T09:18:22.999Z</time></trkpt><trkpt lat="44.45241040004906" lon="9.908908882765324"><ele>907.0</ele><time>2026-05-03T09:18:23.999Z</time></trkpt><trkpt lat="44.452456963615006" lon="9.909119831739414"><ele>907.0</ele><time>2026-05-03T09:18:24.999Z</time></trkpt><trkpt lat="44.45242296575339" lon="9.909312787356765"><ele>907.0</ele><time>2026-05-03T09:18:25.999Z</time></trkpt><trkpt lat="44.452290179409296" lon="9.909574772593121"><ele>906.6666666666666</ele><time>2026-05-03T09:18:26.999Z</time></trkpt><trkpt lat="44.452247675743905" lon="9.909828821161458"><ele>906.3333333333333</ele><time>2026-05-03T09:18:27.999Z</time></trkpt><trkpt lat="44.45230468597154" lon="9.910028522039298"><ele>906.0</ele><time>2026-05-03T09:18:29.999Z</time></trkpt><trkpt lat="44.452385653779885" lon="9.910161783406776"><ele>906.0</ele><time>2026-05-03T09:18:30.999Z</time></trkpt><trkpt lat="44.452603292815546" lon="9.910468252016061"><ele>906.0</ele><time>2026-05-03T09:18:31.999Z</time></trkpt><trkpt lat="44.45274831235666" lon="9.910732690623504"><ele>904.5</ele><time>2026-05-03T09:18:32.999Z</time></trkpt><trkpt lat="44.45288754048764" lon="9.910996114942353"><ele>903.0</ele><time>2026-05-03T09:18:33.999Z</time></trkpt><trkpt lat="44.45303665158682" lon="9.911305210027821"><ele>913.0</ele><time>2026-05-03T09:18:34.999Z</time></trkpt><trkpt lat="44.45318272025067" lon="9.911669200352572"><ele>923.0</ele><time>2026-05-03T09:18:35.999Z</time></trkpt><trkpt lat="44.453304654834156" lon="9.911983481660355"><ele>923.0</ele><time>2026-05-03T09:18:36.999Z</time></trkpt><trkpt lat="44.45338780152091" lon="9.91230235929171"><ele>923.0</ele><time>2026-05-03T09:18:37.999Z</time></trkpt><trkpt lat="44.45346508368806" lon="9.912533933818125"><ele>923.0</ele><time>2026-05-03T09:18:38.999Z</time></trkpt><trkpt lat="44.45352779044315" lon="9.912753874589434"><ele>923.5</ele><time>2026-05-03T09:18:39.999Z</time></trkpt><trkpt lat="44.45355672310606" lon="9.91294940965462"><ele>924.0</ele><time>2026-05-03T09:18:40.999Z</time></trkpt><trkpt lat="44.4535534153828" lon="9.913143135961276"><ele>924.5</ele><time>2026-05-03T09:18:41.999Z</time></trkpt><trkpt lat="44.45355588031191" lon="9.91336841357056"><ele>925.0</ele><time>2026-05-03T09:18:42.999Z</time></trkpt><trkpt lat="44.45354501032951" lon="9.913617658561288"><ele>927.0</ele><time>2026-05-03T09:18:43.999Z</time></trkpt><trkpt lat="44.45353964804673" lon="9.913910999299347"><ele>929.0</ele><time>2026-05-03T09:18:44.999Z</time></trkpt><trkpt lat="44.45353300565535" lon="9.91418480355405"><ele>931.0</ele><time>2026-05-03T09:18:45.999Z</time></trkpt><trkpt lat="44.45351712752539" lon="9.914442996044958"><ele>934.3333333333333</ele><time>2026-05-03T09:18:46.999Z</time></trkpt><trkpt lat="44.453473006616974" lon="9.914680424526452"><ele>937.6666666666667</ele><time>2026-05-03T09:18:47.999Z</time></trkpt><trkpt lat="44.45341263420601" lon="9.914893463544725"><ele>941.0</ele><time>2026-05-03T09:18:48.999Z</time></trkpt><trkpt lat="44.45333596775297" lon="9.915046537257085"><ele>946.0</ele><time>2026-05-03T09:18:49.999Z</time></trkpt><trkpt lat="44.45323468469286" lon="9.915201731605155"><ele>951.0</ele><time>2026-05-03T09:18:50.999Z</time></trkpt><trkpt lat="44.45311860215628" lon="9.91539411822834"><ele>956.0</ele><time>2026-05-03T09:18:51.999Z</time></trkpt><trkpt lat="44.45298960257074" lon="9.915605667807851"><ele>953.0</ele><time>2026-05-03T09:18:52.999Z</time></trkpt><trkpt lat="44.452839461278714" lon="9.915850841362104"><ele>950.0</ele><time>2026-05-03T09:18:53.999Z</time></trkpt><trkpt lat="44.452677348531815" lon="9.9161199705442"><ele>950.0</ele><time>2026-05-03T09:18:54.999Z</time></trkpt><trkpt lat="44.452516990659134" lon="9.916421528490455"><ele>950.0</ele><time>2026-05-03T09:18:55.999Z</time></trkpt><trkpt lat="44.45234284991738" lon="9.916697270827479"><ele>948.0</ele><time>2026-05-03T09:18:56.999Z</time></trkpt><trkpt lat="44.45217350478202" lon="9.916972776888118"><ele>946.0</ele><time>2026-05-03T09:18:57.999Z</time></trkpt><trkpt lat="44.452034706364906" lon="9.917217559425648"><ele>946.0</ele><time>2026-05-03T09:18:59Z</time></trkpt><trkpt lat="44.451933203096075" lon="9.917460185631182"><ele>946.0</ele><time>2026-05-03T09:19:00Z</time></trkpt><trkpt lat="44.451900991583976" lon="9.917744050214123"><ele>946.0</ele><time>2026-05-03T09:19:01Z</time></trkpt><trkpt lat="44.4518901949334" lon="9.918028044588889"><ele>949.0</ele><time>2026-05-03T09:19:02Z</time></trkpt><trkpt lat="44.45179627909782" lon="9.918268020265206"><ele>952.0</ele><time>2026-05-03T09:19:03Z</time></trkpt><trkpt lat="44.451652030447484" lon="9.918494439618058"><ele>955.0</ele><time>2026-05-03T09:19:04Z</time></trkpt><trkpt lat="44.451479397441524" lon="9.918719907284522"><ele>958.0</ele><time>2026-05-03T09:19:05Z</time></trkpt><trkpt lat="44.45128249643528" lon="9.918967287216663"><ele>961.0</ele><time>2026-05-03T09:19:06Z</time></trkpt><trkpt lat="44.451095839639194" lon="9.919158475130361"><ele>963.6666666666666</ele><time>2026-05-03T09:19:07Z</time></trkpt><trkpt lat="44.45092778519549" lon="9.919324807332798"><ele>966.3333333333333</ele><time>2026-05-03T09:19:08Z</time></trkpt><trkpt lat="44.45080469456317" lon="9.919472950525451"><ele>969.0</ele><time>2026-05-03T09:19:09Z</time></trkpt><trkpt lat="44.450711633168616" lon="9.91958108566047"><ele>969.0</ele><time>2026-05-03T09:19:10Z</time></trkpt><trkpt lat="44.45067190169529" lon="9.9196920777636"><ele>969.0000000000001</ele><time>2026-05-03T09:19:11Z</time></trkpt><trkpt lat="44.45069444438544" lon="9.919827899321415"><ele>969.0000000000001</ele><time>2026-05-03T09:19:12Z</time></trkpt><trkpt lat="44.45077184851501" lon="9.919950984936385"><ele>969.0</ele><time>2026-05-03T09:19:13Z</time></trkpt><trkpt lat="44.45089428310921" lon="9.919988626908205"><ele>969.0</ele><time>2026-05-03T09:19:14Z</time></trkpt><trkpt lat="44.451014382757606" lon="9.919891342258039"><ele>969.0</ele><time>2026-05-03T09:19:15Z</time></trkpt><trkpt lat="44.45111552968748" lon="9.919705352555422"><ele>969.0</ele><time>2026-05-03T09:19:16Z</time></trkpt><trkpt lat="44.45124573603906" lon="9.919479430128755"><ele>969.0</ele><time>2026-05-03T09:19:17Z</time></trkpt><trkpt lat="44.45139230395558" lon="9.919274302787546"><ele>970.0</ele><time>2026-05-03T09:19:18Z</time></trkpt><trkpt lat="44.45156411827244" lon="9.919141329113767"><ele>971.0</ele><time>2026-05-03T09:19:19Z</time></trkpt><trkpt lat="44.45173102938213" lon="9.919032387875491"><ele>972.0</ele><time>2026-05-03T09:19:20Z</time></trkpt><trkpt lat="44.45190761368066" lon="9.918947321370565"><ele>972.0</ele><time>2026-05-03T09:19:21Z</time></trkpt><trkpt lat="44.45210597181761" lon="9.918915449319645"><ele>972.0</ele><time>2026-05-03T09:19:22Z</time></trkpt><trkpt lat="44.452299748906974" lon="9.91890852158669"><ele>972.0</ele><time>2026-05-03T09:19:23Z</time></trkpt><trkpt lat="44.45247361432423" lon="9.91887747780433"><ele>972.3333333333333</ele><time>2026-05-03T09:19:24Z</time></trkpt><trkpt lat="44.452662025190534" lon="9.918788254541518"><ele>972.6666666666666</ele><time>2026-05-03T09:19:25Z</time></trkpt><trkpt lat="44.45285951644687" lon="9.918621968005121"><ele>973.0</ele><time>2026-05-03T09:19:26Z</time></trkpt><trkpt lat="44.453034132283406" lon="9.91841311574384"><ele>974.3333333333333</ele><time>2026-05-03T09:19:27Z</time></trkpt><trkpt lat="44.45316556320455" lon="9.918175720907968"><ele>975.6666666666667</ele><time>2026-05-03T09:19:28Z</time></trkpt><trkpt lat="44.453292231740235" lon="9.91797681411306"><ele>977.0</ele><time>2026-05-03T09:19:29Z</time></trkpt><trkpt lat="44.45343816505327" lon="9.917886668869698"><ele>977.0</ele><time>2026-05-03T09:19:30Z</time></trkpt><trkpt lat="44.45358293783675" lon="9.917833645937474"><ele>977.0</ele><time>2026-05-03T09:19:31Z</time></trkpt><trkpt lat="44.45372767907291" lon="9.917810028904379"><ele>977.0</ele><time>2026-05-03T09:19:32Z</time></trkpt><trkpt lat="44.45388951930611" lon="9.91780712642168"><ele>975.0</ele><time>2026-05-03T09:19:33Z</time></trkpt><trkpt lat="44.45405209136729" lon="9.917824095006283"><ele>973.0</ele><time>2026-05-03T09:19:34Z</time></trkpt><trkpt lat="44.4542219888524" lon="9.917866188126908"><ele>971.0</ele><time>2026-05-03T09:19:35Z</time></trkpt><trkpt lat="44.454393068829525" lon="9.917952917958338"><ele>971.0</ele><time>2026-05-03T09:19:36Z</time></trkpt><trkpt lat="44.45456077153923" lon="9.9180512323847"><ele>971.0</ele><time>2026-05-03T09:19:37Z</time></trkpt><trkpt lat="44.45473729927232" lon="9.918144195209129"><ele>971.0</ele><time>2026-05-03T09:19:38Z</time></trkpt><trkpt lat="44.454901283200414" lon="9.918259109044516"><ele>969.6666666666667</ele><time>2026-05-03T09:19:39Z</time></trkpt><trkpt lat="44.45504020225398" lon="9.918432551144548"><ele>968.3333333333333</ele><time>2026-05-03T09:19:40Z</time></trkpt><trkpt lat="44.45516156227786" lon="9.918619972390706"><ele>967.0</ele><time>2026-05-03T09:19:41Z</time></trkpt><trkpt lat="44.45527163324252" lon="9.918822511496053"><ele>967.0</ele><time>2026-05-03T09:19:42Z</time></trkpt><trkpt lat="44.45540239997204" lon="9.91899170719598"><ele>967.0</ele><time>2026-05-03T09:19:43Z</time></trkpt><trkpt lat="44.45550061998808" lon="9.919164870880305"><ele>967.0</ele><time>2026-05-03T09:19:44Z</time></trkpt><trkpt lat="44.455592523230926" lon="9.919296528683743"><ele>963.25</ele><time>2026-05-03T09:19:45Z</time></trkpt><trkpt lat="44.4556913650067" lon="9.919356770821063"><ele>959.5</ele><time>2026-05-03T09:19:46Z</time></trkpt><trkpt lat="44.45580161678751" lon="9.919331502447369"><ele>955.75</ele><time>2026-05-03T09:19:47Z</time></trkpt><trkpt lat="44.45591898832319" lon="9.919220321404877"><ele>952.0</ele><time>2026-05-03T09:19:48Z</time></trkpt><trkpt lat="44.45605077845649" lon="9.919100226998"><ele>962.3333333333333</ele><time>2026-05-03T09:19:49Z</time></trkpt><trkpt lat="44.45621229397246" lon="9.919025251479509"><ele>972.6666666666667</ele><time>2026-05-03T09:19:50Z</time></trkpt><trkpt lat="44.45637394100282" lon="9.919014371953455"><ele>983.0</ele><time>2026-05-03T09:19:51Z</time></trkpt><trkpt lat="44.45652474421237" lon="9.919015307886248"><ele>983.6666666666667</ele><time>2026-05-03T09:19:52Z</time></trkpt><trkpt lat="44.45668717804874" lon="9.919022794749317"><ele>984.3333333333333</ele><time>2026-05-03T09:19:53Z</time></trkpt><trkpt lat="44.456853684562255" lon="9.919081404424695"><ele>985.0</ele><time>2026-05-03T09:19:54Z</time></trkpt><trkpt lat="44.45702001209808" lon="9.919164817118864"><ele>988.3333333333333</ele><time>2026-05-03T09:19:55Z</time></trkpt><trkpt lat="44.45718883625015" lon="9.919229053382146"><ele>991.6666666666667</ele><time>2026-05-03T09:19:56Z</time></trkpt><trkpt lat="44.45734264918184" lon="9.919265321649185"><ele>995.0</ele><time>2026-05-03T09:19:57Z</time></trkpt><trkpt lat="44.45747385486367" lon="9.919350694339474"><ele>988.0</ele><time>2026-05-03T09:19:58Z</time></trkpt><trkpt lat="44.45758276543247" lon="9.919493099573689"><ele>981.0</ele><time>2026-05-03T09:19:59Z</time></trkpt><trkpt lat="44.4576793701571" lon="9.919671094218812"><ele>974.0</ele><time>2026-05-03T09:20:00Z</time></trkpt><trkpt lat="44.45775722664285" lon="9.919836659159492"><ele>974.0</ele><time>2026-05-03T09:20:01Z</time></trkpt><trkpt lat="44.45785464387431" lon="9.919944576252954"><ele>974.0</ele><time>2026-05-03T09:20:02Z</time></trkpt><trkpt lat="44.45798942020859" lon="9.919946690672187"><ele>974.0</ele><time>2026-05-03T09:20:03Z</time></trkpt><trkpt lat="44.45814369457798" lon="9.91985745609899"><ele>974.0</ele><time>2026-05-03T09:20:04Z</time></trkpt><trkpt lat="44.45828839206688" lon="9.919739784105191"><ele>976.5</ele><time>2026-05-03T09:20:05Z</time></trkpt><trkpt lat="44.458411317258204" lon="9.919668416549516"><ele>979.0</ele><time>2026-05-03T09:20:06Z</time></trkpt><trkpt lat="44.45852249699782" lon="9.919680630439842"><ele>981.5</ele><time>2026-05-03T09:20:07Z</time></trkpt><trkpt lat="44.458624653808045" lon="9.919782285764203"><ele>984.0</ele><time>2026-05-03T09:20:08Z</time></trkpt><trkpt lat="44.45870669095523" lon="9.919980965489753"><ele>985.6666666666667</ele><time>2026-05-03T09:20:08.999Z</time></trkpt><trkpt lat="44.45881492193643" lon="9.920155102497342"><ele>987.3333333333334</ele><time>2026-05-03T09:20:09.999Z</time></trkpt><trkpt lat="44.4589041935324" lon="9.920336066020637"><ele>989.0</ele><time>2026-05-03T09:20:10.999Z</time></trkpt><trkpt lat="44.458996250058796" lon="9.92051231132762"><ele>989.0</ele><time>2026-05-03T09:20:11.999Z</time></trkpt><trkpt lat="44.45908507828435" lon="9.920690422949603"><ele>989.0</ele><time>2026-05-03T09:20:12.999Z</time></trkpt><trkpt lat="44.45916691211409" lon="9.920863091753645"><ele>989.0</ele><time>2026-05-03T09:20:13.999Z</time></trkpt><trkpt lat="44.45923721730579" lon="9.921024788614496"><ele>989.0</ele><time>2026-05-03T09:20:14.999Z</time></trkpt><trkpt lat="44.459326493485385" lon="9.92115844837981"><ele>985.0</ele><time>2026-05-03T09:20:15.999Z</time></trkpt><trkpt lat="44.45944912943228" lon="9.92122269697635"><ele>981.0</ele><time>2026-05-03T09:20:16.999Z</time></trkpt><trkpt lat="44.45959277210421" lon="9.921196291123909"><ele>977.0</ele><time>2026-05-03T09:20:17.999Z</time></trkpt><trkpt lat="44.459748038081116" lon="9.921106189941526"><ele>973.0</ele><time>2026-05-03T09:20:18.999Z</time></trkpt><trkpt lat="44.45989795707051" lon="9.921009784153556"><ele>973.0</ele><time>2026-05-03T09:20:19.999Z</time></trkpt><trkpt lat="44.46004241127952" lon="9.920919742931666"><ele>973.0</ele><time>2026-05-03T09:20:20.999Z</time></trkpt><trkpt lat="44.46017135459586" lon="9.920790307579667"><ele>973.0</ele><time>2026-05-03T09:20:21.999Z</time></trkpt><trkpt lat="44.460278954895735" lon="9.920650904494744"><ele>979.6666666666666</ele><time>2026-05-03T09:20:22.999Z</time></trkpt><trkpt lat="44.460400171439325" lon="9.920588296367878"><ele>986.3333333333333</ele><time>2026-05-03T09:20:23.999Z</time></trkpt><trkpt lat="44.46055840267457" lon="9.920633267269096"><ele>993.0</ele><time>2026-05-03T09:20:24.999Z</time></trkpt><trkpt lat="44.460730172024626" lon="9.92065099243291"><ele>993.0</ele><time>2026-05-03T09:20:25.999Z</time></trkpt><trkpt lat="44.46089628989548" lon="9.920706668925988"><ele>993.0</ele><time>2026-05-03T09:20:26.999Z</time></trkpt><trkpt lat="44.46105188163356" lon="9.920760685072569"><ele>993.0</ele><time>2026-05-03T09:20:27.999Z</time></trkpt><trkpt lat="44.46119936975476" lon="9.920825332926277"><ele>990.0</ele><time>2026-05-03T09:20:28.999Z</time></trkpt><trkpt lat="44.461336918369824" lon="9.920989946911426"><ele>987.0</ele><time>2026-05-03T09:20:29.999Z</time></trkpt><trkpt lat="44.46148488541966" lon="9.921186788925736"><ele>984.0</ele><time>2026-05-03T09:20:30.999Z</time></trkpt><trkpt lat="44.46163830776678" lon="9.92136747895253"><ele>984.0</ele><time>2026-05-03T09:20:31.999Z</time></trkpt><trkpt lat="44.46177392074274" lon="9.921498645994436"><ele>984.0</ele><time>2026-05-03T09:20:32.999Z</time></trkpt><trkpt lat="44.46190589188984" lon="9.921606709449422"><ele>984.0</ele><time>2026-05-03T09:20:33.999Z</time></trkpt><trkpt lat="44.46203396258987" lon="9.921693719836627"><ele>985.5</ele><time>2026-05-03T09:20:34.999Z</time></trkpt><trkpt lat="44.46214885608845" lon="9.921718847526321"><ele>987.0</ele><time>2026-05-03T09:20:35.999Z</time></trkpt><trkpt lat="44.46225652882418" lon="9.921671415191197"><ele>988.5</ele><time>2026-05-03T09:20:36.999Z</time></trkpt><trkpt lat="44.46233636196531" lon="9.92153973063892"><ele>990.0</ele><time>2026-05-03T09:20:37.999Z</time></trkpt><trkpt lat="44.4623732259492" lon="9.921342467879201"><ele>990.0</ele><time>2026-05-03T09:20:38.999Z</time></trkpt><trkpt lat="44.462385924604334" lon="9.921080397373553"><ele>990.0</ele><time>2026-05-03T09:20:39.999Z</time></trkpt><trkpt lat="44.46241118027227" lon="9.920828438245897"><ele>990.0</ele><time>2026-05-03T09:20:40.999Z</time></trkpt><trkpt lat="44.46243895415243" lon="9.920574335905274"><ele>994.0</ele><time>2026-05-03T09:20:41.999Z</time></trkpt><trkpt lat="44.46247448807269" lon="9.92033504260923"><ele>998.0</ele><time>2026-05-03T09:20:42.999Z</time></trkpt><trkpt lat="44.46251974300366" lon="9.920109291307211"><ele>1002.0</ele><time>2026-05-03T09:20:43.999Z</time></trkpt><trkpt lat="44.462619905966086" lon="9.919903647923038"><ele>1005.3333333333333</ele><time>2026-05-03T09:20:44.999Z</time></trkpt><trkpt lat="44.462717175108416" lon="9.919695879501228"><ele>1008.6666666666666</ele><time>2026-05-03T09:20:45.999Z</time></trkpt><trkpt lat="44.462829166196855" lon="9.919526614117364"><ele>1012.0</ele><time>2026-05-03T09:20:46.999Z</time></trkpt><trkpt lat="44.46292476884654" lon="9.919389003288032"><ele>1012.0</ele><time>2026-05-03T09:20:47.999Z</time></trkpt><trkpt lat="44.463003746393085" lon="9.919259179899733"><ele>1012.0</ele><time>2026-05-03T09:20:48.999Z</time></trkpt><trkpt lat="44.46308030768954" lon="9.919167655291554"><ele>1012.0</ele><time>2026-05-03T09:20:49.999Z</time></trkpt><trkpt lat="44.46319182556548" lon="9.919129092659158"><ele>1012.0</ele><time>2026-05-03T09:20:50.999Z</time></trkpt><trkpt lat="44.46331379401986" lon="9.919166808951246"><ele>1008.5</ele><time>2026-05-03T09:20:51.999Z</time></trkpt><trkpt lat="44.46341150145158" lon="9.919316714310517"><ele>1005.0</ele><time>2026-05-03T09:20:52.999Z</time></trkpt><trkpt lat="44.46347903392948" lon="9.919475126142158"><ele>1001.5</ele><time>2026-05-03T09:20:53.999Z</time></trkpt><trkpt lat="44.46354019563172" lon="9.91962683814486"><ele>998.0</ele><time>2026-05-03T09:20:54.999Z</time></trkpt><trkpt lat="44.46362106094151" lon="9.919734426833847"><ele>998.0</ele><time>2026-05-03T09:20:55.999Z</time></trkpt><trkpt lat="44.46371917534891" lon="9.919810503698594"><ele>998.0</ele><time>2026-05-03T09:20:56.999Z</time></trkpt><trkpt lat="44.46384347350133" lon="9.919870398677753"><ele>998.0</ele><time>2026-05-03T09:20:57.999Z</time></trkpt><trkpt lat="44.464014700326686" lon="9.919951874918999"><ele>998.0</ele><time>2026-05-03T09:20:58.999Z</time></trkpt><trkpt lat="44.46423453330119" lon="9.920074397759908"><ele>999.5</ele><time>2026-05-03T09:20:59.999Z</time></trkpt><trkpt lat="44.464469687652354" lon="9.92022761281552"><ele>1001.0</ele><time>2026-05-03T09:21:00.999Z</time></trkpt><trkpt lat="44.464687061986645" lon="9.920417411572924"><ele>1001.0</ele><time>2026-05-03T09:21:01.999Z</time></trkpt><trkpt lat="44.464869321070935" lon="9.920581505739074"><ele>1001.0</ele><time>2026-05-03T09:21:02.999Z</time></trkpt><trkpt lat="44.46502663737859" lon="9.920692647728075"><ele>1001.0</ele><time>2026-05-03T09:21:03.999Z</time></trkpt><trkpt lat="44.46519501256209" lon="9.920759094109647"><ele>1001.0</ele><time>2026-05-03T09:21:05Z</time></trkpt><trkpt lat="44.465377233052536" lon="9.92070046607568"><ele>1001.0</ele><time>2026-05-03T09:21:06Z</time></trkpt><trkpt lat="44.46558910610009" lon="9.920560638021403"><ele>1001.0</ele><time>2026-05-03T09:21:07Z</time></trkpt><trkpt lat="44.46581788892895" lon="9.920431235097459"><ele>1002.0</ele><time>2026-05-03T09:21:08Z</time></trkpt><trkpt lat="44.46605008080325" lon="9.920318099023332"><ele>1003.0</ele><time>2026-05-03T09:21:09Z</time></trkpt><trkpt lat="44.466282222406846" lon="9.920282689783564"><ele>1003.0</ele><time>2026-05-03T09:21:10Z</time></trkpt><trkpt lat="44.46656189508233" lon="9.92029235051526"><ele>1003.0</ele><time>2026-05-03T09:21:11Z</time></trkpt><trkpt lat="44.46684964002053" lon="9.920328045350116"><ele>1003.0</ele><time>2026-05-03T09:21:12Z</time></trkpt><trkpt lat="44.46704105254504" lon="9.920348312698698"><ele>1003.0</ele><time>2026-05-03T09:21:13Z</time></trkpt><trkpt lat="44.467257361586164" lon="9.920375381300195"><ele>1003.0</ele><time>2026-05-03T09:21:14Z</time></trkpt><trkpt lat="44.46747169638591" lon="9.920409682407728"><ele>1005.6666666666666</ele><time>2026-05-03T09:21:15Z</time></trkpt><trkpt lat="44.46765584733668" lon="9.92047299853327"><ele>1008.3333333333333</ele><time>2026-05-03T09:21:16Z</time></trkpt><trkpt lat="44.46780421290663" lon="9.920652170416595"><ele>1011.0</ele><time>2026-05-03T09:21:17Z</time></trkpt><trkpt lat="44.46798873728159" lon="9.920860209498253"><ele>1013.0</ele><time>2026-05-03T09:21:18Z</time></trkpt><trkpt lat="44.468169873636455" lon="9.921092963061609"><ele>1015.0</ele><time>2026-05-03T09:21:19Z</time></trkpt><trkpt lat="44.46838764176162" lon="9.921311580226032"><ele>1015.0</ele><time>2026-05-03T09:21:20Z</time></trkpt><trkpt lat="44.46857017753494" lon="9.921608014387104"><ele>1015.0</ele><time>2026-05-03T09:21:21Z</time></trkpt><trkpt lat="44.4687191473007" lon="9.92193749592251"><ele>1016.3333333333333</ele><time>2026-05-03T09:21:22Z</time></trkpt><trkpt lat="44.46883537796965" lon="9.922236468188332"><ele>1017.6666666666667</ele><time>2026-05-03T09:21:23Z</time></trkpt><trkpt lat="44.46895687785398" lon="9.922444532933682"><ele>1019.0</ele><time>2026-05-03T09:21:24Z</time></trkpt><trkpt lat="44.469050855850895" lon="9.9226130180618"><ele>1019.0</ele><time>2026-05-03T09:21:25Z</time></trkpt><trkpt lat="44.469145708689304" lon="9.922699755634365"><ele>1019.0</ele><time>2026-05-03T09:21:26Z</time></trkpt><trkpt lat="44.46927817996076" lon="9.922715546424254"><ele>1019.0</ele><time>2026-05-03T09:21:27Z</time></trkpt><trkpt lat="44.46940635440052" lon="9.922631763749916"><ele>1019.0</ele><time>2026-05-03T09:21:28Z</time></trkpt><trkpt lat="44.469497127849976" lon="9.922458855313309"><ele>1019.0</ele><time>2026-05-03T09:21:29Z</time></trkpt><trkpt lat="44.46953564689615" lon="9.92219599822226"><ele>1019.0</ele><time>2026-05-03T09:21:30Z</time></trkpt><trkpt lat="44.46958642657127" lon="9.921888640654107"><ele>1019.0</ele><time>2026-05-03T09:21:31Z</time></trkpt><trkpt lat="44.46969200194497" lon="9.921591970862652"><ele>1018.0</ele><time>2026-05-03T09:21:32Z</time></trkpt><trkpt lat="44.46981000286615" lon="9.921269908241202"><ele>1017.0</ele><time>2026-05-03T09:21:33Z</time></trkpt><trkpt lat="44.46990859701612" lon="9.920980742041033"><ele>1021.0</ele><time>2026-05-03T09:21:34Z</time></trkpt><trkpt lat="44.4699874582844" lon="9.920778141144927"><ele>1025.0</ele><time>2026-05-03T09:21:35Z</time></trkpt><trkpt lat="44.47006676871629" lon="9.920638471464812"><ele>1029.0</ele><time>2026-05-03T09:21:36Z</time></trkpt><trkpt lat="44.470142076549045" lon="9.92054198611811"><ele>1033.0</ele><time>2026-05-03T09:21:37Z</time></trkpt><trkpt lat="44.470238622810236" lon="9.9205429131616"><ele>1033.0</ele><time>2026-05-03T09:21:38Z</time></trkpt><trkpt lat="44.470335542044516" lon="9.920632357298718"><ele>1033.0</ele><time>2026-05-03T09:21:39Z</time></trkpt><trkpt lat="44.47045612159445" lon="9.920770048168972"><ele>1033.0</ele><time>2026-05-03T09:21:40Z</time></trkpt><trkpt lat="44.47061513108625" lon="9.920975611871361"><ele>1027.0</ele><time>2026-05-03T09:21:41Z</time></trkpt><trkpt lat="44.4707925012465" lon="9.921228143603601"><ele>1021.0</ele><time>2026-05-03T09:21:42Z</time></trkpt><trkpt lat="44.47097275835885" lon="9.921480243542984"><ele>1021.0</ele><time>2026-05-03T09:21:43Z</time></trkpt><trkpt lat="44.471168166824484" lon="9.921729746265502"><ele>1021.0</ele><time>2026-05-03T09:21:44Z</time></trkpt><trkpt lat="44.47125583735849" lon="9.921936582331357"><ele>1021.0</ele><time>2026-05-03T09:21:45Z</time></trkpt><trkpt lat="44.47127996745351" lon="9.922110321376907"><ele>1025.3333333333333</ele><time>2026-05-03T09:21:46Z</time></trkpt><trkpt lat="44.4712515539667" lon="9.922320706387758"><ele>1029.6666666666667</ele><time>2026-05-03T09:21:47Z</time></trkpt><trkpt lat="44.47125984096906" lon="9.922614908620906"><ele>1034.0</ele><time>2026-05-03T09:21:48Z</time></trkpt><trkpt lat="44.471308741031805" lon="9.9228858223439"><ele>1034.0</ele><time>2026-05-03T09:21:49Z</time></trkpt><trkpt lat="44.47140455491092" lon="9.923160926718586"><ele>1034.0</ele><time>2026-05-03T09:21:50Z</time></trkpt><trkpt lat="44.4715586573982" lon="9.923442968965391"><ele>1031.5</ele><time>2026-05-03T09:21:51Z</time></trkpt><trkpt lat="44.471700973370076" lon="9.9237391749532"><ele>1029.0</ele><time>2026-05-03T09:21:52Z</time></trkpt><trkpt lat="44.47177682338699" lon="9.924021405974846"><ele>1031.6666666666667</ele><time>2026-05-03T09:21:53Z</time></trkpt><trkpt lat="44.47180267025675" lon="9.924241881853028"><ele>1034.3333333333335</ele><time>2026-05-03T09:21:54Z</time></trkpt><trkpt lat="44.47177901418709" lon="9.924466896352408"><ele>1037.0</ele><time>2026-05-03T09:21:55Z</time></trkpt><trkpt lat="44.47170857323525" lon="9.924726276665679"><ele>1037.0</ele><time>2026-05-03T09:21:56Z</time></trkpt><trkpt lat="44.47161070457396" lon="9.925020790508322"><ele>1037.0</ele><time>2026-05-03T09:21:57Z</time></trkpt><trkpt lat="44.471509789651996" lon="9.925317736784159"><ele>1041.0</ele><time>2026-05-03T09:21:58Z</time></trkpt><trkpt lat="44.471412236979155" lon="9.92559719673389"><ele>1045.0</ele><time>2026-05-03T09:21:59Z</time></trkpt><trkpt lat="44.47134277841567" lon="9.92586474590829"><ele>1049.0</ele><time>2026-05-03T09:22:00Z</time></trkpt><trkpt lat="44.47129997012149" lon="9.926134005893879"><ele>1049.6666666666667</ele><time>2026-05-03T09:22:01Z</time></trkpt><trkpt lat="44.47128715875398" lon="9.926426146164319"><ele>1050.3333333333333</ele><time>2026-05-03T09:22:02Z</time></trkpt><trkpt lat="44.47132289410593" lon="9.92674459586696"><ele>1051.0</ele><time>2026-05-03T09:22:03Z</time></trkpt><trkpt lat="44.4713652350445" lon="9.92703073314828"><ele>1048.6666666666665</ele><time>2026-05-03T09:22:04Z</time></trkpt><trkpt lat="44.47132815655079" lon="9.927276328003646"><ele>1046.3333333333333</ele><time>2026-05-03T09:22:05Z</time></trkpt><trkpt lat="44.471320966433225" lon="9.927507596544352"><ele>1044.0</ele><time>2026-05-03T09:22:06Z</time></trkpt><trkpt lat="44.471301885272666" lon="9.927711628103323"><ele>1042.8</ele><time>2026-05-03T09:22:07Z</time></trkpt><trkpt lat="44.471314373464786" lon="9.927874942701049"><ele>1041.6000000000001</ele><time>2026-05-03T09:22:08Z</time></trkpt><trkpt lat="44.47134760527418" lon="9.928011306842262"><ele>1040.4</ele><time>2026-05-03T09:22:09Z</time></trkpt><trkpt lat="44.471386066162616" lon="9.92812138963386"><ele>1039.2</ele><time>2026-05-03T09:22:10Z</time></trkpt><trkpt lat="44.47142975319381" lon="9.928197820891944"><ele>1038.0</ele><time>2026-05-03T09:22:11Z</time></trkpt><trkpt lat="44.47149297718663" lon="9.928328174848755"><ele>1038.6666666666667</ele><time>2026-05-03T09:22:13Z</time></trkpt><trkpt lat="44.47154757229186" lon="9.928444258759084"><ele>1039.3333333333333</ele><time>2026-05-03T09:22:15Z</time></trkpt><trkpt lat="44.47160795477458" lon="9.928571317313061"><ele>1040.0</ele><time>2026-05-03T09:22:16.999Z</time></trkpt><trkpt lat="44.47164457152899" lon="9.928650942190655"><ele>1040.6666666666665</ele><time>2026-05-03T09:22:17.999Z</time></trkpt><trkpt lat="44.47166423577608" lon="9.928738161763206"><ele>1041.3333333333333</ele><time>2026-05-03T09:22:18.999Z</time></trkpt><trkpt lat="44.47172225326418" lon="9.928849951550077"><ele>1042.0</ele><time>2026-05-03T09:22:20.999Z</time></trkpt><trkpt lat="44.471766692788904" lon="9.928983086756427"><ele>1042.0</ele><time>2026-05-03T09:22:22.999Z</time></trkpt><trkpt lat="44.47182466226184" lon="9.929122071575028"><ele>1042.0</ele><time>2026-05-03T09:22:24.999Z</time></trkpt><trkpt lat="44.471871219672906" lon="9.929189908264444"><ele>1042.0</ele><time>2026-05-03T09:22:25.999Z</time></trkpt><trkpt lat="44.47190167201648" lon="9.929269738284992"><ele>1042.0</ele><time>2026-05-03T09:22:26.999Z</time></trkpt><trkpt lat="44.471929702274345" lon="9.92935107212949"><ele>1042.0</ele><time>2026-05-03T09:22:27.999Z</time></trkpt><trkpt lat="44.47196338216762" lon="9.929437729517112"><ele>1042.0</ele><time>2026-05-03T09:22:28.999Z</time></trkpt><trkpt lat="44.47199999701612" lon="9.929517723026947"><ele>1042.0</ele><time>2026-05-03T09:22:29.999Z</time></trkpt><trkpt lat="44.47203048343744" lon="9.929600706580088"><ele>1040.7142857142858</ele><time>2026-05-03T09:22:30.999Z</time></trkpt><trkpt lat="44.47206031227767" lon="9.929688214205363"><ele>1039.4285714285716</ele><time>2026-05-03T09:22:31.999Z</time></trkpt><trkpt lat="44.47209401532465" lon="9.929782525356899"><ele>1038.1428571428573</ele><time>2026-05-03T09:22:32.999Z</time></trkpt><trkpt lat="44.47212580380274" lon="9.929874014137576"><ele>1036.857142857143</ele><time>2026-05-03T09:22:33.999Z</time></trkpt><trkpt lat="44.47215742976857" lon="9.929966062088829"><ele>1035.5714285714287</ele><time>2026-05-03T09:22:34.999Z</time></trkpt><trkpt lat="44.472189529991994" lon="9.93005951733451"><ele>1034.2857142857144</ele><time>2026-05-03T09:22:35.999Z</time></trkpt><trkpt lat="44.47222329226922" lon="9.930146957528454"><ele>1033.0</ele><time>2026-05-03T09:22:36.999Z</time></trkpt><trkpt lat="44.472259857710355" lon="9.930235166002264"><ele>1033.0000000000002</ele><time>2026-05-03T09:22:37.999Z</time></trkpt><trkpt lat="44.47230473413954" lon="9.930330187870707"><ele>1033.0</ele><time>2026-05-03T09:22:38.999Z</time></trkpt><trkpt lat="44.472349929020474" lon="9.930401501846701"><ele>1033.0</ele><time>2026-05-03T09:22:39.999Z</time></trkpt><trkpt lat="44.4723700175989" lon="9.930500606334993"><ele>1033.0</ele><time>2026-05-03T09:22:40.999Z</time></trkpt><trkpt lat="44.472382255741614" lon="9.930589716195254"><ele>1033.0</ele><time>2026-05-03T09:22:41.999Z</time></trkpt><trkpt lat="44.472424249663526" lon="9.93067738535779"><ele>1033.0000000000002</ele><time>2026-05-03T09:22:42.999Z</time></trkpt><trkpt lat="44.472444347851514" lon="9.930794211826964"><ele>1033.0</ele><time>2026-05-03T09:22:43.999Z</time></trkpt><trkpt lat="44.47246634926999" lon="9.930922844487672"><ele>1031.25</ele><time>2026-05-03T09:22:44.999Z</time></trkpt><trkpt lat="44.47248159179405" lon="9.93107321718701"><ele>1029.5</ele><time>2026-05-03T09:22:45.999Z</time></trkpt><trkpt lat="44.47248219987469" lon="9.931235902339644"><ele>1027.75</ele><time>2026-05-03T09:22:46.999Z</time></trkpt><trkpt lat="44.47245980107494" lon="9.931424280842158"><ele>1026.0</ele><time>2026-05-03T09:22:47.999Z</time></trkpt><trkpt lat="44.47241255756825" lon="9.931633440047008"><ele>1022.6666666666667</ele><time>2026-05-03T09:22:48.999Z</time></trkpt><trkpt lat="44.47237546101713" lon="9.931848661094378"><ele>1019.3333333333334</ele><time>2026-05-03T09:22:49.999Z</time></trkpt><trkpt lat="44.47232074634381" lon="9.932056103606861"><ele>1016.0</ele><time>2026-05-03T09:22:50.999Z</time></trkpt><trkpt lat="44.47227358662888" lon="9.932270699887356"><ele>1016.0</ele><time>2026-05-03T09:22:51.999Z</time></trkpt><trkpt lat="44.47223005491095" lon="9.932478171999827"><ele>1016.0</ele><time>2026-05-03T09:22:52.999Z</time></trkpt><trkpt lat="44.472170947384285" lon="9.932671281424616"><ele>1016.0</ele><time>2026-05-03T09:22:53.999Z</time></trkpt><trkpt lat="44.47211125781892" lon="9.932865436335595"><ele>1019.0</ele><time>2026-05-03T09:22:54.999Z</time></trkpt><trkpt lat="44.47203586065079" lon="9.933065161270836"><ele>1022.0</ele><time>2026-05-03T09:22:55.999Z</time></trkpt><trkpt lat="44.47195567155401" lon="9.933289741247112"><ele>1025.0</ele><time>2026-05-03T09:22:56.999Z</time></trkpt><trkpt lat="44.47184420385104" lon="9.933507020243027"><ele>1025.0</ele><time>2026-05-03T09:22:57.999Z</time></trkpt><trkpt lat="44.471749654003844" lon="9.933721520719995"><ele>1025.0</ele><time>2026-05-03T09:22:58.999Z</time></trkpt><trkpt lat="44.4716603215983" lon="9.933921331788124"><ele>1025.0</ele><time>2026-05-03T09:22:59.999Z</time></trkpt><trkpt lat="44.47158245731824" lon="9.934111667036984"><ele>1023.0</ele><time>2026-05-03T09:23:00.999Z</time></trkpt><trkpt lat="44.47149947788632" lon="9.93431782489988"><ele>1021.0</ele><time>2026-05-03T09:23:01.999Z</time></trkpt><trkpt lat="44.47144396325559" lon="9.934547452284342"><ele>1019.0</ele><time>2026-05-03T09:23:02.999Z</time></trkpt><trkpt lat="44.4714217812927" lon="9.934768048104958"><ele>1019.0</ele><time>2026-05-03T09:23:03.999Z</time></trkpt><trkpt lat="44.47141452502797" lon="9.934934760740529"><ele>1019.0000000000001</ele><time>2026-05-03T09:23:04.999Z</time></trkpt><trkpt lat="44.4714300831978" lon="9.935057031322991"><ele>1019.0000000000001</ele><time>2026-05-03T09:23:05.999Z</time></trkpt><trkpt lat="44.471475237383615" lon="9.935157235948855"><ele>1019.0</ele><time>2026-05-03T09:23:06.999Z</time></trkpt><trkpt lat="44.47155387343332" lon="9.935211073121078"><ele>1019.0</ele><time>2026-05-03T09:23:07.999Z</time></trkpt><trkpt lat="44.471657147831" lon="9.935211716650887"><ele>1019.5</ele><time>2026-05-03T09:23:08.999Z</time></trkpt><trkpt lat="44.471769771377154" lon="9.935183976752283"><ele>1020.0</ele><time>2026-05-03T09:23:09.999Z</time></trkpt><trkpt lat="44.4719021031313" lon="9.935182709208148"><ele>1020.5</ele><time>2026-05-03T09:23:11Z</time></trkpt><trkpt lat="44.472048288730676" lon="9.935231996117237"><ele>1021.0</ele><time>2026-05-03T09:23:12Z</time></trkpt><trkpt lat="44.47216740211532" lon="9.935409958787952"><ele>1021.0</ele><time>2026-05-03T09:23:13Z</time></trkpt><trkpt lat="44.472324267076026" lon="9.93558523289164"><ele>1021.0</ele><time>2026-05-03T09:23:14Z</time></trkpt><trkpt lat="44.472473352003504" lon="9.93578234976042"><ele>1021.0</ele><time>2026-05-03T09:23:15Z</time></trkpt><trkpt lat="44.472608889472674" lon="9.935928334113894"><ele>1023.0</ele><time>2026-05-03T09:23:16Z</time></trkpt><trkpt lat="44.472720629525845" lon="9.936082747797077"><ele>1025.0</ele><time>2026-05-03T09:23:17Z</time></trkpt><trkpt lat="44.472804863691216" lon="9.936242554359394"><ele>1027.0</ele><time>2026-05-03T09:23:18Z</time></trkpt><trkpt lat="44.472833146684415" lon="9.936412972829457"><ele>1029.0</ele><time>2026-05-03T09:23:19Z</time></trkpt><trkpt lat="44.47284934181729" lon="9.936588715078933"><ele>1028.3333333333333</ele><time>2026-05-03T09:23:20Z</time></trkpt><trkpt lat="44.472786916861864" lon="9.936746379778679"><ele>1027.6666666666665</ele><time>2026-05-03T09:23:21Z</time></trkpt><trkpt lat="44.47272517250075" lon="9.936970360811328"><ele>1027.0</ele><time>2026-05-03T09:23:22Z</time></trkpt><trkpt lat="44.47266244956307" lon="9.9372823418745"><ele>1025.0</ele><time>2026-05-03T09:23:23Z</time></trkpt><trkpt lat="44.472622998388545" lon="9.937652809900017"><ele>1023.0</ele><time>2026-05-03T09:23:24Z</time></trkpt><trkpt lat="44.47260545596916" lon="9.937997156518055"><ele>1023.0</ele><time>2026-05-03T09:23:25Z</time></trkpt><trkpt lat="44.47256728000472" lon="9.938293094240436"><ele>1023.0</ele><time>2026-05-03T09:23:26Z</time></trkpt><trkpt lat="44.47253963904397" lon="9.938526957049806"><ele>1023.0</ele><time>2026-05-03T09:23:27Z</time></trkpt><trkpt lat="44.472469815699064" lon="9.938696811042917"><ele>1021.75</ele><time>2026-05-03T09:23:28Z</time></trkpt><trkpt lat="44.47236228276803" lon="9.938826265278525"><ele>1020.5</ele><time>2026-05-03T09:23:29Z</time></trkpt><trkpt lat="44.472252852215334" lon="9.938947624992949"><ele>1019.25</ele><time>2026-05-03T09:23:30Z</time></trkpt><trkpt lat="44.47215863693757" lon="9.939056561790384"><ele>1018.0</ele><time>2026-05-03T09:23:31Z</time></trkpt><trkpt lat="44.47212438020599" lon="9.939206243641275"><ele>1019.0</ele><time>2026-05-03T09:23:32Z</time></trkpt><trkpt lat="44.47213714081926" lon="9.939381250438949"><ele>1020.0</ele><time>2026-05-03T09:23:33Z</time></trkpt><trkpt lat="44.472199880979765" lon="9.939568573037345"><ele>1021.0</ele><time>2026-05-03T09:23:34Z</time></trkpt><trkpt lat="44.472258866654514" lon="9.93979295460099"><ele>1022.0</ele><time>2026-05-03T09:23:35Z</time></trkpt><trkpt lat="44.47230787792505" lon="9.939978430495742"><ele>1027.6666666666667</ele><time>2026-05-03T09:23:36Z</time></trkpt><trkpt lat="44.472383346178795" lon="9.9401116130633"><ele>1033.3333333333333</ele><time>2026-05-03T09:23:37Z</time></trkpt><trkpt lat="44.472519826072855" lon="9.940176331566406"><ele>1039.0</ele><time>2026-05-03T09:23:38Z</time></trkpt><trkpt lat="44.47271118851255" lon="9.94020701057927"><ele>1039.0</ele><time>2026-05-03T09:23:39Z</time></trkpt><trkpt lat="44.47292356833748" lon="9.940240649945228"><ele>1039.0</ele><time>2026-05-03T09:23:40Z</time></trkpt><trkpt lat="44.4731445703582" lon="9.940253455061375"><ele>1039.0</ele><time>2026-05-03T09:23:41Z</time></trkpt><trkpt lat="44.4733224269821" lon="9.940254708911993"><ele>1036.0</ele><time>2026-05-03T09:23:42Z</time></trkpt><trkpt lat="44.4734564355319" lon="9.940355041679897"><ele>1033.0</ele><time>2026-05-03T09:23:43Z</time></trkpt><trkpt lat="44.47357433874175" lon="9.940539279359594"><ele>1030.0</ele><time>2026-05-03T09:23:44Z</time></trkpt><trkpt lat="44.473713826137455" lon="9.940807682823094"><ele>1023.6666666666666</ele><time>2026-05-03T09:23:45Z</time></trkpt><trkpt lat="44.473846379751734" lon="9.941028827850571"><ele>1017.3333333333333</ele><time>2026-05-03T09:23:46Z</time></trkpt><trkpt lat="44.47395370287622" lon="9.941231201216963"><ele>1011.0</ele><time>2026-05-03T09:23:47Z</time></trkpt><trkpt lat="44.47412829924803" lon="9.941358435033766"><ele>1011.0</ele><time>2026-05-03T09:23:48Z</time></trkpt><trkpt lat="44.474313586106945" lon="9.941508339424729"><ele>1011.0</ele><time>2026-05-03T09:23:49Z</time></trkpt><trkpt lat="44.47439159880342" lon="9.941750612133099"><ele>1011.0</ele><time>2026-05-03T09:23:50Z</time></trkpt><trkpt lat="44.47432580555989" lon="9.941627497461878"><ele>1011.0</ele><time>2026-05-03T09:23:51Z</time></trkpt><trkpt lat="44.47423799548641" lon="9.94171423307356"><ele>1011.0</ele><time>2026-05-03T09:23:52Z</time></trkpt><trkpt lat="44.47412678236263" lon="9.941809068502044"><ele>1011.0</ele><time>2026-05-03T09:23:53Z</time></trkpt><trkpt lat="44.47396491544345" lon="9.941990419080938"><ele>1011.0</ele><time>2026-05-03T09:23:54Z</time></trkpt><trkpt lat="44.47379059052469" lon="9.94218454967639"><ele>1014.0</ele><time>2026-05-03T09:23:55Z</time></trkpt><trkpt lat="44.47364693261558" lon="9.942374307506508"><ele>1017.0</ele><time>2026-05-03T09:23:56Z</time></trkpt><trkpt lat="44.47356280712065" lon="9.942566676774204"><ele>1020.0</ele><time>2026-05-03T09:23:57Z</time></trkpt><trkpt lat="44.473521630334396" lon="9.942794526449878"><ele>1020.0</ele><time>2026-05-03T09:23:58Z</time></trkpt><trkpt lat="44.47350315952597" lon="9.94305320395305"><ele>1020.0</ele><time>2026-05-03T09:23:59Z</time></trkpt><trkpt lat="44.473519602010576" lon="9.94328185201557"><ele>1020.0</ele><time>2026-05-03T09:24:00Z</time></trkpt><trkpt lat="44.473566635960715" lon="9.943509149377508"><ele>1019.3333333333333</ele><time>2026-05-03T09:24:01Z</time></trkpt><trkpt lat="44.47368172217965" lon="9.94374278521288"><ele>1018.6666666666666</ele><time>2026-05-03T09:24:02Z</time></trkpt><trkpt lat="44.4738156466446" lon="9.943986241727668"><ele>1018.0</ele><time>2026-05-03T09:24:03Z</time></trkpt><trkpt lat="44.473953370639336" lon="9.944282200052022"><ele>1012.0</ele><time>2026-05-03T09:24:04Z</time></trkpt><trkpt lat="44.47407046307191" lon="9.944599146034454"><ele>1006.0</ele><time>2026-05-03T09:24:05Z</time></trkpt><trkpt lat="44.47413621125054" lon="9.944900117275205"><ele>1007.0</ele><time>2026-05-03T09:24:06Z</time></trkpt><trkpt lat="44.47419523501699" lon="9.945178961776119"><ele>1008.0</ele><time>2026-05-03T09:24:07Z</time></trkpt><trkpt lat="44.47425217708147" lon="9.945471998136222"><ele>1009.0</ele><time>2026-05-03T09:24:08Z</time></trkpt><trkpt lat="44.47429770483907" lon="9.945741610750307"><ele>1010.4000000000001</ele><time>2026-05-03T09:24:09Z</time></trkpt><trkpt lat="44.47433576267259" lon="9.945939469788637"><ele>1011.8000000000001</ele><time>2026-05-03T09:24:10Z</time></trkpt><trkpt lat="44.474352422435615" lon="9.946078588830586"><ele>1013.1999999999999</ele><time>2026-05-03T09:24:11Z</time></trkpt><trkpt lat="44.474383254009346" lon="9.946189239166092"><ele>1014.5999999999999</ele><time>2026-05-03T09:24:12Z</time></trkpt><trkpt lat="44.474447145952205" lon="9.94630037551101"><ele>1016.0</ele><time>2026-05-03T09:24:13Z</time></trkpt><trkpt lat="44.474562733489655" lon="9.946366051635604"><ele>1012.0</ele><time>2026-05-03T09:24:14Z</time></trkpt><trkpt lat="44.47472594271443" lon="9.9463982880771"><ele>1008.0</ele><time>2026-05-03T09:24:15Z</time></trkpt><trkpt lat="44.474939190670064" lon="9.946460456638363"><ele>1004.0</ele><time>2026-05-03T09:24:16Z</time></trkpt><trkpt lat="44.47516972676546" lon="9.946541607093396"><ele>1004.0</ele><time>2026-05-03T09:24:17Z</time></trkpt><trkpt lat="44.4754156617476" lon="9.946577921451158"><ele>1004.0</ele><time>2026-05-03T09:24:18Z</time></trkpt><trkpt lat="44.47565276725871" lon="9.94662206639431"><ele>1007.0</ele><time>2026-05-03T09:24:19Z</time></trkpt><trkpt lat="44.47589215266995" lon="9.946730265329224"><ele>1010.0</ele><time>2026-05-03T09:24:20Z</time></trkpt><trkpt lat="44.476139042381696" lon="9.946876720731636"><ele>1004.3333333333334</ele><time>2026-05-03T09:24:21Z</time></trkpt><trkpt lat="44.476356085711664" lon="9.946995331986939"><ele>998.6666666666667</ele><time>2026-05-03T09:24:22Z</time></trkpt><trkpt lat="44.47649416185047" lon="9.947154761425148"><ele>993.0</ele><time>2026-05-03T09:24:23Z</time></trkpt><trkpt lat="44.476589277936164" lon="9.947345300202668"><ele>997.3333333333333</ele><time>2026-05-03T09:24:24Z</time></trkpt><trkpt lat="44.476690830812714" lon="9.94760029655314"><ele>1001.6666666666666</ele><time>2026-05-03T09:24:25Z</time></trkpt><trkpt lat="44.47684273904582" lon="9.94786273498914"><ele>1006.0</ele><time>2026-05-03T09:24:26Z</time></trkpt><trkpt lat="44.47698230393019" lon="9.94807315394283"><ele>999.6666666666666</ele><time>2026-05-03T09:24:26.999Z</time></trkpt><trkpt lat="44.47718297157726" lon="9.948225467983821"><ele>993.3333333333333</ele><time>2026-05-03T09:24:27.999Z</time></trkpt><trkpt lat="44.477390944709406" lon="9.948297792089951"><ele>987.0</ele><time>2026-05-03T09:24:28.999Z</time></trkpt><trkpt lat="44.47753963421544" lon="9.948361071245134"><ele>989.6666666666667</ele><time>2026-05-03T09:24:29.999Z</time></trkpt><trkpt lat="44.4776063915333" lon="9.948538379830202"><ele>992.3333333333334</ele><time>2026-05-03T09:24:30.999Z</time></trkpt><trkpt lat="44.47766616683229" lon="9.9487632172145"><ele>995.0</ele><time>2026-05-03T09:24:31.999Z</time></trkpt><trkpt lat="44.477699463696695" lon="9.949038684076992"><ele>996.6666666666667</ele><time>2026-05-03T09:24:32.999Z</time></trkpt><trkpt lat="44.477695412395185" lon="9.949324724486141"><ele>998.3333333333333</ele><time>2026-05-03T09:24:33.999Z</time></trkpt><trkpt lat="44.47769324052492" lon="9.94960945463096"><ele>1000.0</ele><time>2026-05-03T09:24:34.999Z</time></trkpt><trkpt lat="44.477740275529634" lon="9.949802330954396"><ele>1000.0</ele><time>2026-05-03T09:24:35.999Z</time></trkpt><trkpt lat="44.47782220731934" lon="9.949967419753253"><ele>1000.0</ele><time>2026-05-03T09:24:36.999Z</time></trkpt><trkpt lat="44.477986760862635" lon="9.950102302581355"><ele>1000.0</ele><time>2026-05-03T09:24:37.999Z</time></trkpt><trkpt lat="44.47818504971981" lon="9.950200888098891"><ele>1001.0</ele><time>2026-05-03T09:24:38.999Z</time></trkpt><trkpt lat="44.47838587259991" lon="9.950211052940688"><ele>1002.0</ele><time>2026-05-03T09:24:39.999Z</time></trkpt><trkpt lat="44.478563771198274" lon="9.95015645196705"><ele>1003.0</ele><time>2026-05-03T09:24:40.999Z</time></trkpt><trkpt lat="44.47872800809109" lon="9.950106201153607"><ele>1002.3333333333333</ele><time>2026-05-03T09:24:41.999Z</time></trkpt><trkpt lat="44.47889283544408" lon="9.950062076260384"><ele>1001.6666666666667</ele><time>2026-05-03T09:24:42.999Z</time></trkpt><trkpt lat="44.47906319845575" lon="9.950019124656746"><ele>1001.0</ele><time>2026-05-03T09:24:43.999Z</time></trkpt><trkpt lat="44.47925324110779" lon="9.949987771993225"><ele>995.3333333333334</ele><time>2026-05-03T09:24:44.999Z</time></trkpt><trkpt lat="44.47945087043428" lon="9.94994844505433"><ele>989.6666666666667</ele><time>2026-05-03T09:24:45.999Z</time></trkpt><trkpt lat="44.47966955692273" lon="9.949911902602762"><ele>984.0</ele><time>2026-05-03T09:24:46.999Z</time></trkpt><trkpt lat="44.47991453554263" lon="9.949868772464535"><ele>984.0</ele><time>2026-05-03T09:24:47.999Z</time></trkpt><trkpt lat="44.48016092887994" lon="9.949824208236992"><ele>984.0</ele><time>2026-05-03T09:24:48.999Z</time></trkpt><trkpt lat="44.4803844074053" lon="9.94979647033178"><ele>984.3333333333333</ele><time>2026-05-03T09:24:49.999Z</time></trkpt><trkpt lat="44.48056319662009" lon="9.949772894607076"><ele>984.6666666666666</ele><time>2026-05-03T09:24:50.999Z</time></trkpt><trkpt lat="44.480701902688004" lon="9.94970528549724"><ele>985.0</ele><time>2026-05-03T09:24:51.999Z</time></trkpt><trkpt lat="44.48083432210038" lon="9.949501607353374"><ele>985.0</ele><time>2026-05-03T09:24:52.999Z</time></trkpt><trkpt lat="44.48098207666134" lon="9.949223079861232"><ele>985.0</ele><time>2026-05-03T09:24:53.999Z</time></trkpt><trkpt lat="44.48116292122302" lon="9.948963664520097"><ele>981.3333333333333</ele><time>2026-05-03T09:24:54.999Z</time></trkpt><trkpt lat="44.481323578280474" lon="9.948730689587395"><ele>977.6666666666667</ele><time>2026-05-03T09:24:55.999Z</time></trkpt><trkpt lat="44.481446410791904" lon="9.948560557923676"><ele>974.0</ele><time>2026-05-03T09:24:56.999Z</time></trkpt><trkpt lat="44.48153939026567" lon="9.948444049352538"><ele>974.0</ele><time>2026-05-03T09:24:57.999Z</time></trkpt><trkpt lat="44.481631924724624" lon="9.948391468798714"><ele>974.0</ele><time>2026-05-03T09:24:58.999Z</time></trkpt><trkpt lat="44.4817364255226" lon="9.948488887936456"><ele>974.0</ele><time>2026-05-03T09:24:59.999Z</time></trkpt><trkpt lat="44.481776385338726" lon="9.94870554384148"><ele>974.0</ele><time>2026-05-03T09:25:00.999Z</time></trkpt><trkpt lat="44.48185379648132" lon="9.948936349163867"><ele>974.0</ele><time>2026-05-03T09:25:01.999Z</time></trkpt><trkpt lat="44.48192997512446" lon="9.949186847180622"><ele>974.0</ele><time>2026-05-03T09:25:02.999Z</time></trkpt><trkpt lat="44.48210821818564" lon="9.949395966197523"><ele>974.0</ele><time>2026-05-03T09:25:03.999Z</time></trkpt><trkpt lat="44.48233765002965" lon="9.9495845676746"><ele>973.0</ele><time>2026-05-03T09:25:04.999Z</time></trkpt><trkpt lat="44.48257018237698" lon="9.949783452135689"><ele>972.0</ele><time>2026-05-03T09:25:05.999Z</time></trkpt><trkpt lat="44.48276313604804" lon="9.94995114261832"><ele>966.3333333333333</ele><time>2026-05-03T09:25:06.999Z</time></trkpt><trkpt lat="44.48291752606202" lon="9.950043753705298"><ele>960.6666666666666</ele><time>2026-05-03T09:25:07.999Z</time></trkpt><trkpt lat="44.48311300220033" lon="9.950040117817124"><ele>955.0</ele><time>2026-05-03T09:25:08.999Z</time></trkpt><trkpt lat="44.48335342289909" lon="9.94997890529398"><ele>955.0</ele><time>2026-05-03T09:25:09.999Z</time></trkpt><trkpt lat="44.48357269727148" lon="9.950028702386696"><ele>955.0</ele><time>2026-05-03T09:25:10.999Z</time></trkpt><trkpt lat="44.48376067561432" lon="9.95017606169416"><ele>955.0</ele><time>2026-05-03T09:25:11.999Z</time></trkpt><trkpt lat="44.48392261811646" lon="9.950383755590996"><ele>955.6666666666666</ele><time>2026-05-03T09:25:12.999Z</time></trkpt><trkpt lat="44.48402996922475" lon="9.950610240906915"><ele>956.3333333333333</ele><time>2026-05-03T09:25:13.999Z</time></trkpt><trkpt lat="44.48410136208726" lon="9.950881846434068"><ele>957.0</ele><time>2026-05-03T09:25:14.999Z</time></trkpt><trkpt lat="44.48418111303619" lon="9.951221094351062"><ele>957.0</ele><time>2026-05-03T09:25:15.999Z</time></trkpt><trkpt lat="44.4842558763544" lon="9.951595031597861"><ele>957.0</ele><time>2026-05-03T09:25:17Z</time></trkpt><trkpt lat="44.48434767960122" lon="9.95191882410774"><ele>960.5</ele><time>2026-05-03T09:25:18Z</time></trkpt><trkpt lat="44.48448147557022" lon="9.952254104655648"><ele>964.0</ele><time>2026-05-03T09:25:19Z</time></trkpt><trkpt lat="44.48462489089819" lon="9.952398290258202"><ele>954.6666666666666</ele><time>2026-05-03T09:25:20Z</time></trkpt><trkpt lat="44.484749178548334" lon="9.952618740875893"><ele>945.3333333333333</ele><time>2026-05-03T09:25:21Z</time></trkpt><trkpt lat="44.484826804483944" lon="9.95286546594597"><ele>936.0</ele><time>2026-05-03T09:25:22Z</time></trkpt><trkpt lat="44.484920032500156" lon="9.953095642921467"><ele>936.0</ele><time>2026-05-03T09:25:23Z</time></trkpt><trkpt lat="44.48497354984514" lon="9.953342282287233"><ele>936.0</ele><time>2026-05-03T09:25:24Z</time></trkpt><trkpt lat="44.48500068373877" lon="9.95359649147016"><ele>936.0</ele><time>2026-05-03T09:25:25Z</time></trkpt><trkpt lat="44.485013594897204" lon="9.953865115524898"><ele>935.6666666666667</ele><time>2026-05-03T09:25:26Z</time></trkpt><trkpt lat="44.485004119911515" lon="9.95413376374483"><ele>935.3333333333334</ele><time>2026-05-03T09:25:27Z</time></trkpt><trkpt lat="44.484962584146096" lon="9.95438622603676"><ele>935.0</ele><time>2026-05-03T09:25:28Z</time></trkpt><trkpt lat="44.4848995092266" lon="9.954694389761594"><ele>924.5</ele><time>2026-05-03T09:25:29Z</time></trkpt><trkpt lat="44.48482258852645" lon="9.955067647932482"><ele>914.0</ele><time>2026-05-03T09:25:30Z</time></trkpt><trkpt lat="44.48473643990837" lon="9.955462450235075"><ele>914.0</ele><time>2026-05-03T09:25:31Z</time></trkpt><trkpt lat="44.48462509716973" lon="9.955822942444643"><ele>914.0</ele><time>2026-05-03T09:25:32Z</time></trkpt><trkpt lat="44.48455938597678" lon="9.956181783286436"><ele>919.0</ele><time>2026-05-03T09:25:33Z</time></trkpt><trkpt lat="44.484515554356264" lon="9.956539870611834"><ele>924.0</ele><time>2026-05-03T09:25:34Z</time></trkpt><trkpt lat="44.484482981544446" lon="9.956953561736894"><ele>924.0</ele><time>2026-05-03T09:25:35Z</time></trkpt><trkpt lat="44.48444962517962" lon="9.957365324418364"><ele>924.0</ele><time>2026-05-03T09:25:36Z</time></trkpt><trkpt lat="44.4844166729742" lon="9.957721822770715"><ele>924.3333333333333</ele><time>2026-05-03T09:25:37Z</time></trkpt><trkpt lat="44.484390278089606" lon="9.958023165401121"><ele>924.6666666666666</ele><time>2026-05-03T09:25:38Z</time></trkpt><trkpt lat="44.48436874886294" lon="9.958290873510567"><ele>925.0</ele><time>2026-05-03T09:25:39Z</time></trkpt><trkpt lat="44.484353709761685" lon="9.958498054974799"><ele>928.3333333333333</ele><time>2026-05-03T09:25:40Z</time></trkpt><trkpt lat="44.48437109110861" lon="9.95865164944375"><ele>931.6666666666667</ele><time>2026-05-03T09:25:41Z</time></trkpt><trkpt lat="44.48446312425537" lon="9.958774264287882"><ele>935.0</ele><time>2026-05-03T09:25:42Z</time></trkpt><trkpt lat="44.484706271845525" lon="9.958774551090361"><ele>923.5</ele><time>2026-05-03T09:25:43Z</time></trkpt><trkpt lat="44.484939053253306" lon="9.958823876294584"><ele>912.0</ele><time>2026-05-03T09:25:44Z</time></trkpt><trkpt lat="44.48519357457849" lon="9.95887061254144"><ele>912.0</ele><time>2026-05-03T09:25:45Z</time></trkpt><trkpt lat="44.485308312229144" lon="9.958844405746095"><ele>912.0</ele><time>2026-05-03T09:25:46Z</time></trkpt><trkpt lat="44.48541744909648" lon="9.95891270119086"><ele>912.0</ele><time>2026-05-03T09:25:47Z</time></trkpt><trkpt lat="44.48551833340723" lon="9.959017159352982"><ele>912.0</ele><time>2026-05-03T09:25:48Z</time></trkpt><trkpt lat="44.485594971030615" lon="9.959199864621127"><ele>905.6666666666667</ele><time>2026-05-03T09:25:49Z</time></trkpt><trkpt lat="44.48560914890511" lon="9.959431294569702"><ele>899.3333333333334</ele><time>2026-05-03T09:25:50Z</time></trkpt><trkpt lat="44.48561386948463" lon="9.959729549508769"><ele>893.0</ele><time>2026-05-03T09:25:51Z</time></trkpt><trkpt lat="44.48562067935268" lon="9.960046938700948"><ele>893.0</ele><time>2026-05-03T09:25:52Z</time></trkpt><trkpt lat="44.48565594860547" lon="9.960335204747652"><ele>893.0</ele><time>2026-05-03T09:25:53Z</time></trkpt><trkpt lat="44.48569807349269" lon="9.960601924556979"><ele>893.0</ele><time>2026-05-03T09:25:54Z</time></trkpt><trkpt lat="44.48573664597449" lon="9.960883037487203"><ele>893.0</ele><time>2026-05-03T09:25:55Z</time></trkpt><trkpt lat="44.485781252759786" lon="9.961166978055134"><ele>893.0</ele><time>2026-05-03T09:25:56Z</time></trkpt><trkpt lat="44.48582822608314" lon="9.961458302657066"><ele>893.0</ele><time>2026-05-03T09:25:57Z</time></trkpt><trkpt lat="44.48587892359193" lon="9.961772724509451"><ele>893.0</ele><time>2026-05-03T09:25:58Z</time></trkpt><trkpt lat="44.48592954566211" lon="9.962086678406889"><ele>893.0</ele><time>2026-05-03T09:25:59Z</time></trkpt><trkpt lat="44.48597758434775" lon="9.962377445120524"><ele>893.0</ele><time>2026-05-03T09:26:00Z</time></trkpt><trkpt lat="44.486020872851974" lon="9.962642426387855"><ele>892.3333333333334</ele><time>2026-05-03T09:26:01Z</time></trkpt><trkpt lat="44.48603365390533" lon="9.962884591521092"><ele>891.6666666666667</ele><time>2026-05-03T09:26:02Z</time></trkpt><trkpt lat="44.48598688400784" lon="9.963102754156724"><ele>891.0</ele><time>2026-05-03T09:26:03Z</time></trkpt><trkpt lat="44.4858866774414" lon="9.96332041910603"><ele>890.3333333333333</ele><time>2026-05-03T09:26:04Z</time></trkpt><trkpt lat="44.485758499491816" lon="9.963584755276178"><ele>889.6666666666666</ele><time>2026-05-03T09:26:05Z</time></trkpt><trkpt lat="44.48567902794193" lon="9.963810068800997"><ele>889.0</ele><time>2026-05-03T09:26:06Z</time></trkpt><trkpt lat="44.485609639155214" lon="9.963982563249179"><ele>889.0</ele><time>2026-05-03T09:26:07Z</time></trkpt><trkpt lat="44.48557817047736" lon="9.964178127999455"><ele>889.0</ele><time>2026-05-03T09:26:08Z</time></trkpt><trkpt lat="44.48557153362557" lon="9.96439930542479"><ele>889.0</ele><time>2026-05-03T09:26:09Z</time></trkpt><trkpt lat="44.48560073096552" lon="9.964613742459207"><ele>889.5</ele><time>2026-05-03T09:26:10Z</time></trkpt><trkpt lat="44.48566695910501" lon="9.964792226766344"><ele>890.0</ele><time>2026-05-03T09:26:11Z</time></trkpt><trkpt lat="44.485759260568024" lon="9.964925983551911"><ele>890.5</ele><time>2026-05-03T09:26:12Z</time></trkpt><trkpt lat="44.48589396467377" lon="9.964993919271784"><ele>891.0</ele><time>2026-05-03T09:26:13Z</time></trkpt><trkpt lat="44.48605153934653" lon="9.964994717080055"><ele>891.0</ele><time>2026-05-03T09:26:14Z</time></trkpt><trkpt lat="44.48618897162978" lon="9.964913428908497"><ele>891.0</ele><time>2026-05-03T09:26:15Z</time></trkpt><trkpt lat="44.486323554847566" lon="9.964825481790415"><ele>891.0</ele><time>2026-05-03T09:26:16Z</time></trkpt><trkpt lat="44.48646262568348" lon="9.964751531172478"><ele>891.0</ele><time>2026-05-03T09:26:17Z</time></trkpt><trkpt lat="44.48660011230771" lon="9.964704198576827"><ele>886.6666666666667</ele><time>2026-05-03T09:26:18Z</time></trkpt><trkpt lat="44.48674426603713" lon="9.9646509984417"><ele>882.3333333333334</ele><time>2026-05-03T09:26:19Z</time></trkpt><trkpt lat="44.48689153965003" lon="9.964651908482944"><ele>878.0</ele><time>2026-05-03T09:26:20Z</time></trkpt><trkpt lat="44.487047301446076" lon="9.964760192661984"><ele>875.3333333333334</ele><time>2026-05-03T09:26:21Z</time></trkpt><trkpt lat="44.48719589258054" lon="9.964918517766321"><ele>872.6666666666667</ele><time>2026-05-03T09:26:22Z</time></trkpt><trkpt lat="44.487303246001375" lon="9.965102685921677"><ele>870.0</ele><time>2026-05-03T09:26:23Z</time></trkpt><trkpt lat="44.487401203936265" lon="9.965310363189827"><ele>870.0</ele><time>2026-05-03T09:26:24Z</time></trkpt><trkpt lat="44.48750061765999" lon="9.965471260781563"><ele>870.0</ele><time>2026-05-03T09:26:25Z</time></trkpt><trkpt lat="44.48758248556373" lon="9.965653133754378"><ele>870.0</ele><time>2026-05-03T09:26:26Z</time></trkpt><trkpt lat="44.48766873197637" lon="9.965832037251333"><ele>871.75</ele><time>2026-05-03T09:26:27Z</time></trkpt><trkpt lat="44.487742758228066" lon="9.96600519749182"><ele>873.5</ele><time>2026-05-03T09:26:28Z</time></trkpt><trkpt lat="44.48782639689068" lon="9.96616441650537"><ele>875.25</ele><time>2026-05-03T09:26:29Z</time></trkpt><trkpt lat="44.487925160239136" lon="9.966283716549654"><ele>877.0</ele><time>2026-05-03T09:26:30Z</time></trkpt><trkpt lat="44.4880695542927" lon="9.966314781764412"><ele>877.0</ele><time>2026-05-03T09:26:31Z</time></trkpt><trkpt lat="44.488240802963176" lon="9.966257617548633"><ele>877.0</ele><time>2026-05-03T09:26:32Z</time></trkpt><trkpt lat="44.48841444428536" lon="9.966124141467718"><ele>877.0</ele><time>2026-05-03T09:26:33Z</time></trkpt><trkpt lat="44.48856639585704" lon="9.966056949745663"><ele>877.0</ele><time>2026-05-03T09:26:34Z</time></trkpt><trkpt lat="44.488707745119285" lon="9.96605918781999"><ele>877.0</ele><time>2026-05-03T09:26:35Z</time></trkpt><trkpt lat="44.48883884027142" lon="9.966225011551822"><ele>877.0</ele><time>2026-05-03T09:26:35.999Z</time></trkpt><trkpt lat="44.4889547723151" lon="9.966423028379172"><ele>877.0</ele><time>2026-05-03T09:26:36.999Z</time></trkpt><trkpt lat="44.489053560879846" lon="9.966599905165028"><ele>877.0</ele><time>2026-05-03T09:26:37.999Z</time></trkpt><trkpt lat="44.48914252646447" lon="9.966738522591832"><ele>877.0</ele><time>2026-05-03T09:26:38.999Z</time></trkpt><trkpt lat="44.48925300720288" lon="9.966834406287953"><ele>877.0</ele><time>2026-05-03T09:26:39.999Z</time></trkpt><trkpt lat="44.48939367576906" lon="9.96685383167019"><ele>877.0</ele><time>2026-05-03T09:26:40.999Z</time></trkpt><trkpt lat="44.48953951701722" lon="9.966757019503916"><ele>877.0</ele><time>2026-05-03T09:26:41.999Z</time></trkpt><trkpt lat="44.48966932960313" lon="9.966571367856604"><ele>877.0</ele><time>2026-05-03T09:26:42.999Z</time></trkpt><trkpt lat="44.489792404830624" lon="9.966390823763067"><ele>877.0</ele><time>2026-05-03T09:26:43.999Z</time></trkpt><trkpt lat="44.489913110534594" lon="9.96623321230908"><ele>877.0</ele><time>2026-05-03T09:26:44.999Z</time></trkpt><trkpt lat="44.49003233949955" lon="9.966096803418171"><ele>877.0</ele><time>2026-05-03T09:26:45.999Z</time></trkpt><trkpt lat="44.49015096854212" lon="9.965983094449145"><ele>877.0</ele><time>2026-05-03T09:26:46.999Z</time></trkpt><trkpt lat="44.49030657166446" lon="9.9659341757529"><ele>877.0</ele><time>2026-05-03T09:26:47.999Z</time></trkpt><trkpt lat="44.49047605519992" lon="9.965891056568296"><ele>877.0</ele><time>2026-05-03T09:26:48.999Z</time></trkpt><trkpt lat="44.490639233381486" lon="9.965895127765169"><ele>878.0</ele><time>2026-05-03T09:26:49.999Z</time></trkpt><trkpt lat="44.49079009877742" lon="9.965896332391344"><ele>879.0</ele><time>2026-05-03T09:26:50.999Z</time></trkpt><trkpt lat="44.4909444714046" lon="9.965908591388366"><ele>880.0</ele><time>2026-05-03T09:26:51.999Z</time></trkpt><trkpt lat="44.49112659329709" lon="9.965956480916502"><ele>876.0</ele><time>2026-05-03T09:26:52.999Z</time></trkpt><trkpt lat="44.49134519427295" lon="9.966050620742132"><ele>872.0</ele><time>2026-05-03T09:26:53.999Z</time></trkpt><trkpt lat="44.49157680946761" lon="9.96618481141902"><ele>872.0</ele><time>2026-05-03T09:26:54.999Z</time></trkpt><trkpt lat="44.49178510854126" lon="9.966305573137484"><ele>872.0</ele><time>2026-05-03T09:26:55.999Z</time></trkpt><trkpt lat="44.49199011677809" lon="9.966392794014904"><ele>872.0</ele><time>2026-05-03T09:26:56.999Z</time></trkpt><trkpt lat="44.49218249916983" lon="9.9664883210641"><ele>870.6666666666667</ele><time>2026-05-03T09:26:57.999Z</time></trkpt><trkpt lat="44.49234571555434" lon="9.966589034342151"><ele>869.3333333333333</ele><time>2026-05-03T09:26:58.999Z</time></trkpt><trkpt lat="44.492480499028126" lon="9.966689075613528"><ele>868.0</ele><time>2026-05-03T09:26:59.999Z</time></trkpt><trkpt lat="44.49257648638369" lon="9.966844268102628"><ele>868.0</ele><time>2026-05-03T09:27:00.999Z</time></trkpt><trkpt lat="44.49261590573217" lon="9.967085564406446"><ele>868.0</ele><time>2026-05-03T09:27:01.999Z</time></trkpt><trkpt lat="44.49261511168691" lon="9.967400091541494"><ele>868.0</ele><time>2026-05-03T09:27:02.999Z</time></trkpt><trkpt lat="44.492629950856525" lon="9.967761513609622"><ele>868.6666666666666</ele><time>2026-05-03T09:27:03.999Z</time></trkpt><trkpt lat="44.492687519720405" lon="9.96807427283701"><ele>869.3333333333333</ele><time>2026-05-03T09:27:04.999Z</time></trkpt><trkpt lat="44.49277565438726" lon="9.96835429222022"><ele>870.0</ele><time>2026-05-03T09:27:05.999Z</time></trkpt><trkpt lat="44.492858928283404" lon="9.968605511603016"><ele>869.6666666666667</ele><time>2026-05-03T09:27:06.999Z</time></trkpt><trkpt lat="44.49293384602269" lon="9.968846226603164"><ele>869.3333333333334</ele><time>2026-05-03T09:27:07.999Z</time></trkpt><trkpt lat="44.49300094068166" lon="9.969075138720598"><ele>869.0</ele><time>2026-05-03T09:27:08.999Z</time></trkpt><trkpt lat="44.49307266149874" lon="9.969307467351202"><ele>869.0</ele><time>2026-05-03T09:27:09.999Z</time></trkpt><trkpt lat="44.493141057034464" lon="9.969541135707281"><ele>869.0</ele><time>2026-05-03T09:27:10.999Z</time></trkpt><trkpt lat="44.49320799794632" lon="9.969778893228584"><ele>869.0</ele><time>2026-05-03T09:27:11.999Z</time></trkpt><trkpt lat="44.49328188363309" lon="9.97004915272037"><ele>876.6666666666667</ele><time>2026-05-03T09:27:12.999Z</time></trkpt><trkpt lat="44.49336695126831" lon="9.970316687936434"><ele>884.3333333333333</ele><time>2026-05-03T09:27:13.999Z</time></trkpt><trkpt lat="44.493479677109654" lon="9.970545445797486"><ele>892.0</ele><time>2026-05-03T09:27:14.999Z</time></trkpt><trkpt lat="44.493655584039374" lon="9.970724875256321"><ele>882.5</ele><time>2026-05-03T09:27:15.999Z</time></trkpt><trkpt lat="44.493896765621095" lon="9.970883649037773"><ele>873.0</ele><time>2026-05-03T09:27:16.999Z</time></trkpt><trkpt lat="44.494070857098585" lon="9.970973674285332"><ele>873.0</ele><time>2026-05-03T09:27:17.999Z</time></trkpt><trkpt lat="44.49415812653334" lon="9.971112414260116"><ele>873.0</ele><time>2026-05-03T09:27:18.999Z</time></trkpt><trkpt lat="44.49418140814132" lon="9.9712729301144"><ele>873.0</ele><time>2026-05-03T09:27:19.999Z</time></trkpt><trkpt lat="44.494137023049966" lon="9.971518621260826"><ele>873.0</ele><time>2026-05-03T09:27:20.999Z</time></trkpt><trkpt lat="44.494004672193284" lon="9.971705059290521"><ele>875.6666666666667</ele><time>2026-05-03T09:27:21.999Z</time></trkpt><trkpt lat="44.49395148884492" lon="9.971904597243322"><ele>878.3333333333334</ele><time>2026-05-03T09:27:23Z</time></trkpt><trkpt lat="44.4939379515866" lon="9.972105241819895"><ele>881.0</ele><time>2026-05-03T09:27:24Z</time></trkpt><trkpt lat="44.493981345369086" lon="9.972338157947735"><ele>890.6666666666667</ele><time>2026-05-03T09:27:25Z</time></trkpt><trkpt lat="44.4940816159436" lon="9.972549492276414"><ele>900.3333333333333</ele><time>2026-05-03T09:27:26Z</time></trkpt><trkpt lat="44.494242490221104" lon="9.972713655264137"><ele>910.0</ele><time>2026-05-03T09:27:27Z</time></trkpt><trkpt lat="44.49448651086563" lon="9.972839410978818"><ele>897.5</ele><time>2026-05-03T09:27:28Z</time></trkpt><trkpt lat="44.49474789008004" lon="9.972991946614913"><ele>885.0</ele><time>2026-05-03T09:27:29Z</time></trkpt><trkpt lat="44.494999866055174" lon="9.973170475215266"><ele>885.0</ele><time>2026-05-03T09:27:30Z</time></trkpt><trkpt lat="44.49526061772175" lon="9.973342651928784"><ele>885.0</ele><time>2026-05-03T09:27:31Z</time></trkpt><trkpt lat="44.49551888354723" lon="9.973483617019475"><ele>892.5</ele><time>2026-05-03T09:27:32Z</time></trkpt><trkpt lat="44.49578445954443" lon="9.973582250456328"><ele>900.0</ele><time>2026-05-03T09:27:33Z</time></trkpt><trkpt lat="44.49603925467916" lon="9.973661146911907"><ele>893.0</ele><time>2026-05-03T09:27:34Z</time></trkpt><trkpt lat="44.49627529288227" lon="9.973715790191159"><ele>886.0</ele><time>2026-05-03T09:27:35Z</time></trkpt><trkpt lat="44.49653457782802" lon="9.973801892594263"><ele>886.0</ele><time>2026-05-03T09:27:36Z</time></trkpt><trkpt lat="44.49677183100923" lon="9.973966420412873"><ele>886.0</ele><time>2026-05-03T09:27:37Z</time></trkpt><trkpt lat="44.49700946701001" lon="9.974082700419851"><ele>890.3333333333333</ele><time>2026-05-03T09:27:38Z</time></trkpt><trkpt lat="44.49721664723921" lon="9.9741269386701"><ele>894.6666666666667</ele><time>2026-05-03T09:27:39Z</time></trkpt><trkpt lat="44.49738106121226" lon="9.974165913029196"><ele>899.0</ele><time>2026-05-03T09:27:40Z</time></trkpt><trkpt lat="44.49749611824007" lon="9.974302741684705"><ele>899.0</ele><time>2026-05-03T09:27:41Z</time></trkpt><trkpt lat="44.49764222925427" lon="9.974537273949627"><ele>899.0</ele><time>2026-05-03T09:27:42Z</time></trkpt><trkpt lat="44.49779751146313" lon="9.97476843981018"><ele>899.0</ele><time>2026-05-03T09:27:43Z</time></trkpt><trkpt lat="44.49793819076417" lon="9.974975602611243"><ele>904.0</ele><time>2026-05-03T09:27:44Z</time></trkpt><trkpt lat="44.498150481899756" lon="9.975100511793011"><ele>909.0</ele><time>2026-05-03T09:27:45Z</time></trkpt><trkpt lat="44.49842967003351" lon="9.975202200511522"><ele>909.0</ele><time>2026-05-03T09:27:46Z</time></trkpt><trkpt lat="44.498696031407064" lon="9.97530662123784"><ele>909.0</ele><time>2026-05-03T09:27:47Z</time></trkpt><trkpt lat="44.49892372167734" lon="9.975368401888032"><ele>902.25</ele><time>2026-05-03T09:27:48Z</time></trkpt><trkpt lat="44.499099822685075" lon="9.975366299416446"><ele>895.5</ele><time>2026-05-03T09:27:49Z</time></trkpt><trkpt lat="44.499231088831614" lon="9.975365036117864"><ele>888.75</ele><time>2026-05-03T09:27:50Z</time></trkpt><trkpt lat="44.499327974680064" lon="9.975437786631838"><ele>882.0</ele><time>2026-05-03T09:27:51Z</time></trkpt><trkpt lat="44.49937912737133" lon="9.975626641653276"><ele>888.3333333333333</ele><time>2026-05-03T09:27:52Z</time></trkpt><trkpt lat="44.499357997320644" lon="9.975898203267064"><ele>894.6666666666666</ele><time>2026-05-03T09:27:53Z</time></trkpt><trkpt lat="44.499397925221245" lon="9.976222650643319"><ele>901.0</ele><time>2026-05-03T09:27:54Z</time></trkpt><trkpt lat="44.49948908959206" lon="9.976565795690329"><ele>880.5</ele><time>2026-05-03T09:27:55Z</time></trkpt><trkpt lat="44.499614273385056" lon="9.976923543159169"><ele>860.0</ele><time>2026-05-03T09:27:56Z</time></trkpt><trkpt lat="44.49971852750594" lon="9.97727074627497"><ele>861.0</ele><time>2026-05-03T09:27:57Z</time></trkpt><trkpt lat="44.49978385268842" lon="9.977581167334511"><ele>862.0</ele><time>2026-05-03T09:27:58Z</time></trkpt><trkpt lat="44.499775173750606" lon="9.977855453514639"><ele>863.0</ele><time>2026-05-03T09:27:59Z</time></trkpt><trkpt lat="44.49975924907352" lon="9.978147266423512"><ele>863.3333333333334</ele><time>2026-05-03T09:28:00Z</time></trkpt><trkpt lat="44.499747343863916" lon="9.978419122567736"><ele>863.6666666666667</ele><time>2026-05-03T09:28:01Z</time></trkpt><trkpt lat="44.49973710595981" lon="9.978668621548053"><ele>864.0</ele><time>2026-05-03T09:28:02Z</time></trkpt><trkpt lat="44.49977592176172" lon="9.978903470980958"><ele>864.0</ele><time>2026-05-03T09:28:03Z</time></trkpt><trkpt lat="44.49986289259832" lon="9.979116773086101"><ele>864.0</ele><time>2026-05-03T09:28:04Z</time></trkpt><trkpt lat="44.49995017765229" lon="9.979320847330813"><ele>864.0</ele><time>2026-05-03T09:28:05Z</time></trkpt><trkpt lat="44.50001828986952" lon="9.979514049093483"><ele>864.75</ele><time>2026-05-03T09:28:06Z</time></trkpt><trkpt lat="44.500067056282276" lon="9.979689404744963"><ele>865.5</ele><time>2026-05-03T09:28:07Z</time></trkpt><trkpt lat="44.50007314793251" lon="9.979863701892388"><ele>866.25</ele><time>2026-05-03T09:28:08Z</time></trkpt><trkpt lat="44.50006703343095" lon="9.980067411813314"><ele>867.0</ele><time>2026-05-03T09:28:09Z</time></trkpt><trkpt lat="44.5000558589" lon="9.98030579720796"><ele>867.6666666666667</ele><time>2026-05-03T09:28:10Z</time></trkpt><trkpt lat="44.500037666347204" lon="9.980514880049165"><ele>868.3333333333334</ele><time>2026-05-03T09:28:11Z</time></trkpt><trkpt lat="44.50004997153435" lon="9.980725779655126"><ele>869.0</ele><time>2026-05-03T09:28:12Z</time></trkpt><trkpt lat="44.500099297964674" lon="9.98094232514672"><ele>865.6666666666667</ele><time>2026-05-03T09:28:13Z</time></trkpt><trkpt lat="44.50020034257775" lon="9.98113605139638"><ele>862.3333333333333</ele><time>2026-05-03T09:28:14Z</time></trkpt><trkpt lat="44.500314904822595" lon="9.981311352988968"><ele>859.0</ele><time>2026-05-03T09:28:15Z</time></trkpt><trkpt lat="44.50043487895738" lon="9.981486131944454"><ele>867.5</ele><time>2026-05-03T09:28:16Z</time></trkpt><trkpt lat="44.500597461584434" lon="9.981694184932863"><ele>876.0</ele><time>2026-05-03T09:28:17Z</time></trkpt><trkpt lat="44.500793225783106" lon="9.981933326749585"><ele>876.0</ele><time>2026-05-03T09:28:18Z</time></trkpt><trkpt lat="44.50097838034658" lon="9.982131907915734"><ele>876.0</ele><time>2026-05-03T09:28:19Z</time></trkpt><trkpt lat="44.50115504850098" lon="9.982263559853992"><ele>876.0</ele><time>2026-05-03T09:28:20Z</time></trkpt><trkpt lat="44.50134419178391" lon="9.98236220034765"><ele>872.3333333333333</ele><time>2026-05-03T09:28:21Z</time></trkpt><trkpt lat="44.501530538055455" lon="9.982431217979922"><ele>868.6666666666666</ele><time>2026-05-03T09:28:22Z</time></trkpt><trkpt lat="44.501688448776186" lon="9.98256999812563"><ele>865.0</ele><time>2026-05-03T09:28:23Z</time></trkpt><trkpt lat="44.50172768160449" lon="9.982679636660935"><ele>865.0</ele><time>2026-05-03T09:28:24Z</time></trkpt><trkpt lat="44.50177046652652" lon="9.982931326473269"><ele>865.0</ele><time>2026-05-03T09:28:25Z</time></trkpt><trkpt lat="44.50183299475467" lon="9.98324698546229"><ele>865.0</ele><time>2026-05-03T09:28:26Z</time></trkpt><trkpt lat="44.501861228649574" lon="9.983531374259005"><ele>865.0</ele><time>2026-05-03T09:28:27Z</time></trkpt><trkpt lat="44.50183255193761" lon="9.983768643714019"><ele>865.0</ele><time>2026-05-03T09:28:28Z</time></trkpt><trkpt lat="44.501767481337474" lon="9.984049166209388"><ele>865.0</ele><time>2026-05-03T09:28:29Z</time></trkpt><trkpt lat="44.50168343267365" lon="9.98430335754737"><ele>862.6666666666666</ele><time>2026-05-03T09:28:30Z</time></trkpt><trkpt lat="44.50157113075853" lon="9.984531139911736"><ele>860.3333333333333</ele><time>2026-05-03T09:28:31Z</time></trkpt><trkpt lat="44.501463357599036" lon="9.984737708301587"><ele>858.0</ele><time>2026-05-03T09:28:32Z</time></trkpt><trkpt lat="44.501420201753696" lon="9.984935163086442"><ele>858.6666666666667</ele><time>2026-05-03T09:28:33Z</time></trkpt><trkpt lat="44.50139799869756" lon="9.985112625819003"><ele>859.3333333333334</ele><time>2026-05-03T09:28:34Z</time></trkpt><trkpt lat="44.501442385656496" lon="9.985323776035134"><ele>860.0</ele><time>2026-05-03T09:28:35Z</time></trkpt><trkpt lat="44.50157994480411" lon="9.985548888608127"><ele>860.0</ele><time>2026-05-03T09:28:36Z</time></trkpt><trkpt lat="44.50177573452066" lon="9.985719028895058"><ele>860.0</ele><time>2026-05-03T09:28:37Z</time></trkpt><trkpt lat="44.50195846310544" lon="9.985850869471424"><ele>860.0</ele><time>2026-05-03T09:28:38Z</time></trkpt><trkpt lat="44.5020861187967" lon="9.986073982095311"><ele>857.6666666666667</ele><time>2026-05-03T09:28:39Z</time></trkpt><trkpt lat="44.50219499621227" lon="9.98633642736472"><ele>855.3333333333333</ele><time>2026-05-03T09:28:39.999Z</time></trkpt><trkpt lat="44.50223274511103" lon="9.986546078065944"><ele>853.0</ele><time>2026-05-03T09:28:40.999Z</time></trkpt><trkpt lat="44.502176021508205" lon="9.986704974247697"><ele>853.0</ele><time>2026-05-03T09:28:41.999Z</time></trkpt><trkpt lat="44.502098333628894" lon="9.986909462999906"><ele>853.0</ele><time>2026-05-03T09:28:42.999Z</time></trkpt><trkpt lat="44.50204657365563" lon="9.98711875560037"><ele>853.0</ele><time>2026-05-03T09:28:43.999Z</time></trkpt><trkpt lat="44.50203276462455" lon="9.987265857441988"><ele>853.0</ele><time>2026-05-03T09:28:44.999Z</time></trkpt><trkpt lat="44.50205123042879" lon="9.987410078376694"><ele>856.25</ele><time>2026-05-03T09:28:45.999Z</time></trkpt><trkpt lat="44.5021235508395" lon="9.987555938061982"><ele>859.5</ele><time>2026-05-03T09:28:46.999Z</time></trkpt><trkpt lat="44.50226226556332" lon="9.987636413995405"><ele>862.75</ele><time>2026-05-03T09:28:47.999Z</time></trkpt><trkpt lat="44.5024300172026" lon="9.98762827595241"><ele>866.0</ele><time>2026-05-03T09:28:48.999Z</time></trkpt><trkpt lat="44.50259805567287" lon="9.987577418510073"><ele>866.0</ele><time>2026-05-03T09:28:49.999Z</time></trkpt><trkpt lat="44.50274342896812" lon="9.987514127232334"><ele>866.0</ele><time>2026-05-03T09:28:50.999Z</time></trkpt><trkpt lat="44.502864875635986" lon="9.987468339670963"><ele>866.0</ele><time>2026-05-03T09:28:51.999Z</time></trkpt><trkpt lat="44.50297662710956" lon="9.987446566957425"><ele>866.0</ele><time>2026-05-03T09:28:52.999Z</time></trkpt><trkpt lat="44.50308151192632" lon="9.98747090644543"><ele>863.0</ele><time>2026-05-03T09:28:53.999Z</time></trkpt><trkpt lat="44.50315071705631" lon="9.987626507112854"><ele>860.0</ele><time>2026-05-03T09:28:54.999Z</time></trkpt><trkpt lat="44.503218976196735" lon="9.987774718276071"><ele>857.0</ele><time>2026-05-03T09:28:55.999Z</time></trkpt><trkpt lat="44.50328624230697" lon="9.987912768460461"><ele>854.0</ele><time>2026-05-03T09:28:56.999Z</time></trkpt><trkpt lat="44.50335556471007" lon="9.988057799350461"><ele>854.0</ele><time>2026-05-03T09:28:57.999Z</time></trkpt><trkpt lat="44.50342407643392" lon="9.988199013001323"><ele>854.0</ele><time>2026-05-03T09:28:58.999Z</time></trkpt><trkpt lat="44.50349146763458" lon="9.988333239346549"><ele>854.0</ele><time>2026-05-03T09:28:59.999Z</time></trkpt><trkpt lat="44.50356735579092" lon="9.988461296289351"><ele>854.0</ele><time>2026-05-03T09:29:00.999Z</time></trkpt><trkpt lat="44.503654128218685" lon="9.988567193478312"><ele>853.75</ele><time>2026-05-03T09:29:01.999Z</time></trkpt><trkpt lat="44.50375071247364" lon="9.98866298219302"><ele>853.5</ele><time>2026-05-03T09:29:02.999Z</time></trkpt><trkpt lat="44.50385101329733" lon="9.988752775545125"><ele>853.25</ele><time>2026-05-03T09:29:03.999Z</time></trkpt><trkpt lat="44.503960129768565" lon="9.988832882482614"><ele>853.0</ele><time>2026-05-03T09:29:04.999Z</time></trkpt><trkpt lat="44.504074690291056" lon="9.988906835542734"><ele>853.0</ele><time>2026-05-03T09:29:05.999Z</time></trkpt><trkpt lat="44.504194967909655" lon="9.98896834032064"><ele>853.0</ele><time>2026-05-03T09:29:06.999Z</time></trkpt><trkpt lat="44.50431899938619" lon="9.989010702818991"><ele>853.0</ele><time>2026-05-03T09:29:07.999Z</time></trkpt><trkpt lat="44.5044453666644" lon="9.989016717382679"><ele>853.0</ele><time>2026-05-03T09:29:08.999Z</time></trkpt><trkpt lat="44.504573795204244" lon="9.989006800222162"><ele>852.0</ele><time>2026-05-03T09:29:09.999Z</time></trkpt><trkpt lat="44.50469824087925" lon="9.989006664314793"><ele>851.0</ele><time>2026-05-03T09:29:10.999Z</time></trkpt><trkpt lat="44.50482938660384" lon="9.98899694344425"><ele>850.0</ele><time>2026-05-03T09:29:11.999Z</time></trkpt><trkpt lat="44.50495670399508" lon="9.989020093674418"><ele>849.0</ele><time>2026-05-03T09:29:12.999Z</time></trkpt><trkpt lat="44.505081018358645" lon="9.989045483623142"><ele>849.0</ele><time>2026-05-03T09:29:13.999Z</time></trkpt><trkpt lat="44.505197010840604" lon="9.989104904387986"><ele>849.0</ele><time>2026-05-03T09:29:14.999Z</time></trkpt><trkpt lat="44.50530105521979" lon="9.98919920954961"><ele>849.0</ele><time>2026-05-03T09:29:15.999Z</time></trkpt><trkpt lat="44.50539553037558" lon="9.989319141333162"><ele>849.0</ele><time>2026-05-03T09:29:16.999Z</time></trkpt><trkpt lat="44.50548809077157" lon="9.989428270586544"><ele>848.25</ele><time>2026-05-03T09:29:17.999Z</time></trkpt><trkpt lat="44.505584851871205" lon="9.9895280692544"><ele>847.5</ele><time>2026-05-03T09:29:18.999Z</time></trkpt><trkpt lat="44.505682059026036" lon="9.989628105818111"><ele>846.75</ele><time>2026-05-03T09:29:19.999Z</time></trkpt><trkpt lat="44.50578379930305" lon="9.989737683008979"><ele>846.0</ele><time>2026-05-03T09:29:20.999Z</time></trkpt><trkpt lat="44.505884966356916" lon="9.98984515361788"><ele>846.0</ele><time>2026-05-03T09:29:21.999Z</time></trkpt><trkpt lat="44.50598637427575" lon="9.98995989112595"><ele>846.0</ele><time>2026-05-03T09:29:22.999Z</time></trkpt><trkpt lat="44.50607349409368" lon="9.990068792188556"><ele>846.0</ele><time>2026-05-03T09:29:23.999Z</time></trkpt><trkpt lat="44.50615403072569" lon="9.990184521637318"><ele>846.0</ele><time>2026-05-03T09:29:24.999Z</time></trkpt><trkpt lat="44.506215918060455" lon="9.990320345602086"><ele>845.25</ele><time>2026-05-03T09:29:25.999Z</time></trkpt><trkpt lat="44.50626312005589" lon="9.990470054849727"><ele>844.5</ele><time>2026-05-03T09:29:26.999Z</time></trkpt><trkpt lat="44.506305370735156" lon="9.990628877085406"><ele>843.75</ele><time>2026-05-03T09:29:27.999Z</time></trkpt><trkpt lat="44.50635822960891" lon="9.990780919428712"><ele>843.0</ele><time>2026-05-03T09:29:29Z</time></trkpt><trkpt lat="44.506426713485666" lon="9.990907280531916"><ele>843.0</ele><time>2026-05-03T09:29:30Z</time></trkpt><trkpt lat="44.50649550268989" lon="9.991032255167159"><ele>843.0</ele><time>2026-05-03T09:29:31Z</time></trkpt><trkpt lat="44.50651834485048" lon="9.99111639790225"><ele>843.0</ele><time>2026-05-03T09:29:32Z</time></trkpt><trkpt lat="44.506417550608695" lon="9.991203587748604"><ele>843.0</ele><time>2026-05-03T09:29:34Z</time></trkpt><trkpt lat="44.50637439161625" lon="9.991298923354671"><ele>843.0</ele><time>2026-05-03T09:29:35Z</time></trkpt><trkpt lat="44.50634325721242" lon="9.991405157020333"><ele>843.0</ele><time>2026-05-03T09:29:36Z</time></trkpt><trkpt lat="44.50637380534379" lon="9.99155291577445"><ele>843.0</ele><time>2026-05-03T09:29:37Z</time></trkpt><trkpt lat="44.50646627129812" lon="9.991705282142815"><ele>843.0</ele><time>2026-05-03T09:29:38Z</time></trkpt><trkpt lat="44.50659359853198" lon="9.991859222275641"><ele>843.0</ele><time>2026-05-03T09:29:39Z</time></trkpt><trkpt lat="44.50671805160434" lon="9.992036511275764"><ele>838.6666666666667</ele><time>2026-05-03T09:29:40Z</time></trkpt><trkpt lat="44.50683317823051" lon="9.992256836358074"><ele>834.3333333333334</ele><time>2026-05-03T09:29:41Z</time></trkpt><trkpt lat="44.50693294116853" lon="9.992473034763098"><ele>830.0</ele><time>2026-05-03T09:29:42Z</time></trkpt><trkpt lat="44.507017938045365" lon="9.992673167013239"><ele>831.0</ele><time>2026-05-03T09:29:43Z</time></trkpt><trkpt lat="44.50709359695855" lon="9.992851222373341"><ele>832.0</ele><time>2026-05-03T09:29:44Z</time></trkpt><trkpt lat="44.50716087735583" lon="9.992972643558316"><ele>833.0</ele><time>2026-05-03T09:29:45Z</time></trkpt><trkpt lat="44.5072039663179" lon="9.993083180063257"><ele>834.0</ele><time>2026-05-03T09:29:46Z</time></trkpt><trkpt lat="44.50720814672946" lon="9.99320339038555"><ele>835.0</ele><time>2026-05-03T09:29:47Z</time></trkpt><trkpt lat="44.507125086655606" lon="9.993296695396765"><ele>832.0</ele><time>2026-05-03T09:29:48Z</time></trkpt><trkpt lat="44.5070386834073" lon="9.993357696645944"><ele>829.0</ele><time>2026-05-03T09:29:49Z</time></trkpt><trkpt lat="44.50691587727194" lon="9.993309528352642"><ele>826.0</ele><time>2026-05-03T09:29:50Z</time></trkpt><trkpt lat="44.50683995186261" lon="9.993134336842306"><ele>823.0</ele><time>2026-05-03T09:29:51Z</time></trkpt><trkpt lat="44.50673221679243" lon="9.992970150352418"><ele>823.0</ele><time>2026-05-03T09:29:52Z</time></trkpt><trkpt lat="44.506625973741485" lon="9.99278259188266"><ele>823.0</ele><time>2026-05-03T09:29:53Z</time></trkpt><trkpt lat="44.50649540493412" lon="9.992605485559054"><ele>823.0</ele><time>2026-05-03T09:29:54Z</time></trkpt><trkpt lat="44.506346018721956" lon="9.992453865567805"><ele>821.0</ele><time>2026-05-03T09:29:55Z</time></trkpt><trkpt lat="44.506194047489274" lon="9.99231162218403"><ele>819.0</ele><time>2026-05-03T09:29:56Z</time></trkpt><trkpt lat="44.506047563493" lon="9.992177830959928"><ele>817.0</ele><time>2026-05-03T09:29:57Z</time></trkpt><trkpt lat="44.50591617366316" lon="9.992057024325563"><ele>817.0</ele><time>2026-05-03T09:29:58Z</time></trkpt><trkpt lat="44.505778649614555" lon="9.991956583911303"><ele>817.0</ele><time>2026-05-03T09:29:59Z</time></trkpt><trkpt lat="44.50563324023534" lon="9.99193452134563"><ele>817.0</ele><time>2026-05-03T09:30:00Z</time></trkpt><trkpt lat="44.5054754967905" lon="9.992019546754603"><ele>815.3333333333333</ele><time>2026-05-03T09:30:01Z</time></trkpt><trkpt lat="44.50532127012665" lon="9.99220002407841"><ele>813.6666666666667</ele><time>2026-05-03T09:30:02Z</time></trkpt><trkpt lat="44.50515793386348" lon="9.992349670578838"><ele>812.0</ele><time>2026-05-03T09:30:03Z</time></trkpt><trkpt lat="44.50499933188056" lon="9.992493302433521"><ele>806.0</ele><time>2026-05-03T09:30:04Z</time></trkpt><trkpt lat="44.504854321886015" lon="9.9926163846017"><ele>800.0</ele><time>2026-05-03T09:30:05Z</time></trkpt><trkpt lat="44.50472390703223" lon="9.992693121866267"><ele>794.0</ele><time>2026-05-03T09:30:06Z</time></trkpt><trkpt lat="44.504581229482106" lon="9.992739234259963"><ele>794.0</ele><time>2026-05-03T09:30:07Z</time></trkpt><trkpt lat="44.50442687352348" lon="9.992680010654455"><ele>794.0</ele><time>2026-05-03T09:30:08Z</time></trkpt><trkpt lat="44.50426075794513" lon="9.992621242331694"><ele>794.0</ele><time>2026-05-03T09:30:09Z</time></trkpt><trkpt lat="44.50410819147209" lon="9.992577547883483"><ele>794.0</ele><time>2026-05-03T09:30:10Z</time></trkpt><trkpt lat="44.503976132337876" lon="9.992535650841253"><ele>794.0</ele><time>2026-05-03T09:30:11Z</time></trkpt><trkpt lat="44.50385078696222" lon="9.992546128080368"><ele>794.0</ele><time>2026-05-03T09:30:12Z</time></trkpt><trkpt lat="44.503734964918074" lon="9.992652512372901"><ele>794.0</ele><time>2026-05-03T09:30:13Z</time></trkpt><trkpt lat="44.503626509136446" lon="9.992850135008384"><ele>798.6666666666667</ele><time>2026-05-03T09:30:14Z</time></trkpt><trkpt lat="44.50355224719035" lon="9.99311577842224"><ele>803.3333333333333</ele><time>2026-05-03T09:30:15Z</time></trkpt><trkpt lat="44.50349048709095" lon="9.993324160594062"><ele>808.0</ele><time>2026-05-03T09:30:16Z</time></trkpt><trkpt lat="44.503443911716914" lon="9.993522863712636"><ele>809.3333333333333</ele><time>2026-05-03T09:30:17Z</time></trkpt><trkpt lat="44.50345766435467" lon="9.993756770166561"><ele>810.6666666666667</ele><time>2026-05-03T09:30:18Z</time></trkpt><trkpt lat="44.503535893837245" lon="9.993991450445087"><ele>812.0</ele><time>2026-05-03T09:30:19Z</time></trkpt><trkpt lat="44.503647760885464" lon="9.994221457653332"><ele>808.3333333333334</ele><time>2026-05-03T09:30:20Z</time></trkpt><trkpt lat="44.50376363376138" lon="9.994503198498414"><ele>804.6666666666667</ele><time>2026-05-03T09:30:21Z</time></trkpt><trkpt lat="44.50384152992559" lon="9.99472833143677"><ele>801.0</ele><time>2026-05-03T09:30:22Z</time></trkpt><trkpt lat="44.50391258947559" lon="9.99497018769847"><ele>804.0</ele><time>2026-05-03T09:30:23Z</time></trkpt><trkpt lat="44.504011864479075" lon="9.995205858038391"><ele>807.0</ele><time>2026-05-03T09:30:24Z</time></trkpt><trkpt lat="44.504156321412395" lon="9.995429409711994"><ele>810.0</ele><time>2026-05-03T09:30:25Z</time></trkpt><trkpt lat="44.504323335196275" lon="9.995637103169935"><ele>808.3333333333333</ele><time>2026-05-03T09:30:26Z</time></trkpt><trkpt lat="44.504488387732685" lon="9.995856028176016"><ele>806.6666666666666</ele><time>2026-05-03T09:30:27Z</time></trkpt><trkpt lat="44.50463563390556" lon="9.996066401393193"><ele>805.0</ele><time>2026-05-03T09:30:28Z</time></trkpt><trkpt lat="44.50476848086403" lon="9.996286323795761"><ele>805.0</ele><time>2026-05-03T09:30:29Z</time></trkpt><trkpt lat="44.50490529886984" lon="9.996541689793512"><ele>805.0</ele><time>2026-05-03T09:30:30Z</time></trkpt><trkpt lat="44.50502359387495" lon="9.996818750090698"><ele>809.5</ele><time>2026-05-03T09:30:31Z</time></trkpt><trkpt lat="44.505128239287345" lon="9.997109454935693"><ele>814.0</ele><time>2026-05-03T09:30:32Z</time></trkpt><trkpt lat="44.5052356044381" lon="9.997395341312329"><ele>814.0</ele><time>2026-05-03T09:30:33Z</time></trkpt><trkpt lat="44.505356213257905" lon="9.99767051401488"><ele>814.0</ele><time>2026-05-03T09:30:34Z</time></trkpt><trkpt lat="44.505475648792846" lon="9.997953197129373"><ele>814.0</ele><time>2026-05-03T09:30:35Z</time></trkpt><trkpt lat="44.50559491356242" lon="9.99822217187701"><ele>814.0</ele><time>2026-05-03T09:30:36Z</time></trkpt><trkpt lat="44.505721888398234" lon="9.998480196688863"><ele>814.0</ele><time>2026-05-03T09:30:37Z</time></trkpt><trkpt lat="44.50586952199788" lon="9.998721116136878"><ele>814.0</ele><time>2026-05-03T09:30:38Z</time></trkpt><trkpt lat="44.506044860999246" lon="9.998938717048144"><ele>814.0</ele><time>2026-05-03T09:30:39Z</time></trkpt><trkpt lat="44.50623208124782" lon="9.999144298113073"><ele>811.5</ele><time>2026-05-03T09:30:40Z</time></trkpt><trkpt lat="44.50641860827186" lon="9.999364730716707"><ele>809.0</ele><time>2026-05-03T09:30:41Z</time></trkpt><trkpt lat="44.50662145997038" lon="9.99966847475276"><ele>809.0</ele><time>2026-05-03T09:30:42Z</time></trkpt><trkpt lat="44.506761747941255" lon="9.999817135734535"><ele>809.0</ele><time>2026-05-03T09:30:43Z</time></trkpt><trkpt lat="44.506936385070354" lon="10.00004419491033"><ele>809.0</ele><time>2026-05-03T09:30:44Z</time></trkpt><trkpt lat="44.50710927758165" lon="10.0002409899556"><ele>810.3333333333334</ele><time>2026-05-03T09:30:45Z</time></trkpt><trkpt lat="44.5072641243244" lon="10.000420005056705"><ele>811.6666666666667</ele><time>2026-05-03T09:30:46Z</time></trkpt><trkpt lat="44.507377774635074" lon="10.00064593476849"><ele>813.0</ele><time>2026-05-03T09:30:47Z</time></trkpt><trkpt lat="44.50749432310685" lon="10.000905407902572"><ele>813.0</ele><time>2026-05-03T09:30:48Z</time></trkpt><trkpt lat="44.50760672236483" lon="10.001181723794915"><ele>813.0</ele><time>2026-05-03T09:30:48.999Z</time></trkpt><trkpt lat="44.5077241540867" lon="10.001410151596227"><ele>813.0</ele><time>2026-05-03T09:30:49.999Z</time></trkpt><trkpt lat="44.50781520112101" lon="10.001611262084364"><ele>810.0</ele><time>2026-05-03T09:30:50.999Z</time></trkpt><trkpt lat="44.50792939300916" lon="10.00176269402609"><ele>807.0</ele><time>2026-05-03T09:30:51.999Z</time></trkpt><trkpt lat="44.508086996320905" lon="10.001843454518859"><ele>804.0</ele><time>2026-05-03T09:30:52.999Z</time></trkpt><trkpt lat="44.50828060329871" lon="10.001863940869585"><ele>804.0</ele><time>2026-05-03T09:30:53.999Z</time></trkpt><trkpt lat="44.50847505016233" lon="10.001910717448586"><ele>804.0</ele><time>2026-05-03T09:30:54.999Z</time></trkpt><trkpt lat="44.508663048950986" lon="10.00200936782892"><ele>804.0</ele><time>2026-05-03T09:30:55.999Z</time></trkpt><trkpt lat="44.50884446690709" lon="10.002139275744465"><ele>798.3333333333333</ele><time>2026-05-03T09:30:56.999Z</time></trkpt><trkpt lat="44.509032024391054" lon="10.002259664579846"><ele>792.6666666666666</ele><time>2026-05-03T09:30:57.999Z</time></trkpt><trkpt lat="44.509206499926066" lon="10.002349578351325"><ele>787.0</ele><time>2026-05-03T09:30:58.999Z</time></trkpt><trkpt lat="44.509293914672675" lon="10.00246352338793"><ele>789.6</ele><time>2026-05-03T09:30:59.999Z</time></trkpt><trkpt lat="44.50930023653612" lon="10.002585461272101"><ele>792.2</ele><time>2026-05-03T09:31:00.999Z</time></trkpt><trkpt lat="44.50928830660916" lon="10.0027110699175"><ele>794.8</ele><time>2026-05-03T09:31:01.999Z</time></trkpt><trkpt lat="44.50920851156677" lon="10.002809162570227"><ele>797.4</ele><time>2026-05-03T09:31:02.999Z</time></trkpt><trkpt lat="44.50912591099563" lon="10.002976511005924"><ele>800.0</ele><time>2026-05-03T09:31:03.999Z</time></trkpt><trkpt lat="44.509052761413535" lon="10.00312892718146"><ele>800.0</ele><time>2026-05-03T09:31:04.999Z</time></trkpt><trkpt lat="44.50899014867093" lon="10.003273961966627"><ele>800.0</ele><time>2026-05-03T09:31:05.999Z</time></trkpt><trkpt lat="44.508939198327035" lon="10.003419612095598"><ele>800.0</ele><time>2026-05-03T09:31:06.999Z</time></trkpt><trkpt lat="44.50889476005529" lon="10.003556235304579"><ele>800.0</ele><time>2026-05-03T09:31:07.999Z</time></trkpt><trkpt lat="44.50886779347068" lon="10.003697378329734"><ele>800.0</ele><time>2026-05-03T09:31:08.999Z</time></trkpt><trkpt lat="44.50882164828471" lon="10.003840195210568"><ele>798.75</ele><time>2026-05-03T09:31:09.999Z</time></trkpt><trkpt lat="44.50878193991229" lon="10.003998719282922"><ele>797.5</ele><time>2026-05-03T09:31:10.999Z</time></trkpt><trkpt lat="44.50879953600785" lon="10.004144523586762"><ele>796.25</ele><time>2026-05-03T09:31:11.999Z</time></trkpt><trkpt lat="44.50887987545587" lon="10.004263010400527"><ele>795.0</ele><time>2026-05-03T09:31:12.999Z</time></trkpt><trkpt lat="44.50902227285941" lon="10.004310174211682"><ele>793.6666666666667</ele><time>2026-05-03T09:31:13.999Z</time></trkpt><trkpt lat="44.50918160225415" lon="10.004354545158693"><ele>792.3333333333334</ele><time>2026-05-03T09:31:14.999Z</time></trkpt><trkpt lat="44.50932581761725" lon="10.004416748162177"><ele>791.0</ele><time>2026-05-03T09:31:15.999Z</time></trkpt><trkpt lat="44.50946621925172" lon="10.004407535324818"><ele>793.6666666666667</ele><time>2026-05-03T09:31:16.999Z</time></trkpt><trkpt lat="44.5095978069898" lon="10.004283708089822"><ele>796.3333333333333</ele><time>2026-05-03T09:31:17.999Z</time></trkpt><trkpt lat="44.5097287019447" lon="10.004120230347665"><ele>799.0</ele><time>2026-05-03T09:31:18.999Z</time></trkpt><trkpt lat="44.50987684612608" lon="10.004004818830415"><ele>799.0</ele><time>2026-05-03T09:31:19.999Z</time></trkpt><trkpt lat="44.510023946362445" lon="10.004020579269069"><ele>799.0</ele><time>2026-05-03T09:31:20.999Z</time></trkpt><trkpt lat="44.510148156539515" lon="10.004159797422059"><ele>799.0</ele><time>2026-05-03T09:31:21.999Z</time></trkpt><trkpt lat="44.51031189610885" lon="10.004317815538435"><ele>799.3333333333333</ele><time>2026-05-03T09:31:22.999Z</time></trkpt><trkpt lat="44.510500859878896" lon="10.004501699341626"><ele>799.6666666666667</ele><time>2026-05-03T09:31:23.999Z</time></trkpt><trkpt lat="44.5106331833562" lon="10.004605782236101"><ele>800.0</ele><time>2026-05-03T09:31:24.999Z</time></trkpt><trkpt lat="44.5107823508227" lon="10.004639058598135"><ele>800.0</ele><time>2026-05-03T09:31:25.999Z</time></trkpt><trkpt lat="44.510940128147624" lon="10.004565689731473"><ele>800.0</ele><time>2026-05-03T09:31:26.999Z</time></trkpt><trkpt lat="44.51107913232243" lon="10.004386577427073"><ele>800.0</ele><time>2026-05-03T09:31:27.999Z</time></trkpt><trkpt lat="44.51119649523029" lon="10.004156654208732"><ele>792.0</ele><time>2026-05-03T09:31:28.999Z</time></trkpt><trkpt lat="44.511275159005045" lon="10.00400344357467"><ele>784.0</ele><time>2026-05-03T09:31:29.999Z</time></trkpt><trkpt lat="44.511573051359036" lon="10.003814240479631"><ele>784.0</ele><time>2026-05-03T09:31:31.999Z</time></trkpt><trkpt lat="44.51167970234926" lon="10.003876217152282"><ele>784.0</ele><time>2026-05-03T09:31:32.999Z</time></trkpt><trkpt lat="44.511834618199266" lon="10.003959259887365"><ele>784.0</ele><time>2026-05-03T09:31:33.999Z</time></trkpt><trkpt lat="44.511997698942764" lon="10.00404392714914"><ele>790.0</ele><time>2026-05-03T09:31:35Z</time></trkpt><trkpt lat="44.512134503232765" lon="10.004165475645946"><ele>796.0</ele><time>2026-05-03T09:31:36Z</time></trkpt><trkpt lat="44.5122489923677" lon="10.004348298365455"><ele>802.0</ele><time>2026-05-03T09:31:37Z</time></trkpt><trkpt lat="44.51238284709654" lon="10.004593690643773"><ele>802.0</ele><time>2026-05-03T09:31:38Z</time></trkpt><trkpt lat="44.51251652983197" lon="10.004835970202858"><ele>802.0</ele><time>2026-05-03T09:31:39Z</time></trkpt><trkpt lat="44.51266844795784" lon="10.005061781024184"><ele>802.0</ele><time>2026-05-03T09:31:40Z</time></trkpt><trkpt lat="44.51281841632141" lon="10.00526623982162"><ele>801.6666666666666</ele><time>2026-05-03T09:31:41Z</time></trkpt><trkpt lat="44.51299024880761" lon="10.005433247754794"><ele>801.3333333333333</ele><time>2026-05-03T09:31:42Z</time></trkpt><trkpt lat="44.513153095517026" lon="10.005549625949456"><ele>801.0</ele><time>2026-05-03T09:31:43Z</time></trkpt><trkpt lat="44.51331562275387" lon="10.00560255804994"><ele>801.0</ele><time>2026-05-03T09:31:44Z</time></trkpt><trkpt lat="44.51349764151616" lon="10.005550785356236"><ele>801.0</ele><time>2026-05-03T09:31:45Z</time></trkpt><trkpt lat="44.51367895139824" lon="10.005453907311908"><ele>801.0</ele><time>2026-05-03T09:31:46Z</time></trkpt><trkpt lat="44.51383366503578" lon="10.005446907570333"><ele>800.3333333333333</ele><time>2026-05-03T09:31:47Z</time></trkpt><trkpt lat="44.51400843010555" lon="10.00555084062047"><ele>799.6666666666666</ele><time>2026-05-03T09:31:48Z</time></trkpt><trkpt lat="44.51422701511175" lon="10.005648635497431"><ele>799.0</ele><time>2026-05-03T09:31:49Z</time></trkpt><trkpt lat="44.514444558668956" lon="10.00578502162387"><ele>802.5</ele><time>2026-05-03T09:31:50Z</time></trkpt><trkpt lat="44.51467013794134" lon="10.005906914094354"><ele>806.0</ele><time>2026-05-03T09:31:51Z</time></trkpt><trkpt lat="44.514882537009" lon="10.006024720113267"><ele>806.0</ele><time>2026-05-03T09:31:52Z</time></trkpt><trkpt lat="44.51507221351799" lon="10.006135530761915"><ele>806.0</ele><time>2026-05-03T09:31:53Z</time></trkpt><trkpt lat="44.51525223730974" lon="10.006239285016745"><ele>806.0</ele><time>2026-05-03T09:31:54Z</time></trkpt><trkpt lat="44.51542185053342" lon="10.0063082224078"><ele>806.0</ele><time>2026-05-03T09:31:55Z</time></trkpt><trkpt lat="44.51559131085936" lon="10.006306813369973"><ele>806.0</ele><time>2026-05-03T09:31:56Z</time></trkpt><trkpt lat="44.5157691719949" lon="10.006213901846962"><ele>806.0</ele><time>2026-05-03T09:31:57Z</time></trkpt><trkpt lat="44.51594333095497" lon="10.006038233110129"><ele>806.0</ele><time>2026-05-03T09:31:58Z</time></trkpt><trkpt lat="44.516084154057125" lon="10.005900005966897"><ele>806.0</ele><time>2026-05-03T09:31:59Z</time></trkpt><trkpt lat="44.51620246376566" lon="10.005890805078455"><ele>806.0</ele><time>2026-05-03T09:32:00Z</time></trkpt><trkpt lat="44.51630736739185" lon="10.005961444604484"><ele>806.0</ele><time>2026-05-03T09:32:01Z</time></trkpt><trkpt lat="44.516434891398255" lon="10.00610011093424"><ele>803.6666666666667</ele><time>2026-05-03T09:32:02Z</time></trkpt><trkpt lat="44.516590247731926" lon="10.006244190125788"><ele>801.3333333333333</ele><time>2026-05-03T09:32:03Z</time></trkpt><trkpt lat="44.516765238812994" lon="10.006377496975736"><ele>799.0</ele><time>2026-05-03T09:32:04Z</time></trkpt><trkpt lat="44.51692264724796" lon="10.006515299168836"><ele>799.0</ele><time>2026-05-03T09:32:05Z</time></trkpt><trkpt lat="44.517051388039924" lon="10.006652633734491"><ele>799.0</ele><time>2026-05-03T09:32:06Z</time></trkpt><trkpt lat="44.51717462038024" lon="10.006760956391274"><ele>799.0</ele><time>2026-05-03T09:32:07Z</time></trkpt><trkpt lat="44.51729515613005" lon="10.006871711390477"><ele>800.3333333333333</ele><time>2026-05-03T09:32:08Z</time></trkpt><trkpt lat="44.517414733467945" lon="10.007006012413825"><ele>801.6666666666667</ele><time>2026-05-03T09:32:09Z</time></trkpt><trkpt lat="44.5175415361115" lon="10.00716007105948"><ele>803.0</ele><time>2026-05-03T09:32:10Z</time></trkpt><trkpt lat="44.51767441022523" lon="10.007308991669499"><ele>803.0</ele><time>2026-05-03T09:32:11Z</time></trkpt><trkpt lat="44.517832289340454" lon="10.007431502246986"><ele>803.0</ele><time>2026-05-03T09:32:12Z</time></trkpt><trkpt lat="44.518015898226984" lon="10.007513427871125"><ele>803.0</ele><time>2026-05-03T09:32:13Z</time></trkpt><trkpt lat="44.51820449502112" lon="10.00755436157429"><ele>804.6666666666667</ele><time>2026-05-03T09:32:14Z</time></trkpt><trkpt lat="44.51840060077802" lon="10.007555212695706"><ele>806.3333333333333</ele><time>2026-05-03T09:32:15Z</time></trkpt><trkpt lat="44.51859354202838" lon="10.007542414334951"><ele>808.0</ele><time>2026-05-03T09:32:16Z</time></trkpt><trkpt lat="44.51877682512613" lon="10.007553413801908"><ele>808.0</ele><time>2026-05-03T09:32:17Z</time></trkpt><trkpt lat="44.51894030863822" lon="10.00756244346421"><ele>808.0</ele><time>2026-05-03T09:32:18Z</time></trkpt><trkpt lat="44.51909153561825" lon="10.007522657418606"><ele>808.0</ele><time>2026-05-03T09:32:19Z</time></trkpt><trkpt lat="44.51922316284754" lon="10.007430802315014"><ele>803.25</ele><time>2026-05-03T09:32:20Z</time></trkpt><trkpt lat="44.519334624162134" lon="10.007292459988804"><ele>798.5</ele><time>2026-05-03T09:32:21Z</time></trkpt><trkpt lat="44.51943370449479" lon="10.007160274573938"><ele>793.75</ele><time>2026-05-03T09:32:22Z</time></trkpt><trkpt lat="44.51954170073947" lon="10.007070498782754"><ele>789.0</ele><time>2026-05-03T09:32:23Z</time></trkpt><trkpt lat="44.51966225974156" lon="10.007016114294592"><ele>789.0</ele><time>2026-05-03T09:32:24Z</time></trkpt><trkpt lat="44.51979145943555" lon="10.006997072567698"><ele>789.0</ele><time>2026-05-03T09:32:25Z</time></trkpt><trkpt lat="44.519912961182214" lon="10.007034845335118"><ele>789.0</ele><time>2026-05-03T09:32:26Z</time></trkpt><trkpt lat="44.520008667070094" lon="10.007139665617064"><ele>789.0</ele><time>2026-05-03T09:32:27Z</time></trkpt><trkpt lat="44.5200418967354" lon="10.007296773847916"><ele>794.6666666666667</ele><time>2026-05-03T09:32:28Z</time></trkpt><trkpt lat="44.520076137002285" lon="10.007556445496908"><ele>800.3333333333334</ele><time>2026-05-03T09:32:29Z</time></trkpt><trkpt lat="44.52010388318511" lon="10.007774199565283"><ele>806.0</ele><time>2026-05-03T09:32:30Z</time></trkpt><trkpt lat="44.52013101707277" lon="10.007997050884278"><ele>806.0</ele><time>2026-05-03T09:32:31Z</time></trkpt><trkpt lat="44.52016840753647" lon="10.00822416831441"><ele>806.0</ele><time>2026-05-03T09:32:32Z</time></trkpt><trkpt lat="44.52021025284896" lon="10.008446637960617"><ele>806.0</ele><time>2026-05-03T09:32:33Z</time></trkpt><trkpt lat="44.520285806647124" lon="10.008663000682747"><ele>807.0</ele><time>2026-05-03T09:32:34Z</time></trkpt><trkpt lat="44.520377547710495" lon="10.008866337441315"><ele>808.0</ele><time>2026-05-03T09:32:35Z</time></trkpt><trkpt lat="44.520475683438974" lon="10.009054416287752"><ele>809.0</ele><time>2026-05-03T09:32:36Z</time></trkpt><trkpt lat="44.52057474787361" lon="10.009229496964764"><ele>804.75</ele><time>2026-05-03T09:32:37Z</time></trkpt><trkpt lat="44.52067048804604" lon="10.009387133903441"><ele>800.5</ele><time>2026-05-03T09:32:38Z</time></trkpt><trkpt lat="44.52078288691956" lon="10.009527337802439"><ele>796.25</ele><time>2026-05-03T09:32:39Z</time></trkpt><trkpt lat="44.52091248685095" lon="10.009617405951838"><ele>792.0</ele><time>2026-05-03T09:32:40Z</time></trkpt><trkpt lat="44.52104452852974" lon="10.009686238189083"><ele>792.0</ele><time>2026-05-03T09:32:41Z</time></trkpt><trkpt lat="44.52116962089816" lon="10.00974919738303"><ele>792.0</ele><time>2026-05-03T09:32:42Z</time></trkpt><trkpt lat="44.52127418293607" lon="10.009800703666663"><ele>792.0</ele><time>2026-05-03T09:32:43Z</time></trkpt><trkpt lat="44.52136482357822" lon="10.009899361996832"><ele>792.0</ele><time>2026-05-03T09:32:44Z</time></trkpt><trkpt lat="44.52142815304614" lon="10.010022393081801"><ele>791.0</ele><time>2026-05-03T09:32:45Z</time></trkpt><trkpt lat="44.52147056751926" lon="10.010153385404895"><ele>790.0</ele><time>2026-05-03T09:32:46Z</time></trkpt><trkpt lat="44.521496409645195" lon="10.010282172898421"><ele>789.0</ele><time>2026-05-03T09:32:47Z</time></trkpt><trkpt lat="44.521502825605204" lon="10.010420358520522"><ele>788.0</ele><time>2026-05-03T09:32:48Z</time></trkpt><trkpt lat="44.52149217415332" lon="10.010598834778378"><ele>787.0</ele><time>2026-05-03T09:32:49Z</time></trkpt><trkpt lat="44.52148823942329" lon="10.010787434349535"><ele>787.0</ele><time>2026-05-03T09:32:50Z</time></trkpt><trkpt lat="44.52148864080662" lon="10.010949166578932"><ele>787.0</ele><time>2026-05-03T09:32:51Z</time></trkpt><trkpt lat="44.521495579766416" lon="10.011102008451092"><ele>787.0</ele><time>2026-05-03T09:32:52Z</time></trkpt><trkpt lat="44.52150013166143" lon="10.011248025231184"><ele>787.0</ele><time>2026-05-03T09:32:53Z</time></trkpt><trkpt lat="44.52150376358607" lon="10.011381275241638"><ele>787.0</ele><time>2026-05-03T09:32:54Z</time></trkpt><trkpt lat="44.521521513312365" lon="10.011503226100693"><ele>787.0</ele><time>2026-05-03T09:32:55Z</time></trkpt><trkpt lat="44.52155743084787" lon="10.01164100217962"><ele>787.0</ele><time>2026-05-03T09:32:56Z</time></trkpt><trkpt lat="44.521612494259294" lon="10.011818961825163"><ele>787.0</ele><time>2026-05-03T09:32:57Z</time></trkpt><trkpt lat="44.52168243236048" lon="10.012021344125053"><ele>787.0</ele><time>2026-05-03T09:32:58Z</time></trkpt><trkpt lat="44.52175505034016" lon="10.012223530637685"><ele>788.0</ele><time>2026-05-03T09:32:59Z</time></trkpt><trkpt lat="44.52180162508187" lon="10.01242841291123"><ele>789.0</ele><time>2026-05-03T09:33:00Z</time></trkpt><trkpt lat="44.521826384894084" lon="10.012666534066401"><ele>790.0</ele><time>2026-05-03T09:33:01Z</time></trkpt><trkpt lat="44.52183636769904" lon="10.012915633987667"><ele>794.0</ele><time>2026-05-03T09:33:02Z</time></trkpt><trkpt lat="44.521837595706224" lon="10.013158659533845"><ele>798.0</ele><time>2026-05-03T09:33:03Z</time></trkpt><trkpt lat="44.52184098423917" lon="10.013406703071999"><ele>802.0</ele><time>2026-05-03T09:33:04Z</time></trkpt><trkpt lat="44.52185915565098" lon="10.013616048832374"><ele>803.6666666666666</ele><time>2026-05-03T09:33:05Z</time></trkpt><trkpt lat="44.52189859711327" lon="10.013835192550069"><ele>805.3333333333333</ele><time>2026-05-03T09:33:06Z</time></trkpt><trkpt lat="44.52197915754281" lon="10.014039745337637"><ele>807.0</ele><time>2026-05-03T09:33:06.999Z</time></trkpt><trkpt lat="44.52209168437283" lon="10.014222899226644"><ele>802.0</ele><time>2026-05-03T09:33:07.999Z</time></trkpt><trkpt lat="44.52220156344118" lon="10.014361920739347"><ele>797.0</ele><time>2026-05-03T09:33:08.999Z</time></trkpt><trkpt lat="44.52229963078592" lon="10.014456189481594"><ele>792.0</ele><time>2026-05-03T09:33:09.999Z</time></trkpt><trkpt lat="44.52240126557193" lon="10.014484308697133"><ele>787.0</ele><time>2026-05-03T09:33:10.999Z</time></trkpt><trkpt lat="44.52251091255615" lon="10.014458922348812"><ele>787.0</ele><time>2026-05-03T09:33:11.999Z</time></trkpt><trkpt lat="44.52267024301721" lon="10.014347026783133"><ele>787.0</ele><time>2026-05-03T09:33:12.999Z</time></trkpt><trkpt lat="44.522813984573474" lon="10.014173576151121"><ele>787.0</ele><time>2026-05-03T09:33:13.999Z</time></trkpt><trkpt lat="44.522970755182875" lon="10.014042371568438"><ele>787.25</ele><time>2026-05-03T09:33:14.999Z</time></trkpt><trkpt lat="44.5231064072213" lon="10.013905423056888"><ele>787.5</ele><time>2026-05-03T09:33:15.999Z</time></trkpt><trkpt lat="44.52320930036918" lon="10.013774760348687"><ele>787.75</ele><time>2026-05-03T09:33:16.999Z</time></trkpt><trkpt lat="44.523315567233574" lon="10.01370362684184"><ele>788.0</ele><time>2026-05-03T09:33:17.999Z</time></trkpt><trkpt lat="44.52339440479183" lon="10.013646922993207"><ele>788.0</ele><time>2026-05-03T09:33:18.999Z</time></trkpt><trkpt lat="44.52346499436999" lon="10.013616930557777"><ele>788.0</ele><time>2026-05-03T09:33:19.999Z</time></trkpt><trkpt lat="44.523543786370645" lon="10.01359914466652"><ele>788.0</ele><time>2026-05-03T09:33:20.999Z</time></trkpt><trkpt lat="44.523617960684824" lon="10.013574922860391"><ele>788.0</ele><time>2026-05-03T09:33:21.999Z</time></trkpt><trkpt lat="44.523716198094654" lon="10.013624998742374"><ele>788.0</ele><time>2026-05-03T09:33:22.999Z</time></trkpt><trkpt lat="44.52383747656888" lon="10.01368212668338"><ele>789.2</ele><time>2026-05-03T09:33:23.999Z</time></trkpt><trkpt lat="44.523950738595865" lon="10.01371783463442"><ele>790.4</ele><time>2026-05-03T09:33:24.999Z</time></trkpt><trkpt lat="44.524038755959815" lon="10.013787086575524"><ele>791.6</ele><time>2026-05-03T09:33:25.999Z</time></trkpt><trkpt lat="44.5241175135721" lon="10.013833074106065"><ele>792.8000000000001</ele><time>2026-05-03T09:33:26.999Z</time></trkpt><trkpt lat="44.5242000345394" lon="10.013874279561888"><ele>794.0</ele><time>2026-05-03T09:33:27.999Z</time></trkpt><trkpt lat="44.524322380393656" lon="10.013930191331951"><ele>794.0</ele><time>2026-05-03T09:33:28.999Z</time></trkpt><trkpt lat="44.52448070602148" lon="10.013999265699459"><ele>794.0</ele><time>2026-05-03T09:33:29.999Z</time></trkpt><trkpt lat="44.52463196360512" lon="10.014071342375432"><ele>794.0</ele><time>2026-05-03T09:33:30.999Z</time></trkpt><trkpt lat="44.524772115815274" lon="10.014161329337737"><ele>795.6666666666667</ele><time>2026-05-03T09:33:31.999Z</time></trkpt><trkpt lat="44.52487540048848" lon="10.01435188584101"><ele>797.3333333333333</ele><time>2026-05-03T09:33:32.999Z</time></trkpt><trkpt lat="44.52498441294535" lon="10.014563487841535"><ele>799.0</ele><time>2026-05-03T09:33:33.999Z</time></trkpt><trkpt lat="44.52509280417968" lon="10.01476796325201"><ele>799.3333333333333</ele><time>2026-05-03T09:33:34.999Z</time></trkpt><trkpt lat="44.525203079014915" lon="10.01499851671756"><ele>799.6666666666667</ele><time>2026-05-03T09:33:35.999Z</time></trkpt><trkpt lat="44.52530762396139" lon="10.015189411918989"><ele>800.0</ele><time>2026-05-03T09:33:36.999Z</time></trkpt><trkpt lat="44.52542611742747" lon="10.015320626881273"><ele>800.0</ele><time>2026-05-03T09:33:37.999Z</time></trkpt><trkpt lat="44.525556564920954" lon="10.0153830224948"><ele>800.0</ele><time>2026-05-03T09:33:38.999Z</time></trkpt><trkpt lat="44.52570033794065" lon="10.015355251602156"><ele>800.0</ele><time>2026-05-03T09:33:39.999Z</time></trkpt><trkpt lat="44.5258793259405" lon="10.015332017095147"><ele>800.0</ele><time>2026-05-03T09:33:41Z</time></trkpt><trkpt lat="44.52601963233951" lon="10.015365806623812"><ele>800.0</ele><time>2026-05-03T09:33:42Z</time></trkpt><trkpt lat="44.526150183638364" lon="10.01545205502422"><ele>800.0</ele><time>2026-05-03T09:33:43Z</time></trkpt><trkpt lat="44.52627783828113" lon="10.015560503660746"><ele>800.0</ele><time>2026-05-03T09:33:44Z</time></trkpt><trkpt lat="44.52633473474117" lon="10.015760310219779"><ele>801.3333333333334</ele><time>2026-05-03T09:33:45Z</time></trkpt><trkpt lat="44.52642447314043" lon="10.016002046173432"><ele>802.6666666666667</ele><time>2026-05-03T09:33:46Z</time></trkpt><trkpt lat="44.526529970773616" lon="10.01628513599351"><ele>804.0</ele><time>2026-05-03T09:33:47Z</time></trkpt><trkpt lat="44.526636643754905" lon="10.01657587298571"><ele>805.6666666666667</ele><time>2026-05-03T09:33:48Z</time></trkpt><trkpt lat="44.52671716483988" lon="10.016859728142498"><ele>807.3333333333334</ele><time>2026-05-03T09:33:49Z</time></trkpt><trkpt lat="44.52678847485053" lon="10.017158203281573"><ele>809.0</ele><time>2026-05-03T09:33:50Z</time></trkpt><trkpt lat="44.526833980224254" lon="10.017480817687831"><ele>810.6666666666667</ele><time>2026-05-03T09:33:51Z</time></trkpt><trkpt lat="44.52687902946516" lon="10.0177608128896"><ele>812.3333333333333</ele><time>2026-05-03T09:33:52Z</time></trkpt><trkpt lat="44.5269282836724" lon="10.018026181017706"><ele>814.0</ele><time>2026-05-03T09:33:53Z</time></trkpt><trkpt lat="44.52699009672354" lon="10.018280884277928"><ele>811.0</ele><time>2026-05-03T09:33:54Z</time></trkpt><trkpt lat="44.52706927755313" lon="10.018490253790269"><ele>808.0</ele><time>2026-05-03T09:33:55Z</time></trkpt><trkpt lat="44.527185398250566" lon="10.01865700805421"><ele>805.0</ele><time>2026-05-03T09:33:56Z</time></trkpt><trkpt lat="44.52736191922297" lon="10.018767526701627"><ele>805.0</ele><time>2026-05-03T09:33:57Z</time></trkpt><trkpt lat="44.527566825514725" lon="10.018834418409925"><ele>805.0</ele><time>2026-05-03T09:33:58Z</time></trkpt><trkpt lat="44.52773284392229" lon="10.018899816467574"><ele>805.0</ele><time>2026-05-03T09:33:59Z</time></trkpt><trkpt lat="44.527897211461" lon="10.019014156064582"><ele>804.6666666666666</ele><time>2026-05-03T09:34:00Z</time></trkpt><trkpt lat="44.528088885146786" lon="10.018989254433356"><ele>804.3333333333333</ele><time>2026-05-03T09:34:01Z</time></trkpt><trkpt lat="44.528307169697214" lon="10.018885194600534"><ele>804.0</ele><time>2026-05-03T09:34:02Z</time></trkpt><trkpt lat="44.5284951199061" lon="10.018773046652463"><ele>804.0</ele><time>2026-05-03T09:34:03Z</time></trkpt><trkpt lat="44.52865299906863" lon="10.018681074978566"><ele>804.0</ele><time>2026-05-03T09:34:04Z</time></trkpt><trkpt lat="44.528790056339275" lon="10.018667432013588"><ele>804.0</ele><time>2026-05-03T09:34:05Z</time></trkpt><trkpt lat="44.528908484753345" lon="10.018720073803255"><ele>804.0</ele><time>2026-05-03T09:34:06Z</time></trkpt><trkpt lat="44.52901579215361" lon="10.018851727416683"><ele>805.3333333333333</ele><time>2026-05-03T09:34:07Z</time></trkpt><trkpt lat="44.529102722825016" lon="10.019016636445519"><ele>806.6666666666666</ele><time>2026-05-03T09:34:08Z</time></trkpt><trkpt lat="44.529147181812164" lon="10.019216347677666"><ele>808.0</ele><time>2026-05-03T09:34:09Z</time></trkpt><trkpt lat="44.52919547530389" lon="10.019444229441946"><ele>808.0</ele><time>2026-05-03T09:34:10Z</time></trkpt><trkpt lat="44.52924541316396" lon="10.019681065066685"><ele>808.0</ele><time>2026-05-03T09:34:11Z</time></trkpt><trkpt lat="44.52931394949807" lon="10.019915538690412"><ele>808.0</ele><time>2026-05-03T09:34:12Z</time></trkpt><trkpt lat="44.52937982210042" lon="10.020156005526806"><ele>807.3333333333333</ele><time>2026-05-03T09:34:13Z</time></trkpt><trkpt lat="44.52950152591488" lon="10.020365509404694"><ele>806.6666666666667</ele><time>2026-05-03T09:34:14Z</time></trkpt><trkpt lat="44.52968341857445" lon="10.020540781130842"><ele>806.0</ele><time>2026-05-03T09:34:15Z</time></trkpt><trkpt lat="44.529880183424716" lon="10.02070613507348"><ele>811.5</ele><time>2026-05-03T09:34:16Z</time></trkpt><trkpt lat="44.53009239207857" lon="10.020883322231958"><ele>817.0</ele><time>2026-05-03T09:34:17Z</time></trkpt><trkpt lat="44.53029992358096" lon="10.021057387071949"><ele>812.6666666666666</ele><time>2026-05-03T09:34:18Z</time></trkpt><trkpt lat="44.53048182643471" lon="10.021222649256982"><ele>808.3333333333333</ele><time>2026-05-03T09:34:19Z</time></trkpt><trkpt lat="44.53065774213934" lon="10.021387496278837"><ele>804.0</ele><time>2026-05-03T09:34:20Z</time></trkpt><trkpt lat="44.5308323131632" lon="10.021537623970339"><ele>803.6666666666667</ele><time>2026-05-03T09:34:21Z</time></trkpt><trkpt lat="44.531006395917345" lon="10.021664758779654"><ele>803.3333333333334</ele><time>2026-05-03T09:34:22Z</time></trkpt><trkpt lat="44.53117754947464" lon="10.021783375426049"><ele>803.0</ele><time>2026-05-03T09:34:23Z</time></trkpt><trkpt lat="44.531336917772386" lon="10.021879899321476"><ele>803.0</ele><time>2026-05-03T09:34:24Z</time></trkpt><trkpt lat="44.531421062142115" lon="10.022033027946527"><ele>803.0</ele><time>2026-05-03T09:34:25Z</time></trkpt><trkpt lat="44.53146887664188" lon="10.02219218365773"><ele>803.0</ele><time>2026-05-03T09:34:26Z</time></trkpt><trkpt lat="44.531462453849464" lon="10.02238622893862"><ele>803.0</ele><time>2026-05-03T09:34:27Z</time></trkpt><trkpt lat="44.531455797823355" lon="10.022637759055394"><ele>804.3333333333334</ele><time>2026-05-03T09:34:28Z</time></trkpt><trkpt lat="44.53144312132463" lon="10.022962233533352"><ele>805.6666666666667</ele><time>2026-05-03T09:34:29Z</time></trkpt><trkpt lat="44.53140571778304" lon="10.02321483835022"><ele>807.0</ele><time>2026-05-03T09:34:30Z</time></trkpt><trkpt lat="44.5313400755247" lon="10.02340853521332"><ele>807.6666666666667</ele><time>2026-05-03T09:34:31Z</time></trkpt><trkpt lat="44.53122890238462" lon="10.023569228739019"><ele>808.3333333333334</ele><time>2026-05-03T09:34:32Z</time></trkpt><trkpt lat="44.531111402095206" lon="10.02378319385363"><ele>809.0</ele><time>2026-05-03T09:34:33Z</time></trkpt><trkpt lat="44.53098260229501" lon="10.023985112183565"><ele>815.0</ele><time>2026-05-03T09:34:34Z</time></trkpt><trkpt lat="44.53086180755914" lon="10.024176643466658"><ele>821.0</ele><time>2026-05-03T09:34:35Z</time></trkpt><trkpt lat="44.530725885591586" lon="10.024303987679826"><ele>827.0</ele><time>2026-05-03T09:34:36Z</time></trkpt><trkpt lat="44.53056780020209" lon="10.024402745610944"><ele>833.3333333333334</ele><time>2026-05-03T09:34:37Z</time></trkpt><trkpt lat="44.53038107537705" lon="10.024495208585602"><ele>839.6666666666667</ele><time>2026-05-03T09:34:38Z</time></trkpt><trkpt lat="44.530183136216344" lon="10.02457552824238"><ele>846.0</ele><time>2026-05-03T09:34:39Z</time></trkpt><trkpt lat="44.52999192209912" lon="10.024644331400891"><ele>846.0</ele><time>2026-05-03T09:34:40Z</time></trkpt><trkpt lat="44.52982514202484" lon="10.024721605295692"><ele>846.0</ele><time>2026-05-03T09:34:41Z</time></trkpt><trkpt lat="44.529670114877696" lon="10.024831696381002"><ele>846.0</ele><time>2026-05-03T09:34:42Z</time></trkpt><trkpt lat="44.52952274685441" lon="10.025002061699203"><ele>848.6666666666667</ele><time>2026-05-03T09:34:43Z</time></trkpt><trkpt lat="44.52937931810241" lon="10.025215297784458"><ele>851.3333333333334</ele><time>2026-05-03T09:34:44Z</time></trkpt><trkpt lat="44.52923975421094" lon="10.025410920737682"><ele>854.0</ele><time>2026-05-03T09:34:45Z</time></trkpt><trkpt lat="44.52910960444547" lon="10.025605994961376"><ele>854.0</ele><time>2026-05-03T09:34:46Z</time></trkpt><trkpt lat="44.529004936996614" lon="10.025811801189187"><ele>854.0</ele><time>2026-05-03T09:34:47Z</time></trkpt><trkpt lat="44.52893469609177" lon="10.026051693601012"><ele>854.0</ele><time>2026-05-03T09:34:48Z</time></trkpt><trkpt lat="44.52890775286483" lon="10.026331320733949"><ele>848.3333333333334</ele><time>2026-05-03T09:34:49Z</time></trkpt><trkpt lat="44.52886559326025" lon="10.026609855451362"><ele>842.6666666666667</ele><time>2026-05-03T09:34:50Z</time></trkpt><trkpt lat="44.528821892099515" lon="10.026886414873049"><ele>837.0</ele><time>2026-05-03T09:34:51Z</time></trkpt><trkpt lat="44.52875551035296" lon="10.027153654663154"><ele>840.3333333333333</ele><time>2026-05-03T09:34:52Z</time></trkpt><trkpt lat="44.52866319561913" lon="10.027385703104503"><ele>843.6666666666666</ele><time>2026-05-03T09:34:53Z</time></trkpt><trkpt lat="44.528550278962314" lon="10.027552654746104"><ele>847.0</ele><time>2026-05-03T09:34:54Z</time></trkpt><trkpt lat="44.52842050299847" lon="10.027725189247874"><ele>847.0</ele><time>2026-05-03T09:34:55Z</time></trkpt><trkpt lat="44.52830825506295" lon="10.027900789446187"><ele>847.0</ele><time>2026-05-03T09:34:56Z</time></trkpt><trkpt lat="44.52821299272563" lon="10.028055849546853"><ele>847.0</ele><time>2026-05-03T09:34:57Z</time></trkpt><trkpt lat="44.52814970660085" lon="10.028249859406683"><ele>843.3333333333333</ele><time>2026-05-03T09:34:58Z</time></trkpt><trkpt lat="44.52813283429352" lon="10.028470026194324"><ele>839.6666666666667</ele><time>2026-05-03T09:34:59Z</time></trkpt><trkpt lat="44.528149106122754" lon="10.028692197454603"><ele>836.0</ele><time>2026-05-03T09:35:00Z</time></trkpt><trkpt lat="44.52821992135345" lon="10.02892195099308"><ele>837.3333333333334</ele><time>2026-05-03T09:35:01Z</time></trkpt><trkpt lat="44.528317067583366" lon="10.029160501440435"><ele>838.6666666666667</ele><time>2026-05-03T09:35:02Z</time></trkpt><trkpt lat="44.528446628120264" lon="10.029388329006707"><ele>840.0</ele><time>2026-05-03T09:35:03Z</time></trkpt><trkpt lat="44.52857985669214" lon="10.029616241287707"><ele>840.0</ele><time>2026-05-03T09:35:04Z</time></trkpt><trkpt lat="44.52871029818304" lon="10.029837156506067"><ele>840.0</ele><time>2026-05-03T09:35:05Z</time></trkpt><trkpt lat="44.52883357736815" lon="10.030063280201617"><ele>840.0</ele><time>2026-05-03T09:35:06Z</time></trkpt><trkpt lat="44.52894864408111" lon="10.030282368063409"><ele>839.0</ele><time>2026-05-03T09:35:07Z</time></trkpt><trkpt lat="44.5290647078993" lon="10.030473714192901"><ele>838.0</ele><time>2026-05-03T09:35:08Z</time></trkpt><trkpt lat="44.52918707531037" lon="10.030655345946165"><ele>837.0</ele><time>2026-05-03T09:35:08.999Z</time></trkpt><trkpt lat="44.52933679995519" lon="10.030822641166788"><ele>837.6666666666667</ele><time>2026-05-03T09:35:09.999Z</time></trkpt><trkpt lat="44.529510949121864" lon="10.030917332057617"><ele>838.3333333333334</ele><time>2026-05-03T09:35:10.999Z</time></trkpt><trkpt lat="44.52969649576208" lon="10.030970983370516"><ele>839.0</ele><time>2026-05-03T09:35:11.999Z</time></trkpt><trkpt lat="44.52985605707022" lon="10.031073523992271"><ele>839.0</ele><time>2026-05-03T09:35:12.999Z</time></trkpt><trkpt lat="44.52997056449976" lon="10.031195309422472"><ele>839.0</ele><time>2026-05-03T09:35:13.999Z</time></trkpt><trkpt lat="44.5300685164941" lon="10.031380440980245"><ele>839.0</ele><time>2026-05-03T09:35:14.999Z</time></trkpt><trkpt lat="44.530191637934024" lon="10.031604653393499"><ele>841.3333333333334</ele><time>2026-05-03T09:35:15.999Z</time></trkpt><trkpt lat="44.53029355069047" lon="10.031846367844368"><ele>843.6666666666667</ele><time>2026-05-03T09:35:16.999Z</time></trkpt><trkpt lat="44.53040307947507" lon="10.032088865146012"><ele>846.0</ele><time>2026-05-03T09:35:17.999Z</time></trkpt><trkpt lat="44.5304954778954" lon="10.032317874304347"><ele>844.25</ele><time>2026-05-03T09:35:18.999Z</time></trkpt><trkpt lat="44.530576533220845" lon="10.032509701262612"><ele>842.5</ele><time>2026-05-03T09:35:19.999Z</time></trkpt><trkpt lat="44.53065600525422" lon="10.03263102180494"><ele>840.75</ele><time>2026-05-03T09:35:20.999Z</time></trkpt><trkpt lat="44.53076400955467" lon="10.032701316649876"><ele>839.0</ele><time>2026-05-03T09:35:21.999Z</time></trkpt><trkpt lat="44.530909089954285" lon="10.032680269744173"><ele>839.0</ele><time>2026-05-03T09:35:22.999Z</time></trkpt><trkpt lat="44.53106282083801" lon="10.03260393598173"><ele>839.0</ele><time>2026-05-03T09:35:23.999Z</time></trkpt><trkpt lat="44.531236348557606" lon="10.03252045327108"><ele>839.0</ele><time>2026-05-03T09:35:24.999Z</time></trkpt><trkpt lat="44.531413298889326" lon="10.032456100188883"><ele>835.6666666666667</ele><time>2026-05-03T09:35:25.999Z</time></trkpt><trkpt lat="44.53161137607954" lon="10.032435617680077"><ele>832.3333333333333</ele><time>2026-05-03T09:35:26.999Z</time></trkpt><trkpt lat="44.53178523180751" lon="10.03245224127581"><ele>829.0</ele><time>2026-05-03T09:35:27.999Z</time></trkpt><trkpt lat="44.531982208151014" lon="10.032518078152421"><ele>823.0</ele><time>2026-05-03T09:35:28.999Z</time></trkpt><trkpt lat="44.53230095667055" lon="10.032405286962996"><ele>817.0</ele><time>2026-05-03T09:35:29.999Z</time></trkpt><trkpt lat="44.53254866807907" lon="10.032393089575299"><ele>817.0</ele><time>2026-05-03T09:35:30.999Z</time></trkpt><trkpt lat="44.5327965327897" lon="10.032379405336703"><ele>817.0</ele><time>2026-05-03T09:35:31.999Z</time></trkpt><trkpt lat="44.533032240812005" lon="10.032348590227071"><ele>820.3333333333333</ele><time>2026-05-03T09:35:32.999Z</time></trkpt><trkpt lat="44.5332467810782" lon="10.032305002436408"><ele>823.6666666666667</ele><time>2026-05-03T09:35:33.999Z</time></trkpt><trkpt lat="44.53344183696752" lon="10.032250617579201"><ele>827.0</ele><time>2026-05-03T09:35:34.999Z</time></trkpt><trkpt lat="44.53362568681512" lon="10.032197226075757"><ele>826.5</ele><time>2026-05-03T09:35:35.999Z</time></trkpt><trkpt lat="44.5337863492689" lon="10.032139114340996"><ele>826.0</ele><time>2026-05-03T09:35:36.999Z</time></trkpt><trkpt lat="44.53391564410871" lon="10.03215336717742"><ele>825.5</ele><time>2026-05-03T09:35:37.999Z</time></trkpt><trkpt lat="44.53402712575507" lon="10.032222626160925"><ele>825.0</ele><time>2026-05-03T09:35:38.999Z</time></trkpt><trkpt lat="44.53410462621055" lon="10.032368689245345"><ele>827.6666666666667</ele><time>2026-05-03T09:35:39.999Z</time></trkpt><trkpt lat="44.53415272231929" lon="10.032537180171436"><ele>830.3333333333334</ele><time>2026-05-03T09:35:40.999Z</time></trkpt><trkpt lat="44.534197503501055" lon="10.032748488547647"><ele>833.0</ele><time>2026-05-03T09:35:41.999Z</time></trkpt><trkpt lat="44.53424646887018" lon="10.033002512336676"><ele>833.0</ele><time>2026-05-03T09:35:42.999Z</time></trkpt><trkpt lat="44.53429561037023" lon="10.033265975122271"><ele>833.0</ele><time>2026-05-03T09:35:43.999Z</time></trkpt><trkpt lat="44.5343416771972" lon="10.033526839263692"><ele>833.0</ele><time>2026-05-03T09:35:44.999Z</time></trkpt><trkpt lat="44.534392769131664" lon="10.033816159514929"><ele>833.5</ele><time>2026-05-03T09:35:45.999Z</time></trkpt><trkpt lat="44.53444957769004" lon="10.03406816476774"><ele>834.0</ele><time>2026-05-03T09:35:47Z</time></trkpt><trkpt lat="44.534481860861945" lon="10.034265591363875"><ele>834.5</ele><time>2026-05-03T09:35:48Z</time></trkpt><trkpt lat="44.534516864219505" lon="10.034395329698903"><ele>835.0</ele><time>2026-05-03T09:35:49Z</time></trkpt><trkpt lat="44.53457326223931" lon="10.03450996164156"><ele>833.75</ele><time>2026-05-03T09:35:50Z</time></trkpt><trkpt lat="44.534669583474276" lon="10.034596060723096"><ele>832.5</ele><time>2026-05-03T09:35:51Z</time></trkpt><trkpt lat="44.53479859758816" lon="10.034624516811931"><ele>831.25</ele><time>2026-05-03T09:35:52Z</time></trkpt><trkpt lat="44.53493404287648" lon="10.034578462583701"><ele>830.0</ele><time>2026-05-03T09:35:53Z</time></trkpt><trkpt lat="44.53505455126028" lon="10.034459614194413"><ele>830.0</ele><time>2026-05-03T09:35:54Z</time></trkpt><trkpt lat="44.53516057063681" lon="10.034274915230599"><ele>830.0</ele><time>2026-05-03T09:35:55Z</time></trkpt><trkpt lat="44.53528494906786" lon="10.034050365044074"><ele>830.0</ele><time>2026-05-03T09:35:56Z</time></trkpt><trkpt lat="44.53544547359341" lon="10.033874331349393"><ele>831.3333333333334</ele><time>2026-05-03T09:35:57Z</time></trkpt><trkpt lat="44.53560270486599" lon="10.033757598730046"><ele>832.6666666666667</ele><time>2026-05-03T09:35:58Z</time></trkpt><trkpt lat="44.53572445954099" lon="10.033618781596871"><ele>834.0</ele><time>2026-05-03T09:35:59Z</time></trkpt><trkpt lat="44.53579215440499" lon="10.033384171622622"><ele>834.0</ele><time>2026-05-03T09:36:00Z</time></trkpt><trkpt lat="44.53587603461578" lon="10.033142765488783"><ele>834.0</ele><time>2026-05-03T09:36:01Z</time></trkpt><trkpt lat="44.53605357767567" lon="10.033009393200958"><ele>834.0</ele><time>2026-05-03T09:36:02Z</time></trkpt><trkpt lat="44.536255071425316" lon="10.032829131354706"><ele>834.0</ele><time>2026-05-03T09:36:03Z</time></trkpt><trkpt lat="44.53644274834059" lon="10.03265283742883"><ele>834.0</ele><time>2026-05-03T09:36:04Z</time></trkpt><trkpt lat="44.53660882463432" lon="10.032509283847398"><ele>834.0</ele><time>2026-05-03T09:36:05Z</time></trkpt><trkpt lat="44.53674114809367" lon="10.03234806349643"><ele>830.0</ele><time>2026-05-03T09:36:06Z</time></trkpt><trkpt lat="44.53684082443794" lon="10.032140826193798"><ele>826.0</ele><time>2026-05-03T09:36:07Z</time></trkpt><trkpt lat="44.5368511655744" lon="10.031877880875708"><ele>822.0</ele><time>2026-05-03T09:36:08Z</time></trkpt><trkpt lat="44.53685474520401" lon="10.031612576720178"><ele>823.25</ele><time>2026-05-03T09:36:09Z</time></trkpt><trkpt lat="44.53688407642816" lon="10.031403881952633"><ele>824.5</ele><time>2026-05-03T09:36:10Z</time></trkpt><trkpt lat="44.53699044836676" lon="10.031294432226543"><ele>825.75</ele><time>2026-05-03T09:36:11Z</time></trkpt><trkpt lat="44.53710838365869" lon="10.031233641355879"><ele>827.0</ele><time>2026-05-03T09:36:12Z</time></trkpt><trkpt lat="44.537239347309" lon="10.031251615458828"><ele>827.0</ele><time>2026-05-03T09:36:13Z</time></trkpt><trkpt lat="44.53737745448608" lon="10.031339713213946"><ele>827.0</ele><time>2026-05-03T09:36:14Z</time></trkpt><trkpt lat="44.537573167570194" lon="10.031441244522586"><ele>827.0</ele><time>2026-05-03T09:36:15Z</time></trkpt><trkpt lat="44.53778588291461" lon="10.031540802494922"><ele>828.3333333333334</ele><time>2026-05-03T09:36:16Z</time></trkpt><trkpt lat="44.53799453621291" lon="10.031652121126735"><ele>829.6666666666667</ele><time>2026-05-03T09:36:17Z</time></trkpt><trkpt lat="44.53820798003682" lon="10.031744646517362"><ele>831.0</ele><time>2026-05-03T09:36:18Z</time></trkpt><trkpt lat="44.53839508000399" lon="10.031836022650937"><ele>831.0</ele><time>2026-05-03T09:36:19Z</time></trkpt><trkpt lat="44.5385685441306" lon="10.03195975767015"><ele>831.0</ele><time>2026-05-03T09:36:20Z</time></trkpt><trkpt lat="44.53875236263798" lon="10.032131379175661"><ele>831.0</ele><time>2026-05-03T09:36:21Z</time></trkpt><trkpt lat="44.53892855500849" lon="10.03229509560815"><ele>831.3333333333333</ele><time>2026-05-03T09:36:22Z</time></trkpt><trkpt lat="44.53909714214233" lon="10.032429392604055"><ele>831.6666666666666</ele><time>2026-05-03T09:36:23Z</time></trkpt><trkpt lat="44.539271158115945" lon="10.032521055923734"><ele>832.0</ele><time>2026-05-03T09:36:24Z</time></trkpt><trkpt lat="44.53942812780952" lon="10.03253801707254"><ele>830.5</ele><time>2026-05-03T09:36:25Z</time></trkpt><trkpt lat="44.53956731080077" lon="10.032539302616529"><ele>829.0</ele><time>2026-05-03T09:36:26Z</time></trkpt><trkpt lat="44.539691695525285" lon="10.032559264822723"><ele>827.5</ele><time>2026-05-03T09:36:27Z</time></trkpt><trkpt lat="44.53980709286621" lon="10.032587837359761"><ele>826.0</ele><time>2026-05-03T09:36:28Z</time></trkpt><trkpt lat="44.5399154356596" lon="10.032598910075022"><ele>826.0</ele><time>2026-05-03T09:36:29Z</time></trkpt><trkpt lat="44.54000948176335" lon="10.032613546268262"><ele>826.0</ele><time>2026-05-03T09:36:30Z</time></trkpt><trkpt lat="44.54008754795788" lon="10.032626688923022"><ele>826.0</ele><time>2026-05-03T09:37:44.999Z</time></trkpt><trkpt lat="44.5402325338281" lon="10.032638922839936"><ele>826.0</ele><time>2026-05-03T09:37:46.999Z</time></trkpt><trkpt lat="44.54031332236624" lon="10.03264943508397"><ele>826.0</ele><time>2026-05-03T09:37:47.999Z</time></trkpt><trkpt lat="44.540444298365145" lon="10.032644723085902"><ele>826.75</ele><time>2026-05-03T09:37:48.999Z</time></trkpt><trkpt lat="44.54056872411789" lon="10.032613658982566"><ele>827.5</ele><time>2026-05-03T09:37:49.999Z</time></trkpt><trkpt lat="44.5406973937496" lon="10.032543921470788"><ele>828.25</ele><time>2026-05-03T09:37:50.999Z</time></trkpt><trkpt lat="44.54081746710901" lon="10.03244462536452"><ele>829.0</ele><time>2026-05-03T09:37:51.999Z</time></trkpt><trkpt lat="44.54093543317138" lon="10.032337043698528"><ele>827.0</ele><time>2026-05-03T09:37:53Z</time></trkpt><trkpt lat="44.541055956380596" lon="10.032233921316429"><ele>825.0</ele><time>2026-05-03T09:37:54Z</time></trkpt><trkpt lat="44.54117023564123" lon="10.032142285958075"><ele>823.0</ele><time>2026-05-03T09:37:55Z</time></trkpt><trkpt lat="44.5412698949125" lon="10.032065389011528"><ele>821.0</ele><time>2026-05-03T09:37:56Z</time></trkpt><trkpt lat="44.54138765659658" lon="10.032006441677327"><ele>821.0</ele><time>2026-05-03T09:37:57Z</time></trkpt><trkpt lat="44.54153082979427" lon="10.032029673680958"><ele>821.0</ele><time>2026-05-03T09:37:58Z</time></trkpt><trkpt lat="44.54164554481222" lon="10.032127575052568"><ele>821.0</ele><time>2026-05-03T09:37:59Z</time></trkpt><trkpt lat="44.54172652142772" lon="10.032232705535963"><ele>821.0</ele><time>2026-05-03T09:38:00Z</time></trkpt><trkpt lat="44.541803507450695" lon="10.032359026067159"><ele>820.0</ele><time>2026-05-03T09:38:01Z</time></trkpt><trkpt lat="44.54185212021285" lon="10.03248872800149"><ele>819.0</ele><time>2026-05-03T09:38:02Z</time></trkpt><trkpt lat="44.54191612884357" lon="10.032629530349947"><ele>818.0</ele><time>2026-05-03T09:38:03Z</time></trkpt><trkpt lat="44.54199889141524" lon="10.032788004259583"><ele>817.0</ele><time>2026-05-03T09:38:04Z</time></trkpt><trkpt lat="44.54207817390354" lon="10.03296887203806"><ele>817.0</ele><time>2026-05-03T09:38:05Z</time></trkpt><trkpt lat="44.5421632599956" lon="10.033154432419124"><ele>817.0</ele><time>2026-05-03T09:38:06Z</time></trkpt><trkpt lat="44.54225088393857" lon="10.033335993691898"><ele>817.0</ele><time>2026-05-03T09:38:07Z</time></trkpt><trkpt lat="44.54235770585159" lon="10.033503466053206"><ele>819.5</ele><time>2026-05-03T09:38:08Z</time></trkpt><trkpt lat="44.54248488884808" lon="10.033631790223568"><ele>822.0</ele><time>2026-05-03T09:38:09Z</time></trkpt><trkpt lat="44.54260273315102" lon="10.033728299900298"><ele>824.5</ele><time>2026-05-03T09:38:10Z</time></trkpt><trkpt lat="44.542711397546285" lon="10.033797333082651"><ele>827.0</ele><time>2026-05-03T09:38:11Z</time></trkpt><trkpt lat="44.54281044630161" lon="10.033854287337405"><ele>826.8333333333334</ele><time>2026-05-03T09:38:12Z</time></trkpt><trkpt lat="44.542891602361195" lon="10.03392406828176"><ele>826.6666666666667</ele><time>2026-05-03T09:38:13Z</time></trkpt><trkpt lat="44.54296066134845" lon="10.033991050286453"><ele>826.5</ele><time>2026-05-03T09:38:14Z</time></trkpt><trkpt lat="44.54301731682374" lon="10.034059609746535"><ele>826.3333333333333</ele><time>2026-05-03T09:38:15Z</time></trkpt><trkpt lat="44.54305813422553" lon="10.034136014037012"><ele>826.1666666666666</ele><time>2026-05-03T09:38:16Z</time></trkpt><trkpt lat="44.543102817888716" lon="10.03423716605897"><ele>826.0</ele><time>2026-05-03T09:38:17Z</time></trkpt><trkpt lat="44.54315047412209" lon="10.03436495057178"><ele>826.0</ele><time>2026-05-03T09:38:18Z</time></trkpt><trkpt lat="44.54320003016538" lon="10.034494863310911"><ele>826.0</ele><time>2026-05-03T09:38:19Z</time></trkpt><trkpt lat="44.54324673730792" lon="10.034625235344022"><ele>826.0</ele><time>2026-05-03T09:38:20Z</time></trkpt><trkpt lat="44.54329605645255" lon="10.034752107777233"><ele>826.0</ele><time>2026-05-03T09:38:21Z</time></trkpt><trkpt lat="44.54335876203469" lon="10.034867435645802"><ele>826.0</ele><time>2026-05-03T09:38:22Z</time></trkpt><trkpt lat="44.543438877104926" lon="10.034969081557007"><ele>827.75</ele><time>2026-05-03T09:38:23Z</time></trkpt><trkpt lat="44.543548241054346" lon="10.035046516811256"><ele>829.5</ele><time>2026-05-03T09:38:24Z</time></trkpt><trkpt lat="44.54366996006506" lon="10.035094848478447"><ele>831.25</ele><time>2026-05-03T09:38:25Z</time></trkpt><trkpt lat="44.54379504602184" lon="10.035131212264442"><ele>833.0</ele><time>2026-05-03T09:38:26Z</time></trkpt><trkpt lat="44.5439250751901" lon="10.03514152400215"><ele>833.0</ele><time>2026-05-03T09:38:27Z</time></trkpt><trkpt lat="44.5440640081621" lon="10.035093664011992"><ele>833.0</ele><time>2026-05-03T09:38:28Z</time></trkpt><trkpt lat="44.544229988479074" lon="10.034991601100035"><ele>833.0</ele><time>2026-05-03T09:38:29Z</time></trkpt><trkpt lat="44.54439672960089" lon="10.03488868399856"><ele>833.6666666666667</ele><time>2026-05-03T09:38:30Z</time></trkpt><trkpt lat="44.54454788191971" lon="10.03481180537413"><ele>834.3333333333333</ele><time>2026-05-03T09:38:31Z</time></trkpt><trkpt lat="44.54469072975788" lon="10.034726704059926"><ele>835.0</ele><time>2026-05-03T09:38:32Z</time></trkpt><trkpt lat="44.544820334414645" lon="10.034595201069045"><ele>835.0</ele><time>2026-05-03T09:38:33Z</time></trkpt><trkpt lat="44.54491972107464" lon="10.03437597424765"><ele>835.0</ele><time>2026-05-03T09:38:34Z</time></trkpt><trkpt lat="44.545005667863066" lon="10.03417703466375"><ele>835.0</ele><time>2026-05-03T09:38:35Z</time></trkpt><trkpt lat="44.5450831222463" lon="10.0339865161009"><ele>834.5</ele><time>2026-05-03T09:38:36Z</time></trkpt><trkpt lat="44.54514681984438" lon="10.033857959198377"><ele>834.0</ele><time>2026-05-03T09:38:37Z</time></trkpt><trkpt lat="44.5452651175332" lon="10.033712566343384"><ele>833.5</ele><time>2026-05-03T09:38:38Z</time></trkpt><trkpt lat="44.545361533638214" lon="10.033619881758023"><ele>833.0</ele><time>2026-05-03T09:38:39Z</time></trkpt><trkpt lat="44.54549908888963" lon="10.03364727558157"><ele>833.0</ele><time>2026-05-03T09:38:40Z</time></trkpt><trkpt lat="44.54566259762783" lon="10.033655185994283"><ele>833.0</ele><time>2026-05-03T09:38:41Z</time></trkpt><trkpt lat="44.54583762696261" lon="10.033693360854404"><ele>833.0</ele><time>2026-05-03T09:38:42Z</time></trkpt><trkpt lat="44.546006272498964" lon="10.033720767644608"><ele>833.0</ele><time>2026-05-03T09:38:43Z</time></trkpt><trkpt lat="44.54613928115534" lon="10.033755532672691"><ele>833.0</ele><time>2026-05-03T09:38:44Z</time></trkpt><trkpt lat="44.54623326023474" lon="10.033839200009439"><ele>833.0</ele><time>2026-05-03T09:38:45Z</time></trkpt><trkpt lat="44.54627868261686" lon="10.034001466727933"><ele>833.0</ele><time>2026-05-03T09:38:46Z</time></trkpt><trkpt lat="44.54634325371836" lon="10.034194878544248"><ele>834.6666666666667</ele><time>2026-05-03T09:38:47Z</time></trkpt><trkpt lat="44.54640157523848" lon="10.0344257460623"><ele>836.3333333333333</ele><time>2026-05-03T09:38:48Z</time></trkpt><trkpt lat="44.54647845765165" lon="10.034663319519712"><ele>838.0</ele><time>2026-05-03T09:38:49Z</time></trkpt><trkpt lat="44.54657039478388" lon="10.034913394657979"><ele>838.6666666666666</ele><time>2026-05-03T09:38:50Z</time></trkpt><trkpt lat="44.546678833354164" lon="10.035140416877942"><ele>839.3333333333333</ele><time>2026-05-03T09:38:51Z</time></trkpt><trkpt lat="44.54681850070252" lon="10.035346576858544"><ele>840.0</ele><time>2026-05-03T09:38:52Z</time></trkpt><trkpt lat="44.546971101757144" lon="10.035548096694335"><ele>838.3333333333333</ele><time>2026-05-03T09:38:53Z</time></trkpt><trkpt lat="44.547107030751654" lon="10.035745825189826"><ele>836.6666666666666</ele><time>2026-05-03T09:38:54Z</time></trkpt><trkpt lat="44.54721949672812" lon="10.03594781283648"><ele>835.0</ele><time>2026-05-03T09:38:55Z</time></trkpt><trkpt lat="44.54730699408969" lon="10.036179145815526"><ele>835.0</ele><time>2026-05-03T09:38:56Z</time></trkpt><trkpt lat="44.54739423664254" lon="10.0364272299234"><ele>835.0</ele><time>2026-05-03T09:38:57Z</time></trkpt><trkpt lat="44.547501679169116" lon="10.036658461747527"><ele>835.0</ele><time>2026-05-03T09:38:58Z</time></trkpt><trkpt lat="44.54761087358973" lon="10.036859353697706"><ele>833.3333333333333</ele><time>2026-05-03T09:38:59Z</time></trkpt><trkpt lat="44.547713688145684" lon="10.03703569008085"><ele>831.6666666666667</ele><time>2026-05-03T09:39:00Z</time></trkpt><trkpt lat="44.547812295031186" lon="10.037194241312513"><ele>830.0</ele><time>2026-05-03T09:39:01Z</time></trkpt><trkpt lat="44.54792966967153" lon="10.037340309791752"><ele>830.0</ele><time>2026-05-03T09:39:02Z</time></trkpt><trkpt lat="44.54804924306488" lon="10.037433110600587"><ele>830.0</ele><time>2026-05-03T09:39:03Z</time></trkpt><trkpt lat="44.54817718856314" lon="10.037495738221093"><ele>830.0</ele><time>2026-05-03T09:39:04Z</time></trkpt><trkpt lat="44.548301178461244" lon="10.03753153694953"><ele>830.0</ele><time>2026-05-03T09:39:05Z</time></trkpt><trkpt lat="44.54841865682954" lon="10.037543663132654"><ele>832.0</ele><time>2026-05-03T09:39:06Z</time></trkpt><trkpt lat="44.548535835716834" lon="10.037543330830175"><ele>834.0</ele><time>2026-05-03T09:39:07Z</time></trkpt><trkpt lat="44.54864955569406" lon="10.037541894686132"><ele>836.0</ele><time>2026-05-03T09:39:08Z</time></trkpt><trkpt lat="44.54876464279096" lon="10.037546016342938"><ele>838.0</ele><time>2026-05-03T09:39:09Z</time></trkpt><trkpt lat="44.54888479463424" lon="10.037543145941454"><ele>838.0</ele><time>2026-05-03T09:39:10Z</time></trkpt><trkpt lat="44.5490089815647" lon="10.037539619115913"><ele>838.0</ele><time>2026-05-03T09:39:11Z</time></trkpt><trkpt lat="44.54912250301267" lon="10.037531701346355"><ele>838.0</ele><time>2026-05-03T09:39:12Z</time></trkpt><trkpt lat="44.54924404487694" lon="10.037532559300738"><ele>838.0</ele><time>2026-05-03T09:39:13Z</time></trkpt><trkpt lat="44.54937972364114" lon="10.037536906386476"><ele>838.0</ele><time>2026-05-03T09:39:14Z</time></trkpt><trkpt lat="44.549514653606266" lon="10.03754310357661"><ele>838.0</ele><time>2026-05-03T09:39:15Z</time></trkpt><trkpt lat="44.54966379394493" lon="10.037571447654539"><ele>838.0</ele><time>2026-05-03T09:39:15.999Z</time></trkpt><trkpt lat="44.54981140180823" lon="10.03761051179252"><ele>838.0</ele><time>2026-05-03T09:39:16.999Z</time></trkpt><trkpt lat="44.549964702167856" lon="10.037664270016169"><ele>837.6666666666666</ele><time>2026-05-03T09:39:17.999Z</time></trkpt><trkpt lat="44.55013204165069" lon="10.037731762838446"><ele>837.3333333333333</ele><time>2026-05-03T09:39:18.999Z</time></trkpt><trkpt lat="44.55032723933275" lon="10.037801420020008"><ele>837.0</ele><time>2026-05-03T09:39:19.999Z</time></trkpt><trkpt lat="44.55042677400986" lon="10.037864279033144"><ele>835.75</ele><time>2026-05-03T09:39:20.999Z</time></trkpt><trkpt lat="44.55055837444136" lon="10.03793242530852"><ele>834.5</ele><time>2026-05-03T09:39:21.999Z</time></trkpt><trkpt lat="44.550688810371646" lon="10.037978868788366"><ele>833.25</ele><time>2026-05-03T09:39:22.999Z</time></trkpt><trkpt lat="44.55080783371026" lon="10.038037242709656"><ele>832.0</ele><time>2026-05-03T09:39:23.999Z</time></trkpt><trkpt lat="44.550902975526135" lon="10.038114885529419"><ele>832.0</ele><time>2026-05-03T09:39:24.999Z</time></trkpt><trkpt lat="44.55097206730118" lon="10.038211305413526"><ele>832.0</ele><time>2026-05-03T09:39:25.999Z</time></trkpt><trkpt lat="44.55103610289919" lon="10.038301809347747"><ele>832.0</ele><time>2026-05-03T09:39:26.999Z</time></trkpt><trkpt lat="44.551110086309784" lon="10.03838168701769"><ele>832.0</ele><time>2026-05-03T09:39:27.999Z</time></trkpt><trkpt lat="44.55119313154267" lon="10.038447666101625"><ele>832.0</ele><time>2026-05-03T09:39:28.999Z</time></trkpt><trkpt lat="44.55129136856942" lon="10.038480502639747"><ele>831.5</ele><time>2026-05-03T09:39:29.999Z</time></trkpt><trkpt lat="44.55140431341324" lon="10.038467142375897"><ele>831.0</ele><time>2026-05-03T09:39:30.999Z</time></trkpt><trkpt lat="44.55151361088572" lon="10.038410167770204"><ele>830.5</ele><time>2026-05-03T09:39:31.999Z</time></trkpt><trkpt lat="44.55161768668402" lon="10.038301054003924"><ele>830.0</ele><time>2026-05-03T09:39:32.999Z</time></trkpt><trkpt lat="44.551726751824724" lon="10.038177063932872"><ele>830.0</ele><time>2026-05-03T09:39:33.999Z</time></trkpt><trkpt lat="44.55184456576261" lon="10.0380413595144"><ele>830.0</ele><time>2026-05-03T09:39:34.999Z</time></trkpt><trkpt lat="44.551965024033606" lon="10.037882671538588"><ele>830.0</ele><time>2026-05-03T09:39:35.999Z</time></trkpt><trkpt lat="44.552064996675774" lon="10.037688300092276"><ele>828.6666666666667</ele><time>2026-05-03T09:39:36.999Z</time></trkpt><trkpt lat="44.55214334554542" lon="10.037471170708468"><ele>827.3333333333333</ele><time>2026-05-03T09:39:37.999Z</time></trkpt><trkpt lat="44.552233834673004" lon="10.037279638705375"><ele>826.0</ele><time>2026-05-03T09:39:38.999Z</time></trkpt><trkpt lat="44.55232015929945" lon="10.03709101400457"><ele>826.0</ele><time>2026-05-03T09:39:39.999Z</time></trkpt><trkpt lat="44.552433324638955" lon="10.036977014208198"><ele>826.0</ele><time>2026-05-03T09:39:40.999Z</time></trkpt><trkpt lat="44.55256752392386" lon="10.036907938826184"><ele>826.0</ele><time>2026-05-03T09:39:41.999Z</time></trkpt><trkpt lat="44.5527374352382" lon="10.036902479836282"><ele>829.5</ele><time>2026-05-03T09:39:42.999Z</time></trkpt><trkpt lat="44.552907332722306" lon="10.036954633339635"><ele>833.0</ele><time>2026-05-03T09:39:43.999Z</time></trkpt><trkpt lat="44.55304060327541" lon="10.037014764482471"><ele>836.5</ele><time>2026-05-03T09:39:44.999Z</time></trkpt><trkpt lat="44.55314536753874" lon="10.037010942746619"><ele>840.0</ele><time>2026-05-03T09:39:45.999Z</time></trkpt><trkpt lat="44.553276319792765" lon="10.036916041952132"><ele>840.0</ele><time>2026-05-03T09:39:46.999Z</time></trkpt><trkpt lat="44.55334191046449" lon="10.036744106611804"><ele>840.0</ele><time>2026-05-03T09:39:47.999Z</time></trkpt><trkpt lat="44.55337478330725" lon="10.036543795269163"><ele>840.0</ele><time>2026-05-03T09:39:48.999Z</time></trkpt><trkpt lat="44.55342020157214" lon="10.036337889497197"><ele>840.0</ele><time>2026-05-03T09:39:49.999Z</time></trkpt><trkpt lat="44.55353008549205" lon="10.03617248165971"><ele>837.0</ele><time>2026-05-03T09:39:50.999Z</time></trkpt><trkpt lat="44.55364932923085" lon="10.036004076778317"><ele>834.0</ele><time>2026-05-03T09:39:51.999Z</time></trkpt><trkpt lat="44.553765162588455" lon="10.035819415583605"><ele>831.0</ele><time>2026-05-03T09:39:52.999Z</time></trkpt><trkpt lat="44.553874588930185" lon="10.035662232693047"><ele>825.75</ele><time>2026-05-03T09:39:53.999Z</time></trkpt><trkpt lat="44.553963017430384" lon="10.035552018769694"><ele>820.5</ele><time>2026-05-03T09:39:54.999Z</time></trkpt><trkpt lat="44.55406280183497" lon="10.035498368708"><ele>815.25</ele><time>2026-05-03T09:39:55.999Z</time></trkpt><trkpt lat="44.554179430841565" lon="10.035547645245538"><ele>810.0</ele><time>2026-05-03T09:39:56.999Z</time></trkpt><trkpt lat="44.55432365164837" lon="10.035582535266553"><ele>810.0</ele><time>2026-05-03T09:39:57.999Z</time></trkpt><trkpt lat="44.55448703005629" lon="10.035672115339494"><ele>810.0</ele><time>2026-05-03T09:39:59Z</time></trkpt><trkpt lat="44.554647373099144" lon="10.03574272222581"><ele>810.0</ele><time>2026-05-03T09:40:00Z</time></trkpt><trkpt lat="44.5548025716219" lon="10.035816370283573"><ele>812.6666666666667</ele><time>2026-05-03T09:40:01Z</time></trkpt><trkpt lat="44.55492677978696" lon="10.035908100215128"><ele>815.3333333333334</ele><time>2026-05-03T09:40:02Z</time></trkpt><trkpt lat="44.55502006395309" lon="10.03607850464298"><ele>818.0</ele><time>2026-05-03T09:40:03Z</time></trkpt><trkpt lat="44.55511153000386" lon="10.036292454197739"><ele>818.0</ele><time>2026-05-03T09:40:04Z</time></trkpt><trkpt lat="44.55522646844284" lon="10.036477148771668"><ele>818.0</ele><time>2026-05-03T09:40:05Z</time></trkpt><trkpt lat="44.555373911471406" lon="10.03663167464025"><ele>818.0</ele><time>2026-05-03T09:40:06Z</time></trkpt><trkpt lat="44.55554741526888" lon="10.036730533812023"><ele>818.5</ele><time>2026-05-03T09:40:07Z</time></trkpt><trkpt lat="44.55570798050817" lon="10.036789862139747"><ele>819.0</ele><time>2026-05-03T09:40:08Z</time></trkpt><trkpt lat="44.5558363590821" lon="10.03679635405572"><ele>819.5</ele><time>2026-05-03T09:40:09Z</time></trkpt><trkpt lat="44.55593904150077" lon="10.036771801479855"><ele>820.0</ele><time>2026-05-03T09:40:10Z</time></trkpt><trkpt lat="44.55605647591875" lon="10.036726270374901"><ele>820.0</ele><time>2026-05-03T09:40:11Z</time></trkpt><trkpt lat="44.556198789874166" lon="10.03669017899614"><ele>820.0</ele><time>2026-05-03T09:40:12Z</time></trkpt><trkpt lat="44.556356048265826" lon="10.03663241021444"><ele>820.0</ele><time>2026-05-03T09:40:13Z</time></trkpt><trkpt lat="44.55651282435307" lon="10.036573171011183"><ele>818.5</ele><time>2026-05-03T09:40:14Z</time></trkpt><trkpt lat="44.55664460540475" lon="10.036498709875753"><ele>817.0</ele><time>2026-05-03T09:40:15Z</time></trkpt><trkpt lat="44.556755566206085" lon="10.036432987074168"><ele>815.5</ele><time>2026-05-03T09:40:16Z</time></trkpt><trkpt lat="44.55684792986121" lon="10.036322690062956"><ele>814.0</ele><time>2026-05-03T09:40:17Z</time></trkpt><trkpt lat="44.55692609749361" lon="10.036161513098698"><ele>814.0</ele><time>2026-05-03T09:40:18Z</time></trkpt><trkpt lat="44.55699873434991" lon="10.035976826154833"><ele>814.0</ele><time>2026-05-03T09:40:19Z</time></trkpt><trkpt lat="44.5570609337102" lon="10.035763530131263"><ele>814.0</ele><time>2026-05-03T09:40:20Z</time></trkpt><trkpt lat="44.55711102819853" lon="10.035548274965372"><ele>815.0</ele><time>2026-05-03T09:40:21Z</time></trkpt><trkpt lat="44.55713730942442" lon="10.03536406940415"><ele>816.0</ele><time>2026-05-03T09:40:22Z</time></trkpt><trkpt lat="44.55718585530278" lon="10.035217602116157"><ele>817.0</ele><time>2026-05-03T09:40:23Z</time></trkpt><trkpt lat="44.55729217812763" lon="10.03514551443729"><ele>818.0</ele><time>2026-05-03T09:40:24Z</time></trkpt><trkpt lat="44.55740653181243" lon="10.035090663113158"><ele>818.0</ele><time>2026-05-03T09:40:25Z</time></trkpt><trkpt lat="44.55754528108516" lon="10.035158002585577"><ele>818.0</ele><time>2026-05-03T09:40:26Z</time></trkpt><trkpt lat="44.55765851644533" lon="10.035276025485029"><ele>818.0</ele><time>2026-05-03T09:40:27Z</time></trkpt><trkpt lat="44.55777204031849" lon="10.035436372012231"><ele>818.0</ele><time>2026-05-03T09:40:28Z</time></trkpt><trkpt lat="44.55787000663998" lon="10.03565276672385"><ele>819.0</ele><time>2026-05-03T09:40:29Z</time></trkpt><trkpt lat="44.55798483147405" lon="10.035857431125368"><ele>820.0</ele><time>2026-05-03T09:40:30Z</time></trkpt><trkpt lat="44.55811976230707" lon="10.036029363282958"><ele>821.0</ele><time>2026-05-03T09:40:31Z</time></trkpt><trkpt lat="44.55828896884657" lon="10.036147118724417"><ele>821.0</ele><time>2026-05-03T09:40:32Z</time></trkpt><trkpt lat="44.558474506861685" lon="10.03623257716525"><ele>821.0</ele><time>2026-05-03T09:40:33Z</time></trkpt><trkpt lat="44.55861929994915" lon="10.036374555919325"><ele>821.0</ele><time>2026-05-03T09:40:34Z</time></trkpt><trkpt lat="44.558737205105594" lon="10.036557705650557"><ele>820.6666666666667</ele><time>2026-05-03T09:40:35Z</time></trkpt><trkpt lat="44.55886196481534" lon="10.036741945307089"><ele>820.3333333333333</ele><time>2026-05-03T09:40:36Z</time></trkpt><trkpt lat="44.55898114754436" lon="10.03690766216951"><ele>820.0</ele><time>2026-05-03T09:40:37Z</time></trkpt><trkpt lat="44.55910477232812" lon="10.036998563135121"><ele>820.0</ele><time>2026-05-03T09:40:38Z</time></trkpt><trkpt lat="44.559253484773194" lon="10.037002171948886"><ele>820.0</ele><time>2026-05-03T09:40:39Z</time></trkpt><trkpt lat="44.55941371025836" lon="10.03694511166151"><ele>820.0</ele><time>2026-05-03T09:40:40Z</time></trkpt><trkpt lat="44.55954711699475" lon="10.03690940448267"><ele>818.0</ele><time>2026-05-03T09:40:41Z</time></trkpt><trkpt lat="44.55966023087205" lon="10.036974513680871"><ele>816.0</ele><time>2026-05-03T09:40:42Z</time></trkpt><trkpt lat="44.559747001181286" lon="10.037157250674108"><ele>814.0</ele><time>2026-05-03T09:40:43Z</time></trkpt><trkpt lat="44.55985613319311" lon="10.037342170007488"><ele>816.6666666666666</ele><time>2026-05-03T09:40:44Z</time></trkpt><trkpt lat="44.55994892100433" lon="10.037547075762038"><ele>819.3333333333333</ele><time>2026-05-03T09:40:45Z</time></trkpt><trkpt lat="44.560037240162856" lon="10.037727777047637"><ele>822.0</ele><time>2026-05-03T09:40:46Z</time></trkpt><trkpt lat="44.56013202581634" lon="10.037876606721513"><ele>822.0</ele><time>2026-05-03T09:40:47Z</time></trkpt><trkpt lat="44.56022315346875" lon="10.037963002540987"><ele>822.0</ele><time>2026-05-03T09:40:48Z</time></trkpt><trkpt lat="44.56042171426251" lon="10.038138544775647"><ele>822.0</ele><time>2026-05-03T09:40:49Z</time></trkpt><trkpt lat="44.56058488510543" lon="10.038242146105002"><ele>821.6666666666667</ele><time>2026-05-03T09:40:50Z</time></trkpt><trkpt lat="44.56070480371106" lon="10.038415959133705"><ele>821.3333333333334</ele><time>2026-05-03T09:40:51Z</time></trkpt><trkpt lat="44.5608085507448" lon="10.038624676151136"><ele>821.0</ele><time>2026-05-03T09:40:52Z</time></trkpt><trkpt lat="44.56091668371863" lon="10.03882262270263"><ele>821.0</ele><time>2026-05-03T09:40:53Z</time></trkpt><trkpt lat="44.56100621604398" lon="10.039042874491757"><ele>821.0</ele><time>2026-05-03T09:40:54Z</time></trkpt><trkpt lat="44.561103755021605" lon="10.039249000664473"><ele>821.0</ele><time>2026-05-03T09:40:55Z</time></trkpt><trkpt lat="44.561210050925744" lon="10.03943785118945"><ele>817.75</ele><time>2026-05-03T09:40:56Z</time></trkpt><trkpt lat="44.5612798022557" lon="10.039619958068887"><ele>814.5</ele><time>2026-05-03T09:40:57Z</time></trkpt><trkpt lat="44.561305621268986" lon="10.0397946694752"><ele>811.25</ele><time>2026-05-03T09:40:58Z</time></trkpt><trkpt lat="44.561268883948316" lon="10.039963356227599"><ele>808.0</ele><time>2026-05-03T09:40:59Z</time></trkpt><trkpt lat="44.56120470039783" lon="10.040142833028138"><ele>815.6666666666666</ele><time>2026-05-03T09:41:00Z</time></trkpt><trkpt lat="44.561149937764924" lon="10.040352737185737"><ele>823.3333333333333</ele><time>2026-05-03T09:41:01Z</time></trkpt><trkpt lat="44.56111412903309" lon="10.040566733343026"><ele>831.0</ele><time>2026-05-03T09:41:02Z</time></trkpt><trkpt lat="44.561029417143054" lon="10.040750305810553"><ele>829.6666666666667</ele><time>2026-05-03T09:41:03Z</time></trkpt><trkpt lat="44.56118083934593" lon="10.040979291174457"><ele>828.3333333333334</ele><time>2026-05-03T09:41:04Z</time></trkpt><trkpt lat="44.56127385318346" lon="10.04116996730233"><ele>827.0</ele><time>2026-05-03T09:41:05Z</time></trkpt><trkpt lat="44.561378661227636" lon="10.041351686763221"><ele>823.0</ele><time>2026-05-03T09:41:06Z</time></trkpt><trkpt lat="44.56148824354697" lon="10.04151094992794"><ele>819.0</ele><time>2026-05-03T09:41:07Z</time></trkpt><trkpt lat="44.56161381499656" lon="10.041631565510587"><ele>815.0</ele><time>2026-05-03T09:41:08Z</time></trkpt><trkpt lat="44.56174653786035" lon="10.041709614946084"><ele>815.0</ele><time>2026-05-03T09:41:09Z</time></trkpt><trkpt lat="44.56186182182435" lon="10.041763285235547"><ele>815.0</ele><time>2026-05-03T09:41:10Z</time></trkpt><trkpt lat="44.56193357144372" lon="10.041863301436049"><ele>815.0</ele><time>2026-05-03T09:41:11Z</time></trkpt><trkpt lat="44.56191772049896" lon="10.042031410008038"><ele>815.0</ele><time>2026-05-03T09:41:12Z</time></trkpt><trkpt lat="44.5618709101999" lon="10.042159085438026"><ele>815.0</ele><time>2026-05-03T09:41:13Z</time></trkpt><trkpt lat="44.56183567390789" lon="10.042338476806757"><ele>814.0</ele><time>2026-05-03T09:41:14Z</time></trkpt><trkpt lat="44.56179243242705" lon="10.042549145982052"><ele>813.0</ele><time>2026-05-03T09:41:15Z</time></trkpt><trkpt lat="44.56174073851217" lon="10.042794050529372"><ele>812.0</ele><time>2026-05-03T09:41:16Z</time></trkpt><trkpt lat="44.561687579801074" lon="10.043045894662873"><ele>809.3333333333334</ele><time>2026-05-03T09:41:17Z</time></trkpt><trkpt lat="44.561633946839734" lon="10.043299985664406"><ele>806.6666666666667</ele><time>2026-05-03T09:41:18Z</time></trkpt><trkpt lat="44.56158765444343" lon="10.043558311193694"><ele>804.0</ele><time>2026-05-03T09:41:18.999Z</time></trkpt><trkpt lat="44.56152664898765" lon="10.043805324454022"><ele>804.0</ele><time>2026-05-03T09:41:19.999Z</time></trkpt><trkpt lat="44.561475062192635" lon="10.0440503512372"><ele>804.0</ele><time>2026-05-03T09:41:20.999Z</time></trkpt><trkpt lat="44.561425025638314" lon="10.044290284724388"><ele>804.0</ele><time>2026-05-03T09:41:21.999Z</time></trkpt><trkpt lat="44.56137636103413" lon="10.044528256474145"><ele>802.3333333333333</ele><time>2026-05-03T09:41:22.999Z</time></trkpt><trkpt lat="44.56132035927785" lon="10.044759536112238"><ele>800.6666666666666</ele><time>2026-05-03T09:41:23.999Z</time></trkpt><trkpt lat="44.56128178893979" lon="10.0449865074514"><ele>799.0</ele><time>2026-05-03T09:41:24.999Z</time></trkpt><trkpt lat="44.56125095174027" lon="10.04522540225414"><ele>797.3333333333333</ele><time>2026-05-03T09:41:25.999Z</time></trkpt><trkpt lat="44.56122974026832" lon="10.045473595598445"><ele>795.6666666666667</ele><time>2026-05-03T09:41:26.999Z</time></trkpt><trkpt lat="44.56124518028594" lon="10.04572451052634"><ele>794.0</ele><time>2026-05-03T09:41:27.999Z</time></trkpt><trkpt lat="44.56129848169779" lon="10.0459793188364"><ele>794.3333333333334</ele><time>2026-05-03T09:41:28.999Z</time></trkpt><trkpt lat="44.56137161489478" lon="10.046231583576919"><ele>794.6666666666667</ele><time>2026-05-03T09:41:29.999Z</time></trkpt><trkpt lat="44.56143535669952" lon="10.046477194644872"><ele>795.0</ele><time>2026-05-03T09:41:30.999Z</time></trkpt><trkpt lat="44.56151394415327" lon="10.046713753768048"><ele>795.0</ele><time>2026-05-03T09:41:31.999Z</time></trkpt><trkpt lat="44.56161979829307" lon="10.046928804021995"><ele>795.0</ele><time>2026-05-03T09:41:32.999Z</time></trkpt><trkpt lat="44.56174669382335" lon="10.047112806301945"><ele>795.0</ele><time>2026-05-03T09:41:33.999Z</time></trkpt><trkpt lat="44.56186870952585" lon="10.047277533434565"><ele>797.6666666666667</ele><time>2026-05-03T09:41:34.999Z</time></trkpt><trkpt lat="44.56194542971331" lon="10.047495672854074"><ele>800.3333333333334</ele><time>2026-05-03T09:41:35.999Z</time></trkpt><trkpt lat="44.56200439909614" lon="10.047748469341427"><ele>803.0</ele><time>2026-05-03T09:41:36.999Z</time></trkpt><trkpt lat="44.56207497273557" lon="10.04801246291066"><ele>795.3333333333334</ele><time>2026-05-03T09:41:37.999Z</time></trkpt><trkpt lat="44.56213049554002" lon="10.048268600970644"><ele>787.6666666666667</ele><time>2026-05-03T09:41:38.999Z</time></trkpt><trkpt lat="44.56218289700527" lon="10.048512285524149"><ele>780.0</ele><time>2026-05-03T09:41:39.999Z</time></trkpt><trkpt lat="44.562239687608326" lon="10.048745583985147"><ele>780.0</ele><time>2026-05-03T09:41:40.999Z</time></trkpt><trkpt lat="44.56229387718202" lon="10.04897077614105"><ele>780.0</ele><time>2026-05-03T09:41:41.999Z</time></trkpt><trkpt lat="44.56233360259264" lon="10.049172416445954"><ele>780.0</ele><time>2026-05-03T09:41:42.999Z</time></trkpt><trkpt lat="44.56239442171036" lon="10.049313035718693"><ele>780.0</ele><time>2026-05-03T09:41:43.999Z</time></trkpt><trkpt lat="44.56252608539878" lon="10.04942407599912"><ele>780.6666666666667</ele><time>2026-05-03T09:41:44.999Z</time></trkpt><trkpt lat="44.56269956381473" lon="10.049546407649336"><ele>781.3333333333334</ele><time>2026-05-03T09:41:45.999Z</time></trkpt><trkpt lat="44.56288184263066" lon="10.049672672806107"><ele>782.0</ele><time>2026-05-03T09:41:46.999Z</time></trkpt><trkpt lat="44.56303846661871" lon="10.049789630738072"><ele>781.3333333333334</ele><time>2026-05-03T09:41:47.999Z</time></trkpt><trkpt lat="44.563185746001636" lon="10.049908700636434"><ele>780.6666666666667</ele><time>2026-05-03T09:41:48.999Z</time></trkpt><trkpt lat="44.563339469929566" lon="10.050030635366845"><ele>780.0</ele><time>2026-05-03T09:41:49.999Z</time></trkpt><trkpt lat="44.563500401726806" lon="10.050155174870204"><ele>780.0</ele><time>2026-05-03T09:41:50.999Z</time></trkpt><trkpt lat="44.56365234184118" lon="10.050282835199363"><ele>780.0</ele><time>2026-05-03T09:41:51.999Z</time></trkpt><trkpt lat="44.56379495511662" lon="10.050405557414587"><ele>780.0</ele><time>2026-05-03T09:41:52.999Z</time></trkpt><trkpt lat="44.56394412900903" lon="10.050505650820469"><ele>777.0</ele><time>2026-05-03T09:41:53.999Z</time></trkpt><trkpt lat="44.564115159474724" lon="10.050564438293751"><ele>774.0</ele><time>2026-05-03T09:41:54.999Z</time></trkpt><trkpt lat="44.564302930921215" lon="10.05054119617496"><ele>771.0</ele><time>2026-05-03T09:41:55.999Z</time></trkpt><trkpt lat="44.56450047608286" lon="10.050429912600194"><ele>770.6666666666667</ele><time>2026-05-03T09:41:56.999Z</time></trkpt><trkpt lat="44.56468216650287" lon="10.050229805020276"><ele>770.3333333333334</ele><time>2026-05-03T09:41:57.999Z</time></trkpt><trkpt lat="44.56481876953364" lon="10.050037088665741"><ele>770.0</ele><time>2026-05-03T09:41:58.999Z</time></trkpt><trkpt lat="44.56493299248242" lon="10.04991063338859"><ele>770.0</ele><time>2026-05-03T09:41:59.999Z</time></trkpt><trkpt lat="44.56505757600609" lon="10.04988418476365"><ele>770.0</ele><time>2026-05-03T09:42:00.999Z</time></trkpt><trkpt lat="44.56518694615774" lon="10.049916597407924"><ele>770.0</ele><time>2026-05-03T09:42:01.999Z</time></trkpt><trkpt lat="44.56529934865288" lon="10.050026810302034"><ele>770.0</ele><time>2026-05-03T09:42:02.999Z</time></trkpt><trkpt lat="44.5653964432108" lon="10.050193996225465"><ele>767.25</ele><time>2026-05-03T09:42:03.999Z</time></trkpt><trkpt lat="44.5654299786926" lon="10.050377970446302"><ele>764.5</ele><time>2026-05-03T09:42:05Z</time></trkpt><trkpt lat="44.565424592300516" lon="10.050574124780754"><ele>761.75</ele><time>2026-05-03T09:42:06Z</time></trkpt><trkpt lat="44.56541108745004" lon="10.050805483735662"><ele>759.0</ele><time>2026-05-03T09:42:07Z</time></trkpt><trkpt lat="44.56541260143216" lon="10.05101494360701"><ele>759.0</ele><time>2026-05-03T09:42:08Z</time></trkpt><trkpt lat="44.565447030431805" lon="10.051194109544019"><ele>759.0</ele><time>2026-05-03T09:42:09Z</time></trkpt><trkpt lat="44.56549607698391" lon="10.051357266122535"><ele>759.0</ele><time>2026-05-03T09:42:10Z</time></trkpt><trkpt lat="44.565595734384885" lon="10.051497466539924"><ele>759.0</ele><time>2026-05-03T09:42:11Z</time></trkpt><trkpt lat="44.56574046900626" lon="10.051572834806489"><ele>759.0</ele><time>2026-05-03T09:42:12Z</time></trkpt><trkpt lat="44.56590434968492" lon="10.051562042283582"><ele>759.0</ele><time>2026-05-03T09:42:13Z</time></trkpt><trkpt lat="44.56606859777124" lon="10.051460236583017"><ele>759.0</ele><time>2026-05-03T09:42:14Z</time></trkpt><trkpt lat="44.56623047887841" lon="10.051289511202489"><ele>759.0</ele><time>2026-05-03T09:42:15Z</time></trkpt><trkpt lat="44.56638961373332" lon="10.05112251083851"><ele>759.0</ele><time>2026-05-03T09:42:16Z</time></trkpt><trkpt lat="44.566519825878146" lon="10.050979913141916"><ele>759.0</ele><time>2026-05-03T09:42:17Z</time></trkpt><trkpt lat="44.56666253113781" lon="10.050875841341414"><ele>759.0</ele><time>2026-05-03T09:42:18Z</time></trkpt><trkpt lat="44.56684022951825" lon="10.05084126052307"><ele>759.0</ele><time>2026-05-03T09:42:19Z</time></trkpt><trkpt lat="44.56701032831633" lon="10.050823485536009"><ele>759.0</ele><time>2026-05-03T09:42:20Z</time></trkpt><trkpt lat="44.56716118366255" lon="10.050863637880996"><ele>757.0</ele><time>2026-05-03T09:42:21Z</time></trkpt><trkpt lat="44.56729172164725" lon="10.050979561677163"><ele>755.0</ele><time>2026-05-03T09:42:22Z</time></trkpt><trkpt lat="44.56738715027953" lon="10.05116391527405"><ele>753.0</ele><time>2026-05-03T09:42:23Z</time></trkpt><trkpt lat="44.56742730297412" lon="10.051421085001541"><ele>752.3333333333334</ele><time>2026-05-03T09:42:24Z</time></trkpt><trkpt lat="44.567397163113384" lon="10.05165114314072"><ele>751.6666666666667</ele><time>2026-05-03T09:42:25Z</time></trkpt><trkpt lat="44.56734047885421" lon="10.051862849703623"><ele>751.0</ele><time>2026-05-03T09:42:26Z</time></trkpt><trkpt lat="44.56721552401586" lon="10.052038648682386"><ele>751.0</ele><time>2026-05-03T09:42:27Z</time></trkpt><trkpt lat="44.567088935406474" lon="10.052228943359031"><ele>751.0</ele><time>2026-05-03T09:42:28Z</time></trkpt><trkpt lat="44.566979529733295" lon="10.052433653234361"><ele>751.0</ele><time>2026-05-03T09:42:29Z</time></trkpt><trkpt lat="44.56688671105685" lon="10.052628838921729"><ele>750.0</ele><time>2026-05-03T09:42:30Z</time></trkpt><trkpt lat="44.56679645494071" lon="10.052811298279325"><ele>749.0</ele><time>2026-05-03T09:42:31Z</time></trkpt><trkpt lat="44.56672766513575" lon="10.052989340602775"><ele>748.0</ele><time>2026-05-03T09:42:32Z</time></trkpt><trkpt lat="44.56668922583536" lon="10.053161570529443"><ele>747.0</ele><time>2026-05-03T09:42:33Z</time></trkpt><trkpt lat="44.56668388482093" lon="10.053351707142392"><ele>747.0</ele><time>2026-05-03T09:42:34Z</time></trkpt><trkpt lat="44.566715107860794" lon="10.053554281268603"><ele>747.0</ele><time>2026-05-03T09:42:35Z</time></trkpt><trkpt lat="44.566792735071154" lon="10.053757221608862"><ele>747.0</ele><time>2026-05-03T09:42:36Z</time></trkpt><trkpt lat="44.566905995372586" lon="10.053918810866659"><ele>744.0</ele><time>2026-05-03T09:42:37Z</time></trkpt><trkpt lat="44.56706078694137" lon="10.054038720865071"><ele>741.0</ele><time>2026-05-03T09:42:38Z</time></trkpt><trkpt lat="44.56723641952309" lon="10.054130659292138"><ele>738.0</ele><time>2026-05-03T09:42:39Z</time></trkpt><trkpt lat="44.5674044095682" lon="10.054225808430925"><ele>738.0</ele><time>2026-05-03T09:42:40Z</time></trkpt><trkpt lat="44.5675584819016" lon="10.05432952885046"><ele>738.0</ele><time>2026-05-03T09:42:41Z</time></trkpt><trkpt lat="44.56768718821004" lon="10.054472451168321"><ele>738.0</ele><time>2026-05-03T09:42:42Z</time></trkpt><trkpt lat="44.56781066155578" lon="10.05463671372708"><ele>739.0</ele><time>2026-05-03T09:42:43Z</time></trkpt><trkpt lat="44.567912154714655" lon="10.054849333810566"><ele>740.0</ele><time>2026-05-03T09:42:44Z</time></trkpt><trkpt lat="44.56801214362808" lon="10.055045454210667"><ele>741.0</ele><time>2026-05-03T09:42:45Z</time></trkpt><trkpt lat="44.56811749371077" lon="10.055187908751748"><ele>741.0</ele><time>2026-05-03T09:42:46Z</time></trkpt><trkpt lat="44.568267861554844" lon="10.05529541527489"><ele>741.0</ele><time>2026-05-03T09:42:47Z</time></trkpt><trkpt lat="44.56845545823524" lon="10.055348469261673"><ele>741.0</ele><time>2026-05-03T09:42:48Z</time></trkpt><trkpt lat="44.56865298207252" lon="10.055342569043232"><ele>740.3333333333334</ele><time>2026-05-03T09:42:49Z</time></trkpt><trkpt lat="44.568861338577214" lon="10.055319824818463"><ele>739.6666666666667</ele><time>2026-05-03T09:42:50Z</time></trkpt><trkpt lat="44.569061628594035" lon="10.055292818436927"><ele>739.0</ele><time>2026-05-03T09:42:51Z</time></trkpt><trkpt lat="44.56925174189863" lon="10.05526008407715"><ele>739.0</ele><time>2026-05-03T09:42:52Z</time></trkpt><trkpt lat="44.569432090987156" lon="10.055214922425012"><ele>739.0</ele><time>2026-05-03T09:42:53Z</time></trkpt><trkpt lat="44.569596037862" lon="10.0551752662818"><ele>739.0</ele><time>2026-05-03T09:42:54Z</time></trkpt><trkpt lat="44.56974360025646" lon="10.055230041818966"><ele>735.0</ele><time>2026-05-03T09:42:55Z</time></trkpt><trkpt lat="44.56988572830442" lon="10.055355385964619"><ele>731.0</ele><time>2026-05-03T09:42:56Z</time></trkpt><trkpt lat="44.57004286626226" lon="10.055522211951075"><ele>727.0</ele><time>2026-05-03T09:42:57Z</time></trkpt><trkpt lat="44.57021005908661" lon="10.055647997615626"><ele>721.3333333333334</ele><time>2026-05-03T09:42:58Z</time></trkpt><trkpt lat="44.57039722751527" lon="10.055741066915076"><ele>715.6666666666666</ele><time>2026-05-03T09:42:59Z</time></trkpt><trkpt lat="44.570591898281286" lon="10.055782106245136"><ele>710.0</ele><time>2026-05-03T09:43:00Z</time></trkpt><trkpt lat="44.57079238839251" lon="10.055796476317791"><ele>710.0</ele><time>2026-05-03T09:43:01Z</time></trkpt><trkpt lat="44.5709918376982" lon="10.05577028837295"><ele>710.0</ele><time>2026-05-03T09:43:02Z</time></trkpt><trkpt lat="44.57119055577669" lon="10.05574379462732"><ele>710.0</ele><time>2026-05-03T09:43:03Z</time></trkpt><trkpt lat="44.57139011585406" lon="10.055683703105792"><ele>709.6666666666666</ele><time>2026-05-03T09:43:04Z</time></trkpt><trkpt lat="44.57158556003272" lon="10.055659760372686"><ele>709.3333333333334</ele><time>2026-05-03T09:43:05Z</time></trkpt><trkpt lat="44.57178152295236" lon="10.055646081884888"><ele>709.0</ele><time>2026-05-03T09:43:06Z</time></trkpt><trkpt lat="44.571980511827384" lon="10.055621055321826"><ele>710.6666666666667</ele><time>2026-05-03T09:43:07Z</time></trkpt><trkpt lat="44.57217508188195" lon="10.055559787835099"><ele>712.3333333333334</ele><time>2026-05-03T09:43:08Z</time></trkpt><trkpt lat="44.57235388665311" lon="10.05548637731257"><ele>714.0</ele><time>2026-05-03T09:43:09Z</time></trkpt><trkpt lat="44.57253686554558" lon="10.055421870154925"><ele>714.0</ele><time>2026-05-03T09:43:10Z</time></trkpt><trkpt lat="44.57272716422951" lon="10.055406216077294"><ele>714.0</ele><time>2026-05-03T09:43:11Z</time></trkpt><trkpt lat="44.57292410935934" lon="10.055403892362907"><ele>714.0</ele><time>2026-05-03T09:43:12Z</time></trkpt><trkpt lat="44.57312275598447" lon="10.055389726766524"><ele>716.0</ele><time>2026-05-03T09:43:13Z</time></trkpt><trkpt lat="44.57330426276863" lon="10.055406158869975"><ele>718.0</ele><time>2026-05-03T09:43:14Z</time></trkpt><trkpt lat="44.57346386955199" lon="10.055414749614515"><ele>720.0</ele><time>2026-05-03T09:43:15Z</time></trkpt><trkpt lat="44.57359647242155" lon="10.055444778904779"><ele>722.0</ele><time>2026-05-03T09:43:16Z</time></trkpt><trkpt lat="44.573735869006825" lon="10.055548721789476"><ele>724.0</ele><time>2026-05-03T09:43:17Z</time></trkpt><trkpt lat="44.57382150708933" lon="10.055775822401989"><ele>726.0</ele><time>2026-05-03T09:43:17.999Z</time></trkpt><trkpt lat="44.57391017985777" lon="10.055992492580321"><ele>726.0</ele><time>2026-05-03T09:43:18.999Z</time></trkpt><trkpt lat="44.57395213627841" lon="10.05621562028397"><ele>726.0</ele><time>2026-05-03T09:43:19.999Z</time></trkpt><trkpt lat="44.57400512019392" lon="10.05643570260414"><ele>726.0</ele><time>2026-05-03T09:43:20.999Z</time></trkpt><trkpt lat="44.57406632168025" lon="10.056640510055239"><ele>729.0</ele><time>2026-05-03T09:43:21.999Z</time></trkpt><trkpt lat="44.574140907890914" lon="10.056835771346838"><ele>732.0</ele><time>2026-05-03T09:43:22.999Z</time></trkpt><trkpt lat="44.57415313367575" lon="10.05704485839617"><ele>735.0</ele><time>2026-05-03T09:43:23.999Z</time></trkpt><trkpt lat="44.57410764357374" lon="10.057235081049313"><ele>734.6666666666666</ele><time>2026-05-03T09:43:24.999Z</time></trkpt><trkpt lat="44.57403313658208" lon="10.057462251725195"><ele>734.3333333333333</ele><time>2026-05-03T09:43:25.999Z</time></trkpt><trkpt lat="44.57394454105035" lon="10.057682489930325"><ele>734.0</ele><time>2026-05-03T09:43:26.999Z</time></trkpt><trkpt lat="44.57388756425716" lon="10.057877186234219"><ele>734.0</ele><time>2026-05-03T09:43:27.999Z</time></trkpt><trkpt lat="44.57388162389741" lon="10.058049024771952"><ele>734.0</ele><time>2026-05-03T09:43:28.999Z</time></trkpt><trkpt lat="44.573932963767064" lon="10.05820337166659"><ele>734.0</ele><time>2026-05-03T09:43:29.999Z</time></trkpt><trkpt lat="44.5740276885828" lon="10.058366371584682"><ele>734.0</ele><time>2026-05-03T09:43:30.999Z</time></trkpt><trkpt lat="44.57412719664214" lon="10.058561191069845"><ele>733.6666666666666</ele><time>2026-05-03T09:43:31.999Z</time></trkpt><trkpt lat="44.57421888784932" lon="10.058773684564294"><ele>733.3333333333334</ele><time>2026-05-03T09:43:32.999Z</time></trkpt><trkpt lat="44.57431868106854" lon="10.05896569510536"><ele>733.0</ele><time>2026-05-03T09:43:33.999Z</time></trkpt><trkpt lat="44.57445381361751" lon="10.059129647212089"><ele>731.3333333333334</ele><time>2026-05-03T09:43:34.999Z</time></trkpt><trkpt lat="44.57461689774035" lon="10.05925763656819"><ele>729.6666666666666</ele><time>2026-05-03T09:43:35.999Z</time></trkpt><trkpt lat="44.574784525500185" lon="10.059373670571876"><ele>728.0</ele><time>2026-05-03T09:43:36.999Z</time></trkpt><trkpt lat="44.57494708044818" lon="10.059499150408586"><ele>728.0</ele><time>2026-05-03T09:43:37.999Z</time></trkpt><trkpt lat="44.575102862644364" lon="10.059615659339471"><ele>728.0</ele><time>2026-05-03T09:43:38.999Z</time></trkpt><trkpt lat="44.57527046865467" lon="10.05970198972486"><ele>728.0</ele><time>2026-05-03T09:43:39.999Z</time></trkpt><trkpt lat="44.5754469588126" lon="10.059707477455788"><ele>721.0</ele><time>2026-05-03T09:43:40.999Z</time></trkpt><trkpt lat="44.57562712572779" lon="10.059667313108527"><ele>714.0</ele><time>2026-05-03T09:43:41.999Z</time></trkpt><trkpt lat="44.5757934394984" lon="10.059672461907972"><ele>707.0</ele><time>2026-05-03T09:43:42.999Z</time></trkpt><trkpt lat="44.57593126016895" lon="10.059714363516136"><ele>707.0</ele><time>2026-05-03T09:43:43.999Z</time></trkpt><trkpt lat="44.57604706793707" lon="10.059810125419208"><ele>707.0</ele><time>2026-05-03T09:43:44.999Z</time></trkpt><trkpt lat="44.576162911546504" lon="10.059979762421108"><ele>707.0</ele><time>2026-05-03T09:43:45.999Z</time></trkpt><trkpt lat="44.576271811393134" lon="10.060193107516428"><ele>711.6666666666666</ele><time>2026-05-03T09:43:46.999Z</time></trkpt><trkpt lat="44.576388822212884" lon="10.060371059683145"><ele>716.3333333333334</ele><time>2026-05-03T09:43:47.999Z</time></trkpt><trkpt lat="44.57651718658299" lon="10.060469576346517"><ele>721.0</ele><time>2026-05-03T09:43:48.999Z</time></trkpt><trkpt lat="44.57666691186007" lon="10.060488668440982"><ele>721.0</ele><time>2026-05-03T09:43:49.999Z</time></trkpt><trkpt lat="44.57683054692809" lon="10.060462400620835"><ele>721.0</ele><time>2026-05-03T09:43:50.999Z</time></trkpt><trkpt lat="44.57700972861909" lon="10.06036881300952"><ele>721.0</ele><time>2026-05-03T09:43:51.999Z</time></trkpt><trkpt lat="44.577228434533694" lon="10.06026178202704"><ele>720.0</ele><time>2026-05-03T09:43:52.999Z</time></trkpt><trkpt lat="44.57736991341526" lon="10.060206438771734"><ele>719.0</ele><time>2026-05-03T09:43:53.999Z</time></trkpt><trkpt lat="44.57751910259266" lon="10.060122926827761"><ele>718.0</ele><time>2026-05-03T09:43:54.999Z</time></trkpt><trkpt lat="44.577664649474535" lon="10.060045038166601"><ele>718.0</ele><time>2026-05-03T09:43:55.999Z</time></trkpt><trkpt lat="44.577773755713125" lon="10.060016474387643"><ele>718.0</ele><time>2026-05-03T09:43:56.999Z</time></trkpt><trkpt lat="44.57787269015271" lon="10.060039563759855"><ele>718.0</ele><time>2026-05-03T09:43:57.999Z</time></trkpt><trkpt lat="44.57797140625744" lon="10.060142688086803"><ele>718.0</ele><time>2026-05-03T09:43:58.999Z</time></trkpt><trkpt lat="44.57805922731161" lon="10.060318257739445"><ele>720.6666666666667</ele><time>2026-05-03T09:43:59.999Z</time></trkpt><trkpt lat="44.578151174419325" lon="10.060538416997904"><ele>723.3333333333334</ele><time>2026-05-03T09:44:00.999Z</time></trkpt><trkpt lat="44.578258800717435" lon="10.060768808434206"><ele>726.0</ele><time>2026-05-03T09:44:01.999Z</time></trkpt><trkpt lat="44.57837206518501" lon="10.060984600224948"><ele>726.0</ele><time>2026-05-03T09:44:02.999Z</time></trkpt><trkpt lat="44.578480416412106" lon="10.06120495215218"><ele>726.0</ele><time>2026-05-03T09:44:03.999Z</time></trkpt><trkpt lat="44.57855114724197" lon="10.061453084183334"><ele>726.0</ele><time>2026-05-03T09:44:04.999Z</time></trkpt><trkpt lat="44.57861654030658" lon="10.061710221180237"><ele>730.3333333333334</ele><time>2026-05-03T09:44:05.999Z</time></trkpt><trkpt lat="44.5786517069572" lon="10.061974601035784"><ele>734.6666666666667</ele><time>2026-05-03T09:44:06.999Z</time></trkpt><trkpt lat="44.57867594521556" lon="10.06222400648976"><ele>739.0</ele><time>2026-05-03T09:44:07.999Z</time></trkpt><trkpt lat="44.578662605179204" lon="10.06245154445579"><ele>742.6666666666667</ele><time>2026-05-03T09:44:08.999Z</time></trkpt><trkpt lat="44.578664827880836" lon="10.062677055064743"><ele>746.3333333333334</ele><time>2026-05-03T09:44:09.999Z</time></trkpt><trkpt lat="44.57873078136514" lon="10.062920788977157"><ele>750.0</ele><time>2026-05-03T09:44:11Z</time></trkpt><trkpt lat="44.57883355266194" lon="10.063051896194434"><ele>740.0</ele><time>2026-05-03T09:44:12Z</time></trkpt><trkpt lat="44.57897964434318" lon="10.063219953445588"><ele>730.0</ele><time>2026-05-03T09:44:13Z</time></trkpt><trkpt lat="44.57913558234368" lon="10.063370559555683"><ele>720.0</ele><time>2026-05-03T09:44:14Z</time></trkpt><trkpt lat="44.57925369878704" lon="10.063510364515942"><ele>720.0</ele><time>2026-05-03T09:44:15Z</time></trkpt><trkpt lat="44.57933980765202" lon="10.063636369893947"><ele>720.0</ele><time>2026-05-03T09:44:16Z</time></trkpt><trkpt lat="44.57935387493774" lon="10.063791215377819"><ele>720.0</ele><time>2026-05-03T09:44:17Z</time></trkpt><trkpt lat="44.57934968772779" lon="10.064013431496075"><ele>720.0</ele><time>2026-05-03T09:44:18Z</time></trkpt><trkpt lat="44.579380928774235" lon="10.064259917113723"><ele>725.0</ele><time>2026-05-03T09:44:19Z</time></trkpt><trkpt lat="44.57944307468454" lon="10.0644816183968"><ele>730.0</ele><time>2026-05-03T09:44:20Z</time></trkpt><trkpt lat="44.57954218754905" lon="10.06464590056891"><ele>735.0</ele><time>2026-05-03T09:44:21Z</time></trkpt><trkpt lat="44.579609105459525" lon="10.064783592770015"><ele>740.0</ele><time>2026-05-03T09:44:22Z</time></trkpt><trkpt lat="44.5795935843341" lon="10.064928238245997"><ele>740.3333333333333</ele><time>2026-05-03T09:44:23Z</time></trkpt><trkpt lat="44.579539302315666" lon="10.065069779357612"><ele>740.6666666666666</ele><time>2026-05-03T09:44:24Z</time></trkpt><trkpt lat="44.579464863854476" lon="10.065270192498115"><ele>741.0</ele><time>2026-05-03T09:44:25Z</time></trkpt><trkpt lat="44.57936932649907" lon="10.065493780336135"><ele>741.0</ele><time>2026-05-03T09:44:26Z</time></trkpt><trkpt lat="44.57927147481954" lon="10.065736919378468"><ele>741.0</ele><time>2026-05-03T09:44:27Z</time></trkpt><trkpt lat="44.579147555106545" lon="10.065951521073094"><ele>741.0</ele><time>2026-05-03T09:44:28Z</time></trkpt><trkpt lat="44.57903939790429" lon="10.06618115224797"><ele>735.0</ele><time>2026-05-03T09:44:29Z</time></trkpt><trkpt lat="44.57893851728066" lon="10.066376308629858"><ele>729.0</ele><time>2026-05-03T09:44:30Z</time></trkpt><trkpt lat="44.57887460547398" lon="10.066577608943113"><ele>723.0</ele><time>2026-05-03T09:44:31Z</time></trkpt><trkpt lat="44.578815221056395" lon="10.066769979331985"><ele>723.0</ele><time>2026-05-03T09:44:32Z</time></trkpt><trkpt lat="44.57875433423651" lon="10.066902775735784"><ele>723.0</ele><time>2026-05-03T09:44:33Z</time></trkpt><trkpt lat="44.57866877871811" lon="10.066984275246053"><ele>723.0</ele><time>2026-05-03T09:44:34Z</time></trkpt><trkpt lat="44.57855184124443" lon="10.066962675831864"><ele>723.0</ele><time>2026-05-03T09:44:35Z</time></trkpt><trkpt lat="44.57841567643538" lon="10.066891032753343"><ele>723.0</ele><time>2026-05-03T09:44:36Z</time></trkpt><trkpt lat="44.578257227479355" lon="10.066848334918703"><ele>723.0</ele><time>2026-05-03T09:44:37Z</time></trkpt><trkpt lat="44.57807216142798" lon="10.06685918035925"><ele>723.0</ele><time>2026-05-03T09:44:38Z</time></trkpt><trkpt lat="44.57789218516671" lon="10.066904929868633"><ele>723.0</ele><time>2026-05-03T09:44:39Z</time></trkpt><trkpt lat="44.57774623035899" lon="10.066965980531034"><ele>723.0</ele><time>2026-05-03T09:44:40Z</time></trkpt><trkpt lat="44.577633383987866" lon="10.067072495624325"><ele>723.0</ele><time>2026-05-03T09:44:41Z</time></trkpt><trkpt lat="44.57755788928356" lon="10.067266995669058"><ele>723.0</ele><time>2026-05-03T09:44:42Z</time></trkpt><trkpt lat="44.577504008670225" lon="10.067524446868333"><ele>719.6666666666666</ele><time>2026-05-03T09:44:43Z</time></trkpt><trkpt lat="44.577444273493704" lon="10.067798989195698"><ele>716.3333333333333</ele><time>2026-05-03T09:44:44Z</time></trkpt><trkpt lat="44.577373542904226" lon="10.068037430367745"><ele>713.0</ele><time>2026-05-03T09:44:45Z</time></trkpt><trkpt lat="44.57733258172662" lon="10.068184675525297"><ele>710.0</ele><time>2026-05-03T09:44:46Z</time></trkpt><trkpt lat="44.57727506776756" lon="10.068537937175964"><ele>707.0</ele><time>2026-05-03T09:44:47Z</time></trkpt><trkpt lat="44.57724573774358" lon="10.068750350905097"><ele>704.0</ele><time>2026-05-03T09:44:48Z</time></trkpt><trkpt lat="44.57714967048425" lon="10.068961348847935"><ele>698.3333333333333</ele><time>2026-05-03T09:44:49Z</time></trkpt><trkpt lat="44.57704032356071" lon="10.069208004595723"><ele>692.6666666666666</ele><time>2026-05-03T09:44:50Z</time></trkpt><trkpt lat="44.57693352133748" lon="10.069466571002481"><ele>687.0</ele><time>2026-05-03T09:44:51Z</time></trkpt><trkpt lat="44.57683562095078" lon="10.069695902505844"><ele>692.6666666666666</ele><time>2026-05-03T09:44:52Z</time></trkpt><trkpt lat="44.57672443576153" lon="10.069884911779175"><ele>698.3333333333333</ele><time>2026-05-03T09:44:53Z</time></trkpt><trkpt lat="44.576600214246824" lon="10.070031776219855"><ele>704.0</ele><time>2026-05-03T09:44:54Z</time></trkpt><trkpt lat="44.57646842595912" lon="10.070128891345858"><ele>704.0</ele><time>2026-05-03T09:44:55Z</time></trkpt><trkpt lat="44.57636021070092" lon="10.070101811883314"><ele>704.0</ele><time>2026-05-03T09:44:56Z</time></trkpt><trkpt lat="44.5762110096788" lon="10.070053875469638"><ele>704.0</ele><time>2026-05-03T09:44:57Z</time></trkpt><trkpt lat="44.57603433703322" lon="10.070031100304464"><ele>704.0</ele><time>2026-05-03T09:44:58Z</time></trkpt><trkpt lat="44.57586366396432" lon="10.07009191447253"><ele>707.0</ele><time>2026-05-03T09:44:59Z</time></trkpt><trkpt lat="44.57569193136004" lon="10.070226650486633"><ele>710.0</ele><time>2026-05-03T09:45:00Z</time></trkpt><trkpt lat="44.5755051563876" lon="10.070394491338067"><ele>713.0</ele><time>2026-05-03T09:45:01Z</time></trkpt><trkpt lat="44.575338733551845" lon="10.070529516953705"><ele>710.6666666666666</ele><time>2026-05-03T09:45:02Z</time></trkpt><trkpt lat="44.57518886232678" lon="10.070690572264843"><ele>708.3333333333334</ele><time>2026-05-03T09:45:03Z</time></trkpt><trkpt lat="44.57505387994579" lon="10.070929514538543"><ele>706.0</ele><time>2026-05-03T09:45:04Z</time></trkpt><trkpt lat="44.57491390527408" lon="10.071185948831582"><ele>706.0</ele><time>2026-05-03T09:45:05Z</time></trkpt><trkpt lat="44.574778310548" lon="10.071421289186222"><ele>706.0</ele><time>2026-05-03T09:45:06Z</time></trkpt><trkpt lat="44.57464992357292" lon="10.071635860874272"><ele>706.0</ele><time>2026-05-03T09:45:07Z</time></trkpt><trkpt lat="44.57453599200489" lon="10.07183920709662"><ele>707.6666666666667</ele><time>2026-05-03T09:45:08Z</time></trkpt><trkpt lat="44.5744480755634" lon="10.072071667512239"><ele>709.3333333333334</ele><time>2026-05-03T09:45:09Z</time></trkpt><trkpt lat="44.57440454222216" lon="10.07235003172596"><ele>711.0</ele><time>2026-05-03T09:45:10Z</time></trkpt><trkpt lat="44.57434468529303" lon="10.072599342892062"><ele>711.0</ele><time>2026-05-03T09:45:11Z</time></trkpt><trkpt lat="44.57428472072017" lon="10.072824449064118"><ele>711.0</ele><time>2026-05-03T09:45:12Z</time></trkpt><trkpt lat="44.574224169370936" lon="10.073032632474279"><ele>711.0</ele><time>2026-05-03T09:45:13Z</time></trkpt><trkpt lat="44.574138822417254" lon="10.073213683121281"><ele>705.6666666666666</ele><time>2026-05-03T09:45:14Z</time></trkpt><trkpt lat="44.574026216740364" lon="10.073357179632575"><ele>700.3333333333333</ele><time>2026-05-03T09:45:15Z</time></trkpt><trkpt lat="44.57386300664597" lon="10.073529290207492"><ele>695.0</ele><time>2026-05-03T09:45:16Z</time></trkpt><trkpt lat="44.57371531025482" lon="10.07369827662131"><ele>693.6666666666666</ele><time>2026-05-03T09:45:17Z</time></trkpt><trkpt lat="44.5735725900032" lon="10.073845470489292"><ele>692.3333333333334</ele><time>2026-05-03T09:45:18Z</time></trkpt><trkpt lat="44.573459784672494" lon="10.074030324912314"><ele>691.0</ele><time>2026-05-03T09:45:19Z</time></trkpt><trkpt lat="44.57339317270061" lon="10.074243917838508"><ele>691.0</ele><time>2026-05-03T09:45:19.999Z</time></trkpt><trkpt lat="44.573364361111715" lon="10.07448209733266"><ele>691.0</ele><time>2026-05-03T09:45:20.999Z</time></trkpt><trkpt lat="44.57335728135347" lon="10.074691547233032"><ele>691.0</ele><time>2026-05-03T09:45:21.999Z</time></trkpt><trkpt lat="44.57341429428915" lon="10.07484569084202"><ele>691.0</ele><time>2026-05-03T09:45:22.999Z</time></trkpt><trkpt lat="44.57352360630115" lon="10.074961159393325"><ele>691.0</ele><time>2026-05-03T09:45:23.999Z</time></trkpt><trkpt lat="44.57368770909078" lon="10.075043179657378"><ele>691.0</ele><time>2026-05-03T09:45:24.999Z</time></trkpt><trkpt lat="44.57386786705261" lon="10.075084029687536"><ele>691.0</ele><time>2026-05-03T09:45:25.999Z</time></trkpt><trkpt lat="44.57404091826333" lon="10.075037766989063"><ele>690.0</ele><time>2026-05-03T09:45:26.999Z</time></trkpt><trkpt lat="44.57421147375786" lon="10.074981052438527"><ele>689.0</ele><time>2026-05-03T09:45:27.999Z</time></trkpt><trkpt lat="44.57437185206129" lon="10.07496075238111"><ele>688.0</ele><time>2026-05-03T09:45:28.999Z</time></trkpt><trkpt lat="44.57452027558163" lon="10.075023543848298"><ele>687.0</ele><time>2026-05-03T09:45:29.999Z</time></trkpt><trkpt lat="44.57467157908836" lon="10.075113253703726"><ele>686.0</ele><time>2026-05-03T09:45:30.999Z</time></trkpt><trkpt lat="44.57483011371509" lon="10.075199682705847"><ele>685.0</ele><time>2026-05-03T09:45:31.999Z</time></trkpt><trkpt lat="44.574974149433764" lon="10.075298851101277"><ele>685.0</ele><time>2026-05-03T09:45:32.999Z</time></trkpt><trkpt lat="44.57511338399709" lon="10.075373868680382"><ele>685.0</ele><time>2026-05-03T09:45:33.999Z</time></trkpt><trkpt lat="44.57525453596935" lon="10.075432548332648"><ele>685.0</ele><time>2026-05-03T09:45:34.999Z</time></trkpt><trkpt lat="44.57540115689005" lon="10.075449390421126"><ele>685.0</ele><time>2026-05-03T09:45:35.999Z</time></trkpt><trkpt lat="44.575559843613014" lon="10.075431656077335"><ele>683.3333333333334</ele><time>2026-05-03T09:45:36.999Z</time></trkpt><trkpt lat="44.57571882489764" lon="10.075413266635172"><ele>681.6666666666666</ele><time>2026-05-03T09:45:37.999Z</time></trkpt><trkpt lat="44.57587200991666" lon="10.07539778061625"><ele>680.0</ele><time>2026-05-03T09:45:38.999Z</time></trkpt><trkpt lat="44.5760296863348" lon="10.075386643096573"><ele>680.0</ele><time>2026-05-03T09:45:39.999Z</time></trkpt><trkpt lat="44.57618338135458" lon="10.075431035345728"><ele>680.0</ele><time>2026-05-03T09:45:40.999Z</time></trkpt><trkpt lat="44.576333547908305" lon="10.075508170727227"><ele>680.0</ele><time>2026-05-03T09:45:41.999Z</time></trkpt><trkpt lat="44.576468378105325" lon="10.075611409438757"><ele>679.75</ele><time>2026-05-03T09:45:42.999Z</time></trkpt><trkpt lat="44.576597700640335" lon="10.075708121746713"><ele>679.5</ele><time>2026-05-03T09:45:43.999Z</time></trkpt><trkpt lat="44.57669338577522" lon="10.075860565631363"><ele>679.25</ele><time>2026-05-03T09:45:44.999Z</time></trkpt><trkpt lat="44.576778529735236" lon="10.076003832007345"><ele>679.0</ele><time>2026-05-03T09:45:45.999Z</time></trkpt><trkpt lat="44.57683650718326" lon="10.07615710962381"><ele>679.75</ele><time>2026-05-03T09:45:46.999Z</time></trkpt><trkpt lat="44.576892983459636" lon="10.07629033442622"><ele>680.5</ele><time>2026-05-03T09:45:47.999Z</time></trkpt><trkpt lat="44.576936430842366" lon="10.076452308377181"><ele>681.25</ele><time>2026-05-03T09:45:48.999Z</time></trkpt><trkpt lat="44.57698741614309" lon="10.076598985273389"><ele>682.0</ele><time>2026-05-03T09:45:49.999Z</time></trkpt><trkpt lat="44.577035146109885" lon="10.076736693490167"><ele>680.2</ele><time>2026-05-03T09:45:50.999Z</time></trkpt><trkpt lat="44.577085370538555" lon="10.076877596706813"><ele>678.4000000000001</ele><time>2026-05-03T09:45:51.999Z</time></trkpt><trkpt lat="44.577131352879874" lon="10.077009001073272"><ele>676.5999999999999</ele><time>2026-05-03T09:45:52.999Z</time></trkpt><trkpt lat="44.57717310336957" lon="10.077156325726936"><ele>674.8</ele><time>2026-05-03T09:45:53.999Z</time></trkpt><trkpt lat="44.57721002897395" lon="10.077291325064653"><ele>673.0</ele><time>2026-05-03T09:45:54.999Z</time></trkpt><trkpt lat="44.57724605619482" lon="10.07742924272838"><ele>674.0</ele><time>2026-05-03T09:45:55.999Z</time></trkpt><trkpt lat="44.57728483339643" lon="10.07756737562634"><ele>675.0</ele><time>2026-05-03T09:45:56.999Z</time></trkpt><trkpt lat="44.577332996508886" lon="10.077704921320821"><ele>676.0</ele><time>2026-05-03T09:45:57.999Z</time></trkpt><trkpt lat="44.57737886643189" lon="10.07785559925503"><ele>677.0</ele><time>2026-05-03T09:45:58.999Z</time></trkpt><trkpt lat="44.57742986931164" lon="10.078002966709738"><ele>678.0</ele><time>2026-05-03T09:45:59.999Z</time></trkpt><trkpt lat="44.57747803863364" lon="10.078155774171444"><ele>679.0</ele><time>2026-05-03T09:46:00.999Z</time></trkpt><trkpt lat="44.577523111529395" lon="10.078304497110585"><ele>680.0</ele><time>2026-05-03T09:46:01.999Z</time></trkpt><trkpt lat="44.577568237197006" lon="10.078449628084998"><ele>681.0</ele><time>2026-05-03T09:46:02.999Z</time></trkpt><trkpt lat="44.57761134543008" lon="10.078587949912095"><ele>682.0</ele><time>2026-05-03T09:46:03.999Z</time></trkpt><trkpt lat="44.57766388692239" lon="10.078718136645158"><ele>683.0</ele><time>2026-05-03T09:46:04.999Z</time></trkpt><trkpt lat="44.57773633202599" lon="10.078829985016098"><ele>683.0</ele><time>2026-05-03T09:46:05.999Z</time></trkpt><trkpt lat="44.57783659738814" lon="10.078896716347092"><ele>683.0</ele><time>2026-05-03T09:46:06.999Z</time></trkpt><trkpt lat="44.57795523869113" lon="10.078914972654283"><ele>683.0</ele><time>2026-05-03T09:46:07.999Z</time></trkpt><trkpt lat="44.57806972370569" lon="10.078873449725487"><ele>683.0</ele><time>2026-05-03T09:46:08.999Z</time></trkpt><trkpt lat="44.57817140654072" lon="10.078761307292684"><ele>680.75</ele><time>2026-05-03T09:46:09.999Z</time></trkpt><trkpt lat="44.57826908634451" lon="10.078624768892725"><ele>678.5</ele><time>2026-05-03T09:46:10.999Z</time></trkpt><trkpt lat="44.57839000586476" lon="10.078496492265684"><ele>676.25</ele><time>2026-05-03T09:46:11.999Z</time></trkpt><trkpt lat="44.57851344769036" lon="10.078376033105684"><ele>674.0</ele><time>2026-05-03T09:46:12.999Z</time></trkpt><trkpt lat="44.57863005931953" lon="10.07824271053367"><ele>672.75</ele><time>2026-05-03T09:46:13.999Z</time></trkpt><trkpt lat="44.578749795873264" lon="10.07811373560323"><ele>671.5</ele><time>2026-05-03T09:46:14.999Z</time></trkpt><trkpt lat="44.578865917094795" lon="10.077989827636625"><ele>670.25</ele><time>2026-05-03T09:46:15.999Z</time></trkpt><trkpt lat="44.578971314405756" lon="10.077864381919298"><ele>669.0</ele><time>2026-05-03T09:46:17Z</time></trkpt><trkpt lat="44.579080358870584" lon="10.077750854539858"><ele>669.0</ele><time>2026-05-03T09:46:18Z</time></trkpt><trkpt lat="44.57919594592135" lon="10.077692362811055"><ele>669.0</ele><time>2026-05-03T09:46:19Z</time></trkpt><trkpt lat="44.57932870057813" lon="10.077727801112585"><ele>669.0</ele><time>2026-05-03T09:46:20Z</time></trkpt><trkpt lat="44.57946424924316" lon="10.077850535458053"><ele>669.0</ele><time>2026-05-03T09:46:21Z</time></trkpt><trkpt lat="44.57958681127324" lon="10.077951773195485"><ele>666.0</ele><time>2026-05-03T09:46:22Z</time></trkpt><trkpt lat="44.57970808281928" lon="10.078017872959867"><ele>663.0</ele><time>2026-05-03T09:46:23Z</time></trkpt><trkpt lat="44.57982420378022" lon="10.078076642765613"><ele>660.0</ele><time>2026-05-03T09:46:24Z</time></trkpt><trkpt lat="44.579926963307734" lon="10.078132525835693"><ele>657.0</ele><time>2026-05-03T09:46:25Z</time></trkpt><trkpt lat="44.58003244191673" lon="10.078196846500585"><ele>657.0</ele><time>2026-05-03T09:46:26Z</time></trkpt><trkpt lat="44.58014792924632" lon="10.078221643209128"><ele>657.0</ele><time>2026-05-03T09:46:27Z</time></trkpt><trkpt lat="44.5802773265132" lon="10.078184154480264"><ele>657.0</ele><time>2026-05-03T09:46:28Z</time></trkpt><trkpt lat="44.580410217674476" lon="10.078110310332663"><ele>657.0</ele><time>2026-05-03T09:46:29Z</time></trkpt><trkpt lat="44.58053710553418" lon="10.078078588264452"><ele>658.0</ele><time>2026-05-03T09:46:30Z</time></trkpt><trkpt lat="44.58064204382913" lon="10.078074142674296"><ele>659.0</ele><time>2026-05-03T09:46:31Z</time></trkpt><trkpt lat="44.580743818005686" lon="10.078132292890954"><ele>660.0</ele><time>2026-05-03T09:46:32Z</time></trkpt><trkpt lat="44.58081429121411" lon="10.078266933926933"><ele>661.0</ele><time>2026-05-03T09:46:33Z</time></trkpt><trkpt lat="44.580838986430585" lon="10.078437989758637"><ele>661.0</ele><time>2026-05-03T09:46:34Z</time></trkpt><trkpt lat="44.580828682895444" lon="10.07864566228357"><ele>661.0</ele><time>2026-05-03T09:46:35Z</time></trkpt><trkpt lat="44.580839231777155" lon="10.07883884327416"><ele>661.0</ele><time>2026-05-03T09:46:36Z</time></trkpt><trkpt lat="44.58088515672701" lon="10.079040703271412"><ele>661.0</ele><time>2026-05-03T09:46:37Z</time></trkpt><trkpt lat="44.580950514290215" lon="10.079225385334182"><ele>661.75</ele><time>2026-05-03T09:46:38Z</time></trkpt><trkpt lat="44.58103829055497" lon="10.079385155016434"><ele>662.5</ele><time>2026-05-03T09:46:39Z</time></trkpt><trkpt lat="44.58114978333064" lon="10.079514210315073"><ele>663.25</ele><time>2026-05-03T09:46:40Z</time></trkpt><trkpt lat="44.581273114581954" lon="10.07962657627713"><ele>664.0</ele><time>2026-05-03T09:46:41Z</time></trkpt><trkpt lat="44.58139906316255" lon="10.079709039788098"><ele>657.6666666666667</ele><time>2026-05-03T09:46:42Z</time></trkpt><trkpt lat="44.58154087795631" lon="10.079691672234596"><ele>651.3333333333334</ele><time>2026-05-03T09:46:43Z</time></trkpt><trkpt lat="44.5816917679573" lon="10.079622260859162"><ele>645.0</ele><time>2026-05-03T09:46:44Z</time></trkpt><trkpt lat="44.58183552213186" lon="10.079550591345235"><ele>645.0</ele><time>2026-05-03T09:46:45Z</time></trkpt><trkpt lat="44.581966711187164" lon="10.079498937447104"><ele>645.0</ele><time>2026-05-03T09:46:46Z</time></trkpt><trkpt lat="44.58209196127637" lon="10.079460628950073"><ele>645.0</ele><time>2026-05-03T09:46:47Z</time></trkpt><trkpt lat="44.582200184302195" lon="10.079462625059016"><ele>645.0</ele><time>2026-05-03T09:46:48Z</time></trkpt><trkpt lat="44.582249287373976" lon="10.079614992280217"><ele>640.6666666666666</ele><time>2026-05-03T09:46:50Z</time></trkpt><trkpt lat="44.58235761249459" lon="10.079879984164357"><ele>636.3333333333333</ele><time>2026-05-03T09:46:51Z</time></trkpt><trkpt lat="44.58230810030793" lon="10.080027722292447"><ele>632.0</ele><time>2026-05-03T09:46:52Z</time></trkpt><trkpt lat="44.582214390448506" lon="10.080162802485892"><ele>631.6666666666666</ele><time>2026-05-03T09:46:53Z</time></trkpt><trkpt lat="44.58210591348395" lon="10.080334644435288"><ele>631.3333333333334</ele><time>2026-05-03T09:46:54Z</time></trkpt><trkpt lat="44.58204550937241" lon="10.080552450768108"><ele>631.0</ele><time>2026-05-03T09:46:55Z</time></trkpt><trkpt lat="44.58198822023589" lon="10.080786106614532"><ele>642.0</ele><time>2026-05-03T09:46:56Z</time></trkpt><trkpt lat="44.58194636008214" lon="10.081025906607138"><ele>653.0</ele><time>2026-05-03T09:46:57Z</time></trkpt><trkpt lat="44.58190404275608" lon="10.081261037708035"><ele>664.0</ele><time>2026-05-03T09:46:58Z</time></trkpt><trkpt lat="44.581842292780564" lon="10.081472943381792"><ele>659.3333333333334</ele><time>2026-05-03T09:46:59Z</time></trkpt><trkpt lat="44.58179477848913" lon="10.081688742792421"><ele>654.6666666666666</ele><time>2026-05-03T09:47:00Z</time></trkpt><trkpt lat="44.581734485576085" lon="10.08189165244635"><ele>650.0</ele><time>2026-05-03T09:47:01Z</time></trkpt><trkpt lat="44.58164499333058" lon="10.082080965140639"><ele>650.0</ele><time>2026-05-03T09:47:02Z</time></trkpt><trkpt lat="44.58152808795749" lon="10.082288926730097"><ele>650.0</ele><time>2026-05-03T09:47:03Z</time></trkpt><trkpt lat="44.581403298426174" lon="10.082518793030427"><ele>650.0</ele><time>2026-05-03T09:47:04Z</time></trkpt><trkpt lat="44.58128875903135" lon="10.08275752646382"><ele>650.0</ele><time>2026-05-03T09:47:05Z</time></trkpt><trkpt lat="44.58118739360256" lon="10.083007706857913"><ele>650.0</ele><time>2026-05-03T09:47:06Z</time></trkpt><trkpt lat="44.58108472865262" lon="10.083247669757185"><ele>650.0</ele><time>2026-05-03T09:47:07Z</time></trkpt><trkpt lat="44.580974889179345" lon="10.083482114664207"><ele>650.0</ele><time>2026-05-03T09:47:08Z</time></trkpt><trkpt lat="44.58086039158631" lon="10.083712597956133"><ele>650.0</ele><time>2026-05-03T09:47:09Z</time></trkpt><trkpt lat="44.580742401673554" lon="10.083931524559315"><ele>650.0</ele><time>2026-05-03T09:47:10Z</time></trkpt><trkpt lat="44.58061142415986" lon="10.084157649629393"><ele>658.0</ele><time>2026-05-03T09:47:11Z</time></trkpt><trkpt lat="44.580478899224154" lon="10.084387829440248"><ele>666.0</ele><time>2026-05-03T09:47:12Z</time></trkpt><trkpt lat="44.580345171211206" lon="10.084622048432877"><ele>674.0</ele><time>2026-05-03T09:47:13Z</time></trkpt><trkpt lat="44.58021162110299" lon="10.084855923885845"><ele>662.0</ele><time>2026-05-03T09:47:14Z</time></trkpt><trkpt lat="44.58007688722285" lon="10.085091973406504"><ele>650.0</ele><time>2026-05-03T09:47:15Z</time></trkpt><trkpt lat="44.5799463758323" lon="10.085327620786174"><ele>638.0</ele><time>2026-05-03T09:47:16Z</time></trkpt><trkpt lat="44.57981861757166" lon="10.085560455127677"><ele>645.3333333333333</ele><time>2026-05-03T09:47:17Z</time></trkpt><trkpt lat="44.57969116914648" lon="10.085792412629377"><ele>652.6666666666666</ele><time>2026-05-03T09:47:18Z</time></trkpt><trkpt lat="44.57957424289495" lon="10.086016471959875"><ele>660.0</ele><time>2026-05-03T09:47:19Z</time></trkpt><trkpt lat="44.579473348946465" lon="10.086241321162316"><ele>660.0</ele><time>2026-05-03T09:47:20Z</time></trkpt><trkpt lat="44.5794200656594" lon="10.086473267689568"><ele>660.0</ele><time>2026-05-03T09:47:21Z</time></trkpt><trkpt lat="44.57936798155554" lon="10.086701930313163"><ele>660.0</ele><time>2026-05-03T09:47:22Z</time></trkpt><trkpt lat="44.5793476964285" lon="10.086918884554285"><ele>653.75</ele><time>2026-05-03T09:47:23Z</time></trkpt><trkpt lat="44.57933139228743" lon="10.08710452576335"><ele>647.5</ele><time>2026-05-03T09:47:24Z</time></trkpt><trkpt lat="44.57942865716111" lon="10.087266522234101"><ele>641.25</ele><time>2026-05-03T09:47:25Z</time></trkpt><trkpt lat="44.579526831390844" lon="10.087446460377784"><ele>635.0</ele><time>2026-05-03T09:47:25.999Z</time></trkpt><trkpt lat="44.579658922280544" lon="10.087585525886219"><ele>624.6666666666666</ele><time>2026-05-03T09:47:26.999Z</time></trkpt><trkpt lat="44.5797860176946" lon="10.087719455702068"><ele>614.3333333333334</ele><time>2026-05-03T09:47:27.999Z</time></trkpt><trkpt lat="44.579917069563564" lon="10.087827693426524"><ele>604.0</ele><time>2026-05-03T09:47:28.999Z</time></trkpt><trkpt lat="44.580070341194386" lon="10.087888504679784"><ele>604.0</ele><time>2026-05-03T09:47:29.999Z</time></trkpt><trkpt lat="44.580246641651435" lon="10.087855514509702"><ele>604.0</ele><time>2026-05-03T09:47:30.999Z</time></trkpt><trkpt lat="44.58042126795759" lon="10.087738643234804"><ele>604.0</ele><time>2026-05-03T09:47:31.999Z</time></trkpt><trkpt lat="44.580566581717164" lon="10.087632821694502"><ele>602.0</ele><time>2026-05-03T09:47:32.999Z</time></trkpt><trkpt lat="44.58070088172678" lon="10.08765355668077"><ele>600.0</ele><time>2026-05-03T09:47:33.999Z</time></trkpt><trkpt lat="44.58083595460029" lon="10.087727462476737"><ele>598.0</ele><time>2026-05-03T09:47:34.999Z</time></trkpt><trkpt lat="44.58098229888606" lon="10.087870049445208"><ele>598.0</ele><time>2026-05-03T09:47:35.999Z</time></trkpt><trkpt lat="44.58113873046104" lon="10.088044639156458"><ele>598.0</ele><time>2026-05-03T09:47:36.999Z</time></trkpt><trkpt lat="44.581252878159965" lon="10.088218327897394"><ele>598.0</ele><time>2026-05-03T09:47:37.999Z</time></trkpt><trkpt lat="44.58132230441861" lon="10.088426968711653"><ele>597.0</ele><time>2026-05-03T09:47:38.999Z</time></trkpt><trkpt lat="44.581378983149364" lon="10.088681305676266"><ele>596.0</ele><time>2026-05-03T09:47:39.999Z</time></trkpt><trkpt lat="44.581440893055415" lon="10.088947395273658"><ele>595.0</ele><time>2026-05-03T09:47:40.999Z</time></trkpt><trkpt lat="44.58151720419454" lon="10.089241477446338"><ele>595.0</ele><time>2026-05-03T09:47:41.999Z</time></trkpt><trkpt lat="44.581596773701236" lon="10.089521902924876"><ele>595.0</ele><time>2026-05-03T09:47:42.999Z</time></trkpt><trkpt lat="44.581697039572994" lon="10.089793547436734"><ele>595.0</ele><time>2026-05-03T09:47:43.999Z</time></trkpt><trkpt lat="44.58182258865536" lon="10.090042040532442"><ele>599.6666666666667</ele><time>2026-05-03T09:47:44.999Z</time></trkpt><trkpt lat="44.58193379099182" lon="10.09028844448653"><ele>604.3333333333334</ele><time>2026-05-03T09:47:45.999Z</time></trkpt><trkpt lat="44.58202489015322" lon="10.090536569513269"><ele>609.0</ele><time>2026-05-03T09:47:46.999Z</time></trkpt><trkpt lat="44.58213546816923" lon="10.09075060627152"><ele>603.6666666666666</ele><time>2026-05-03T09:47:47.999Z</time></trkpt><trkpt lat="44.58222822387598" lon="10.09094986151753"><ele>598.3333333333333</ele><time>2026-05-03T09:47:48.999Z</time></trkpt><trkpt lat="44.582337473790545" lon="10.091095279726728"><ele>593.0</ele><time>2026-05-03T09:47:49.999Z</time></trkpt><trkpt lat="44.58248158336509" lon="10.091171294615101"><ele>593.0</ele><time>2026-05-03T09:47:50.999Z</time></trkpt><trkpt lat="44.58264474176861" lon="10.09116437765475"><ele>593.0</ele><time>2026-05-03T09:47:51.999Z</time></trkpt><trkpt lat="44.582818226327916" lon="10.091070688196575"><ele>593.0</ele><time>2026-05-03T09:47:52.999Z</time></trkpt><trkpt lat="44.58300244633859" lon="10.090961305150373"><ele>591.0</ele><time>2026-05-03T09:47:53.999Z</time></trkpt><trkpt lat="44.583160695268596" lon="10.090892449623839"><ele>589.0</ele><time>2026-05-03T09:47:54.999Z</time></trkpt><trkpt lat="44.58331417075001" lon="10.090952590769906"><ele>587.0</ele><time>2026-05-03T09:47:55.999Z</time></trkpt><trkpt lat="44.58348105912249" lon="10.09100612009278"><ele>587.0</ele><time>2026-05-03T09:47:56.999Z</time></trkpt><trkpt lat="44.58364029640002" lon="10.091016332388792"><ele>587.0</ele><time>2026-05-03T09:47:57.999Z</time></trkpt><trkpt lat="44.58378197103114" lon="10.090985791451677"><ele>587.0</ele><time>2026-05-03T09:47:58.999Z</time></trkpt><trkpt lat="44.5839002034691" lon="10.090831262299773"><ele>580.6666666666666</ele><time>2026-05-03T09:47:59.999Z</time></trkpt><trkpt lat="44.584009809593105" lon="10.090631254090283"><ele>574.3333333333334</ele><time>2026-05-03T09:48:00.999Z</time></trkpt><trkpt lat="44.58412259311607" lon="10.090476005420346"><ele>568.0</ele><time>2026-05-03T09:48:01.999Z</time></trkpt><trkpt lat="44.58427872984516" lon="10.090364222317522"><ele>568.0</ele><time>2026-05-03T09:48:02.999Z</time></trkpt><trkpt lat="44.58444715437351" lon="10.09030906605967"><ele>568.0</ele><time>2026-05-03T09:48:03.999Z</time></trkpt><trkpt lat="44.58457163017513" lon="10.090271243627937"><ele>568.0</ele><time>2026-05-03T09:48:04.999Z</time></trkpt><trkpt lat="44.58467479842143" lon="10.090305291041748"><ele>568.0</ele><time>2026-05-03T09:48:05.999Z</time></trkpt><trkpt lat="44.58473863550909" lon="10.090410696411702"><ele>571.25</ele><time>2026-05-03T09:48:06.999Z</time></trkpt><trkpt lat="44.58479589971278" lon="10.090579411856467"><ele>574.5</ele><time>2026-05-03T09:48:07.999Z</time></trkpt><trkpt lat="44.58489531188952" lon="10.090736815100408"><ele>577.75</ele><time>2026-05-03T09:48:08.999Z</time></trkpt><trkpt lat="44.5850143224894" lon="10.09083624238865"><ele>581.0</ele><time>2026-05-03T09:48:09.999Z</time></trkpt><trkpt lat="44.58516161540757" lon="10.09089804792454"><ele>581.0</ele><time>2026-05-03T09:48:10.999Z</time></trkpt><trkpt lat="44.58532569105726" lon="10.090955751753658"><ele>581.0</ele><time>2026-05-03T09:48:11.999Z</time></trkpt><trkpt lat="44.585437417445576" lon="10.091123611700468"><ele>581.0</ele><time>2026-05-03T09:48:12.999Z</time></trkpt><trkpt lat="44.5855714041126" lon="10.091321816503914"><ele>572.5</ele><time>2026-05-03T09:48:13.999Z</time></trkpt><trkpt lat="44.5856987478118" lon="10.09151292047809"><ele>564.0</ele><time>2026-05-03T09:48:14.999Z</time></trkpt><trkpt lat="44.58577712459015" lon="10.091677835286024"><ele>555.5</ele><time>2026-05-03T09:48:15.999Z</time></trkpt><trkpt lat="44.58577680676752" lon="10.091843857057096"><ele>547.0</ele><time>2026-05-03T09:48:16.999Z</time></trkpt><trkpt lat="44.58577275083181" lon="10.092064284403074"><ele>547.0</ele><time>2026-05-03T09:48:17.999Z</time></trkpt><trkpt lat="44.585768715957165" lon="10.092316538132836"><ele>547.0</ele><time>2026-05-03T09:48:18.999Z</time></trkpt><trkpt lat="44.58575839076004" lon="10.092543189107555"><ele>547.0</ele><time>2026-05-03T09:48:19.999Z</time></trkpt><trkpt lat="44.58572859222666" lon="10.09272198111847"><ele>545.6666666666667</ele><time>2026-05-03T09:48:20.999Z</time></trkpt><trkpt lat="44.5856416739469" lon="10.092874727056728"><ele>544.3333333333334</ele><time>2026-05-03T09:48:21.999Z</time></trkpt><trkpt lat="44.58554392906909" lon="10.09310723549625"><ele>543.0</ele><time>2026-05-03T09:48:23Z</time></trkpt><trkpt lat="44.58546597128749" lon="10.093351212672586"><ele>543.0</ele><time>2026-05-03T09:48:24Z</time></trkpt><trkpt lat="44.585402836272166" lon="10.093567132101539"><ele>543.0</ele><time>2026-05-03T09:48:25Z</time></trkpt><trkpt lat="44.585336446127" lon="10.093745997456262"><ele>543.0</ele><time>2026-05-03T09:48:26Z</time></trkpt><trkpt lat="44.58526006839973" lon="10.09386582233723"><ele>543.0</ele><time>2026-05-03T09:48:27Z</time></trkpt><trkpt lat="44.585163030311065" lon="10.093921183063564"><ele>555.6666666666666</ele><time>2026-05-03T09:48:28Z</time></trkpt><trkpt lat="44.58502738927568" lon="10.09392607996467"><ele>568.3333333333333</ele><time>2026-05-03T09:48:29Z</time></trkpt><trkpt lat="44.58484006630812" lon="10.093942679983947"><ele>581.0</ele><time>2026-05-03T09:48:30Z</time></trkpt><trkpt lat="44.584667016724346" lon="10.093971882107644"><ele>578.0</ele><time>2026-05-03T09:48:31Z</time></trkpt><trkpt lat="44.58450401535762" lon="10.094059186715244"><ele>575.0</ele><time>2026-05-03T09:48:32Z</time></trkpt><trkpt lat="44.58435193118347" lon="10.094167678718815"><ele>572.0</ele><time>2026-05-03T09:48:33Z</time></trkpt><trkpt lat="44.58422780147329" lon="10.094293989562892"><ele>572.0</ele><time>2026-05-03T09:48:34Z</time></trkpt><trkpt lat="44.58414099928923" lon="10.094430609379105"><ele>572.0</ele><time>2026-05-03T09:48:35Z</time></trkpt><trkpt lat="44.584094241835594" lon="10.094583278054227"><ele>572.0</ele><time>2026-05-03T09:48:36Z</time></trkpt><trkpt lat="44.584089035596875" lon="10.094747111670586"><ele>572.0</ele><time>2026-05-03T09:48:37Z</time></trkpt><trkpt lat="44.58414420216533" lon="10.094948171683031"><ele>562.3333333333333</ele><time>2026-05-03T09:48:38Z</time></trkpt><trkpt lat="44.584251109866116" lon="10.095123581207563"><ele>552.6666666666666</ele><time>2026-05-03T09:48:39Z</time></trkpt><trkpt lat="44.584378242153626" lon="10.095288407089672"><ele>543.0</ele><time>2026-05-03T09:48:40Z</time></trkpt><trkpt lat="44.58449258195928" lon="10.095478273095775"><ele>539.3333333333334</ele><time>2026-05-03T09:48:41Z</time></trkpt><trkpt lat="44.58459921677246" lon="10.095657851473808"><ele>535.6666666666667</ele><time>2026-05-03T09:48:42Z</time></trkpt><trkpt lat="44.584688889694775" lon="10.095832484749934"><ele>532.0</ele><time>2026-05-03T09:48:43Z</time></trkpt><trkpt lat="44.58471081674753" lon="10.096054070229608"><ele>532.0</ele><time>2026-05-03T09:48:44Z</time></trkpt><trkpt lat="44.584731806911535" lon="10.096300195328842"><ele>532.0</ele><time>2026-05-03T09:48:45Z</time></trkpt><trkpt lat="44.58475405735998" lon="10.096536063845592"><ele>532.0</ele><time>2026-05-03T09:48:46Z</time></trkpt><trkpt lat="44.58477803440322" lon="10.096747443315861"><ele>535.0</ele><time>2026-05-03T09:48:47Z</time></trkpt><trkpt lat="44.584827811380904" lon="10.096921739093727"><ele>538.0</ele><time>2026-05-03T09:48:48Z</time></trkpt><trkpt lat="44.584927075819145" lon="10.097037294850447"><ele>541.0</ele><time>2026-05-03T09:48:49Z</time></trkpt><trkpt lat="44.58507214659127" lon="10.09706662404583"><ele>544.0</ele><time>2026-05-03T09:48:50Z</time></trkpt><trkpt lat="44.58525143557825" lon="10.09702699337934"><ele>541.0</ele><time>2026-05-03T09:48:51Z</time></trkpt><trkpt lat="44.585442597225715" lon="10.096966384184103"><ele>538.0</ele><time>2026-05-03T09:48:52Z</time></trkpt><trkpt lat="44.58561412774503" lon="10.096931718024832"><ele>535.0</ele><time>2026-05-03T09:48:53Z</time></trkpt><trkpt lat="44.585759518477175" lon="10.096882975078758"><ele>535.0</ele><time>2026-05-03T09:48:54Z</time></trkpt><trkpt lat="44.58588592112514" lon="10.096749553890401"><ele>535.0</ele><time>2026-05-03T09:48:55Z</time></trkpt><trkpt lat="44.58598989843147" lon="10.09659620684911"><ele>535.0</ele><time>2026-05-03T09:48:56Z</time></trkpt><trkpt lat="44.586085610728716" lon="10.096541710441368"><ele>535.0</ele><time>2026-05-03T09:48:57Z</time></trkpt><trkpt lat="44.58615161878018" lon="10.096536535136758"><ele>528.0</ele><time>2026-05-03T09:48:58Z</time></trkpt><trkpt lat="44.58629357783231" lon="10.096504126676754"><ele>521.0</ele><time>2026-05-03T09:48:59Z</time></trkpt><trkpt lat="44.58652627293004" lon="10.096350484563416"><ele>514.0</ele><time>2026-05-03T09:49:00Z</time></trkpt><trkpt lat="44.58670036911344" lon="10.096275446302371"><ele>514.0</ele><time>2026-05-03T09:49:01Z</time></trkpt><trkpt lat="44.5868591099465" lon="10.096254565093183"><ele>514.0</ele><time>2026-05-03T09:49:02Z</time></trkpt><trkpt lat="44.58700558903422" lon="10.096212993683869"><ele>514.0</ele><time>2026-05-03T09:49:03Z</time></trkpt><trkpt lat="44.58714172528465" lon="10.096180445445842"><ele>514.0</ele><time>2026-05-03T09:49:04Z</time></trkpt><trkpt lat="44.587271862159085" lon="10.096047914635337"><ele>516.3333333333334</ele><time>2026-05-03T09:49:05Z</time></trkpt><trkpt lat="44.58739758399188" lon="10.095860920629343"><ele>518.6666666666666</ele><time>2026-05-03T09:49:06Z</time></trkpt><trkpt lat="44.58752058467848" lon="10.095713918113018"><ele>521.0</ele><time>2026-05-03T09:49:07Z</time></trkpt><trkpt lat="44.58764137726835" lon="10.095635778854525"><ele>514.0</ele><time>2026-05-03T09:49:08Z</time></trkpt><trkpt lat="44.58776801496931" lon="10.095596250783732"><ele>507.0</ele><time>2026-05-03T09:49:09Z</time></trkpt><trkpt lat="44.58788562718618" lon="10.095611619462948"><ele>500.0</ele><time>2026-05-03T09:49:10Z</time></trkpt><trkpt lat="44.587947463198375" lon="10.09572856351465"><ele>493.0</ele><time>2026-05-03T09:49:11Z</time></trkpt><trkpt lat="44.58799763239982" lon="10.0958473968207"><ele>493.0</ele><time>2026-05-03T09:49:12Z</time></trkpt><trkpt lat="44.58795464321613" lon="10.09603101687539"><ele>493.0</ele><time>2026-05-03T09:49:13Z</time></trkpt><trkpt lat="44.58784053557424" lon="10.096148818422543"><ele>493.0</ele><time>2026-05-03T09:49:14Z</time></trkpt><trkpt lat="44.587712350310646" lon="10.09630109878931"><ele>493.0</ele><time>2026-05-03T09:49:15Z</time></trkpt><trkpt lat="44.58758121641749" lon="10.096474724905454"><ele>505.0</ele><time>2026-05-03T09:49:16Z</time></trkpt><trkpt lat="44.58747261217108" lon="10.096686465041502"><ele>517.0</ele><time>2026-05-03T09:49:17Z</time></trkpt><trkpt lat="44.5873926973276" lon="10.096930223011313"><ele>529.0</ele><time>2026-05-03T09:49:18Z</time></trkpt><trkpt lat="44.587324174083165" lon="10.097166690181352"><ele>529.0</ele><time>2026-05-03T09:49:19Z</time></trkpt><trkpt lat="44.58722442228286" lon="10.097376262555368"><ele>529.0</ele><time>2026-05-03T09:49:20Z</time></trkpt><trkpt lat="44.58708771508962" lon="10.09762067835322"><ele>529.0</ele><time>2026-05-03T09:49:21Z</time></trkpt><trkpt lat="44.58690711837089" lon="10.097872873873792"><ele>527.3333333333334</ele><time>2026-05-03T09:49:22Z</time></trkpt><trkpt lat="44.586839466990824" lon="10.097980944722497"><ele>525.6666666666666</ele><time>2026-05-03T09:49:23Z</time></trkpt><trkpt lat="44.586731758330785" lon="10.098231920105496"><ele>524.0</ele><time>2026-05-03T09:49:24Z</time></trkpt><trkpt lat="44.58661273938042" lon="10.098485463713917"><ele>524.0</ele><time>2026-05-03T09:49:25Z</time></trkpt><trkpt lat="44.586499012262685" lon="10.09873900816019"><ele>524.0</ele><time>2026-05-03T09:49:26Z</time></trkpt><trkpt lat="44.58639126444601" lon="10.098965030751835"><ele>524.0</ele><time>2026-05-03T09:49:27Z</time></trkpt><trkpt lat="44.586314481777855" lon="10.099196521151994"><ele>515.3333333333333</ele><time>2026-05-03T09:49:28Z</time></trkpt><trkpt lat="44.5862809523538" lon="10.099439447465143"><ele>506.66666666666663</ele><time>2026-05-03T09:49:29Z</time></trkpt><trkpt lat="44.58628240155609" lon="10.099714534362265"><ele>498.0</ele><time>2026-05-03T09:49:30Z</time></trkpt><trkpt lat="44.58629645764958" lon="10.100010286359433"><ele>490.5</ele><time>2026-05-03T09:49:31Z</time></trkpt><trkpt lat="44.5863008462775" lon="10.100321723762288"><ele>483.0</ele><time>2026-05-03T09:49:31.999Z</time></trkpt><trkpt lat="44.586286601085305" lon="10.100640931997143"><ele>478.0</ele><time>2026-05-03T09:49:32.999Z</time></trkpt><trkpt lat="44.586271062123785" lon="10.100955304029355"><ele>473.0</ele><time>2026-05-03T09:49:33.999Z</time></trkpt><trkpt lat="44.58625144191242" lon="10.101242322315308"><ele>468.0</ele><time>2026-05-03T09:49:34.999Z</time></trkpt><trkpt lat="44.58623660678554" lon="10.101510998804898"><ele>467.0</ele><time>2026-05-03T09:49:35.999Z</time></trkpt><trkpt lat="44.586244860380454" lon="10.101774820360179"><ele>466.0</ele><time>2026-05-03T09:49:36.999Z</time></trkpt><trkpt lat="44.58628957804139" lon="10.102051914210818"><ele>465.0</ele><time>2026-05-03T09:49:37.999Z</time></trkpt><trkpt lat="44.58634981109383" lon="10.102324539178216"><ele>468.66666666666663</ele><time>2026-05-03T09:49:38.999Z</time></trkpt><trkpt lat="44.58641919317699" lon="10.102573309427639"><ele>472.3333333333333</ele><time>2026-05-03T09:49:39.999Z</time></trkpt><trkpt lat="44.58650019155127" lon="10.1027904214872"><ele>476.0</ele><time>2026-05-03T09:49:40.999Z</time></trkpt><trkpt lat="44.586533117147674" lon="10.103008057563919"><ele>480.0</ele><time>2026-05-03T09:49:41.999Z</time></trkpt><trkpt lat="44.58654532499532" lon="10.103269823678403"><ele>484.0</ele><time>2026-05-03T09:49:42.999Z</time></trkpt><trkpt lat="44.586555440149695" lon="10.10354860442224"><ele>488.0</ele><time>2026-05-03T09:49:43.999Z</time></trkpt><trkpt lat="44.5865893024839" lon="10.103787929429062"><ele>488.0</ele><time>2026-05-03T09:49:44.999Z</time></trkpt><trkpt lat="44.58660879329826" lon="10.103962046703204"><ele>488.0</ele><time>2026-05-03T09:49:45.999Z</time></trkpt><trkpt lat="44.586681240592426" lon="10.104087084976934"><ele>488.0</ele><time>2026-05-03T09:49:46.999Z</time></trkpt><trkpt lat="44.58682407208101" lon="10.104185984184122"><ele>488.0</ele><time>2026-05-03T09:49:47.999Z</time></trkpt><trkpt lat="44.58701772384157" lon="10.104275788183228"><ele>480.0</ele><time>2026-05-03T09:49:48.999Z</time></trkpt><trkpt lat="44.58716131267246" lon="10.104384129020927"><ele>472.0</ele><time>2026-05-03T09:49:49.999Z</time></trkpt><trkpt lat="44.58726979179142" lon="10.104470141766658"><ele>464.0</ele><time>2026-05-03T09:49:50.999Z</time></trkpt><trkpt lat="44.58733103797517" lon="10.104593095699183"><ele>456.0</ele><time>2026-05-03T09:49:51.999Z</time></trkpt><trkpt lat="44.587350354876065" lon="10.104762204818462"><ele>463.66666666666663</ele><time>2026-05-03T09:49:52.999Z</time></trkpt><trkpt lat="44.58730056910056" lon="10.104967039522872"><ele>471.3333333333333</ele><time>2026-05-03T09:49:53.999Z</time></trkpt><trkpt lat="44.58731132698328" lon="10.105217762452781"><ele>479.0</ele><time>2026-05-03T09:49:54.999Z</time></trkpt><trkpt lat="44.58737143003124" lon="10.105454592171837"><ele>479.0</ele><time>2026-05-03T09:49:55.999Z</time></trkpt><trkpt lat="44.587511490029485" lon="10.105706812001351"><ele>479.0</ele><time>2026-05-03T09:49:56.999Z</time></trkpt><trkpt lat="44.587597021567085" lon="10.105951415440286"><ele>479.0</ele><time>2026-05-03T09:49:57.999Z</time></trkpt><trkpt lat="44.58768934418486" lon="10.10621934607198"><ele>483.66666666666663</ele><time>2026-05-03T09:49:58.999Z</time></trkpt><trkpt lat="44.58779202710593" lon="10.106480150685707"><ele>488.33333333333337</ele><time>2026-05-03T09:49:59.999Z</time></trkpt><trkpt lat="44.587953805500746" lon="10.106717263864859"><ele>493.0</ele><time>2026-05-03T09:50:00.999Z</time></trkpt><trkpt lat="44.588100009437355" lon="10.10690248238659"><ele>484.5</ele><time>2026-05-03T09:50:01.999Z</time></trkpt><trkpt lat="44.58824352393377" lon="10.106995969817389"><ele>476.0</ele><time>2026-05-03T09:50:02.999Z</time></trkpt><trkpt lat="44.58834222867412" lon="10.107056277180615"><ele>467.5</ele><time>2026-05-03T09:50:03.999Z</time></trkpt><trkpt lat="44.58836843734363" lon="10.107185265644121"><ele>459.0</ele><time>2026-05-03T09:50:04.999Z</time></trkpt><trkpt lat="44.588331953126364" lon="10.107342407087131"><ele>464.0</ele><time>2026-05-03T09:50:05.999Z</time></trkpt><trkpt lat="44.58820428801285" lon="10.10747211261615"><ele>469.0</ele><time>2026-05-03T09:50:06.999Z</time></trkpt><trkpt lat="44.588162665716574" lon="10.107654089713568"><ele>474.0</ele><time>2026-05-03T09:50:07.999Z</time></trkpt><trkpt lat="44.58817536933133" lon="10.107874540643262"><ele>474.0</ele><time>2026-05-03T09:50:08.999Z</time></trkpt><trkpt lat="44.58822384308354" lon="10.108092591206283"><ele>474.0</ele><time>2026-05-03T09:50:09.999Z</time></trkpt><trkpt lat="44.5883097975069" lon="10.108264576517666"><ele>474.0</ele><time>2026-05-03T09:50:10.999Z</time></trkpt><trkpt lat="44.58843229912773" lon="10.108341699623452"><ele>474.0</ele><time>2026-05-03T09:50:11.999Z</time></trkpt><trkpt lat="44.5885957284487" lon="10.10835353528033"><ele>468.0</ele><time>2026-05-03T09:50:12.999Z</time></trkpt><trkpt lat="44.588762813666214" lon="10.10837093390114"><ele>462.0</ele><time>2026-05-03T09:50:13.999Z</time></trkpt><trkpt lat="44.588854265834975" lon="10.10850211607353"><ele>456.0</ele><time>2026-05-03T09:50:14.999Z</time></trkpt><trkpt lat="44.58889163608429" lon="10.108672104321679"><ele>450.0</ele><time>2026-05-03T09:50:15.999Z</time></trkpt><trkpt lat="44.58895015530082" lon="10.108922142816526"><ele>455.0</ele><time>2026-05-03T09:50:16.999Z</time></trkpt><trkpt lat="44.589016093610724" lon="10.109208594589038"><ele>460.0</ele><time>2026-05-03T09:50:17.999Z</time></trkpt><trkpt lat="44.58910448340275" lon="10.109487818854134"><ele>465.0</ele><time>2026-05-03T09:50:18.999Z</time></trkpt><trkpt lat="44.58919456757092" lon="10.109812113169115"><ele>470.5</ele><time>2026-05-03T09:50:19.999Z</time></trkpt><trkpt lat="44.589284229218755" lon="10.11012880442771"><ele>476.0</ele><time>2026-05-03T09:50:20.999Z</time></trkpt><trkpt lat="44.58936684553315" lon="10.110418900156121"><ele>476.0</ele><time>2026-05-03T09:50:21.999Z</time></trkpt><trkpt lat="44.58944213530607" lon="10.110686822563062"><ele>476.0</ele><time>2026-05-03T09:50:22.999Z</time></trkpt><trkpt lat="44.58953924443111" lon="10.110946320340954"><ele>476.0</ele><time>2026-05-03T09:50:23.999Z</time></trkpt><trkpt lat="44.58968307036326" lon="10.111197883299504"><ele>466.5</ele><time>2026-05-03T09:50:24.999Z</time></trkpt><trkpt lat="44.58985029059797" lon="10.111457572062823"><ele>457.0</ele><time>2026-05-03T09:50:25.999Z</time></trkpt><trkpt lat="44.589971479621525" lon="10.11171605945301"><ele>457.0</ele><time>2026-05-03T09:50:26.999Z</time></trkpt><trkpt lat="44.59008015613268" lon="10.111956183824272"><ele>457.0</ele><time>2026-05-03T09:50:27.999Z</time></trkpt><trkpt lat="44.59020207775389" lon="10.112174617306783"><ele>457.0</ele><time>2026-05-03T09:50:29Z</time></trkpt><trkpt lat="44.59036711133233" lon="10.112370073479413"><ele>448.6666666666667</ele><time>2026-05-03T09:50:30Z</time></trkpt><trkpt lat="44.59053672336829" lon="10.112548350602442"><ele>440.33333333333337</ele><time>2026-05-03T09:50:31Z</time></trkpt><trkpt lat="44.59068555966393" lon="10.11270909429771"><ele>432.0</ele><time>2026-05-03T09:50:32Z</time></trkpt><trkpt lat="44.59079760109566" lon="10.112881523144292"><ele>432.0</ele><time>2026-05-03T09:50:33Z</time></trkpt><trkpt lat="44.590873428784036" lon="10.11308924236075"><ele>432.0</ele><time>2026-05-03T09:50:34Z</time></trkpt><trkpt lat="44.590945485132124" lon="10.113314454942117"><ele>432.0</ele><time>2026-05-03T09:50:35Z</time></trkpt><trkpt lat="44.59098229147171" lon="10.113494472971823"><ele>436.25</ele><time>2026-05-03T09:50:36Z</time></trkpt><trkpt lat="44.590970647678645" lon="10.113656368458111"><ele>440.5</ele><time>2026-05-03T09:50:37Z</time></trkpt><trkpt lat="44.59093717973518" lon="10.113857622242575"><ele>444.75</ele><time>2026-05-03T09:50:38Z</time></trkpt><trkpt lat="44.590896500112194" lon="10.114107020098126"><ele>449.0</ele><time>2026-05-03T09:50:39Z</time></trkpt><trkpt lat="44.59085316159494" lon="10.114366758861033"><ele>449.0</ele><time>2026-05-03T09:50:40Z</time></trkpt><trkpt lat="44.59081177237266" lon="10.114617415231283"><ele>449.0</ele><time>2026-05-03T09:50:41Z</time></trkpt><trkpt lat="44.59079547840112" lon="10.114848935362211"><ele>449.0</ele><time>2026-05-03T09:50:42Z</time></trkpt><trkpt lat="44.590765807139036" lon="10.115069536868333"><ele>447.25</ele><time>2026-05-03T09:50:43Z</time></trkpt><trkpt lat="44.59076628225415" lon="10.115278551783181"><ele>445.5</ele><time>2026-05-03T09:50:44Z</time></trkpt><trkpt lat="44.590813027083854" lon="10.11546209274573"><ele>443.75</ele><time>2026-05-03T09:50:45Z</time></trkpt><trkpt lat="44.5909108163648" lon="10.11564131036037"><ele>442.0</ele><time>2026-05-03T09:50:46Z</time></trkpt><trkpt lat="44.59105857752552" lon="10.115783997329698"><ele>437.33333333333337</ele><time>2026-05-03T09:50:47Z</time></trkpt><trkpt lat="44.591238453096935" lon="10.11588807874213"><ele>432.66666666666663</ele><time>2026-05-03T09:50:48Z</time></trkpt><trkpt lat="44.5914247032721" lon="10.116013916424453"><ele>428.0</ele><time>2026-05-03T09:50:49Z</time></trkpt><trkpt lat="44.59160832766123" lon="10.116168776084136"><ele>428.0</ele><time>2026-05-03T09:50:50Z</time></trkpt><trkpt lat="44.59178990393783" lon="10.116315323000528"><ele>428.0</ele><time>2026-05-03T09:50:51Z</time></trkpt><trkpt lat="44.591975842575174" lon="10.116456971101673"><ele>428.0</ele><time>2026-05-03T09:50:52Z</time></trkpt><trkpt lat="44.592164799635" lon="10.116602038872273"><ele>425.3333333333333</ele><time>2026-05-03T09:50:53Z</time></trkpt><trkpt lat="44.59235289090833" lon="10.116756447745708"><ele>422.66666666666663</ele><time>2026-05-03T09:50:54Z</time></trkpt><trkpt lat="44.592538738534195" lon="10.11691807406785"><ele>420.0</ele><time>2026-05-03T09:50:55Z</time></trkpt><trkpt lat="44.592720587105994" lon="10.117073939635768"><ele>419.0</ele><time>2026-05-03T09:50:56Z</time></trkpt><trkpt lat="44.59290207570686" lon="10.117216613949061"><ele>418.0</ele><time>2026-05-03T09:50:57Z</time></trkpt><trkpt lat="44.59308118316302" lon="10.117355479782216"><ele>417.0</ele><time>2026-05-03T09:50:58Z</time></trkpt><trkpt lat="44.5932509169374" lon="10.117491277194997"><ele>418.0</ele><time>2026-05-03T09:50:59Z</time></trkpt><trkpt lat="44.59341030356521" lon="10.117630625362912"><ele>419.0</ele><time>2026-05-03T09:51:00Z</time></trkpt><trkpt lat="44.59357175888189" lon="10.11776603808354"><ele>420.0</ele><time>2026-05-03T09:51:01Z</time></trkpt><trkpt lat="44.59372760077912" lon="10.117893182995557"><ele>420.0</ele><time>2026-05-03T09:51:02Z</time></trkpt><trkpt lat="44.59388154932031" lon="10.118014209989768"><ele>420.0</ele><time>2026-05-03T09:51:03Z</time></trkpt><trkpt lat="44.594030494166645" lon="10.118125627627792"><ele>420.0</ele><time>2026-05-03T09:51:04Z</time></trkpt><trkpt lat="44.59417590855936" lon="10.118204487152905"><ele>422.33333333333337</ele><time>2026-05-03T09:51:05Z</time></trkpt><trkpt lat="44.59432057622553" lon="10.11825352790797"><ele>424.6666666666667</ele><time>2026-05-03T09:51:06Z</time></trkpt><trkpt lat="44.59447332344851" lon="10.118295247537684"><ele>427.0</ele><time>2026-05-03T09:51:07Z</time></trkpt><trkpt lat="44.59463137648499" lon="10.11833811585921"><ele>427.0</ele><time>2026-05-03T09:51:08Z</time></trkpt><trkpt lat="44.594792384598314" lon="10.118398081009898"><ele>427.0</ele><time>2026-05-03T09:51:09Z</time></trkpt><trkpt lat="44.594958094821834" lon="10.118464368471287"><ele>427.0</ele><time>2026-05-03T09:51:10Z</time></trkpt><trkpt lat="44.59511870137104" lon="10.118526919342367"><ele>427.0</ele><time>2026-05-03T09:51:11Z</time></trkpt><trkpt lat="44.59528367003897" lon="10.118583393560828"><ele>427.0</ele><time>2026-05-03T09:51:12Z</time></trkpt><trkpt lat="44.59545693453875" lon="10.118636469884825"><ele>427.0</ele><time>2026-05-03T09:51:13Z</time></trkpt><trkpt lat="44.59562271420245" lon="10.118685451438523"><ele>424.6666666666667</ele><time>2026-05-03T09:51:14Z</time></trkpt><trkpt lat="44.59578702704511" lon="10.118735631031097"><ele>422.33333333333337</ele><time>2026-05-03T09:51:15Z</time></trkpt><trkpt lat="44.595947445898524" lon="10.11879982338223"><ele>420.0</ele><time>2026-05-03T09:51:16Z</time></trkpt><trkpt lat="44.59611791974964" lon="10.118869292634423"><ele>420.33333333333337</ele><time>2026-05-03T09:51:17Z</time></trkpt><trkpt lat="44.59628949414741" lon="10.118940271660241"><ele>420.6666666666667</ele><time>2026-05-03T09:51:18Z</time></trkpt><trkpt lat="44.596464242383355" lon="10.119000228339768"><ele>421.0</ele><time>2026-05-03T09:51:19Z</time></trkpt><trkpt lat="44.59665477940251" lon="10.119087660587017"><ele>421.0</ele><time>2026-05-03T09:51:20Z</time></trkpt><trkpt lat="44.59685634817472" lon="10.119165305188828"><ele>421.0</ele><time>2026-05-03T09:51:21Z</time></trkpt><trkpt lat="44.597062598494176" lon="10.119243454260817"><ele>421.0</ele><time>2026-05-03T09:51:22Z</time></trkpt><trkpt lat="44.59726685637811" lon="10.119318031047483"><ele>417.6666666666667</ele><time>2026-05-03T09:51:23Z</time></trkpt><trkpt lat="44.597469295459234" lon="10.11937258424382"><ele>414.33333333333337</ele><time>2026-05-03T09:51:24Z</time></trkpt><trkpt lat="44.59766707242773" lon="10.1194652024082"><ele>411.0</ele><time>2026-05-03T09:51:25Z</time></trkpt><trkpt lat="44.5978512378073" lon="10.119535612587237"><ele>408.33333333333337</ele><time>2026-05-03T09:51:26Z</time></trkpt><trkpt lat="44.59802932530566" lon="10.119595671967827"><ele>405.6666666666667</ele><time>2026-05-03T09:51:27Z</time></trkpt><trkpt lat="44.59819996449626" lon="10.119658296124916"><ele>403.0</ele><time>2026-05-03T09:51:28Z</time></trkpt><trkpt lat="44.59835959318902" lon="10.119717875783467"><ele>403.0</ele><time>2026-05-03T09:51:29Z</time></trkpt><trkpt lat="44.598514817197994" lon="10.119777901411805"><ele>403.0</ele><time>2026-05-03T09:51:30Z</time></trkpt><trkpt lat="44.59867112514408" lon="10.119838706550018"><ele>403.0</ele><time>2026-05-03T09:51:31Z</time></trkpt><trkpt lat="44.598815197865626" lon="10.119893810945939"><ele>402.75</ele><time>2026-05-03T09:51:32Z</time></trkpt><trkpt lat="44.598962866242424" lon="10.119944595807997"><ele>402.5</ele><time>2026-05-03T09:51:33Z</time></trkpt><trkpt lat="44.59911091445254" lon="10.119999535832095"><ele>402.25</ele><time>2026-05-03T09:51:34Z</time></trkpt><trkpt lat="44.599236698564916" lon="10.120050470126001"><ele>402.0</ele><time>2026-05-03T09:51:35Z</time></trkpt><trkpt lat="44.59937432625665" lon="10.120114772429242"><ele>401.5</ele><time>2026-05-03T09:51:36Z</time></trkpt><trkpt lat="44.599544088946075" lon="10.12016542000477"><ele>401.0</ele><time>2026-05-03T09:51:36.999Z</time></trkpt><trkpt lat="44.59967678233103" lon="10.120221908313699"><ele>400.5</ele><time>2026-05-03T09:51:37.999Z</time></trkpt><trkpt lat="44.59980355654762" lon="10.120267473359656"><ele>400.0</ele><time>2026-05-03T09:51:38.999Z</time></trkpt><trkpt lat="44.59992586568403" lon="10.120309666759363"><ele>400.0</ele><time>2026-05-03T09:51:39.999Z</time></trkpt><trkpt lat="44.60003951711853" lon="10.120347824864062"><ele>400.0</ele><time>2026-05-03T09:51:40.999Z</time></trkpt><trkpt lat="44.600150353225395" lon="10.120382754934006"><ele>400.0</ele><time>2026-05-03T09:51:41.999Z</time></trkpt><trkpt lat="44.60026090468395" lon="10.12043229927223"><ele>400.0</ele><time>2026-05-03T09:51:42.999Z</time></trkpt><trkpt lat="44.60037127725462" lon="10.120489443736668"><ele>400.0</ele><time>2026-05-03T09:51:43.999Z</time></trkpt><trkpt lat="44.60047724049381" lon="10.120563235122818"><ele>400.0</ele><time>2026-05-03T09:51:44.999Z</time></trkpt><trkpt lat="44.60056084252283" lon="10.120651114777182"><ele>400.0</ele><time>2026-05-03T09:51:45.999Z</time></trkpt><trkpt lat="44.60063418809983" lon="10.120736082439233"><ele>400.0</ele><time>2026-05-03T09:51:46.999Z</time></trkpt><trkpt lat="44.60070337471835" lon="10.120826499630489"><ele>400.0</ele><time>2026-05-03T09:51:47.999Z</time></trkpt><trkpt lat="44.600751334068455" lon="10.120921587768727"><ele>400.00000000000006</ele><time>2026-05-03T09:51:48.999Z</time></trkpt><trkpt lat="44.60078713570302" lon="10.121023857313945"><ele>400.0</ele><time>2026-05-03T09:51:49.999Z</time></trkpt><trkpt lat="44.60082366861303" lon="10.12113935639489"><ele>400.0</ele><time>2026-05-03T09:51:50.999Z</time></trkpt><trkpt lat="44.60085396759214" lon="10.121229328764437"><ele>400.0</ele><time>2026-05-03T09:51:51.999Z</time></trkpt><trkpt lat="44.60088752508309" lon="10.121332399666594"><ele>400.00000000000006</ele><time>2026-05-03T09:51:53.999Z</time></trkpt><trkpt lat="44.60092142232412" lon="10.121429533503841"><ele>400.0</ele><time>2026-05-03T09:51:55.999Z</time></trkpt><trkpt lat="44.60095970783225" lon="10.121546901407914"><ele>400.4</ele><time>2026-05-03T09:51:57.999Z</time></trkpt><trkpt lat="44.60099541430294" lon="10.121688681403393"><ele>400.8</ele><time>2026-05-03T09:51:59.999Z</time></trkpt><trkpt lat="44.60104663781205" lon="10.121834100516033"><ele>401.20000000000005</ele><time>2026-05-03T09:52:01.999Z</time></trkpt><trkpt lat="44.601093305990794" lon="10.12190659623251"><ele>401.6</ele><time>2026-05-03T09:52:02.999Z</time></trkpt><trkpt lat="44.60115688890854" lon="10.121994167819679"><ele>402.0</ele><time>2026-05-03T09:52:03.999Z</time></trkpt><trkpt lat="44.60123593739482" lon="10.122097801079166"><ele>401.0</ele><time>2026-05-03T09:52:04.999Z</time></trkpt><trkpt lat="44.60131037565311" lon="10.122185616295356"><ele>400.0</ele><time>2026-05-03T09:52:05.999Z</time></trkpt><trkpt lat="44.60139627499179" lon="10.12227820717111"><ele>399.0</ele><time>2026-05-03T09:52:06.999Z</time></trkpt><trkpt lat="44.60148683906828" lon="10.122375691610767"><ele>398.0</ele><time>2026-05-03T09:52:07.999Z</time></trkpt><trkpt lat="44.6015833346817" lon="10.122469099293562"><ele>397.0</ele><time>2026-05-03T09:52:08.999Z</time></trkpt><trkpt lat="44.601673392544996" lon="10.12255309897057"><ele>397.0</ele><time>2026-05-03T09:52:09.999Z</time></trkpt><trkpt lat="44.601776867749656" lon="10.122645460755592"><ele>397.0</ele><time>2026-05-03T09:52:10.999Z</time></trkpt><trkpt lat="44.6018886233082" lon="10.122742008606851"><ele>397.0</ele><time>2026-05-03T09:52:11.999Z</time></trkpt><trkpt lat="44.60200341074685" lon="10.12285781757696"><ele>397.0</ele><time>2026-05-03T09:52:12.999Z</time></trkpt><trkpt lat="44.60213313423476" lon="10.122964227117528"><ele>397.0</ele><time>2026-05-03T09:52:13.999Z</time></trkpt><trkpt lat="44.602265649713566" lon="10.12308462247535"><ele>397.0</ele><time>2026-05-03T09:52:14.999Z</time></trkpt><trkpt lat="44.602386735212676" lon="10.123183375037314"><ele>397.0</ele><time>2026-05-03T09:52:15.999Z</time></trkpt><trkpt lat="44.60251065315374" lon="10.123283195463012"><ele>397.0</ele><time>2026-05-03T09:52:16.999Z</time></trkpt><trkpt lat="44.6026201296161" lon="10.123379493324377"><ele>397.0</ele><time>2026-05-03T09:52:17.999Z</time></trkpt><trkpt lat="44.60272013458495" lon="10.123471365122485"><ele>397.0</ele><time>2026-05-03T09:52:18.999Z</time></trkpt><trkpt lat="44.60282081638854" lon="10.123567535428116"><ele>397.0</ele><time>2026-05-03T09:52:19.999Z</time></trkpt><trkpt lat="44.602917908809125" lon="10.12365889785846"><ele>397.0</ele><time>2026-05-03T09:52:20.999Z</time></trkpt><trkpt lat="44.60301746944709" lon="10.123730476408483"><ele>396.5</ele><time>2026-05-03T09:52:21.999Z</time></trkpt><trkpt lat="44.60312327518538" lon="10.123827560169621"><ele>396.0</ele><time>2026-05-03T09:52:22.999Z</time></trkpt><trkpt lat="44.603222671620955" lon="10.123910911532327"><ele>395.5</ele><time>2026-05-03T09:52:23.999Z</time></trkpt><trkpt lat="44.603328767151076" lon="10.12401284735461"><ele>395.0</ele><time>2026-05-03T09:52:24.999Z</time></trkpt><trkpt lat="44.60343326279967" lon="10.124111361059205"><ele>394.5</ele><time>2026-05-03T09:52:25.999Z</time></trkpt><trkpt lat="44.60353776824932" lon="10.124209423156836"><ele>394.0</ele><time>2026-05-03T09:52:26.999Z</time></trkpt><trkpt lat="44.60365196627883" lon="10.124303375545596"><ele>393.5</ele><time>2026-05-03T09:52:27.999Z</time></trkpt><trkpt lat="44.60376435170862" lon="10.124413664302677"><ele>393.0</ele><time>2026-05-03T09:52:28.999Z</time></trkpt><trkpt lat="44.6038821094344" lon="10.124517238924819"><ele>393.0</ele><time>2026-05-03T09:52:29.999Z</time></trkpt><trkpt lat="44.60399882940618" lon="10.12461440725053"><ele>393.0</ele><time>2026-05-03T09:52:30.999Z</time></trkpt><trkpt lat="44.604116127618134" lon="10.124719406026307"><ele>393.0</ele><time>2026-05-03T09:52:31.999Z</time></trkpt><trkpt lat="44.60423263897074" lon="10.124825403407499"><ele>393.0</ele><time>2026-05-03T09:52:32.999Z</time></trkpt><trkpt lat="44.60435485332041" lon="10.124931020028281"><ele>394.0</ele><time>2026-05-03T09:52:33.999Z</time></trkpt><trkpt lat="44.60447943237794" lon="10.12503708501173"><ele>395.0</ele><time>2026-05-03T09:52:35Z</time></trkpt><trkpt lat="44.60460489561342" lon="10.12514581549384"><ele>396.0</ele><time>2026-05-03T09:52:36Z</time></trkpt><trkpt lat="44.604733416992154" lon="10.12525570452796"><ele>397.0</ele><time>2026-05-03T09:52:37Z</time></trkpt><trkpt lat="44.60485745011081" lon="10.125366503004306"><ele>394.75</ele><time>2026-05-03T09:52:38Z</time></trkpt><trkpt lat="44.60498194571783" lon="10.125473175701874"><ele>392.5</ele><time>2026-05-03T09:52:39Z</time></trkpt><trkpt lat="44.605106750202964" lon="10.125582878909142"><ele>390.25</ele><time>2026-05-03T09:52:40Z</time></trkpt><trkpt lat="44.6052335585799" lon="10.12569214930547"><ele>388.0</ele><time>2026-05-03T09:52:41Z</time></trkpt><trkpt lat="44.60535652101235" lon="10.125799673045366"><ele>387.5</ele><time>2026-05-03T09:52:42Z</time></trkpt><trkpt lat="44.605482228168896" lon="10.125910083092347"><ele>387.0</ele><time>2026-05-03T09:52:43Z</time></trkpt><trkpt lat="44.60560651422037" lon="10.12602255574335"><ele>386.5</ele><time>2026-05-03T09:52:44Z</time></trkpt><trkpt lat="44.60572598386025" lon="10.126134975036122"><ele>386.0</ele><time>2026-05-03T09:52:45Z</time></trkpt><trkpt lat="44.60583952625266" lon="10.126245843090365"><ele>386.0</ele><time>2026-05-03T09:52:46Z</time></trkpt><trkpt lat="44.60596200844519" lon="10.126355162989794"><ele>386.0</ele><time>2026-05-03T09:52:47Z</time></trkpt><trkpt lat="44.60609173604925" lon="10.126461388449595"><ele>386.0</ele><time>2026-05-03T09:52:48Z</time></trkpt><trkpt lat="44.60621166961536" lon="10.126580524652235"><ele>386.0</ele><time>2026-05-03T09:52:49Z</time></trkpt><trkpt lat="44.60631816218111" lon="10.12671138005757"><ele>386.3333333333333</ele><time>2026-05-03T09:52:50Z</time></trkpt><trkpt lat="44.60641475665848" lon="10.12686117890106"><ele>386.66666666666663</ele><time>2026-05-03T09:52:51Z</time></trkpt><trkpt lat="44.6064936124134" lon="10.127040905990523"><ele>387.0</ele><time>2026-05-03T09:52:52Z</time></trkpt><trkpt lat="44.6065614993519" lon="10.127271384570738"><ele>388.66666666666663</ele><time>2026-05-03T09:52:53Z</time></trkpt><trkpt lat="44.60661660826964" lon="10.12750440225065"><ele>390.3333333333333</ele><time>2026-05-03T09:52:54Z</time></trkpt><trkpt lat="44.60668203310913" lon="10.127729121389109"><ele>392.0</ele><time>2026-05-03T09:52:55Z</time></trkpt><trkpt lat="44.60675880131459" lon="10.127929243979139"><ele>392.0</ele><time>2026-05-03T09:52:56Z</time></trkpt><trkpt lat="44.60686075949153" lon="10.128111390108419"><ele>392.0</ele><time>2026-05-03T09:52:57Z</time></trkpt><trkpt lat="44.607011207875594" lon="10.128249350331933"><ele>392.0</ele><time>2026-05-03T09:52:58Z</time></trkpt><trkpt lat="44.607199512323355" lon="10.12832122570142"><ele>390.3333333333333</ele><time>2026-05-03T09:52:59Z</time></trkpt><trkpt lat="44.60738698123163" lon="10.128389971019693"><ele>388.66666666666663</ele><time>2026-05-03T09:53:00Z</time></trkpt><trkpt lat="44.60754431701436" lon="10.128534560984777"><ele>387.0</ele><time>2026-05-03T09:53:01Z</time></trkpt><trkpt lat="44.60766350255849" lon="10.12871942223297"><ele>387.0</ele><time>2026-05-03T09:53:02Z</time></trkpt><trkpt lat="44.60777600807449" lon="10.128936210178436"><ele>387.0</ele><time>2026-05-03T09:53:03Z</time></trkpt><trkpt lat="44.60788506690668" lon="10.129113013621804"><ele>387.0</ele><time>2026-05-03T09:53:04Z</time></trkpt><trkpt lat="44.60800970294173" lon="10.1292439992333"><ele>388.66666666666663</ele><time>2026-05-03T09:53:05Z</time></trkpt><trkpt lat="44.608163860552416" lon="10.12930187878421"><ele>390.3333333333333</ele><time>2026-05-03T09:53:06Z</time></trkpt><trkpt lat="44.608341715493715" lon="10.129298961013795"><ele>392.0</ele><time>2026-05-03T09:53:07Z</time></trkpt><trkpt lat="44.608526037181036" lon="10.129320758210572"><ele>392.66666666666663</ele><time>2026-05-03T09:53:08Z</time></trkpt><trkpt lat="44.60871516374634" lon="10.12930332367165"><ele>393.33333333333337</ele><time>2026-05-03T09:53:09Z</time></trkpt><trkpt lat="44.60890774931156" lon="10.129282071230657"><ele>394.0</ele><time>2026-05-03T09:53:10Z</time></trkpt><trkpt lat="44.60908154198675" lon="10.129211185716851"><ele>394.0</ele><time>2026-05-03T09:53:11Z</time></trkpt><trkpt lat="44.60923216751158" lon="10.129200502205395"><ele>394.0</ele><time>2026-05-03T09:53:12Z</time></trkpt><trkpt lat="44.60939030404798" lon="10.129229465490306"><ele>394.0</ele><time>2026-05-03T09:53:13Z</time></trkpt><trkpt lat="44.609503967643484" lon="10.129331961659627"><ele>394.0</ele><time>2026-05-03T09:53:14Z</time></trkpt><trkpt lat="44.60960405011539" lon="10.129457816714106"><ele>396.0</ele><time>2026-05-03T09:53:15Z</time></trkpt><trkpt lat="44.60968927619271" lon="10.129603937413625"><ele>398.0</ele><time>2026-05-03T09:53:16Z</time></trkpt><trkpt lat="44.60977895224295" lon="10.129744525883122"><ele>400.0</ele><time>2026-05-03T09:53:17Z</time></trkpt><trkpt lat="44.609864952774025" lon="10.129879351109267"><ele>402.0</ele><time>2026-05-03T09:53:18Z</time></trkpt><trkpt lat="44.609980613068956" lon="10.130061248630495"><ele>402.0</ele><time>2026-05-03T09:53:19Z</time></trkpt><trkpt lat="44.61013622993754" lon="10.130306083524012"><ele>402.0</ele><time>2026-05-03T09:53:20Z</time></trkpt><trkpt lat="44.610286342374195" lon="10.130549395342689"><ele>395.3333333333333</ele><time>2026-05-03T09:53:21Z</time></trkpt><trkpt lat="44.61041749842226" lon="10.130765332634315"><ele>388.66666666666663</ele><time>2026-05-03T09:53:22Z</time></trkpt><trkpt lat="44.61054826352285" lon="10.130989959311728"><ele>382.0</ele><time>2026-05-03T09:53:23Z</time></trkpt><trkpt lat="44.61067062877902" lon="10.13121399438794"><ele>382.0</ele><time>2026-05-03T09:53:24Z</time></trkpt><trkpt lat="44.61072629992065" lon="10.131454544245496"><ele>382.0</ele><time>2026-05-03T09:53:25Z</time></trkpt><trkpt lat="44.6107348529779" lon="10.131690299982736"><ele>382.0</ele><time>2026-05-03T09:53:26Z</time></trkpt><trkpt lat="44.61071715868068" lon="10.131958495195557"><ele>386.66666666666663</ele><time>2026-05-03T09:53:27Z</time></trkpt><trkpt lat="44.61074470313104" lon="10.13222260951773"><ele>391.3333333333333</ele><time>2026-05-03T09:53:28Z</time></trkpt><trkpt lat="44.61083052404629" lon="10.132471085100255"><ele>396.0</ele><time>2026-05-03T09:53:29Z</time></trkpt><trkpt lat="44.61096328855041" lon="10.132729379037567"><ele>396.0</ele><time>2026-05-03T09:53:30Z</time></trkpt><trkpt lat="44.6110897834817" lon="10.132985490434631"><ele>396.0</ele><time>2026-05-03T09:53:31Z</time></trkpt><trkpt lat="44.611209643587515" lon="10.133267312031835"><ele>391.6666666666667</ele><time>2026-05-03T09:53:32Z</time></trkpt><trkpt lat="44.61133022131121" lon="10.133530918183826"><ele>387.33333333333337</ele><time>2026-05-03T09:53:33Z</time></trkpt><trkpt lat="44.61145423665047" lon="10.133759165325182"><ele>383.0</ele><time>2026-05-03T09:53:34Z</time></trkpt><trkpt lat="44.61157913530809" lon="10.133989209351832"><ele>381.0</ele><time>2026-05-03T09:53:35Z</time></trkpt><trkpt lat="44.61169618525066" lon="10.134184596907982"><ele>379.0</ele><time>2026-05-03T09:53:36Z</time></trkpt><trkpt lat="44.61182209449394" lon="10.134361439223397"><ele>377.0</ele><time>2026-05-03T09:53:37Z</time></trkpt><trkpt lat="44.61199653111753" lon="10.134503901402153"><ele>377.0</ele><time>2026-05-03T09:53:38Z</time></trkpt><trkpt lat="44.61221102135078" lon="10.134631066967785"><ele>377.0</ele><time>2026-05-03T09:53:39Z</time></trkpt><trkpt lat="44.61242386421408" lon="10.134772483387962"><ele>375.5</ele><time>2026-05-03T09:53:40Z</time></trkpt><trkpt lat="44.61264413190918" lon="10.134928779382733"><ele>374.0</ele><time>2026-05-03T09:53:41Z</time></trkpt><trkpt lat="44.612838240520134" lon="10.135064085594875"><ele>374.0</ele><time>2026-05-03T09:53:42Z</time></trkpt><trkpt lat="44.61300837382017" lon="10.135213073968055"><ele>374.0</ele><time>2026-05-03T09:53:43Z</time></trkpt><trkpt lat="44.61312463756893" lon="10.135426990365522"><ele>374.0</ele><time>2026-05-03T09:53:44Z</time></trkpt><trkpt lat="44.61323580926635" lon="10.135683667396806"><ele>383.5</ele><time>2026-05-03T09:53:44.999Z</time></trkpt><trkpt lat="44.61336693251926" lon="10.135965765540174"><ele>393.0</ele><time>2026-05-03T09:53:45.999Z</time></trkpt><trkpt lat="44.61349307838456" lon="10.136250716290046"><ele>382.5</ele><time>2026-05-03T09:53:46.999Z</time></trkpt><trkpt lat="44.61366307778053" lon="10.136531095643878"><ele>372.0</ele><time>2026-05-03T09:53:47.999Z</time></trkpt><trkpt lat="44.61383098961524" lon="10.1368516348797"><ele>372.0</ele><time>2026-05-03T09:53:48.999Z</time></trkpt><trkpt lat="44.61395022334055" lon="10.13704199358374"><ele>372.0</ele><time>2026-05-03T09:53:49.999Z</time></trkpt><trkpt lat="44.614081695922955" lon="10.137275300200631"><ele>372.0</ele><time>2026-05-03T09:53:50.999Z</time></trkpt><trkpt lat="44.614193288891954" lon="10.137531089243545"><ele>382.0</ele><time>2026-05-03T09:53:51.999Z</time></trkpt><trkpt lat="44.614294840520465" lon="10.137814230609639"><ele>392.0</ele><time>2026-05-03T09:53:52.999Z</time></trkpt><trkpt lat="44.6144050058365" lon="10.138115288523807"><ele>381.0</ele><time>2026-05-03T09:53:53.999Z</time></trkpt><trkpt lat="44.61452813371146" lon="10.138424511295593"><ele>370.0</ele><time>2026-05-03T09:53:54.999Z</time></trkpt><trkpt lat="44.614660452173865" lon="10.138720545210516"><ele>370.0</ele><time>2026-05-03T09:53:55.999Z</time></trkpt><trkpt lat="44.614790542319426" lon="10.138998341810401"><ele>370.0</ele><time>2026-05-03T09:53:56.999Z</time></trkpt><trkpt lat="44.6149195575365" lon="10.13927107328646"><ele>377.5</ele><time>2026-05-03T09:53:57.999Z</time></trkpt><trkpt lat="44.615045460763476" lon="10.139537225218069"><ele>385.0</ele><time>2026-05-03T09:53:58.999Z</time></trkpt><trkpt lat="44.61515871289146" lon="10.139813506499433"><ele>390.6666666666667</ele><time>2026-05-03T09:53:59.999Z</time></trkpt><trkpt lat="44.61525363035467" lon="10.140104839755876"><ele>396.33333333333337</ele><time>2026-05-03T09:54:00.999Z</time></trkpt><trkpt lat="44.615344542335784" lon="10.140388354274235"><ele>402.0</ele><time>2026-05-03T09:54:01.999Z</time></trkpt><trkpt lat="44.6154286087719" lon="10.140650363010439"><ele>392.0</ele><time>2026-05-03T09:54:02.999Z</time></trkpt><trkpt lat="44.61550886157478" lon="10.140900485547522"><ele>382.0</ele><time>2026-05-03T09:54:03.999Z</time></trkpt><trkpt lat="44.61558224360493" lon="10.141133849839566"><ele>372.0</ele><time>2026-05-03T09:54:04.999Z</time></trkpt><trkpt lat="44.615647585099374" lon="10.141353259311096"><ele>375.6666666666667</ele><time>2026-05-03T09:54:05.999Z</time></trkpt><trkpt lat="44.61568858665411" lon="10.141556625199453"><ele>379.33333333333337</ele><time>2026-05-03T09:54:06.999Z</time></trkpt><trkpt lat="44.61568935295955" lon="10.141761339276401"><ele>383.0</ele><time>2026-05-03T09:54:07.999Z</time></trkpt><trkpt lat="44.61568028049517" lon="10.141984220092953"><ele>383.0</ele><time>2026-05-03T09:54:08.999Z</time></trkpt><trkpt lat="44.61567075581988" lon="10.142196187276113"><ele>383.0</ele><time>2026-05-03T09:54:09.999Z</time></trkpt><trkpt lat="44.61566195451247" lon="10.142392057026074"><ele>383.0</ele><time>2026-05-03T09:54:10.999Z</time></trkpt><trkpt lat="44.61566309325426" lon="10.14258308984728"><ele>383.0</ele><time>2026-05-03T09:54:11.999Z</time></trkpt><trkpt lat="44.61567840286573" lon="10.142762909740695"><ele>382.33333333333337</ele><time>2026-05-03T09:54:12.999Z</time></trkpt><trkpt lat="44.615728870643764" lon="10.142963180954707"><ele>381.6666666666667</ele><time>2026-05-03T09:54:13.999Z</time></trkpt><trkpt lat="44.615830135780364" lon="10.143138052247693"><ele>381.0</ele><time>2026-05-03T09:54:14.999Z</time></trkpt><trkpt lat="44.61596329328793" lon="10.143351923876953"><ele>383.0</ele><time>2026-05-03T09:54:15.999Z</time></trkpt><trkpt lat="44.61608190086666" lon="10.14355175158355"><ele>385.0</ele><time>2026-05-03T09:54:16.999Z</time></trkpt><trkpt lat="44.61616347972034" lon="10.143721533760743"><ele>387.0</ele><time>2026-05-03T09:54:17.999Z</time></trkpt><trkpt lat="44.616217678414856" lon="10.143888872686189"><ele>379.0</ele><time>2026-05-03T09:54:18.999Z</time></trkpt><trkpt lat="44.61623243617752" lon="10.144068048522598"><ele>371.0</ele><time>2026-05-03T09:54:19.999Z</time></trkpt><trkpt lat="44.61621768154467" lon="10.1442595422123"><ele>363.0</ele><time>2026-05-03T09:54:20.999Z</time></trkpt><trkpt lat="44.61619799697242" lon="10.144524514425239"><ele>363.0</ele><time>2026-05-03T09:54:21.999Z</time></trkpt><trkpt lat="44.616170469870696" lon="10.144846194963353"><ele>363.0</ele><time>2026-05-03T09:54:22.999Z</time></trkpt><trkpt lat="44.616148674197284" lon="10.145194619721703"><ele>381.5</ele><time>2026-05-03T09:54:23.999Z</time></trkpt><trkpt lat="44.61610946293264" lon="10.145541662316349"><ele>400.0</ele><time>2026-05-03T09:54:24.999Z</time></trkpt><trkpt lat="44.61606700261965" lon="10.145868530301888"><ele>400.0</ele><time>2026-05-03T09:54:25.999Z</time></trkpt><trkpt lat="44.61602588392921" lon="10.14622171953706"><ele>400.0</ele><time>2026-05-03T09:54:26.999Z</time></trkpt><trkpt lat="44.61600571050125" lon="10.146591098002176"><ele>397.0</ele><time>2026-05-03T09:54:27.999Z</time></trkpt><trkpt lat="44.615996127234595" lon="10.146932996478796"><ele>394.0</ele><time>2026-05-03T09:54:28.999Z</time></trkpt><trkpt lat="44.61600181341935" lon="10.147244088272997"><ele>393.0</ele><time>2026-05-03T09:54:29.999Z</time></trkpt><trkpt lat="44.61602951903726" lon="10.147530063129139"><ele>392.0</ele><time>2026-05-03T09:54:30.999Z</time></trkpt><trkpt lat="44.61604266885578" lon="10.147783231182288"><ele>391.0</ele><time>2026-05-03T09:54:31.999Z</time></trkpt><trkpt lat="44.6160227326074" lon="10.148015638066745"><ele>388.6666666666667</ele><time>2026-05-03T09:54:32.999Z</time></trkpt><trkpt lat="44.615949233862565" lon="10.14825750532467"><ele>386.33333333333337</ele><time>2026-05-03T09:54:33.999Z</time></trkpt><trkpt lat="44.61583931025351" lon="10.148514569267537"><ele>384.0</ele><time>2026-05-03T09:54:34.999Z</time></trkpt><trkpt lat="44.61571539357221" lon="10.148775164526857"><ele>384.0</ele><time>2026-05-03T09:54:35.999Z</time></trkpt><trkpt lat="44.61560000945343" lon="10.14899808593565"><ele>384.0</ele><time>2026-05-03T09:54:36.999Z</time></trkpt><trkpt lat="44.61553394751176" lon="10.149244074913021"><ele>384.0</ele><time>2026-05-03T09:54:37.999Z</time></trkpt><trkpt lat="44.61550958274183" lon="10.149522422973043"><ele>380.0</ele><time>2026-05-03T09:54:38.999Z</time></trkpt><trkpt lat="44.6155086832502" lon="10.14982079024039"><ele>376.0</ele><time>2026-05-03T09:54:39.999Z</time></trkpt><trkpt lat="44.615490586622215" lon="10.150118516819985"><ele>372.0</ele><time>2026-05-03T09:54:41Z</time></trkpt><trkpt lat="44.61546679092229" lon="10.150389447497163"><ele>369.6666666666667</ele><time>2026-05-03T09:54:42Z</time></trkpt><trkpt lat="44.61546287188214" lon="10.150647915195583"><ele>367.33333333333337</ele><time>2026-05-03T09:54:43Z</time></trkpt><trkpt lat="44.61552151550389" lon="10.150919928914602"><ele>365.0</ele><time>2026-05-03T09:54:44Z</time></trkpt><trkpt lat="44.61563355579362" lon="10.151164574836377"><ele>364.6666666666667</ele><time>2026-05-03T09:54:45Z</time></trkpt><trkpt lat="44.61569782841162" lon="10.15143903606161"><ele>364.3333333333333</ele><time>2026-05-03T09:54:46Z</time></trkpt><trkpt lat="44.615727612756444" lon="10.151724662312589"><ele>364.0</ele><time>2026-05-03T09:54:47Z</time></trkpt><trkpt lat="44.615710280589276" lon="10.152043115515815"><ele>364.0</ele><time>2026-05-03T09:54:48Z</time></trkpt><trkpt lat="44.61566142399673" lon="10.152341377755857"><ele>364.0</ele><time>2026-05-03T09:54:49Z</time></trkpt><trkpt lat="44.615629326027936" lon="10.152624732489215"><ele>364.0</ele><time>2026-05-03T09:54:50Z</time></trkpt><trkpt lat="44.61560589479115" lon="10.152923967908857"><ele>364.0</ele><time>2026-05-03T09:54:51Z</time></trkpt><trkpt lat="44.61563049038353" lon="10.153239610730711"><ele>364.0</ele><time>2026-05-03T09:54:52Z</time></trkpt><trkpt lat="44.61565552641801" lon="10.153566258572747"><ele>364.0</ele><time>2026-05-03T09:54:53Z</time></trkpt><trkpt lat="44.615676333866375" lon="10.1538894253953"><ele>364.0</ele><time>2026-05-03T09:54:54Z</time></trkpt><trkpt lat="44.61568949404999" lon="10.154192786430514"><ele>364.0</ele><time>2026-05-03T09:54:55Z</time></trkpt><trkpt lat="44.61569663897609" lon="10.154477318432535"><ele>364.66666666666663</ele><time>2026-05-03T09:54:56Z</time></trkpt><trkpt lat="44.61570766799059" lon="10.154736805000688"><ele>365.3333333333333</ele><time>2026-05-03T09:54:57Z</time></trkpt><trkpt lat="44.615744369528635" lon="10.154986103728431"><ele>366.0</ele><time>2026-05-03T09:54:58Z</time></trkpt><trkpt lat="44.61582838711748" lon="10.155226932501481"><ele>363.6666666666667</ele><time>2026-05-03T09:54:59Z</time></trkpt><trkpt lat="44.61595317782347" lon="10.155472468642017"><ele>361.33333333333337</ele><time>2026-05-03T09:55:00Z</time></trkpt><trkpt lat="44.616096795297956" lon="10.155694493792058"><ele>359.0</ele><time>2026-05-03T09:55:01Z</time></trkpt><trkpt lat="44.61627692235445" lon="10.155883336878809"><ele>358.5</ele><time>2026-05-03T09:55:02Z</time></trkpt><trkpt lat="44.616466900292544" lon="10.156058921879815"><ele>358.0</ele><time>2026-05-03T09:55:03Z</time></trkpt><trkpt lat="44.616657638065234" lon="10.156223284440912"><ele>358.0</ele><time>2026-05-03T09:55:04Z</time></trkpt><trkpt lat="44.61684639441373" lon="10.156343314296736"><ele>358.0</ele><time>2026-05-03T09:55:05Z</time></trkpt><trkpt lat="44.6170202013847" lon="10.156441045616784"><ele>358.0</ele><time>2026-05-03T09:55:06Z</time></trkpt><trkpt lat="44.61715650991252" lon="10.156603703751257"><ele>356.0</ele><time>2026-05-03T09:55:07Z</time></trkpt><trkpt lat="44.61731098633717" lon="10.156807884716835"><ele>354.0</ele><time>2026-05-03T09:55:08Z</time></trkpt><trkpt lat="44.6174812759011" lon="10.157028335203675"><ele>352.0</ele><time>2026-05-03T09:55:09Z</time></trkpt><trkpt lat="44.617641508919924" lon="10.157253052535424"><ele>349.3333333333333</ele><time>2026-05-03T09:55:10Z</time></trkpt><trkpt lat="44.617782093054515" lon="10.157439952875652"><ele>346.6666666666667</ele><time>2026-05-03T09:55:11Z</time></trkpt><trkpt lat="44.61788361601898" lon="10.157627169627519"><ele>344.0</ele><time>2026-05-03T09:55:12Z</time></trkpt><trkpt lat="44.61796930996101" lon="10.15784061931516"><ele>344.0</ele><time>2026-05-03T09:55:13Z</time></trkpt><trkpt lat="44.61803402469956" lon="10.158107019204957"><ele>344.0</ele><time>2026-05-03T09:55:14Z</time></trkpt><trkpt lat="44.61805873163754" lon="10.1583570599072"><ele>344.0</ele><time>2026-05-03T09:55:15Z</time></trkpt><trkpt lat="44.618061604732254" lon="10.158619690410166"><ele>345.33333333333337</ele><time>2026-05-03T09:55:16Z</time></trkpt><trkpt lat="44.617994733779405" lon="10.158888133055166"><ele>346.6666666666667</ele><time>2026-05-03T09:55:17Z</time></trkpt><trkpt lat="44.61794957179682" lon="10.159186321830743"><ele>348.0</ele><time>2026-05-03T09:55:18Z</time></trkpt><trkpt lat="44.61787688204423" lon="10.159464225295826"><ele>348.0</ele><time>2026-05-03T09:55:19Z</time></trkpt><trkpt lat="44.61783422059434" lon="10.159702658549577"><ele>348.0</ele><time>2026-05-03T09:55:20Z</time></trkpt><trkpt lat="44.61783075169717" lon="10.159908902531791"><ele>348.0</ele><time>2026-05-03T09:55:21Z</time></trkpt><trkpt lat="44.617876576358015" lon="10.160087854540759"><ele>349.3333333333333</ele><time>2026-05-03T09:55:22Z</time></trkpt><trkpt lat="44.61800109665521" lon="10.160240774805562"><ele>350.66666666666663</ele><time>2026-05-03T09:55:23Z</time></trkpt><trkpt lat="44.61810350972283" lon="10.160424122097831"><ele>352.0</ele><time>2026-05-03T09:55:24Z</time></trkpt><trkpt lat="44.61818852624436" lon="10.160576848372521"><ele>352.0</ele><time>2026-05-03T09:55:25Z</time></trkpt><trkpt lat="44.61851091293471" lon="10.16049110963819"><ele>352.0</ele><time>2026-05-03T09:55:26Z</time></trkpt><trkpt lat="44.61863018020832" lon="10.16066950283139"><ele>345.5</ele><time>2026-05-03T09:55:27Z</time></trkpt><trkpt lat="44.61871410964806" lon="10.160948437605882"><ele>339.0</ele><time>2026-05-03T09:55:28Z</time></trkpt><trkpt lat="44.61877203382695" lon="10.161303977175065"><ele>341.3333333333333</ele><time>2026-05-03T09:55:29Z</time></trkpt><trkpt lat="44.61877684917324" lon="10.161536702608318"><ele>343.66666666666663</ele><time>2026-05-03T09:55:30Z</time></trkpt><trkpt lat="44.61882110094476" lon="10.161806476097018"><ele>346.0</ele><time>2026-05-03T09:55:31Z</time></trkpt><trkpt lat="44.61888882026923" lon="10.162060539159638"><ele>346.0</ele><time>2026-05-03T09:55:32Z</time></trkpt><trkpt lat="44.61896048200273" lon="10.162293433287099"><ele>346.0</ele><time>2026-05-03T09:55:33Z</time></trkpt><trkpt lat="44.61900582266413" lon="10.16253303185546"><ele>346.0</ele><time>2026-05-03T09:55:34Z</time></trkpt><trkpt lat="44.618969977519754" lon="10.162807642570437"><ele>347.66666666666663</ele><time>2026-05-03T09:55:35Z</time></trkpt><trkpt lat="44.61890634902883" lon="10.1630942903246"><ele>349.3333333333333</ele><time>2026-05-03T09:55:36Z</time></trkpt><trkpt lat="44.61884993898375" lon="10.16339810928839"><ele>351.0</ele><time>2026-05-03T09:55:37Z</time></trkpt><trkpt lat="44.61881309754156" lon="10.16370898187013"><ele>351.0</ele><time>2026-05-03T09:55:38Z</time></trkpt><trkpt lat="44.61880431795138" lon="10.164022748294368"><ele>351.0</ele><time>2026-05-03T09:55:39Z</time></trkpt><trkpt lat="44.61879289674385" lon="10.164317158155717"><ele>351.0</ele><time>2026-05-03T09:55:40Z</time></trkpt><trkpt lat="44.618794286437144" lon="10.164576948903122"><ele>351.3333333333333</ele><time>2026-05-03T09:55:41Z</time></trkpt><trkpt lat="44.618821869972486" lon="10.164810697357995"><ele>351.66666666666663</ele><time>2026-05-03T09:55:42Z</time></trkpt><trkpt lat="44.61889591952359" lon="10.165046350878866"><ele>352.0</ele><time>2026-05-03T09:55:43Z</time></trkpt><trkpt lat="44.61904424873854" lon="10.1652382860096"><ele>354.0</ele><time>2026-05-03T09:55:44Z</time></trkpt><trkpt lat="44.6192456292727" lon="10.165359944039427"><ele>356.0</ele><time>2026-05-03T09:55:45Z</time></trkpt><trkpt lat="44.61945579153492" lon="10.165473246671175"><ele>358.0</ele><time>2026-05-03T09:55:46Z</time></trkpt><trkpt lat="44.61965085711596" lon="10.16563087230471"><ele>357.0</ele><time>2026-05-03T09:55:47Z</time></trkpt><trkpt lat="44.619840386576385" lon="10.165785486184655"><ele>356.0</ele><time>2026-05-03T09:55:48Z</time></trkpt><trkpt lat="44.62002588667147" lon="10.165923976042166"><ele>355.0</ele><time>2026-05-03T09:55:49Z</time></trkpt><trkpt lat="44.62020186537007" lon="10.16606090594892"><ele>354.66666666666663</ele><time>2026-05-03T09:55:50Z</time></trkpt><trkpt lat="44.62036404684946" lon="10.166188340452035"><ele>354.3333333333333</ele><time>2026-05-03T09:55:51Z</time></trkpt><trkpt lat="44.62054038654509" lon="10.166328607255068"><ele>354.0</ele><time>2026-05-03T09:55:51.999Z</time></trkpt><trkpt lat="44.62071459208785" lon="10.166462123160533"><ele>354.6666666666667</ele><time>2026-05-03T09:55:52.999Z</time></trkpt><trkpt lat="44.62088071339691" lon="10.166593820390878"><ele>355.33333333333337</ele><time>2026-05-03T09:55:53.999Z</time></trkpt><trkpt lat="44.621038830895685" lon="10.166721984659723"><ele>356.0</ele><time>2026-05-03T09:55:54.999Z</time></trkpt><trkpt lat="44.62119430333948" lon="10.166845340080194"><ele>354.33333333333337</ele><time>2026-05-03T09:55:55.999Z</time></trkpt><trkpt lat="44.62134911800801" lon="10.166954967275826"><ele>352.6666666666667</ele><time>2026-05-03T09:55:56.999Z</time></trkpt><trkpt lat="44.62153205356589" lon="10.16703668515239"><ele>351.0</ele><time>2026-05-03T09:55:57.999Z</time></trkpt><trkpt lat="44.621731603257125" lon="10.167072282260545"><ele>351.0</ele><time>2026-05-03T09:55:58.999Z</time></trkpt><trkpt lat="44.6219509501564" lon="10.167086521769269"><ele>351.0</ele><time>2026-05-03T09:55:59.999Z</time></trkpt><trkpt lat="44.62216689768233" lon="10.16708518935389"><ele>351.0</ele><time>2026-05-03T09:56:00.999Z</time></trkpt><trkpt lat="44.62236113236668" lon="10.167082137948523"><ele>349.0</ele><time>2026-05-03T09:56:01.999Z</time></trkpt><trkpt lat="44.622555091399626" lon="10.167130171951342"><ele>347.0</ele><time>2026-05-03T09:56:02.999Z</time></trkpt><trkpt lat="44.622772196328505" lon="10.167162980132169"><ele>345.0</ele><time>2026-05-03T09:56:03.999Z</time></trkpt><trkpt lat="44.62299264224307" lon="10.167237535898513"><ele>342.3333333333333</ele><time>2026-05-03T09:56:04.999Z</time></trkpt><trkpt lat="44.623191238411856" lon="10.167291015734891"><ele>339.66666666666663</ele><time>2026-05-03T09:56:05.999Z</time></trkpt><trkpt lat="44.62337763178106" lon="10.167329729301613"><ele>337.0</ele><time>2026-05-03T09:56:06.999Z</time></trkpt><trkpt lat="44.62355408367222" lon="10.16732687130689"><ele>337.0</ele><time>2026-05-03T09:56:07.999Z</time></trkpt><trkpt lat="44.62373457038042" lon="10.167246157982055"><ele>337.0</ele><time>2026-05-03T09:56:08.999Z</time></trkpt><trkpt lat="44.62390907357808" lon="10.167120207953603"><ele>337.0</ele><time>2026-05-03T09:56:09.999Z</time></trkpt><trkpt lat="44.624060513856385" lon="10.167022498206718"><ele>337.0</ele><time>2026-05-03T09:56:10.999Z</time></trkpt><trkpt lat="44.62421937127445" lon="10.167041812308218"><ele>337.0</ele><time>2026-05-03T09:56:11.999Z</time></trkpt><trkpt lat="44.624369240138" lon="10.167106362188957"><ele>337.0</ele><time>2026-05-03T09:56:12.999Z</time></trkpt><trkpt lat="44.6245335578849" lon="10.167176412489315"><ele>336.0</ele><time>2026-05-03T09:56:13.999Z</time></trkpt><trkpt lat="44.624693869760215" lon="10.167279761548494"><ele>335.0</ele><time>2026-05-03T09:56:14.999Z</time></trkpt><trkpt lat="44.62485428385971" lon="10.167372160289288"><ele>334.0</ele><time>2026-05-03T09:56:15.999Z</time></trkpt><trkpt lat="44.625018069943664" lon="10.167462637956582"><ele>334.66666666666663</ele><time>2026-05-03T09:56:16.999Z</time></trkpt><trkpt lat="44.62518329924819" lon="10.167554076088665"><ele>335.3333333333333</ele><time>2026-05-03T09:56:17.999Z</time></trkpt><trkpt lat="44.625346630779546" lon="10.16764906658781"><ele>336.0</ele><time>2026-05-03T09:56:18.999Z</time></trkpt><trkpt lat="44.62551069002055" lon="10.167745230582977"><ele>336.0</ele><time>2026-05-03T09:56:19.999Z</time></trkpt><trkpt lat="44.62567480051013" lon="10.16784063270883"><ele>336.0</ele><time>2026-05-03T09:56:20.999Z</time></trkpt><trkpt lat="44.6258401210705" lon="10.167926518539142"><ele>336.0</ele><time>2026-05-03T09:56:21.999Z</time></trkpt><trkpt lat="44.626003335268834" lon="10.168012416998659"><ele>335.0</ele><time>2026-05-03T09:56:22.999Z</time></trkpt><trkpt lat="44.626167193654716" lon="10.168100157001177"><ele>334.0</ele><time>2026-05-03T09:56:23.999Z</time></trkpt><trkpt lat="44.62632260672203" lon="10.16818940576284"><ele>333.0</ele><time>2026-05-03T09:56:24.999Z</time></trkpt><trkpt lat="44.62647588001698" lon="10.168278015808102"><ele>333.0</ele><time>2026-05-03T09:56:25.999Z</time></trkpt><trkpt lat="44.62663395059739" lon="10.168366219296582"><ele>333.0</ele><time>2026-05-03T09:56:26.999Z</time></trkpt><trkpt lat="44.626783688118536" lon="10.168450367793856"><ele>333.0</ele><time>2026-05-03T09:56:27.999Z</time></trkpt><trkpt lat="44.62693927329342" lon="10.168543119386975"><ele>330.6666666666667</ele><time>2026-05-03T09:56:28.999Z</time></trkpt><trkpt lat="44.627087278320424" lon="10.16865216704915"><ele>328.33333333333337</ele><time>2026-05-03T09:56:29.999Z</time></trkpt><trkpt lat="44.62722882952051" lon="10.168785409476335"><ele>326.0</ele><time>2026-05-03T09:56:30.999Z</time></trkpt><trkpt lat="44.6273574034461" lon="10.168925939009858"><ele>327.25</ele><time>2026-05-03T09:56:31.999Z</time></trkpt><trkpt lat="44.62746625601395" lon="10.169057628985321"><ele>328.5</ele><time>2026-05-03T09:56:32.999Z</time></trkpt><trkpt lat="44.627556470333154" lon="10.169149501643743"><ele>329.75</ele><time>2026-05-03T09:56:33.999Z</time></trkpt><trkpt lat="44.627695442154625" lon="10.169327397319229"><ele>331.0</ele><time>2026-05-03T09:56:34.999Z</time></trkpt><trkpt lat="44.627819725014916" lon="10.169467666926353"><ele>329.0</ele><time>2026-05-03T09:56:35.999Z</time></trkpt><trkpt lat="44.627933800796356" lon="10.169616393198682"><ele>327.0</ele><time>2026-05-03T09:56:36.999Z</time></trkpt><trkpt lat="44.62804025238661" lon="10.169777473182071"><ele>325.0</ele><time>2026-05-03T09:56:37.999Z</time></trkpt><trkpt lat="44.62813220515229" lon="10.16993719110337"><ele>325.0</ele><time>2026-05-03T09:56:38.999Z</time></trkpt><trkpt lat="44.62818619357076" lon="10.170079302737337"><ele>325.0</ele><time>2026-05-03T09:56:39.999Z</time></trkpt><trkpt lat="44.6283146755641" lon="10.17033793141361"><ele>325.0</ele><time>2026-05-03T09:56:40.999Z</time></trkpt><trkpt lat="44.62840971982827" lon="10.170522140933764"><ele>324.0</ele><time>2026-05-03T09:56:41.999Z</time></trkpt><trkpt lat="44.62851394588806" lon="10.170728792741976"><ele>323.0</ele><time>2026-05-03T09:56:42.999Z</time></trkpt><trkpt lat="44.628624118121486" lon="10.170916577921595"><ele>322.0</ele><time>2026-05-03T09:56:43.999Z</time></trkpt><trkpt lat="44.62873127617509" lon="10.17102709362712"><ele>322.0</ele><time>2026-05-03T09:56:44.999Z</time></trkpt><trkpt lat="44.628873068829165" lon="10.171106823940375"><ele>322.0</ele><time>2026-05-03T09:56:45.999Z</time></trkpt><trkpt lat="44.6290377934224" lon="10.171169555381002"><ele>322.0</ele><time>2026-05-03T09:56:47Z</time></trkpt><trkpt lat="44.62921846495265" lon="10.171208516086518"><ele>322.0</ele><time>2026-05-03T09:56:48Z</time></trkpt><trkpt lat="44.6293892784724" lon="10.17123561223873"><ele>322.0</ele><time>2026-05-03T09:56:49Z</time></trkpt><trkpt lat="44.6295534732911" lon="10.171266425173005"><ele>322.0</ele><time>2026-05-03T09:56:50Z</time></trkpt><trkpt lat="44.62970885183817" lon="10.171297369485442"><ele>321.0</ele><time>2026-05-03T09:56:51Z</time></trkpt><trkpt lat="44.6298554453491" lon="10.171328273103818"><ele>320.0</ele><time>2026-05-03T09:56:52Z</time></trkpt><trkpt lat="44.6299912751062" lon="10.171358249055139"><ele>319.0</ele><time>2026-05-03T09:56:53Z</time></trkpt><trkpt lat="44.63013010906042" lon="10.171387284614523"><ele>318.0</ele><time>2026-05-03T09:56:54Z</time></trkpt><trkpt lat="44.630266485134065" lon="10.171428965714925"><ele>318.0</ele><time>2026-05-03T09:56:55Z</time></trkpt><trkpt lat="44.63038659312441" lon="10.171476753647063"><ele>318.0</ele><time>2026-05-03T09:56:56Z</time></trkpt><trkpt lat="44.63049203573855" lon="10.171555293599233"><ele>318.0</ele><time>2026-05-03T09:56:57Z</time></trkpt><trkpt lat="44.63058812773402" lon="10.171669259593864"><ele>318.0</ele><time>2026-05-03T09:56:58Z</time></trkpt><trkpt lat="44.63067500515156" lon="10.171815680737181"><ele>318.0</ele><time>2026-05-03T09:56:59Z</time></trkpt><trkpt lat="44.63076232940494" lon="10.17196147859698"><ele>318.0</ele><time>2026-05-03T09:57:00Z</time></trkpt><trkpt lat="44.63084420171008" lon="10.17208816861163"><ele>318.0</ele><time>2026-05-03T09:57:01Z</time></trkpt><trkpt lat="44.630921073543945" lon="10.172195540123262"><ele>318.0</ele><time>2026-05-03T09:57:02Z</time></trkpt><trkpt lat="44.6310046597632" lon="10.17227738301303"><ele>318.0</ele><time>2026-05-03T09:57:03Z</time></trkpt><trkpt lat="44.63110511141386" lon="10.172308904512574"><ele>318.0</ele><time>2026-05-03T09:57:04Z</time></trkpt><trkpt lat="44.63122135685926" lon="10.172305451599174"><ele>318.0</ele><time>2026-05-03T09:57:05Z</time></trkpt><trkpt lat="44.631334568346006" lon="10.172284015018084"><ele>318.0</ele><time>2026-05-03T09:57:06Z</time></trkpt><trkpt lat="44.631435422913896" lon="10.172254951472095"><ele>318.0</ele><time>2026-05-03T09:57:07Z</time></trkpt><trkpt lat="44.63154004227018" lon="10.172238298799044"><ele>316.5</ele><time>2026-05-03T09:57:08Z</time></trkpt><trkpt lat="44.63165685569854" lon="10.172228027185863"><ele>315.0</ele><time>2026-05-03T09:57:09Z</time></trkpt><trkpt lat="44.63178723254369" lon="10.17221337753739"><ele>313.5</ele><time>2026-05-03T09:57:10Z</time></trkpt><trkpt lat="44.63191216067666" lon="10.17219439562671"><ele>312.0</ele><time>2026-05-03T09:57:11Z</time></trkpt><trkpt lat="44.63204425894514" lon="10.172174898024453"><ele>312.0</ele><time>2026-05-03T09:57:12Z</time></trkpt><trkpt lat="44.63217436160576" lon="10.17212923419517"><ele>312.0</ele><time>2026-05-03T09:57:13Z</time></trkpt><trkpt lat="44.632296706249484" lon="10.172042582529123"><ele>312.0</ele><time>2026-05-03T09:57:14Z</time></trkpt><trkpt lat="44.63241547917152" lon="10.171926823502973"><ele>312.0</ele><time>2026-05-03T09:57:15Z</time></trkpt><trkpt lat="44.63253390887223" lon="10.171813279411609"><ele>312.0</ele><time>2026-05-03T09:57:16Z</time></trkpt><trkpt lat="44.632654758157024" lon="10.171710527690113"><ele>312.0</ele><time>2026-05-03T09:57:17Z</time></trkpt><trkpt lat="44.6327829676265" lon="10.171629325413365"><ele>312.0</ele><time>2026-05-03T09:57:18Z</time></trkpt><trkpt lat="44.632914583157586" lon="10.171573165626388"><ele>312.0</ele><time>2026-05-03T09:57:19Z</time></trkpt><trkpt lat="44.633055688877064" lon="10.171573599204747"><ele>312.3333333333333</ele><time>2026-05-03T09:57:20Z</time></trkpt><trkpt lat="44.63320292850966" lon="10.17160819280626"><ele>312.66666666666663</ele><time>2026-05-03T09:57:21Z</time></trkpt><trkpt lat="44.63334855870337" lon="10.171664849220146"><ele>313.0</ele><time>2026-05-03T09:57:22Z</time></trkpt><trkpt lat="44.633490048162756" lon="10.171749205633045"><ele>313.0</ele><time>2026-05-03T09:57:23Z</time></trkpt><trkpt lat="44.63363013286496" lon="10.171846165616973"><ele>313.0</ele><time>2026-05-03T09:57:24Z</time></trkpt><trkpt lat="44.63377568804952" lon="10.171926947064149"><ele>313.0</ele><time>2026-05-03T09:57:25Z</time></trkpt><trkpt lat="44.633937196448876" lon="10.171989695484415"><ele>311.25</ele><time>2026-05-03T09:57:26Z</time></trkpt><trkpt lat="44.634092398840004" lon="10.172030839565668"><ele>309.5</ele><time>2026-05-03T09:57:27Z</time></trkpt><trkpt lat="44.634227680715654" lon="10.172062436014397"><ele>307.75</ele><time>2026-05-03T09:57:28Z</time></trkpt><trkpt lat="44.634360034968736" lon="10.17210393988711"><ele>306.0</ele><time>2026-05-03T09:57:29Z</time></trkpt><trkpt lat="44.63447828658878" lon="10.172144345907148"><ele>305.6</ele><time>2026-05-03T09:57:30Z</time></trkpt><trkpt lat="44.63457086176451" lon="10.1721835169385"><ele>305.20000000000005</ele><time>2026-05-03T09:57:31Z</time></trkpt><trkpt lat="44.634648514903056" lon="10.17221632599032"><ele>304.79999999999995</ele><time>2026-05-03T09:57:32Z</time></trkpt><trkpt lat="44.63471055434162" lon="10.172261470245196"><ele>304.4</ele><time>2026-05-03T09:57:34Z</time></trkpt><trkpt lat="44.634758209224984" lon="10.172074909910977"><ele>304.0</ele><time>2026-05-03T09:57:35Z</time></trkpt><trkpt lat="44.6347701912772" lon="10.171968771743252"><ele>304.0</ele><time>2026-05-03T09:57:36Z</time></trkpt><trkpt lat="44.6347914317926" lon="10.171842476916591"><ele>304.0</ele><time>2026-05-03T09:57:37Z</time></trkpt><trkpt lat="44.634806458260165" lon="10.171691181111242"><ele>304.0</ele><time>2026-05-03T09:57:38Z</time></trkpt><trkpt lat="44.63482257142333" lon="10.171525529018234"><ele>304.0</ele><time>2026-05-03T09:57:39Z</time></trkpt><trkpt lat="44.634838801424046" lon="10.171352861925564"><ele>304.0</ele><time>2026-05-03T09:57:40Z</time></trkpt><trkpt lat="44.63485378983657" lon="10.171193404028969"><ele>304.2</ele><time>2026-05-03T09:57:41Z</time></trkpt><trkpt lat="44.634867567673155" lon="10.17104250820844"><ele>304.4</ele><time>2026-05-03T09:57:42Z</time></trkpt><trkpt lat="44.63488101829677" lon="10.170892999494109"><ele>304.6</ele><time>2026-05-03T09:57:43Z</time></trkpt><trkpt lat="44.634893537346855" lon="10.170756681469362"><ele>304.8</ele><time>2026-05-03T09:57:44Z</time></trkpt><trkpt lat="44.63490560696105" lon="10.170627849504726"><ele>305.0</ele><time>2026-05-03T09:57:45Z</time></trkpt><trkpt lat="44.63492068432039" lon="10.170503158658725"><ele>305.4</ele><time>2026-05-03T09:57:46Z</time></trkpt><trkpt lat="44.63492461204624" lon="10.170360900130337"><ele>305.8</ele><time>2026-05-03T09:57:47Z</time></trkpt><trkpt lat="44.63495057180132" lon="10.170212742119427"><ele>306.2</ele><time>2026-05-03T09:57:48Z</time></trkpt><trkpt lat="44.63499176542576" lon="10.170071847298386"><ele>306.6</ele><time>2026-05-03T09:57:49Z</time></trkpt><trkpt lat="44.63505266619117" lon="10.169988599620984"><ele>307.0</ele><time>2026-05-03T09:57:50Z</time></trkpt><trkpt lat="44.63511694457689" lon="10.169956355122801"><ele>307.0</ele><time>2026-05-03T09:57:51Z</time></trkpt><trkpt lat="44.63519464390065" lon="10.169940382284818"><ele>307.0</ele><time>2026-05-03T09:57:52Z</time></trkpt><trkpt lat="44.63528392433589" lon="10.169922731337662"><ele>307.0</ele><time>2026-05-03T09:57:53Z</time></trkpt><trkpt lat="44.63538861718799" lon="10.16994542688772"><ele>307.0</ele><time>2026-05-03T09:57:54Z</time></trkpt><trkpt lat="44.635496840675145" lon="10.170005090242375"><ele>307.0</ele><time>2026-05-03T09:57:55Z</time></trkpt><trkpt lat="44.63559422088177" lon="10.170092612511581"><ele>307.25</ele><time>2026-05-03T09:57:56Z</time></trkpt><trkpt lat="44.63567712404688" lon="10.170178975082885"><ele>307.5</ele><time>2026-05-03T09:57:57Z</time></trkpt><trkpt lat="44.635769003966644" lon="10.170245434320005"><ele>307.75</ele><time>2026-05-03T09:57:58Z</time></trkpt><trkpt lat="44.6358939910619" lon="10.170298405431742"><ele>308.0</ele><time>2026-05-03T09:57:58.999Z</time></trkpt><trkpt lat="44.636034553486496" lon="10.170345300175894"><ele>308.6666666666667</ele><time>2026-05-03T09:57:59.999Z</time></trkpt><trkpt lat="44.636178405941806" lon="10.170402210151709"><ele>309.3333333333333</ele><time>2026-05-03T09:58:00.999Z</time></trkpt><trkpt lat="44.63633395999615" lon="10.17046970036085"><ele>310.0</ele><time>2026-05-03T09:58:01.999Z</time></trkpt><trkpt lat="44.63649729857828" lon="10.170532024665022"><ele>310.0</ele><time>2026-05-03T09:58:02.999Z</time></trkpt><trkpt lat="44.636680902250085" lon="10.170605865775986"><ele>310.0</ele><time>2026-05-03T09:58:03.999Z</time></trkpt><trkpt lat="44.636852159281545" lon="10.17067045676633"><ele>310.0</ele><time>2026-05-03T09:58:04.999Z</time></trkpt><trkpt lat="44.63703117228848" lon="10.17074437784843"><ele>307.0</ele><time>2026-05-03T09:58:05.999Z</time></trkpt><trkpt lat="44.63720630137323" lon="10.170793073682173"><ele>304.0</ele><time>2026-05-03T09:58:06.999Z</time></trkpt><trkpt lat="44.63739312623683" lon="10.170866709872904"><ele>301.0</ele><time>2026-05-03T09:58:07.999Z</time></trkpt><trkpt lat="44.63757321444207" lon="10.170896214412762"><ele>301.0</ele><time>2026-05-03T09:58:08.999Z</time></trkpt><trkpt lat="44.637770521480455" lon="10.170909664692074"><ele>301.0</ele><time>2026-05-03T09:58:09.999Z</time></trkpt><trkpt lat="44.637995282149284" lon="10.170916708252678"><ele>301.0</ele><time>2026-05-03T09:58:10.999Z</time></trkpt><trkpt lat="44.638187365379196" lon="10.170933304386567"><ele>302.3333333333333</ele><time>2026-05-03T09:58:11.999Z</time></trkpt><trkpt lat="44.638346849883405" lon="10.170969972758273"><ele>303.6666666666667</ele><time>2026-05-03T09:58:12.999Z</time></trkpt><trkpt lat="44.63848534065387" lon="10.171032263883639"><ele>305.0</ele><time>2026-05-03T09:58:13.999Z</time></trkpt><trkpt lat="44.638624347350415" lon="10.171089352316326"><ele>307.0</ele><time>2026-05-03T09:58:14.999Z</time></trkpt><trkpt lat="44.638755312423356" lon="10.171176041741871"><ele>309.0</ele><time>2026-05-03T09:58:15.999Z</time></trkpt><trkpt lat="44.63889796075523" lon="10.171261101002479"><ele>311.0</ele><time>2026-05-03T09:58:16.999Z</time></trkpt><trkpt lat="44.63904469707871" lon="10.171345864077367"><ele>311.0</ele><time>2026-05-03T09:58:17.999Z</time></trkpt><trkpt lat="44.63919819994016" lon="10.171435313346402"><ele>311.0</ele><time>2026-05-03T09:58:18.999Z</time></trkpt><trkpt lat="44.639347066124905" lon="10.171524264899103"><ele>311.0</ele><time>2026-05-03T09:58:19.999Z</time></trkpt><trkpt lat="44.639504127181546" lon="10.17160227840418"><ele>308.6666666666667</ele><time>2026-05-03T09:58:20.999Z</time></trkpt><trkpt lat="44.63966489219598" lon="10.171677215105843"><ele>306.3333333333333</ele><time>2026-05-03T09:58:21.999Z</time></trkpt><trkpt lat="44.63984048635718" lon="10.171749303007863"><ele>304.0</ele><time>2026-05-03T09:58:22.999Z</time></trkpt><trkpt lat="44.64001318476962" lon="10.171808470223958"><ele>304.0</ele><time>2026-05-03T09:58:23.999Z</time></trkpt><trkpt lat="44.6401611742377" lon="10.171874871039055"><ele>304.0</ele><time>2026-05-03T09:58:24.999Z</time></trkpt><trkpt lat="44.64031367446624" lon="10.171941099289617"><ele>304.0</ele><time>2026-05-03T09:58:25.999Z</time></trkpt><trkpt lat="44.6404446334322" lon="10.171996765834793"><ele>306.3333333333333</ele><time>2026-05-03T09:58:26.999Z</time></trkpt><trkpt lat="44.64057851224806" lon="10.172066477851049"><ele>308.6666666666667</ele><time>2026-05-03T09:58:27.999Z</time></trkpt><trkpt lat="44.64072398572248" lon="10.172164927201804"><ele>311.0</ele><time>2026-05-03T09:58:28.999Z</time></trkpt><trkpt lat="44.64086354938233" lon="10.172316355439275"><ele>305.5</ele><time>2026-05-03T09:58:29.999Z</time></trkpt><trkpt lat="44.641030909945755" lon="10.172501118236653"><ele>300.0</ele><time>2026-05-03T09:58:30.999Z</time></trkpt><trkpt lat="44.6412233297447" lon="10.17272321157627"><ele>300.0</ele><time>2026-05-03T09:58:31.999Z</time></trkpt><trkpt lat="44.64145372996876" lon="10.172966459812741"><ele>300.0</ele><time>2026-05-03T09:58:32.999Z</time></trkpt><trkpt lat="44.64163375853561" lon="10.173204669452298"><ele>299.5</ele><time>2026-05-03T09:58:33.999Z</time></trkpt><trkpt lat="44.641807230415594" lon="10.173437243903303"><ele>299.0</ele><time>2026-05-03T09:58:34.999Z</time></trkpt><trkpt lat="44.6419883916684" lon="10.173658794848247"><ele>299.0</ele><time>2026-05-03T09:58:35.999Z</time></trkpt><trkpt lat="44.64224695225056" lon="10.173902667351626"><ele>299.0</ele><time>2026-05-03T09:58:36.999Z</time></trkpt><trkpt lat="44.64242825513464" lon="10.174109529420974"><ele>297.6666666666667</ele><time>2026-05-03T09:58:37.999Z</time></trkpt><trkpt lat="44.64258720362712" lon="10.174303601979247"><ele>296.3333333333333</ele><time>2026-05-03T09:58:38.999Z</time></trkpt><trkpt lat="44.64275623816039" lon="10.174490497343838"><ele>295.0</ele><time>2026-05-03T09:58:39.999Z</time></trkpt><trkpt lat="44.64293721645263" lon="10.174658845728187"><ele>295.0</ele><time>2026-05-03T09:58:40.999Z</time></trkpt><trkpt lat="44.64315225733075" lon="10.174794005906652"><ele>295.0</ele><time>2026-05-03T09:58:41.999Z</time></trkpt><trkpt lat="44.64339155501772" lon="10.174925977227756"><ele>293.0</ele><time>2026-05-03T09:58:42.999Z</time></trkpt><trkpt lat="44.64363525012632" lon="10.175071118292456"><ele>291.0</ele><time>2026-05-03T09:58:43.999Z</time></trkpt><trkpt lat="44.643873416105464" lon="10.175215230752693"><ele>291.0</ele><time>2026-05-03T09:58:44.999Z</time></trkpt><trkpt lat="44.64411962569371" lon="10.175370649924218"><ele>291.0</ele><time>2026-05-03T09:58:45.999Z</time></trkpt><trkpt lat="44.64434158462876" lon="10.175515409003863"><ele>290.6666666666667</ele><time>2026-05-03T09:58:46.999Z</time></trkpt><trkpt lat="44.64454212951997" lon="10.175649482965088"><ele>290.33333333333337</ele><time>2026-05-03T09:58:47.999Z</time></trkpt><trkpt lat="44.644747281852986" lon="10.175778590800077"><ele>290.0</ele><time>2026-05-03T09:58:48.999Z</time></trkpt><trkpt lat="44.64495995547055" lon="10.17589717676716"><ele>290.0</ele><time>2026-05-03T09:58:49.999Z</time></trkpt><trkpt lat="44.64518936036362" lon="10.176016261665158"><ele>290.0</ele><time>2026-05-03T09:58:50.999Z</time></trkpt><trkpt lat="44.64542925296772" lon="10.176103587305999"><ele>289.0</ele><time>2026-05-03T09:58:51.999Z</time></trkpt><trkpt lat="44.64566785697962" lon="10.176148822741096"><ele>288.0</ele><time>2026-05-03T09:58:53Z</time></trkpt><trkpt lat="44.645908962733394" lon="10.176158196031897"><ele>288.5</ele><time>2026-05-03T09:58:54Z</time></trkpt><trkpt lat="44.64616555340109" lon="10.176145453955394"><ele>289.0</ele><time>2026-05-03T09:58:55Z</time></trkpt><trkpt lat="44.646423678302895" lon="10.176136168268075"><ele>289.0</ele><time>2026-05-03T09:58:56Z</time></trkpt><trkpt lat="44.64666848649825" lon="10.176135662521618"><ele>289.0</ele><time>2026-05-03T09:58:57Z</time></trkpt><trkpt lat="44.64691182528916" lon="10.17613974170258"><ele>288.5</ele><time>2026-05-03T09:58:58Z</time></trkpt><trkpt lat="44.64716848369137" lon="10.176156444363594"><ele>288.0</ele><time>2026-05-03T09:58:59Z</time></trkpt><trkpt lat="44.6474102294435" lon="10.176240735949817"><ele>288.0</ele><time>2026-05-03T09:59:00Z</time></trkpt><trkpt lat="44.64766822629268" lon="10.176315620806124"><ele>288.0</ele><time>2026-05-03T09:59:01Z</time></trkpt><trkpt lat="44.64792584866693" lon="10.176444644621375"><ele>285.5</ele><time>2026-05-03T09:59:02Z</time></trkpt><trkpt lat="44.64818472178701" lon="10.176551839637245"><ele>283.0</ele><time>2026-05-03T09:59:03Z</time></trkpt><trkpt lat="44.648450332334455" lon="10.176650995121657"><ele>284.0</ele><time>2026-05-03T09:59:04Z</time></trkpt><trkpt lat="44.64870147024845" lon="10.176747670675724"><ele>285.0</ele><time>2026-05-03T09:59:05Z</time></trkpt><trkpt lat="44.64895646039087" lon="10.176848208256077"><ele>285.0</ele><time>2026-05-03T09:59:06Z</time></trkpt><trkpt lat="44.64920804105804" lon="10.17695145052399"><ele>285.0</ele><time>2026-05-03T09:59:07Z</time></trkpt><trkpt lat="44.64945930138485" lon="10.17705442151922"><ele>285.5</ele><time>2026-05-03T09:59:08Z</time></trkpt><trkpt lat="44.64971020416007" lon="10.177151406779547"><ele>286.0</ele><time>2026-05-03T09:59:09Z</time></trkpt><trkpt lat="44.649958004057375" lon="10.177243216826163"><ele>286.0</ele><time>2026-05-03T09:59:10Z</time></trkpt><trkpt lat="44.650196694505865" lon="10.177338215185992"><ele>286.0</ele><time>2026-05-03T09:59:11Z</time></trkpt><trkpt lat="44.65043210831489" lon="10.17745196275881"><ele>285.0</ele><time>2026-05-03T09:59:12Z</time></trkpt><trkpt lat="44.65065800452392" lon="10.177599641221661"><ele>284.0</ele><time>2026-05-03T09:59:13Z</time></trkpt><trkpt lat="44.65089454983217" lon="10.177778024565487"><ele>284.0</ele><time>2026-05-03T09:59:14Z</time></trkpt><trkpt lat="44.65113760797431" lon="10.177957925420369"><ele>284.0</ele><time>2026-05-03T09:59:15Z</time></trkpt><trkpt lat="44.65138160507902" lon="10.178124414534148"><ele>280.0</ele><time>2026-05-03T09:59:16Z</time></trkpt><trkpt lat="44.651625583386625" lon="10.178289051656302"><ele>276.0</ele><time>2026-05-03T09:59:17Z</time></trkpt><trkpt lat="44.651866127046944" lon="10.17845213178416"><ele>277.5</ele><time>2026-05-03T09:59:18Z</time></trkpt><trkpt lat="44.652110354474196" lon="10.178619574060134"><ele>279.0</ele><time>2026-05-03T09:59:19Z</time></trkpt><trkpt lat="44.65235241330736" lon="10.178780088940613"><ele>279.0</ele><time>2026-05-03T09:59:20Z</time></trkpt><trkpt lat="44.65259346721225" lon="10.178944299183827"><ele>279.0</ele><time>2026-05-03T09:59:21Z</time></trkpt><trkpt lat="44.65282902621489" lon="10.179112746834512"><ele>278.5</ele><time>2026-05-03T09:59:22Z</time></trkpt><trkpt lat="44.65306568629171" lon="10.17928398719498"><ele>278.0</ele><time>2026-05-03T09:59:23Z</time></trkpt><trkpt lat="44.653302590088465" lon="10.179451845151652"><ele>278.0</ele><time>2026-05-03T09:59:24Z</time></trkpt><trkpt lat="44.653535574379305" lon="10.179618517042725"><ele>278.0</ele><time>2026-05-03T09:59:25Z</time></trkpt><trkpt lat="44.65376466750784" lon="10.179778273260332"><ele>275.0</ele><time>2026-05-03T09:59:26Z</time></trkpt><trkpt lat="44.653993143780134" lon="10.17993416563111"><ele>272.0</ele><time>2026-05-03T09:59:27Z</time></trkpt><trkpt lat="44.65422032960527" lon="10.180087384631546"><ele>272.0</ele><time>2026-05-03T09:59:28Z</time></trkpt><trkpt lat="44.65444550012254" lon="10.18023959572041"><ele>272.0</ele><time>2026-05-03T09:59:29Z</time></trkpt><trkpt lat="44.654671754164" lon="10.180398817515181"><ele>270.0</ele><time>2026-05-03T09:59:30Z</time></trkpt><trkpt lat="44.65489844948072" lon="10.18055868941943"><ele>268.0</ele><time>2026-05-03T09:59:31Z</time></trkpt><trkpt lat="44.65511718584341" lon="10.180712266628575"><ele>270.0</ele><time>2026-05-03T09:59:32Z</time></trkpt><trkpt lat="44.655333944538384" lon="10.180867244915788"><ele>272.0</ele><time>2026-05-03T09:59:33Z</time></trkpt><trkpt lat="44.655541236533985" lon="10.181011236932775"><ele>272.0</ele><time>2026-05-03T09:59:34Z</time></trkpt><trkpt lat="44.65572960393358" lon="10.18114292654211"><ele>272.0</ele><time>2026-05-03T09:59:35Z</time></trkpt><trkpt lat="44.65592090413357" lon="10.181278975479175"><ele>272.0</ele><time>2026-05-03T09:59:36Z</time></trkpt><trkpt lat="44.65608677298756" lon="10.181394105534041"><ele>270.6666666666667</ele><time>2026-05-03T09:59:37Z</time></trkpt><trkpt lat="44.65624013456259" lon="10.181495964685828"><ele>269.3333333333333</ele><time>2026-05-03T09:59:38Z</time></trkpt><trkpt lat="44.65637255941024" lon="10.181588838678412"><ele>268.0</ele><time>2026-05-03T09:59:39Z</time></trkpt><trkpt lat="44.65649512190438" lon="10.181678851840443"><ele>268.0</ele><time>2026-05-03T09:59:40Z</time></trkpt><trkpt lat="44.656600661872794" lon="10.181756878585068"><ele>268.0</ele><time>2026-05-03T09:59:41Z</time></trkpt><trkpt lat="44.65670138233312" lon="10.18182643687455"><ele>268.0</ele><time>2026-05-03T09:59:42Z</time></trkpt><trkpt lat="44.656811194286256" lon="10.181902214805032"><ele>268.0</ele><time>2026-05-03T09:59:43Z</time></trkpt><trkpt lat="44.65692509127302" lon="10.181972151840732"><ele>270.0</ele><time>2026-05-03T09:59:44Z</time></trkpt><trkpt lat="44.65705624148511" lon="10.182040534451446"><ele>272.0</ele><time>2026-05-03T09:59:45Z</time></trkpt><trkpt lat="44.65719268250764" lon="10.182136031773672"><ele>274.0</ele><time>2026-05-03T09:59:46Z</time></trkpt><trkpt lat="44.657328722421816" lon="10.182247932144518"><ele>270.66666666666663</ele><time>2026-05-03T09:59:47Z</time></trkpt><trkpt lat="44.65747669491963" lon="10.182360241653802"><ele>267.3333333333333</ele><time>2026-05-03T09:59:48Z</time></trkpt><trkpt lat="44.65761364345688" lon="10.182453991701324"><ele>264.0</ele><time>2026-05-03T09:59:49Z</time></trkpt><trkpt lat="44.65776924804588" lon="10.18255335608851"><ele>265.3333333333333</ele><time>2026-05-03T09:59:50Z</time></trkpt><trkpt lat="44.657915650435115" lon="10.182649360696704"><ele>266.66666666666663</ele><time>2026-05-03T09:59:51Z</time></trkpt><trkpt lat="44.658061336613194" lon="10.182747984251375"><ele>268.0</ele><time>2026-05-03T09:59:52Z</time></trkpt><trkpt lat="44.65820474337242" lon="10.182854656091758"><ele>268.0</ele><time>2026-05-03T09:59:53Z</time></trkpt><trkpt lat="44.658352811983605" lon="10.182967561744272"><ele>268.0</ele><time>2026-05-03T09:59:54Z</time></trkpt><trkpt lat="44.65851748434606" lon="10.18308682968405"><ele>268.0</ele><time>2026-05-03T09:59:55Z</time></trkpt><trkpt lat="44.65869704213204" lon="10.183208850459058"><ele>266.66666666666663</ele><time>2026-05-03T09:59:56Z</time></trkpt><trkpt lat="44.65887902913752" lon="10.183329436352846"><ele>265.3333333333333</ele><time>2026-05-03T09:59:57Z</time></trkpt><trkpt lat="44.65907849215848" lon="10.183470884531177"><ele>264.0</ele><time>2026-05-03T09:59:58Z</time></trkpt><trkpt lat="44.65929257811234" lon="10.183619907527882"><ele>266.0</ele><time>2026-05-03T09:59:59Z</time></trkpt><trkpt lat="44.65950752006681" lon="10.183767868281773"><ele>268.0</ele><time>2026-05-03T10:00:00Z</time></trkpt><trkpt lat="44.65970338705696" lon="10.183899410077915"><ele>267.0</ele><time>2026-05-03T10:00:01Z</time></trkpt><trkpt lat="44.65990035946527" lon="10.184034898306212"><ele>266.0</ele><time>2026-05-03T10:00:02Z</time></trkpt><trkpt lat="44.66009743189759" lon="10.184176018864196"><ele>265.0</ele><time>2026-05-03T10:00:03Z</time></trkpt><trkpt lat="44.660302095797775" lon="10.18432718139074"><ele>265.0</ele><time>2026-05-03T10:00:04Z</time></trkpt><trkpt lat="44.66050558756098" lon="10.184460118265347"><ele>265.0</ele><time>2026-05-03T10:00:04.999Z</time></trkpt><trkpt lat="44.66070671002992" lon="10.184600694786996"><ele>265.0</ele><time>2026-05-03T10:00:05.999Z</time></trkpt><trkpt lat="44.66090930773481" lon="10.18474558177605"><ele>264.3333333333333</ele><time>2026-05-03T10:00:06.999Z</time></trkpt><trkpt lat="44.66109982207834" lon="10.184883025225176"><ele>263.6666666666667</ele><time>2026-05-03T10:00:07.999Z</time></trkpt><trkpt lat="44.661287022548656" lon="10.185023414315447"><ele>263.0</ele><time>2026-05-03T10:00:08.999Z</time></trkpt><trkpt lat="44.66147082476329" lon="10.185195335538623"><ele>263.0</ele><time>2026-05-03T10:00:09.999Z</time></trkpt><trkpt lat="44.661654244607334" lon="10.185381100717905"><ele>263.0</ele><time>2026-05-03T10:00:10.999Z</time></trkpt><trkpt lat="44.66184343140249" lon="10.185562380887358"><ele>261.5</ele><time>2026-05-03T10:00:11.999Z</time></trkpt><trkpt lat="44.66203534292179" lon="10.185737475510512"><ele>260.0</ele><time>2026-05-03T10:00:12.999Z</time></trkpt><trkpt lat="44.662221018407266" lon="10.1859063193481"><ele>260.0</ele><time>2026-05-03T10:00:13.999Z</time></trkpt><trkpt lat="44.662402529807075" lon="10.186077046892397"><ele>260.0</ele><time>2026-05-03T10:00:14.999Z</time></trkpt><trkpt lat="44.66258960685486" lon="10.186244468588713"><ele>260.0</ele><time>2026-05-03T10:00:15.999Z</time></trkpt><trkpt lat="44.66276774863093" lon="10.186422148498366"><ele>259.0</ele><time>2026-05-03T10:00:16.999Z</time></trkpt><trkpt lat="44.66293851833511" lon="10.186605863145369"><ele>258.0</ele><time>2026-05-03T10:00:17.999Z</time></trkpt><trkpt lat="44.66307669998882" lon="10.18681232882568"><ele>257.0</ele><time>2026-05-03T10:00:18.999Z</time></trkpt><trkpt lat="44.66319570248364" lon="10.187083806262635"><ele>255.5</ele><time>2026-05-03T10:00:19.999Z</time></trkpt><trkpt lat="44.66332156599161" lon="10.187359085017095"><ele>254.0</ele><time>2026-05-03T10:00:20.999Z</time></trkpt><trkpt lat="44.66341720025355" lon="10.187653567853257"><ele>254.0</ele><time>2026-05-03T10:00:21.999Z</time></trkpt><trkpt lat="44.663525811618925" lon="10.187933876414899"><ele>254.0</ele><time>2026-05-03T10:00:22.999Z</time></trkpt><trkpt lat="44.66363622046909" lon="10.188206564447562"><ele>254.0</ele><time>2026-05-03T10:00:23.999Z</time></trkpt><trkpt lat="44.663759998715705" lon="10.18846898198623"><ele>254.0</ele><time>2026-05-03T10:00:24.999Z</time></trkpt><trkpt lat="44.663897309500435" lon="10.188716286155751"><ele>254.0</ele><time>2026-05-03T10:00:25.999Z</time></trkpt><trkpt lat="44.664055152042785" lon="10.188943157940573"><ele>253.0</ele><time>2026-05-03T10:00:26.999Z</time></trkpt><trkpt lat="44.66422339183951" lon="10.189153029028057"><ele>252.0</ele><time>2026-05-03T10:00:27.999Z</time></trkpt><trkpt lat="44.66437987557752" lon="10.189357178916378"><ele>251.0</ele><time>2026-05-03T10:00:28.999Z</time></trkpt><trkpt lat="44.66452734647277" lon="10.189547913134362"><ele>250.33333333333334</ele><time>2026-05-03T10:00:29.999Z</time></trkpt><trkpt lat="44.66465475681757" lon="10.18972364298133"><ele>249.66666666666669</ele><time>2026-05-03T10:00:30.999Z</time></trkpt><trkpt lat="44.664773081062705" lon="10.189886819310527"><ele>249.0</ele><time>2026-05-03T10:00:31.999Z</time></trkpt><trkpt lat="44.66488758804079" lon="10.190041161053317"><ele>248.75</ele><time>2026-05-03T10:00:32.999Z</time></trkpt><trkpt lat="44.6649904697491" lon="10.190177860006134"><ele>248.5</ele><time>2026-05-03T10:00:33.999Z</time></trkpt><trkpt lat="44.6650855993394" lon="10.190314026468823"><ele>248.25</ele><time>2026-05-03T10:00:34.999Z</time></trkpt><trkpt lat="44.66517873181667" lon="10.190444914153767"><ele>248.0</ele><time>2026-05-03T10:00:35.999Z</time></trkpt><trkpt lat="44.66527657538285" lon="10.190575417934815"><ele>248.0</ele><time>2026-05-03T10:00:36.999Z</time></trkpt><trkpt lat="44.66537165820396" lon="10.19071263794823"><ele>248.0</ele><time>2026-05-03T10:00:37.999Z</time></trkpt><trkpt lat="44.66546327099486" lon="10.190826764728467"><ele>248.0</ele><time>2026-05-03T10:00:38.999Z</time></trkpt><trkpt lat="44.66554925920648" lon="10.19094404757098"><ele>248.0</ele><time>2026-05-03T10:00:39.999Z</time></trkpt><trkpt lat="44.66562287685855" lon="10.191054623930222"><ele>248.0</ele><time>2026-05-03T10:00:40.999Z</time></trkpt><trkpt lat="44.66569340098048" lon="10.19115985419768"><ele>248.0</ele><time>2026-05-03T10:00:41.999Z</time></trkpt><trkpt lat="44.665767902618136" lon="10.19123980701555"><ele>248.0</ele><time>2026-05-03T10:00:42.999Z</time></trkpt><trkpt lat="44.66583838151379" lon="10.191322696892163"><ele>248.0</ele><time>2026-05-03T10:00:43.999Z</time></trkpt><trkpt lat="44.66591002306039" lon="10.191413078926896"><ele>248.0</ele><time>2026-05-03T10:00:44.999Z</time></trkpt><trkpt lat="44.66599241501765" lon="10.19150954967961"><ele>247.75</ele><time>2026-05-03T10:00:45.999Z</time></trkpt><trkpt lat="44.66607919665795" lon="10.19160675127787"><ele>247.5</ele><time>2026-05-03T10:00:46.999Z</time></trkpt><trkpt lat="44.666166740993376" lon="10.191714807439206"><ele>247.25</ele><time>2026-05-03T10:00:47.999Z</time></trkpt><trkpt lat="44.66626207962708" lon="10.1918250250218"><ele>247.0</ele><time>2026-05-03T10:00:48.999Z</time></trkpt><trkpt lat="44.666362078668335" lon="10.191940439717282"><ele>247.0</ele><time>2026-05-03T10:00:49.999Z</time></trkpt><trkpt lat="44.666463925311376" lon="10.192051854190085"><ele>247.0</ele><time>2026-05-03T10:00:50.999Z</time></trkpt><trkpt lat="44.66656952939191" lon="10.192173820502639"><ele>247.0</ele><time>2026-05-03T10:00:51.999Z</time></trkpt><trkpt lat="44.66667614641325" lon="10.19230092144862"><ele>247.0</ele><time>2026-05-03T10:00:52.999Z</time></trkpt><trkpt lat="44.66678263861477" lon="10.19241709120214"><ele>247.0</ele><time>2026-05-03T10:00:53.999Z</time></trkpt><trkpt lat="44.66688284688888" lon="10.192533626103604"><ele>247.0</ele><time>2026-05-03T10:00:54.999Z</time></trkpt><trkpt lat="44.66698211605376" lon="10.192651939001296"><ele>247.0</ele><time>2026-05-03T10:00:55.999Z</time></trkpt><trkpt lat="44.66708807040257" lon="10.192759379260593"><ele>247.0</ele><time>2026-05-03T10:00:56.999Z</time></trkpt><trkpt lat="44.66718724922845" lon="10.192860388565279"><ele>247.0</ele><time>2026-05-03T10:00:57.999Z</time></trkpt><trkpt lat="44.66728616524567" lon="10.19296960981037"><ele>247.0</ele><time>2026-05-03T10:00:59Z</time></trkpt><trkpt lat="44.66738945369886" lon="10.193084066184069"><ele>247.0</ele><time>2026-05-03T10:01:00Z</time></trkpt><trkpt lat="44.667500460708304" lon="10.193207339646504"><ele>247.0</ele><time>2026-05-03T10:01:01Z</time></trkpt><trkpt lat="44.66761618490188" lon="10.193331164026466"><ele>246.0</ele><time>2026-05-03T10:01:02Z</time></trkpt><trkpt lat="44.66774137649452" lon="10.193454054765803"><ele>245.0</ele><time>2026-05-03T10:01:03Z</time></trkpt><trkpt lat="44.66787013315539" lon="10.193582572673746"><ele>244.0</ele><time>2026-05-03T10:01:04Z</time></trkpt><trkpt lat="44.66800515467965" lon="10.193724892294343"><ele>243.66666666666666</ele><time>2026-05-03T10:01:05Z</time></trkpt><trkpt lat="44.66813476303156" lon="10.193861405406237"><ele>243.33333333333331</ele><time>2026-05-03T10:01:06Z</time></trkpt><trkpt lat="44.6682536244722" lon="10.193984529105162"><ele>243.0</ele><time>2026-05-03T10:01:07Z</time></trkpt><trkpt lat="44.66839093575567" lon="10.194130461769882"><ele>243.0</ele><time>2026-05-03T10:01:08Z</time></trkpt><trkpt lat="44.66854088842496" lon="10.194288181401777"><ele>243.0</ele><time>2026-05-03T10:01:09Z</time></trkpt><trkpt lat="44.66870008606267" lon="10.194458286670576"><ele>243.0</ele><time>2026-05-03T10:01:10Z</time></trkpt><trkpt lat="44.66887644378227" lon="10.194633163016226"><ele>243.0</ele><time>2026-05-03T10:01:11Z</time></trkpt><trkpt lat="44.669059605219815" lon="10.194818890862294"><ele>243.0</ele><time>2026-05-03T10:01:12Z</time></trkpt><trkpt lat="44.66925014863872" lon="10.195019522947513"><ele>243.0</ele><time>2026-05-03T10:01:13Z</time></trkpt><trkpt lat="44.66944154152788" lon="10.195219961727144"><ele>243.0</ele><time>2026-05-03T10:01:14Z</time></trkpt><trkpt lat="44.66961692263374" lon="10.19540637032166"><ele>243.0</ele><time>2026-05-03T10:01:15Z</time></trkpt><trkpt lat="44.6697913941115" lon="10.19558667472302"><ele>243.0</ele><time>2026-05-03T10:01:16Z</time></trkpt><trkpt lat="44.66996632941327" lon="10.19577094511854"><ele>243.0</ele><time>2026-05-03T10:01:17Z</time></trkpt><trkpt lat="44.67014372160912" lon="10.19595493875011"><ele>242.0</ele><time>2026-05-03T10:01:18Z</time></trkpt><trkpt lat="44.670319395210434" lon="10.196138983993748"><ele>241.0</ele><time>2026-05-03T10:01:19Z</time></trkpt><trkpt lat="44.670497452675235" lon="10.196328826127841"><ele>240.0</ele><time>2026-05-03T10:01:20Z</time></trkpt><trkpt lat="44.67067867705914" lon="10.196521182393617"><ele>239.0</ele><time>2026-05-03T10:01:21Z</time></trkpt><trkpt lat="44.670859444377356" lon="10.196715059801765"><ele>238.0</ele><time>2026-05-03T10:01:22Z</time></trkpt><trkpt lat="44.671038518109384" lon="10.196908929752546"><ele>238.5</ele><time>2026-05-03T10:01:23Z</time></trkpt><trkpt lat="44.671210724985556" lon="10.197120576949587"><ele>239.0</ele><time>2026-05-03T10:01:24Z</time></trkpt><trkpt lat="44.67134262112241" lon="10.197387634543869"><ele>238.0</ele><time>2026-05-03T10:01:25Z</time></trkpt><trkpt lat="44.67149700148428" lon="10.197640149721348"><ele>237.0</ele><time>2026-05-03T10:01:26Z</time></trkpt><trkpt lat="44.67163538805329" lon="10.197909303909517"><ele>235.5</ele><time>2026-05-03T10:01:27Z</time></trkpt><trkpt lat="44.67177624324101" lon="10.198174058368583"><ele>234.0</ele><time>2026-05-03T10:01:28Z</time></trkpt><trkpt lat="44.671915083071994" lon="10.198439234639471"><ele>233.0</ele><time>2026-05-03T10:01:29Z</time></trkpt><trkpt lat="44.6720578123145" lon="10.198706258660204"><ele>232.0</ele><time>2026-05-03T10:01:30Z</time></trkpt><trkpt lat="44.672201871408916" lon="10.198973870326096"><ele>231.0</ele><time>2026-05-03T10:01:31Z</time></trkpt><trkpt lat="44.67234545060742" lon="10.19924092637958"><ele>230.0</ele><time>2026-05-03T10:01:32Z</time></trkpt><trkpt lat="44.672489153312995" lon="10.199507056962611"><ele>230.0</ele><time>2026-05-03T10:01:33Z</time></trkpt><trkpt lat="44.67263301922019" lon="10.199773589044568"><ele>230.0</ele><time>2026-05-03T10:01:34Z</time></trkpt><trkpt lat="44.672772894066966" lon="10.20003793182233"><ele>230.5</ele><time>2026-05-03T10:01:35Z</time></trkpt><trkpt lat="44.672911826615" lon="10.200300286067097"><ele>231.0</ele><time>2026-05-03T10:01:36Z</time></trkpt><trkpt lat="44.67304842961953" lon="10.200558027724936"><ele>231.0</ele><time>2026-05-03T10:01:37Z</time></trkpt><trkpt lat="44.67319124798645" lon="10.20081274032308"><ele>231.0</ele><time>2026-05-03T10:01:38Z</time></trkpt><trkpt lat="44.6733478253777" lon="10.201050980310368"><ele>231.0</ele><time>2026-05-03T10:01:39Z</time></trkpt><trkpt lat="44.67353040780523" lon="10.20125252945912"><ele>231.0</ele><time>2026-05-03T10:01:40Z</time></trkpt><trkpt lat="44.673740374371384" lon="10.201417730421607"><ele>229.5</ele><time>2026-05-03T10:01:41Z</time></trkpt><trkpt lat="44.673961908121846" lon="10.201567931582963"><ele>228.0</ele><time>2026-05-03T10:01:42Z</time></trkpt><trkpt lat="44.67418217827205" lon="10.201723441720754"><ele>228.0</ele><time>2026-05-03T10:01:43Z</time></trkpt><trkpt lat="44.67439697407414" lon="10.201881582669687"><ele>228.0</ele><time>2026-05-03T10:01:44Z</time></trkpt><trkpt lat="44.674612323723856" lon="10.202041378656995"><ele>227.0</ele><time>2026-05-03T10:01:45Z</time></trkpt><trkpt lat="44.674827081813376" lon="10.202207379612522"><ele>226.0</ele><time>2026-05-03T10:01:46Z</time></trkpt><trkpt lat="44.6750385108728" lon="10.202367690930258"><ele>226.0</ele><time>2026-05-03T10:01:47Z</time></trkpt><trkpt lat="44.67525224231701" lon="10.202530614843061"><ele>226.0</ele><time>2026-05-03T10:01:48Z</time></trkpt><trkpt lat="44.67546242209401" lon="10.20269224194076"><ele>226.0</ele><time>2026-05-03T10:01:49Z</time></trkpt><trkpt lat="44.675674811720874" lon="10.202856316708242"><ele>226.0</ele><time>2026-05-03T10:01:50Z</time></trkpt><trkpt lat="44.675879370122175" lon="10.203026819334008"><ele>226.5</ele><time>2026-05-03T10:01:51Z</time></trkpt><trkpt lat="44.67607979967365" lon="10.20320488168248"><ele>227.0</ele><time>2026-05-03T10:01:52Z</time></trkpt><trkpt lat="44.67627894155299" lon="10.203404973201696"><ele>228.0</ele><time>2026-05-03T10:01:53Z</time></trkpt><trkpt lat="44.676469724953435" lon="10.20360875161069"><ele>229.0</ele><time>2026-05-03T10:01:54Z</time></trkpt><trkpt lat="44.67666512925909" lon="10.203813220631014"><ele>227.5</ele><time>2026-05-03T10:01:55Z</time></trkpt><trkpt lat="44.676862164618484" lon="10.204009378659828"><ele>226.0</ele><time>2026-05-03T10:01:56Z</time></trkpt><trkpt lat="44.67705421186396" lon="10.20420532007926"><ele>226.0</ele><time>2026-05-03T10:01:57Z</time></trkpt><trkpt lat="44.677248067402545" lon="10.204409532254575"><ele>226.0</ele><time>2026-05-03T10:01:58Z</time></trkpt><trkpt lat="44.67743291770581" lon="10.204602905398234"><ele>226.0</ele><time>2026-05-03T10:01:59Z</time></trkpt><trkpt lat="44.67762219401421" lon="10.204796857104862"><ele>226.0</ele><time>2026-05-03T10:02:00Z</time></trkpt><trkpt lat="44.677810935405994" lon="10.20498800806961"><ele>226.0</ele><time>2026-05-03T10:02:01Z</time></trkpt><trkpt lat="44.67800126609171" lon="10.205176019186254"><ele>226.0</ele><time>2026-05-03T10:02:02Z</time></trkpt><trkpt lat="44.67818864431816" lon="10.205364102112577"><ele>226.0</ele><time>2026-05-03T10:02:03Z</time></trkpt><trkpt lat="44.67837605225302" lon="10.205553370819583"><ele>226.0</ele><time>2026-05-03T10:02:04Z</time></trkpt><trkpt lat="44.67856271965708" lon="10.205750023301896"><ele>223.5</ele><time>2026-05-03T10:02:05Z</time></trkpt><trkpt lat="44.67874594252554" lon="10.205947049241852"><ele>221.0</ele><time>2026-05-03T10:02:06Z</time></trkpt><trkpt lat="44.678933638409795" lon="10.206143200758385"><ele>221.0</ele><time>2026-05-03T10:02:07Z</time></trkpt><trkpt lat="44.67912506351815" lon="10.206340408410204"><ele>221.0</ele><time>2026-05-03T10:02:08Z</time></trkpt><trkpt lat="44.679323188439035" lon="10.206539540022924"><ele>220.0</ele><time>2026-05-03T10:02:09Z</time></trkpt><trkpt lat="44.67951919258577" lon="10.206739840587113"><ele>219.0</ele><time>2026-05-03T10:02:10Z</time></trkpt><trkpt lat="44.67972234998234" lon="10.206949834972505"><ele>219.0</ele><time>2026-05-03T10:02:10.999Z</time></trkpt><trkpt lat="44.67993701432976" lon="10.20716854857398"><ele>219.0</ele><time>2026-05-03T10:02:11.999Z</time></trkpt><trkpt lat="44.680161847297434" lon="10.207393312886392"><ele>218.0</ele><time>2026-05-03T10:02:12.999Z</time></trkpt><trkpt lat="44.680394789609004" lon="10.207629549719211"><ele>217.0</ele><time>2026-05-03T10:02:13.999Z</time></trkpt><trkpt lat="44.6806340677974" lon="10.207869598261167"><ele>217.0</ele><time>2026-05-03T10:02:14.999Z</time></trkpt><trkpt lat="44.680866487091954" lon="10.208128538128202"><ele>217.0</ele><time>2026-05-03T10:02:15.999Z</time></trkpt><trkpt lat="44.6811027898199" lon="10.208372348433958"><ele>215.5</ele><time>2026-05-03T10:02:16.999Z</time></trkpt><trkpt lat="44.68135191404106" lon="10.208628365030004"><ele>214.0</ele><time>2026-05-03T10:02:17.999Z</time></trkpt><trkpt lat="44.68160378197649" lon="10.208886245673257"><ele>213.0</ele><time>2026-05-03T10:02:18.999Z</time></trkpt><trkpt lat="44.68185899527857" lon="10.209133526314341"><ele>212.0</ele><time>2026-05-03T10:02:19.999Z</time></trkpt><trkpt lat="44.68210254545691" lon="10.20939562887347"><ele>211.5</ele><time>2026-05-03T10:02:20.999Z</time></trkpt><trkpt lat="44.682351668638894" lon="10.209653258231073"><ele>211.0</ele><time>2026-05-03T10:02:21.999Z</time></trkpt><trkpt lat="44.68260182889947" lon="10.209901654737662"><ele>211.0</ele><time>2026-05-03T10:02:22.999Z</time></trkpt><trkpt lat="44.68284121200844" lon="10.210143757341699"><ele>211.0</ele><time>2026-05-03T10:02:23.999Z</time></trkpt><trkpt lat="44.68307646895122" lon="10.210380134005629"><ele>211.0</ele><time>2026-05-03T10:02:24.999Z</time></trkpt><trkpt lat="44.683317219799136" lon="10.210622429839852"><ele>211.0</ele><time>2026-05-03T10:02:25.999Z</time></trkpt><trkpt lat="44.68355520869148" lon="10.21086276473553"><ele>210.5</ele><time>2026-05-03T10:02:26.999Z</time></trkpt><trkpt lat="44.683792064033085" lon="10.211103873120377"><ele>210.0</ele><time>2026-05-03T10:02:27.999Z</time></trkpt><trkpt lat="44.68401941908493" lon="10.211334540408766"><ele>210.5</ele><time>2026-05-03T10:02:28.999Z</time></trkpt><trkpt lat="44.68424821669082" lon="10.211561680707494"><ele>211.0</ele><time>2026-05-03T10:02:29.999Z</time></trkpt><trkpt lat="44.68446504804476" lon="10.21180828849522"><ele>211.0</ele><time>2026-05-03T10:02:30.999Z</time></trkpt><trkpt lat="44.68469206648047" lon="10.212040567668556"><ele>211.0</ele><time>2026-05-03T10:02:31.999Z</time></trkpt><trkpt lat="44.684929886279185" lon="10.212270070746673"><ele>211.0</ele><time>2026-05-03T10:02:32.999Z</time></trkpt><trkpt lat="44.685158493985995" lon="10.21251777066201"><ele>211.0</ele><time>2026-05-03T10:02:33.999Z</time></trkpt><trkpt lat="44.68539237488895" lon="10.212762100440669"><ele>210.0</ele><time>2026-05-03T10:02:34.999Z</time></trkpt><trkpt lat="44.68562058006224" lon="10.21299487292203"><ele>209.0</ele><time>2026-05-03T10:02:35.999Z</time></trkpt><trkpt lat="44.68585207963707" lon="10.2132285524415"><ele>209.0</ele><time>2026-05-03T10:02:36.999Z</time></trkpt><trkpt lat="44.68608196495637" lon="10.213466481190958"><ele>209.0</ele><time>2026-05-03T10:02:37.999Z</time></trkpt><trkpt lat="44.68631195990823" lon="10.213706085615188"><ele>207.0</ele><time>2026-05-03T10:02:38.999Z</time></trkpt><trkpt lat="44.68654277917562" lon="10.213943610654486"><ele>205.0</ele><time>2026-05-03T10:02:39.999Z</time></trkpt><trkpt lat="44.68676683292655" lon="10.214184093271896"><ele>204.0</ele><time>2026-05-03T10:02:40.999Z</time></trkpt><trkpt lat="44.68699819949397" lon="10.21442173396952"><ele>203.0</ele><time>2026-05-03T10:02:41.999Z</time></trkpt><trkpt lat="44.687223742219096" lon="10.214655343928396"><ele>203.5</ele><time>2026-05-03T10:02:42.999Z</time></trkpt><trkpt lat="44.68745077846577" lon="10.21489201781803"><ele>204.0</ele><time>2026-05-03T10:02:43.999Z</time></trkpt><trkpt lat="44.68766527048752" lon="10.215111937690384"><ele>202.0</ele><time>2026-05-03T10:02:44.999Z</time></trkpt><trkpt lat="44.68786303472892" lon="10.215319047789011"><ele>200.0</ele><time>2026-05-03T10:02:45.999Z</time></trkpt><trkpt lat="44.68806219335332" lon="10.215529958736786"><ele>200.5</ele><time>2026-05-03T10:02:46.999Z</time></trkpt><trkpt lat="44.68826554997891" lon="10.215734792225259"><ele>201.0</ele><time>2026-05-03T10:02:47.999Z</time></trkpt><trkpt lat="44.68847820640019" lon="10.215933442419495"><ele>202.0</ele><time>2026-05-03T10:02:48.999Z</time></trkpt><trkpt lat="44.688697945453036" lon="10.216107137027754"><ele>203.0</ele><time>2026-05-03T10:02:49.999Z</time></trkpt><trkpt lat="44.6889324910558" lon="10.216279037813925"><ele>203.0</ele><time>2026-05-03T10:02:50.999Z</time></trkpt><trkpt lat="44.689164453845265" lon="10.216449140829571"><ele>203.0</ele><time>2026-05-03T10:02:51.999Z</time></trkpt><trkpt lat="44.6894006245134" lon="10.216622421787216"><ele>202.5</ele><time>2026-05-03T10:02:52.999Z</time></trkpt><trkpt lat="44.68964188521603" lon="10.216802248479134"><ele>202.0</ele><time>2026-05-03T10:02:53.999Z</time></trkpt><trkpt lat="44.689890848426714" lon="10.216986823274327"><ele>202.0</ele><time>2026-05-03T10:02:54.999Z</time></trkpt><trkpt lat="44.69014201001309" lon="10.217171805026151"><ele>202.0</ele><time>2026-05-03T10:02:55.999Z</time></trkpt><trkpt lat="44.690389110405036" lon="10.217350644533767"><ele>200.0</ele><time>2026-05-03T10:02:56.999Z</time></trkpt><trkpt lat="44.690641972488514" lon="10.217535597239227"><ele>198.0</ele><time>2026-05-03T10:02:57.999Z</time></trkpt><trkpt lat="44.69089298862293" lon="10.217726098035456"><ele>197.0</ele><time>2026-05-03T10:02:58.999Z</time></trkpt><trkpt lat="44.69115271236681" lon="10.217918898050979"><ele>196.0</ele><time>2026-05-03T10:02:59.999Z</time></trkpt><trkpt lat="44.69141060458815" lon="10.218108388918607"><ele>196.0</ele><time>2026-05-03T10:03:00.999Z</time></trkpt><trkpt lat="44.691671185400686" lon="10.218298845697298"><ele>196.0</ele><time>2026-05-03T10:03:01.999Z</time></trkpt><trkpt lat="44.69192526347132" lon="10.218488662537286"><ele>196.0</ele><time>2026-05-03T10:03:02.999Z</time></trkpt><trkpt lat="44.69216754705096" lon="10.218668837205179"><ele>196.0</ele><time>2026-05-03T10:03:03.999Z</time></trkpt><trkpt lat="44.69240611372017" lon="10.218846790938018"><ele>196.0</ele><time>2026-05-03T10:03:05Z</time></trkpt><trkpt lat="44.69264562294996" lon="10.219024110415091"><ele>196.0</ele><time>2026-05-03T10:03:06Z</time></trkpt><trkpt lat="44.69288743020217" lon="10.219204569292366"><ele>195.5</ele><time>2026-05-03T10:03:07Z</time></trkpt><trkpt lat="44.693132163073805" lon="10.21938667043108"><ele>195.0</ele><time>2026-05-03T10:03:08Z</time></trkpt><trkpt lat="44.693389552306776" lon="10.219579174123634"><ele>194.5</ele><time>2026-05-03T10:03:09Z</time></trkpt><trkpt lat="44.69364464380935" lon="10.219769989285718"><ele>194.0</ele><time>2026-05-03T10:03:10Z</time></trkpt><trkpt lat="44.69391025575638" lon="10.219963899082877"><ele>194.0</ele><time>2026-05-03T10:03:11Z</time></trkpt><trkpt lat="44.69416484584288" lon="10.220158394134394"><ele>194.0</ele><time>2026-05-03T10:03:12Z</time></trkpt><trkpt lat="44.69443277075489" lon="10.220356748280457"><ele>192.5</ele><time>2026-05-03T10:03:13Z</time></trkpt><trkpt lat="44.69469830496437" lon="10.220552071374764"><ele>191.0</ele><time>2026-05-03T10:03:14Z</time></trkpt><trkpt lat="44.694964232560736" lon="10.220748097352429"><ele>191.0</ele><time>2026-05-03T10:03:15Z</time></trkpt><trkpt lat="44.695231763065514" lon="10.22094903424767"><ele>191.0</ele><time>2026-05-03T10:03:16Z</time></trkpt><trkpt lat="44.69550105412854" lon="10.22115022938425"><ele>191.0</ele><time>2026-05-03T10:03:17Z</time></trkpt><trkpt lat="44.69577178388132" lon="10.221349516882961"><ele>191.0</ele><time>2026-05-03T10:03:18Z</time></trkpt><trkpt lat="44.69604062179297" lon="10.2215468588381"><ele>190.0</ele><time>2026-05-03T10:03:19Z</time></trkpt><trkpt lat="44.696306145842364" lon="10.221742373326315"><ele>189.0</ele><time>2026-05-03T10:03:20Z</time></trkpt><trkpt lat="44.6965709202042" lon="10.22194087681972"><ele>189.0</ele><time>2026-05-03T10:03:21Z</time></trkpt><trkpt lat="44.696840691018764" lon="10.22214232697592"><ele>189.0</ele><time>2026-05-03T10:03:22Z</time></trkpt><trkpt lat="44.69711102201705" lon="10.22233947324517"><ele>188.0</ele><time>2026-05-03T10:03:23Z</time></trkpt><trkpt lat="44.69738085106812" lon="10.222534264765091"><ele>187.0</ele><time>2026-05-03T10:03:24Z</time></trkpt><trkpt lat="44.69764653519442" lon="10.222726939978283"><ele>185.5</ele><time>2026-05-03T10:03:25Z</time></trkpt><trkpt lat="44.69791365928973" lon="10.222924235364435"><ele>184.0</ele><time>2026-05-03T10:03:26Z</time></trkpt><trkpt lat="44.69817429147076" lon="10.223118558845742"><ele>184.0</ele><time>2026-05-03T10:03:27Z</time></trkpt><trkpt lat="44.698439374433086" lon="10.223318377601933"><ele>184.0</ele><time>2026-05-03T10:03:28Z</time></trkpt><trkpt lat="44.698708969510356" lon="10.223520321447337"><ele>183.5</ele><time>2026-05-03T10:03:29Z</time></trkpt><trkpt lat="44.69897032206636" lon="10.223718855110157"><ele>183.0</ele><time>2026-05-03T10:03:30Z</time></trkpt><trkpt lat="44.69922361801307" lon="10.223907520399928"><ele>184.5</ele><time>2026-05-03T10:03:31Z</time></trkpt><trkpt lat="44.699458808261824" lon="10.224086888520727"><ele>186.0</ele><time>2026-05-03T10:03:32Z</time></trkpt><trkpt lat="44.69968982122781" lon="10.224259068760228"><ele>186.0</ele><time>2026-05-03T10:03:33Z</time></trkpt><trkpt lat="44.69992319841373" lon="10.224426846577053"><ele>186.0</ele><time>2026-05-03T10:03:34Z</time></trkpt><trkpt lat="44.700153920857765" lon="10.224594680919944"><ele>184.5</ele><time>2026-05-03T10:03:35Z</time></trkpt><trkpt lat="44.7003959322261" lon="10.224772814561573"><ele>183.0</ele><time>2026-05-03T10:03:36Z</time></trkpt><trkpt lat="44.70063503529277" lon="10.224957692553748"><ele>183.0</ele><time>2026-05-03T10:03:37Z</time></trkpt><trkpt lat="44.70087411720748" lon="10.225146460739934"><ele>183.0</ele><time>2026-05-03T10:03:38Z</time></trkpt><trkpt lat="44.70111269004059" lon="10.22534414892405"><ele>180.0</ele><time>2026-05-03T10:03:39Z</time></trkpt><trkpt lat="44.701348692586755" lon="10.225559922698231"><ele>177.0</ele><time>2026-05-03T10:03:40Z</time></trkpt><trkpt lat="44.70158380217662" lon="10.225781607598066"><ele>176.5</ele><time>2026-05-03T10:03:41Z</time></trkpt><trkpt lat="44.70181930302739" lon="10.22600348081264"><ele>176.0</ele><time>2026-05-03T10:03:42Z</time></trkpt><trkpt lat="44.702052332673986" lon="10.226218865235555"><ele>175.5</ele><time>2026-05-03T10:03:43Z</time></trkpt><trkpt lat="44.702290122832835" lon="10.226430029136951"><ele>175.0</ele><time>2026-05-03T10:03:44Z</time></trkpt><trkpt lat="44.70252743838555" lon="10.226640579919984"><ele>175.0</ele><time>2026-05-03T10:03:45Z</time></trkpt><trkpt lat="44.70276209146439" lon="10.226855838688964"><ele>175.0</ele><time>2026-05-03T10:03:46Z</time></trkpt><trkpt lat="44.70299299004755" lon="10.227073205417183"><ele>175.0</ele><time>2026-05-03T10:03:47Z</time></trkpt><trkpt lat="44.70322707262867" lon="10.227292191564695"><ele>175.0</ele><time>2026-05-03T10:03:48Z</time></trkpt><trkpt lat="44.70345744326417" lon="10.227503552263872"><ele>175.5</ele><time>2026-05-03T10:03:49Z</time></trkpt><trkpt lat="44.703691934852586" lon="10.227713347523519"><ele>176.0</ele><time>2026-05-03T10:03:50Z</time></trkpt><trkpt lat="44.70392291393412" lon="10.227917884642318"><ele>176.0</ele><time>2026-05-03T10:03:51Z</time></trkpt><trkpt lat="44.7041415397656" lon="10.228125722629583"><ele>176.0</ele><time>2026-05-03T10:03:52Z</time></trkpt><trkpt lat="44.704351390650025" lon="10.228321765868507"><ele>175.5</ele><time>2026-05-03T10:03:53Z</time></trkpt><trkpt lat="44.70454930704671" lon="10.228499967685128"><ele>175.0</ele><time>2026-05-03T10:03:54Z</time></trkpt><trkpt lat="44.70474422043197" lon="10.228673662431346"><ele>175.0</ele><time>2026-05-03T10:03:55Z</time></trkpt><trkpt lat="44.704926576501386" lon="10.228839725830317"><ele>175.0</ele><time>2026-05-03T10:03:56Z</time></trkpt><trkpt lat="44.70510930511833" lon="10.229014453162977"><ele>175.0</ele><time>2026-05-03T10:03:57Z</time></trkpt><trkpt lat="44.70528611512227" lon="10.229182052205578"><ele>174.33333333333334</ele><time>2026-05-03T10:03:58Z</time></trkpt><trkpt lat="44.70546135477783" lon="10.229339269314654"><ele>173.66666666666666</ele><time>2026-05-03T10:03:59Z</time></trkpt><trkpt lat="44.70562491951755" lon="10.22948297771631"><ele>173.0</ele><time>2026-05-03T10:04:00Z</time></trkpt><trkpt lat="44.705787179596804" lon="10.22962557321016"><ele>173.0</ele><time>2026-05-03T10:04:01Z</time></trkpt><trkpt lat="44.70595128377691" lon="10.229762601468956"><ele>173.0</ele><time>2026-05-03T10:04:02Z</time></trkpt><trkpt lat="44.70612059721707" lon="10.229874779493334"><ele>173.0</ele><time>2026-05-03T10:04:03Z</time></trkpt><trkpt lat="44.70629868234313" lon="10.229957177178393"><ele>172.0</ele><time>2026-05-03T10:04:04Z</time></trkpt><trkpt lat="44.70648558714915" lon="10.23001648228734"><ele>171.0</ele><time>2026-05-03T10:04:05Z</time></trkpt><trkpt lat="44.70667704098087" lon="10.230071110372169"><ele>170.0</ele><time>2026-05-03T10:04:06Z</time></trkpt><trkpt lat="44.70686248205003" lon="10.23012748271699"><ele>170.33333333333331</ele><time>2026-05-03T10:04:07Z</time></trkpt><trkpt lat="44.70704532428297" lon="10.230194422068477"><ele>170.66666666666666</ele><time>2026-05-03T10:04:08Z</time></trkpt><trkpt lat="44.707229073788284" lon="10.230257310776448"><ele>171.0</ele><time>2026-05-03T10:04:09Z</time></trkpt><trkpt lat="44.70741086554781" lon="10.23031030118596"><ele>171.0</ele><time>2026-05-03T10:04:10Z</time></trkpt><trkpt lat="44.707588180200865" lon="10.23037358388571"><ele>171.0</ele><time>2026-05-03T10:04:11Z</time></trkpt><trkpt lat="44.70776443869385" lon="10.23043301888079"><ele>171.0</ele><time>2026-05-03T10:04:12Z</time></trkpt><trkpt lat="44.70793961801696" lon="10.23048826288559"><ele>171.0</ele><time>2026-05-03T10:04:13Z</time></trkpt><trkpt lat="44.708110207227485" lon="10.23054688978697"><ele>171.0</ele><time>2026-05-03T10:04:14Z</time></trkpt><trkpt lat="44.70828047864091" lon="10.230607507166695"><ele>171.0</ele><time>2026-05-03T10:04:15Z</time></trkpt><trkpt lat="44.70845073445555" lon="10.230666743047491"><ele>170.33333333333334</ele><time>2026-05-03T10:04:15.999Z</time></trkpt><trkpt lat="44.70861736297674" lon="10.230716199461646"><ele>169.66666666666669</ele><time>2026-05-03T10:04:16.999Z</time></trkpt><trkpt lat="44.70879020088057" lon="10.230770608057195"><ele>169.0</ele><time>2026-05-03T10:04:17.999Z</time></trkpt><trkpt lat="44.708958537896656" lon="10.230823708012636"><ele>169.0</ele><time>2026-05-03T10:04:18.999Z</time></trkpt><trkpt lat="44.70913178339862" lon="10.230879987570733"><ele>169.0</ele><time>2026-05-03T10:04:19.999Z</time></trkpt><trkpt lat="44.709302818706185" lon="10.230936265545177"><ele>169.0</ele><time>2026-05-03T10:04:20.999Z</time></trkpt><trkpt lat="44.70947441619734" lon="10.230990490174257"><ele>168.66666666666669</ele><time>2026-05-03T10:04:21.999Z</time></trkpt><trkpt lat="44.70963832379546" lon="10.231068517139676"><ele>168.33333333333334</ele><time>2026-05-03T10:04:22.999Z</time></trkpt><trkpt lat="44.70980781765784" lon="10.231125121719682"><ele>168.0</ele><time>2026-05-03T10:04:23.999Z</time></trkpt><trkpt lat="44.70997653512226" lon="10.231181077711161"><ele>168.0</ele><time>2026-05-03T10:04:24.999Z</time></trkpt><trkpt lat="44.71015126503468" lon="10.23122000301975"><ele>168.0</ele><time>2026-05-03T10:04:25.999Z</time></trkpt><trkpt lat="44.71031223890176" lon="10.231274742633103"><ele>168.0</ele><time>2026-05-03T10:04:26.999Z</time></trkpt><trkpt lat="44.71045821337251" lon="10.231321781328411"><ele>168.0</ele><time>2026-05-03T10:04:27.999Z</time></trkpt><trkpt lat="44.71059294232702" lon="10.231384589665979"><ele>168.0</ele><time>2026-05-03T10:04:28.999Z</time></trkpt><trkpt lat="44.71072738619085" lon="10.231429659275687"><ele>168.0</ele><time>2026-05-03T10:04:29.999Z</time></trkpt><trkpt lat="44.710863673664946" lon="10.231452142817174"><ele>168.0</ele><time>2026-05-03T10:04:30.999Z</time></trkpt><trkpt lat="44.71098178061966" lon="10.231495700731802"><ele>168.0</ele><time>2026-05-03T10:04:31.999Z</time></trkpt><trkpt lat="44.71109949638116" lon="10.231537501353863"><ele>168.0</ele><time>2026-05-03T10:04:32.999Z</time></trkpt><trkpt lat="44.71121361861914" lon="10.23157410651373"><ele>168.0</ele><time>2026-05-03T10:04:33.999Z</time></trkpt><trkpt lat="44.71132113902722" lon="10.231610139264578"><ele>168.0</ele><time>2026-05-03T10:04:34.999Z</time></trkpt><trkpt lat="44.71142951677296" lon="10.231645068534917"><ele>168.0</ele><time>2026-05-03T10:04:35.999Z</time></trkpt><trkpt lat="44.71153189959732" lon="10.231674782438663"><ele>168.0</ele><time>2026-05-03T10:04:36.999Z</time></trkpt><trkpt lat="44.711635208880544" lon="10.231709148897378"><ele>168.0</ele><time>2026-05-03T10:04:37.999Z</time></trkpt><trkpt lat="44.71173509221481" lon="10.231746704238581"><ele>168.0</ele><time>2026-05-03T10:04:38.999Z</time></trkpt><trkpt lat="44.711833270917445" lon="10.231776717483452"><ele>168.0</ele><time>2026-05-03T10:04:39.999Z</time></trkpt><trkpt lat="44.711929913762624" lon="10.23180802465977"><ele>167.66666666666666</ele><time>2026-05-03T10:04:40.999Z</time></trkpt><trkpt lat="44.71202099936791" lon="10.231843293337693"><ele>167.33333333333334</ele><time>2026-05-03T10:04:41.999Z</time></trkpt><trkpt lat="44.712097300289" lon="10.231905815939031"><ele>167.0</ele><time>2026-05-03T10:04:42.999Z</time></trkpt><trkpt lat="44.712153892780094" lon="10.231967257676176"><ele>166.66666666666669</ele><time>2026-05-03T10:04:43.999Z</time></trkpt><trkpt lat="44.712204005654755" lon="10.232040543824109"><ele>166.33333333333334</ele><time>2026-05-03T10:04:44.999Z</time></trkpt><trkpt lat="44.712276020699726" lon="10.232031016314558"><ele>166.0</ele><time>2026-05-03T10:04:46.999Z</time></trkpt><trkpt lat="44.712182458985524" lon="10.232302303071442"><ele>166.25</ele><time>2026-05-03T10:04:47.999Z</time></trkpt><trkpt lat="44.71211383725893" lon="10.232408562318648"><ele>166.5</ele><time>2026-05-03T10:04:48.999Z</time></trkpt><trkpt lat="44.71205572402326" lon="10.232548865455556"><ele>166.75</ele><time>2026-05-03T10:04:49.999Z</time></trkpt><trkpt lat="44.712000246867625" lon="10.232686562742584"><ele>167.0</ele><time>2026-05-03T10:04:50.999Z</time></trkpt><trkpt lat="44.71193388904007" lon="10.232828285373458"><ele>167.0</ele><time>2026-05-03T10:04:51.999Z</time></trkpt><trkpt lat="44.711856743016135" lon="10.232994585184088"><ele>167.0</ele><time>2026-05-03T10:04:52.999Z</time></trkpt><trkpt lat="44.711771484778595" lon="10.233187897614197"><ele>167.0</ele><time>2026-05-03T10:04:53.999Z</time></trkpt><trkpt lat="44.71168253016043" lon="10.233395414254973"><ele>167.0</ele><time>2026-05-03T10:04:54.999Z</time></trkpt><trkpt lat="44.7115994975074" lon="10.233578702226584"><ele>167.0</ele><time>2026-05-03T10:04:55.999Z</time></trkpt><trkpt lat="44.71151822993056" lon="10.233757664831408"><ele>167.0</ele><time>2026-05-03T10:04:56.999Z</time></trkpt><trkpt lat="44.71143883937358" lon="10.233941417150477"><ele>166.25</ele><time>2026-05-03T10:04:57.999Z</time></trkpt><trkpt lat="44.71135992719419" lon="10.234126400053398"><ele>165.5</ele><time>2026-05-03T10:04:58.999Z</time></trkpt><trkpt lat="44.71128637214157" lon="10.234304946087024"><ele>164.75</ele><time>2026-05-03T10:04:59.999Z</time></trkpt><trkpt lat="44.7112209496559" lon="10.234458084945434"><ele>164.0</ele><time>2026-05-03T10:05:00.999Z</time></trkpt><trkpt lat="44.71115973756532" lon="10.234599848957899"><ele>164.0</ele><time>2026-05-03T10:05:01.999Z</time></trkpt><trkpt lat="44.7111007522323" lon="10.23473907864164"><ele>164.0</ele><time>2026-05-03T10:05:02.999Z</time></trkpt><trkpt lat="44.71103822110717" lon="10.234884956675982"><ele>164.0</ele><time>2026-05-03T10:05:03.999Z</time></trkpt><trkpt lat="44.71097101886611" lon="10.23504405613357"><ele>164.0</ele><time>2026-05-03T10:05:04.999Z</time></trkpt><trkpt lat="44.710901180270554" lon="10.235210700370638"><ele>164.0</ele><time>2026-05-03T10:05:05.999Z</time></trkpt><trkpt lat="44.710827113340976" lon="10.235379621755515"><ele>164.0</ele><time>2026-05-03T10:05:06.999Z</time></trkpt><trkpt lat="44.71075619545812" lon="10.23555548241361"><ele>164.0</ele><time>2026-05-03T10:05:07.999Z</time></trkpt><trkpt lat="44.71068038921655" lon="10.235730637521039"><ele>164.0</ele><time>2026-05-03T10:05:08.999Z</time></trkpt><trkpt lat="44.71060329203414" lon="10.235904636253839"><ele>163.75</ele><time>2026-05-03T10:05:09.999Z</time></trkpt><trkpt lat="44.71052538589429" lon="10.236080229176588"><ele>163.5</ele><time>2026-05-03T10:05:11Z</time></trkpt><trkpt lat="44.71044662117106" lon="10.236258498107553"><ele>163.25</ele><time>2026-05-03T10:05:12Z</time></trkpt><trkpt lat="44.71036699372481" lon="10.236429303317287"><ele>163.0</ele><time>2026-05-03T10:05:13Z</time></trkpt><trkpt lat="44.710293290553835" lon="10.236604282345457"><ele>163.0</ele><time>2026-05-03T10:05:14Z</time></trkpt><trkpt lat="44.710219064626365" lon="10.236778626248073"><ele>163.0</ele><time>2026-05-03T10:05:15Z</time></trkpt><trkpt lat="44.71014997905" lon="10.23695294337634"><ele>163.0</ele><time>2026-05-03T10:05:16Z</time></trkpt><trkpt lat="44.71007496111571" lon="10.237125138747684"><ele>163.0</ele><time>2026-05-03T10:05:17Z</time></trkpt><trkpt lat="44.70999684272446" lon="10.23729133293651"><ele>163.75</ele><time>2026-05-03T10:05:18Z</time></trkpt><trkpt lat="44.709923756483356" lon="10.237452312563594"><ele>164.5</ele><time>2026-05-03T10:05:19Z</time></trkpt><trkpt lat="44.70985558690164" lon="10.237614512553648"><ele>165.25</ele><time>2026-05-03T10:05:20Z</time></trkpt><trkpt lat="44.70978763654284" lon="10.237778092567021"><ele>166.0</ele><time>2026-05-03T10:05:21Z</time></trkpt><trkpt lat="44.70971961397124" lon="10.237937307846368"><ele>166.0</ele><time>2026-05-03T10:05:22Z</time></trkpt><trkpt lat="44.70964918225686" lon="10.238105600389465"><ele>166.0</ele><time>2026-05-03T10:05:23Z</time></trkpt><trkpt lat="44.70958389040355" lon="10.238268133713824"><ele>166.0</ele><time>2026-05-03T10:05:24Z</time></trkpt><trkpt lat="44.709518368082115" lon="10.238418196710466"><ele>166.0</ele><time>2026-05-03T10:05:25Z</time></trkpt><trkpt lat="44.70945867883337" lon="10.238559968545378"><ele>166.75</ele><time>2026-05-03T10:05:26Z</time></trkpt><trkpt lat="44.709398805526234" lon="10.238705374599578"><ele>167.5</ele><time>2026-05-03T10:05:27Z</time></trkpt><trkpt lat="44.70933145954476" lon="10.238860829431662"><ele>168.25</ele><time>2026-05-03T10:05:28Z</time></trkpt><trkpt lat="44.70926458537743" lon="10.239006181172412"><ele>169.0</ele><time>2026-05-03T10:05:29Z</time></trkpt><trkpt lat="44.709204942141895" lon="10.239142273839589"><ele>169.33333333333334</ele><time>2026-05-03T10:05:30Z</time></trkpt><trkpt lat="44.70914920460125" lon="10.239253818325661"><ele>169.66666666666669</ele><time>2026-05-03T10:05:31Z</time></trkpt><trkpt lat="44.70909852037058" lon="10.239349433242078"><ele>170.0</ele><time>2026-05-03T10:05:32Z</time></trkpt><trkpt lat="44.70904775173547" lon="10.239440835789203"><ele>170.33333333333334</ele><time>2026-05-03T10:05:33Z</time></trkpt><trkpt lat="44.7089977343395" lon="10.239526197775136"><ele>170.66666666666666</ele><time>2026-05-03T10:05:34Z</time></trkpt><trkpt lat="44.70895150511984" lon="10.239602764046133"><ele>171.0</ele><time>2026-05-03T10:05:35Z</time></trkpt><trkpt lat="44.70889482284002" lon="10.239664667662604"><ele>171.0</ele><time>2026-05-03T10:05:37Z</time></trkpt><trkpt lat="44.708834578794864" lon="10.23969609488589"><ele>171.0</ele><time>2026-05-03T10:05:39Z</time></trkpt><trkpt lat="44.70876747917988" lon="10.239716871705735"><ele>171.0</ele><time>2026-05-03T10:05:40Z</time></trkpt><trkpt lat="44.70868597649642" lon="10.23975752246717"><ele>171.0</ele><time>2026-05-03T10:05:41Z</time></trkpt><trkpt lat="44.708612268975585" lon="10.239815857230287"><ele>171.0</ele><time>2026-05-03T10:05:42Z</time></trkpt><trkpt lat="44.708558913693174" lon="10.239901112762059"><ele>171.0</ele><time>2026-05-03T10:05:43Z</time></trkpt><trkpt lat="44.70852913417254" lon="10.24001458552685"><ele>171.0</ele><time>2026-05-03T10:05:44Z</time></trkpt><trkpt lat="44.708548307427826" lon="10.240135116725636"><ele>171.0</ele><time>2026-05-03T10:05:45Z</time></trkpt><trkpt lat="44.70860334311466" lon="10.24024896346545"><ele>171.0</ele><time>2026-05-03T10:05:46Z</time></trkpt><trkpt lat="44.708699205527466" lon="10.240334831830962"><ele>171.0</ele><time>2026-05-03T10:05:47Z</time></trkpt><trkpt lat="44.708821929777436" lon="10.24036587405686"><ele>171.0</ele><time>2026-05-03T10:05:48Z</time></trkpt><trkpt lat="44.708953102528646" lon="10.240354200107987"><ele>170.5</ele><time>2026-05-03T10:05:49Z</time></trkpt><trkpt lat="44.70907663436807" lon="10.240373052028044"><ele>170.0</ele><time>2026-05-03T10:05:50Z</time></trkpt><trkpt lat="44.70918893554023" lon="10.240494322647262"><ele>169.5</ele><time>2026-05-03T10:05:51Z</time></trkpt><trkpt lat="44.70928187300253" lon="10.240665633426035"><ele>169.0</ele><time>2026-05-03T10:05:52Z</time></trkpt><trkpt lat="44.70937478930187" lon="10.240874327859986"><ele>168.0</ele><time>2026-05-03T10:05:53Z</time></trkpt><trkpt lat="44.709428760328514" lon="10.241125774831891"><ele>167.0</ele><time>2026-05-03T10:05:54Z</time></trkpt><trkpt lat="44.709507311925634" lon="10.241370407610166"><ele>166.0</ele><time>2026-05-03T10:05:55Z</time></trkpt><trkpt lat="44.70957304491712" lon="10.24161173776535"><ele>166.0</ele><time>2026-05-03T10:05:56Z</time></trkpt><trkpt lat="44.7096576108952" lon="10.241841230127404"><ele>166.0</ele><time>2026-05-03T10:05:57Z</time></trkpt><trkpt lat="44.70976638562966" lon="10.242071537597283"><ele>166.0</ele><time>2026-05-03T10:05:58Z</time></trkpt><trkpt lat="44.70987506977601" lon="10.242299935618538"><ele>165.0</ele><time>2026-05-03T10:05:59Z</time></trkpt><trkpt lat="44.70998052702105" lon="10.242517266319636"><ele>164.0</ele><time>2026-05-03T10:06:00Z</time></trkpt><trkpt lat="44.71008771105104" lon="10.242735730418472"><ele>163.0</ele><time>2026-05-03T10:06:01Z</time></trkpt><trkpt lat="44.71018574622142" lon="10.242953220694712"><ele>162.33333333333334</ele><time>2026-05-03T10:06:02Z</time></trkpt><trkpt lat="44.71028878863906" lon="10.243173702664537"><ele>161.66666666666666</ele><time>2026-05-03T10:06:03Z</time></trkpt><trkpt lat="44.71040858828937" lon="10.243379302479747"><ele>161.0</ele><time>2026-05-03T10:06:04Z</time></trkpt><trkpt lat="44.71055423587398" lon="10.243561272920655"><ele>161.0</ele><time>2026-05-03T10:06:05Z</time></trkpt><trkpt lat="44.71072504192288" lon="10.24370997197856"><ele>161.0</ele><time>2026-05-03T10:06:06Z</time></trkpt><trkpt lat="44.71089368376621" lon="10.243869903953422"><ele>161.0</ele><time>2026-05-03T10:06:07Z</time></trkpt><trkpt lat="44.711063318095555" lon="10.2440369312568"><ele>161.33333333333331</ele><time>2026-05-03T10:06:08Z</time></trkpt><trkpt lat="44.711237765921595" lon="10.244204009892615"><ele>161.66666666666666</ele><time>2026-05-03T10:06:09Z</time></trkpt><trkpt lat="44.71139988555961" lon="10.244361425696837"><ele>162.0</ele><time>2026-05-03T10:06:10Z</time></trkpt><trkpt lat="44.711567916433324" lon="10.24451980826373"><ele>162.0</ele><time>2026-05-03T10:06:11Z</time></trkpt><trkpt lat="44.71172654190042" lon="10.244677789080464"><ele>162.0</ele><time>2026-05-03T10:06:12Z</time></trkpt><trkpt lat="44.71188233335059" lon="10.244818041378862"><ele>162.0</ele><time>2026-05-03T10:06:13Z</time></trkpt><trkpt lat="44.71203947436321" lon="10.244950405312625"><ele>161.33333333333334</ele><time>2026-05-03T10:06:14Z</time></trkpt><trkpt lat="44.71218562409538" lon="10.245092868901612"><ele>160.66666666666669</ele><time>2026-05-03T10:06:15Z</time></trkpt><trkpt lat="44.712336137577914" lon="10.245231935337124"><ele>160.0</ele><time>2026-05-03T10:06:16Z</time></trkpt><trkpt lat="44.71249682138966" lon="10.245347591570908"><ele>160.0</ele><time>2026-05-03T10:06:17Z</time></trkpt><trkpt lat="44.71266729015143" lon="10.24544993272474"><ele>160.0</ele><time>2026-05-03T10:06:18Z</time></trkpt><trkpt lat="44.71284153427043" lon="10.245548986313134"><ele>160.0</ele><time>2026-05-03T10:06:18.999Z</time></trkpt><trkpt lat="44.7130171376768" lon="10.245636619498107"><ele>159.66666666666669</ele><time>2026-05-03T10:06:19.999Z</time></trkpt><trkpt lat="44.71319196131095" lon="10.245731225167788"><ele>159.33333333333334</ele><time>2026-05-03T10:06:20.999Z</time></trkpt><trkpt lat="44.713361201157966" lon="10.24583307668149"><ele>159.0</ele><time>2026-05-03T10:06:21.999Z</time></trkpt><trkpt lat="44.71353531759706" lon="10.24593552204393"><ele>158.33333333333334</ele><time>2026-05-03T10:06:22.999Z</time></trkpt><trkpt lat="44.71371173972309" lon="10.246040070270881"><ele>157.66666666666669</ele><time>2026-05-03T10:06:23.999Z</time></trkpt><trkpt lat="44.713873174217" lon="10.246155082847732"><ele>157.0</ele><time>2026-05-03T10:06:24.999Z</time></trkpt><trkpt lat="44.714048286466245" lon="10.24627474912257"><ele>157.0</ele><time>2026-05-03T10:06:25.999Z</time></trkpt><trkpt lat="44.71421154580793" lon="10.246399955831667"><ele>157.0</ele><time>2026-05-03T10:06:26.999Z</time></trkpt><trkpt lat="44.71438959294677" lon="10.246513632992258"><ele>157.0</ele><time>2026-05-03T10:06:27.999Z</time></trkpt><trkpt lat="44.71455447710972" lon="10.246625478074941"><ele>156.33333333333334</ele><time>2026-05-03T10:06:28.999Z</time></trkpt><trkpt lat="44.714726720516424" lon="10.246728976118558"><ele>155.66666666666666</ele><time>2026-05-03T10:06:29.999Z</time></trkpt><trkpt lat="44.71491862433046" lon="10.246802072347073"><ele>155.0</ele><time>2026-05-03T10:06:30.999Z</time></trkpt><trkpt lat="44.71510791849133" lon="10.246851620973754"><ele>154.33333333333331</ele><time>2026-05-03T10:06:31.999Z</time></trkpt><trkpt lat="44.715298942745946" lon="10.246903021449322"><ele>153.66666666666666</ele><time>2026-05-03T10:06:32.999Z</time></trkpt><trkpt lat="44.715490480806146" lon="10.246969072351357"><ele>153.0</ele><time>2026-05-03T10:06:33.999Z</time></trkpt><trkpt lat="44.715658490946446" lon="10.24702609012116"><ele>153.0</ele><time>2026-05-03T10:06:34.999Z</time></trkpt><trkpt lat="44.715834369230976" lon="10.24707152056322"><ele>153.0</ele><time>2026-05-03T10:06:35.999Z</time></trkpt><trkpt lat="44.71600993228733" lon="10.247097077504801"><ele>153.0</ele><time>2026-05-03T10:06:36.999Z</time></trkpt><trkpt lat="44.71618615377961" lon="10.247100040891809"><ele>153.0</ele><time>2026-05-03T10:06:37.999Z</time></trkpt><trkpt lat="44.71636001156674" lon="10.247084748763347"><ele>153.0</ele><time>2026-05-03T10:06:38.999Z</time></trkpt><trkpt lat="44.71654977552768" lon="10.247060534323882"><ele>153.0</ele><time>2026-05-03T10:06:39.999Z</time></trkpt><trkpt lat="44.71673632407488" lon="10.247044246686846"><ele>153.66666666666666</ele><time>2026-05-03T10:06:40.999Z</time></trkpt><trkpt lat="44.71692248609845" lon="10.24703341035223"><ele>154.33333333333331</ele><time>2026-05-03T10:06:41.999Z</time></trkpt><trkpt lat="44.71711874233561" lon="10.247023330638294"><ele>155.0</ele><time>2026-05-03T10:06:42.999Z</time></trkpt><trkpt lat="44.71731194345965" lon="10.247022153274605"><ele>155.0</ele><time>2026-05-03T10:06:43.999Z</time></trkpt><trkpt lat="44.71750371739999" lon="10.247025413357816"><ele>155.0</ele><time>2026-05-03T10:06:44.999Z</time></trkpt><trkpt lat="44.7176962206589" lon="10.247049156116722"><ele>155.0</ele><time>2026-05-03T10:06:45.999Z</time></trkpt><trkpt lat="44.71787216782058" lon="10.247084985216532"><ele>154.66666666666666</ele><time>2026-05-03T10:06:46.999Z</time></trkpt><trkpt lat="44.71804210126868" lon="10.24713127015032"><ele>154.33333333333334</ele><time>2026-05-03T10:06:47.999Z</time></trkpt><trkpt lat="44.71822313883096" lon="10.247173129497371"><ele>154.0</ele><time>2026-05-03T10:06:48.999Z</time></trkpt><trkpt lat="44.71839343688655" lon="10.247213922917139"><ele>154.0</ele><time>2026-05-03T10:06:49.999Z</time></trkpt><trkpt lat="44.71856483844197" lon="10.247281157339923"><ele>154.0</ele><time>2026-05-03T10:06:50.999Z</time></trkpt><trkpt lat="44.71872764782133" lon="10.247360633816182"><ele>154.0</ele><time>2026-05-03T10:06:51.999Z</time></trkpt><trkpt lat="44.71890982143806" lon="10.247449194577058"><ele>154.0</ele><time>2026-05-03T10:06:52.999Z</time></trkpt><trkpt lat="44.71908036567524" lon="10.247536706909829"><ele>154.0</ele><time>2026-05-03T10:06:53.999Z</time></trkpt><trkpt lat="44.719254989266624" lon="10.247629259652332"><ele>154.0</ele><time>2026-05-03T10:06:54.999Z</time></trkpt><trkpt lat="44.719436554188" lon="10.247709586658988"><ele>153.66666666666669</ele><time>2026-05-03T10:06:55.999Z</time></trkpt><trkpt lat="44.71961064598454" lon="10.247793384675811"><ele>153.33333333333334</ele><time>2026-05-03T10:06:56.999Z</time></trkpt><trkpt lat="44.719811171676255" lon="10.247862665751224"><ele>153.0</ele><time>2026-05-03T10:06:57.999Z</time></trkpt><trkpt lat="44.720021344860974" lon="10.247902528954183"><ele>153.0</ele><time>2026-05-03T10:06:58.999Z</time></trkpt><trkpt lat="44.72021616840481" lon="10.247908768617727"><ele>153.0</ele><time>2026-05-03T10:06:59.999Z</time></trkpt><trkpt lat="44.720435604570284" lon="10.247935922355287"><ele>153.0</ele><time>2026-05-03T10:07:00.999Z</time></trkpt><trkpt lat="44.720662813461615" lon="10.247973293487654"><ele>152.0</ele><time>2026-05-03T10:07:01.999Z</time></trkpt><trkpt lat="44.720895795373615" lon="10.248012788868536"><ele>151.0</ele><time>2026-05-03T10:07:02.999Z</time></trkpt><trkpt lat="44.721123223808" lon="10.248056295331521"><ele>150.5</ele><time>2026-05-03T10:07:03.999Z</time></trkpt><trkpt lat="44.72134567241378" lon="10.248092818087933"><ele>150.0</ele><time>2026-05-03T10:07:04.999Z</time></trkpt><trkpt lat="44.72156978002386" lon="10.248129181373207"><ele>150.0</ele><time>2026-05-03T10:07:05.999Z</time></trkpt><trkpt lat="44.721794227227335" lon="10.248170330351035"><ele>150.0</ele><time>2026-05-03T10:07:06.999Z</time></trkpt><trkpt lat="44.72201975152801" lon="10.2482210168654"><ele>147.5</ele><time>2026-05-03T10:07:07.999Z</time></trkpt><trkpt lat="44.72224139633228" lon="10.248298324332147"><ele>145.0</ele><time>2026-05-03T10:07:08.999Z</time></trkpt><trkpt lat="44.7224546423288" lon="10.248420451129132"><ele>145.0</ele><time>2026-05-03T10:07:09.999Z</time></trkpt><trkpt lat="44.72265760483193" lon="10.2485692601615"><ele>145.0</ele><time>2026-05-03T10:07:10.999Z</time></trkpt><trkpt lat="44.72286341627075" lon="10.248706617727331"><ele>145.0</ele><time>2026-05-03T10:07:11.999Z</time></trkpt><trkpt lat="44.723061992175495" lon="10.248833105922065"><ele>145.0</ele><time>2026-05-03T10:07:12.999Z</time></trkpt><trkpt lat="44.723264270671294" lon="10.248955179826435"><ele>145.0</ele><time>2026-05-03T10:07:13.999Z</time></trkpt><trkpt lat="44.72346355903371" lon="10.249073741583484"><ele>145.0</ele><time>2026-05-03T10:07:14.999Z</time></trkpt><trkpt lat="44.72365728850389" lon="10.249185857255624"><ele>145.0</ele><time>2026-05-03T10:07:15.999Z</time></trkpt><trkpt lat="44.72385264796757" lon="10.249305212728187"><ele>145.0</ele><time>2026-05-03T10:07:17Z</time></trkpt><trkpt lat="44.7240445955753" lon="10.249417579787494"><ele>145.0</ele><time>2026-05-03T10:07:18Z</time></trkpt><trkpt lat="44.72422850707501" lon="10.249527004047629"><ele>145.0</ele><time>2026-05-03T10:07:19Z</time></trkpt><trkpt lat="44.7244120649398" lon="10.249638902472059"><ele>145.0</ele><time>2026-05-03T10:07:20Z</time></trkpt><trkpt lat="44.72458278485893" lon="10.249745447287404"><ele>144.66666666666669</ele><time>2026-05-03T10:07:21Z</time></trkpt><trkpt lat="44.72474905896631" lon="10.249853232839266"><ele>144.33333333333334</ele><time>2026-05-03T10:07:22Z</time></trkpt><trkpt lat="44.724906237604756" lon="10.249981777064175"><ele>144.0</ele><time>2026-05-03T10:07:23Z</time></trkpt><trkpt lat="44.72503292897567" lon="10.250195019591434"><ele>144.0</ele><time>2026-05-03T10:07:24Z</time></trkpt><trkpt lat="44.72517564913173" lon="10.25041210516729"><ele>144.0</ele><time>2026-05-03T10:07:25Z</time></trkpt><trkpt lat="44.72529890887394" lon="10.250655028132044"><ele>144.0</ele><time>2026-05-03T10:07:26Z</time></trkpt><trkpt lat="44.72543593524018" lon="10.250873665180972"><ele>144.33333333333334</ele><time>2026-05-03T10:07:27Z</time></trkpt><trkpt lat="44.72560218399884" lon="10.251059913156098"><ele>144.66666666666669</ele><time>2026-05-03T10:07:28Z</time></trkpt><trkpt lat="44.72581690691736" lon="10.251197111662696"><ele>145.0</ele><time>2026-05-03T10:07:29Z</time></trkpt><trkpt lat="44.726042085725396" lon="10.251323489809629"><ele>142.5</ele><time>2026-05-03T10:07:30Z</time></trkpt><trkpt lat="44.72626605112865" lon="10.251462536649402"><ele>140.0</ele><time>2026-05-03T10:07:31Z</time></trkpt><trkpt lat="44.7264869095583" lon="10.251610188550675"><ele>140.0</ele><time>2026-05-03T10:07:32Z</time></trkpt><trkpt lat="44.72669968965384" lon="10.251752911347346"><ele>140.0</ele><time>2026-05-03T10:07:33Z</time></trkpt><trkpt lat="44.72691017784426" lon="10.251908682590829"><ele>140.0</ele><time>2026-05-03T10:07:34Z</time></trkpt><trkpt lat="44.727117088840146" lon="10.252087276649938"><ele>140.0</ele><time>2026-05-03T10:07:35Z</time></trkpt><trkpt lat="44.72729935229654" lon="10.252311750046655"><ele>140.5</ele><time>2026-05-03T10:07:36Z</time></trkpt><trkpt lat="44.727491575997654" lon="10.252522360177524"><ele>141.0</ele><time>2026-05-03T10:07:37Z</time></trkpt><trkpt lat="44.72766420053714" lon="10.252766710688222"><ele>140.5</ele><time>2026-05-03T10:07:38Z</time></trkpt><trkpt lat="44.72783028077033" lon="10.253001866915236"><ele>140.0</ele><time>2026-05-03T10:07:39Z</time></trkpt><trkpt lat="44.72799707611266" lon="10.253223925493538"><ele>140.0</ele><time>2026-05-03T10:07:40Z</time></trkpt><trkpt lat="44.72816430773852" lon="10.25344136428301"><ele>140.0</ele><time>2026-05-03T10:07:41Z</time></trkpt><trkpt lat="44.72831917219734" lon="10.253643539785323"><ele>140.0</ele><time>2026-05-03T10:07:42Z</time></trkpt><trkpt lat="44.72846563847565" lon="10.253822876896306"><ele>139.33333333333331</ele><time>2026-05-03T10:07:43Z</time></trkpt><trkpt lat="44.72861993394669" lon="10.253990934278614"><ele>138.66666666666666</ele><time>2026-05-03T10:07:44Z</time></trkpt><trkpt lat="44.72877996890814" lon="10.254125290995187"><ele>138.0</ele><time>2026-05-03T10:07:45Z</time></trkpt><trkpt lat="44.7289454660284" lon="10.254212037502043"><ele>138.0</ele><time>2026-05-03T10:07:46Z</time></trkpt><trkpt lat="44.72909794592934" lon="10.254270715931451"><ele>138.0</ele><time>2026-05-03T10:07:47Z</time></trkpt><trkpt lat="44.72921244831278" lon="10.254317345729659"><ele>138.0</ele><time>2026-05-03T10:07:48Z</time></trkpt><trkpt lat="44.72930005483913" lon="10.254379566181328"><ele>138.0</ele><time>2026-05-03T10:07:49Z</time></trkpt><trkpt lat="44.72935480307143" lon="10.254481608250737"><ele>137.33333333333334</ele><time>2026-05-03T10:07:50Z</time></trkpt><trkpt lat="44.72942033712017" lon="10.254515508391838"><ele>136.66666666666669</ele><time>2026-05-03T10:07:52Z</time></trkpt><trkpt lat="44.729291826778045" lon="10.254947875811377"><ele>136.0</ele><time>2026-05-03T10:07:53Z</time></trkpt><trkpt lat="44.72921819893663" lon="10.2551447550738"><ele>136.0</ele><time>2026-05-03T10:07:54Z</time></trkpt><trkpt lat="44.72914366750827" lon="10.255375128161091"><ele>136.0</ele><time>2026-05-03T10:07:55Z</time></trkpt><trkpt lat="44.729062768128486" lon="10.25564273358582"><ele>136.0</ele><time>2026-05-03T10:07:56Z</time></trkpt><trkpt lat="44.728980469591505" lon="10.255913447596292"><ele>136.0</ele><time>2026-05-03T10:07:57Z</time></trkpt><trkpt lat="44.728888953442656" lon="10.256218287019779"><ele>136.0</ele><time>2026-05-03T10:07:58Z</time></trkpt><trkpt lat="44.7287838480354" lon="10.256551799204468"><ele>136.0</ele><time>2026-05-03T10:07:59Z</time></trkpt><trkpt lat="44.728682559233185" lon="10.256877675843855"><ele>136.0</ele><time>2026-05-03T10:08:00Z</time></trkpt><trkpt lat="44.72858777990356" lon="10.257182011388288"><ele>136.5</ele><time>2026-05-03T10:08:01Z</time></trkpt><trkpt lat="44.72849569704253" lon="10.257482058467764"><ele>137.0</ele><time>2026-05-03T10:08:02Z</time></trkpt><trkpt lat="44.72840757663461" lon="10.257780005562108"><ele>137.0</ele><time>2026-05-03T10:08:03Z</time></trkpt><trkpt lat="44.72832301557265" lon="10.25807117655512"><ele>137.0</ele><time>2026-05-03T10:08:04Z</time></trkpt><trkpt lat="44.72823820093575" lon="10.258359770277437"><ele>137.0</ele><time>2026-05-03T10:08:05Z</time></trkpt><trkpt lat="44.72815474389655" lon="10.258645766261164"><ele>137.0</ele><time>2026-05-03T10:08:06Z</time></trkpt><trkpt lat="44.72807173684125" lon="10.258916932255211"><ele>137.0</ele><time>2026-05-03T10:08:07Z</time></trkpt><trkpt lat="44.727992591871825" lon="10.259176569964158"><ele>137.0</ele><time>2026-05-03T10:08:08Z</time></trkpt><trkpt lat="44.727901042951174" lon="10.259469739034712"><ele>137.0</ele><time>2026-05-03T10:08:09Z</time></trkpt><trkpt lat="44.727812034213066" lon="10.259737010909378"><ele>137.0</ele><time>2026-05-03T10:08:10Z</time></trkpt><trkpt lat="44.727729116214334" lon="10.260010653861938"><ele>137.0</ele><time>2026-05-03T10:08:11Z</time></trkpt><trkpt lat="44.72765085927129" lon="10.260274663456194"><ele>136.66666666666666</ele><time>2026-05-03T10:08:12Z</time></trkpt><trkpt lat="44.7275748855153" lon="10.26052941327161"><ele>136.33333333333334</ele><time>2026-05-03T10:08:13Z</time></trkpt><trkpt lat="44.72750146491767" lon="10.260765496578099"><ele>136.0</ele><time>2026-05-03T10:08:14Z</time></trkpt><trkpt lat="44.727429130511325" lon="10.260986476950322"><ele>136.0</ele><time>2026-05-03T10:08:15Z</time></trkpt><trkpt lat="44.72735921071964" lon="10.261198906848694"><ele>136.0</ele><time>2026-05-03T10:08:16Z</time></trkpt><trkpt lat="44.727291136036186" lon="10.261394016213943"><ele>136.0</ele><time>2026-05-03T10:08:17Z</time></trkpt><trkpt lat="44.727217569429776" lon="10.261574014845685"><ele>136.25</ele><time>2026-05-03T10:08:18Z</time></trkpt><trkpt lat="44.72713096743965" lon="10.261748460386077"><ele>136.5</ele><time>2026-05-03T10:08:19Z</time></trkpt><trkpt lat="44.72704050133054" lon="10.261913954444301"><ele>136.75</ele><time>2026-05-03T10:08:20Z</time></trkpt><trkpt lat="44.726969818413956" lon="10.262075261255891"><ele>137.0</ele><time>2026-05-03T10:08:21Z</time></trkpt><trkpt lat="44.726928328290306" lon="10.262255458778503"><ele>137.0</ele><time>2026-05-03T10:08:22Z</time></trkpt><trkpt lat="44.72691073059671" lon="10.26246666713338"><ele>137.0</ele><time>2026-05-03T10:08:23Z</time></trkpt><trkpt lat="44.7268864962758" lon="10.262685582070835"><ele>137.0</ele><time>2026-05-03T10:08:24Z</time></trkpt><trkpt lat="44.72685397645288" lon="10.262914127112028"><ele>136.0</ele><time>2026-05-03T10:08:25Z</time></trkpt><trkpt lat="44.726820789243185" lon="10.26314749385308"><ele>135.0</ele><time>2026-05-03T10:08:26Z</time></trkpt><trkpt lat="44.72678832106672" lon="10.263384353753631"><ele>134.0</ele><time>2026-05-03T10:08:27Z</time></trkpt><trkpt lat="44.72675636424166" lon="10.263618771279258"><ele>134.0</ele><time>2026-05-03T10:08:27.999Z</time></trkpt><trkpt lat="44.726725007319374" lon="10.263847662562762"><ele>134.0</ele><time>2026-05-03T10:08:28.999Z</time></trkpt><trkpt lat="44.72669295763773" lon="10.264070995556446"><ele>134.0</ele><time>2026-05-03T10:08:29.999Z</time></trkpt><trkpt lat="44.72666128043849" lon="10.2642920669206"><ele>134.0</ele><time>2026-05-03T10:08:30.999Z</time></trkpt><trkpt lat="44.72662983877588" lon="10.26450749092423"><ele>134.0</ele><time>2026-05-03T10:08:31.999Z</time></trkpt><trkpt lat="44.72659557681138" lon="10.26472852864279"><ele>134.0</ele><time>2026-05-03T10:08:32.999Z</time></trkpt><trkpt lat="44.72656064471007" lon="10.26494404748484"><ele>134.0</ele><time>2026-05-03T10:08:33.999Z</time></trkpt><trkpt lat="44.72652781816485" lon="10.265164474804347"><ele>134.0</ele><time>2026-05-03T10:08:34.999Z</time></trkpt><trkpt lat="44.72649717647198" lon="10.265386825362468"><ele>134.0</ele><time>2026-05-03T10:08:35.999Z</time></trkpt><trkpt lat="44.72646306792807" lon="10.265608794189022"><ele>134.0</ele><time>2026-05-03T10:08:36.999Z</time></trkpt><trkpt lat="44.726428107646164" lon="10.265833329039323"><ele>134.0</ele><time>2026-05-03T10:08:37.999Z</time></trkpt><trkpt lat="44.7263921437349" lon="10.266063764714282"><ele>134.0</ele><time>2026-05-03T10:08:38.999Z</time></trkpt><trkpt lat="44.72635723463622" lon="10.266292402286266"><ele>133.0</ele><time>2026-05-03T10:08:39.999Z</time></trkpt><trkpt lat="44.72632284947011" lon="10.266523163555195"><ele>132.0</ele><time>2026-05-03T10:08:40.999Z</time></trkpt><trkpt lat="44.72629082698307" lon="10.266751005710125"><ele>131.0</ele><time>2026-05-03T10:08:41.999Z</time></trkpt><trkpt lat="44.726259260543976" lon="10.266979407843914"><ele>131.0</ele><time>2026-05-03T10:08:42.999Z</time></trkpt><trkpt lat="44.72622495244177" lon="10.267206043152436"><ele>131.0</ele><time>2026-05-03T10:08:43.999Z</time></trkpt><trkpt lat="44.72619164053235" lon="10.267425648925268"><ele>131.0</ele><time>2026-05-03T10:08:44.999Z</time></trkpt><trkpt lat="44.72615892726624" lon="10.267650709697428"><ele>130.66666666666666</ele><time>2026-05-03T10:08:45.999Z</time></trkpt><trkpt lat="44.72612689429216" lon="10.26787103292671"><ele>130.33333333333334</ele><time>2026-05-03T10:08:46.999Z</time></trkpt><trkpt lat="44.726093118120865" lon="10.268079684940624"><ele>130.0</ele><time>2026-05-03T10:08:47.999Z</time></trkpt><trkpt lat="44.72605891598417" lon="10.268277419440702"><ele>130.5</ele><time>2026-05-03T10:08:48.999Z</time></trkpt><trkpt lat="44.72602899553192" lon="10.268466489980545"><ele>131.0</ele><time>2026-05-03T10:08:49.999Z</time></trkpt><trkpt lat="44.7260040756588" lon="10.268635519445757"><ele>131.5</ele><time>2026-05-03T10:08:50.999Z</time></trkpt><trkpt lat="44.72597786782459" lon="10.268804628313196"><ele>132.0</ele><time>2026-05-03T10:08:51.999Z</time></trkpt><trkpt lat="44.72595403463707" lon="10.268963535550753"><ele>132.0</ele><time>2026-05-03T10:08:52.999Z</time></trkpt><trkpt lat="44.725927463751454" lon="10.269117078453059"><ele>132.0</ele><time>2026-05-03T10:08:53.999Z</time></trkpt><trkpt lat="44.725908487534824" lon="10.269257217540108"><ele>132.0</ele><time>2026-05-03T10:08:54.999Z</time></trkpt><trkpt lat="44.72589340278405" lon="10.269388114465242"><ele>132.0</ele><time>2026-05-03T10:08:55.999Z</time></trkpt><trkpt lat="44.72587857330798" lon="10.269503261339736"><ele>132.0</ele><time>2026-05-03T10:08:56.999Z</time></trkpt><trkpt lat="44.72586577614992" lon="10.269613976799615"><ele>132.0</ele><time>2026-05-03T10:08:57.999Z</time></trkpt><trkpt lat="44.72585583615467" lon="10.26970672049976"><ele>132.0</ele><time>2026-05-03T10:08:58.999Z</time></trkpt><trkpt lat="44.72584200694009" lon="10.26985205472779"><ele>132.0</ele><time>2026-05-03T10:09:00.999Z</time></trkpt><trkpt lat="44.72583025541315" lon="10.269995847103749"><ele>132.0</ele><time>2026-05-03T10:09:02.999Z</time></trkpt><trkpt lat="44.725811960896785" lon="10.270196779759253"><ele>132.0</ele><time>2026-05-03T10:09:04.999Z</time></trkpt><trkpt lat="44.725801311516285" lon="10.270350119374076"><ele>132.0</ele><time>2026-05-03T10:09:05.999Z</time></trkpt><trkpt lat="44.72578739603102" lon="10.270519367746646"><ele>132.0</ele><time>2026-05-03T10:09:06.999Z</time></trkpt><trkpt lat="44.725771942418795" lon="10.270659492130218"><ele>132.0</ele><time>2026-05-03T10:09:07.999Z</time></trkpt><trkpt lat="44.72575415419588" lon="10.270830712328817"><ele>132.0</ele><time>2026-05-03T10:09:08.999Z</time></trkpt><trkpt lat="44.72573960166639" lon="10.27100642116737"><ele>132.0</ele><time>2026-05-03T10:09:09.999Z</time></trkpt><trkpt lat="44.725719829440365" lon="10.271172435888829"><ele>132.0</ele><time>2026-05-03T10:09:10.999Z</time></trkpt><trkpt lat="44.72570325007852" lon="10.271379722120534"><ele>132.0</ele><time>2026-05-03T10:09:11.999Z</time></trkpt><trkpt lat="44.72568368250249" lon="10.271576449871624"><ele>132.0</ele><time>2026-05-03T10:09:12.999Z</time></trkpt><trkpt lat="44.725666221253896" lon="10.271764927185611"><ele>131.75</ele><time>2026-05-03T10:09:13.999Z</time></trkpt><trkpt lat="44.72564887198456" lon="10.271946693534439"><ele>131.5</ele><time>2026-05-03T10:09:14.999Z</time></trkpt><trkpt lat="44.72563836554959" lon="10.272120826747056"><ele>131.25</ele><time>2026-05-03T10:09:15.999Z</time></trkpt><trkpt lat="44.725616896459584" lon="10.2722806227951"><ele>131.0</ele><time>2026-05-03T10:09:16.999Z</time></trkpt><trkpt lat="44.72561114949495" lon="10.272445603816402"><ele>131.0</ele><time>2026-05-03T10:09:17.999Z</time></trkpt><trkpt lat="44.72560466624141" lon="10.272589314114553"><ele>131.0</ele><time>2026-05-03T10:09:18.999Z</time></trkpt><trkpt lat="44.72562605810605" lon="10.272740040409879"><ele>131.0</ele><time>2026-05-03T10:09:19.999Z</time></trkpt><trkpt lat="44.72567275251023" lon="10.272906257667692"><ele>131.0</ele><time>2026-05-03T10:09:20.999Z</time></trkpt><trkpt lat="44.72571336654045" lon="10.273087394151139"><ele>131.25</ele><time>2026-05-03T10:09:21.999Z</time></trkpt><trkpt lat="44.7257272879259" lon="10.273279209281199"><ele>131.5</ele><time>2026-05-03T10:09:23Z</time></trkpt><trkpt lat="44.725755667405714" lon="10.273467778664513"><ele>131.75</ele><time>2026-05-03T10:09:24Z</time></trkpt><trkpt lat="44.725797711900356" lon="10.273647753374707"><ele>132.0</ele><time>2026-05-03T10:09:25Z</time></trkpt><trkpt lat="44.72581609424017" lon="10.273840587587287"><ele>132.25</ele><time>2026-05-03T10:09:26Z</time></trkpt><trkpt lat="44.72586051069792" lon="10.274029191958213"><ele>132.5</ele><time>2026-05-03T10:09:27Z</time></trkpt><trkpt lat="44.72588043118596" lon="10.274227744551531"><ele>132.75</ele><time>2026-05-03T10:09:28Z</time></trkpt><trkpt lat="44.72588352083746" lon="10.274425988932416"><ele>133.0</ele><time>2026-05-03T10:09:29Z</time></trkpt><trkpt lat="44.72588358717014" lon="10.274631184923424"><ele>133.25</ele><time>2026-05-03T10:09:30Z</time></trkpt><trkpt lat="44.72588522155684" lon="10.2748276781484"><ele>133.5</ele><time>2026-05-03T10:09:31Z</time></trkpt><trkpt lat="44.725881760341935" lon="10.275027365409402"><ele>133.75</ele><time>2026-05-03T10:09:32Z</time></trkpt><trkpt lat="44.725878276124625" lon="10.275236364935296"><ele>134.0</ele><time>2026-05-03T10:09:33Z</time></trkpt><trkpt lat="44.725877921115746" lon="10.275457695024937"><ele>134.0</ele><time>2026-05-03T10:09:34Z</time></trkpt><trkpt lat="44.725901071345554" lon="10.27566589561182"><ele>134.0</ele><time>2026-05-03T10:09:35Z</time></trkpt><trkpt lat="44.72597153456378" lon="10.27589196725051"><ele>134.0</ele><time>2026-05-03T10:09:36Z</time></trkpt><trkpt lat="44.726032733229935" lon="10.27612908335296"><ele>132.0</ele><time>2026-05-03T10:09:37Z</time></trkpt><trkpt lat="44.72609675683415" lon="10.276360527333646"><ele>130.0</ele><time>2026-05-03T10:09:38Z</time></trkpt><trkpt lat="44.7261497351569" lon="10.276578926041507"><ele>128.0</ele><time>2026-05-03T10:09:39Z</time></trkpt><trkpt lat="44.726187886712324" lon="10.27679072082988"><ele>128.0</ele><time>2026-05-03T10:09:40Z</time></trkpt><trkpt lat="44.72620347248101" lon="10.276984574039403"><ele>128.0</ele><time>2026-05-03T10:09:41Z</time></trkpt><trkpt lat="44.72617916531598" lon="10.277157196487842"><ele>128.0</ele><time>2026-05-03T10:09:42Z</time></trkpt><trkpt lat="44.72613009880233" lon="10.277361918115892"><ele>128.0</ele><time>2026-05-03T10:09:43Z</time></trkpt><trkpt lat="44.726066172428645" lon="10.277546616946292"><ele>128.0</ele><time>2026-05-03T10:09:44Z</time></trkpt><trkpt lat="44.726016363309114" lon="10.277738450580605"><ele>128.0</ele><time>2026-05-03T10:09:45Z</time></trkpt><trkpt lat="44.72596709494201" lon="10.27794812409324"><ele>128.0</ele><time>2026-05-03T10:09:46Z</time></trkpt><trkpt lat="44.72591497087739" lon="10.27817255748104"><ele>128.0</ele><time>2026-05-03T10:09:47Z</time></trkpt><trkpt lat="44.725857532877846" lon="10.278396778660552"><ele>128.0</ele><time>2026-05-03T10:09:48Z</time></trkpt><trkpt lat="44.72580446866724" lon="10.278637734035375"><ele>128.0</ele><time>2026-05-03T10:09:49Z</time></trkpt><trkpt lat="44.72574731953892" lon="10.278886825476668"><ele>128.33333333333331</ele><time>2026-05-03T10:09:50Z</time></trkpt><trkpt lat="44.72568575224621" lon="10.279135958655433"><ele>128.66666666666666</ele><time>2026-05-03T10:09:51Z</time></trkpt><trkpt lat="44.725623739563744" lon="10.279383927490413"><ele>129.0</ele><time>2026-05-03T10:09:52Z</time></trkpt><trkpt lat="44.72556504295604" lon="10.279629391614003"><ele>128.0</ele><time>2026-05-03T10:09:53Z</time></trkpt><trkpt lat="44.725505378951105" lon="10.279871880783789"><ele>127.0</ele><time>2026-05-03T10:09:54Z</time></trkpt><trkpt lat="44.72544530903924" lon="10.28011534882298"><ele>126.0</ele><time>2026-05-03T10:09:55Z</time></trkpt><trkpt lat="44.72538642003301" lon="10.280361957485725"><ele>126.33333333333334</ele><time>2026-05-03T10:09:56Z</time></trkpt><trkpt lat="44.72532460118914" lon="10.28060252815339"><ele>126.66666666666667</ele><time>2026-05-03T10:09:57Z</time></trkpt><trkpt lat="44.725261826170225" lon="10.28084438573845"><ele>127.0</ele><time>2026-05-03T10:09:58Z</time></trkpt><trkpt lat="44.725204813950675" lon="10.281088301375572"><ele>127.0</ele><time>2026-05-03T10:09:59Z</time></trkpt><trkpt lat="44.725148061810444" lon="10.28132882400659"><ele>127.0</ele><time>2026-05-03T10:10:00Z</time></trkpt><trkpt lat="44.72509319821541" lon="10.281550640558057"><ele>127.0</ele><time>2026-05-03T10:10:01Z</time></trkpt><trkpt lat="44.72504893575445" lon="10.281748972940743"><ele>127.0</ele><time>2026-05-03T10:10:02Z</time></trkpt><trkpt lat="44.725026436855956" lon="10.281931525496555"><ele>127.0</ele><time>2026-05-03T10:10:03Z</time></trkpt><trkpt lat="44.725090152991925" lon="10.28210283689973"><ele>127.0</ele><time>2026-05-03T10:10:04Z</time></trkpt><trkpt lat="44.72518252999729" lon="10.282307161381961"><ele>127.0</ele><time>2026-05-03T10:10:05Z</time></trkpt><trkpt lat="44.725253233724075" lon="10.282534969101794"><ele>127.0</ele><time>2026-05-03T10:10:06Z</time></trkpt><trkpt lat="44.725236017030774" lon="10.28277403720794"><ele>127.0</ele><time>2026-05-03T10:10:07Z</time></trkpt><trkpt lat="44.725205037552506" lon="10.283074045714946"><ele>127.0</ele><time>2026-05-03T10:10:08Z</time></trkpt><trkpt lat="44.725176529749774" lon="10.283401405948608"><ele>126.0</ele><time>2026-05-03T10:10:09Z</time></trkpt><trkpt lat="44.72512906125302" lon="10.283726441138617"><ele>125.0</ele><time>2026-05-03T10:10:10Z</time></trkpt><trkpt lat="44.72508129171097" lon="10.284042901802247"><ele>124.66666666666666</ele><time>2026-05-03T10:10:11Z</time></trkpt><trkpt lat="44.72504370766337" lon="10.284348704950174"><ele>124.33333333333334</ele><time>2026-05-03T10:10:12Z</time></trkpt><trkpt lat="44.72500616655872" lon="10.284645845999497"><ele>124.0</ele><time>2026-05-03T10:10:13Z</time></trkpt><trkpt lat="44.72496464906205" lon="10.284935084187472"><ele>124.66666666666667</ele><time>2026-05-03T10:10:14Z</time></trkpt><trkpt lat="44.72492141379185" lon="10.285223683892374"><ele>125.33333333333334</ele><time>2026-05-03T10:10:15Z</time></trkpt><trkpt lat="44.72488456341754" lon="10.285514496691547"><ele>126.0</ele><time>2026-05-03T10:10:16Z</time></trkpt><trkpt lat="44.724847044072604" lon="10.285800573559287"><ele>126.0</ele><time>2026-05-03T10:10:17Z</time></trkpt><trkpt lat="44.724812142432384" lon="10.28607964979304"><ele>126.0</ele><time>2026-05-03T10:10:18Z</time></trkpt><trkpt lat="44.72477621664921" lon="10.286358486490471"><ele>126.0</ele><time>2026-05-03T10:10:19Z</time></trkpt><trkpt lat="44.72474133322879" lon="10.286629546936693"><ele>125.33333333333334</ele><time>2026-05-03T10:10:20Z</time></trkpt><trkpt lat="44.724705908902166" lon="10.28689570117529"><ele>124.66666666666667</ele><time>2026-05-03T10:10:21Z</time></trkpt><trkpt lat="44.72467082647798" lon="10.287159836620507"><ele>124.0</ele><time>2026-05-03T10:10:22Z</time></trkpt><trkpt lat="44.724637434621" lon="10.287401412424929"><ele>123.66666666666667</ele><time>2026-05-03T10:10:23Z</time></trkpt><trkpt lat="44.72460964656367" lon="10.287630551962115"><ele>123.33333333333334</ele><time>2026-05-03T10:10:24Z</time></trkpt><trkpt lat="44.72458038588232" lon="10.287849058237548"><ele>123.0</ele><time>2026-05-03T10:10:25Z</time></trkpt><trkpt lat="44.72454768703633" lon="10.288078836013499"><ele>123.66666666666666</ele><time>2026-05-03T10:10:26Z</time></trkpt><trkpt lat="44.72450978797925" lon="10.28831822059392"><ele>124.33333333333333</ele><time>2026-05-03T10:10:27Z</time></trkpt><trkpt lat="44.72447768789462" lon="10.288555765005624"><ele>125.0</ele><time>2026-05-03T10:10:28Z</time></trkpt><trkpt lat="44.72444401295337" lon="10.288804713899385"><ele>125.0</ele><time>2026-05-03T10:10:29Z</time></trkpt><trkpt lat="44.72441118153195" lon="10.289049926084573"><ele>125.0</ele><time>2026-05-03T10:10:30Z</time></trkpt><trkpt lat="44.72437488076507" lon="10.289294277083386"><ele>125.0</ele><time>2026-05-03T10:10:31Z</time></trkpt><trkpt lat="44.72433758331117" lon="10.289543695808883"><ele>125.0</ele><time>2026-05-03T10:10:32Z</time></trkpt><trkpt lat="44.724300577796285" lon="10.28979192926629"><ele>125.0</ele><time>2026-05-03T10:10:33Z</time></trkpt><trkpt lat="44.72426385946078" lon="10.290039559497504"><ele>125.0</ele><time>2026-05-03T10:10:33.999Z</time></trkpt><trkpt lat="44.72422337275411" lon="10.290290739453553"><ele>125.0</ele><time>2026-05-03T10:10:34.999Z</time></trkpt><trkpt lat="44.72418370136304" lon="10.290532787924318"><ele>125.0</ele><time>2026-05-03T10:10:35.999Z</time></trkpt><trkpt lat="44.72414584136432" lon="10.290768058676365"><ele>125.0</ele><time>2026-05-03T10:10:36.999Z</time></trkpt><trkpt lat="44.72410183609408" lon="10.290994930045036"><ele>124.66666666666666</ele><time>2026-05-03T10:10:37.999Z</time></trkpt><trkpt lat="44.724056646515315" lon="10.29120370065292"><ele>124.33333333333334</ele><time>2026-05-03T10:10:38.999Z</time></trkpt><trkpt lat="44.724014521362044" lon="10.291406030886892"><ele>124.0</ele><time>2026-05-03T10:10:39.999Z</time></trkpt><trkpt lat="44.72397568591525" lon="10.291604112205679"><ele>123.66666666666667</ele><time>2026-05-03T10:10:40.999Z</time></trkpt><trkpt lat="44.72394183253693" lon="10.291816473425326"><ele>123.33333333333334</ele><time>2026-05-03T10:10:41.999Z</time></trkpt><trkpt lat="44.72388908537761" lon="10.292030544633423"><ele>123.0</ele><time>2026-05-03T10:10:42.999Z</time></trkpt><trkpt lat="44.72384470643252" lon="10.292263512886734"><ele>122.66666666666666</ele><time>2026-05-03T10:10:43.999Z</time></trkpt><trkpt lat="44.723812627543296" lon="10.292503906860865"><ele>122.33333333333333</ele><time>2026-05-03T10:10:44.999Z</time></trkpt><trkpt lat="44.72376536833477" lon="10.29273199918384"><ele>122.0</ele><time>2026-05-03T10:10:45.999Z</time></trkpt><trkpt lat="44.72372258248911" lon="10.292951968806419"><ele>122.0</ele><time>2026-05-03T10:10:46.999Z</time></trkpt><trkpt lat="44.723681166575744" lon="10.293174525316383"><ele>122.0</ele><time>2026-05-03T10:10:47.999Z</time></trkpt><trkpt lat="44.72363705719109" lon="10.293387159780705"><ele>122.0</ele><time>2026-05-03T10:10:48.999Z</time></trkpt><trkpt lat="44.72359590317257" lon="10.293592239556384"><ele>122.66666666666666</ele><time>2026-05-03T10:10:49.999Z</time></trkpt><trkpt lat="44.723553370433585" lon="10.293815205159426"><ele>123.33333333333334</ele><time>2026-05-03T10:10:50.999Z</time></trkpt><trkpt lat="44.7235136803551" lon="10.294040574792687"><ele>124.0</ele><time>2026-05-03T10:10:51.999Z</time></trkpt><trkpt lat="44.723471602416886" lon="10.294263862913365"><ele>124.0</ele><time>2026-05-03T10:10:52.999Z</time></trkpt><trkpt lat="44.72342220448308" lon="10.29447579356691"><ele>124.0</ele><time>2026-05-03T10:10:53.999Z</time></trkpt><trkpt lat="44.72335646454152" lon="10.294676278670515"><ele>124.0</ele><time>2026-05-03T10:10:54.999Z</time></trkpt><trkpt lat="44.72326754311132" lon="10.29486853213542"><ele>123.66666666666667</ele><time>2026-05-03T10:10:55.999Z</time></trkpt><trkpt lat="44.723173221728146" lon="10.29505874034568"><ele>123.33333333333334</ele><time>2026-05-03T10:10:56.999Z</time></trkpt><trkpt lat="44.72308039574116" lon="10.29525888195453"><ele>123.0</ele><time>2026-05-03T10:10:57.999Z</time></trkpt><trkpt lat="44.72299207766954" lon="10.295452187132035"><ele>122.66666666666666</ele><time>2026-05-03T10:10:58.999Z</time></trkpt><trkpt lat="44.72290827258772" lon="10.295636833915081"><ele>122.33333333333333</ele><time>2026-05-03T10:10:59.999Z</time></trkpt><trkpt lat="44.72282567598622" lon="10.295826432333328"><ele>122.0</ele><time>2026-05-03T10:11:00.999Z</time></trkpt><trkpt lat="44.722739210789086" lon="10.296016913409831"><ele>122.66666666666666</ele><time>2026-05-03T10:11:01.999Z</time></trkpt><trkpt lat="44.72265783800375" lon="10.296218468987258"><ele>123.33333333333334</ele><time>2026-05-03T10:11:02.999Z</time></trkpt><trkpt lat="44.722582004223895" lon="10.296422799093358"><ele>124.0</ele><time>2026-05-03T10:11:03.999Z</time></trkpt><trkpt lat="44.722502159805785" lon="10.29663539101647"><ele>124.0</ele><time>2026-05-03T10:11:04.999Z</time></trkpt><trkpt lat="44.72243195313065" lon="10.296835466627838"><ele>124.0</ele><time>2026-05-03T10:11:05.999Z</time></trkpt><trkpt lat="44.72235729598449" lon="10.297010901652532"><ele>124.0</ele><time>2026-05-03T10:11:06.999Z</time></trkpt><trkpt lat="44.72228154310603" lon="10.297185973159726"><ele>124.0</ele><time>2026-05-03T10:11:07.999Z</time></trkpt><trkpt lat="44.72219869112614" lon="10.297369395320835"><ele>124.0</ele><time>2026-05-03T10:11:08.999Z</time></trkpt><trkpt lat="44.72211171299613" lon="10.297551587256601"><ele>124.0</ele><time>2026-05-03T10:11:09.999Z</time></trkpt><trkpt lat="44.72202062546622" lon="10.297727117032228"><ele>124.0</ele><time>2026-05-03T10:11:10.999Z</time></trkpt><trkpt lat="44.72192155466424" lon="10.297897618733778"><ele>124.66666666666667</ele><time>2026-05-03T10:11:11.999Z</time></trkpt><trkpt lat="44.72183129444931" lon="10.29807476803069"><ele>125.33333333333334</ele><time>2026-05-03T10:11:12.999Z</time></trkpt><trkpt lat="44.721746638956084" lon="10.298251693823918"><ele>126.0</ele><time>2026-05-03T10:11:13.999Z</time></trkpt><trkpt lat="44.72166728431881" lon="10.29844210644164"><ele>126.0</ele><time>2026-05-03T10:11:14.999Z</time></trkpt><trkpt lat="44.7215869767328" lon="10.298628238635786"><ele>126.0</ele><time>2026-05-03T10:11:15.999Z</time></trkpt><trkpt lat="44.721507649017184" lon="10.298818362771447"><ele>126.0</ele><time>2026-05-03T10:11:16.999Z</time></trkpt><trkpt lat="44.72143320223104" lon="10.299001807924121"><ele>126.0</ele><time>2026-05-03T10:11:17.999Z</time></trkpt><trkpt lat="44.72137343695579" lon="10.299180342554259"><ele>126.0</ele><time>2026-05-03T10:11:18.999Z</time></trkpt><trkpt lat="44.7213218041561" lon="10.299348843404239"><ele>126.0</ele><time>2026-05-03T10:11:19.999Z</time></trkpt><trkpt lat="44.72127970776926" lon="10.299525397749171"><ele>126.0</ele><time>2026-05-03T10:11:20.999Z</time></trkpt><trkpt lat="44.721246798983955" lon="10.299714919710697"><ele>126.25</ele><time>2026-05-03T10:11:21.999Z</time></trkpt><trkpt lat="44.72121496174989" lon="10.299910154825257"><ele>126.5</ele><time>2026-05-03T10:11:22.999Z</time></trkpt><trkpt lat="44.72117690741937" lon="10.300095469170142"><ele>126.75</ele><time>2026-05-03T10:11:23.999Z</time></trkpt><trkpt lat="44.72113988471423" lon="10.300272349676947"><ele>127.0</ele><time>2026-05-03T10:11:24.999Z</time></trkpt><trkpt lat="44.721106523497085" lon="10.300442668049781"><ele>126.75</ele><time>2026-05-03T10:11:25.999Z</time></trkpt><trkpt lat="44.72107557965019" lon="10.300605989021316"><ele>126.5</ele><time>2026-05-03T10:11:26.999Z</time></trkpt><trkpt lat="44.72104400564861" lon="10.300769839152423"><ele>126.25</ele><time>2026-05-03T10:11:27.999Z</time></trkpt><trkpt lat="44.72100999628416" lon="10.300919519515036"><ele>126.0</ele><time>2026-05-03T10:11:29Z</time></trkpt><trkpt lat="44.72097726884685" lon="10.301059219777256"><ele>125.8</ele><time>2026-05-03T10:11:30Z</time></trkpt><trkpt lat="44.72094578015801" lon="10.30119272248974"><ele>125.6</ele><time>2026-05-03T10:11:31Z</time></trkpt><trkpt lat="44.720921211178826" lon="10.301327239752727"><ele>125.4</ele><time>2026-05-03T10:11:32Z</time></trkpt><trkpt lat="44.72089896551519" lon="10.301449781513666"><ele>125.2</ele><time>2026-05-03T10:11:33Z</time></trkpt><trkpt lat="44.72087352558493" lon="10.301566754795443"><ele>125.0</ele><time>2026-05-03T10:11:34Z</time></trkpt><trkpt lat="44.72085458721159" lon="10.301676495163752"><ele>124.99999999999999</ele><time>2026-05-03T10:11:35Z</time></trkpt><trkpt lat="44.720832268015805" lon="10.30178784445852"><ele>125.0</ele><time>2026-05-03T10:11:36Z</time></trkpt><trkpt lat="44.72081051465105" lon="10.30189333359423"><ele>125.0</ele><time>2026-05-03T10:11:37Z</time></trkpt><trkpt lat="44.720787550515" lon="10.302009892983094"><ele>125.0</ele><time>2026-05-03T10:11:38Z</time></trkpt><trkpt lat="44.720761250313366" lon="10.302128918314075"><ele>124.99999999999999</ele><time>2026-05-03T10:11:39Z</time></trkpt><trkpt lat="44.72073422089754" lon="10.302249379254055"><ele>125.0</ele><time>2026-05-03T10:11:40Z</time></trkpt><trkpt lat="44.72070434345154" lon="10.302375021305993"><ele>124.8</ele><time>2026-05-03T10:11:41Z</time></trkpt><trkpt lat="44.720674830250495" lon="10.302504088371494"><ele>124.6</ele><time>2026-05-03T10:11:42Z</time></trkpt><trkpt lat="44.72064990842273" lon="10.302637788581162"><ele>124.4</ele><time>2026-05-03T10:11:43Z</time></trkpt><trkpt lat="44.720620860502294" lon="10.30277180935913"><ele>124.2</ele><time>2026-05-03T10:11:44Z</time></trkpt><trkpt lat="44.72058957935644" lon="10.302906103282055"><ele>124.0</ele><time>2026-05-03T10:11:45Z</time></trkpt><trkpt lat="44.720564771064886" lon="10.303042590563921"><ele>124.00000000000001</ele><time>2026-05-03T10:11:46Z</time></trkpt><trkpt lat="44.72054026312745" lon="10.303167858101348"><ele>124.0</ele><time>2026-05-03T10:11:47Z</time></trkpt><trkpt lat="44.720515208338995" lon="10.303288217565619"><ele>124.0</ele><time>2026-05-03T10:11:48Z</time></trkpt><trkpt lat="44.72049323045387" lon="10.303407457962582"><ele>124.0</ele><time>2026-05-03T10:11:49Z</time></trkpt><trkpt lat="44.72047115837552" lon="10.30351441557178"><ele>124.00000000000001</ele><time>2026-05-03T10:11:50Z</time></trkpt><trkpt lat="44.720451413382" lon="10.30361614905874"><ele>124.0</ele><time>2026-05-03T10:11:51Z</time></trkpt><trkpt lat="44.720430947958135" lon="10.303710951394848"><ele>124.00000000000001</ele><time>2026-05-03T10:11:52Z</time></trkpt><trkpt lat="44.72041701172658" lon="10.303798276579839"><ele>124.0</ele><time>2026-05-03T10:11:53Z</time></trkpt><trkpt lat="44.720387389896025" lon="10.303960829583477"><ele>124.0</ele><time>2026-05-03T10:11:55Z</time></trkpt><trkpt lat="44.720362132851136" lon="10.304051930525157"><ele>124.0</ele><time>2026-05-03T10:11:57Z</time></trkpt><trkpt lat="44.72033669121279" lon="10.304144472871359"><ele>124.00000000000001</ele><time>2026-05-03T10:12:34Z</time></trkpt><trkpt lat="44.720307736440745" lon="10.304263302806213"><ele>124.0</ele><time>2026-05-03T10:12:36Z</time></trkpt><trkpt lat="44.720303457585445" lon="10.304435564898512"><ele>124.0</ele><time>2026-05-03T10:12:38Z</time></trkpt><trkpt lat="44.720438828104506" lon="10.304556204269177"><ele>124.0</ele><time>2026-05-03T10:12:39.999Z</time></trkpt><trkpt lat="44.72054950836998" lon="10.304594489470434"><ele>124.0</ele><time>2026-05-03T10:12:40.999Z</time></trkpt><trkpt lat="44.72066430451748" lon="10.304637730626316"><ele>124.0</ele><time>2026-05-03T10:12:41.999Z</time></trkpt><trkpt lat="44.72077900264482" lon="10.30468216371846"><ele>124.0</ele><time>2026-05-03T10:12:42.999Z</time></trkpt><trkpt lat="44.72090096714828" lon="10.304728086171375"><ele>124.0</ele><time>2026-05-03T10:12:43.999Z</time></trkpt><trkpt lat="44.721031017016294" lon="10.304770951365047"><ele>124.0</ele><time>2026-05-03T10:12:44.999Z</time></trkpt><trkpt lat="44.72116766369313" lon="10.304813656098329"><ele>124.0</ele><time>2026-05-03T10:12:45.999Z</time></trkpt><trkpt lat="44.72130169886332" lon="10.304862505574604"><ele>124.25</ele><time>2026-05-03T10:12:46.999Z</time></trkpt><trkpt lat="44.72144190562777" lon="10.304923029612784"><ele>124.5</ele><time>2026-05-03T10:12:47.999Z</time></trkpt><trkpt lat="44.721568956753046" lon="10.304967097604425"><ele>124.75</ele><time>2026-05-03T10:12:48.999Z</time></trkpt><trkpt lat="44.721704954259565" lon="10.30502243863487"><ele>125.0</ele><time>2026-05-03T10:12:49.999Z</time></trkpt><trkpt lat="44.72184635690755" lon="10.305074244271012"><ele>124.5</ele><time>2026-05-03T10:12:50.999Z</time></trkpt><trkpt lat="44.7219862418751" lon="10.305124292684827"><ele>124.0</ele><time>2026-05-03T10:12:51.999Z</time></trkpt><trkpt lat="44.722122289581876" lon="10.305176072365708"><ele>123.5</ele><time>2026-05-03T10:12:52.999Z</time></trkpt><trkpt lat="44.72226020489548" lon="10.305230997371606"><ele>123.0</ele><time>2026-05-03T10:12:53.999Z</time></trkpt><trkpt lat="44.722394773899325" lon="10.305288582239385"><ele>123.0</ele><time>2026-05-03T10:12:54.999Z</time></trkpt><trkpt lat="44.72252796025796" lon="10.30534700276576"><ele>123.0</ele><time>2026-05-03T10:12:55.999Z</time></trkpt><trkpt lat="44.72266457467433" lon="10.305402567258596"><ele>123.0</ele><time>2026-05-03T10:12:56.999Z</time></trkpt><trkpt lat="44.72280054392291" lon="10.30545327536229"><ele>123.0</ele><time>2026-05-03T10:12:57.999Z</time></trkpt><trkpt lat="44.72293910322394" lon="10.30550732599007"><ele>123.0</ele><time>2026-05-03T10:12:58.999Z</time></trkpt><trkpt lat="44.72308061536737" lon="10.305561192107811"><ele>123.0</ele><time>2026-05-03T10:12:59.999Z</time></trkpt><trkpt lat="44.72321849094305" lon="10.305619679412922"><ele>123.0</ele><time>2026-05-03T10:13:00.999Z</time></trkpt><trkpt lat="44.72336084254798" lon="10.305678627348442"><ele>123.0</ele><time>2026-05-03T10:13:01.999Z</time></trkpt><trkpt lat="44.72350302500652" lon="10.305737766262256"><ele>122.25</ele><time>2026-05-03T10:13:02.999Z</time></trkpt><trkpt lat="44.72364171699314" lon="10.305794300355416"><ele>121.5</ele><time>2026-05-03T10:13:03.999Z</time></trkpt><trkpt lat="44.72378351022479" lon="10.305858774125952"><ele>120.75</ele><time>2026-05-03T10:13:04.999Z</time></trkpt><trkpt lat="44.72392839650358" lon="10.305926291800757"><ele>120.0</ele><time>2026-05-03T10:13:05.999Z</time></trkpt><trkpt lat="44.72407171771125" lon="10.305989762116837"><ele>120.0</ele><time>2026-05-03T10:13:06.999Z</time></trkpt><trkpt lat="44.72422292901033" lon="10.306052233961145"><ele>120.0</ele><time>2026-05-03T10:13:07.999Z</time></trkpt><trkpt lat="44.724375822432094" lon="10.306119139795877"><ele>120.0</ele><time>2026-05-03T10:13:08.999Z</time></trkpt><trkpt lat="44.72453276399025" lon="10.306186380397316"><ele>119.33333333333334</ele><time>2026-05-03T10:13:09.999Z</time></trkpt><trkpt lat="44.72468917177125" lon="10.306256285761714"><ele>118.66666666666667</ele><time>2026-05-03T10:13:10.999Z</time></trkpt><trkpt lat="44.72485198290855" lon="10.306328833056478"><ele>118.0</ele><time>2026-05-03T10:13:11.999Z</time></trkpt><trkpt lat="44.725015324990956" lon="10.306395334483147"><ele>118.0</ele><time>2026-05-03T10:13:12.999Z</time></trkpt><trkpt lat="44.72517914935039" lon="10.306458156446366"><ele>118.0</ele><time>2026-05-03T10:13:13.999Z</time></trkpt><trkpt lat="44.7253428924961" lon="10.306517964990464"><ele>118.0</ele><time>2026-05-03T10:13:14.999Z</time></trkpt><trkpt lat="44.725506424639626" lon="10.306582154079685"><ele>118.0</ele><time>2026-05-03T10:13:15.999Z</time></trkpt><trkpt lat="44.7256676596021" lon="10.306647570515993"><ele>118.0</ele><time>2026-05-03T10:13:16.999Z</time></trkpt><trkpt lat="44.72582652897165" lon="10.306707853021107"><ele>118.0</ele><time>2026-05-03T10:13:17.999Z</time></trkpt><trkpt lat="44.72598914019036" lon="10.306769682890653"><ele>117.66666666666667</ele><time>2026-05-03T10:13:18.999Z</time></trkpt><trkpt lat="44.726153236301386" lon="10.306831848084673"><ele>117.33333333333334</ele><time>2026-05-03T10:13:19.999Z</time></trkpt><trkpt lat="44.726315636422406" lon="10.306896530463403"><ele>117.0</ele><time>2026-05-03T10:13:20.999Z</time></trkpt><trkpt lat="44.726468848103345" lon="10.306955427411479"><ele>117.0</ele><time>2026-05-03T10:13:21.999Z</time></trkpt><trkpt lat="44.72661993246673" lon="10.30701731320701"><ele>117.0</ele><time>2026-05-03T10:13:22.999Z</time></trkpt><trkpt lat="44.72676698487889" lon="10.307077433886732"><ele>117.0</ele><time>2026-05-03T10:13:23.999Z</time></trkpt><trkpt lat="44.726914699380664" lon="10.30713369526263"><ele>116.66666666666666</ele><time>2026-05-03T10:13:24.999Z</time></trkpt><trkpt lat="44.727060377767735" lon="10.307188481387803"><ele>116.33333333333333</ele><time>2026-05-03T10:13:25.999Z</time></trkpt><trkpt lat="44.72720968862461" lon="10.307246622152507"><ele>116.0</ele><time>2026-05-03T10:13:26.999Z</time></trkpt><trkpt lat="44.72736100647368" lon="10.307307237934252"><ele>116.0</ele><time>2026-05-03T10:13:27.999Z</time></trkpt><trkpt lat="44.72751178541002" lon="10.307367962534657"><ele>116.0</ele><time>2026-05-03T10:13:28.999Z</time></trkpt><trkpt lat="44.727663666408034" lon="10.307431430169144"><ele>116.0</ele><time>2026-05-03T10:13:29.999Z</time></trkpt><trkpt lat="44.727814411429" lon="10.307498430842864"><ele>115.33333333333333</ele><time>2026-05-03T10:13:30.999Z</time></trkpt><trkpt lat="44.72796209514872" lon="10.30756425509953"><ele>114.66666666666666</ele><time>2026-05-03T10:13:31.999Z</time></trkpt><trkpt lat="44.728108939081" lon="10.307626613745079"><ele>114.0</ele><time>2026-05-03T10:13:32.999Z</time></trkpt><trkpt lat="44.728258248493724" lon="10.307689045573797"><ele>114.0</ele><time>2026-05-03T10:13:33.999Z</time></trkpt><trkpt lat="44.7284099292417" lon="10.30774714208894"><ele>114.0</ele><time>2026-05-03T10:13:35Z</time></trkpt><trkpt lat="44.72856158696805" lon="10.30780514096116"><ele>114.0</ele><time>2026-05-03T10:13:36Z</time></trkpt><trkpt lat="44.72871567312612" lon="10.307865400849"><ele>113.33333333333334</ele><time>2026-05-03T10:13:37Z</time></trkpt><trkpt lat="44.7288682973826" lon="10.30793017125243"><ele>112.66666666666667</ele><time>2026-05-03T10:13:38Z</time></trkpt><trkpt lat="44.72902121636912" lon="10.30799227597979"><ele>112.0</ele><time>2026-05-03T10:13:39Z</time></trkpt><trkpt lat="44.7291714868019" lon="10.308055758248875"><ele>112.0</ele><time>2026-05-03T10:13:40Z</time></trkpt><trkpt lat="44.729326336704425" lon="10.308119825203109"><ele>112.0</ele><time>2026-05-03T10:13:41Z</time></trkpt><trkpt lat="44.729480351219564" lon="10.308183597597122"><ele>112.0</ele><time>2026-05-03T10:13:42Z</time></trkpt><trkpt lat="44.72963393381519" lon="10.308250587429443"><ele>112.0</ele><time>2026-05-03T10:13:43Z</time></trkpt><trkpt lat="44.7297910595657" lon="10.30831833617643"><ele>112.0</ele><time>2026-05-03T10:13:44Z</time></trkpt><trkpt lat="44.72994580174726" lon="10.30838662788746"><ele>112.0</ele><time>2026-05-03T10:13:45Z</time></trkpt><trkpt lat="44.73009915120074" lon="10.308452697710605"><ele>112.0</ele><time>2026-05-03T10:13:46Z</time></trkpt><trkpt lat="44.73025264068188" lon="10.308512499378626"><ele>112.0</ele><time>2026-05-03T10:13:47Z</time></trkpt><trkpt lat="44.730412813485806" lon="10.308576522605636"><ele>112.0</ele><time>2026-05-03T10:13:48Z</time></trkpt><trkpt lat="44.73057065690938" lon="10.308639869315419"><ele>112.0</ele><time>2026-05-03T10:13:49Z</time></trkpt><trkpt lat="44.73072833619789" lon="10.308699485443467"><ele>112.0</ele><time>2026-05-03T10:13:50Z</time></trkpt><trkpt lat="44.730883823467416" lon="10.308766413509234"><ele>112.0</ele><time>2026-05-03T10:13:51Z</time></trkpt><trkpt lat="44.73103492772747" lon="10.308833450842211"><ele>111.75</ele><time>2026-05-03T10:13:52Z</time></trkpt><trkpt lat="44.73118272555669" lon="10.308898089021394"><ele>111.5</ele><time>2026-05-03T10:13:53Z</time></trkpt><trkpt lat="44.73132663624861" lon="10.308956635868288"><ele>111.25</ele><time>2026-05-03T10:13:54Z</time></trkpt><trkpt lat="44.731461532144905" lon="10.309013294695283"><ele>111.0</ele><time>2026-05-03T10:13:55Z</time></trkpt><trkpt lat="44.731583864215786" lon="10.309063296003046"><ele>110.8</ele><time>2026-05-03T10:13:56Z</time></trkpt><trkpt lat="44.73168590727848" lon="10.309103860503177"><ele>110.6</ele><time>2026-05-03T10:13:57Z</time></trkpt><trkpt lat="44.73176707351103" lon="10.309137799351205"><ele>110.4</ele><time>2026-05-03T10:13:58Z</time></trkpt><trkpt lat="44.731848749574844" lon="10.309197966211059"><ele>110.2</ele><time>2026-05-03T10:14:00Z</time></trkpt><trkpt lat="44.73183265115508" lon="10.309378680263544"><ele>110.0</ele><time>2026-05-03T10:14:03Z</time></trkpt><trkpt lat="44.73179192809132" lon="10.309518442306972"><ele>110.0</ele><time>2026-05-03T10:14:05Z</time></trkpt><trkpt lat="44.73177078820957" lon="10.309676492366357"><ele>110.0</ele><time>2026-05-03T10:14:07Z</time></trkpt><trkpt lat="44.73165297875683" lon="10.309773975985012"><ele>110.0</ele><time>2026-05-03T10:14:09Z</time></trkpt><trkpt lat="44.731616931687" lon="10.309889004266129"><ele>110.0</ele><time>2026-05-03T10:14:11Z</time></trkpt><trkpt lat="44.7316788576201" lon="10.309956336215937"><ele>110.0</ele><time>2026-05-03T10:15:38.999Z</time></trkpt><trkpt lat="44.7316482963401" lon="10.310124631288117"><ele>110.16666666666666</ele><time>2026-05-03T10:15:49Z</time></trkpt><trkpt lat="44.731728336031324" lon="10.310196107702215"><ele>110.33333333333333</ele><time>2026-05-03T10:16:00Z</time></trkpt><trkpt lat="44.731794623147096" lon="10.31026074802473"><ele>110.5</ele><time>2026-05-03T10:16:19Z</time></trkpt><trkpt lat="44.731853892370786" lon="10.31022089152707"><ele>110.66666666666666</ele><time>2026-05-03T10:16:25Z</time></trkpt><trkpt lat="44.7319296793435" lon="10.310241647771134"><ele>110.83333333333333</ele><time>2026-05-03T10:16:34Z</time></trkpt><trkpt lat="44.73199756139312" lon="10.310247552060872"><ele>111.0</ele><time>2026-05-03T10:16:45Z</time></trkpt><trkpt lat="44.73205257723847" lon="10.310299922498091"><ele>110.57142857142857</ele><time>2026-05-03T10:16:51.999Z</time></trkpt><trkpt lat="44.73205144854686" lon="10.310393957737622"><ele>110.14285714285715</ele><time>2026-05-03T10:17:01.999Z</time></trkpt><trkpt lat="44.73203945647213" lon="10.310485470072683"><ele>109.71428571428572</ele><time>2026-05-03T10:17:05.999Z</time></trkpt><trkpt lat="44.73200214381231" lon="10.310570269692773"><ele>109.28571428571428</ele><time>2026-05-03T10:17:13.999Z</time></trkpt><trkpt lat="44.73198304760745" lon="10.310665691105672"><ele>108.85714285714286</ele><time>2026-05-03T10:17:20.999Z</time></trkpt><trkpt lat="44.73196145727879" lon="10.31077285117033"><ele>108.42857142857143</ele><time>2026-05-03T10:17:28.999Z</time></trkpt><trkpt lat="44.731937245502394" lon="10.310854994452077"><ele>108.0</ele><time>2026-05-03T10:17:35.999Z</time></trkpt><trkpt lat="44.73193483440132" lon="10.310952366408896"><ele>108.0</ele><time>2026-05-03T10:17:43.999Z</time></trkpt><trkpt lat="44.731994095887536" lon="10.311019681800964"><ele>108.0</ele><time>2026-05-03T10:17:54Z</time></trkpt><trkpt lat="44.73203932042929" lon="10.311082935361547"><ele>108.0</ele><time>2026-05-03T10:18:00Z</time></trkpt><trkpt lat="44.73198735293906" lon="10.311143649469482"><ele>108.0</ele><time>2026-05-03T10:18:02Z</time></trkpt><trkpt lat="44.731921818022194" lon="10.311136376167951"><ele>108.0</ele><time>2026-05-03T10:18:05Z</time></trkpt><trkpt lat="44.73188016576337" lon="10.311231564338717"><ele>108.0</ele><time>2026-05-03T10:18:16Z</time></trkpt><trkpt lat="44.731952103555464" lon="10.311244077753903"><ele>108.0</ele><time>2026-05-03T10:19:01.999Z</time></trkpt><trkpt lat="44.731893805569385" lon="10.311185278205937"><ele>108.0</ele><time>2026-05-03T10:22:24Z</time></trkpt><trkpt lat="44.73195353460398" lon="10.311142850588245"><ele>108.0</ele><time>2026-05-03T10:23:15.999Z</time></trkpt><trkpt lat="44.73197324294705" lon="10.311053690184352"><ele>108.0</ele><time>2026-05-03T10:23:16.999Z</time></trkpt><trkpt lat="44.73201970625478" lon="10.310967061423293"><ele>108.0</ele><time>2026-05-03T10:23:19.999Z</time></trkpt><trkpt lat="44.731952178014375" lon="10.3109620923722"><ele>108.0</ele><time>2026-05-03T10:23:28.999Z</time></trkpt><trkpt lat="44.731998651400296" lon="10.310877187467298"><ele>108.0</ele><time>2026-05-03T10:23:37.999Z</time></trkpt><trkpt lat="44.7319741423706" lon="10.310793751784722"><ele>108.0</ele><time>2026-05-03T10:23:46.999Z</time></trkpt><trkpt lat="44.732014752122026" lon="10.31072128591917"><ele>108.0</ele><time>2026-05-03T10:23:51.999Z</time></trkpt><trkpt lat="44.73202831498726" lon="10.31062235975262"><ele>108.0</ele><time>2026-05-03T10:23:59.999Z</time></trkpt><trkpt lat="44.73202980204688" lon="10.310525753902454"><ele>108.0</ele><time>2026-05-03T10:24:09Z</time></trkpt><trkpt lat="44.73207586980239" lon="10.310464682911542"><ele>108.0</ele><time>2026-05-03T10:24:15Z</time></trkpt><trkpt lat="44.73210205608132" lon="10.31036410403769"><ele>108.0</ele><time>2026-05-03T10:24:20Z</time></trkpt><trkpt lat="44.732080413393874" lon="10.310275708464362"><ele>108.0</ele><time>2026-05-03T10:24:30Z</time></trkpt><trkpt lat="44.732022988263594" lon="10.31023631142982"><ele>108.0</ele><time>2026-05-03T10:24:35Z</time></trkpt><trkpt lat="44.73195913123729" lon="10.310238859818295"><ele>108.5</ele><time>2026-05-03T10:24:41Z</time></trkpt><trkpt lat="44.7318871583409" lon="10.310211452395759"><ele>109.0</ele><time>2026-05-03T10:24:49Z</time></trkpt><trkpt lat="44.73181708568642" lon="10.310227139137965"><ele>109.5</ele><time>2026-05-03T10:25:00Z</time></trkpt><trkpt lat="44.73174598756369" lon="10.310219289763078"><ele>110.0</ele><time>2026-05-03T10:25:18.999Z</time></trkpt><trkpt lat="44.73168339094192" lon="10.310170441913137"><ele>110.5</ele><time>2026-05-03T10:25:26.999Z</time></trkpt><trkpt lat="44.73165393441207" lon="10.310087913207292"><ele>111.0</ele><time>2026-05-03T10:25:37.999Z</time></trkpt><trkpt lat="44.73172431942405" lon="10.309992298334548"><ele>111.0</ele><time>2026-05-03T10:29:03Z</time></trkpt><trkpt lat="44.731792173873586" lon="10.30996446606518"><ele>111.0</ele><time>2026-05-03T10:29:04Z</time></trkpt><trkpt lat="44.731845875088986" lon="10.309804514922638"><ele>111.0</ele><time>2026-05-03T10:29:06Z</time></trkpt><trkpt lat="44.73180734739848" lon="10.30969254564089"><ele>111.0</ele><time>2026-05-03T10:29:07Z</time></trkpt><trkpt lat="44.73181535996077" lon="10.309569317329231"><ele>111.0</ele><time>2026-05-03T10:29:08Z</time></trkpt><trkpt lat="44.73183700529586" lon="10.309436965700657"><ele>110.8</ele><time>2026-05-03T10:29:09Z</time></trkpt><trkpt lat="44.73186568027683" lon="10.309325406183351"><ele>110.6</ele><time>2026-05-03T10:29:10Z</time></trkpt><trkpt lat="44.731900374248646" lon="10.309206827380947"><ele>110.4</ele><time>2026-05-03T10:29:12Z</time></trkpt><trkpt lat="44.73203978276532" lon="10.309244458855648"><ele>110.2</ele><time>2026-05-03T10:29:15Z</time></trkpt><trkpt lat="44.73216183244662" lon="10.309311091136284"><ele>110.0</ele><time>2026-05-03T10:29:16Z</time></trkpt><trkpt lat="44.73229360980018" lon="10.309369547003245"><ele>110.0</ele><time>2026-05-03T10:29:17Z</time></trkpt><trkpt lat="44.73246629283987" lon="10.309425331650761"><ele>110.0</ele><time>2026-05-03T10:29:18Z</time></trkpt><trkpt lat="44.7326442317442" lon="10.30948644141716"><ele>110.0</ele><time>2026-05-03T10:29:19Z</time></trkpt><trkpt lat="44.73281311331035" lon="10.309552082698788"><ele>110.0</ele><time>2026-05-03T10:29:20Z</time></trkpt><trkpt lat="44.732978847302974" lon="10.309614219475433"><ele>110.0</ele><time>2026-05-03T10:29:21Z</time></trkpt><trkpt lat="44.733145522399454" lon="10.309674972238996"><ele>110.0</ele><time>2026-05-03T10:29:22Z</time></trkpt><trkpt lat="44.733315961774906" lon="10.30974351352917"><ele>110.0</ele><time>2026-05-03T10:29:23Z</time></trkpt><trkpt lat="44.7334838493906" lon="10.3098040179524"><ele>110.0</ele><time>2026-05-03T10:29:23.999Z</time></trkpt><trkpt lat="44.733668203828095" lon="10.309863011014496"><ele>110.0</ele><time>2026-05-03T10:29:24.999Z</time></trkpt><trkpt lat="44.733861148490305" lon="10.309933369871139"><ele>110.0</ele><time>2026-05-03T10:29:25.999Z</time></trkpt><trkpt lat="44.73404952468162" lon="10.310004248635206"><ele>110.0</ele><time>2026-05-03T10:29:26.999Z</time></trkpt><trkpt lat="44.73424101564959" lon="10.310080956234236"><ele>110.0</ele><time>2026-05-03T10:29:27.999Z</time></trkpt><trkpt lat="44.734423015417256" lon="10.310155429785272"><ele>109.33333333333333</ele><time>2026-05-03T10:29:28.999Z</time></trkpt><trkpt lat="44.73460828287223" lon="10.310229201254993"><ele>108.66666666666666</ele><time>2026-05-03T10:29:29.999Z</time></trkpt><trkpt lat="44.734793812813066" lon="10.31030026930107"><ele>108.0</ele><time>2026-05-03T10:29:30.999Z</time></trkpt><trkpt lat="44.734985886412694" lon="10.310371199183518"><ele>108.0</ele><time>2026-05-03T10:29:31.999Z</time></trkpt><trkpt lat="44.735234958895646" lon="10.310474886350097"><ele>108.0</ele><time>2026-05-03T10:29:32.999Z</time></trkpt><trkpt lat="44.735327258575374" lon="10.310521549377517"><ele>108.0</ele><time>2026-05-03T10:29:33.999Z</time></trkpt><trkpt lat="44.73550123002042" lon="10.310600478581994"><ele>107.33333333333334</ele><time>2026-05-03T10:29:34.999Z</time></trkpt><trkpt lat="44.735677805103464" lon="10.31067836071271"><ele>106.66666666666667</ele><time>2026-05-03T10:29:35.999Z</time></trkpt><trkpt lat="44.73586080409472" lon="10.310755052035196"><ele>106.0</ele><time>2026-05-03T10:29:36.999Z</time></trkpt><trkpt lat="44.73604869047823" lon="10.310840780937419"><ele>106.33333333333334</ele><time>2026-05-03T10:29:37.999Z</time></trkpt><trkpt lat="44.73623822861202" lon="10.310932761396282"><ele>106.66666666666666</ele><time>2026-05-03T10:29:38.999Z</time></trkpt><trkpt lat="44.736427064466206" lon="10.311017241265896"><ele>107.0</ele><time>2026-05-03T10:29:39.999Z</time></trkpt><trkpt lat="44.73661603243121" lon="10.311091403286413"><ele>107.0</ele><time>2026-05-03T10:29:40.999Z</time></trkpt><trkpt lat="44.73680368549417" lon="10.311175221220909"><ele>107.0</ele><time>2026-05-03T10:29:41.999Z</time></trkpt><trkpt lat="44.73699396932536" lon="10.311266987860277"><ele>107.0</ele><time>2026-05-03T10:29:42.999Z</time></trkpt><trkpt lat="44.73718945086338" lon="10.31134993246098"><ele>106.33333333333333</ele><time>2026-05-03T10:29:43.999Z</time></trkpt><trkpt lat="44.7373894984747" lon="10.311436749173382"><ele>105.66666666666666</ele><time>2026-05-03T10:29:44.999Z</time></trkpt><trkpt lat="44.73758879010535" lon="10.311524607345586"><ele>105.0</ele><time>2026-05-03T10:29:45.999Z</time></trkpt><trkpt lat="44.73778714237014" lon="10.31161288928795"><ele>104.66666666666666</ele><time>2026-05-03T10:29:46.999Z</time></trkpt><trkpt lat="44.737987981195666" lon="10.311698366808233"><ele>104.33333333333333</ele><time>2026-05-03T10:29:47.999Z</time></trkpt><trkpt lat="44.738191632483144" lon="10.311786404522259"><ele>104.0</ele><time>2026-05-03T10:29:48.999Z</time></trkpt><trkpt lat="44.73839513349795" lon="10.311876065436547"><ele>104.0</ele><time>2026-05-03T10:29:49.999Z</time></trkpt><trkpt lat="44.738601361346575" lon="10.311962871600606"><ele>104.0</ele><time>2026-05-03T10:29:50.999Z</time></trkpt><trkpt lat="44.73881104922453" lon="10.31205235882653"><ele>104.0</ele><time>2026-05-03T10:29:51.999Z</time></trkpt><trkpt lat="44.73902320940999" lon="10.312145758697163"><ele>104.0</ele><time>2026-05-03T10:29:52.999Z</time></trkpt><trkpt lat="44.739236375672085" lon="10.312239172608951"><ele>104.0</ele><time>2026-05-03T10:29:53.999Z</time></trkpt><trkpt lat="44.73945269719608" lon="10.312333366885234"><ele>103.66666666666666</ele><time>2026-05-03T10:29:54.999Z</time></trkpt><trkpt lat="44.739667374919634" lon="10.312421481554647"><ele>103.33333333333334</ele><time>2026-05-03T10:29:55.999Z</time></trkpt><trkpt lat="44.73987612735451" lon="10.312514347208214"><ele>103.0</ele><time>2026-05-03T10:29:56.999Z</time></trkpt><trkpt lat="44.740087813719086" lon="10.312609346477599"><ele>102.33333333333334</ele><time>2026-05-03T10:29:57.999Z</time></trkpt><trkpt lat="44.7402978971701" lon="10.3126939918218"><ele>101.66666666666666</ele><time>2026-05-03T10:29:58.999Z</time></trkpt><trkpt lat="44.74051019126221" lon="10.312777101575174"><ele>101.0</ele><time>2026-05-03T10:29:59.999Z</time></trkpt><trkpt lat="44.74072336887428" lon="10.312874931597559"><ele>101.0</ele><time>2026-05-03T10:30:00.999Z</time></trkpt><trkpt lat="44.74093666054951" lon="10.312979955267958"><ele>101.0</ele><time>2026-05-03T10:30:01.999Z</time></trkpt><trkpt lat="44.74115236225421" lon="10.313081763045467"><ele>101.0</ele><time>2026-05-03T10:30:02.999Z</time></trkpt><trkpt lat="44.741369952231544" lon="10.313178864829041"><ele>101.0</ele><time>2026-05-03T10:30:03.999Z</time></trkpt><trkpt lat="44.74158936927954" lon="10.313253042238614"><ele>101.0</ele><time>2026-05-03T10:30:04.999Z</time></trkpt><trkpt lat="44.7418077381802" lon="10.313344801241048"><ele>101.0</ele><time>2026-05-03T10:30:05.999Z</time></trkpt><trkpt lat="44.74202834506586" lon="10.313456295186606"><ele>100.5</ele><time>2026-05-03T10:30:06.999Z</time></trkpt><trkpt lat="44.742246174101766" lon="10.313548963082713"><ele>100.0</ele><time>2026-05-03T10:30:07.999Z</time></trkpt><trkpt lat="44.74246441885908" lon="10.31363896041598"><ele>100.0</ele><time>2026-05-03T10:30:08.999Z</time></trkpt><trkpt lat="44.742673501061105" lon="10.31372251808436"><ele>100.0</ele><time>2026-05-03T10:30:09.999Z</time></trkpt><trkpt lat="44.74287695795887" lon="10.313807837887834"><ele>100.0</ele><time>2026-05-03T10:30:10.999Z</time></trkpt><trkpt lat="44.74306877374735" lon="10.313893872607578"><ele>100.33333333333334</ele><time>2026-05-03T10:30:11.999Z</time></trkpt><trkpt lat="44.743267193302586" lon="10.313978715482401"><ele>100.66666666666666</ele><time>2026-05-03T10:30:12.999Z</time></trkpt><trkpt lat="44.74344783278488" lon="10.314055610449277"><ele>101.0</ele><time>2026-05-03T10:30:13.999Z</time></trkpt><trkpt lat="44.743620022872" lon="10.314119741892158"><ele>100.25</ele><time>2026-05-03T10:30:14.999Z</time></trkpt><trkpt lat="44.74375354826034" lon="10.314178511971507"><ele>99.5</ele><time>2026-05-03T10:30:15.999Z</time></trkpt><trkpt lat="44.74387929829942" lon="10.314236170459578"><ele>98.75</ele><time>2026-05-03T10:30:16.999Z</time></trkpt><trkpt lat="44.7440099080243" lon="10.314289526513063"><ele>98.0</ele><time>2026-05-03T10:30:17.999Z</time></trkpt><trkpt lat="44.744133381918736" lon="10.314339398694512"><ele>98.0</ele><time>2026-05-03T10:30:18.999Z</time></trkpt><trkpt lat="44.744258513962635" lon="10.314387118012453"><ele>98.0</ele><time>2026-05-03T10:30:19.999Z</time></trkpt><trkpt lat="44.74439556799704" lon="10.314437409319684"><ele>98.0</ele><time>2026-05-03T10:30:20.999Z</time></trkpt><trkpt lat="44.74450829001396" lon="10.31448033145968"><ele>98.0</ele><time>2026-05-03T10:30:21.999Z</time></trkpt><trkpt lat="44.744579039532574" lon="10.314520272772935"><ele>97.5</ele><time>2026-05-03T10:30:23Z</time></trkpt><trkpt lat="44.74466326428759" lon="10.314554156523242"><ele>97.0</ele><time>2026-05-03T10:30:24Z</time></trkpt><trkpt lat="44.744765444842024" lon="10.314598078975774"><ele>96.5</ele><time>2026-05-03T10:30:25Z</time></trkpt><trkpt lat="44.744889910988576" lon="10.314651741415988"><ele>96.0</ele><time>2026-05-03T10:30:26Z</time></trkpt><trkpt lat="44.74502748504004" lon="10.3147097519409"><ele>96.33333333333334</ele><time>2026-05-03T10:30:27Z</time></trkpt><trkpt lat="44.74517509150758" lon="10.31477131349693"><ele>96.66666666666667</ele><time>2026-05-03T10:30:28Z</time></trkpt><trkpt lat="44.74533150022094" lon="10.31484174371394"><ele>97.0</ele><time>2026-05-03T10:30:29Z</time></trkpt><trkpt lat="44.74549943566763" lon="10.314914218330507"><ele>97.0</ele><time>2026-05-03T10:30:30Z</time></trkpt><trkpt lat="44.745659269630096" lon="10.314980769279844"><ele>97.0</ele><time>2026-05-03T10:30:31Z</time></trkpt><trkpt lat="44.74582208496556" lon="10.315042429591577"><ele>97.0</ele><time>2026-05-03T10:30:32Z</time></trkpt><trkpt lat="44.74600042418316" lon="10.315116558705409"><ele>96.33333333333334</ele><time>2026-05-03T10:30:33Z</time></trkpt><trkpt lat="44.746180786982414" lon="10.315197644276545"><ele>95.66666666666667</ele><time>2026-05-03T10:30:34Z</time></trkpt><trkpt lat="44.74636985892287" lon="10.31527822892466"><ele>95.0</ele><time>2026-05-03T10:30:35Z</time></trkpt><trkpt lat="44.74656436849142" lon="10.315364069307053"><ele>95.0</ele><time>2026-05-03T10:30:36Z</time></trkpt><trkpt lat="44.74676621005378" lon="10.315448618149514"><ele>95.0</ele><time>2026-05-03T10:30:37Z</time></trkpt><trkpt lat="44.74697275387887" lon="10.31553200123884"><ele>95.0</ele><time>2026-05-03T10:30:38Z</time></trkpt><trkpt lat="44.74717317925904" lon="10.315615698249331"><ele>94.66666666666667</ele><time>2026-05-03T10:30:39Z</time></trkpt><trkpt lat="44.74736607731168" lon="10.315698078149305"><ele>94.33333333333333</ele><time>2026-05-03T10:30:40Z</time></trkpt><trkpt lat="44.74757079242591" lon="10.315780367459007"><ele>94.0</ele><time>2026-05-03T10:30:41Z</time></trkpt><trkpt lat="44.74777726198482" lon="10.315866094861661"><ele>94.0</ele><time>2026-05-03T10:30:42Z</time></trkpt><trkpt lat="44.7479834445489" lon="10.315948950052732"><ele>94.0</ele><time>2026-05-03T10:30:43Z</time></trkpt><trkpt lat="44.748199181733845" lon="10.316036976575907"><ele>94.0</ele><time>2026-05-03T10:30:44Z</time></trkpt><trkpt lat="44.74840550147415" lon="10.316126645287907"><ele>93.33333333333333</ele><time>2026-05-03T10:30:45Z</time></trkpt><trkpt lat="44.748603154192246" lon="10.316212687491886"><ele>92.66666666666667</ele><time>2026-05-03T10:30:46Z</time></trkpt><trkpt lat="44.748808491437075" lon="10.316297935001964"><ele>92.0</ele><time>2026-05-03T10:30:47Z</time></trkpt><trkpt lat="44.749016878207065" lon="10.316384625992548"><ele>91.66666666666667</ele><time>2026-05-03T10:30:48Z</time></trkpt><trkpt lat="44.749227881879754" lon="10.316472658462416"><ele>91.33333333333333</ele><time>2026-05-03T10:30:49Z</time></trkpt><trkpt lat="44.74944374212992" lon="10.31654776684176"><ele>91.0</ele><time>2026-05-03T10:30:50Z</time></trkpt><trkpt lat="44.74965624196793" lon="10.316629730985428"><ele>91.0</ele><time>2026-05-03T10:30:51Z</time></trkpt><trkpt lat="44.74987072694752" lon="10.31670307066973"><ele>91.0</ele><time>2026-05-03T10:30:52Z</time></trkpt><trkpt lat="44.750081836109736" lon="10.316777352064886"><ele>91.0</ele><time>2026-05-03T10:30:53Z</time></trkpt><trkpt lat="44.75029592194255" lon="10.31684808615053"><ele>91.0</ele><time>2026-05-03T10:30:54Z</time></trkpt><trkpt lat="44.75050835823883" lon="10.316917518157624"><ele>91.0</ele><time>2026-05-03T10:30:55Z</time></trkpt><trkpt lat="44.75070733394027" lon="10.316984870721097"><ele>91.0</ele><time>2026-05-03T10:30:56Z</time></trkpt><trkpt lat="44.7509054363486" lon="10.317042468389824"><ele>90.66666666666666</ele><time>2026-05-03T10:30:57Z</time></trkpt><trkpt lat="44.751098562098235" lon="10.31710221076557"><ele>90.33333333333333</ele><time>2026-05-03T10:30:58Z</time></trkpt><trkpt lat="44.75130071423832" lon="10.31716976303169"><ele>90.0</ele><time>2026-05-03T10:30:59Z</time></trkpt><trkpt lat="44.75150606275644" lon="10.317248714134244"><ele>89.66666666666667</ele><time>2026-05-03T10:31:00Z</time></trkpt><trkpt lat="44.75170801117619" lon="10.317330755688829"><ele>89.33333333333334</ele><time>2026-05-03T10:31:01Z</time></trkpt><trkpt lat="44.75192270902052" lon="10.317408624037792"><ele>89.0</ele><time>2026-05-03T10:31:02Z</time></trkpt><trkpt lat="44.75213350234967" lon="10.317482928456103"><ele>89.0</ele><time>2026-05-03T10:31:03Z</time></trkpt><trkpt lat="44.75233218800896" lon="10.317574152337066"><ele>89.0</ele><time>2026-05-03T10:31:04Z</time></trkpt><trkpt lat="44.75254542347589" lon="10.317653368345118"><ele>89.0</ele><time>2026-05-03T10:31:05Z</time></trkpt><trkpt lat="44.75275308671758" lon="10.317735572965434"><ele>88.0</ele><time>2026-05-03T10:31:06Z</time></trkpt><trkpt lat="44.75296302615404" lon="10.317810567899055"><ele>87.0</ele><time>2026-05-03T10:31:07Z</time></trkpt><trkpt lat="44.75318128051196" lon="10.317882224075996"><ele>86.0</ele><time>2026-05-03T10:31:08Z</time></trkpt><trkpt lat="44.75338968672024" lon="10.317955137735044"><ele>86.0</ele><time>2026-05-03T10:31:09Z</time></trkpt><trkpt lat="44.753565829106684" lon="10.318046043882743"><ele>86.0</ele><time>2026-05-03T10:31:10Z</time></trkpt><trkpt lat="44.75376270542416" lon="10.31812769632894"><ele>86.0</ele><time>2026-05-03T10:31:11Z</time></trkpt><trkpt lat="44.753961359228555" lon="10.318210907670691"><ele>86.0</ele><time>2026-05-03T10:31:12Z</time></trkpt><trkpt lat="44.754167147870405" lon="10.3182859857763"><ele>86.0</ele><time>2026-05-03T10:31:13Z</time></trkpt><trkpt lat="44.7543664713688" lon="10.318367430836036"><ele>86.0</ele><time>2026-05-03T10:31:14Z</time></trkpt><trkpt lat="44.75456778567239" lon="10.3184462042505"><ele>86.33333333333334</ele><time>2026-05-03T10:31:15Z</time></trkpt><trkpt lat="44.75477185030298" lon="10.31852751991526"><ele>86.66666666666667</ele><time>2026-05-03T10:31:16Z</time></trkpt><trkpt lat="44.754973889992726" lon="10.318613571777577"><ele>87.0</ele><time>2026-05-03T10:31:17Z</time></trkpt><trkpt lat="44.75517751760885" lon="10.318697932465993"><ele>86.66666666666667</ele><time>2026-05-03T10:31:18Z</time></trkpt><trkpt lat="44.75537365499566" lon="10.318777751651695"><ele>86.33333333333334</ele><time>2026-05-03T10:31:19Z</time></trkpt><trkpt lat="44.75556991426751" lon="10.318862860413777"><ele>86.0</ele><time>2026-05-03T10:31:20Z</time></trkpt><trkpt lat="44.75576806462164" lon="10.3189466431191"><ele>85.66666666666667</ele><time>2026-05-03T10:31:21Z</time></trkpt><trkpt lat="44.755962693664834" lon="10.3190355235064"><ele>85.33333333333333</ele><time>2026-05-03T10:31:22Z</time></trkpt><trkpt lat="44.75615935418165" lon="10.319121245289974"><ele>85.0</ele><time>2026-05-03T10:31:23Z</time></trkpt><trkpt lat="44.75635474947045" lon="10.319208549707632"><ele>85.0</ele><time>2026-05-03T10:31:24Z</time></trkpt><trkpt lat="44.75653847772188" lon="10.319295757393954"><ele>85.0</ele><time>2026-05-03T10:31:25Z</time></trkpt><trkpt lat="44.75671882179457" lon="10.319372855652603"><ele>85.0</ele><time>2026-05-03T10:31:26Z</time></trkpt><trkpt lat="44.756902930658455" lon="10.319456072144359"><ele>85.0</ele><time>2026-05-03T10:31:26.999Z</time></trkpt><trkpt lat="44.757086286324146" lon="10.319542958165778"><ele>85.0</ele><time>2026-05-03T10:31:27.999Z</time></trkpt><trkpt lat="44.75727089982817" lon="10.319626855625241"><ele>85.0</ele><time>2026-05-03T10:31:28.999Z</time></trkpt><trkpt lat="44.75745514368486" lon="10.319704158984573"><ele>84.66666666666666</ele><time>2026-05-03T10:31:29.999Z</time></trkpt><trkpt lat="44.7576410337746" lon="10.319778281019701"><ele>84.33333333333333</ele><time>2026-05-03T10:31:30.999Z</time></trkpt><trkpt lat="44.75783131590178" lon="10.31985402197341"><ele>84.0</ele><time>2026-05-03T10:31:31.999Z</time></trkpt><trkpt lat="44.75801819318788" lon="10.319923886060076"><ele>83.66666666666667</ele><time>2026-05-03T10:31:32.999Z</time></trkpt><trkpt lat="44.75819594438525" lon="10.319993612547414"><ele>83.33333333333334</ele><time>2026-05-03T10:31:33.999Z</time></trkpt><trkpt lat="44.75836591492932" lon="10.32006157314218"><ele>83.0</ele><time>2026-05-03T10:31:34.999Z</time></trkpt><trkpt lat="44.75852539148864" lon="10.320124844706482"><ele>82.66666666666667</ele><time>2026-05-03T10:31:35.999Z</time></trkpt><trkpt lat="44.758678490301364" lon="10.320183486358113"><ele>82.33333333333333</ele><time>2026-05-03T10:31:36.999Z</time></trkpt><trkpt lat="44.75883840586786" lon="10.320244245300156"><ele>82.0</ele><time>2026-05-03T10:31:37.999Z</time></trkpt><trkpt lat="44.75900135452485" lon="10.320309053070812"><ele>82.0</ele><time>2026-05-03T10:31:38.999Z</time></trkpt><trkpt lat="44.75916573035317" lon="10.320373402067682"><ele>82.0</ele><time>2026-05-03T10:31:39.999Z</time></trkpt><trkpt lat="44.75932242480007" lon="10.320435750199207"><ele>82.0</ele><time>2026-05-03T10:31:40.999Z</time></trkpt><trkpt lat="44.75948893448358" lon="10.320497793764078"><ele>81.66666666666666</ele><time>2026-05-03T10:31:41.999Z</time></trkpt><trkpt lat="44.75965290469879" lon="10.320556483673224"><ele>81.33333333333333</ele><time>2026-05-03T10:31:42.999Z</time></trkpt><trkpt lat="44.75982065043964" lon="10.320618241893415"><ele>81.0</ele><time>2026-05-03T10:31:43.999Z</time></trkpt><trkpt lat="44.75998225469593" lon="10.32068512777637"><ele>80.33333333333333</ele><time>2026-05-03T10:31:44.999Z</time></trkpt><trkpt lat="44.76014194571319" lon="10.32075455555331"><ele>79.66666666666666</ele><time>2026-05-03T10:31:45.999Z</time></trkpt><trkpt lat="44.76029628149373" lon="10.320815736511426"><ele>79.0</ele><time>2026-05-03T10:31:46.999Z</time></trkpt><trkpt lat="44.76044591027015" lon="10.320871084444923"><ele>78.75</ele><time>2026-05-03T10:31:47.999Z</time></trkpt><trkpt lat="44.760590548457635" lon="10.32092370052316"><ele>78.5</ele><time>2026-05-03T10:31:48.999Z</time></trkpt><trkpt lat="44.760734249309536" lon="10.320977281803524"><ele>78.25</ele><time>2026-05-03T10:31:49.999Z</time></trkpt><trkpt lat="44.76087747702626" lon="10.32103510497335"><ele>78.0</ele><time>2026-05-03T10:31:50.999Z</time></trkpt><trkpt lat="44.76102071499677" lon="10.321094234251817"><ele>79.0</ele><time>2026-05-03T10:31:51.999Z</time></trkpt><trkpt lat="44.76116343135953" lon="10.32114954181568"><ele>80.0</ele><time>2026-05-03T10:31:52.999Z</time></trkpt><trkpt lat="44.76130308351833" lon="10.321200307364482"><ele>81.0</ele><time>2026-05-03T10:31:53.999Z</time></trkpt><trkpt lat="44.76144221103491" lon="10.321254337866183"><ele>82.0</ele><time>2026-05-03T10:31:54.999Z</time></trkpt><trkpt lat="44.76156528382369" lon="10.321298047933716"><ele>82.0</ele><time>2026-05-03T10:31:55.999Z</time></trkpt><trkpt lat="44.76167465077153" lon="10.321339218051564"><ele>82.0</ele><time>2026-05-03T10:31:56.999Z</time></trkpt><trkpt lat="44.76176402171712" lon="10.321369289665757"><ele>82.0</ele><time>2026-05-03T10:31:57.999Z</time></trkpt><trkpt lat="44.76183691188135" lon="10.32139492456221"><ele>82.0</ele><time>2026-05-03T10:31:58.999Z</time></trkpt><trkpt lat="44.76189923176111" lon="10.32143617605203"><ele>82.0</ele><time>2026-05-03T10:31:59.999Z</time></trkpt><trkpt lat="44.76195392485495" lon="10.321514481540746"><ele>82.0</ele><time>2026-05-03T10:32:00.999Z</time></trkpt><trkpt lat="44.76200987780798" lon="10.32159671530528"><ele>81.39999999999999</ele><time>2026-05-03T10:32:01.999Z</time></trkpt><trkpt lat="44.76208558785988" lon="10.321681662390828"><ele>80.8</ele><time>2026-05-03T10:32:02.999Z</time></trkpt><trkpt lat="44.76216345686253" lon="10.321734977486248"><ele>80.2</ele><time>2026-05-03T10:32:03.999Z</time></trkpt><trkpt lat="44.762258231015466" lon="10.32166750276344"><ele>79.6</ele><time>2026-05-03T10:32:04.999Z</time></trkpt><trkpt lat="44.76234190427033" lon="10.32160751164657"><ele>79.0</ele><time>2026-05-03T10:32:05.999Z</time></trkpt><trkpt lat="44.76243663047682" lon="10.321615545449902"><ele>79.0</ele><time>2026-05-03T10:32:06.999Z</time></trkpt><trkpt lat="44.762549529045394" lon="10.321672442353513"><ele>79.0</ele><time>2026-05-03T10:32:07.999Z</time></trkpt><trkpt lat="44.762638698861835" lon="10.321727031745096"><ele>79.0</ele><time>2026-05-03T10:32:08.999Z</time></trkpt><trkpt lat="44.762730654827" lon="10.321775761771654"><ele>79.0</ele><time>2026-05-03T10:32:09.999Z</time></trkpt><trkpt lat="44.762833994671134" lon="10.3218199842392"><ele>79.0</ele><time>2026-05-03T10:32:10.999Z</time></trkpt><trkpt lat="44.76293959269518" lon="10.321859463509696"><ele>78.25</ele><time>2026-05-03T10:32:11.999Z</time></trkpt><trkpt lat="44.763047519626625" lon="10.32189981389492"><ele>77.5</ele><time>2026-05-03T10:32:12.999Z</time></trkpt><trkpt lat="44.7631627894611" lon="10.321945843974087"><ele>76.75</ele><time>2026-05-03T10:32:13.999Z</time></trkpt><trkpt lat="44.76327905774014" lon="10.321991461507604"><ele>76.0</ele><time>2026-05-03T10:32:14.999Z</time></trkpt><trkpt lat="44.76338970268205" lon="10.322030572316397"><ele>76.0</ele><time>2026-05-03T10:32:15.999Z</time></trkpt><trkpt lat="44.76350707741347" lon="10.322077429108646"><ele>76.0</ele><time>2026-05-03T10:32:16.999Z</time></trkpt><trkpt lat="44.76363093865803" lon="10.322124530858936"><ele>76.0</ele><time>2026-05-03T10:32:17.999Z</time></trkpt><trkpt lat="44.76375877579059" lon="10.32217193183837"><ele>76.0</ele><time>2026-05-03T10:32:18.999Z</time></trkpt><trkpt lat="44.76387392873882" lon="10.322213406121007"><ele>76.0</ele><time>2026-05-03T10:32:19.999Z</time></trkpt><trkpt lat="44.76398163212654" lon="10.322250522673974"><ele>76.0</ele><time>2026-05-03T10:32:20.999Z</time></trkpt><trkpt lat="44.76407699035497" lon="10.322284974699413"><ele>76.0</ele><time>2026-05-03T10:32:21.999Z</time></trkpt><trkpt lat="44.764149310156846" lon="10.322315996457826"><ele>76.0</ele><time>2026-05-03T10:32:22.999Z</time></trkpt><trkpt lat="44.76423723623759" lon="10.322400864728325"><ele>76.0</ele><time>2026-05-03T10:32:24.999Z</time></trkpt><trkpt lat="44.76426936324899" lon="10.322579171336752"><ele>76.0</ele><time>2026-05-03T10:32:26.999Z</time></trkpt><trkpt lat="44.76429240076878" lon="10.322688499544597"><ele>76.0</ele><time>2026-05-03T10:32:27.999Z</time></trkpt><trkpt lat="44.76435241690054" lon="10.32275602899936"><ele>76.0</ele><time>2026-05-03T10:32:29Z</time></trkpt><trkpt lat="44.76442161868714" lon="10.322783681565712"><ele>76.0</ele><time>2026-05-03T10:32:30Z</time></trkpt><trkpt lat="44.76450973681929" lon="10.322725472600911"><ele>76.0</ele><time>2026-05-03T10:32:31Z</time></trkpt><trkpt lat="44.764579301733974" lon="10.322639400284828"><ele>76.0</ele><time>2026-05-03T10:32:32Z</time></trkpt><trkpt lat="44.76466824583292" lon="10.322611173429438"><ele>76.2</ele><time>2026-05-03T10:32:33Z</time></trkpt><trkpt lat="44.76476975933776" lon="10.32262795501498"><ele>76.39999999999999</ele><time>2026-05-03T10:32:34Z</time></trkpt><trkpt lat="44.764866483937176" lon="10.322605537777173"><ele>76.6</ele><time>2026-05-03T10:32:35Z</time></trkpt><trkpt lat="44.76497325580881" lon="10.322617143506918"><ele>76.8</ele><time>2026-05-03T10:32:36Z</time></trkpt><trkpt lat="44.76508597573441" lon="10.32262389940388"><ele>77.0</ele><time>2026-05-03T10:32:37Z</time></trkpt><trkpt lat="44.7652002406981" lon="10.322625546480321"><ele>76.5</ele><time>2026-05-03T10:32:38Z</time></trkpt><trkpt lat="44.765313707013185" lon="10.322663546707542"><ele>76.0</ele><time>2026-05-03T10:32:39Z</time></trkpt><trkpt lat="44.7654371909907" lon="10.322681700329868"><ele>75.5</ele><time>2026-05-03T10:32:40Z</time></trkpt><trkpt lat="44.76556183914099" lon="10.322722063338462"><ele>75.0</ele><time>2026-05-03T10:32:41Z</time></trkpt><trkpt lat="44.765687082555914" lon="10.322759771509693"><ele>75.0</ele><time>2026-05-03T10:32:42Z</time></trkpt><trkpt lat="44.76580847370508" lon="10.322791059611392"><ele>75.0</ele><time>2026-05-03T10:32:43Z</time></trkpt><trkpt lat="44.76593133166974" lon="10.322826646119989"><ele>75.0</ele><time>2026-05-03T10:32:44Z</time></trkpt><trkpt lat="44.76604978339941" lon="10.322875992170962"><ele>75.0</ele><time>2026-05-03T10:32:45Z</time></trkpt><trkpt lat="44.76615484390901" lon="10.322943104901698"><ele>74.2</ele><time>2026-05-03T10:32:46Z</time></trkpt><trkpt lat="44.76625013019809" lon="10.323021117467151"><ele>73.4</ele><time>2026-05-03T10:32:47Z</time></trkpt><trkpt lat="44.766322939596954" lon="10.323099451470483"><ele>72.6</ele><time>2026-05-03T10:32:48Z</time></trkpt><trkpt lat="44.766368200211254" lon="10.32316239915375"><ele>71.8</ele><time>2026-05-03T10:32:49Z</time></trkpt><trkpt lat="44.76643484044668" lon="10.32329211559513"><ele>71.0</ele><time>2026-05-03T10:32:51Z</time></trkpt><trkpt lat="44.76650330762085" lon="10.323373933021875"><ele>71.0</ele><time>2026-05-03T10:32:53Z</time></trkpt><trkpt lat="44.76650065001527" lon="10.323502201370802"><ele>71.0</ele><time>2026-05-03T10:32:55Z</time></trkpt><trkpt lat="44.766553502427364" lon="10.32366538269917"><ele>71.0</ele><time>2026-05-03T10:32:57Z</time></trkpt><trkpt lat="44.766589365903364" lon="10.323780804417527"><ele>71.0</ele><time>2026-05-03T10:32:58Z</time></trkpt><trkpt lat="44.766632009609296" lon="10.323879660862588"><ele>71.0</ele><time>2026-05-03T10:32:59Z</time></trkpt><trkpt lat="44.76668695845701" lon="10.323968594375359"><ele>71.0</ele><time>2026-05-03T10:33:00Z</time></trkpt><trkpt lat="44.766750424644805" lon="10.324068372795443"><ele>71.0</ele><time>2026-05-03T10:33:01Z</time></trkpt><trkpt lat="44.76685588937164" lon="10.324131461792163"><ele>71.0</ele><time>2026-05-03T10:33:02Z</time></trkpt><trkpt lat="44.76695189938763" lon="10.324183796768528"><ele>71.0</ele><time>2026-05-03T10:33:03Z</time></trkpt><trkpt lat="44.76705453862157" lon="10.324219250267838"><ele>71.0</ele><time>2026-05-03T10:33:04Z</time></trkpt><trkpt lat="44.767160121108994" lon="10.324230324774174"><ele>71.0</ele><time>2026-05-03T10:33:05Z</time></trkpt><trkpt lat="44.76726511760145" lon="10.324204755479036"><ele>71.0</ele><time>2026-05-03T10:33:06Z</time></trkpt><trkpt lat="44.76734789564113" lon="10.324127070217223"><ele>71.0</ele><time>2026-05-03T10:33:07Z</time></trkpt><trkpt lat="44.76742325060934" lon="10.324066479201022"><ele>71.0</ele><time>2026-05-03T10:33:08Z</time></trkpt><trkpt lat="44.767501806265436" lon="10.323981509272596"><ele>71.0</ele><time>2026-05-03T10:33:09Z</time></trkpt><trkpt lat="44.767573275221345" lon="10.323869207544233"><ele>71.5</ele><time>2026-05-03T10:33:10Z</time></trkpt><trkpt lat="44.76760468957949" lon="10.32374099249201"><ele>72.0</ele><time>2026-05-03T10:33:11Z</time></trkpt><trkpt lat="44.76762936752585" lon="10.323576457175154"><ele>72.5</ele><time>2026-05-03T10:33:12Z</time></trkpt><trkpt lat="44.76764623478725" lon="10.323394517344333"><ele>73.0</ele><time>2026-05-03T10:33:13Z</time></trkpt><trkpt lat="44.7676158651206" lon="10.323213892687383"><ele>73.0</ele><time>2026-05-03T10:33:14Z</time></trkpt><trkpt lat="44.76755924674412" lon="10.323062891263396"><ele>73.0</ele><time>2026-05-03T10:33:15Z</time></trkpt><trkpt lat="44.767496786928845" lon="10.32294217944506"><ele>73.0</ele><time>2026-05-03T10:33:16Z</time></trkpt><trkpt lat="44.76751858332921" lon="10.322762430333457"><ele>73.0</ele><time>2026-05-03T10:33:17Z</time></trkpt><trkpt lat="44.767533216434636" lon="10.322636101173"><ele>73.0</ele><time>2026-05-03T10:33:18Z</time></trkpt><trkpt lat="44.767565584608874" lon="10.322528673291847"><ele>73.0</ele><time>2026-05-03T10:33:19Z</time></trkpt><trkpt lat="44.76760211220039" lon="10.322408037444369"><ele>73.0</ele><time>2026-05-03T10:33:20Z</time></trkpt><trkpt lat="44.76763961692563" lon="10.32226120816809"><ele>73.0</ele><time>2026-05-03T10:33:21Z</time></trkpt><trkpt lat="44.76768330865295" lon="10.322082849030284"><ele>73.0</ele><time>2026-05-03T10:33:22Z</time></trkpt><trkpt lat="44.76773629866508" lon="10.32189562160513"><ele>72.5</ele><time>2026-05-03T10:33:23Z</time></trkpt><trkpt lat="44.76779892101135" lon="10.321707916716905"><ele>72.0</ele><time>2026-05-03T10:33:24Z</time></trkpt><trkpt lat="44.76786061098576" lon="10.32153359262043"><ele>71.5</ele><time>2026-05-03T10:33:25Z</time></trkpt><trkpt lat="44.76792813280249" lon="10.321353340739185"><ele>71.0</ele><time>2026-05-03T10:33:26Z</time></trkpt><trkpt lat="44.768005288292606" lon="10.32117066647187"><ele>70.33333333333334</ele><time>2026-05-03T10:33:27Z</time></trkpt><trkpt lat="44.76809624558493" lon="10.320988071985319"><ele>69.66666666666667</ele><time>2026-05-03T10:33:28Z</time></trkpt><trkpt lat="44.76819390743359" lon="10.320805434279123"><ele>69.0</ele><time>2026-05-03T10:33:29Z</time></trkpt><trkpt lat="44.768299593861514" lon="10.320622841483033"><ele>69.0</ele><time>2026-05-03T10:33:30Z</time></trkpt><trkpt lat="44.76841646955784" lon="10.320441121426613"><ele>69.0</ele><time>2026-05-03T10:33:31Z</time></trkpt><trkpt lat="44.768547460354554" lon="10.32026458303987"><ele>69.0</ele><time>2026-05-03T10:33:32Z</time></trkpt><trkpt lat="44.768691261884705" lon="10.320078043320196"><ele>69.33333333333333</ele><time>2026-05-03T10:33:33Z</time></trkpt><trkpt lat="44.76884443015542" lon="10.319888955253624"><ele>69.66666666666666</ele><time>2026-05-03T10:33:34Z</time></trkpt><trkpt lat="44.7690095202375" lon="10.319688531295965"><ele>70.0</ele><time>2026-05-03T10:33:35Z</time></trkpt><trkpt lat="44.769182917356815" lon="10.319463456775823"><ele>70.0</ele><time>2026-05-03T10:33:36Z</time></trkpt><trkpt lat="44.76935254448319" lon="10.319231406478892"><ele>70.0</ele><time>2026-05-03T10:33:36.999Z</time></trkpt><trkpt lat="44.76948178484042" lon="10.319041054525174"><ele>70.0</ele><time>2026-05-03T10:33:37.999Z</time></trkpt><trkpt lat="44.769612420339" lon="10.318856645000524"><ele>71.5</ele><time>2026-05-03T10:33:38.999Z</time></trkpt><trkpt lat="44.76990908692758" lon="10.318450328999074"><ele>73.0</ele><time>2026-05-03T10:33:39.999Z</time></trkpt><trkpt lat="44.770101281869735" lon="10.318162437076502"><ele>73.0</ele><time>2026-05-03T10:33:40.999Z</time></trkpt><trkpt lat="44.770290726477896" lon="10.317865216122009"><ele>73.0</ele><time>2026-05-03T10:33:41.999Z</time></trkpt><trkpt lat="44.7704827707427" lon="10.317562568607979"><ele>73.0</ele><time>2026-05-03T10:33:42.999Z</time></trkpt><trkpt lat="44.77067474628074" lon="10.317253714662716"><ele>73.0</ele><time>2026-05-03T10:33:43.999Z</time></trkpt><trkpt lat="44.77086560326583" lon="10.316949894482914"><ele>73.0</ele><time>2026-05-03T10:33:44.999Z</time></trkpt><trkpt lat="44.77104779840243" lon="10.316644354194278"><ele>73.0</ele><time>2026-05-03T10:33:45.999Z</time></trkpt><trkpt lat="44.77120711117052" lon="10.316334889144947"><ele>71.5</ele><time>2026-05-03T10:33:46.999Z</time></trkpt><trkpt lat="44.77134711197023" lon="10.31601530505481"><ele>70.0</ele><time>2026-05-03T10:33:47.999Z</time></trkpt><trkpt lat="44.77146550286646" lon="10.315680690303537"><ele>72.5</ele><time>2026-05-03T10:33:48.999Z</time></trkpt><trkpt lat="44.771563040698005" lon="10.315334565702937"><ele>75.0</ele><time>2026-05-03T10:33:49.999Z</time></trkpt><trkpt lat="44.771644288641575" lon="10.31498029614638"><ele>74.0</ele><time>2026-05-03T10:33:50.999Z</time></trkpt><trkpt lat="44.771716465710234" lon="10.31462674196874"><ele>73.0</ele><time>2026-05-03T10:33:51.999Z</time></trkpt><trkpt lat="44.771786052541124" lon="10.314272361648763"><ele>73.0</ele><time>2026-05-03T10:33:52.999Z</time></trkpt><trkpt lat="44.77185426123376" lon="10.313916206161739"><ele>73.0</ele><time>2026-05-03T10:33:53.999Z</time></trkpt><trkpt lat="44.77192378687418" lon="10.313567734099987"><ele>73.0</ele><time>2026-05-03T10:33:54.999Z</time></trkpt><trkpt lat="44.77199579015365" lon="10.31321986280169"><ele>73.0</ele><time>2026-05-03T10:33:55.999Z</time></trkpt><trkpt lat="44.77206877984204" lon="10.312876251155519"><ele>73.5</ele><time>2026-05-03T10:33:56.999Z</time></trkpt><trkpt lat="44.772139221934985" lon="10.312537323183495"><ele>74.0</ele><time>2026-05-03T10:33:57.999Z</time></trkpt><trkpt lat="44.77221020040856" lon="10.312202382463203"><ele>74.5</ele><time>2026-05-03T10:33:58.999Z</time></trkpt><trkpt lat="44.772273793719904" lon="10.31186390896846"><ele>75.0</ele><time>2026-05-03T10:33:59.999Z</time></trkpt><trkpt lat="44.772337922870776" lon="10.311531598201329"><ele>75.0</ele><time>2026-05-03T10:34:00.999Z</time></trkpt><trkpt lat="44.772402822508305" lon="10.311218703371415"><ele>75.0</ele><time>2026-05-03T10:34:01.999Z</time></trkpt><trkpt lat="44.77247526179927" lon="10.310892445580118"><ele>75.0</ele><time>2026-05-03T10:34:02.999Z</time></trkpt><trkpt lat="44.77254788552348" lon="10.310572508778712"><ele>75.0</ele><time>2026-05-03T10:34:03.999Z</time></trkpt><trkpt lat="44.77261773779901" lon="10.310259436252549"><ele>75.5</ele><time>2026-05-03T10:34:04.999Z</time></trkpt><trkpt lat="44.77270510684045" lon="10.309937528994904"><ele>76.0</ele><time>2026-05-03T10:34:05.999Z</time></trkpt><trkpt lat="44.77279050808768" lon="10.309621940421643"><ele>76.5</ele><time>2026-05-03T10:34:06.999Z</time></trkpt><trkpt lat="44.77289943126736" lon="10.309293442385792"><ele>77.0</ele><time>2026-05-03T10:34:07.999Z</time></trkpt><trkpt lat="44.77302777693841" lon="10.308967708051828"><ele>76.5</ele><time>2026-05-03T10:34:08.999Z</time></trkpt><trkpt lat="44.77317129381863" lon="10.3086398750372"><ele>76.0</ele><time>2026-05-03T10:34:09.999Z</time></trkpt><trkpt lat="44.77333595945012" lon="10.308310223306426"><ele>76.0</ele><time>2026-05-03T10:34:10.999Z</time></trkpt><trkpt lat="44.77352176155479" lon="10.307999056595444"><ele>76.0</ele><time>2026-05-03T10:34:11.999Z</time></trkpt><trkpt lat="44.773726407292905" lon="10.307721775389465"><ele>76.0</ele><time>2026-05-03T10:34:12.999Z</time></trkpt><trkpt lat="44.77395656779933" lon="10.307440272942967"><ele>76.0</ele><time>2026-05-03T10:34:13.999Z</time></trkpt><trkpt lat="44.7741905571405" lon="10.307192767589727"><ele>76.5</ele><time>2026-05-03T10:34:14.999Z</time></trkpt><trkpt lat="44.7744430278299" lon="10.306953111423468"><ele>77.0</ele><time>2026-05-03T10:34:15.999Z</time></trkpt><trkpt lat="44.77468081186054" lon="10.306730752448638"><ele>77.0</ele><time>2026-05-03T10:34:16.999Z</time></trkpt><trkpt lat="44.774931804901" lon="10.306507966182053"><ele>77.0</ele><time>2026-05-03T10:34:17.999Z</time></trkpt><trkpt lat="44.775174635085776" lon="10.306289666045688"><ele>76.5</ele><time>2026-05-03T10:34:18.999Z</time></trkpt><trkpt lat="44.77541427326589" lon="10.30606096086179"><ele>76.0</ele><time>2026-05-03T10:34:19.999Z</time></trkpt><trkpt lat="44.77564652390408" lon="10.305833474875868"><ele>76.0</ele><time>2026-05-03T10:34:20.999Z</time></trkpt><trkpt lat="44.77590039252336" lon="10.305583735468922"><ele>76.0</ele><time>2026-05-03T10:34:21.999Z</time></trkpt><trkpt lat="44.77614706777657" lon="10.305354329151541"><ele>75.5</ele><time>2026-05-03T10:34:22.999Z</time></trkpt><trkpt lat="44.7764021758349" lon="10.30512378688408"><ele>75.0</ele><time>2026-05-03T10:34:23.999Z</time></trkpt><trkpt lat="44.7766565175068" lon="10.304891060940523"><ele>76.5</ele><time>2026-05-03T10:34:24.999Z</time></trkpt><trkpt lat="44.77690801349164" lon="10.304661425821488"><ele>78.0</ele><time>2026-05-03T10:34:25.999Z</time></trkpt><trkpt lat="44.77715853157348" lon="10.304432026920077"><ele>78.0</ele><time>2026-05-03T10:34:26.999Z</time></trkpt><trkpt lat="44.77741084665477" lon="10.304197600767854"><ele>78.0</ele><time>2026-05-03T10:34:27.999Z</time></trkpt><trkpt lat="44.77765884642853" lon="10.303958267213899"><ele>76.5</ele><time>2026-05-03T10:34:28.999Z</time></trkpt><trkpt lat="44.777905084005965" lon="10.303697911037323"><ele>75.0</ele><time>2026-05-03T10:34:29.999Z</time></trkpt><trkpt lat="44.77815077219831" lon="10.303421395691887"><ele>75.0</ele><time>2026-05-03T10:34:30.999Z</time></trkpt><trkpt lat="44.77839125909569" lon="10.303143521948613"><ele>75.0</ele><time>2026-05-03T10:34:31.999Z</time></trkpt><trkpt lat="44.778632356333624" lon="10.302858313385943"><ele>75.0</ele><time>2026-05-03T10:34:32.999Z</time></trkpt><trkpt lat="44.778865110802734" lon="10.302579858906519"><ele>75.0</ele><time>2026-05-03T10:34:33.999Z</time></trkpt><trkpt lat="44.77908626521581" lon="10.302297789147602"><ele>75.0</ele><time>2026-05-03T10:34:35Z</time></trkpt><trkpt lat="44.779287050971966" lon="10.302000685682161"><ele>75.0</ele><time>2026-05-03T10:34:36Z</time></trkpt><trkpt lat="44.77944978001638" lon="10.301676080704464"><ele>73.5</ele><time>2026-05-03T10:34:37Z</time></trkpt><trkpt lat="44.77957313349177" lon="10.30132498609446"><ele>72.0</ele><time>2026-05-03T10:34:38Z</time></trkpt><trkpt lat="44.77971711239223" lon="10.300963457405386"><ele>73.0</ele><time>2026-05-03T10:34:39Z</time></trkpt><trkpt lat="44.77976723656764" lon="10.300553408446978"><ele>74.0</ele><time>2026-05-03T10:34:40Z</time></trkpt><trkpt lat="44.77982272004582" lon="10.300141257890516"><ele>74.5</ele><time>2026-05-03T10:34:41Z</time></trkpt><trkpt lat="44.77984910193638" lon="10.299727982290145"><ele>75.0</ele><time>2026-05-03T10:34:42Z</time></trkpt><trkpt lat="44.77987142123306" lon="10.299294666978378"><ele>73.5</ele><time>2026-05-03T10:34:43Z</time></trkpt><trkpt lat="44.779907024569994" lon="10.29885606053275"><ele>72.0</ele><time>2026-05-03T10:34:44Z</time></trkpt><trkpt lat="44.77994849864766" lon="10.298424488291035"><ele>72.0</ele><time>2026-05-03T10:34:45Z</time></trkpt><trkpt lat="44.779988198194786" lon="10.297992244387366"><ele>72.0</ele><time>2026-05-03T10:34:46Z</time></trkpt><trkpt lat="44.78002643438032" lon="10.297551821340905"><ele>72.0</ele><time>2026-05-03T10:34:47Z</time></trkpt><trkpt lat="44.78006573074653" lon="10.297119385577249"><ele>72.0</ele><time>2026-05-03T10:34:48Z</time></trkpt><trkpt lat="44.78010682584887" lon="10.296686214977774"><ele>72.0</ele><time>2026-05-03T10:34:49Z</time></trkpt><trkpt lat="44.78014654273292" lon="10.296248159823422"><ele>72.0</ele><time>2026-05-03T10:34:50Z</time></trkpt><trkpt lat="44.78018495751285" lon="10.295811981017739"><ele>73.0</ele><time>2026-05-03T10:34:51Z</time></trkpt><trkpt lat="44.78023093409258" lon="10.295373470610267"><ele>74.0</ele><time>2026-05-03T10:34:52Z</time></trkpt><trkpt lat="44.78027917384758" lon="10.294958610035373"><ele>71.5</ele><time>2026-05-03T10:34:53Z</time></trkpt><trkpt lat="44.78032443535339" lon="10.294568514257637"><ele>69.0</ele><time>2026-05-03T10:34:54Z</time></trkpt><trkpt lat="44.7803720633997" lon="10.294178268115344"><ele>68.5</ele><time>2026-05-03T10:34:55Z</time></trkpt><trkpt lat="44.78042386360468" lon="10.293819093115934"><ele>68.0</ele><time>2026-05-03T10:34:56Z</time></trkpt><trkpt lat="44.78049036494916" lon="10.293476955900227"><ele>68.0</ele><time>2026-05-03T10:34:57Z</time></trkpt><trkpt lat="44.78056978885723" lon="10.293147970266972"><ele>68.0</ele><time>2026-05-03T10:34:58Z</time></trkpt><trkpt lat="44.780662681116006" lon="10.292810036821889"><ele>70.0</ele><time>2026-05-03T10:34:59Z</time></trkpt><trkpt lat="44.78077119062305" lon="10.29246965003739"><ele>72.0</ele><time>2026-05-03T10:35:00Z</time></trkpt><trkpt lat="44.78089017376459" lon="10.29215059478897"><ele>72.0</ele><time>2026-05-03T10:35:01Z</time></trkpt><trkpt lat="44.78102326831903" lon="10.291846519256877"><ele>72.0</ele><time>2026-05-03T10:35:02Z</time></trkpt><trkpt lat="44.781160453032584" lon="10.2915776496314"><ele>72.0</ele><time>2026-05-03T10:35:03Z</time></trkpt><trkpt lat="44.78130909085941" lon="10.291330267100301"><ele>72.0</ele><time>2026-05-03T10:35:04Z</time></trkpt><trkpt lat="44.781479236384726" lon="10.291114440741985"><ele>72.0</ele><time>2026-05-03T10:35:05Z</time></trkpt><trkpt lat="44.78167030579503" lon="10.290895642453075"><ele>72.0</ele><time>2026-05-03T10:35:06Z</time></trkpt><trkpt lat="44.78185865822581" lon="10.29066304770107"><ele>72.0</ele><time>2026-05-03T10:35:07Z</time></trkpt><trkpt lat="44.78203673423625" lon="10.290447839562907"><ele>72.0</ele><time>2026-05-03T10:35:08Z</time></trkpt><trkpt lat="44.78220313549431" lon="10.290251729052553"><ele>72.0</ele><time>2026-05-03T10:35:09Z</time></trkpt><trkpt lat="44.782340176653975" lon="10.290097153920634"><ele>72.0</ele><time>2026-05-03T10:35:10Z</time></trkpt><trkpt lat="44.78245508596443" lon="10.289963194021324"><ele>72.0</ele><time>2026-05-03T10:35:11Z</time></trkpt><trkpt lat="44.782533964534444" lon="10.289866928809047"><ele>72.0</ele><time>2026-05-03T10:35:12Z</time></trkpt><trkpt lat="44.78260130620194" lon="10.289803713731352"><ele>72.0</ele><time>2026-05-03T10:35:13Z</time></trkpt><trkpt lat="44.78267921372057" lon="10.28977638015595"><ele>72.0</ele><time>2026-05-03T10:35:14Z</time></trkpt><trkpt lat="44.782759448323404" lon="10.289715119702308"><ele>72.0</ele><time>2026-05-03T10:35:15Z</time></trkpt><trkpt lat="44.78286054529131" lon="10.289691501211127"><ele>72.0</ele><time>2026-05-03T10:35:16Z</time></trkpt><trkpt lat="44.78294915787435" lon="10.289605803757086"><ele>72.0</ele><time>2026-05-03T10:35:17Z</time></trkpt><trkpt lat="44.783002745036086" lon="10.289470803761992"><ele>72.5</ele><time>2026-05-03T10:35:18Z</time></trkpt><trkpt lat="44.783003510712625" lon="10.289330111362329"><ele>73.0</ele><time>2026-05-03T10:35:19Z</time></trkpt><trkpt lat="44.78296558299918" lon="10.289186583824224"><ele>73.5</ele><time>2026-05-03T10:35:20Z</time></trkpt><trkpt lat="44.7828857789581" lon="10.289062609421928"><ele>74.0</ele><time>2026-05-03T10:35:21Z</time></trkpt><trkpt lat="44.78277528502161" lon="10.288986350657115"><ele>74.25</ele><time>2026-05-03T10:35:22Z</time></trkpt><trkpt lat="44.782642495047014" lon="10.288934856090286"><ele>74.5</ele><time>2026-05-03T10:35:23Z</time></trkpt><trkpt lat="44.78251532936298" lon="10.288838785629089"><ele>74.75</ele><time>2026-05-03T10:35:24Z</time></trkpt><trkpt lat="44.78240452922589" lon="10.288678627271938"><ele>75.0</ele><time>2026-05-03T10:35:25Z</time></trkpt><trkpt lat="44.78231484100841" lon="10.288460396825881"><ele>75.0</ele><time>2026-05-03T10:35:26Z</time></trkpt><trkpt lat="44.78222577561016" lon="10.288228129535115"><ele>75.0</ele><time>2026-05-03T10:35:27Z</time></trkpt><trkpt lat="44.782124829174634" lon="10.28801132807098"><ele>75.0</ele><time>2026-05-03T10:35:28Z</time></trkpt><trkpt lat="44.782022287444484" lon="10.287801659152445"><ele>75.0</ele><time>2026-05-03T10:35:29Z</time></trkpt><trkpt lat="44.781924762978626" lon="10.287593516001628"><ele>75.0</ele><time>2026-05-03T10:35:30Z</time></trkpt><trkpt lat="44.781833205758275" lon="10.287396873708694"><ele>75.0</ele><time>2026-05-03T10:35:31Z</time></trkpt><trkpt lat="44.78174330131956" lon="10.287202832817513"><ele>75.0</ele><time>2026-05-03T10:35:32Z</time></trkpt><trkpt lat="44.78165501531343" lon="10.287011008902832"><ele>75.0</ele><time>2026-05-03T10:35:33Z</time></trkpt><trkpt lat="44.78156553578942" lon="10.286815829336417"><ele>75.0</ele><time>2026-05-03T10:35:34Z</time></trkpt><trkpt lat="44.7814741036075" lon="10.286622239310967"><ele>75.0</ele><time>2026-05-03T10:35:35Z</time></trkpt><trkpt lat="44.781386233967325" lon="10.286436634360987"><ele>75.0</ele><time>2026-05-03T10:35:36Z</time></trkpt><trkpt lat="44.78130861837919" lon="10.286259291703665"><ele>75.0</ele><time>2026-05-03T10:35:37Z</time></trkpt><trkpt lat="44.7812248247719" lon="10.28608144047593"><ele>74.75</ele><time>2026-05-03T10:35:38Z</time></trkpt><trkpt lat="44.7811383798072" lon="10.285899343018956"><ele>74.5</ele><time>2026-05-03T10:35:39Z</time></trkpt><trkpt lat="44.78106563207378" lon="10.28573307511848"><ele>74.25</ele><time>2026-05-03T10:35:40Z</time></trkpt><trkpt lat="44.78099452739202" lon="10.285579836289227"><ele>74.0</ele><time>2026-05-03T10:35:41Z</time></trkpt><trkpt lat="44.78091595588118" lon="10.285420284049813"><ele>74.75</ele><time>2026-05-03T10:35:41.999Z</time></trkpt><trkpt lat="44.780832203085026" lon="10.285252273901486"><ele>75.5</ele><time>2026-05-03T10:35:42.999Z</time></trkpt><trkpt lat="44.78075238663329" lon="10.285081743573498"><ele>76.25</ele><time>2026-05-03T10:35:43.999Z</time></trkpt><trkpt lat="44.780679523112255" lon="10.284914729659977"><ele>77.0</ele><time>2026-05-03T10:35:44.999Z</time></trkpt><trkpt lat="44.78060282279639" lon="10.284741547558642"><ele>77.25</ele><time>2026-05-03T10:35:45.999Z</time></trkpt><trkpt lat="44.780523042878364" lon="10.284572132918017"><ele>77.5</ele><time>2026-05-03T10:35:46.999Z</time></trkpt><trkpt lat="44.780446040827684" lon="10.284404748381432"><ele>77.75</ele><time>2026-05-03T10:35:47.999Z</time></trkpt><trkpt lat="44.78037321179865" lon="10.284240613734049"><ele>78.0</ele><time>2026-05-03T10:35:48.999Z</time></trkpt><trkpt lat="44.7803019886803" lon="10.284083720668978"><ele>78.0</ele><time>2026-05-03T10:35:49.999Z</time></trkpt><trkpt lat="44.780231545964114" lon="10.2839397445414"><ele>78.0</ele><time>2026-05-03T10:35:50.999Z</time></trkpt><trkpt lat="44.780164153277404" lon="10.283808479684069"><ele>78.0</ele><time>2026-05-03T10:35:51.999Z</time></trkpt><trkpt lat="44.78010429094081" lon="10.283684089898964"><ele>78.0</ele><time>2026-05-03T10:35:52.999Z</time></trkpt><trkpt lat="44.780051065316286" lon="10.283565192739077"><ele>78.0</ele><time>2026-05-03T10:35:53.999Z</time></trkpt><trkpt lat="44.779994144323275" lon="10.283439690765096"><ele>78.0</ele><time>2026-05-03T10:35:54.999Z</time></trkpt><trkpt lat="44.779944412195015" lon="10.283334178702233"><ele>78.0</ele><time>2026-05-03T10:35:55.999Z</time></trkpt><trkpt lat="44.77989875167015" lon="10.283233466324337"><ele>78.0</ele><time>2026-05-03T10:35:56.999Z</time></trkpt><trkpt lat="44.779860763945614" lon="10.283136192981747"><ele>78.0</ele><time>2026-05-03T10:35:57.999Z</time></trkpt><trkpt lat="44.77982898826032" lon="10.283022751382951"><ele>78.0</ele><time>2026-05-03T10:35:58.999Z</time></trkpt><trkpt lat="44.77980054065261" lon="10.282883799710753"><ele>78.0</ele><time>2026-05-03T10:35:59.999Z</time></trkpt><trkpt lat="44.77974518131244" lon="10.282733065825775"><ele>78.0</ele><time>2026-05-03T10:36:00.999Z</time></trkpt><trkpt lat="44.779674895808526" lon="10.282594881250391"><ele>78.0</ele><time>2026-05-03T10:36:01.999Z</time></trkpt><trkpt lat="44.77960915688466" lon="10.282454627545745"><ele>78.0</ele><time>2026-05-03T10:36:02.999Z</time></trkpt><trkpt lat="44.77954504626461" lon="10.282315578128237"><ele>78.0</ele><time>2026-05-03T10:36:03.999Z</time></trkpt><trkpt lat="44.77947541411394" lon="10.282197482848932"><ele>78.8</ele><time>2026-05-03T10:36:04.999Z</time></trkpt><trkpt lat="44.77939979646345" lon="10.282111190061173"><ele>79.6</ele><time>2026-05-03T10:36:05.999Z</time></trkpt><trkpt lat="44.77932909775826" lon="10.282015777628235"><ele>80.39999999999999</ele><time>2026-05-03T10:36:06.999Z</time></trkpt><trkpt lat="44.77927329462697" lon="10.281892839362454"><ele>81.19999999999999</ele><time>2026-05-03T10:36:07.999Z</time></trkpt><trkpt lat="44.7792188706013" lon="10.281745277914666"><ele>82.0</ele><time>2026-05-03T10:36:08.999Z</time></trkpt><trkpt lat="44.77915891128389" lon="10.281608749519354"><ele>82.0</ele><time>2026-05-03T10:36:09.999Z</time></trkpt><trkpt lat="44.77909414030787" lon="10.281474947611988"><ele>82.0</ele><time>2026-05-03T10:36:10.999Z</time></trkpt><trkpt lat="44.779033794144524" lon="10.281343552100918"><ele>82.0</ele><time>2026-05-03T10:36:11.999Z</time></trkpt><trkpt lat="44.77897660108694" lon="10.281207123659305"><ele>82.0</ele><time>2026-05-03T10:36:12.999Z</time></trkpt><trkpt lat="44.7789201945492" lon="10.28107583119398"><ele>82.0</ele><time>2026-05-03T10:36:13.999Z</time></trkpt><trkpt lat="44.778856512549424" lon="10.28093975347018"><ele>82.0</ele><time>2026-05-03T10:36:14.999Z</time></trkpt><trkpt lat="44.77878486632857" lon="10.280802120790446"><ele>82.0</ele><time>2026-05-03T10:36:15.999Z</time></trkpt><trkpt lat="44.77871514449564" lon="10.280650999119823"><ele>82.0</ele><time>2026-05-03T10:36:16.999Z</time></trkpt><trkpt lat="44.778646261382576" lon="10.28049483763561"><ele>82.0</ele><time>2026-05-03T10:36:17.999Z</time></trkpt><trkpt lat="44.7785700702152" lon="10.280340585761348"><ele>82.25</ele><time>2026-05-03T10:36:18.999Z</time></trkpt><trkpt lat="44.77850858302577" lon="10.280204598687178"><ele>82.5</ele><time>2026-05-03T10:36:19.999Z</time></trkpt><trkpt lat="44.77843690775455" lon="10.280052762221095"><ele>82.75</ele><time>2026-05-03T10:36:20.999Z</time></trkpt><trkpt lat="44.77836950369927" lon="10.279905960089238"><ele>83.0</ele><time>2026-05-03T10:36:21.999Z</time></trkpt><trkpt lat="44.77830138104195" lon="10.279763444524994"><ele>82.5</ele><time>2026-05-03T10:36:22.999Z</time></trkpt><trkpt lat="44.77823768199687" lon="10.279623470609355"><ele>82.0</ele><time>2026-05-03T10:36:23.999Z</time></trkpt><trkpt lat="44.77817191858329" lon="10.279483129801559"><ele>81.5</ele><time>2026-05-03T10:36:24.999Z</time></trkpt><trkpt lat="44.778105139542255" lon="10.279344095805193"><ele>81.0</ele><time>2026-05-03T10:36:25.999Z</time></trkpt><trkpt lat="44.77803825087827" lon="10.27920084029407"><ele>81.0</ele><time>2026-05-03T10:36:26.999Z</time></trkpt><trkpt lat="44.77797119435462" lon="10.27904938554476"><ele>81.0</ele><time>2026-05-03T10:36:27.999Z</time></trkpt><trkpt lat="44.7779047850353" lon="10.278899865107638"><ele>81.0</ele><time>2026-05-03T10:36:28.999Z</time></trkpt><trkpt lat="44.77782996568619" lon="10.278733240866114"><ele>81.0</ele><time>2026-05-03T10:36:29.999Z</time></trkpt><trkpt lat="44.77775018267772" lon="10.278567212236013"><ele>81.5</ele><time>2026-05-03T10:36:30.999Z</time></trkpt><trkpt lat="44.77767209350561" lon="10.278399599791998"><ele>82.0</ele><time>2026-05-03T10:36:31.999Z</time></trkpt><trkpt lat="44.77759500292348" lon="10.27823400410831"><ele>82.5</ele><time>2026-05-03T10:36:32.999Z</time></trkpt><trkpt lat="44.77751909165008" lon="10.278077986987583"><ele>83.0</ele><time>2026-05-03T10:36:33.999Z</time></trkpt><trkpt lat="44.77744713213502" lon="10.277918318869723"><ele>83.0</ele><time>2026-05-03T10:36:34.999Z</time></trkpt><trkpt lat="44.77737392064085" lon="10.277761697381383"><ele>83.0</ele><time>2026-05-03T10:36:35.999Z</time></trkpt><trkpt lat="44.77729992804613" lon="10.277601723768848"><ele>83.0</ele><time>2026-05-03T10:36:36.999Z</time></trkpt><trkpt lat="44.777221925846774" lon="10.277433534899117"><ele>83.0</ele><time>2026-05-03T10:36:37.999Z</time></trkpt><trkpt lat="44.777141526573615" lon="10.277260860673175"><ele>83.0</ele><time>2026-05-03T10:36:38.999Z</time></trkpt><trkpt lat="44.77705893762847" lon="10.277088398187889"><ele>83.0</ele><time>2026-05-03T10:36:39.999Z</time></trkpt><trkpt lat="44.77697440359237" lon="10.276914407618563"><ele>83.0</ele><time>2026-05-03T10:36:41Z</time></trkpt><trkpt lat="44.77689234940234" lon="10.276734211778631"><ele>83.0</ele><time>2026-05-03T10:36:42Z</time></trkpt><trkpt lat="44.77681251969549" lon="10.276556083151473"><ele>83.33333333333334</ele><time>2026-05-03T10:36:43Z</time></trkpt><trkpt lat="44.77672536717475" lon="10.27637784934085"><ele>83.66666666666667</ele><time>2026-05-03T10:36:44Z</time></trkpt><trkpt lat="44.776643265595425" lon="10.276202014938338"><ele>84.0</ele><time>2026-05-03T10:36:45Z</time></trkpt><trkpt lat="44.776559311770654" lon="10.276020903137304"><ele>84.0</ele><time>2026-05-03T10:36:46Z</time></trkpt><trkpt lat="44.77648201786188" lon="10.275852049246538"><ele>84.0</ele><time>2026-05-03T10:36:47Z</time></trkpt><trkpt lat="44.776402709462616" lon="10.27567883594334"><ele>84.0</ele><time>2026-05-03T10:36:48Z</time></trkpt><trkpt lat="44.776321828374684" lon="10.275511454931356"><ele>84.0</ele><time>2026-05-03T10:36:49Z</time></trkpt><trkpt lat="44.77624247441071" lon="10.275344246472317"><ele>84.0</ele><time>2026-05-03T10:36:50Z</time></trkpt><trkpt lat="44.776164957149604" lon="10.275168427721376"><ele>84.0</ele><time>2026-05-03T10:36:51Z</time></trkpt><trkpt lat="44.77608655143782" lon="10.274996959615443"><ele>84.0</ele><time>2026-05-03T10:36:52Z</time></trkpt><trkpt lat="44.77600601004269" lon="10.274824978717156"><ele>84.0</ele><time>2026-05-03T10:36:53Z</time></trkpt><trkpt lat="44.775923838961226" lon="10.274651872227375"><ele>84.0</ele><time>2026-05-03T10:36:54Z</time></trkpt><trkpt lat="44.77584079850202" lon="10.2744755707985"><ele>84.0</ele><time>2026-05-03T10:36:55Z</time></trkpt><trkpt lat="44.77576040400148" lon="10.274304680705361"><ele>84.0</ele><time>2026-05-03T10:36:56Z</time></trkpt><trkpt lat="44.77568429390906" lon="10.274139381772464"><ele>84.0</ele><time>2026-05-03T10:36:57Z</time></trkpt><trkpt lat="44.77560564322344" lon="10.273972907505557"><ele>84.0</ele><time>2026-05-03T10:36:58Z</time></trkpt><trkpt lat="44.77552725913248" lon="10.273802685695124"><ele>84.0</ele><time>2026-05-03T10:36:59Z</time></trkpt><trkpt lat="44.7754502519871" lon="10.273639065735631"><ele>84.0</ele><time>2026-05-03T10:37:00Z</time></trkpt><trkpt lat="44.77537681568314" lon="10.273477963400124"><ele>84.0</ele><time>2026-05-03T10:37:01Z</time></trkpt><trkpt lat="44.77530270624302" lon="10.27331526460669"><ele>84.0</ele><time>2026-05-03T10:37:02Z</time></trkpt><trkpt lat="44.775223161764586" lon="10.273144800672508"><ele>84.0</ele><time>2026-05-03T10:37:03Z</time></trkpt><trkpt lat="44.77514007370411" lon="10.272972172600278"><ele>84.0</ele><time>2026-05-03T10:37:04Z</time></trkpt><trkpt lat="44.77505356196867" lon="10.272801825906845"><ele>84.0</ele><time>2026-05-03T10:37:05Z</time></trkpt><trkpt lat="44.77497239861363" lon="10.272625619554157"><ele>84.25</ele><time>2026-05-03T10:37:06Z</time></trkpt><trkpt lat="44.77489664917806" lon="10.27244876798765"><ele>84.5</ele><time>2026-05-03T10:37:07Z</time></trkpt><trkpt lat="44.774820377271475" lon="10.27227523101586"><ele>84.75</ele><time>2026-05-03T10:37:08Z</time></trkpt><trkpt lat="44.774742362002414" lon="10.272103576716185"><ele>85.0</ele><time>2026-05-03T10:37:09Z</time></trkpt><trkpt lat="44.7746633831079" lon="10.271936136475377"><ele>85.0</ele><time>2026-05-03T10:37:10Z</time></trkpt><trkpt lat="44.774591711644455" lon="10.271760534331035"><ele>85.0</ele><time>2026-05-03T10:37:11Z</time></trkpt><trkpt lat="44.774505719070966" lon="10.271588771138314"><ele>85.0</ele><time>2026-05-03T10:37:12Z</time></trkpt><trkpt lat="44.77442496783946" lon="10.271417333253947"><ele>85.0</ele><time>2026-05-03T10:37:13Z</time></trkpt><trkpt lat="44.774344615322924" lon="10.271242468122681"><ele>85.5</ele><time>2026-05-03T10:37:14Z</time></trkpt><trkpt lat="44.77426653533458" lon="10.271077081629224"><ele>86.0</ele><time>2026-05-03T10:37:15Z</time></trkpt><trkpt lat="44.7741938246368" lon="10.270917068309046"><ele>86.5</ele><time>2026-05-03T10:37:16Z</time></trkpt><trkpt lat="44.77411908598386" lon="10.270751243391555"><ele>87.0</ele><time>2026-05-03T10:37:17Z</time></trkpt><trkpt lat="44.7740429359451" lon="10.270581663788722"><ele>87.0</ele><time>2026-05-03T10:37:18Z</time></trkpt><trkpt lat="44.77396526420556" lon="10.27041266157801"><ele>87.0</ele><time>2026-05-03T10:37:19Z</time></trkpt><trkpt lat="44.77388271643591" lon="10.270236240118864"><ele>87.0</ele><time>2026-05-03T10:37:20Z</time></trkpt><trkpt lat="44.77380432110646" lon="10.270070445660311"><ele>87.0</ele><time>2026-05-03T10:37:21Z</time></trkpt><trkpt lat="44.77372801122792" lon="10.269901851905958"><ele>87.0</ele><time>2026-05-03T10:37:22Z</time></trkpt><trkpt lat="44.77366105087768" lon="10.269759466422558"><ele>87.0</ele><time>2026-05-03T10:37:23Z</time></trkpt><trkpt lat="44.7736257183926" lon="10.269640498979257"><ele>87.0</ele><time>2026-05-03T10:37:24Z</time></trkpt><trkpt lat="44.773635387940544" lon="10.269528983585868"><ele>87.0</ele><time>2026-05-03T10:37:25Z</time></trkpt><trkpt lat="44.77359760803453" lon="10.269397451920428"><ele>87.0</ele><time>2026-05-03T10:37:27Z</time></trkpt><trkpt lat="44.773760673632104" lon="10.269122634575362"><ele>87.0</ele><time>2026-05-03T10:37:28Z</time></trkpt><trkpt lat="44.773795005256694" lon="10.268963556187078"><ele>87.0</ele><time>2026-05-03T10:37:29Z</time></trkpt><trkpt lat="44.77382822012324" lon="10.268797973110168"><ele>87.0</ele><time>2026-05-03T10:37:30Z</time></trkpt><trkpt lat="44.77385625734895" lon="10.268619095795998"><ele>87.0</ele><time>2026-05-03T10:37:31Z</time></trkpt><trkpt lat="44.77389152565474" lon="10.268444598627726"><ele>86.5</ele><time>2026-05-03T10:37:32Z</time></trkpt><trkpt lat="44.773929613770164" lon="10.268271069073784"><ele>86.0</ele><time>2026-05-03T10:37:33Z</time></trkpt><trkpt lat="44.77396626141832" lon="10.268094583793427"><ele>85.5</ele><time>2026-05-03T10:37:34Z</time></trkpt><trkpt lat="44.774001136135674" lon="10.267919713602346"><ele>85.0</ele><time>2026-05-03T10:37:35Z</time></trkpt><trkpt lat="44.7740369177985" lon="10.267745948441668"><ele>85.0</ele><time>2026-05-03T10:37:36Z</time></trkpt><trkpt lat="44.77407351385406" lon="10.2675698113646"><ele>85.0</ele><time>2026-05-03T10:37:37Z</time></trkpt><trkpt lat="44.77411019500144" lon="10.267396704197033"><ele>85.0</ele><time>2026-05-03T10:37:38Z</time></trkpt><trkpt lat="44.77416366041212" lon="10.267235485550211"><ele>85.0</ele><time>2026-05-03T10:37:39Z</time></trkpt><trkpt lat="44.77419982006825" lon="10.267058520117578"><ele>85.0</ele><time>2026-05-03T10:37:40Z</time></trkpt><trkpt lat="44.77422183387524" lon="10.266871520001667"><ele>85.0</ele><time>2026-05-03T10:37:41Z</time></trkpt><trkpt lat="44.774262906392615" lon="10.26668056745045"><ele>85.0</ele><time>2026-05-03T10:37:42Z</time></trkpt><trkpt lat="44.774299339839" lon="10.266483170905103"><ele>85.0</ele><time>2026-05-03T10:37:43Z</time></trkpt><trkpt lat="44.774337737423025" lon="10.26627114092385"><ele>84.66666666666666</ele><time>2026-05-03T10:37:44Z</time></trkpt><trkpt lat="44.774381079075354" lon="10.266056526384004"><ele>84.33333333333333</ele><time>2026-05-03T10:37:45Z</time></trkpt><trkpt lat="44.77442497630087" lon="10.265848599149933"><ele>84.0</ele><time>2026-05-03T10:37:46Z</time></trkpt><trkpt lat="44.77446865983812" lon="10.265656690924082"><ele>83.75</ele><time>2026-05-03T10:37:46.999Z</time></trkpt><trkpt lat="44.77450951461805" lon="10.26548044117328"><ele>83.5</ele><time>2026-05-03T10:37:47.999Z</time></trkpt><trkpt lat="44.77454109980237" lon="10.265317680070577"><ele>83.25</ele><time>2026-05-03T10:37:48.999Z</time></trkpt><trkpt lat="44.77458025160241" lon="10.265174496556668"><ele>83.0</ele><time>2026-05-03T10:37:49.999Z</time></trkpt><trkpt lat="44.77460967105205" lon="10.26505018075927"><ele>83.0</ele><time>2026-05-03T10:37:50.999Z</time></trkpt><trkpt lat="44.77445457397668" lon="10.264873430243378"><ele>83.0</ele><time>2026-05-03T10:37:51.999Z</time></trkpt><trkpt lat="44.77437750279553" lon="10.264730989684303"><ele>83.0</ele><time>2026-05-03T10:37:52.999Z</time></trkpt><trkpt lat="44.774307849154084" lon="10.264584272939741"><ele>83.75</ele><time>2026-05-03T10:37:53.999Z</time></trkpt><trkpt lat="44.774239151858744" lon="10.264434942524193"><ele>84.5</ele><time>2026-05-03T10:37:54.999Z</time></trkpt><trkpt lat="44.77417137370928" lon="10.264281869097488"><ele>85.25</ele><time>2026-05-03T10:37:55.999Z</time></trkpt><trkpt lat="44.77410111546997" lon="10.264134967942368"><ele>86.0</ele><time>2026-05-03T10:37:56.999Z</time></trkpt><trkpt lat="44.77404018954614" lon="10.26400736638482"><ele>85.8</ele><time>2026-05-03T10:37:57.999Z</time></trkpt><trkpt lat="44.77397689249537" lon="10.263892592745131"><ele>85.6</ele><time>2026-05-03T10:37:58.999Z</time></trkpt><trkpt lat="44.773929365383545" lon="10.26377546074652"><ele>85.4</ele><time>2026-05-03T10:37:59.999Z</time></trkpt><trkpt lat="44.773907314346836" lon="10.263657038645297"><ele>85.2</ele><time>2026-05-03T10:38:00.999Z</time></trkpt><trkpt lat="44.77385984278273" lon="10.263591889249959"><ele>85.0</ele><time>2026-05-03T10:38:01.999Z</time></trkpt><trkpt lat="44.773952992957035" lon="10.26344259849501"><ele>85.0</ele><time>2026-05-03T10:38:02.999Z</time></trkpt><trkpt lat="44.77397599960635" lon="10.263355503968489"><ele>85.0</ele><time>2026-05-03T10:38:03.999Z</time></trkpt><trkpt lat="44.77399911455605" lon="10.263243228936389"><ele>85.0</ele><time>2026-05-03T10:38:05.999Z</time></trkpt><trkpt lat="44.774021395911134" lon="10.263129476734763"><ele>85.0</ele><time>2026-05-03T10:38:30.999Z</time></trkpt><trkpt lat="44.774001619698645" lon="10.263039081541468"><ele>85.0</ele><time>2026-05-03T10:38:32.999Z</time></trkpt><trkpt lat="44.77384638039048" lon="10.263025182441998"><ele>85.25</ele><time>2026-05-03T10:38:34.999Z</time></trkpt><trkpt lat="44.77373894795921" lon="10.262974486391874"><ele>85.5</ele><time>2026-05-03T10:38:36.999Z</time></trkpt><trkpt lat="44.7736537896418" lon="10.262844335273819"><ele>85.75</ele><time>2026-05-03T10:38:38.999Z</time></trkpt><trkpt lat="44.77360218633706" lon="10.26270268785358"><ele>86.0</ele><time>2026-05-03T10:38:40.999Z</time></trkpt><trkpt lat="44.77354577602642" lon="10.26258430050747"><ele>86.0</ele><time>2026-05-03T10:38:42.999Z</time></trkpt><trkpt lat="44.77363225185525" lon="10.262575946337035"><ele>86.0</ele><time>2026-05-03T10:38:44.999Z</time></trkpt><trkpt lat="44.77361114107733" lon="10.2626819781433"><ele>86.0</ele><time>2026-05-03T10:41:58Z</time></trkpt><trkpt lat="44.77363281188895" lon="10.262573133653902"><ele>86.0</ele><time>2026-05-03T10:42:13.999Z</time></trkpt><trkpt lat="44.77361013202648" lon="10.26268704612203"><ele>86.0</ele><time>2026-05-03T10:42:30.999Z</time></trkpt><trkpt lat="44.77358378526225" lon="10.262819373092258"><ele>86.0</ele><time>2026-05-03T10:42:32.999Z</time></trkpt><trkpt lat="44.77370322968234" lon="10.262844589098165"><ele>86.0</ele><time>2026-05-03T10:48:35.999Z</time></trkpt></trkseg></trk></gpx>